<?xml version="1.0" encoding="UTF-8"?>
<gpx version="1.1" creator="https://www.youtrack.es" xsi:schemaLocation="http://www.topografix.com/GPX/1/1 http://www.topografix.com/GPX/1/1/gpx.xsd http://www.garmin.com/xmlschemas/GpxExtensions/v3 http://www.garmin.com/xmlschemas/GpxExtensionsv3.xsd http://www.garmin.com/xmlschemas/TrackPointExtension/v1 http://www.garmin.com/xmlschemas/TrackPointExtensionv1.xsd" xmlns:gpxtpx="http://www.garmin.com/xmlschemas/TrackPointExtension/v1" xmlns:gpxx="http://www.garmin.com/xmlschemas/GpxExtensions/v3" xmlns:xsi="http://www.w3.org/2001/XMLSchema-instance">
  <metadata>
    <author>
      <name>CTx100km Ultratrail</name>
      <email id="info" domain="costatropicalx100km.com"/>
    </author>
    <link href="https://www.youtrack.es">
      <text>YouTrack.es</text>
    </link>
    <time>2026-05-10T17:54:42Z</time>
  </metadata>
  <trk>
    <src>https://www.youtrack.es</src>
    <link href="https://www.youtrack.es/ruta/39544-ctx100km-parte1">
      <text>YouTrack.es</text>
    </link>
    <trkseg>
      <trkpt lat="36.741794" lon="-3.521685">
        <ele>8.395</ele>
        <time>2022-12-06T04:19:14Z</time>
      </trkpt>
      <trkpt lat="36.741703" lon="-3.521645">
        <ele>9.349</ele>
        <time>2022-12-06T04:19:23Z</time>
      </trkpt>
      <trkpt lat="36.741694" lon="-3.521648">
        <ele>9.323</ele>
        <time>2022-12-06T04:19:24Z</time>
      </trkpt>
      <trkpt lat="36.741669" lon="-3.521731">
        <ele>9.109</ele>
        <time>2022-12-06T04:19:29Z</time>
      </trkpt>
      <trkpt lat="36.741634" lon="-3.521901">
        <ele>8.120</ele>
        <time>2022-12-06T04:19:37Z</time>
      </trkpt>
      <trkpt lat="36.741493" lon="-3.522063">
        <ele>7.431</ele>
        <time>2022-12-06T04:19:45Z</time>
      </trkpt>
      <trkpt lat="36.741474" lon="-3.522079">
        <ele>7.169</ele>
        <time>2022-12-06T04:19:46Z</time>
      </trkpt>
      <trkpt lat="36.741428" lon="-3.522088">
        <ele>7.166</ele>
        <time>2022-12-06T04:19:48Z</time>
      </trkpt>
      <trkpt lat="36.741277" lon="-3.521964">
        <ele>6.414</ele>
        <time>2022-12-06T04:19:55Z</time>
      </trkpt>
      <trkpt lat="36.741150" lon="-3.521786">
        <ele>6.458</ele>
        <time>2022-12-06T04:20:02Z</time>
      </trkpt>
      <trkpt lat="36.741066" lon="-3.521675">
        <ele>6.139</ele>
        <time>2022-12-06T04:20:07Z</time>
      </trkpt>
      <trkpt lat="36.740917" lon="-3.521539">
        <ele>5.586</ele>
        <time>2022-12-06T04:20:14Z</time>
      </trkpt>
      <trkpt lat="36.740774" lon="-3.521371">
        <ele>5.877</ele>
        <time>2022-12-06T04:20:22Z</time>
      </trkpt>
      <trkpt lat="36.740640" lon="-3.521207">
        <ele>6.187</ele>
        <time>2022-12-06T04:20:30Z</time>
      </trkpt>
      <trkpt lat="36.740469" lon="-3.521059">
        <ele>6.042</ele>
        <time>2022-12-06T04:20:38Z</time>
      </trkpt>
      <trkpt lat="36.740313" lon="-3.520942">
        <ele>5.826</ele>
        <time>2022-12-06T04:20:45Z</time>
      </trkpt>
      <trkpt lat="36.740140" lon="-3.520875">
        <ele>5.809</ele>
        <time>2022-12-06T04:20:52Z</time>
      </trkpt>
      <trkpt lat="36.739954" lon="-3.520924">
        <ele>5.819</ele>
        <time>2022-12-06T04:21:01Z</time>
      </trkpt>
      <trkpt lat="36.739759" lon="-3.520965">
        <ele>5.840</ele>
        <time>2022-12-06T04:21:08Z</time>
      </trkpt>
      <trkpt lat="36.739579" lon="-3.521041">
        <ele>5.858</ele>
        <time>2022-12-06T04:21:16Z</time>
      </trkpt>
      <trkpt lat="36.739524" lon="-3.521049">
        <ele>5.835</ele>
        <time>2022-12-06T04:21:19Z</time>
      </trkpt>
      <trkpt lat="36.739511" lon="-3.520997">
        <ele>6.043</ele>
        <time>2022-12-06T04:21:22Z</time>
      </trkpt>
      <trkpt lat="36.739611" lon="-3.520931">
        <ele>7.067</ele>
        <time>2022-12-06T04:21:29Z</time>
      </trkpt>
      <trkpt lat="36.739628" lon="-3.520834">
        <ele>7.138</ele>
        <time>2022-12-06T04:21:33Z</time>
      </trkpt>
      <trkpt lat="36.739573" lon="-3.520616">
        <ele>7.015</ele>
        <time>2022-12-06T04:21:40Z</time>
      </trkpt>
      <trkpt lat="36.739463" lon="-3.520409">
        <ele>6.126</ele>
        <time>2022-12-06T04:21:47Z</time>
      </trkpt>
      <trkpt lat="36.739411" lon="-3.520190">
        <ele>5.567</ele>
        <time>2022-12-06T04:21:54Z</time>
      </trkpt>
      <trkpt lat="36.739381" lon="-3.519958">
        <ele>5.581</ele>
        <time>2022-12-06T04:22:01Z</time>
      </trkpt>
      <trkpt lat="36.739382" lon="-3.519804">
        <ele>5.119</ele>
        <time>2022-12-06T04:22:06Z</time>
      </trkpt>
      <trkpt lat="36.739397" lon="-3.519573">
        <ele>5.009</ele>
        <time>2022-12-06T04:22:13Z</time>
      </trkpt>
      <trkpt lat="36.739442" lon="-3.519328">
        <ele>5.127</ele>
        <time>2022-12-06T04:22:21Z</time>
      </trkpt>
      <trkpt lat="36.739499" lon="-3.519104">
        <ele>6.098</ele>
        <time>2022-12-06T04:22:29Z</time>
      </trkpt>
      <trkpt lat="36.739508" lon="-3.519074">
        <ele>6.126</ele>
        <time>2022-12-06T04:22:30Z</time>
      </trkpt>
      <trkpt lat="36.739538" lon="-3.518827">
        <ele>7.123</ele>
        <time>2022-12-06T04:22:38Z</time>
      </trkpt>
      <trkpt lat="36.739547" lon="-3.518730">
        <ele>7.461</ele>
        <time>2022-12-06T04:22:41Z</time>
      </trkpt>
      <trkpt lat="36.739604" lon="-3.518518">
        <ele>7.865</ele>
        <time>2022-12-06T04:22:48Z</time>
      </trkpt>
      <trkpt lat="36.739657" lon="-3.518338">
        <ele>8.676</ele>
        <time>2022-12-06T04:22:54Z</time>
      </trkpt>
      <trkpt lat="36.739742" lon="-3.518131">
        <ele>9.193</ele>
        <time>2022-12-06T04:23:02Z</time>
      </trkpt>
      <trkpt lat="36.739909" lon="-3.518004">
        <ele>9.684</ele>
        <time>2022-12-06T04:23:10Z</time>
      </trkpt>
      <trkpt lat="36.740089" lon="-3.517924">
        <ele>10.013</ele>
        <time>2022-12-06T04:23:17Z</time>
      </trkpt>
      <trkpt lat="36.740258" lon="-3.517838">
        <ele>10.643</ele>
        <time>2022-12-06T04:23:24Z</time>
      </trkpt>
      <trkpt lat="36.740412" lon="-3.517717">
        <ele>11.007</ele>
        <time>2022-12-06T04:23:32Z</time>
      </trkpt>
      <trkpt lat="36.740597" lon="-3.517631">
        <ele>11.109</ele>
        <time>2022-12-06T04:23:40Z</time>
      </trkpt>
      <trkpt lat="36.740769" lon="-3.517530">
        <ele>11.392</ele>
        <time>2022-12-06T04:23:47Z</time>
      </trkpt>
      <trkpt lat="36.740868" lon="-3.517493">
        <ele>11.893</ele>
        <time>2022-12-06T04:23:51Z</time>
      </trkpt>
      <trkpt lat="36.741064" lon="-3.517440">
        <ele>12.031</ele>
        <time>2022-12-06T04:23:58Z</time>
      </trkpt>
      <trkpt lat="36.741153" lon="-3.517416">
        <ele>12.338</ele>
        <time>2022-12-06T04:24:02Z</time>
      </trkpt>
      <trkpt lat="36.741311" lon="-3.517359">
        <ele>12.816</ele>
        <time>2022-12-06T04:24:08Z</time>
      </trkpt>
      <trkpt lat="36.741496" lon="-3.517298">
        <ele>13.130</ele>
        <time>2022-12-06T04:24:17Z</time>
      </trkpt>
      <trkpt lat="36.741677" lon="-3.517238">
        <ele>13.811</ele>
        <time>2022-12-06T04:24:26Z</time>
      </trkpt>
      <trkpt lat="36.741735" lon="-3.517216">
        <ele>14.028</ele>
        <time>2022-12-06T04:24:28Z</time>
      </trkpt>
      <trkpt lat="36.741932" lon="-3.517217">
        <ele>14.669</ele>
        <time>2022-12-06T04:24:38Z</time>
      </trkpt>
      <trkpt lat="36.742075" lon="-3.517232">
        <ele>15.072</ele>
        <time>2022-12-06T04:24:43Z</time>
      </trkpt>
      <trkpt lat="36.742272" lon="-3.517264">
        <ele>15.313</ele>
        <time>2022-12-06T04:24:50Z</time>
      </trkpt>
      <trkpt lat="36.742458" lon="-3.517269">
        <ele>15.814</ele>
        <time>2022-12-06T04:24:56Z</time>
      </trkpt>
      <trkpt lat="36.742517" lon="-3.517263">
        <ele>16.009</ele>
        <time>2022-12-06T04:24:59Z</time>
      </trkpt>
      <trkpt lat="36.742723" lon="-3.517264">
        <ele>16.648</ele>
        <time>2022-12-06T04:25:07Z</time>
      </trkpt>
      <trkpt lat="36.742764" lon="-3.517263">
        <ele>17.029</ele>
        <time>2022-12-06T04:25:09Z</time>
      </trkpt>
      <trkpt lat="36.742957" lon="-3.517258">
        <ele>18.277</ele>
        <time>2022-12-06T04:25:19Z</time>
      </trkpt>
      <trkpt lat="36.742990" lon="-3.517232">
        <ele>18.314</ele>
        <time>2022-12-06T04:25:21Z</time>
      </trkpt>
      <trkpt lat="36.743102" lon="-3.516999">
        <ele>19.082</ele>
        <time>2022-12-06T04:25:28Z</time>
      </trkpt>
      <trkpt lat="36.743094" lon="-3.516898">
        <ele>19.046</ele>
        <time>2022-12-06T04:25:31Z</time>
      </trkpt>
      <trkpt lat="36.743132" lon="-3.516691">
        <ele>19.227</ele>
        <time>2022-12-06T04:25:36Z</time>
      </trkpt>
      <trkpt lat="36.743120" lon="-3.516448">
        <ele>19.774</ele>
        <time>2022-12-06T04:25:44Z</time>
      </trkpt>
      <trkpt lat="36.743116" lon="-3.516199">
        <ele>19.735</ele>
        <time>2022-12-06T04:25:51Z</time>
      </trkpt>
      <trkpt lat="36.743056" lon="-3.515965">
        <ele>19.768</ele>
        <time>2022-12-06T04:25:59Z</time>
      </trkpt>
      <trkpt lat="36.742998" lon="-3.515741">
        <ele>19.742</ele>
        <time>2022-12-06T04:26:06Z</time>
      </trkpt>
      <trkpt lat="36.742930" lon="-3.515513">
        <ele>20.026</ele>
        <time>2022-12-06T04:26:13Z</time>
      </trkpt>
      <trkpt lat="36.742888" lon="-3.515292">
        <ele>20.009</ele>
        <time>2022-12-06T04:26:21Z</time>
      </trkpt>
      <trkpt lat="36.742810" lon="-3.515087">
        <ele>19.777</ele>
        <time>2022-12-06T04:26:28Z</time>
      </trkpt>
      <trkpt lat="36.742654" lon="-3.514937">
        <ele>19.318</ele>
        <time>2022-12-06T04:26:34Z</time>
      </trkpt>
      <trkpt lat="36.742494" lon="-3.514823">
        <ele>18.376</ele>
        <time>2022-12-06T04:26:40Z</time>
      </trkpt>
      <trkpt lat="36.742471" lon="-3.514807">
        <ele>18.273</ele>
        <time>2022-12-06T04:26:41Z</time>
      </trkpt>
      <trkpt lat="36.742437" lon="-3.514685">
        <ele>17.381</ele>
        <time>2022-12-06T04:26:46Z</time>
      </trkpt>
      <trkpt lat="36.742560" lon="-3.514522">
        <ele>17.685</ele>
        <time>2022-12-06T04:26:53Z</time>
      </trkpt>
      <trkpt lat="36.742697" lon="-3.514336">
        <ele>18.056</ele>
        <time>2022-12-06T04:27:01Z</time>
      </trkpt>
      <trkpt lat="36.742830" lon="-3.514185">
        <ele>18.613</ele>
        <time>2022-12-06T04:27:08Z</time>
      </trkpt>
      <trkpt lat="36.742980" lon="-3.514017">
        <ele>18.744</ele>
        <time>2022-12-06T04:27:16Z</time>
      </trkpt>
      <trkpt lat="36.743097" lon="-3.513823">
        <ele>18.667</ele>
        <time>2022-12-06T04:27:22Z</time>
      </trkpt>
      <trkpt lat="36.743162" lon="-3.513600">
        <ele>18.681</ele>
        <time>2022-12-06T04:27:27Z</time>
      </trkpt>
      <trkpt lat="36.743181" lon="-3.513580">
        <ele>18.619</ele>
        <time>2022-12-06T04:27:29Z</time>
      </trkpt>
      <trkpt lat="36.743230" lon="-3.513591">
        <ele>18.709</ele>
        <time>2022-12-06T04:27:32Z</time>
      </trkpt>
      <trkpt lat="36.743266" lon="-3.513345">
        <ele>18.767</ele>
        <time>2022-12-06T04:27:40Z</time>
      </trkpt>
      <trkpt lat="36.743351" lon="-3.513188">
        <ele>19.248</ele>
        <time>2022-12-06T04:27:44Z</time>
      </trkpt>
      <trkpt lat="36.743447" lon="-3.512939">
        <ele>19.226</ele>
        <time>2022-12-06T04:27:52Z</time>
      </trkpt>
      <trkpt lat="36.743505" lon="-3.512718">
        <ele>19.663</ele>
        <time>2022-12-06T04:27:59Z</time>
      </trkpt>
      <trkpt lat="36.743512" lon="-3.512532">
        <ele>20.291</ele>
        <time>2022-12-06T04:28:05Z</time>
      </trkpt>
      <trkpt lat="36.743590" lon="-3.512455">
        <ele>20.755</ele>
        <time>2022-12-06T04:28:12Z</time>
      </trkpt>
      <trkpt lat="36.743597" lon="-3.512225">
        <ele>21.086</ele>
        <time>2022-12-06T04:28:18Z</time>
      </trkpt>
      <trkpt lat="36.743611" lon="-3.512001">
        <ele>20.743</ele>
        <time>2022-12-06T04:28:24Z</time>
      </trkpt>
      <trkpt lat="36.743653" lon="-3.511782">
        <ele>21.264</ele>
        <time>2022-12-06T04:28:31Z</time>
      </trkpt>
      <trkpt lat="36.743663" lon="-3.511698">
        <ele>21.328</ele>
        <time>2022-12-06T04:28:34Z</time>
      </trkpt>
      <trkpt lat="36.743674" lon="-3.511473">
        <ele>21.689</ele>
        <time>2022-12-06T04:28:41Z</time>
      </trkpt>
      <trkpt lat="36.743676" lon="-3.511234">
        <ele>22.017</ele>
        <time>2022-12-06T04:28:48Z</time>
      </trkpt>
      <trkpt lat="36.743728" lon="-3.511001">
        <ele>22.309</ele>
        <time>2022-12-06T04:28:56Z</time>
      </trkpt>
      <trkpt lat="36.743813" lon="-3.510792">
        <ele>22.693</ele>
        <time>2022-12-06T04:29:03Z</time>
      </trkpt>
      <trkpt lat="36.743917" lon="-3.510586">
        <ele>23.384</ele>
        <time>2022-12-06T04:29:11Z</time>
      </trkpt>
      <trkpt lat="36.743933" lon="-3.510532">
        <ele>23.352</ele>
        <time>2022-12-06T04:29:13Z</time>
      </trkpt>
      <trkpt lat="36.744028" lon="-3.510311">
        <ele>24.049</ele>
        <time>2022-12-06T04:29:22Z</time>
      </trkpt>
      <trkpt lat="36.744172" lon="-3.510154">
        <ele>24.367</ele>
        <time>2022-12-06T04:29:31Z</time>
      </trkpt>
      <trkpt lat="36.744322" lon="-3.509991">
        <ele>24.651</ele>
        <time>2022-12-06T04:29:40Z</time>
      </trkpt>
      <trkpt lat="36.744469" lon="-3.509855">
        <ele>25.342</ele>
        <time>2022-12-06T04:29:47Z</time>
      </trkpt>
      <trkpt lat="36.744630" lon="-3.509748">
        <ele>25.779</ele>
        <time>2022-12-06T04:29:54Z</time>
      </trkpt>
      <trkpt lat="36.744762" lon="-3.509692">
        <ele>26.090</ele>
        <time>2022-12-06T04:30:01Z</time>
      </trkpt>
      <trkpt lat="36.744875" lon="-3.509654">
        <ele>26.348</ele>
        <time>2022-12-06T04:30:06Z</time>
      </trkpt>
      <trkpt lat="36.745070" lon="-3.509618">
        <ele>26.661</ele>
        <time>2022-12-06T04:30:14Z</time>
      </trkpt>
      <trkpt lat="36.745265" lon="-3.509583">
        <ele>27.217</ele>
        <time>2022-12-06T04:30:23Z</time>
      </trkpt>
      <trkpt lat="36.745455" lon="-3.509560">
        <ele>27.209</ele>
        <time>2022-12-06T04:30:31Z</time>
      </trkpt>
      <trkpt lat="36.745654" lon="-3.509521">
        <ele>27.695</ele>
        <time>2022-12-06T04:30:38Z</time>
      </trkpt>
      <trkpt lat="36.745837" lon="-3.509518">
        <ele>28.026</ele>
        <time>2022-12-06T04:30:45Z</time>
      </trkpt>
      <trkpt lat="36.746015" lon="-3.509464">
        <ele>28.324</ele>
        <time>2022-12-06T04:30:51Z</time>
      </trkpt>
      <trkpt lat="36.746163" lon="-3.509420">
        <ele>28.691</ele>
        <time>2022-12-06T04:30:57Z</time>
      </trkpt>
      <trkpt lat="36.746362" lon="-3.509441">
        <ele>29.029</ele>
        <time>2022-12-06T04:31:08Z</time>
      </trkpt>
      <trkpt lat="36.746557" lon="-3.509314">
        <ele>29.293</ele>
        <time>2022-12-06T04:31:14Z</time>
      </trkpt>
      <trkpt lat="36.746591" lon="-3.509299">
        <ele>29.214</ele>
        <time>2022-12-06T04:31:15Z</time>
      </trkpt>
      <trkpt lat="36.746778" lon="-3.509227">
        <ele>29.291</ele>
        <time>2022-12-06T04:31:21Z</time>
      </trkpt>
      <trkpt lat="36.746945" lon="-3.509242">
        <ele>29.732</ele>
        <time>2022-12-06T04:31:27Z</time>
      </trkpt>
      <trkpt lat="36.747139" lon="-3.509303">
        <ele>30.249</ele>
        <time>2022-12-06T04:31:35Z</time>
      </trkpt>
      <trkpt lat="36.747339" lon="-3.509324">
        <ele>30.202</ele>
        <time>2022-12-06T04:31:43Z</time>
      </trkpt>
      <trkpt lat="36.747517" lon="-3.509335">
        <ele>30.722</ele>
        <time>2022-12-06T04:31:50Z</time>
      </trkpt>
      <trkpt lat="36.747705" lon="-3.509363">
        <ele>31.209</ele>
        <time>2022-12-06T04:31:58Z</time>
      </trkpt>
      <trkpt lat="36.747911" lon="-3.509361">
        <ele>31.635</ele>
        <time>2022-12-06T04:32:06Z</time>
      </trkpt>
      <trkpt lat="36.747983" lon="-3.509383">
        <ele>31.776</ele>
        <time>2022-12-06T04:32:09Z</time>
      </trkpt>
      <trkpt lat="36.748168" lon="-3.509384">
        <ele>32.034</ele>
        <time>2022-12-06T04:32:17Z</time>
      </trkpt>
      <trkpt lat="36.748368" lon="-3.509412">
        <ele>32.761</ele>
        <time>2022-12-06T04:32:26Z</time>
      </trkpt>
      <trkpt lat="36.748419" lon="-3.509416">
        <ele>32.749</ele>
        <time>2022-12-06T04:32:28Z</time>
      </trkpt>
      <trkpt lat="36.748604" lon="-3.509460">
        <ele>33.453</ele>
        <time>2022-12-06T04:32:36Z</time>
      </trkpt>
      <trkpt lat="36.748790" lon="-3.509486">
        <ele>33.744</ele>
        <time>2022-12-06T04:32:44Z</time>
      </trkpt>
      <trkpt lat="36.748990" lon="-3.509490">
        <ele>34.561</ele>
        <time>2022-12-06T04:32:52Z</time>
      </trkpt>
      <trkpt lat="36.749175" lon="-3.509543">
        <ele>35.012</ele>
        <time>2022-12-06T04:33:00Z</time>
      </trkpt>
      <trkpt lat="36.749260" lon="-3.509406">
        <ele>35.284</ele>
        <time>2022-12-06T04:33:02Z</time>
      </trkpt>
      <trkpt lat="36.749354" lon="-3.509255">
        <ele>35.207</ele>
        <time>2022-12-06T04:33:08Z</time>
      </trkpt>
      <trkpt lat="36.749546" lon="-3.509247">
        <ele>35.517</ele>
        <time>2022-12-06T04:33:15Z</time>
      </trkpt>
      <trkpt lat="36.749687" lon="-3.509102">
        <ele>36.009</ele>
        <time>2022-12-06T04:33:21Z</time>
      </trkpt>
      <trkpt lat="36.749804" lon="-3.508928">
        <ele>36.589</ele>
        <time>2022-12-06T04:33:28Z</time>
      </trkpt>
      <trkpt lat="36.749846" lon="-3.508706">
        <ele>36.570</ele>
        <time>2022-12-06T04:33:40Z</time>
      </trkpt>
      <trkpt lat="36.749942" lon="-3.508560">
        <ele>37.018</ele>
        <time>2022-12-06T04:33:49Z</time>
      </trkpt>
      <trkpt lat="36.750062" lon="-3.508381">
        <ele>36.755</ele>
        <time>2022-12-06T04:33:56Z</time>
      </trkpt>
      <trkpt lat="36.750147" lon="-3.508256">
        <ele>36.023</ele>
        <time>2022-12-06T04:34:01Z</time>
      </trkpt>
      <trkpt lat="36.750264" lon="-3.508085">
        <ele>35.777</ele>
        <time>2022-12-06T04:34:08Z</time>
      </trkpt>
      <trkpt lat="36.750384" lon="-3.507916">
        <ele>36.288</ele>
        <time>2022-12-06T04:34:15Z</time>
      </trkpt>
      <trkpt lat="36.750527" lon="-3.507739">
        <ele>36.475</ele>
        <time>2022-12-06T04:34:23Z</time>
      </trkpt>
      <trkpt lat="36.750661" lon="-3.507575">
        <ele>36.536</ele>
        <time>2022-12-06T04:34:31Z</time>
      </trkpt>
      <trkpt lat="36.750778" lon="-3.507441">
        <ele>37.076</ele>
        <time>2022-12-06T04:34:38Z</time>
      </trkpt>
      <trkpt lat="36.750815" lon="-3.507204">
        <ele>37.290</ele>
        <time>2022-12-06T04:34:46Z</time>
      </trkpt>
      <trkpt lat="36.750824" lon="-3.506982">
        <ele>37.419</ele>
        <time>2022-12-06T04:34:55Z</time>
      </trkpt>
      <trkpt lat="36.750818" lon="-3.506943">
        <ele>37.409</ele>
        <time>2022-12-06T04:34:59Z</time>
      </trkpt>
      <trkpt lat="36.750819" lon="-3.506918">
        <ele>38.068</ele>
        <time>2022-12-06T04:35:02Z</time>
      </trkpt>
      <trkpt lat="36.750819" lon="-3.506904">
        <ele>39.249</ele>
        <time>2022-12-06T04:35:05Z</time>
      </trkpt>
      <trkpt lat="36.750819" lon="-3.506896">
        <ele>39.447</ele>
        <time>2022-12-06T04:35:06Z</time>
      </trkpt>
      <trkpt lat="36.750822" lon="-3.506872">
        <ele>40.224</ele>
        <time>2022-12-06T04:35:09Z</time>
      </trkpt>
      <trkpt lat="36.750822" lon="-3.506850">
        <ele>41.222</ele>
        <time>2022-12-06T04:35:13Z</time>
      </trkpt>
      <trkpt lat="36.750860" lon="-3.506820">
        <ele>42.016</ele>
        <time>2022-12-06T04:35:17Z</time>
      </trkpt>
      <trkpt lat="36.751026" lon="-3.506721">
        <ele>42.057</ele>
        <time>2022-12-06T04:35:29Z</time>
      </trkpt>
      <trkpt lat="36.751066" lon="-3.506698">
        <ele>42.424</ele>
        <time>2022-12-06T04:35:33Z</time>
      </trkpt>
      <trkpt lat="36.751227" lon="-3.506553">
        <ele>41.595</ele>
        <time>2022-12-06T04:35:44Z</time>
      </trkpt>
      <trkpt lat="36.751292" lon="-3.506464">
        <ele>41.274</ele>
        <time>2022-12-06T04:35:48Z</time>
      </trkpt>
      <trkpt lat="36.751426" lon="-3.506291">
        <ele>41.556</ele>
        <time>2022-12-06T04:35:56Z</time>
      </trkpt>
      <trkpt lat="36.751459" lon="-3.506230">
        <ele>42.221</ele>
        <time>2022-12-06T04:35:59Z</time>
      </trkpt>
      <trkpt lat="36.751500" lon="-3.506155">
        <ele>43.409</ele>
        <time>2022-12-06T04:36:03Z</time>
      </trkpt>
      <trkpt lat="36.751577" lon="-3.506024">
        <ele>44.488</ele>
        <time>2022-12-06T04:36:09Z</time>
      </trkpt>
      <trkpt lat="36.751639" lon="-3.505880">
        <ele>45.449</ele>
        <time>2022-12-06T04:36:15Z</time>
      </trkpt>
      <trkpt lat="36.751741" lon="-3.505708">
        <ele>46.567</ele>
        <time>2022-12-06T04:36:23Z</time>
      </trkpt>
      <trkpt lat="36.751849" lon="-3.505522">
        <ele>47.284</ele>
        <time>2022-12-06T04:36:32Z</time>
      </trkpt>
      <trkpt lat="36.751890" lon="-3.505399">
        <ele>47.562</ele>
        <time>2022-12-06T04:36:37Z</time>
      </trkpt>
      <trkpt lat="36.751936" lon="-3.505157">
        <ele>48.016</ele>
        <time>2022-12-06T04:36:46Z</time>
      </trkpt>
      <trkpt lat="36.752001" lon="-3.504943">
        <ele>48.587</ele>
        <time>2022-12-06T04:36:55Z</time>
      </trkpt>
      <trkpt lat="36.752040" lon="-3.504766">
        <ele>49.524</ele>
        <time>2022-12-06T04:37:03Z</time>
      </trkpt>
      <trkpt lat="36.752060" lon="-3.504584">
        <ele>50.255</ele>
        <time>2022-12-06T04:37:14Z</time>
      </trkpt>
      <trkpt lat="36.752104" lon="-3.504385">
        <ele>50.761</ele>
        <time>2022-12-06T04:37:25Z</time>
      </trkpt>
      <trkpt lat="36.752162" lon="-3.504226">
        <ele>51.721</ele>
        <time>2022-12-06T04:37:35Z</time>
      </trkpt>
      <trkpt lat="36.752240" lon="-3.504021">
        <ele>52.413</ele>
        <time>2022-12-06T04:37:48Z</time>
      </trkpt>
      <trkpt lat="36.752309" lon="-3.503814">
        <ele>52.209</ele>
        <time>2022-12-06T04:38:02Z</time>
      </trkpt>
      <trkpt lat="36.752377" lon="-3.503687">
        <ele>52.777</ele>
        <time>2022-12-06T04:38:11Z</time>
      </trkpt>
      <trkpt lat="36.752486" lon="-3.503509">
        <ele>53.458</ele>
        <time>2022-12-06T04:38:24Z</time>
      </trkpt>
      <trkpt lat="36.752540" lon="-3.503407">
        <ele>53.726</ele>
        <time>2022-12-06T04:38:31Z</time>
      </trkpt>
      <trkpt lat="36.752583" lon="-3.503300">
        <ele>54.583</ele>
        <time>2022-12-06T04:38:38Z</time>
      </trkpt>
      <trkpt lat="36.752594" lon="-3.503268">
        <ele>54.721</ele>
        <time>2022-12-06T04:38:40Z</time>
      </trkpt>
      <trkpt lat="36.752685" lon="-3.503070">
        <ele>55.735</ele>
        <time>2022-12-06T04:38:54Z</time>
      </trkpt>
      <trkpt lat="36.752693" lon="-3.503055">
        <ele>55.756</ele>
        <time>2022-12-06T04:38:55Z</time>
      </trkpt>
      <trkpt lat="36.752796" lon="-3.502856">
        <ele>56.253</ele>
        <time>2022-12-06T04:39:09Z</time>
      </trkpt>
      <trkpt lat="36.752866" lon="-3.502718">
        <ele>56.794</ele>
        <time>2022-12-06T04:39:20Z</time>
      </trkpt>
      <trkpt lat="36.752991" lon="-3.502550">
        <ele>57.713</ele>
        <time>2022-12-06T04:39:33Z</time>
      </trkpt>
      <trkpt lat="36.753010" lon="-3.502516">
        <ele>58.043</ele>
        <time>2022-12-06T04:39:35Z</time>
      </trkpt>
      <trkpt lat="36.753087" lon="-3.502305">
        <ele>58.707</ele>
        <time>2022-12-06T04:39:48Z</time>
      </trkpt>
      <trkpt lat="36.753096" lon="-3.502257">
        <ele>59.009</ele>
        <time>2022-12-06T04:39:51Z</time>
      </trkpt>
      <trkpt lat="36.753174" lon="-3.502046">
        <ele>59.252</ele>
        <time>2022-12-06T04:40:05Z</time>
      </trkpt>
      <trkpt lat="36.753225" lon="-3.501888">
        <ele>60.033</ele>
        <time>2022-12-06T04:40:15Z</time>
      </trkpt>
      <trkpt lat="36.753275" lon="-3.501687">
        <ele>61.281</ele>
        <time>2022-12-06T04:40:27Z</time>
      </trkpt>
      <trkpt lat="36.753342" lon="-3.501531">
        <ele>62.228</ele>
        <time>2022-12-06T04:40:36Z</time>
      </trkpt>
      <trkpt lat="36.753436" lon="-3.501327">
        <ele>63.076</ele>
        <time>2022-12-06T04:40:48Z</time>
      </trkpt>
      <trkpt lat="36.753474" lon="-3.501228">
        <ele>63.220</ele>
        <time>2022-12-06T04:40:54Z</time>
      </trkpt>
      <trkpt lat="36.753561" lon="-3.501024">
        <ele>63.711</ele>
        <time>2022-12-06T04:41:07Z</time>
      </trkpt>
      <trkpt lat="36.753630" lon="-3.500902">
        <ele>64.468</ele>
        <time>2022-12-06T04:41:15Z</time>
      </trkpt>
      <trkpt lat="36.753718" lon="-3.500746">
        <ele>65.599</ele>
        <time>2022-12-06T04:41:26Z</time>
      </trkpt>
      <trkpt lat="36.753841" lon="-3.500641">
        <ele>66.835</ele>
        <time>2022-12-06T04:41:35Z</time>
      </trkpt>
      <trkpt lat="36.753911" lon="-3.500623">
        <ele>67.886</ele>
        <time>2022-12-06T04:41:40Z</time>
      </trkpt>
      <trkpt lat="36.754017" lon="-3.500682">
        <ele>68.814</ele>
        <time>2022-12-06T04:41:49Z</time>
      </trkpt>
      <trkpt lat="36.754101" lon="-3.500746">
        <ele>70.009</ele>
        <time>2022-12-06T04:41:56Z</time>
      </trkpt>
      <trkpt lat="36.754142" lon="-3.500807">
        <ele>71.044</ele>
        <time>2022-12-06T04:42:01Z</time>
      </trkpt>
      <trkpt lat="36.754190" lon="-3.500840">
        <ele>72.195</ele>
        <time>2022-12-06T04:42:06Z</time>
      </trkpt>
      <trkpt lat="36.754240" lon="-3.500885">
        <ele>73.473</ele>
        <time>2022-12-06T04:42:11Z</time>
      </trkpt>
      <trkpt lat="36.754259" lon="-3.500908">
        <ele>73.880</ele>
        <time>2022-12-06T04:42:13Z</time>
      </trkpt>
      <trkpt lat="36.754287" lon="-3.500940">
        <ele>74.438</ele>
        <time>2022-12-06T04:42:16Z</time>
      </trkpt>
      <trkpt lat="36.754380" lon="-3.500980">
        <ele>75.422</ele>
        <time>2022-12-06T04:42:22Z</time>
      </trkpt>
      <trkpt lat="36.754463" lon="-3.500999">
        <ele>76.513</ele>
        <time>2022-12-06T04:42:28Z</time>
      </trkpt>
      <trkpt lat="36.754548" lon="-3.501013">
        <ele>77.580</ele>
        <time>2022-12-06T04:42:35Z</time>
      </trkpt>
      <trkpt lat="36.754620" lon="-3.500996">
        <ele>78.831</ele>
        <time>2022-12-06T04:42:41Z</time>
      </trkpt>
      <trkpt lat="36.754695" lon="-3.500973">
        <ele>79.877</ele>
        <time>2022-12-06T04:42:47Z</time>
      </trkpt>
      <trkpt lat="36.754774" lon="-3.500956">
        <ele>80.861</ele>
        <time>2022-12-06T04:42:54Z</time>
      </trkpt>
      <trkpt lat="36.754857" lon="-3.500933">
        <ele>81.827</ele>
        <time>2022-12-06T04:43:01Z</time>
      </trkpt>
      <trkpt lat="36.754948" lon="-3.500901">
        <ele>82.809</ele>
        <time>2022-12-06T04:43:08Z</time>
      </trkpt>
      <trkpt lat="36.755050" lon="-3.500852">
        <ele>84.038</ele>
        <time>2022-12-06T04:43:16Z</time>
      </trkpt>
      <trkpt lat="36.755112" lon="-3.500814">
        <ele>85.139</ele>
        <time>2022-12-06T04:43:21Z</time>
      </trkpt>
      <trkpt lat="36.755274" lon="-3.500677">
        <ele>85.527</ele>
        <time>2022-12-06T04:43:33Z</time>
      </trkpt>
      <trkpt lat="36.755356" lon="-3.500622">
        <ele>86.114</ele>
        <time>2022-12-06T04:43:39Z</time>
      </trkpt>
      <trkpt lat="36.755530" lon="-3.500505">
        <ele>87.142</ele>
        <time>2022-12-06T04:43:52Z</time>
      </trkpt>
      <trkpt lat="36.755603" lon="-3.500405">
        <ele>88.486</ele>
        <time>2022-12-06T04:43:57Z</time>
      </trkpt>
      <trkpt lat="36.755649" lon="-3.500283">
        <ele>89.557</ele>
        <time>2022-12-06T04:44:02Z</time>
      </trkpt>
      <trkpt lat="36.755777" lon="-3.500121">
        <ele>90.034</ele>
        <time>2022-12-06T04:44:10Z</time>
      </trkpt>
      <trkpt lat="36.755944" lon="-3.500004">
        <ele>89.815</ele>
        <time>2022-12-06T04:44:19Z</time>
      </trkpt>
      <trkpt lat="36.756123" lon="-3.499894">
        <ele>89.595</ele>
        <time>2022-12-06T04:44:30Z</time>
      </trkpt>
      <trkpt lat="36.756290" lon="-3.499805">
        <ele>90.049</ele>
        <time>2022-12-06T04:44:38Z</time>
      </trkpt>
      <trkpt lat="36.756490" lon="-3.499771">
        <ele>90.423</ele>
        <time>2022-12-06T04:44:47Z</time>
      </trkpt>
      <trkpt lat="36.756683" lon="-3.499748">
        <ele>90.809</ele>
        <time>2022-12-06T04:44:56Z</time>
      </trkpt>
      <trkpt lat="36.756868" lon="-3.499716">
        <ele>90.870</ele>
        <time>2022-12-06T04:45:04Z</time>
      </trkpt>
      <trkpt lat="36.757018" lon="-3.499595">
        <ele>90.531</ele>
        <time>2022-12-06T04:45:11Z</time>
      </trkpt>
      <trkpt lat="36.757060" lon="-3.499375">
        <ele>91.099</ele>
        <time>2022-12-06T04:45:18Z</time>
      </trkpt>
      <trkpt lat="36.757137" lon="-3.499156">
        <ele>90.836</ele>
        <time>2022-12-06T04:45:26Z</time>
      </trkpt>
      <trkpt lat="36.757235" lon="-3.498957">
        <ele>90.594</ele>
        <time>2022-12-06T04:45:34Z</time>
      </trkpt>
      <trkpt lat="36.757288" lon="-3.498716">
        <ele>90.478</ele>
        <time>2022-12-06T04:45:42Z</time>
      </trkpt>
      <trkpt lat="36.757252" lon="-3.498469">
        <ele>90.529</ele>
        <time>2022-12-06T04:45:51Z</time>
      </trkpt>
      <trkpt lat="36.757295" lon="-3.498246">
        <ele>90.166</ele>
        <time>2022-12-06T04:45:59Z</time>
      </trkpt>
      <trkpt lat="36.757441" lon="-3.498093">
        <ele>90.417</ele>
        <time>2022-12-06T04:46:06Z</time>
      </trkpt>
      <trkpt lat="36.757616" lon="-3.497964">
        <ele>90.185</ele>
        <time>2022-12-06T04:46:14Z</time>
      </trkpt>
      <trkpt lat="36.757741" lon="-3.497798">
        <ele>90.489</ele>
        <time>2022-12-06T04:46:22Z</time>
      </trkpt>
      <trkpt lat="36.757829" lon="-3.497603">
        <ele>90.517</ele>
        <time>2022-12-06T04:46:30Z</time>
      </trkpt>
      <trkpt lat="36.757923" lon="-3.497455">
        <ele>92.009</ele>
        <time>2022-12-06T04:46:38Z</time>
      </trkpt>
      <trkpt lat="36.757956" lon="-3.497351">
        <ele>93.169</ele>
        <time>2022-12-06T04:46:45Z</time>
      </trkpt>
      <trkpt lat="36.757964" lon="-3.497322">
        <ele>93.470</ele>
        <time>2022-12-06T04:46:48Z</time>
      </trkpt>
      <trkpt lat="36.757985" lon="-3.497268">
        <ele>93.498</ele>
        <time>2022-12-06T04:46:54Z</time>
      </trkpt>
      <trkpt lat="36.758006" lon="-3.497234">
        <ele>93.015</ele>
        <time>2022-12-06T04:46:56Z</time>
      </trkpt>
      <trkpt lat="36.758160" lon="-3.497113">
        <ele>93.443</ele>
        <time>2022-12-06T04:47:12Z</time>
      </trkpt>
      <trkpt lat="36.758166" lon="-3.497107">
        <ele>93.427</ele>
        <time>2022-12-06T04:47:13Z</time>
      </trkpt>
      <trkpt lat="36.758250" lon="-3.497026">
        <ele>93.128</ele>
        <time>2022-12-06T04:47:20Z</time>
      </trkpt>
      <trkpt lat="36.758418" lon="-3.496925">
        <ele>93.865</ele>
        <time>2022-12-06T04:47:33Z</time>
      </trkpt>
      <trkpt lat="36.758452" lon="-3.496896">
        <ele>94.166</ele>
        <time>2022-12-06T04:47:36Z</time>
      </trkpt>
      <trkpt lat="36.758484" lon="-3.496818">
        <ele>94.446</ele>
        <time>2022-12-06T04:47:40Z</time>
      </trkpt>
      <trkpt lat="36.758505" lon="-3.496745">
        <ele>94.488</ele>
        <time>2022-12-06T04:47:44Z</time>
      </trkpt>
      <trkpt lat="36.758605" lon="-3.496576">
        <ele>95.416</ele>
        <time>2022-12-06T04:47:54Z</time>
      </trkpt>
      <trkpt lat="36.758611" lon="-3.496569">
        <ele>95.509</ele>
        <time>2022-12-06T04:47:55Z</time>
      </trkpt>
      <trkpt lat="36.758645" lon="-3.496492">
        <ele>96.515</ele>
        <time>2022-12-06T04:48:01Z</time>
      </trkpt>
      <trkpt lat="36.758728" lon="-3.496282">
        <ele>97.446</ele>
        <time>2022-12-06T04:48:14Z</time>
      </trkpt>
      <trkpt lat="36.758788" lon="-3.496197">
        <ele>97.594</ele>
        <time>2022-12-06T04:48:19Z</time>
      </trkpt>
      <trkpt lat="36.758828" lon="-3.496163">
        <ele>98.191</ele>
        <time>2022-12-06T04:48:22Z</time>
      </trkpt>
      <trkpt lat="36.758857" lon="-3.496144">
        <ele>98.599</ele>
        <time>2022-12-06T04:48:24Z</time>
      </trkpt>
      <trkpt lat="36.759037" lon="-3.496116">
        <ele>99.073</ele>
        <time>2022-12-06T04:48:34Z</time>
      </trkpt>
      <trkpt lat="36.759090" lon="-3.496054">
        <ele>99.894</ele>
        <time>2022-12-06T04:48:37Z</time>
      </trkpt>
      <trkpt lat="36.759140" lon="-3.496018">
        <ele>100.571</ele>
        <time>2022-12-06T04:48:41Z</time>
      </trkpt>
      <trkpt lat="36.759173" lon="-3.496008">
        <ele>100.872</ele>
        <time>2022-12-06T04:48:43Z</time>
      </trkpt>
      <trkpt lat="36.759256" lon="-3.495977">
        <ele>101.898</ele>
        <time>2022-12-06T04:48:49Z</time>
      </trkpt>
      <trkpt lat="36.759441" lon="-3.495967">
        <ele>102.415</ele>
        <time>2022-12-06T04:49:02Z</time>
      </trkpt>
      <trkpt lat="36.759490" lon="-3.495988">
        <ele>102.826</ele>
        <time>2022-12-06T04:49:06Z</time>
      </trkpt>
      <trkpt lat="36.759510" lon="-3.496003">
        <ele>103.009</ele>
        <time>2022-12-06T04:49:08Z</time>
      </trkpt>
      <trkpt lat="36.759535" lon="-3.496011">
        <ele>103.460</ele>
        <time>2022-12-06T04:49:10Z</time>
      </trkpt>
      <trkpt lat="36.759569" lon="-3.496031">
        <ele>104.031</ele>
        <time>2022-12-06T04:49:13Z</time>
      </trkpt>
      <trkpt lat="36.759624" lon="-3.496042">
        <ele>105.189</ele>
        <time>2022-12-06T04:49:18Z</time>
      </trkpt>
      <trkpt lat="36.759660" lon="-3.496063">
        <ele>105.546</ele>
        <time>2022-12-06T04:49:22Z</time>
      </trkpt>
      <trkpt lat="36.759678" lon="-3.496083">
        <ele>106.154</ele>
        <time>2022-12-06T04:49:24Z</time>
      </trkpt>
      <trkpt lat="36.759859" lon="-3.496055">
        <ele>106.848</ele>
        <time>2022-12-06T04:49:35Z</time>
      </trkpt>
      <trkpt lat="36.759871" lon="-3.496054">
        <ele>107.019</ele>
        <time>2022-12-06T04:49:36Z</time>
      </trkpt>
      <trkpt lat="36.759917" lon="-3.496055">
        <ele>107.166</ele>
        <time>2022-12-06T04:49:38Z</time>
      </trkpt>
      <trkpt lat="36.759943" lon="-3.496053">
        <ele>107.137</ele>
        <time>2022-12-06T04:49:40Z</time>
      </trkpt>
      <trkpt lat="36.759962" lon="-3.496061">
        <ele>107.489</ele>
        <time>2022-12-06T04:49:42Z</time>
      </trkpt>
      <trkpt lat="36.760036" lon="-3.496058">
        <ele>108.106</ele>
        <time>2022-12-06T04:49:47Z</time>
      </trkpt>
      <trkpt lat="36.760123" lon="-3.496050">
        <ele>109.426</ele>
        <time>2022-12-06T04:49:53Z</time>
      </trkpt>
      <trkpt lat="36.760213" lon="-3.496028">
        <ele>110.109</ele>
        <time>2022-12-06T04:50:01Z</time>
      </trkpt>
      <trkpt lat="36.760221" lon="-3.496027">
        <ele>110.479</ele>
        <time>2022-12-06T04:50:02Z</time>
      </trkpt>
      <trkpt lat="36.760280" lon="-3.496027">
        <ele>111.450</ele>
        <time>2022-12-06T04:50:08Z</time>
      </trkpt>
      <trkpt lat="36.760308" lon="-3.496020">
        <ele>112.038</ele>
        <time>2022-12-06T04:50:10Z</time>
      </trkpt>
      <trkpt lat="36.760345" lon="-3.496023">
        <ele>112.865</ele>
        <time>2022-12-06T04:50:13Z</time>
      </trkpt>
      <trkpt lat="36.760354" lon="-3.496011">
        <ele>113.093</ele>
        <time>2022-12-06T04:50:15Z</time>
      </trkpt>
      <trkpt lat="36.760349" lon="-3.495971">
        <ele>113.877</ele>
        <time>2022-12-06T04:50:19Z</time>
      </trkpt>
      <trkpt lat="36.760344" lon="-3.495951">
        <ele>114.168</ele>
        <time>2022-12-06T04:50:21Z</time>
      </trkpt>
      <trkpt lat="36.760337" lon="-3.495903">
        <ele>114.885</ele>
        <time>2022-12-06T04:50:24Z</time>
      </trkpt>
      <trkpt lat="36.760314" lon="-3.495785">
        <ele>116.046</ele>
        <time>2022-12-06T04:50:29Z</time>
      </trkpt>
      <trkpt lat="36.760315" lon="-3.495763">
        <ele>116.867</ele>
        <time>2022-12-06T04:50:31Z</time>
      </trkpt>
      <trkpt lat="36.760330" lon="-3.495749">
        <ele>117.181</ele>
        <time>2022-12-06T04:50:33Z</time>
      </trkpt>
      <trkpt lat="36.760396" lon="-3.495718">
        <ele>118.419</ele>
        <time>2022-12-06T04:50:38Z</time>
      </trkpt>
      <trkpt lat="36.760409" lon="-3.495711">
        <ele>119.009</ele>
        <time>2022-12-06T04:50:40Z</time>
      </trkpt>
      <trkpt lat="36.760413" lon="-3.495703">
        <ele>119.427</ele>
        <time>2022-12-06T04:50:42Z</time>
      </trkpt>
      <trkpt lat="36.760431" lon="-3.495694">
        <ele>120.528</ele>
        <time>2022-12-06T04:50:46Z</time>
      </trkpt>
      <trkpt lat="36.760477" lon="-3.495697">
        <ele>121.866</ele>
        <time>2022-12-06T04:50:50Z</time>
      </trkpt>
      <trkpt lat="36.760660" lon="-3.495736">
        <ele>122.863</ele>
        <time>2022-12-06T04:51:03Z</time>
      </trkpt>
      <trkpt lat="36.760672" lon="-3.495741">
        <ele>123.051</ele>
        <time>2022-12-06T04:51:04Z</time>
      </trkpt>
      <trkpt lat="36.760849" lon="-3.495816">
        <ele>123.565</ele>
        <time>2022-12-06T04:51:12Z</time>
      </trkpt>
      <trkpt lat="36.760860" lon="-3.495845">
        <ele>123.546</ele>
        <time>2022-12-06T04:51:13Z</time>
      </trkpt>
      <trkpt lat="36.760807" lon="-3.496065">
        <ele>124.033</ele>
        <time>2022-12-06T04:51:21Z</time>
      </trkpt>
      <trkpt lat="36.760672" lon="-3.496222">
        <ele>124.064</ele>
        <time>2022-12-06T04:51:28Z</time>
      </trkpt>
      <trkpt lat="36.760491" lon="-3.496320">
        <ele>124.815</ele>
        <time>2022-12-06T04:51:36Z</time>
      </trkpt>
      <trkpt lat="36.760403" lon="-3.496382">
        <ele>125.165</ele>
        <time>2022-12-06T04:51:40Z</time>
      </trkpt>
      <trkpt lat="36.760353" lon="-3.496589">
        <ele>126.111</ele>
        <time>2022-12-06T04:51:48Z</time>
      </trkpt>
      <trkpt lat="36.760460" lon="-3.496709">
        <ele>126.109</ele>
        <time>2022-12-06T04:51:53Z</time>
      </trkpt>
      <trkpt lat="36.760608" lon="-3.496851">
        <ele>126.542</ele>
        <time>2022-12-06T04:52:00Z</time>
      </trkpt>
      <trkpt lat="36.760706" lon="-3.497071">
        <ele>126.533</ele>
        <time>2022-12-06T04:52:08Z</time>
      </trkpt>
      <trkpt lat="36.760847" lon="-3.497251">
        <ele>126.431</ele>
        <time>2022-12-06T04:52:16Z</time>
      </trkpt>
      <trkpt lat="36.760858" lon="-3.497305">
        <ele>126.428</ele>
        <time>2022-12-06T04:52:18Z</time>
      </trkpt>
      <trkpt lat="36.760714" lon="-3.497439">
        <ele>126.896</ele>
        <time>2022-12-06T04:52:25Z</time>
      </trkpt>
      <trkpt lat="36.760531" lon="-3.497547">
        <ele>126.480</ele>
        <time>2022-12-06T04:52:33Z</time>
      </trkpt>
      <trkpt lat="36.760479" lon="-3.497759">
        <ele>126.071</ele>
        <time>2022-12-06T04:52:40Z</time>
      </trkpt>
      <trkpt lat="36.760471" lon="-3.498012">
        <ele>126.578</ele>
        <time>2022-12-06T04:52:48Z</time>
      </trkpt>
      <trkpt lat="36.760466" lon="-3.498202">
        <ele>127.499</ele>
        <time>2022-12-06T04:52:54Z</time>
      </trkpt>
      <trkpt lat="36.760494" lon="-3.498423">
        <ele>128.053</ele>
        <time>2022-12-06T04:53:01Z</time>
      </trkpt>
      <trkpt lat="36.760584" lon="-3.498540">
        <ele>128.304</ele>
        <time>2022-12-06T04:53:06Z</time>
      </trkpt>
      <trkpt lat="36.760765" lon="-3.498624">
        <ele>128.314</ele>
        <time>2022-12-06T04:53:13Z</time>
      </trkpt>
      <trkpt lat="36.760933" lon="-3.498660">
        <ele>127.109</ele>
        <time>2022-12-06T04:53:19Z</time>
      </trkpt>
      <trkpt lat="36.761061" lon="-3.498719">
        <ele>126.116</ele>
        <time>2022-12-06T04:53:24Z</time>
      </trkpt>
      <trkpt lat="36.761171" lon="-3.498895">
        <ele>125.827</ele>
        <time>2022-12-06T04:53:31Z</time>
      </trkpt>
      <trkpt lat="36.761235" lon="-3.499116">
        <ele>125.535</ele>
        <time>2022-12-06T04:53:38Z</time>
      </trkpt>
      <trkpt lat="36.761353" lon="-3.499288">
        <ele>126.022</ele>
        <time>2022-12-06T04:53:45Z</time>
      </trkpt>
      <trkpt lat="36.761540" lon="-3.499328">
        <ele>126.460</ele>
        <time>2022-12-06T04:53:52Z</time>
      </trkpt>
      <trkpt lat="36.761725" lon="-3.499358">
        <ele>125.824</ele>
        <time>2022-12-06T04:53:59Z</time>
      </trkpt>
      <trkpt lat="36.761857" lon="-3.499507">
        <ele>125.485</ele>
        <time>2022-12-06T04:54:07Z</time>
      </trkpt>
      <trkpt lat="36.761918" lon="-3.499722">
        <ele>125.562</ele>
        <time>2022-12-06T04:54:14Z</time>
      </trkpt>
      <trkpt lat="36.762055" lon="-3.499893">
        <ele>125.423</ele>
        <time>2022-12-06T04:54:21Z</time>
      </trkpt>
      <trkpt lat="36.762121" lon="-3.499938">
        <ele>125.136</ele>
        <time>2022-12-06T04:54:24Z</time>
      </trkpt>
      <trkpt lat="36.762267" lon="-3.500108">
        <ele>125.417</ele>
        <time>2022-12-06T04:54:32Z</time>
      </trkpt>
      <trkpt lat="36.762391" lon="-3.500139">
        <ele>126.118</ele>
        <time>2022-12-06T04:54:38Z</time>
      </trkpt>
      <trkpt lat="36.762586" lon="-3.500120">
        <ele>126.509</ele>
        <time>2022-12-06T04:54:46Z</time>
      </trkpt>
      <trkpt lat="36.762711" lon="-3.500220">
        <ele>125.054</ele>
        <time>2022-12-06T04:54:52Z</time>
      </trkpt>
      <trkpt lat="36.762756" lon="-3.500263">
        <ele>123.535</ele>
        <time>2022-12-06T04:54:54Z</time>
      </trkpt>
      <trkpt lat="36.762820" lon="-3.500333">
        <ele>122.423</ele>
        <time>2022-12-06T04:54:57Z</time>
      </trkpt>
      <trkpt lat="36.762884" lon="-3.500399">
        <ele>121.470</ele>
        <time>2022-12-06T04:55:00Z</time>
      </trkpt>
      <trkpt lat="36.762949" lon="-3.500463">
        <ele>120.148</ele>
        <time>2022-12-06T04:55:03Z</time>
      </trkpt>
      <trkpt lat="36.762968" lon="-3.500489">
        <ele>120.042</ele>
        <time>2022-12-06T04:55:04Z</time>
      </trkpt>
      <trkpt lat="36.763038" lon="-3.500564">
        <ele>119.033</ele>
        <time>2022-12-06T04:55:07Z</time>
      </trkpt>
      <trkpt lat="36.763133" lon="-3.500648">
        <ele>117.860</ele>
        <time>2022-12-06T04:55:11Z</time>
      </trkpt>
      <trkpt lat="36.763291" lon="-3.500746">
        <ele>116.551</ele>
        <time>2022-12-06T04:55:17Z</time>
      </trkpt>
      <trkpt lat="36.763415" lon="-3.500792">
        <ele>115.569</ele>
        <time>2022-12-06T04:55:22Z</time>
      </trkpt>
      <trkpt lat="36.763553" lon="-3.500848">
        <ele>114.404</ele>
        <time>2022-12-06T04:55:27Z</time>
      </trkpt>
      <trkpt lat="36.763650" lon="-3.500903">
        <ele>113.124</ele>
        <time>2022-12-06T04:55:31Z</time>
      </trkpt>
      <trkpt lat="36.763808" lon="-3.501050">
        <ele>112.109</ele>
        <time>2022-12-06T04:55:38Z</time>
      </trkpt>
      <trkpt lat="36.763975" lon="-3.500977">
        <ele>111.557</ele>
        <time>2022-12-06T04:55:45Z</time>
      </trkpt>
      <trkpt lat="36.764025" lon="-3.500889">
        <ele>111.078</ele>
        <time>2022-12-06T04:55:48Z</time>
      </trkpt>
      <trkpt lat="36.764144" lon="-3.500721">
        <ele>110.066</ele>
        <time>2022-12-06T04:55:54Z</time>
      </trkpt>
      <trkpt lat="36.764292" lon="-3.500673">
        <ele>109.463</ele>
        <time>2022-12-06T04:56:01Z</time>
      </trkpt>
      <trkpt lat="36.764278" lon="-3.500910">
        <ele>109.141</ele>
        <time>2022-12-06T04:56:09Z</time>
      </trkpt>
      <trkpt lat="36.764246" lon="-3.501142">
        <ele>110.135</ele>
        <time>2022-12-06T04:56:17Z</time>
      </trkpt>
      <trkpt lat="36.764260" lon="-3.501230">
        <ele>111.036</ele>
        <time>2022-12-06T04:56:20Z</time>
      </trkpt>
      <trkpt lat="36.764305" lon="-3.501393">
        <ele>112.163</ele>
        <time>2022-12-06T04:56:25Z</time>
      </trkpt>
      <trkpt lat="36.764389" lon="-3.501566">
        <ele>113.414</ele>
        <time>2022-12-06T04:56:31Z</time>
      </trkpt>
      <trkpt lat="36.764518" lon="-3.501695">
        <ele>114.532</ele>
        <time>2022-12-06T04:56:38Z</time>
      </trkpt>
      <trkpt lat="36.764606" lon="-3.501633">
        <ele>115.592</ele>
        <time>2022-12-06T04:56:44Z</time>
      </trkpt>
      <trkpt lat="36.764624" lon="-3.501512">
        <ele>116.811</ele>
        <time>2022-12-06T04:56:50Z</time>
      </trkpt>
      <trkpt lat="36.764610" lon="-3.501412">
        <ele>118.009</ele>
        <time>2022-12-06T04:56:55Z</time>
      </trkpt>
      <trkpt lat="36.764605" lon="-3.501228">
        <ele>119.034</ele>
        <time>2022-12-06T04:57:04Z</time>
      </trkpt>
      <trkpt lat="36.764620" lon="-3.500995">
        <ele>119.515</ele>
        <time>2022-12-06T04:57:16Z</time>
      </trkpt>
      <trkpt lat="36.764647" lon="-3.500911">
        <ele>120.083</ele>
        <time>2022-12-06T04:57:21Z</time>
      </trkpt>
      <trkpt lat="36.764735" lon="-3.500797">
        <ele>121.180</ele>
        <time>2022-12-06T04:57:30Z</time>
      </trkpt>
      <trkpt lat="36.764859" lon="-3.500734">
        <ele>122.148</ele>
        <time>2022-12-06T04:57:39Z</time>
      </trkpt>
      <trkpt lat="36.764961" lon="-3.500695">
        <ele>123.422</ele>
        <time>2022-12-06T04:57:45Z</time>
      </trkpt>
      <trkpt lat="36.765087" lon="-3.500677">
        <ele>124.423</ele>
        <time>2022-12-06T04:57:54Z</time>
      </trkpt>
      <trkpt lat="36.765230" lon="-3.500668">
        <ele>125.470</ele>
        <time>2022-12-06T04:58:04Z</time>
      </trkpt>
      <trkpt lat="36.765274" lon="-3.500670">
        <ele>126.571</ele>
        <time>2022-12-06T04:58:07Z</time>
      </trkpt>
      <trkpt lat="36.765426" lon="-3.500671">
        <ele>127.528</ele>
        <time>2022-12-06T04:58:18Z</time>
      </trkpt>
      <trkpt lat="36.765515" lon="-3.500684">
        <ele>129.089</ele>
        <time>2022-12-06T04:58:24Z</time>
      </trkpt>
      <trkpt lat="36.765571" lon="-3.500703">
        <ele>130.017</ele>
        <time>2022-12-06T04:58:28Z</time>
      </trkpt>
      <trkpt lat="36.765748" lon="-3.500680">
        <ele>130.809</ele>
        <time>2022-12-06T04:58:41Z</time>
      </trkpt>
      <trkpt lat="36.765779" lon="-3.500650">
        <ele>131.013</ele>
        <time>2022-12-06T04:58:43Z</time>
      </trkpt>
      <trkpt lat="36.765837" lon="-3.500548">
        <ele>132.174</ele>
        <time>2022-12-06T04:58:49Z</time>
      </trkpt>
      <trkpt lat="36.765854" lon="-3.500454">
        <ele>133.112</ele>
        <time>2022-12-06T04:58:53Z</time>
      </trkpt>
      <trkpt lat="36.765927" lon="-3.500240">
        <ele>134.399</ele>
        <time>2022-12-06T04:59:05Z</time>
      </trkpt>
      <trkpt lat="36.766070" lon="-3.500153">
        <ele>135.347</ele>
        <time>2022-12-06T04:59:14Z</time>
      </trkpt>
      <trkpt lat="36.766190" lon="-3.500039">
        <ele>136.341</ele>
        <time>2022-12-06T04:59:23Z</time>
      </trkpt>
      <trkpt lat="36.766190" lon="-3.499962">
        <ele>137.622</ele>
        <time>2022-12-06T04:59:27Z</time>
      </trkpt>
      <trkpt lat="36.766195" lon="-3.499810">
        <ele>138.819</ele>
        <time>2022-12-06T04:59:35Z</time>
      </trkpt>
      <trkpt lat="36.766197" lon="-3.499758">
        <ele>139.890</ele>
        <time>2022-12-06T04:59:39Z</time>
      </trkpt>
      <trkpt lat="36.766213" lon="-3.499746">
        <ele>140.345</ele>
        <time>2022-12-06T04:59:41Z</time>
      </trkpt>
      <trkpt lat="36.766248" lon="-3.499766">
        <ele>140.847</ele>
        <time>2022-12-06T04:59:44Z</time>
      </trkpt>
      <trkpt lat="36.766255" lon="-3.499775">
        <ele>140.811</ele>
        <time>2022-12-06T04:59:45Z</time>
      </trkpt>
      <trkpt lat="36.766264" lon="-3.500026">
        <ele>141.809</ele>
        <time>2022-12-06T04:59:54Z</time>
      </trkpt>
      <trkpt lat="36.766183" lon="-3.500234">
        <ele>142.355</ele>
        <time>2022-12-06T05:00:01Z</time>
      </trkpt>
      <trkpt lat="36.766098" lon="-3.500340">
        <ele>143.066</ele>
        <time>2022-12-06T05:00:06Z</time>
      </trkpt>
      <trkpt lat="36.766056" lon="-3.500569">
        <ele>143.394</ele>
        <time>2022-12-06T05:00:14Z</time>
      </trkpt>
      <trkpt lat="36.766093" lon="-3.500664">
        <ele>144.091</ele>
        <time>2022-12-06T05:00:17Z</time>
      </trkpt>
      <trkpt lat="36.766269" lon="-3.500709">
        <ele>144.129</ele>
        <time>2022-12-06T05:00:24Z</time>
      </trkpt>
      <trkpt lat="36.766436" lon="-3.500594">
        <ele>144.013</ele>
        <time>2022-12-06T05:00:31Z</time>
      </trkpt>
      <trkpt lat="36.766610" lon="-3.500511">
        <ele>143.674</ele>
        <time>2022-12-06T05:00:38Z</time>
      </trkpt>
      <trkpt lat="36.766801" lon="-3.500477">
        <ele>144.381</ele>
        <time>2022-12-06T05:00:46Z</time>
      </trkpt>
      <trkpt lat="36.766996" lon="-3.500460">
        <ele>144.862</ele>
        <time>2022-12-06T05:00:54Z</time>
      </trkpt>
      <trkpt lat="36.767068" lon="-3.500464">
        <ele>145.048</ele>
        <time>2022-12-06T05:00:57Z</time>
      </trkpt>
      <trkpt lat="36.767231" lon="-3.500493">
        <ele>146.161</ele>
        <time>2022-12-06T05:01:04Z</time>
      </trkpt>
      <trkpt lat="36.767429" lon="-3.500468">
        <ele>146.817</ele>
        <time>2022-12-06T05:01:12Z</time>
      </trkpt>
      <trkpt lat="36.767502" lon="-3.500459">
        <ele>147.109</ele>
        <time>2022-12-06T05:01:15Z</time>
      </trkpt>
      <trkpt lat="36.767636" lon="-3.500411">
        <ele>148.375</ele>
        <time>2022-12-06T05:01:21Z</time>
      </trkpt>
      <trkpt lat="36.767690" lon="-3.500432">
        <ele>149.026</ele>
        <time>2022-12-06T05:01:24Z</time>
      </trkpt>
      <trkpt lat="36.767690" lon="-3.500519">
        <ele>149.384</ele>
        <time>2022-12-06T05:01:28Z</time>
      </trkpt>
      <trkpt lat="36.767607" lon="-3.500619">
        <ele>150.651</ele>
        <time>2022-12-06T05:01:33Z</time>
      </trkpt>
      <trkpt lat="36.767513" lon="-3.500778">
        <ele>151.889</ele>
        <time>2022-12-06T05:01:40Z</time>
      </trkpt>
      <trkpt lat="36.767601" lon="-3.500978">
        <ele>152.853</ele>
        <time>2022-12-06T05:01:47Z</time>
      </trkpt>
      <trkpt lat="36.767623" lon="-3.500998">
        <ele>153.054</ele>
        <time>2022-12-06T05:01:48Z</time>
      </trkpt>
      <trkpt lat="36.767665" lon="-3.501130">
        <ele>152.831</ele>
        <time>2022-12-06T05:01:53Z</time>
      </trkpt>
      <trkpt lat="36.767521" lon="-3.501277">
        <ele>153.892</ele>
        <time>2022-12-06T05:02:01Z</time>
      </trkpt>
      <trkpt lat="36.767490" lon="-3.501320">
        <ele>154.398</ele>
        <time>2022-12-06T05:02:03Z</time>
      </trkpt>
      <trkpt lat="36.767432" lon="-3.501520">
        <ele>155.315</ele>
        <time>2022-12-06T05:02:10Z</time>
      </trkpt>
      <trkpt lat="36.767481" lon="-3.501744">
        <ele>156.326</ele>
        <time>2022-12-06T05:02:17Z</time>
      </trkpt>
      <trkpt lat="36.767498" lon="-3.501799">
        <ele>156.309</ele>
        <time>2022-12-06T05:02:19Z</time>
      </trkpt>
      <trkpt lat="36.767494" lon="-3.501882">
        <ele>156.640</ele>
        <time>2022-12-06T05:02:22Z</time>
      </trkpt>
      <trkpt lat="36.767454" lon="-3.501902">
        <ele>157.031</ele>
        <time>2022-12-06T05:02:24Z</time>
      </trkpt>
      <trkpt lat="36.767364" lon="-3.501934">
        <ele>157.869</ele>
        <time>2022-12-06T05:02:28Z</time>
      </trkpt>
      <trkpt lat="36.767243" lon="-3.502014">
        <ele>158.826</ele>
        <time>2022-12-06T05:02:34Z</time>
      </trkpt>
      <trkpt lat="36.767201" lon="-3.502251">
        <ele>159.314</ele>
        <time>2022-12-06T05:02:42Z</time>
      </trkpt>
      <trkpt lat="36.767082" lon="-3.502417">
        <ele>159.868</ele>
        <time>2022-12-06T05:02:50Z</time>
      </trkpt>
      <trkpt lat="36.767067" lon="-3.502438">
        <ele>160.059</ele>
        <time>2022-12-06T05:02:51Z</time>
      </trkpt>
      <trkpt lat="36.766976" lon="-3.502597">
        <ele>161.146</ele>
        <time>2022-12-06T05:02:58Z</time>
      </trkpt>
      <trkpt lat="36.766934" lon="-3.502771">
        <ele>162.127</ele>
        <time>2022-12-06T05:03:06Z</time>
      </trkpt>
      <trkpt lat="36.766888" lon="-3.502892">
        <ele>163.311</ele>
        <time>2022-12-06T05:03:13Z</time>
      </trkpt>
      <trkpt lat="36.766789" lon="-3.502941">
        <ele>164.321</ele>
        <time>2022-12-06T05:03:21Z</time>
      </trkpt>
      <trkpt lat="36.766679" lon="-3.502988">
        <ele>165.603</ele>
        <time>2022-12-06T05:03:29Z</time>
      </trkpt>
      <trkpt lat="36.766568" lon="-3.503042">
        <ele>166.609</ele>
        <time>2022-12-06T05:03:38Z</time>
      </trkpt>
      <trkpt lat="36.766455" lon="-3.503052">
        <ele>167.882</ele>
        <time>2022-12-06T05:03:46Z</time>
      </trkpt>
      <trkpt lat="36.766364" lon="-3.503061">
        <ele>168.873</ele>
        <time>2022-12-06T05:03:52Z</time>
      </trkpt>
      <trkpt lat="36.766254" lon="-3.503233">
        <ele>169.891</ele>
        <time>2022-12-06T05:04:04Z</time>
      </trkpt>
      <trkpt lat="36.766251" lon="-3.503253">
        <ele>169.868</ele>
        <time>2022-12-06T05:04:05Z</time>
      </trkpt>
      <trkpt lat="36.766260" lon="-3.503336">
        <ele>171.066</ele>
        <time>2022-12-06T05:04:10Z</time>
      </trkpt>
      <trkpt lat="36.766324" lon="-3.503465">
        <ele>172.180</ele>
        <time>2022-12-06T05:04:19Z</time>
      </trkpt>
      <trkpt lat="36.766357" lon="-3.503529">
        <ele>173.191</ele>
        <time>2022-12-06T05:04:24Z</time>
      </trkpt>
      <trkpt lat="36.766368" lon="-3.503539">
        <ele>173.388</ele>
        <time>2022-12-06T05:04:25Z</time>
      </trkpt>
      <trkpt lat="36.766442" lon="-3.503591">
        <ele>174.689</ele>
        <time>2022-12-06T05:04:32Z</time>
      </trkpt>
      <trkpt lat="36.766478" lon="-3.503623">
        <ele>175.341</ele>
        <time>2022-12-06T05:04:36Z</time>
      </trkpt>
      <trkpt lat="36.766521" lon="-3.503637">
        <ele>175.681</ele>
        <time>2022-12-06T05:04:39Z</time>
      </trkpt>
      <trkpt lat="36.766573" lon="-3.503640">
        <ele>176.309</ele>
        <time>2022-12-06T05:04:42Z</time>
      </trkpt>
      <trkpt lat="36.766595" lon="-3.503641">
        <ele>177.009</ele>
        <time>2022-12-06T05:04:44Z</time>
      </trkpt>
      <trkpt lat="36.766625" lon="-3.503655">
        <ele>177.675</ele>
        <time>2022-12-06T05:04:47Z</time>
      </trkpt>
      <trkpt lat="36.766675" lon="-3.503687">
        <ele>178.076</ele>
        <time>2022-12-06T05:04:51Z</time>
      </trkpt>
      <trkpt lat="36.766685" lon="-3.503688">
        <ele>178.194</ele>
        <time>2022-12-06T05:04:52Z</time>
      </trkpt>
      <trkpt lat="36.766748" lon="-3.503725">
        <ele>179.081</ele>
        <time>2022-12-06T05:04:57Z</time>
      </trkpt>
      <trkpt lat="36.766904" lon="-3.503867">
        <ele>179.679</ele>
        <time>2022-12-06T05:05:07Z</time>
      </trkpt>
      <trkpt lat="36.766952" lon="-3.503920">
        <ele>179.133</ele>
        <time>2022-12-06T05:05:10Z</time>
      </trkpt>
      <trkpt lat="36.767031" lon="-3.503969">
        <ele>178.024</ele>
        <time>2022-12-06T05:05:13Z</time>
      </trkpt>
      <trkpt lat="36.767108" lon="-3.504029">
        <ele>176.821</ele>
        <time>2022-12-06T05:05:16Z</time>
      </trkpt>
      <trkpt lat="36.767306" lon="-3.504052">
        <ele>176.072</ele>
        <time>2022-12-06T05:05:23Z</time>
      </trkpt>
      <trkpt lat="36.767358" lon="-3.504012">
        <ele>175.633</ele>
        <time>2022-12-06T05:05:25Z</time>
      </trkpt>
      <trkpt lat="36.767545" lon="-3.503944">
        <ele>174.323</ele>
        <time>2022-12-06T05:05:32Z</time>
      </trkpt>
      <trkpt lat="36.767714" lon="-3.503888">
        <ele>173.015</ele>
        <time>2022-12-06T05:05:38Z</time>
      </trkpt>
      <trkpt lat="36.767786" lon="-3.503854">
        <ele>171.609</ele>
        <time>2022-12-06T05:05:41Z</time>
      </trkpt>
      <trkpt lat="36.767878" lon="-3.503786">
        <ele>170.334</ele>
        <time>2022-12-06T05:05:45Z</time>
      </trkpt>
      <trkpt lat="36.767951" lon="-3.503680">
        <ele>169.165</ele>
        <time>2022-12-06T05:05:49Z</time>
      </trkpt>
      <trkpt lat="36.768059" lon="-3.503620">
        <ele>168.073</ele>
        <time>2022-12-06T05:05:54Z</time>
      </trkpt>
      <trkpt lat="36.768155" lon="-3.503619">
        <ele>166.870</ele>
        <time>2022-12-06T05:05:58Z</time>
      </trkpt>
      <trkpt lat="36.768338" lon="-3.503604">
        <ele>166.178</ele>
        <time>2022-12-06T05:06:05Z</time>
      </trkpt>
      <trkpt lat="36.768498" lon="-3.503515">
        <ele>165.852</ele>
        <time>2022-12-06T05:06:12Z</time>
      </trkpt>
      <trkpt lat="36.768587" lon="-3.503390">
        <ele>165.893</ele>
        <time>2022-12-06T05:06:17Z</time>
      </trkpt>
      <trkpt lat="36.768686" lon="-3.503182">
        <ele>166.080</ele>
        <time>2022-12-06T05:06:26Z</time>
      </trkpt>
      <trkpt lat="36.768837" lon="-3.503047">
        <ele>165.821</ele>
        <time>2022-12-06T05:06:36Z</time>
      </trkpt>
      <trkpt lat="36.768865" lon="-3.503029">
        <ele>165.631</ele>
        <time>2022-12-06T05:07:07Z</time>
      </trkpt>
      <trkpt lat="36.769042" lon="-3.502975">
        <ele>165.361</ele>
        <time>2022-12-06T05:07:20Z</time>
      </trkpt>
      <trkpt lat="36.769228" lon="-3.502905">
        <ele>165.807</ele>
        <time>2022-12-06T05:07:32Z</time>
      </trkpt>
      <trkpt lat="36.769345" lon="-3.502884">
        <ele>166.809</ele>
        <time>2022-12-06T05:07:40Z</time>
      </trkpt>
      <trkpt lat="36.769414" lon="-3.502897">
        <ele>167.034</ele>
        <time>2022-12-06T05:07:45Z</time>
      </trkpt>
      <trkpt lat="36.769572" lon="-3.503007">
        <ele>166.825</ele>
        <time>2022-12-06T05:07:56Z</time>
      </trkpt>
      <trkpt lat="36.769680" lon="-3.503072">
        <ele>166.153</ele>
        <time>2022-12-06T05:08:04Z</time>
      </trkpt>
      <trkpt lat="36.769860" lon="-3.503087">
        <ele>166.610</ele>
        <time>2022-12-06T05:08:16Z</time>
      </trkpt>
      <trkpt lat="36.770050" lon="-3.503095">
        <ele>167.338</ele>
        <time>2022-12-06T05:08:28Z</time>
      </trkpt>
      <trkpt lat="36.770160" lon="-3.503098">
        <ele>167.872</ele>
        <time>2022-12-06T05:08:36Z</time>
      </trkpt>
      <trkpt lat="36.770345" lon="-3.503124">
        <ele>168.353</ele>
        <time>2022-12-06T05:08:49Z</time>
      </trkpt>
      <trkpt lat="36.770523" lon="-3.503161">
        <ele>168.810</ele>
        <time>2022-12-06T05:09:02Z</time>
      </trkpt>
      <trkpt lat="36.770586" lon="-3.503180">
        <ele>169.021</ele>
        <time>2022-12-06T05:09:06Z</time>
      </trkpt>
      <trkpt lat="36.770713" lon="-3.503086">
        <ele>168.695</ele>
        <time>2022-12-06T05:09:15Z</time>
      </trkpt>
      <trkpt lat="36.770705" lon="-3.502836">
        <ele>168.649</ele>
        <time>2022-12-06T05:09:25Z</time>
      </trkpt>
      <trkpt lat="36.770701" lon="-3.502612">
        <ele>168.823</ele>
        <time>2022-12-06T05:09:34Z</time>
      </trkpt>
      <trkpt lat="36.770707" lon="-3.502598">
        <ele>169.009</ele>
        <time>2022-12-06T05:09:35Z</time>
      </trkpt>
      <trkpt lat="36.770741" lon="-3.502584">
        <ele>169.050</ele>
        <time>2022-12-06T05:09:37Z</time>
      </trkpt>
      <trkpt lat="36.770936" lon="-3.502611">
        <ele>169.691</ele>
        <time>2022-12-06T05:09:46Z</time>
      </trkpt>
      <trkpt lat="36.771061" lon="-3.502667">
        <ele>170.079</ele>
        <time>2022-12-06T05:09:53Z</time>
      </trkpt>
      <trkpt lat="36.771088" lon="-3.502646">
        <ele>170.036</ele>
        <time>2022-12-06T05:09:55Z</time>
      </trkpt>
      <trkpt lat="36.771086" lon="-3.502411">
        <ele>170.374</ele>
        <time>2022-12-06T05:10:04Z</time>
      </trkpt>
      <trkpt lat="36.771117" lon="-3.502170">
        <ele>171.028</ele>
        <time>2022-12-06T05:10:14Z</time>
      </trkpt>
      <trkpt lat="36.771253" lon="-3.502024">
        <ele>171.129</ele>
        <time>2022-12-06T05:10:22Z</time>
      </trkpt>
      <trkpt lat="36.771364" lon="-3.501996">
        <ele>171.366</ele>
        <time>2022-12-06T05:10:28Z</time>
      </trkpt>
      <trkpt lat="36.771373" lon="-3.501987">
        <ele>171.657</ele>
        <time>2022-12-06T05:10:30Z</time>
      </trkpt>
      <trkpt lat="36.771380" lon="-3.501952">
        <ele>172.064</ele>
        <time>2022-12-06T05:10:33Z</time>
      </trkpt>
      <trkpt lat="36.771380" lon="-3.501943">
        <ele>172.106</ele>
        <time>2022-12-06T05:10:34Z</time>
      </trkpt>
      <trkpt lat="36.771385" lon="-3.501903">
        <ele>172.816</ele>
        <time>2022-12-06T05:10:37Z</time>
      </trkpt>
      <trkpt lat="36.771394" lon="-3.501881">
        <ele>173.109</ele>
        <time>2022-12-06T05:10:39Z</time>
      </trkpt>
      <trkpt lat="36.771414" lon="-3.501848">
        <ele>174.327</ele>
        <time>2022-12-06T05:10:42Z</time>
      </trkpt>
      <trkpt lat="36.771425" lon="-3.501811">
        <ele>174.858</ele>
        <time>2022-12-06T05:10:44Z</time>
      </trkpt>
      <trkpt lat="36.771444" lon="-3.501759">
        <ele>175.376</ele>
        <time>2022-12-06T05:10:48Z</time>
      </trkpt>
      <trkpt lat="36.771452" lon="-3.501746">
        <ele>175.393</ele>
        <time>2022-12-06T05:10:49Z</time>
      </trkpt>
      <trkpt lat="36.771473" lon="-3.501697">
        <ele>176.031</ele>
        <time>2022-12-06T05:10:52Z</time>
      </trkpt>
      <trkpt lat="36.771477" lon="-3.501655">
        <ele>176.695</ele>
        <time>2022-12-06T05:10:55Z</time>
      </trkpt>
      <trkpt lat="36.771479" lon="-3.501633">
        <ele>177.026</ele>
        <time>2022-12-06T05:10:57Z</time>
      </trkpt>
      <trkpt lat="36.771458" lon="-3.501600">
        <ele>177.813</ele>
        <time>2022-12-06T05:11:00Z</time>
      </trkpt>
      <trkpt lat="36.771413" lon="-3.501588">
        <ele>178.864</ele>
        <time>2022-12-06T05:11:04Z</time>
      </trkpt>
      <trkpt lat="36.771397" lon="-3.501589">
        <ele>179.011</ele>
        <time>2022-12-06T05:11:05Z</time>
      </trkpt>
      <trkpt lat="36.771352" lon="-3.501586">
        <ele>179.321</ele>
        <time>2022-12-06T05:11:09Z</time>
      </trkpt>
      <trkpt lat="36.771314" lon="-3.501561">
        <ele>180.003</ele>
        <time>2022-12-06T05:11:12Z</time>
      </trkpt>
      <trkpt lat="36.771305" lon="-3.501552">
        <ele>180.109</ele>
        <time>2022-12-06T05:11:13Z</time>
      </trkpt>
      <trkpt lat="36.771280" lon="-3.501524">
        <ele>180.662</ele>
        <time>2022-12-06T05:11:16Z</time>
      </trkpt>
      <trkpt lat="36.771282" lon="-3.501501">
        <ele>181.173</ele>
        <time>2022-12-06T05:11:18Z</time>
      </trkpt>
      <trkpt lat="36.771290" lon="-3.501450">
        <ele>181.851</ele>
        <time>2022-12-06T05:11:21Z</time>
      </trkpt>
      <trkpt lat="36.771278" lon="-3.501407">
        <ele>182.028</ele>
        <time>2022-12-06T05:11:24Z</time>
      </trkpt>
      <trkpt lat="36.771269" lon="-3.501382">
        <ele>182.196</ele>
        <time>2022-12-06T05:11:26Z</time>
      </trkpt>
      <trkpt lat="36.771239" lon="-3.501324">
        <ele>182.320</ele>
        <time>2022-12-06T05:11:31Z</time>
      </trkpt>
      <trkpt lat="36.771222" lon="-3.501285">
        <ele>182.611</ele>
        <time>2022-12-06T05:11:35Z</time>
      </trkpt>
      <trkpt lat="36.771186" lon="-3.501222">
        <ele>182.838</ele>
        <time>2022-12-06T05:11:39Z</time>
      </trkpt>
      <trkpt lat="36.771176" lon="-3.501177">
        <ele>182.889</ele>
        <time>2022-12-06T05:11:41Z</time>
      </trkpt>
      <trkpt lat="36.771177" lon="-3.501151">
        <ele>183.085</ele>
        <time>2022-12-06T05:11:43Z</time>
      </trkpt>
      <trkpt lat="36.771194" lon="-3.501125">
        <ele>183.389</ele>
        <time>2022-12-06T05:11:45Z</time>
      </trkpt>
      <trkpt lat="36.771196" lon="-3.501111">
        <ele>183.617</ele>
        <time>2022-12-06T05:11:46Z</time>
      </trkpt>
      <trkpt lat="36.771213" lon="-3.501093">
        <ele>184.109</ele>
        <time>2022-12-06T05:11:49Z</time>
      </trkpt>
      <trkpt lat="36.771223" lon="-3.501094">
        <ele>184.379</ele>
        <time>2022-12-06T05:11:50Z</time>
      </trkpt>
      <trkpt lat="36.771321" lon="-3.501098">
        <ele>185.370</ele>
        <time>2022-12-06T05:11:58Z</time>
      </trkpt>
      <trkpt lat="36.771462" lon="-3.500958">
        <ele>186.038</ele>
        <time>2022-12-06T05:12:11Z</time>
      </trkpt>
      <trkpt lat="36.771504" lon="-3.500889">
        <ele>186.325</ele>
        <time>2022-12-06T05:12:14Z</time>
      </trkpt>
      <trkpt lat="36.771513" lon="-3.500869">
        <ele>186.393</ele>
        <time>2022-12-06T05:12:15Z</time>
      </trkpt>
      <trkpt lat="36.771542" lon="-3.500769">
        <ele>186.867</ele>
        <time>2022-12-06T05:12:19Z</time>
      </trkpt>
      <trkpt lat="36.771630" lon="-3.500644">
        <ele>187.618</ele>
        <time>2022-12-06T05:12:25Z</time>
      </trkpt>
      <trkpt lat="36.771644" lon="-3.500628">
        <ele>187.815</ele>
        <time>2022-12-06T05:12:26Z</time>
      </trkpt>
      <trkpt lat="36.771777" lon="-3.500536">
        <ele>188.656</ele>
        <time>2022-12-06T05:12:35Z</time>
      </trkpt>
      <trkpt lat="36.771947" lon="-3.500434">
        <ele>189.351</ele>
        <time>2022-12-06T05:12:44Z</time>
      </trkpt>
      <trkpt lat="36.772026" lon="-3.500352">
        <ele>189.801</ele>
        <time>2022-12-06T05:12:48Z</time>
      </trkpt>
      <trkpt lat="36.772073" lon="-3.500135">
        <ele>190.011</ele>
        <time>2022-12-06T05:12:57Z</time>
      </trkpt>
      <trkpt lat="36.772141" lon="-3.499932">
        <ele>189.109</ele>
        <time>2022-12-06T05:13:05Z</time>
      </trkpt>
      <trkpt lat="36.772162" lon="-3.499882">
        <ele>189.176</ele>
        <time>2022-12-06T05:13:08Z</time>
      </trkpt>
      <trkpt lat="36.772190" lon="-3.499806">
        <ele>189.367</ele>
        <time>2022-12-06T05:13:11Z</time>
      </trkpt>
      <trkpt lat="36.772265" lon="-3.499730">
        <ele>188.645</ele>
        <time>2022-12-06T05:13:17Z</time>
      </trkpt>
      <trkpt lat="36.772350" lon="-3.499627">
        <ele>189.332</ele>
        <time>2022-12-06T05:13:24Z</time>
      </trkpt>
      <trkpt lat="36.772370" lon="-3.499610">
        <ele>189.810</ele>
        <time>2022-12-06T05:13:25Z</time>
      </trkpt>
      <trkpt lat="36.772462" lon="-3.499579">
        <ele>190.884</ele>
        <time>2022-12-06T05:13:31Z</time>
      </trkpt>
      <trkpt lat="36.772472" lon="-3.499564">
        <ele>190.815</ele>
        <time>2022-12-06T05:13:32Z</time>
      </trkpt>
      <trkpt lat="36.772500" lon="-3.499535">
        <ele>191.632</ele>
        <time>2022-12-06T05:13:35Z</time>
      </trkpt>
      <trkpt lat="36.772510" lon="-3.499532">
        <ele>191.873</ele>
        <time>2022-12-06T05:13:36Z</time>
      </trkpt>
      <trkpt lat="36.772524" lon="-3.499526">
        <ele>192.038</ele>
        <time>2022-12-06T05:13:37Z</time>
      </trkpt>
      <trkpt lat="36.772597" lon="-3.499487">
        <ele>192.670</ele>
        <time>2022-12-06T05:13:40Z</time>
      </trkpt>
      <trkpt lat="36.772620" lon="-3.499465">
        <ele>192.817</ele>
        <time>2022-12-06T05:13:41Z</time>
      </trkpt>
      <trkpt lat="36.772683" lon="-3.499358">
        <ele>194.109</ele>
        <time>2022-12-06T05:13:46Z</time>
      </trkpt>
      <trkpt lat="36.772718" lon="-3.499263">
        <ele>195.154</ele>
        <time>2022-12-06T05:13:52Z</time>
      </trkpt>
      <trkpt lat="36.772740" lon="-3.499138">
        <ele>196.145</ele>
        <time>2022-12-06T05:13:58Z</time>
      </trkpt>
      <trkpt lat="36.772754" lon="-3.498941">
        <ele>197.343</ele>
        <time>2022-12-06T05:14:05Z</time>
      </trkpt>
      <trkpt lat="36.772779" lon="-3.498708">
        <ele>198.040</ele>
        <time>2022-12-06T05:14:15Z</time>
      </trkpt>
      <trkpt lat="36.772796" lon="-3.498647">
        <ele>198.368</ele>
        <time>2022-12-06T05:14:18Z</time>
      </trkpt>
      <trkpt lat="36.772866" lon="-3.498435">
        <ele>199.072</ele>
        <time>2022-12-06T05:14:26Z</time>
      </trkpt>
      <trkpt lat="36.772866" lon="-3.498402">
        <ele>199.623</ele>
        <time>2022-12-06T05:14:28Z</time>
      </trkpt>
      <trkpt lat="36.772899" lon="-3.498245">
        <ele>200.140</ele>
        <time>2022-12-06T05:14:34Z</time>
      </trkpt>
      <trkpt lat="36.772838" lon="-3.498003">
        <ele>199.611</ele>
        <time>2022-12-06T05:14:42Z</time>
      </trkpt>
      <trkpt lat="36.772706" lon="-3.497810">
        <ele>198.347</ele>
        <time>2022-12-06T05:14:50Z</time>
      </trkpt>
      <trkpt lat="36.772625" lon="-3.497702">
        <ele>197.329</ele>
        <time>2022-12-06T05:14:55Z</time>
      </trkpt>
      <trkpt lat="36.772622" lon="-3.497663">
        <ele>197.121</ele>
        <time>2022-12-06T05:14:57Z</time>
      </trkpt>
      <trkpt lat="36.772741" lon="-3.497706">
        <ele>198.309</ele>
        <time>2022-12-06T05:15:04Z</time>
      </trkpt>
      <trkpt lat="36.772809" lon="-3.497780">
        <ele>199.355</ele>
        <time>2022-12-06T05:15:11Z</time>
      </trkpt>
      <trkpt lat="36.772822" lon="-3.497802">
        <ele>200.336</ele>
        <time>2022-12-06T05:15:14Z</time>
      </trkpt>
      <trkpt lat="36.772827" lon="-3.497807">
        <ele>200.684</ele>
        <time>2022-12-06T05:15:15Z</time>
      </trkpt>
      <trkpt lat="36.772855" lon="-3.497842">
        <ele>201.641</ele>
        <time>2022-12-06T05:15:19Z</time>
      </trkpt>
      <trkpt lat="36.772878" lon="-3.497872">
        <ele>202.139</ele>
        <time>2022-12-06T05:15:22Z</time>
      </trkpt>
      <trkpt lat="36.772926" lon="-3.497866">
        <ele>202.693</ele>
        <time>2022-12-06T05:15:27Z</time>
      </trkpt>
      <trkpt lat="36.772952" lon="-3.497847">
        <ele>203.364</ele>
        <time>2022-12-06T05:15:31Z</time>
      </trkpt>
      <trkpt lat="36.772958" lon="-3.497850">
        <ele>203.881</ele>
        <time>2022-12-06T05:15:32Z</time>
      </trkpt>
      <trkpt lat="36.772963" lon="-3.497840">
        <ele>204.052</ele>
        <time>2022-12-06T05:15:33Z</time>
      </trkpt>
      <trkpt lat="36.772977" lon="-3.497773">
        <ele>204.849</ele>
        <time>2022-12-06T05:15:39Z</time>
      </trkpt>
      <trkpt lat="36.772973" lon="-3.497680">
        <ele>205.302</ele>
        <time>2022-12-06T05:15:44Z</time>
      </trkpt>
      <trkpt lat="36.772964" lon="-3.497639">
        <ele>205.822</ele>
        <time>2022-12-06T05:15:46Z</time>
      </trkpt>
      <trkpt lat="36.772960" lon="-3.497618">
        <ele>205.809</ele>
        <time>2022-12-06T05:15:47Z</time>
      </trkpt>
      <trkpt lat="36.772959" lon="-3.497547">
        <ele>206.115</ele>
        <time>2022-12-06T05:15:50Z</time>
      </trkpt>
      <trkpt lat="36.772966" lon="-3.497504">
        <ele>206.376</ele>
        <time>2022-12-06T05:15:52Z</time>
      </trkpt>
      <trkpt lat="36.772951" lon="-3.497460">
        <ele>207.074</ele>
        <time>2022-12-06T05:15:55Z</time>
      </trkpt>
      <trkpt lat="36.772926" lon="-3.497345">
        <ele>208.061</ele>
        <time>2022-12-06T05:16:01Z</time>
      </trkpt>
      <trkpt lat="36.772930" lon="-3.497306">
        <ele>208.129</ele>
        <time>2022-12-06T05:16:03Z</time>
      </trkpt>
      <trkpt lat="36.773010" lon="-3.497101">
        <ele>208.113</ele>
        <time>2022-12-06T05:16:15Z</time>
      </trkpt>
      <trkpt lat="36.773046" lon="-3.497054">
        <ele>208.054</ele>
        <time>2022-12-06T05:16:18Z</time>
      </trkpt>
      <trkpt lat="36.773070" lon="-3.497016">
        <ele>207.891</ele>
        <time>2022-12-06T05:16:20Z</time>
      </trkpt>
      <trkpt lat="36.773137" lon="-3.496935">
        <ele>206.892</ele>
        <time>2022-12-06T05:16:25Z</time>
      </trkpt>
      <trkpt lat="36.773212" lon="-3.496863">
        <ele>205.892</ele>
        <time>2022-12-06T05:16:30Z</time>
      </trkpt>
      <trkpt lat="36.773284" lon="-3.496792">
        <ele>206.073</ele>
        <time>2022-12-06T05:16:34Z</time>
      </trkpt>
      <trkpt lat="36.773352" lon="-3.496770">
        <ele>206.820</ele>
        <time>2022-12-06T05:16:38Z</time>
      </trkpt>
      <trkpt lat="36.773423" lon="-3.496657">
        <ele>208.009</ele>
        <time>2022-12-06T05:16:45Z</time>
      </trkpt>
      <trkpt lat="36.773429" lon="-3.496647">
        <ele>208.010</ele>
        <time>2022-12-06T05:16:46Z</time>
      </trkpt>
      <trkpt lat="36.773443" lon="-3.496637">
        <ele>208.351</ele>
        <time>2022-12-06T05:16:48Z</time>
      </trkpt>
      <trkpt lat="36.773469" lon="-3.496609">
        <ele>209.129</ele>
        <time>2022-12-06T05:16:51Z</time>
      </trkpt>
      <trkpt lat="36.773477" lon="-3.496601">
        <ele>209.356</ele>
        <time>2022-12-06T05:16:52Z</time>
      </trkpt>
      <trkpt lat="36.773491" lon="-3.496592">
        <ele>210.054</ele>
        <time>2022-12-06T05:16:54Z</time>
      </trkpt>
      <trkpt lat="36.773501" lon="-3.496587">
        <ele>210.198</ele>
        <time>2022-12-06T05:16:55Z</time>
      </trkpt>
      <trkpt lat="36.773545" lon="-3.496564">
        <ele>210.349</ele>
        <time>2022-12-06T05:16:58Z</time>
      </trkpt>
      <trkpt lat="36.773702" lon="-3.496436">
        <ele>210.356</ele>
        <time>2022-12-06T05:17:07Z</time>
      </trkpt>
      <trkpt lat="36.773735" lon="-3.496407">
        <ele>210.667</ele>
        <time>2022-12-06T05:17:09Z</time>
      </trkpt>
      <trkpt lat="36.773765" lon="-3.496339">
        <ele>211.375</ele>
        <time>2022-12-06T05:17:13Z</time>
      </trkpt>
      <trkpt lat="36.773790" lon="-3.496277">
        <ele>212.628</ele>
        <time>2022-12-06T05:17:17Z</time>
      </trkpt>
      <trkpt lat="36.773799" lon="-3.496256">
        <ele>212.820</ele>
        <time>2022-12-06T05:17:19Z</time>
      </trkpt>
      <trkpt lat="36.773849" lon="-3.496173">
        <ele>213.609</ele>
        <time>2022-12-06T05:17:24Z</time>
      </trkpt>
      <trkpt lat="36.773885" lon="-3.496121">
        <ele>214.048</ele>
        <time>2022-12-06T05:17:27Z</time>
      </trkpt>
      <trkpt lat="36.773888" lon="-3.496009">
        <ele>214.349</ele>
        <time>2022-12-06T05:17:31Z</time>
      </trkpt>
      <trkpt lat="36.773863" lon="-3.495960">
        <ele>214.647</ele>
        <time>2022-12-06T05:17:33Z</time>
      </trkpt>
      <trkpt lat="36.773850" lon="-3.495923">
        <ele>215.034</ele>
        <time>2022-12-06T05:17:35Z</time>
      </trkpt>
      <trkpt lat="36.773798" lon="-3.495843">
        <ele>215.612</ele>
        <time>2022-12-06T05:17:40Z</time>
      </trkpt>
      <trkpt lat="36.773778" lon="-3.495818">
        <ele>215.836</ele>
        <time>2022-12-06T05:17:42Z</time>
      </trkpt>
      <trkpt lat="36.773739" lon="-3.495744">
        <ele>215.837</ele>
        <time>2022-12-06T05:17:45Z</time>
      </trkpt>
      <trkpt lat="36.773693" lon="-3.495717">
        <ele>215.684</ele>
        <time>2022-12-06T05:17:47Z</time>
      </trkpt>
      <trkpt lat="36.773560" lon="-3.495709">
        <ele>214.845</ele>
        <time>2022-12-06T05:17:52Z</time>
      </trkpt>
      <trkpt lat="36.773370" lon="-3.495685">
        <ele>215.146</ele>
        <time>2022-12-06T05:18:01Z</time>
      </trkpt>
      <trkpt lat="36.773209" lon="-3.495543">
        <ele>215.688</ele>
        <time>2022-12-06T05:18:10Z</time>
      </trkpt>
      <trkpt lat="36.773159" lon="-3.495472">
        <ele>215.816</ele>
        <time>2022-12-06T05:18:15Z</time>
      </trkpt>
      <trkpt lat="36.773105" lon="-3.495354">
        <ele>216.809</ele>
        <time>2022-12-06T05:18:21Z</time>
      </trkpt>
      <trkpt lat="36.773111" lon="-3.495322">
        <ele>217.675</ele>
        <time>2022-12-06T05:18:23Z</time>
      </trkpt>
      <trkpt lat="36.773119" lon="-3.495302">
        <ele>218.066</ele>
        <time>2022-12-06T05:18:25Z</time>
      </trkpt>
      <trkpt lat="36.773213" lon="-3.495266">
        <ele>219.064</ele>
        <time>2022-12-06T05:18:36Z</time>
      </trkpt>
      <trkpt lat="36.773220" lon="-3.495267">
        <ele>219.161</ele>
        <time>2022-12-06T05:18:37Z</time>
      </trkpt>
      <trkpt lat="36.773243" lon="-3.495311">
        <ele>219.649</ele>
        <time>2022-12-06T05:18:42Z</time>
      </trkpt>
      <trkpt lat="36.773271" lon="-3.495374">
        <ele>220.143</ele>
        <time>2022-12-06T05:18:47Z</time>
      </trkpt>
      <trkpt lat="36.773358" lon="-3.495442">
        <ele>221.354</ele>
        <time>2022-12-06T05:18:54Z</time>
      </trkpt>
      <trkpt lat="36.773430" lon="-3.495478">
        <ele>222.651</ele>
        <time>2022-12-06T05:19:00Z</time>
      </trkpt>
      <trkpt lat="36.773491" lon="-3.495457">
        <ele>223.822</ele>
        <time>2022-12-06T05:19:05Z</time>
      </trkpt>
      <trkpt lat="36.773532" lon="-3.495429">
        <ele>224.829</ele>
        <time>2022-12-06T05:19:09Z</time>
      </trkpt>
      <trkpt lat="36.773555" lon="-3.495424">
        <ele>225.300</ele>
        <time>2022-12-06T05:19:11Z</time>
      </trkpt>
      <trkpt lat="36.773577" lon="-3.495420">
        <ele>225.820</ele>
        <time>2022-12-06T05:19:13Z</time>
      </trkpt>
      <trkpt lat="36.773624" lon="-3.495402">
        <ele>227.009</ele>
        <time>2022-12-06T05:19:17Z</time>
      </trkpt>
      <trkpt lat="36.773645" lon="-3.495391">
        <ele>227.693</ele>
        <time>2022-12-06T05:19:20Z</time>
      </trkpt>
      <trkpt lat="36.773664" lon="-3.495386">
        <ele>228.144</ele>
        <time>2022-12-06T05:19:22Z</time>
      </trkpt>
      <trkpt lat="36.773689" lon="-3.495380">
        <ele>229.162</ele>
        <time>2022-12-06T05:19:26Z</time>
      </trkpt>
      <trkpt lat="36.773700" lon="-3.495370">
        <ele>229.369</ele>
        <time>2022-12-06T05:19:27Z</time>
      </trkpt>
      <trkpt lat="36.773728" lon="-3.495357">
        <ele>230.157</ele>
        <time>2022-12-06T05:19:30Z</time>
      </trkpt>
      <trkpt lat="36.773739" lon="-3.495347">
        <ele>230.621</ele>
        <time>2022-12-06T05:19:31Z</time>
      </trkpt>
      <trkpt lat="36.773823" lon="-3.495331">
        <ele>231.672</ele>
        <time>2022-12-06T05:19:38Z</time>
      </trkpt>
      <trkpt lat="36.773889" lon="-3.495341">
        <ele>232.649</ele>
        <time>2022-12-06T05:19:43Z</time>
      </trkpt>
      <trkpt lat="36.773987" lon="-3.495328">
        <ele>233.810</ele>
        <time>2022-12-06T05:19:51Z</time>
      </trkpt>
      <trkpt lat="36.774170" lon="-3.495291">
        <ele>234.081</ele>
        <time>2022-12-06T05:20:04Z</time>
      </trkpt>
      <trkpt lat="36.774303" lon="-3.495323">
        <ele>234.861</ele>
        <time>2022-12-06T05:20:13Z</time>
      </trkpt>
      <trkpt lat="36.774317" lon="-3.495324">
        <ele>234.817</ele>
        <time>2022-12-06T05:20:14Z</time>
      </trkpt>
      <trkpt lat="36.774353" lon="-3.495329">
        <ele>235.109</ele>
        <time>2022-12-06T05:20:17Z</time>
      </trkpt>
      <trkpt lat="36.774398" lon="-3.495327">
        <ele>236.099</ele>
        <time>2022-12-06T05:20:21Z</time>
      </trkpt>
      <trkpt lat="36.774473" lon="-3.495324">
        <ele>237.370</ele>
        <time>2022-12-06T05:20:27Z</time>
      </trkpt>
      <trkpt lat="36.774526" lon="-3.495312">
        <ele>238.698</ele>
        <time>2022-12-06T05:20:32Z</time>
      </trkpt>
      <trkpt lat="36.774574" lon="-3.495304">
        <ele>240.065</ele>
        <time>2022-12-06T05:20:37Z</time>
      </trkpt>
      <trkpt lat="36.774605" lon="-3.495264">
        <ele>241.023</ele>
        <time>2022-12-06T05:20:41Z</time>
      </trkpt>
      <trkpt lat="36.774653" lon="-3.495219">
        <ele>242.197</ele>
        <time>2022-12-06T05:20:47Z</time>
      </trkpt>
      <trkpt lat="36.774699" lon="-3.495206">
        <ele>243.328</ele>
        <time>2022-12-06T05:20:52Z</time>
      </trkpt>
      <trkpt lat="36.774786" lon="-3.495184">
        <ele>244.645</ele>
        <time>2022-12-06T05:21:00Z</time>
      </trkpt>
      <trkpt lat="36.774927" lon="-3.495022">
        <ele>244.356</ele>
        <time>2022-12-06T05:21:12Z</time>
      </trkpt>
      <trkpt lat="36.774976" lon="-3.494959">
        <ele>243.652</ele>
        <time>2022-12-06T05:21:15Z</time>
      </trkpt>
      <trkpt lat="36.775034" lon="-3.494878">
        <ele>242.153</ele>
        <time>2022-12-06T05:21:19Z</time>
      </trkpt>
      <trkpt lat="36.775053" lon="-3.494838">
        <ele>240.808</ele>
        <time>2022-12-06T05:21:21Z</time>
      </trkpt>
      <trkpt lat="36.775079" lon="-3.494796">
        <ele>239.809</ele>
        <time>2022-12-06T05:21:23Z</time>
      </trkpt>
      <trkpt lat="36.775122" lon="-3.494673">
        <ele>238.836</ele>
        <time>2022-12-06T05:21:27Z</time>
      </trkpt>
      <trkpt lat="36.775205" lon="-3.494452">
        <ele>238.337</ele>
        <time>2022-12-06T05:21:37Z</time>
      </trkpt>
      <trkpt lat="36.775215" lon="-3.494342">
        <ele>238.355</ele>
        <time>2022-12-06T05:21:41Z</time>
      </trkpt>
      <trkpt lat="36.775210" lon="-3.494114">
        <ele>238.082</ele>
        <time>2022-12-06T05:21:50Z</time>
      </trkpt>
      <trkpt lat="36.775208" lon="-3.494061">
        <ele>238.120</ele>
        <time>2022-12-06T05:21:52Z</time>
      </trkpt>
      <trkpt lat="36.775210" lon="-3.493986">
        <ele>238.634</ele>
        <time>2022-12-06T05:21:55Z</time>
      </trkpt>
      <trkpt lat="36.775219" lon="-3.493939">
        <ele>238.825</ele>
        <time>2022-12-06T05:21:57Z</time>
      </trkpt>
      <trkpt lat="36.775243" lon="-3.493899">
        <ele>239.822</ele>
        <time>2022-12-06T05:22:01Z</time>
      </trkpt>
      <trkpt lat="36.775254" lon="-3.493888">
        <ele>240.053</ele>
        <time>2022-12-06T05:22:02Z</time>
      </trkpt>
      <trkpt lat="36.775272" lon="-3.493869">
        <ele>241.011</ele>
        <time>2022-12-06T05:22:05Z</time>
      </trkpt>
      <trkpt lat="36.775306" lon="-3.493812">
        <ele>241.621</ele>
        <time>2022-12-06T05:22:08Z</time>
      </trkpt>
      <trkpt lat="36.775312" lon="-3.493792">
        <ele>242.003</ele>
        <time>2022-12-06T05:22:09Z</time>
      </trkpt>
      <trkpt lat="36.775447" lon="-3.493636">
        <ele>241.309</ele>
        <time>2022-12-06T05:22:19Z</time>
      </trkpt>
      <trkpt lat="36.775519" lon="-3.493620">
        <ele>241.832</ele>
        <time>2022-12-06T05:22:23Z</time>
      </trkpt>
      <trkpt lat="36.775700" lon="-3.493557">
        <ele>242.083</ele>
        <time>2022-12-06T05:22:32Z</time>
      </trkpt>
      <trkpt lat="36.775785" lon="-3.493554">
        <ele>242.851</ele>
        <time>2022-12-06T05:22:38Z</time>
      </trkpt>
      <trkpt lat="36.775804" lon="-3.493527">
        <ele>243.048</ele>
        <time>2022-12-06T05:22:40Z</time>
      </trkpt>
      <trkpt lat="36.775856" lon="-3.493469">
        <ele>243.666</ele>
        <time>2022-12-06T05:22:45Z</time>
      </trkpt>
      <trkpt lat="36.775847" lon="-3.493342">
        <ele>244.090</ele>
        <time>2022-12-06T05:22:51Z</time>
      </trkpt>
      <trkpt lat="36.775843" lon="-3.493324">
        <ele>244.011</ele>
        <time>2022-12-06T05:22:52Z</time>
      </trkpt>
      <trkpt lat="36.775814" lon="-3.493225">
        <ele>244.878</ele>
        <time>2022-12-06T05:22:57Z</time>
      </trkpt>
      <trkpt lat="36.775794" lon="-3.493007">
        <ele>245.189</ele>
        <time>2022-12-06T05:23:06Z</time>
      </trkpt>
      <trkpt lat="36.775797" lon="-3.492917">
        <ele>246.044</ele>
        <time>2022-12-06T05:23:11Z</time>
      </trkpt>
      <trkpt lat="36.775803" lon="-3.492910">
        <ele>246.305</ele>
        <time>2022-12-06T05:23:12Z</time>
      </trkpt>
      <trkpt lat="36.775829" lon="-3.492908">
        <ele>247.315</ele>
        <time>2022-12-06T05:23:16Z</time>
      </trkpt>
      <trkpt lat="36.775836" lon="-3.492911">
        <ele>247.609</ele>
        <time>2022-12-06T05:23:17Z</time>
      </trkpt>
      <trkpt lat="36.775856" lon="-3.492930">
        <ele>248.685</ele>
        <time>2022-12-06T05:23:21Z</time>
      </trkpt>
      <trkpt lat="36.775878" lon="-3.492982">
        <ele>249.156</ele>
        <time>2022-12-06T05:23:25Z</time>
      </trkpt>
      <trkpt lat="36.775899" lon="-3.493015">
        <ele>249.344</ele>
        <time>2022-12-06T05:23:28Z</time>
      </trkpt>
      <trkpt lat="36.775911" lon="-3.493034">
        <ele>249.851</ele>
        <time>2022-12-06T05:23:30Z</time>
      </trkpt>
      <trkpt lat="36.775971" lon="-3.493080">
        <ele>250.659</ele>
        <time>2022-12-06T05:23:35Z</time>
      </trkpt>
      <trkpt lat="36.775995" lon="-3.493097">
        <ele>250.863</ele>
        <time>2022-12-06T05:23:37Z</time>
      </trkpt>
      <trkpt lat="36.776053" lon="-3.493125">
        <ele>251.874</ele>
        <time>2022-12-06T05:23:43Z</time>
      </trkpt>
      <trkpt lat="36.776083" lon="-3.493119">
        <ele>252.621</ele>
        <time>2022-12-06T05:23:46Z</time>
      </trkpt>
      <trkpt lat="36.776099" lon="-3.493116">
        <ele>252.812</ele>
        <time>2022-12-06T05:23:47Z</time>
      </trkpt>
      <trkpt lat="36.776157" lon="-3.493095">
        <ele>254.067</ele>
        <time>2022-12-06T05:23:52Z</time>
      </trkpt>
      <trkpt lat="36.776185" lon="-3.493082">
        <ele>254.681</ele>
        <time>2022-12-06T05:23:54Z</time>
      </trkpt>
      <trkpt lat="36.776218" lon="-3.493056">
        <ele>255.119</ele>
        <time>2022-12-06T05:23:57Z</time>
      </trkpt>
      <trkpt lat="36.776387" lon="-3.492966">
        <ele>255.609</ele>
        <time>2022-12-06T05:24:06Z</time>
      </trkpt>
      <trkpt lat="36.776538" lon="-3.492841">
        <ele>256.217</ele>
        <time>2022-12-06T05:24:13Z</time>
      </trkpt>
      <trkpt lat="36.776631" lon="-3.492755">
        <ele>257.318</ele>
        <time>2022-12-06T05:24:21Z</time>
      </trkpt>
      <trkpt lat="36.776756" lon="-3.492593">
        <ele>256.386</ele>
        <time>2022-12-06T05:24:30Z</time>
      </trkpt>
      <trkpt lat="36.776762" lon="-3.492572">
        <ele>256.343</ele>
        <time>2022-12-06T05:24:31Z</time>
      </trkpt>
      <trkpt lat="36.776772" lon="-3.492464">
        <ele>257.071</ele>
        <time>2022-12-06T05:24:36Z</time>
      </trkpt>
      <trkpt lat="36.776761" lon="-3.492417">
        <ele>257.345</ele>
        <time>2022-12-06T05:24:39Z</time>
      </trkpt>
      <trkpt lat="36.776755" lon="-3.492315">
        <ele>257.716</ele>
        <time>2022-12-06T05:24:44Z</time>
      </trkpt>
      <trkpt lat="36.776766" lon="-3.492263">
        <ele>258.083</ele>
        <time>2022-12-06T05:24:46Z</time>
      </trkpt>
      <trkpt lat="36.776808" lon="-3.492105">
        <ele>258.674</ele>
        <time>2022-12-06T05:24:54Z</time>
      </trkpt>
      <trkpt lat="36.776814" lon="-3.492064">
        <ele>259.237</ele>
        <time>2022-12-06T05:24:57Z</time>
      </trkpt>
      <trkpt lat="36.776815" lon="-3.492031">
        <ele>259.649</ele>
        <time>2022-12-06T05:24:59Z</time>
      </trkpt>
      <trkpt lat="36.776833" lon="-3.491961">
        <ele>260.313</ele>
        <time>2022-12-06T05:25:03Z</time>
      </trkpt>
      <trkpt lat="36.776844" lon="-3.491936">
        <ele>260.709</ele>
        <time>2022-12-06T05:25:05Z</time>
      </trkpt>
      <trkpt lat="36.776877" lon="-3.491873">
        <ele>262.054</ele>
        <time>2022-12-06T05:25:10Z</time>
      </trkpt>
      <trkpt lat="36.776895" lon="-3.491815">
        <ele>263.075</ele>
        <time>2022-12-06T05:25:14Z</time>
      </trkpt>
      <trkpt lat="36.776943" lon="-3.491584">
        <ele>263.763</ele>
        <time>2022-12-06T05:25:25Z</time>
      </trkpt>
      <trkpt lat="36.777084" lon="-3.491403">
        <ele>263.370</ele>
        <time>2022-12-06T05:25:35Z</time>
      </trkpt>
      <trkpt lat="36.777158" lon="-3.491229">
        <ele>261.798</ele>
        <time>2022-12-06T05:25:41Z</time>
      </trkpt>
      <trkpt lat="36.777182" lon="-3.491167">
        <ele>262.662</ele>
        <time>2022-12-06T05:25:44Z</time>
      </trkpt>
      <trkpt lat="36.777186" lon="-3.491135">
        <ele>263.033</ele>
        <time>2022-12-06T05:25:46Z</time>
      </trkpt>
      <trkpt lat="36.777180" lon="-3.491119">
        <ele>263.210</ele>
        <time>2022-12-06T05:25:48Z</time>
      </trkpt>
      <trkpt lat="36.777194" lon="-3.491077">
        <ele>264.041</ele>
        <time>2022-12-06T05:25:52Z</time>
      </trkpt>
      <trkpt lat="36.777202" lon="-3.491050">
        <ele>265.029</ele>
        <time>2022-12-06T05:25:55Z</time>
      </trkpt>
      <trkpt lat="36.777224" lon="-3.491024">
        <ele>265.300</ele>
        <time>2022-12-06T05:25:57Z</time>
      </trkpt>
      <trkpt lat="36.777239" lon="-3.491017">
        <ele>266.020</ele>
        <time>2022-12-06T05:25:59Z</time>
      </trkpt>
      <trkpt lat="36.777247" lon="-3.491013">
        <ele>266.209</ele>
        <time>2022-12-06T05:26:00Z</time>
      </trkpt>
      <trkpt lat="36.777260" lon="-3.490992">
        <ele>266.693</ele>
        <time>2022-12-06T05:26:02Z</time>
      </trkpt>
      <trkpt lat="36.777286" lon="-3.490959">
        <ele>267.274</ele>
        <time>2022-12-06T05:26:05Z</time>
      </trkpt>
      <trkpt lat="36.777295" lon="-3.490938">
        <ele>268.092</ele>
        <time>2022-12-06T05:26:08Z</time>
      </trkpt>
      <trkpt lat="36.777299" lon="-3.490921">
        <ele>268.339</ele>
        <time>2022-12-06T05:26:09Z</time>
      </trkpt>
      <trkpt lat="36.777304" lon="-3.490908">
        <ele>268.617</ele>
        <time>2022-12-06T05:26:10Z</time>
      </trkpt>
      <trkpt lat="36.777333" lon="-3.490846">
        <ele>269.261</ele>
        <time>2022-12-06T05:26:14Z</time>
      </trkpt>
      <trkpt lat="36.777344" lon="-3.490825">
        <ele>269.312</ele>
        <time>2022-12-06T05:26:15Z</time>
      </trkpt>
      <trkpt lat="36.777356" lon="-3.490794">
        <ele>269.699</ele>
        <time>2022-12-06T05:26:17Z</time>
      </trkpt>
      <trkpt lat="36.777369" lon="-3.490770">
        <ele>270.060</ele>
        <time>2022-12-06T05:26:19Z</time>
      </trkpt>
      <trkpt lat="36.777389" lon="-3.490747">
        <ele>270.346</ele>
        <time>2022-12-06T05:26:21Z</time>
      </trkpt>
      <trkpt lat="36.777419" lon="-3.490667">
        <ele>271.688</ele>
        <time>2022-12-06T05:26:26Z</time>
      </trkpt>
      <trkpt lat="36.777417" lon="-3.490573">
        <ele>272.716</ele>
        <time>2022-12-06T05:26:31Z</time>
      </trkpt>
      <trkpt lat="36.777396" lon="-3.490431">
        <ele>273.009</ele>
        <time>2022-12-06T05:26:39Z</time>
      </trkpt>
      <trkpt lat="36.777454" lon="-3.490206">
        <ele>272.255</ele>
        <time>2022-12-06T05:26:53Z</time>
      </trkpt>
      <trkpt lat="36.777517" lon="-3.490141">
        <ele>271.616</ele>
        <time>2022-12-06T05:26:58Z</time>
      </trkpt>
      <trkpt lat="36.777657" lon="-3.489988">
        <ele>272.634</ele>
        <time>2022-12-06T05:27:07Z</time>
      </trkpt>
      <trkpt lat="36.777671" lon="-3.489971">
        <ele>272.771</ele>
        <time>2022-12-06T05:27:08Z</time>
      </trkpt>
      <trkpt lat="36.777749" lon="-3.489833">
        <ele>273.789</ele>
        <time>2022-12-06T05:27:16Z</time>
      </trkpt>
      <trkpt lat="36.777749" lon="-3.489816">
        <ele>273.743</ele>
        <time>2022-12-06T05:27:17Z</time>
      </trkpt>
      <trkpt lat="36.777749" lon="-3.489694">
        <ele>274.774</ele>
        <time>2022-12-06T05:27:23Z</time>
      </trkpt>
      <trkpt lat="36.777799" lon="-3.489543">
        <ele>276.041</ele>
        <time>2022-12-06T05:27:33Z</time>
      </trkpt>
      <trkpt lat="36.777838" lon="-3.489453">
        <ele>277.032</ele>
        <time>2022-12-06T05:27:39Z</time>
      </trkpt>
      <trkpt lat="36.777968" lon="-3.489334">
        <ele>277.613</ele>
        <time>2022-12-06T05:27:51Z</time>
      </trkpt>
      <trkpt lat="36.778037" lon="-3.489306">
        <ele>278.243</ele>
        <time>2022-12-06T05:27:55Z</time>
      </trkpt>
      <trkpt lat="36.778200" lon="-3.489202">
        <ele>278.307</ele>
        <time>2022-12-06T05:28:05Z</time>
      </trkpt>
      <trkpt lat="36.778322" lon="-3.489017">
        <ele>278.209</ele>
        <time>2022-12-06T05:28:13Z</time>
      </trkpt>
      <trkpt lat="36.778392" lon="-3.488802">
        <ele>278.292</ele>
        <time>2022-12-06T05:28:21Z</time>
      </trkpt>
      <trkpt lat="36.778354" lon="-3.488775">
        <ele>278.343</ele>
        <time>2022-12-06T05:28:23Z</time>
      </trkpt>
      <trkpt lat="36.778237" lon="-3.488814">
        <ele>279.221</ele>
        <time>2022-12-06T05:28:28Z</time>
      </trkpt>
      <trkpt lat="36.778056" lon="-3.488879">
        <ele>279.658</ele>
        <time>2022-12-06T05:28:35Z</time>
      </trkpt>
      <trkpt lat="36.777855" lon="-3.488888">
        <ele>279.616</ele>
        <time>2022-12-06T05:28:43Z</time>
      </trkpt>
      <trkpt lat="36.777678" lon="-3.488949">
        <ele>280.040</ele>
        <time>2022-12-06T05:28:50Z</time>
      </trkpt>
      <trkpt lat="36.777656" lon="-3.488966">
        <ele>280.251</ele>
        <time>2022-12-06T05:28:51Z</time>
      </trkpt>
      <trkpt lat="36.777521" lon="-3.488974">
        <ele>281.258</ele>
        <time>2022-12-06T05:28:57Z</time>
      </trkpt>
      <trkpt lat="36.777377" lon="-3.488800">
        <ele>282.279</ele>
        <time>2022-12-06T05:29:06Z</time>
      </trkpt>
      <trkpt lat="36.777366" lon="-3.488778">
        <ele>282.314</ele>
        <time>2022-12-06T05:29:07Z</time>
      </trkpt>
      <trkpt lat="36.777314" lon="-3.488629">
        <ele>283.254</ele>
        <time>2022-12-06T05:29:13Z</time>
      </trkpt>
      <trkpt lat="36.777294" lon="-3.488559">
        <ele>283.309</ele>
        <time>2022-12-06T05:29:16Z</time>
      </trkpt>
      <trkpt lat="36.777202" lon="-3.488352">
        <ele>284.309</ele>
        <time>2022-12-06T05:29:25Z</time>
      </trkpt>
      <trkpt lat="36.777149" lon="-3.488290">
        <ele>284.622</ele>
        <time>2022-12-06T05:29:28Z</time>
      </trkpt>
      <trkpt lat="36.776999" lon="-3.488157">
        <ele>284.613</ele>
        <time>2022-12-06T05:29:36Z</time>
      </trkpt>
      <trkpt lat="36.776863" lon="-3.488006">
        <ele>285.061</ele>
        <time>2022-12-06T05:29:44Z</time>
      </trkpt>
      <trkpt lat="36.776756" lon="-3.487938">
        <ele>285.648</ele>
        <time>2022-12-06T05:29:50Z</time>
      </trkpt>
      <trkpt lat="36.776677" lon="-3.487723">
        <ele>286.656</ele>
        <time>2022-12-06T05:30:00Z</time>
      </trkpt>
      <trkpt lat="36.776676" lon="-3.487702">
        <ele>286.760</ele>
        <time>2022-12-06T05:30:01Z</time>
      </trkpt>
      <trkpt lat="36.776751" lon="-3.487517">
        <ele>287.751</ele>
        <time>2022-12-06T05:30:10Z</time>
      </trkpt>
      <trkpt lat="36.776819" lon="-3.487301">
        <ele>288.048</ele>
        <time>2022-12-06T05:30:19Z</time>
      </trkpt>
      <trkpt lat="36.776819" lon="-3.487254">
        <ele>288.219</ele>
        <time>2022-12-06T05:30:21Z</time>
      </trkpt>
      <trkpt lat="36.776860" lon="-3.487133">
        <ele>288.713</ele>
        <time>2022-12-06T05:30:28Z</time>
      </trkpt>
      <trkpt lat="36.777003" lon="-3.486978">
        <ele>289.343</ele>
        <time>2022-12-06T05:30:36Z</time>
      </trkpt>
      <trkpt lat="36.777121" lon="-3.486806">
        <ele>289.207</ele>
        <time>2022-12-06T05:30:43Z</time>
      </trkpt>
      <trkpt lat="36.777160" lon="-3.486564">
        <ele>288.609</ele>
        <time>2022-12-06T05:30:51Z</time>
      </trkpt>
      <trkpt lat="36.777148" lon="-3.486373">
        <ele>288.272</ele>
        <time>2022-12-06T05:30:57Z</time>
      </trkpt>
      <trkpt lat="36.777203" lon="-3.486222">
        <ele>287.753</ele>
        <time>2022-12-06T05:31:02Z</time>
      </trkpt>
      <trkpt lat="36.777214" lon="-3.486202">
        <ele>287.681</ele>
        <time>2022-12-06T05:31:03Z</time>
      </trkpt>
      <trkpt lat="36.777229" lon="-3.486142">
        <ele>288.048</ele>
        <time>2022-12-06T05:31:06Z</time>
      </trkpt>
      <trkpt lat="36.777222" lon="-3.486085">
        <ele>288.376</ele>
        <time>2022-12-06T05:31:10Z</time>
      </trkpt>
      <trkpt lat="36.777222" lon="-3.486045">
        <ele>288.770</ele>
        <time>2022-12-06T05:31:12Z</time>
      </trkpt>
      <trkpt lat="36.777218" lon="-3.486021">
        <ele>289.051</ele>
        <time>2022-12-06T05:31:13Z</time>
      </trkpt>
      <trkpt lat="36.777217" lon="-3.485968">
        <ele>289.628</ele>
        <time>2022-12-06T05:31:16Z</time>
      </trkpt>
      <trkpt lat="36.777222" lon="-3.485955">
        <ele>289.759</ele>
        <time>2022-12-06T05:31:17Z</time>
      </trkpt>
      <trkpt lat="36.777234" lon="-3.485919">
        <ele>290.371</ele>
        <time>2022-12-06T05:31:19Z</time>
      </trkpt>
      <trkpt lat="36.777239" lon="-3.485879">
        <ele>290.641</ele>
        <time>2022-12-06T05:31:21Z</time>
      </trkpt>
      <trkpt lat="36.777248" lon="-3.485843">
        <ele>290.715</ele>
        <time>2022-12-06T05:31:24Z</time>
      </trkpt>
      <trkpt lat="36.777291" lon="-3.485803">
        <ele>291.009</ele>
        <time>2022-12-06T05:31:29Z</time>
      </trkpt>
      <trkpt lat="36.777358" lon="-3.485756">
        <ele>291.028</ele>
        <time>2022-12-06T05:31:36Z</time>
      </trkpt>
      <trkpt lat="36.777376" lon="-3.485744">
        <ele>291.259</ele>
        <time>2022-12-06T05:31:39Z</time>
      </trkpt>
      <trkpt lat="36.777395" lon="-3.485718">
        <ele>291.747</ele>
        <time>2022-12-06T05:31:43Z</time>
      </trkpt>
      <trkpt lat="36.777412" lon="-3.485694">
        <ele>292.034</ele>
        <time>2022-12-06T05:31:44Z</time>
      </trkpt>
      <trkpt lat="36.777440" lon="-3.485657">
        <ele>292.272</ele>
        <time>2022-12-06T05:31:46Z</time>
      </trkpt>
      <trkpt lat="36.777454" lon="-3.485627">
        <ele>292.736</ele>
        <time>2022-12-06T05:31:48Z</time>
      </trkpt>
      <trkpt lat="36.777453" lon="-3.485610">
        <ele>293.017</ele>
        <time>2022-12-06T05:31:49Z</time>
      </trkpt>
      <trkpt lat="36.777472" lon="-3.485556">
        <ele>293.734</ele>
        <time>2022-12-06T05:31:52Z</time>
      </trkpt>
      <trkpt lat="36.777475" lon="-3.485517">
        <ele>294.255</ele>
        <time>2022-12-06T05:31:54Z</time>
      </trkpt>
      <trkpt lat="36.777475" lon="-3.485497">
        <ele>294.344</ele>
        <time>2022-12-06T05:31:55Z</time>
      </trkpt>
      <trkpt lat="36.777464" lon="-3.485415">
        <ele>294.305</ele>
        <time>2022-12-06T05:31:59Z</time>
      </trkpt>
      <trkpt lat="36.777491" lon="-3.485315">
        <ele>294.015</ele>
        <time>2022-12-06T05:32:04Z</time>
      </trkpt>
      <trkpt lat="36.777598" lon="-3.485257">
        <ele>294.209</ele>
        <time>2022-12-06T05:32:15Z</time>
      </trkpt>
      <trkpt lat="36.777613" lon="-3.485262">
        <ele>294.265</ele>
        <time>2022-12-06T05:32:17Z</time>
      </trkpt>
      <trkpt lat="36.777642" lon="-3.485259">
        <ele>294.316</ele>
        <time>2022-12-06T05:32:21Z</time>
      </trkpt>
      <trkpt lat="36.777693" lon="-3.485235">
        <ele>294.344</ele>
        <time>2022-12-06T05:32:25Z</time>
      </trkpt>
      <trkpt lat="36.777749" lon="-3.485193">
        <ele>294.311</ele>
        <time>2022-12-06T05:32:30Z</time>
      </trkpt>
      <trkpt lat="36.777772" lon="-3.485156">
        <ele>294.339</ele>
        <time>2022-12-06T05:32:32Z</time>
      </trkpt>
      <trkpt lat="36.777818" lon="-3.485061">
        <ele>294.673</ele>
        <time>2022-12-06T05:32:38Z</time>
      </trkpt>
      <trkpt lat="36.777825" lon="-3.485004">
        <ele>294.644</ele>
        <time>2022-12-06T05:32:41Z</time>
      </trkpt>
      <trkpt lat="36.777846" lon="-3.484971">
        <ele>294.681</ele>
        <time>2022-12-06T05:32:44Z</time>
      </trkpt>
      <trkpt lat="36.777899" lon="-3.484940">
        <ele>295.342</ele>
        <time>2022-12-06T05:32:48Z</time>
      </trkpt>
      <trkpt lat="36.777920" lon="-3.484937">
        <ele>296.334</ele>
        <time>2022-12-06T05:32:52Z</time>
      </trkpt>
      <trkpt lat="36.777942" lon="-3.484940">
        <ele>297.255</ele>
        <time>2022-12-06T05:32:55Z</time>
      </trkpt>
      <trkpt lat="36.777951" lon="-3.484930">
        <ele>297.310</ele>
        <time>2022-12-06T05:32:57Z</time>
      </trkpt>
      <trkpt lat="36.777955" lon="-3.484924">
        <ele>297.309</ele>
        <time>2022-12-06T05:32:58Z</time>
      </trkpt>
      <trkpt lat="36.778034" lon="-3.484903">
        <ele>297.734</ele>
        <time>2022-12-06T05:33:09Z</time>
      </trkpt>
      <trkpt lat="36.778118" lon="-3.484898">
        <ele>298.395</ele>
        <time>2022-12-06T05:33:15Z</time>
      </trkpt>
      <trkpt lat="36.778201" lon="-3.484838">
        <ele>298.323</ele>
        <time>2022-12-06T05:33:23Z</time>
      </trkpt>
      <trkpt lat="36.778253" lon="-3.484795">
        <ele>299.040</ele>
        <time>2022-12-06T05:33:27Z</time>
      </trkpt>
      <trkpt lat="36.778340" lon="-3.484675">
        <ele>299.328</ele>
        <time>2022-12-06T05:33:34Z</time>
      </trkpt>
      <trkpt lat="36.778335" lon="-3.484619">
        <ele>299.372</ele>
        <time>2022-12-06T05:33:37Z</time>
      </trkpt>
      <trkpt lat="36.778317" lon="-3.484476">
        <ele>300.243</ele>
        <time>2022-12-06T05:33:44Z</time>
      </trkpt>
      <trkpt lat="36.778320" lon="-3.484448">
        <ele>300.350</ele>
        <time>2022-12-06T05:33:46Z</time>
      </trkpt>
      <trkpt lat="36.778316" lon="-3.484435">
        <ele>300.631</ele>
        <time>2022-12-06T05:33:47Z</time>
      </trkpt>
      <trkpt lat="36.778230" lon="-3.484254">
        <ele>300.758</ele>
        <time>2022-12-06T05:33:58Z</time>
      </trkpt>
      <trkpt lat="36.778259" lon="-3.484214">
        <ele>301.252</ele>
        <time>2022-12-06T05:34:01Z</time>
      </trkpt>
      <trkpt lat="36.778277" lon="-3.484206">
        <ele>301.617</ele>
        <time>2022-12-06T05:34:03Z</time>
      </trkpt>
      <trkpt lat="36.778297" lon="-3.484187">
        <ele>302.209</ele>
        <time>2022-12-06T05:34:06Z</time>
      </trkpt>
      <trkpt lat="36.778322" lon="-3.484159">
        <ele>302.736</ele>
        <time>2022-12-06T05:34:09Z</time>
      </trkpt>
      <trkpt lat="36.778342" lon="-3.484131">
        <ele>303.247</ele>
        <time>2022-12-06T05:34:12Z</time>
      </trkpt>
      <trkpt lat="36.778349" lon="-3.484063">
        <ele>303.625</ele>
        <time>2022-12-06T05:34:16Z</time>
      </trkpt>
      <trkpt lat="36.778306" lon="-3.483965">
        <ele>303.332</ele>
        <time>2022-12-06T05:34:22Z</time>
      </trkpt>
      <trkpt lat="36.778308" lon="-3.483884">
        <ele>303.660</ele>
        <time>2022-12-06T05:34:25Z</time>
      </trkpt>
      <trkpt lat="36.778295" lon="-3.483790">
        <ele>303.784</ele>
        <time>2022-12-06T05:34:30Z</time>
      </trkpt>
      <trkpt lat="36.778280" lon="-3.483740">
        <ele>304.375</ele>
        <time>2022-12-06T05:34:33Z</time>
      </trkpt>
      <trkpt lat="36.778281" lon="-3.483691">
        <ele>304.752</ele>
        <time>2022-12-06T05:34:36Z</time>
      </trkpt>
      <trkpt lat="36.778272" lon="-3.483588">
        <ele>305.713</ele>
        <time>2022-12-06T05:34:42Z</time>
      </trkpt>
      <trkpt lat="36.778290" lon="-3.483562">
        <ele>305.759</ele>
        <time>2022-12-06T05:34:44Z</time>
      </trkpt>
      <trkpt lat="36.778392" lon="-3.483523">
        <ele>306.603</ele>
        <time>2022-12-06T05:34:52Z</time>
      </trkpt>
      <trkpt lat="36.778411" lon="-3.483486">
        <ele>306.623</ele>
        <time>2022-12-06T05:34:55Z</time>
      </trkpt>
      <trkpt lat="36.778405" lon="-3.483474">
        <ele>306.709</ele>
        <time>2022-12-06T05:34:57Z</time>
      </trkpt>
      <trkpt lat="36.778402" lon="-3.483465">
        <ele>307.076</ele>
        <time>2022-12-06T05:34:58Z</time>
      </trkpt>
      <trkpt lat="36.778400" lon="-3.483454">
        <ele>307.367</ele>
        <time>2022-12-06T05:34:59Z</time>
      </trkpt>
      <trkpt lat="36.778390" lon="-3.483422">
        <ele>308.065</ele>
        <time>2022-12-06T05:35:01Z</time>
      </trkpt>
      <trkpt lat="36.778382" lon="-3.483399">
        <ele>308.612</ele>
        <time>2022-12-06T05:35:03Z</time>
      </trkpt>
      <trkpt lat="36.778371" lon="-3.483373">
        <ele>309.260</ele>
        <time>2022-12-06T05:35:05Z</time>
      </trkpt>
      <trkpt lat="36.778317" lon="-3.483236">
        <ele>310.294</ele>
        <time>2022-12-06T05:35:13Z</time>
      </trkpt>
      <trkpt lat="36.778312" lon="-3.483223">
        <ele>310.345</ele>
        <time>2022-12-06T05:35:14Z</time>
      </trkpt>
      <trkpt lat="36.778290" lon="-3.483203">
        <ele>310.772</ele>
        <time>2022-12-06T05:35:16Z</time>
      </trkpt>
      <trkpt lat="36.778259" lon="-3.483181">
        <ele>311.323</ele>
        <time>2022-12-06T05:35:19Z</time>
      </trkpt>
      <trkpt lat="36.778248" lon="-3.483122">
        <ele>311.727</ele>
        <time>2022-12-06T05:35:26Z</time>
      </trkpt>
      <trkpt lat="36.778236" lon="-3.483087">
        <ele>311.268</ele>
        <time>2022-12-06T05:35:29Z</time>
      </trkpt>
      <trkpt lat="36.778230" lon="-3.482957">
        <ele>310.714</ele>
        <time>2022-12-06T05:35:37Z</time>
      </trkpt>
      <trkpt lat="36.778222" lon="-3.482874">
        <ele>310.709</ele>
        <time>2022-12-06T05:35:42Z</time>
      </trkpt>
      <trkpt lat="36.778243" lon="-3.482799">
        <ele>310.763</ele>
        <time>2022-12-06T05:35:46Z</time>
      </trkpt>
      <trkpt lat="36.778263" lon="-3.482772">
        <ele>311.224</ele>
        <time>2022-12-06T05:35:49Z</time>
      </trkpt>
      <trkpt lat="36.778266" lon="-3.482752">
        <ele>311.662</ele>
        <time>2022-12-06T05:35:51Z</time>
      </trkpt>
      <trkpt lat="36.778262" lon="-3.482714">
        <ele>312.329</ele>
        <time>2022-12-06T05:35:54Z</time>
      </trkpt>
      <trkpt lat="36.778262" lon="-3.482673">
        <ele>313.617</ele>
        <time>2022-12-06T05:35:57Z</time>
      </trkpt>
      <trkpt lat="36.778287" lon="-3.482510">
        <ele>313.621</ele>
        <time>2022-12-06T05:36:05Z</time>
      </trkpt>
      <trkpt lat="36.778300" lon="-3.482465">
        <ele>314.232</ele>
        <time>2022-12-06T05:36:10Z</time>
      </trkpt>
      <trkpt lat="36.778309" lon="-3.482405">
        <ele>314.669</ele>
        <time>2022-12-06T05:36:14Z</time>
      </trkpt>
      <trkpt lat="36.778330" lon="-3.482323">
        <ele>314.730</ele>
        <time>2022-12-06T05:36:18Z</time>
      </trkpt>
      <trkpt lat="36.778338" lon="-3.482287">
        <ele>314.785</ele>
        <time>2022-12-06T05:36:20Z</time>
      </trkpt>
      <trkpt lat="36.778347" lon="-3.482190">
        <ele>315.089</ele>
        <time>2022-12-06T05:36:25Z</time>
      </trkpt>
      <trkpt lat="36.778346" lon="-3.482149">
        <ele>315.017</ele>
        <time>2022-12-06T05:36:27Z</time>
      </trkpt>
      <trkpt lat="36.778340" lon="-3.482114">
        <ele>315.209</ele>
        <time>2022-12-06T05:36:29Z</time>
      </trkpt>
      <trkpt lat="36.778336" lon="-3.482095">
        <ele>315.319</ele>
        <time>2022-12-06T05:36:31Z</time>
      </trkpt>
      <trkpt lat="36.778325" lon="-3.482044">
        <ele>315.730</ele>
        <time>2022-12-06T05:36:34Z</time>
      </trkpt>
      <trkpt lat="36.778321" lon="-3.482001">
        <ele>316.078</ele>
        <time>2022-12-06T05:36:36Z</time>
      </trkpt>
      <trkpt lat="36.778280" lon="-3.481782">
        <ele>316.785</ele>
        <time>2022-12-06T05:36:48Z</time>
      </trkpt>
      <trkpt lat="36.778280" lon="-3.481680">
        <ele>316.793</ele>
        <time>2022-12-06T05:36:55Z</time>
      </trkpt>
      <trkpt lat="36.778296" lon="-3.481575">
        <ele>318.027</ele>
        <time>2022-12-06T05:37:01Z</time>
      </trkpt>
      <trkpt lat="36.778298" lon="-3.481540">
        <ele>318.048</ele>
        <time>2022-12-06T05:37:03Z</time>
      </trkpt>
      <trkpt lat="36.778303" lon="-3.481496">
        <ele>318.255</ele>
        <time>2022-12-06T05:37:05Z</time>
      </trkpt>
      <trkpt lat="36.778319" lon="-3.481362">
        <ele>319.096</ele>
        <time>2022-12-06T05:37:12Z</time>
      </trkpt>
      <trkpt lat="36.778272" lon="-3.481266">
        <ele>319.244</ele>
        <time>2022-12-06T05:37:18Z</time>
      </trkpt>
      <trkpt lat="36.778230" lon="-3.481228">
        <ele>319.605</ele>
        <time>2022-12-06T05:37:22Z</time>
      </trkpt>
      <trkpt lat="36.778147" lon="-3.481225">
        <ele>319.615</ele>
        <time>2022-12-06T05:37:29Z</time>
      </trkpt>
      <trkpt lat="36.778068" lon="-3.481190">
        <ele>320.009</ele>
        <time>2022-12-06T05:37:34Z</time>
      </trkpt>
      <trkpt lat="36.778030" lon="-3.481177">
        <ele>320.315</ele>
        <time>2022-12-06T05:37:37Z</time>
      </trkpt>
      <trkpt lat="36.777954" lon="-3.481123">
        <ele>321.066</ele>
        <time>2022-12-06T05:37:42Z</time>
      </trkpt>
      <trkpt lat="36.777947" lon="-3.481024">
        <ele>321.734</ele>
        <time>2022-12-06T05:37:50Z</time>
      </trkpt>
      <trkpt lat="36.777962" lon="-3.480946">
        <ele>321.651</ele>
        <time>2022-12-06T05:37:56Z</time>
      </trkpt>
      <trkpt lat="36.778033" lon="-3.480836">
        <ele>322.239</ele>
        <time>2022-12-06T05:38:04Z</time>
      </trkpt>
      <trkpt lat="36.777966" lon="-3.480605">
        <ele>323.093</ele>
        <time>2022-12-06T05:38:16Z</time>
      </trkpt>
      <trkpt lat="36.777924" lon="-3.480466">
        <ele>323.224</ele>
        <time>2022-12-06T05:38:22Z</time>
      </trkpt>
      <trkpt lat="36.777930" lon="-3.480444">
        <ele>323.361</ele>
        <time>2022-12-06T05:38:23Z</time>
      </trkpt>
      <trkpt lat="36.777937" lon="-3.480414">
        <ele>324.082</ele>
        <time>2022-12-06T05:38:25Z</time>
      </trkpt>
      <trkpt lat="36.777948" lon="-3.480396">
        <ele>324.271</ele>
        <time>2022-12-06T05:38:27Z</time>
      </trkpt>
      <trkpt lat="36.777984" lon="-3.480322">
        <ele>324.241</ele>
        <time>2022-12-06T05:38:32Z</time>
      </trkpt>
      <trkpt lat="36.777994" lon="-3.480305">
        <ele>324.615</ele>
        <time>2022-12-06T05:38:34Z</time>
      </trkpt>
      <trkpt lat="36.777997" lon="-3.480293">
        <ele>324.709</ele>
        <time>2022-12-06T05:38:36Z</time>
      </trkpt>
      <trkpt lat="36.778023" lon="-3.480252">
        <ele>325.668</ele>
        <time>2022-12-06T05:38:40Z</time>
      </trkpt>
      <trkpt lat="36.778034" lon="-3.480234">
        <ele>325.719</ele>
        <time>2022-12-06T05:38:41Z</time>
      </trkpt>
      <trkpt lat="36.778052" lon="-3.480186">
        <ele>326.677</ele>
        <time>2022-12-06T05:38:45Z</time>
      </trkpt>
      <trkpt lat="36.778057" lon="-3.480173">
        <ele>326.764</ele>
        <time>2022-12-06T05:38:46Z</time>
      </trkpt>
      <trkpt lat="36.778076" lon="-3.480149">
        <ele>327.032</ele>
        <time>2022-12-06T05:38:48Z</time>
      </trkpt>
      <trkpt lat="36.778212" lon="-3.479992">
        <ele>327.756</ele>
        <time>2022-12-06T05:39:00Z</time>
      </trkpt>
      <trkpt lat="36.778210" lon="-3.479903">
        <ele>329.087</ele>
        <time>2022-12-06T05:39:04Z</time>
      </trkpt>
      <trkpt lat="36.778199" lon="-3.479713">
        <ele>330.014</ele>
        <time>2022-12-06T05:39:14Z</time>
      </trkpt>
      <trkpt lat="36.778214" lon="-3.479661">
        <ele>330.035</ele>
        <time>2022-12-06T05:39:17Z</time>
      </trkpt>
      <trkpt lat="36.778227" lon="-3.479648">
        <ele>330.257</ele>
        <time>2022-12-06T05:39:19Z</time>
      </trkpt>
      <trkpt lat="36.778271" lon="-3.479650">
        <ele>330.300</ele>
        <time>2022-12-06T05:39:23Z</time>
      </trkpt>
      <trkpt lat="36.778306" lon="-3.479659">
        <ele>330.620</ele>
        <time>2022-12-06T05:39:27Z</time>
      </trkpt>
      <trkpt lat="36.778329" lon="-3.479638">
        <ele>331.009</ele>
        <time>2022-12-06T05:39:32Z</time>
      </trkpt>
      <trkpt lat="36.778354" lon="-3.479644">
        <ele>331.276</ele>
        <time>2022-12-06T05:39:35Z</time>
      </trkpt>
      <trkpt lat="36.778354" lon="-3.479695">
        <ele>332.067</ele>
        <time>2022-12-06T05:39:39Z</time>
      </trkpt>
      <trkpt lat="36.778346" lon="-3.479721">
        <ele>332.365</ele>
        <time>2022-12-06T05:39:41Z</time>
      </trkpt>
      <trkpt lat="36.778326" lon="-3.479738">
        <ele>332.712</ele>
        <time>2022-12-06T05:39:43Z</time>
      </trkpt>
      <trkpt lat="36.778318" lon="-3.479747">
        <ele>333.090</ele>
        <time>2022-12-06T05:39:44Z</time>
      </trkpt>
      <trkpt lat="36.778296" lon="-3.479774">
        <ele>334.064</ele>
        <time>2022-12-06T05:39:49Z</time>
      </trkpt>
      <trkpt lat="36.778284" lon="-3.479793">
        <ele>334.365</ele>
        <time>2022-12-06T05:39:52Z</time>
      </trkpt>
      <trkpt lat="36.778328" lon="-3.479855">
        <ele>334.612</ele>
        <time>2022-12-06T05:39:57Z</time>
      </trkpt>
      <trkpt lat="36.778345" lon="-3.479943">
        <ele>334.363</ele>
        <time>2022-12-06T05:40:04Z</time>
      </trkpt>
      <trkpt lat="36.778373" lon="-3.480023">
        <ele>334.759</ele>
        <time>2022-12-06T05:40:10Z</time>
      </trkpt>
      <trkpt lat="36.778368" lon="-3.480029">
        <ele>335.003</ele>
        <time>2022-12-06T05:40:11Z</time>
      </trkpt>
      <trkpt lat="36.778368" lon="-3.480036">
        <ele>335.223</ele>
        <time>2022-12-06T05:40:12Z</time>
      </trkpt>
      <trkpt lat="36.778379" lon="-3.480068">
        <ele>336.009</ele>
        <time>2022-12-06T05:40:15Z</time>
      </trkpt>
      <trkpt lat="36.778399" lon="-3.480076">
        <ele>337.086</ele>
        <time>2022-12-06T05:40:18Z</time>
      </trkpt>
      <trkpt lat="36.778402" lon="-3.480063">
        <ele>337.277</ele>
        <time>2022-12-06T05:40:19Z</time>
      </trkpt>
      <trkpt lat="36.778410" lon="-3.480056">
        <ele>337.285</ele>
        <time>2022-12-06T05:40:21Z</time>
      </trkpt>
      <trkpt lat="36.778441" lon="-3.479975">
        <ele>337.752</ele>
        <time>2022-12-06T05:40:28Z</time>
      </trkpt>
      <trkpt lat="36.778459" lon="-3.479905">
        <ele>337.650</ele>
        <time>2022-12-06T05:40:33Z</time>
      </trkpt>
      <trkpt lat="36.778533" lon="-3.479752">
        <ele>337.754</ele>
        <time>2022-12-06T05:40:44Z</time>
      </trkpt>
      <trkpt lat="36.778593" lon="-3.479603">
        <ele>337.695</ele>
        <time>2022-12-06T05:40:55Z</time>
      </trkpt>
      <trkpt lat="36.778604" lon="-3.479585">
        <ele>337.642</ele>
        <time>2022-12-06T05:40:57Z</time>
      </trkpt>
      <trkpt lat="36.778661" lon="-3.479555">
        <ele>338.253</ele>
        <time>2022-12-06T05:41:02Z</time>
      </trkpt>
      <trkpt lat="36.778731" lon="-3.479504">
        <ele>339.228</ele>
        <time>2022-12-06T05:41:09Z</time>
      </trkpt>
      <trkpt lat="36.778788" lon="-3.479462">
        <ele>339.789</ele>
        <time>2022-12-06T05:41:15Z</time>
      </trkpt>
      <trkpt lat="36.778804" lon="-3.479455">
        <ele>339.717</ele>
        <time>2022-12-06T05:41:18Z</time>
      </trkpt>
      <trkpt lat="36.778802" lon="-3.479483">
        <ele>339.709</ele>
        <time>2022-12-06T05:41:23Z</time>
      </trkpt>
      <trkpt lat="36.778794" lon="-3.479488">
        <ele>340.283</ele>
        <time>2022-12-06T05:41:27Z</time>
      </trkpt>
      <trkpt lat="36.778797" lon="-3.479500">
        <ele>340.374</ele>
        <time>2022-12-06T05:41:29Z</time>
      </trkpt>
      <trkpt lat="36.778802" lon="-3.479523">
        <ele>340.762</ele>
        <time>2022-12-06T05:41:51Z</time>
      </trkpt>
      <trkpt lat="36.778802" lon="-3.479540">
        <ele>341.349</ele>
        <time>2022-12-06T05:41:53Z</time>
      </trkpt>
      <trkpt lat="36.778831" lon="-3.479542">
        <ele>342.367</ele>
        <time>2022-12-06T05:41:57Z</time>
      </trkpt>
      <trkpt lat="36.778841" lon="-3.479550">
        <ele>343.051</ele>
        <time>2022-12-06T05:41:59Z</time>
      </trkpt>
      <trkpt lat="36.778821" lon="-3.479572">
        <ele>343.692</ele>
        <time>2022-12-06T05:42:01Z</time>
      </trkpt>
      <trkpt lat="36.778807" lon="-3.479586">
        <ele>344.369</ele>
        <time>2022-12-06T05:42:03Z</time>
      </trkpt>
      <trkpt lat="36.778783" lon="-3.479599">
        <ele>344.710</ele>
        <time>2022-12-06T05:42:05Z</time>
      </trkpt>
      <trkpt lat="36.778727" lon="-3.479657">
        <ele>346.061</ele>
        <time>2022-12-06T05:42:12Z</time>
      </trkpt>
      <trkpt lat="36.778709" lon="-3.479673">
        <ele>346.621</ele>
        <time>2022-12-06T05:42:14Z</time>
      </trkpt>
      <trkpt lat="36.778672" lon="-3.479690">
        <ele>347.213</ele>
        <time>2022-12-06T05:42:17Z</time>
      </trkpt>
      <trkpt lat="36.778664" lon="-3.479697">
        <ele>347.309</ele>
        <time>2022-12-06T05:42:18Z</time>
      </trkpt>
      <trkpt lat="36.778661" lon="-3.479740">
        <ele>348.077</ele>
        <time>2022-12-06T05:42:22Z</time>
      </trkpt>
      <trkpt lat="36.778673" lon="-3.479767">
        <ele>348.378</ele>
        <time>2022-12-06T05:42:24Z</time>
      </trkpt>
      <trkpt lat="36.778695" lon="-3.479931">
        <ele>349.216</ele>
        <time>2022-12-06T05:42:35Z</time>
      </trkpt>
      <trkpt lat="36.778711" lon="-3.480016">
        <ele>349.013</ele>
        <time>2022-12-06T05:42:40Z</time>
      </trkpt>
      <trkpt lat="36.778706" lon="-3.480043">
        <ele>348.791</ele>
        <time>2022-12-06T05:42:42Z</time>
      </trkpt>
      <trkpt lat="36.778730" lon="-3.480101">
        <ele>349.025</ele>
        <time>2022-12-06T05:42:46Z</time>
      </trkpt>
      <trkpt lat="36.778751" lon="-3.480155">
        <ele>349.376</ele>
        <time>2022-12-06T05:42:49Z</time>
      </trkpt>
      <trkpt lat="36.778770" lon="-3.480221">
        <ele>350.353</ele>
        <time>2022-12-06T05:42:53Z</time>
      </trkpt>
      <trkpt lat="36.778779" lon="-3.480230">
        <ele>350.634</ele>
        <time>2022-12-06T05:42:54Z</time>
      </trkpt>
      <trkpt lat="36.778790" lon="-3.480261">
        <ele>351.296</ele>
        <time>2022-12-06T05:42:56Z</time>
      </trkpt>
      <trkpt lat="36.778795" lon="-3.480301">
        <ele>351.731</ele>
        <time>2022-12-06T05:42:58Z</time>
      </trkpt>
      <trkpt lat="36.778844" lon="-3.480364">
        <ele>353.024</ele>
        <time>2022-12-06T05:43:03Z</time>
      </trkpt>
      <trkpt lat="36.778880" lon="-3.480421">
        <ele>354.009</ele>
        <time>2022-12-06T05:43:07Z</time>
      </trkpt>
      <trkpt lat="36.778890" lon="-3.480426">
        <ele>354.290</ele>
        <time>2022-12-06T05:43:08Z</time>
      </trkpt>
      <trkpt lat="36.778941" lon="-3.480450">
        <ele>355.391</ele>
        <time>2022-12-06T05:43:12Z</time>
      </trkpt>
      <trkpt lat="36.778957" lon="-3.480464">
        <ele>355.729</ele>
        <time>2022-12-06T05:43:14Z</time>
      </trkpt>
      <trkpt lat="36.778974" lon="-3.480475">
        <ele>356.316</ele>
        <time>2022-12-06T05:43:16Z</time>
      </trkpt>
      <trkpt lat="36.779005" lon="-3.480492">
        <ele>357.044</ele>
        <time>2022-12-06T05:43:19Z</time>
      </trkpt>
      <trkpt lat="36.779023" lon="-3.480500">
        <ele>357.348</ele>
        <time>2022-12-06T05:43:21Z</time>
      </trkpt>
      <trkpt lat="36.779070" lon="-3.480498">
        <ele>358.299</ele>
        <time>2022-12-06T05:43:25Z</time>
      </trkpt>
      <trkpt lat="36.779079" lon="-3.480492">
        <ele>358.326</ele>
        <time>2022-12-06T05:43:26Z</time>
      </trkpt>
      <trkpt lat="36.779126" lon="-3.480431">
        <ele>359.677</ele>
        <time>2022-12-06T05:43:31Z</time>
      </trkpt>
      <trkpt lat="36.779108" lon="-3.480351">
        <ele>360.675</ele>
        <time>2022-12-06T05:43:36Z</time>
      </trkpt>
      <trkpt lat="36.779111" lon="-3.480281">
        <ele>360.728</ele>
        <time>2022-12-06T05:43:40Z</time>
      </trkpt>
      <trkpt lat="36.779136" lon="-3.480149">
        <ele>361.620</ele>
        <time>2022-12-06T05:43:47Z</time>
      </trkpt>
      <trkpt lat="36.779197" lon="-3.479995">
        <ele>362.709</ele>
        <time>2022-12-06T05:43:57Z</time>
      </trkpt>
      <trkpt lat="36.779206" lon="-3.479985">
        <ele>363.088</ele>
        <time>2022-12-06T05:43:58Z</time>
      </trkpt>
      <trkpt lat="36.779248" lon="-3.479966">
        <ele>363.739</ele>
        <time>2022-12-06T05:44:02Z</time>
      </trkpt>
      <trkpt lat="36.779289" lon="-3.479952">
        <ele>364.757</ele>
        <time>2022-12-06T05:44:06Z</time>
      </trkpt>
      <trkpt lat="36.779312" lon="-3.479935">
        <ele>365.744</ele>
        <time>2022-12-06T05:44:09Z</time>
      </trkpt>
      <trkpt lat="36.779320" lon="-3.479933">
        <ele>366.022</ele>
        <time>2022-12-06T05:44:10Z</time>
      </trkpt>
      <trkpt lat="36.779328" lon="-3.479932">
        <ele>366.396</ele>
        <time>2022-12-06T05:44:11Z</time>
      </trkpt>
      <trkpt lat="36.779358" lon="-3.479933">
        <ele>367.227</ele>
        <time>2022-12-06T05:44:14Z</time>
      </trkpt>
      <trkpt lat="36.779368" lon="-3.479928">
        <ele>367.664</ele>
        <time>2022-12-06T05:44:15Z</time>
      </trkpt>
      <trkpt lat="36.779392" lon="-3.479919">
        <ele>368.285</ele>
        <time>2022-12-06T05:44:18Z</time>
      </trkpt>
      <trkpt lat="36.779404" lon="-3.479912">
        <ele>368.649</ele>
        <time>2022-12-06T05:44:19Z</time>
      </trkpt>
      <trkpt lat="36.779438" lon="-3.479889">
        <ele>369.302</ele>
        <time>2022-12-06T05:44:22Z</time>
      </trkpt>
      <trkpt lat="36.779473" lon="-3.479865">
        <ele>370.722</ele>
        <time>2022-12-06T05:44:26Z</time>
      </trkpt>
      <trkpt lat="36.779500" lon="-3.479819">
        <ele>371.709</ele>
        <time>2022-12-06T05:44:30Z</time>
      </trkpt>
      <trkpt lat="36.779526" lon="-3.479752">
        <ele>373.235</ele>
        <time>2022-12-06T05:44:35Z</time>
      </trkpt>
      <trkpt lat="36.779555" lon="-3.479713">
        <ele>374.276</ele>
        <time>2022-12-06T05:44:39Z</time>
      </trkpt>
      <trkpt lat="36.779617" lon="-3.479626">
        <ele>375.354</ele>
        <time>2022-12-06T05:44:46Z</time>
      </trkpt>
      <trkpt lat="36.779696" lon="-3.479572">
        <ele>376.641</ele>
        <time>2022-12-06T05:44:54Z</time>
      </trkpt>
      <trkpt lat="36.779718" lon="-3.479563">
        <ele>377.029</ele>
        <time>2022-12-06T05:44:56Z</time>
      </trkpt>
      <trkpt lat="36.779757" lon="-3.479537">
        <ele>377.613</ele>
        <time>2022-12-06T05:45:00Z</time>
      </trkpt>
      <trkpt lat="36.779854" lon="-3.479506">
        <ele>378.624</ele>
        <time>2022-12-06T05:45:07Z</time>
      </trkpt>
      <trkpt lat="36.779927" lon="-3.479485">
        <ele>379.761</ele>
        <time>2022-12-06T05:45:14Z</time>
      </trkpt>
      <trkpt lat="36.779975" lon="-3.479481">
        <ele>381.042</ele>
        <time>2022-12-06T05:45:18Z</time>
      </trkpt>
      <trkpt lat="36.780010" lon="-3.479487">
        <ele>382.055</ele>
        <time>2022-12-06T05:45:22Z</time>
      </trkpt>
      <trkpt lat="36.780038" lon="-3.479469">
        <ele>383.207</ele>
        <time>2022-12-06T05:45:26Z</time>
      </trkpt>
      <trkpt lat="36.780081" lon="-3.479434">
        <ele>384.217</ele>
        <time>2022-12-06T05:45:31Z</time>
      </trkpt>
      <trkpt lat="36.780099" lon="-3.479407">
        <ele>385.209</ele>
        <time>2022-12-06T05:45:34Z</time>
      </trkpt>
      <trkpt lat="36.780100" lon="-3.479400">
        <ele>385.696</ele>
        <time>2022-12-06T05:45:35Z</time>
      </trkpt>
      <trkpt lat="36.780115" lon="-3.479369">
        <ele>386.637</ele>
        <time>2022-12-06T05:45:38Z</time>
      </trkpt>
      <trkpt lat="36.780122" lon="-3.479359">
        <ele>386.715</ele>
        <time>2022-12-06T05:45:39Z</time>
      </trkpt>
      <trkpt lat="36.780138" lon="-3.479342">
        <ele>387.232</ele>
        <time>2022-12-06T05:45:41Z</time>
      </trkpt>
      <trkpt lat="36.780160" lon="-3.479328">
        <ele>387.610</ele>
        <time>2022-12-06T05:45:43Z</time>
      </trkpt>
      <trkpt lat="36.780215" lon="-3.479284">
        <ele>388.684</ele>
        <time>2022-12-06T05:45:48Z</time>
      </trkpt>
      <trkpt lat="36.780248" lon="-3.479251">
        <ele>389.745</ele>
        <time>2022-12-06T05:45:52Z</time>
      </trkpt>
      <trkpt lat="36.780283" lon="-3.479241">
        <ele>390.752</ele>
        <time>2022-12-06T05:45:56Z</time>
      </trkpt>
      <trkpt lat="36.780331" lon="-3.479238">
        <ele>391.753</ele>
        <time>2022-12-06T05:46:01Z</time>
      </trkpt>
      <trkpt lat="36.780347" lon="-3.479246">
        <ele>392.215</ele>
        <time>2022-12-06T05:46:03Z</time>
      </trkpt>
      <trkpt lat="36.780379" lon="-3.479251">
        <ele>392.365</ele>
        <time>2022-12-06T05:46:06Z</time>
      </trkpt>
      <trkpt lat="36.780414" lon="-3.479233">
        <ele>392.711</ele>
        <time>2022-12-06T05:46:10Z</time>
      </trkpt>
      <trkpt lat="36.780421" lon="-3.479234">
        <ele>393.009</ele>
        <time>2022-12-06T05:46:11Z</time>
      </trkpt>
      <trkpt lat="36.780443" lon="-3.479220">
        <ele>393.242</ele>
        <time>2022-12-06T05:46:14Z</time>
      </trkpt>
      <trkpt lat="36.780454" lon="-3.479225">
        <ele>393.723</ele>
        <time>2022-12-06T05:46:17Z</time>
      </trkpt>
      <trkpt lat="36.780462" lon="-3.479224">
        <ele>394.061</ele>
        <time>2022-12-06T05:46:18Z</time>
      </trkpt>
      <trkpt lat="36.780495" lon="-3.479212">
        <ele>394.298</ele>
        <time>2022-12-06T05:46:21Z</time>
      </trkpt>
      <trkpt lat="36.780508" lon="-3.479200">
        <ele>394.346</ele>
        <time>2022-12-06T05:46:23Z</time>
      </trkpt>
      <trkpt lat="36.780517" lon="-3.479183">
        <ele>394.380</ele>
        <time>2022-12-06T05:46:26Z</time>
      </trkpt>
      <trkpt lat="36.780534" lon="-3.479173">
        <ele>394.361</ele>
        <time>2022-12-06T05:46:31Z</time>
      </trkpt>
      <trkpt lat="36.780620" lon="-3.479108">
        <ele>395.028</ele>
        <time>2022-12-06T05:46:58Z</time>
      </trkpt>
      <trkpt lat="36.780655" lon="-3.479103">
        <ele>396.089</ele>
        <time>2022-12-06T05:47:02Z</time>
      </trkpt>
      <trkpt lat="36.780691" lon="-3.479102">
        <ele>396.742</ele>
        <time>2022-12-06T05:47:06Z</time>
      </trkpt>
      <trkpt lat="36.780711" lon="-3.479098">
        <ele>397.222</ele>
        <time>2022-12-06T05:47:07Z</time>
      </trkpt>
      <trkpt lat="36.780730" lon="-3.479085">
        <ele>397.614</ele>
        <time>2022-12-06T05:47:09Z</time>
      </trkpt>
      <trkpt lat="36.780747" lon="-3.479074">
        <ele>398.209</ele>
        <time>2022-12-06T05:47:11Z</time>
      </trkpt>
      <trkpt lat="36.780775" lon="-3.479053">
        <ele>399.265</ele>
        <time>2022-12-06T05:47:14Z</time>
      </trkpt>
      <trkpt lat="36.780813" lon="-3.479029">
        <ele>400.366</ele>
        <time>2022-12-06T05:47:18Z</time>
      </trkpt>
      <trkpt lat="36.780824" lon="-3.479022">
        <ele>400.744</ele>
        <time>2022-12-06T05:47:20Z</time>
      </trkpt>
      <trkpt lat="36.780835" lon="-3.479030">
        <ele>401.331</ele>
        <time>2022-12-06T05:47:22Z</time>
      </trkpt>
      <trkpt lat="36.780838" lon="-3.479033">
        <ele>401.699</ele>
        <time>2022-12-06T05:47:23Z</time>
      </trkpt>
      <trkpt lat="36.780851" lon="-3.479048">
        <ele>402.673</ele>
        <time>2022-12-06T05:47:28Z</time>
      </trkpt>
      <trkpt lat="36.780826" lon="-3.479062">
        <ele>403.034</ele>
        <time>2022-12-06T05:48:17Z</time>
      </trkpt>
      <trkpt lat="36.780868" lon="-3.479156">
        <ele>402.631</ele>
        <time>2022-12-06T05:48:25Z</time>
      </trkpt>
      <trkpt lat="36.780921" lon="-3.479261">
        <ele>402.342</ele>
        <time>2022-12-06T05:48:34Z</time>
      </trkpt>
      <trkpt lat="36.780986" lon="-3.479296">
        <ele>402.793</ele>
        <time>2022-12-06T05:48:41Z</time>
      </trkpt>
      <trkpt lat="36.781034" lon="-3.479302">
        <ele>402.765</ele>
        <time>2022-12-06T05:48:44Z</time>
      </trkpt>
      <trkpt lat="36.781060" lon="-3.479318">
        <ele>402.721</ele>
        <time>2022-12-06T05:48:47Z</time>
      </trkpt>
      <trkpt lat="36.781137" lon="-3.479347">
        <ele>403.009</ele>
        <time>2022-12-06T05:48:54Z</time>
      </trkpt>
      <trkpt lat="36.781185" lon="-3.479381">
        <ele>403.050</ele>
        <time>2022-12-06T05:48:57Z</time>
      </trkpt>
      <trkpt lat="36.781257" lon="-3.479450">
        <ele>403.341</ele>
        <time>2022-12-06T05:49:02Z</time>
      </trkpt>
      <trkpt lat="36.781272" lon="-3.479540">
        <ele>403.739</ele>
        <time>2022-12-06T05:49:07Z</time>
      </trkpt>
      <trkpt lat="36.781265" lon="-3.479556">
        <ele>404.256</ele>
        <time>2022-12-06T05:49:08Z</time>
      </trkpt>
      <trkpt lat="36.781264" lon="-3.479611">
        <ele>405.244</ele>
        <time>2022-12-06T05:49:11Z</time>
      </trkpt>
      <trkpt lat="36.781278" lon="-3.479692">
        <ele>406.238</ele>
        <time>2022-12-06T05:49:16Z</time>
      </trkpt>
      <trkpt lat="36.781273" lon="-3.479705">
        <ele>406.249</ele>
        <time>2022-12-06T05:49:17Z</time>
      </trkpt>
      <trkpt lat="36.781253" lon="-3.479942">
        <ele>406.236</ele>
        <time>2022-12-06T05:49:30Z</time>
      </trkpt>
      <trkpt lat="36.781224" lon="-3.480171">
        <ele>405.097</ele>
        <time>2022-12-06T05:49:44Z</time>
      </trkpt>
      <trkpt lat="36.781227" lon="-3.480186">
        <ele>404.715</ele>
        <time>2022-12-06T05:49:45Z</time>
      </trkpt>
      <trkpt lat="36.781254" lon="-3.480300">
        <ele>404.665</ele>
        <time>2022-12-06T05:49:51Z</time>
      </trkpt>
      <trkpt lat="36.781269" lon="-3.480387">
        <ele>405.611</ele>
        <time>2022-12-06T05:49:57Z</time>
      </trkpt>
      <trkpt lat="36.781281" lon="-3.480417">
        <ele>406.009</ele>
        <time>2022-12-06T05:49:59Z</time>
      </trkpt>
      <trkpt lat="36.781298" lon="-3.480447">
        <ele>406.382</ele>
        <time>2022-12-06T05:50:02Z</time>
      </trkpt>
      <trkpt lat="36.781322" lon="-3.480474">
        <ele>407.283</ele>
        <time>2022-12-06T05:50:06Z</time>
      </trkpt>
      <trkpt lat="36.781334" lon="-3.480518">
        <ele>407.771</ele>
        <time>2022-12-06T05:50:09Z</time>
      </trkpt>
      <trkpt lat="36.781362" lon="-3.480658">
        <ele>407.678</ele>
        <time>2022-12-06T05:50:19Z</time>
      </trkpt>
      <trkpt lat="36.781402" lon="-3.480696">
        <ele>407.776</ele>
        <time>2022-12-06T05:50:24Z</time>
      </trkpt>
      <trkpt lat="36.781526" lon="-3.480820">
        <ele>408.270</ele>
        <time>2022-12-06T05:50:36Z</time>
      </trkpt>
      <trkpt lat="36.781553" lon="-3.480830">
        <ele>408.771</ele>
        <time>2022-12-06T05:50:38Z</time>
      </trkpt>
      <trkpt lat="36.781587" lon="-3.480871">
        <ele>409.368</ele>
        <time>2022-12-06T05:50:42Z</time>
      </trkpt>
      <trkpt lat="36.781674" lon="-3.480940">
        <ele>410.059</ele>
        <time>2022-12-06T05:50:50Z</time>
      </trkpt>
      <trkpt lat="36.781701" lon="-3.480964">
        <ele>410.239</ele>
        <time>2022-12-06T05:50:52Z</time>
      </trkpt>
      <trkpt lat="36.781723" lon="-3.480982">
        <ele>410.601</ele>
        <time>2022-12-06T05:50:54Z</time>
      </trkpt>
      <trkpt lat="36.781827" lon="-3.481124">
        <ele>411.621</ele>
        <time>2022-12-06T05:51:04Z</time>
      </trkpt>
      <trkpt lat="36.781893" lon="-3.481237">
        <ele>411.709</ele>
        <time>2022-12-06T05:51:12Z</time>
      </trkpt>
      <trkpt lat="36.781945" lon="-3.481264">
        <ele>410.624</ele>
        <time>2022-12-06T05:51:16Z</time>
      </trkpt>
      <trkpt lat="36.782035" lon="-3.481293">
        <ele>409.215</ele>
        <time>2022-12-06T05:51:20Z</time>
      </trkpt>
      <trkpt lat="36.782117" lon="-3.481315">
        <ele>408.023</ele>
        <time>2022-12-06T05:51:23Z</time>
      </trkpt>
      <trkpt lat="36.782165" lon="-3.481364">
        <ele>406.720</ele>
        <time>2022-12-06T05:51:27Z</time>
      </trkpt>
      <trkpt lat="36.782207" lon="-3.481420">
        <ele>405.298</ele>
        <time>2022-12-06T05:51:30Z</time>
      </trkpt>
      <trkpt lat="36.782223" lon="-3.481431">
        <ele>404.792</ele>
        <time>2022-12-06T05:51:31Z</time>
      </trkpt>
      <trkpt lat="36.782259" lon="-3.481471">
        <ele>404.023</ele>
        <time>2022-12-06T05:51:33Z</time>
      </trkpt>
      <trkpt lat="36.782284" lon="-3.481532">
        <ele>403.220</ele>
        <time>2022-12-06T05:51:35Z</time>
      </trkpt>
      <trkpt lat="36.782284" lon="-3.481554">
        <ele>402.791</ele>
        <time>2022-12-06T05:51:36Z</time>
      </trkpt>
      <trkpt lat="36.782240" lon="-3.481769">
        <ele>401.314</ele>
        <time>2022-12-06T05:51:45Z</time>
      </trkpt>
      <trkpt lat="36.782199" lon="-3.481811">
        <ele>400.354</ele>
        <time>2022-12-06T05:51:48Z</time>
      </trkpt>
      <trkpt lat="36.782159" lon="-3.481858">
        <ele>399.009</ele>
        <time>2022-12-06T05:51:51Z</time>
      </trkpt>
      <trkpt lat="36.782153" lon="-3.481879">
        <ele>398.309</ele>
        <time>2022-12-06T05:51:52Z</time>
      </trkpt>
      <trkpt lat="36.782151" lon="-3.481921">
        <ele>397.742</ele>
        <time>2022-12-06T05:51:54Z</time>
      </trkpt>
      <trkpt lat="36.782167" lon="-3.481973">
        <ele>396.343</ele>
        <time>2022-12-06T05:51:57Z</time>
      </trkpt>
      <trkpt lat="36.782169" lon="-3.481992">
        <ele>395.651</ele>
        <time>2022-12-06T05:51:58Z</time>
      </trkpt>
      <trkpt lat="36.782166" lon="-3.482016">
        <ele>395.068</ele>
        <time>2022-12-06T05:51:59Z</time>
      </trkpt>
      <trkpt lat="36.782169" lon="-3.482107">
        <ele>393.716</ele>
        <time>2022-12-06T05:52:02Z</time>
      </trkpt>
      <trkpt lat="36.782152" lon="-3.482205">
        <ele>392.640</ele>
        <time>2022-12-06T05:52:06Z</time>
      </trkpt>
      <trkpt lat="36.782130" lon="-3.482325">
        <ele>391.691</ele>
        <time>2022-12-06T05:52:10Z</time>
      </trkpt>
      <trkpt lat="36.782158" lon="-3.482412">
        <ele>390.688</ele>
        <time>2022-12-06T05:52:14Z</time>
      </trkpt>
      <trkpt lat="36.782160" lon="-3.482433">
        <ele>390.379</ele>
        <time>2022-12-06T05:52:15Z</time>
      </trkpt>
      <trkpt lat="36.782158" lon="-3.482469">
        <ele>390.036</ele>
        <time>2022-12-06T05:52:17Z</time>
      </trkpt>
      <trkpt lat="36.782139" lon="-3.482511">
        <ele>389.217</ele>
        <time>2022-12-06T05:52:19Z</time>
      </trkpt>
      <trkpt lat="36.782057" lon="-3.482598">
        <ele>387.718</ele>
        <time>2022-12-06T05:52:24Z</time>
      </trkpt>
      <trkpt lat="36.781970" lon="-3.482661">
        <ele>386.709</ele>
        <time>2022-12-06T05:52:28Z</time>
      </trkpt>
      <trkpt lat="36.781957" lon="-3.482676">
        <ele>386.734</ele>
        <time>2022-12-06T05:52:29Z</time>
      </trkpt>
      <trkpt lat="36.781864" lon="-3.482849">
        <ele>385.695</ele>
        <time>2022-12-06T05:52:36Z</time>
      </trkpt>
      <trkpt lat="36.781798" lon="-3.482959">
        <ele>385.293</ele>
        <time>2022-12-06T05:52:40Z</time>
      </trkpt>
      <trkpt lat="36.781693" lon="-3.483160">
        <ele>384.730</ele>
        <time>2022-12-06T05:52:47Z</time>
      </trkpt>
      <trkpt lat="36.781669" lon="-3.483238">
        <ele>384.618</ele>
        <time>2022-12-06T05:52:50Z</time>
      </trkpt>
      <trkpt lat="36.781738" lon="-3.483450">
        <ele>384.032</ele>
        <time>2022-12-06T05:52:57Z</time>
      </trkpt>
      <trkpt lat="36.781794" lon="-3.483666">
        <ele>383.753</ele>
        <time>2022-12-06T05:53:06Z</time>
      </trkpt>
      <trkpt lat="36.781832" lon="-3.483815">
        <ele>383.610</ele>
        <time>2022-12-06T05:53:12Z</time>
      </trkpt>
      <trkpt lat="36.781847" lon="-3.483836">
        <ele>383.371</ele>
        <time>2022-12-06T05:53:13Z</time>
      </trkpt>
      <trkpt lat="36.781885" lon="-3.484016">
        <ele>383.656</ele>
        <time>2022-12-06T05:53:19Z</time>
      </trkpt>
      <trkpt lat="36.781739" lon="-3.484185">
        <ele>382.359</ele>
        <time>2022-12-06T05:53:28Z</time>
      </trkpt>
      <trkpt lat="36.781716" lon="-3.484197">
        <ele>382.314</ele>
        <time>2022-12-06T05:53:29Z</time>
      </trkpt>
      <trkpt lat="36.781607" lon="-3.484280">
        <ele>381.309</ele>
        <time>2022-12-06T05:53:33Z</time>
      </trkpt>
      <trkpt lat="36.781444" lon="-3.484416">
        <ele>380.636</ele>
        <time>2022-12-06T05:53:40Z</time>
      </trkpt>
      <trkpt lat="36.781402" lon="-3.484496">
        <ele>380.387</ele>
        <time>2022-12-06T05:53:43Z</time>
      </trkpt>
      <trkpt lat="36.781340" lon="-3.484718">
        <ele>379.665</ele>
        <time>2022-12-06T05:53:50Z</time>
      </trkpt>
      <trkpt lat="36.781325" lon="-3.484757">
        <ele>379.312</ele>
        <time>2022-12-06T05:53:52Z</time>
      </trkpt>
      <trkpt lat="36.781271" lon="-3.484821">
        <ele>379.280</ele>
        <time>2022-12-06T05:53:56Z</time>
      </trkpt>
      <trkpt lat="36.781191" lon="-3.484980">
        <ele>378.224</ele>
        <time>2022-12-06T05:54:03Z</time>
      </trkpt>
      <trkpt lat="36.781024" lon="-3.485072">
        <ele>377.215</ele>
        <time>2022-12-06T05:54:12Z</time>
      </trkpt>
      <trkpt lat="36.780981" lon="-3.485095">
        <ele>376.292</ele>
        <time>2022-12-06T05:54:14Z</time>
      </trkpt>
      <trkpt lat="36.780933" lon="-3.485118">
        <ele>375.033</ele>
        <time>2022-12-06T05:54:17Z</time>
      </trkpt>
      <trkpt lat="36.780873" lon="-3.485157">
        <ele>373.711</ele>
        <time>2022-12-06T05:54:20Z</time>
      </trkpt>
      <trkpt lat="36.780821" lon="-3.485240">
        <ele>372.721</ele>
        <time>2022-12-06T05:54:23Z</time>
      </trkpt>
      <trkpt lat="36.780780" lon="-3.485372">
        <ele>371.703</ele>
        <time>2022-12-06T05:54:27Z</time>
      </trkpt>
      <trkpt lat="36.780758" lon="-3.485453">
        <ele>371.709</ele>
        <time>2022-12-06T05:54:30Z</time>
      </trkpt>
      <trkpt lat="36.780705" lon="-3.485679">
        <ele>372.322</ele>
        <time>2022-12-06T05:54:39Z</time>
      </trkpt>
      <trkpt lat="36.780704" lon="-3.485703">
        <ele>372.253</ele>
        <time>2022-12-06T05:54:40Z</time>
      </trkpt>
      <trkpt lat="36.780765" lon="-3.485781">
        <ele>373.051</ele>
        <time>2022-12-06T05:54:45Z</time>
      </trkpt>
      <trkpt lat="36.780937" lon="-3.485894">
        <ele>373.078</ele>
        <time>2022-12-06T05:54:54Z</time>
      </trkpt>
      <trkpt lat="36.781121" lon="-3.485937">
        <ele>372.666</ele>
        <time>2022-12-06T05:55:03Z</time>
      </trkpt>
      <trkpt lat="36.781305" lon="-3.485894">
        <ele>373.240</ele>
        <time>2022-12-06T05:55:10Z</time>
      </trkpt>
      <trkpt lat="36.781503" lon="-3.485860">
        <ele>373.621</ele>
        <time>2022-12-06T05:55:19Z</time>
      </trkpt>
      <trkpt lat="36.781554" lon="-3.485847">
        <ele>374.098</ele>
        <time>2022-12-06T05:55:22Z</time>
      </trkpt>
      <trkpt lat="36.781666" lon="-3.485897">
        <ele>374.029</ele>
        <time>2022-12-06T05:55:29Z</time>
      </trkpt>
      <trkpt lat="36.781789" lon="-3.486055">
        <ele>375.248</ele>
        <time>2022-12-06T05:55:38Z</time>
      </trkpt>
      <trkpt lat="36.781819" lon="-3.486129">
        <ele>376.261</ele>
        <time>2022-12-06T05:55:42Z</time>
      </trkpt>
      <trkpt lat="36.781840" lon="-3.486169">
        <ele>376.617</ele>
        <time>2022-12-06T05:55:44Z</time>
      </trkpt>
      <trkpt lat="36.781989" lon="-3.486329">
        <ele>377.209</ele>
        <time>2022-12-06T05:55:53Z</time>
      </trkpt>
      <trkpt lat="36.782147" lon="-3.486439">
        <ele>377.055</ele>
        <time>2022-12-06T05:56:01Z</time>
      </trkpt>
      <trkpt lat="36.782213" lon="-3.486458">
        <ele>377.386</ele>
        <time>2022-12-06T05:56:04Z</time>
      </trkpt>
      <trkpt lat="36.782284" lon="-3.486453">
        <ele>378.294</ele>
        <time>2022-12-06T05:56:08Z</time>
      </trkpt>
      <trkpt lat="36.782294" lon="-3.486463">
        <ele>378.311</ele>
        <time>2022-12-06T05:56:09Z</time>
      </trkpt>
      <trkpt lat="36.782446" lon="-3.486598">
        <ele>377.369</ele>
        <time>2022-12-06T05:56:17Z</time>
      </trkpt>
      <trkpt lat="36.782525" lon="-3.486644">
        <ele>377.223</ele>
        <time>2022-12-06T05:56:21Z</time>
      </trkpt>
      <trkpt lat="36.782712" lon="-3.486693">
        <ele>378.294</ele>
        <time>2022-12-06T05:56:30Z</time>
      </trkpt>
      <trkpt lat="36.782728" lon="-3.486689">
        <ele>378.211</ele>
        <time>2022-12-06T05:56:31Z</time>
      </trkpt>
      <trkpt lat="36.782786" lon="-3.486705">
        <ele>378.362</ele>
        <time>2022-12-06T05:56:35Z</time>
      </trkpt>
      <trkpt lat="36.782876" lon="-3.486920">
        <ele>377.642</ele>
        <time>2022-12-06T05:56:44Z</time>
      </trkpt>
      <trkpt lat="36.782990" lon="-3.487109">
        <ele>378.022</ele>
        <time>2022-12-06T05:56:54Z</time>
      </trkpt>
      <trkpt lat="36.783013" lon="-3.487124">
        <ele>378.014</ele>
        <time>2022-12-06T05:56:56Z</time>
      </trkpt>
      <trkpt lat="36.782985" lon="-3.487258">
        <ele>378.609</ele>
        <time>2022-12-06T05:57:02Z</time>
      </trkpt>
      <trkpt lat="36.782980" lon="-3.487324">
        <ele>379.755</ele>
        <time>2022-12-06T05:57:05Z</time>
      </trkpt>
      <trkpt lat="36.783033" lon="-3.487541">
        <ele>379.766</ele>
        <time>2022-12-06T05:57:15Z</time>
      </trkpt>
      <trkpt lat="36.783030" lon="-3.487575">
        <ele>379.284</ele>
        <time>2022-12-06T05:57:17Z</time>
      </trkpt>
      <trkpt lat="36.783014" lon="-3.487595">
        <ele>378.361</ele>
        <time>2022-12-06T05:57:19Z</time>
      </trkpt>
      <trkpt lat="36.783001" lon="-3.487600">
        <ele>378.279</ele>
        <time>2022-12-06T05:57:20Z</time>
      </trkpt>
      <trkpt lat="36.782926" lon="-3.487632">
        <ele>377.383</ele>
        <time>2022-12-06T05:57:25Z</time>
      </trkpt>
      <trkpt lat="36.782833" lon="-3.487742">
        <ele>376.294</ele>
        <time>2022-12-06T05:57:31Z</time>
      </trkpt>
      <trkpt lat="36.782681" lon="-3.487871">
        <ele>376.041</ele>
        <time>2022-12-06T05:57:41Z</time>
      </trkpt>
      <trkpt lat="36.782542" lon="-3.488054">
        <ele>375.622</ele>
        <time>2022-12-06T05:57:50Z</time>
      </trkpt>
      <trkpt lat="36.782505" lon="-3.488252">
        <ele>376.262</ele>
        <time>2022-12-06T05:57:57Z</time>
      </trkpt>
      <trkpt lat="36.782518" lon="-3.488338">
        <ele>377.383</ele>
        <time>2022-12-06T05:58:02Z</time>
      </trkpt>
      <trkpt lat="36.782428" lon="-3.488527">
        <ele>377.011</ele>
        <time>2022-12-06T05:58:10Z</time>
      </trkpt>
      <trkpt lat="36.782362" lon="-3.488738">
        <ele>377.209</ele>
        <time>2022-12-06T05:58:18Z</time>
      </trkpt>
      <trkpt lat="36.782351" lon="-3.488967">
        <ele>376.787</ele>
        <time>2022-12-06T05:58:25Z</time>
      </trkpt>
      <trkpt lat="36.782344" lon="-3.489012">
        <ele>376.258</ele>
        <time>2022-12-06T05:58:27Z</time>
      </trkpt>
      <trkpt lat="36.782325" lon="-3.489115">
        <ele>375.076</ele>
        <time>2022-12-06T05:58:31Z</time>
      </trkpt>
      <trkpt lat="36.782298" lon="-3.489219">
        <ele>373.683</ele>
        <time>2022-12-06T05:58:35Z</time>
      </trkpt>
      <trkpt lat="36.782285" lon="-3.489268">
        <ele>372.391</ele>
        <time>2022-12-06T05:58:37Z</time>
      </trkpt>
      <trkpt lat="36.782254" lon="-3.489383">
        <ele>371.345</ele>
        <time>2022-12-06T05:58:41Z</time>
      </trkpt>
      <trkpt lat="36.782250" lon="-3.489509">
        <ele>370.746</ele>
        <time>2022-12-06T05:58:46Z</time>
      </trkpt>
      <trkpt lat="36.782221" lon="-3.489593">
        <ele>370.263</ele>
        <time>2022-12-06T05:58:50Z</time>
      </trkpt>
      <trkpt lat="36.782063" lon="-3.489701">
        <ele>369.674</ele>
        <time>2022-12-06T05:58:59Z</time>
      </trkpt>
      <trkpt lat="36.781984" lon="-3.489886">
        <ele>369.297</ele>
        <time>2022-12-06T05:59:07Z</time>
      </trkpt>
      <trkpt lat="36.781903" lon="-3.490088">
        <ele>368.223</ele>
        <time>2022-12-06T05:59:14Z</time>
      </trkpt>
      <trkpt lat="36.781772" lon="-3.490185">
        <ele>370.225</ele>
        <time>2022-12-06T05:59:23Z</time>
      </trkpt>
      <trkpt lat="36.781656" lon="-3.490292">
        <ele>371.309</ele>
        <time>2022-12-06T05:59:30Z</time>
      </trkpt>
      <trkpt lat="36.781633" lon="-3.490386">
        <ele>371.630</ele>
        <time>2022-12-06T05:59:34Z</time>
      </trkpt>
      <trkpt lat="36.781597" lon="-3.490458">
        <ele>372.261</ele>
        <time>2022-12-06T05:59:38Z</time>
      </trkpt>
      <trkpt lat="36.781582" lon="-3.490486">
        <ele>372.339</ele>
        <time>2022-12-06T05:59:40Z</time>
      </trkpt>
      <trkpt lat="36.781561" lon="-3.490509">
        <ele>373.056</ele>
        <time>2022-12-06T05:59:42Z</time>
      </trkpt>
      <trkpt lat="36.781549" lon="-3.490539">
        <ele>373.374</ele>
        <time>2022-12-06T05:59:44Z</time>
      </trkpt>
      <trkpt lat="36.781514" lon="-3.490574">
        <ele>373.768</ele>
        <time>2022-12-06T05:59:47Z</time>
      </trkpt>
      <trkpt lat="36.781327" lon="-3.490607">
        <ele>374.269</ele>
        <time>2022-12-06T05:59:54Z</time>
      </trkpt>
      <trkpt lat="36.781129" lon="-3.490635">
        <ele>374.016</ele>
        <time>2022-12-06T06:00:03Z</time>
      </trkpt>
      <trkpt lat="36.781023" lon="-3.490671">
        <ele>372.217</ele>
        <time>2022-12-06T06:00:08Z</time>
      </trkpt>
      <trkpt lat="36.780991" lon="-3.490696">
        <ele>371.241</ele>
        <time>2022-12-06T06:00:10Z</time>
      </trkpt>
      <trkpt lat="36.780895" lon="-3.490750">
        <ele>370.681</ele>
        <time>2022-12-06T06:00:15Z</time>
      </trkpt>
      <trkpt lat="36.780857" lon="-3.490822">
        <ele>370.009</ele>
        <time>2022-12-06T06:00:18Z</time>
      </trkpt>
      <trkpt lat="36.780826" lon="-3.491049">
        <ele>369.309</ele>
        <time>2022-12-06T06:00:26Z</time>
      </trkpt>
      <trkpt lat="36.780845" lon="-3.491141">
        <ele>369.225</ele>
        <time>2022-12-06T06:00:29Z</time>
      </trkpt>
      <trkpt lat="36.780883" lon="-3.491261">
        <ele>369.096</ele>
        <time>2022-12-06T06:00:34Z</time>
      </trkpt>
      <trkpt lat="36.780872" lon="-3.491355">
        <ele>369.094</ele>
        <time>2022-12-06T06:00:37Z</time>
      </trkpt>
      <trkpt lat="36.780804" lon="-3.491563">
        <ele>369.061</ele>
        <time>2022-12-06T06:00:45Z</time>
      </trkpt>
      <trkpt lat="36.780777" lon="-3.491664">
        <ele>367.789</ele>
        <time>2022-12-06T06:00:50Z</time>
      </trkpt>
      <trkpt lat="36.780765" lon="-3.491681">
        <ele>367.333</ele>
        <time>2022-12-06T06:00:51Z</time>
      </trkpt>
      <trkpt lat="36.780749" lon="-3.491699">
        <ele>366.724</ele>
        <time>2022-12-06T06:00:52Z</time>
      </trkpt>
      <trkpt lat="36.780695" lon="-3.491788">
        <ele>365.751</ele>
        <time>2022-12-06T06:00:56Z</time>
      </trkpt>
      <trkpt lat="36.780650" lon="-3.491908">
        <ele>364.642</ele>
        <time>2022-12-06T06:01:00Z</time>
      </trkpt>
      <trkpt lat="36.780564" lon="-3.492123">
        <ele>364.675</ele>
        <time>2022-12-06T06:01:08Z</time>
      </trkpt>
      <trkpt lat="36.780526" lon="-3.492353">
        <ele>365.328</ele>
        <time>2022-12-06T06:01:17Z</time>
      </trkpt>
      <trkpt lat="36.780528" lon="-3.492373">
        <ele>365.620</ele>
        <time>2022-12-06T06:01:18Z</time>
      </trkpt>
      <trkpt lat="36.780613" lon="-3.492501">
        <ele>364.609</ele>
        <time>2022-12-06T06:01:25Z</time>
      </trkpt>
      <trkpt lat="36.780640" lon="-3.492541">
        <ele>363.338</ele>
        <time>2022-12-06T06:01:28Z</time>
      </trkpt>
      <trkpt lat="36.780637" lon="-3.492602">
        <ele>363.249</ele>
        <time>2022-12-06T06:01:31Z</time>
      </trkpt>
      <trkpt lat="36.780616" lon="-3.492747">
        <ele>364.697</ele>
        <time>2022-12-06T06:01:37Z</time>
      </trkpt>
      <trkpt lat="36.780594" lon="-3.492842">
        <ele>365.664</ele>
        <time>2022-12-06T06:01:41Z</time>
      </trkpt>
      <trkpt lat="36.780522" lon="-3.493068">
        <ele>366.092</ele>
        <time>2022-12-06T06:01:50Z</time>
      </trkpt>
      <trkpt lat="36.780450" lon="-3.493174">
        <ele>364.666</ele>
        <time>2022-12-06T06:01:55Z</time>
      </trkpt>
      <trkpt lat="36.780402" lon="-3.493230">
        <ele>363.637</ele>
        <time>2022-12-06T06:01:58Z</time>
      </trkpt>
      <trkpt lat="36.780363" lon="-3.493312">
        <ele>362.364</ele>
        <time>2022-12-06T06:02:02Z</time>
      </trkpt>
      <trkpt lat="36.780363" lon="-3.493391">
        <ele>361.285</ele>
        <time>2022-12-06T06:02:05Z</time>
      </trkpt>
      <trkpt lat="36.780379" lon="-3.493453">
        <ele>360.041</ele>
        <time>2022-12-06T06:02:08Z</time>
      </trkpt>
      <trkpt lat="36.780398" lon="-3.493518">
        <ele>358.381</ele>
        <time>2022-12-06T06:02:11Z</time>
      </trkpt>
      <trkpt lat="36.780403" lon="-3.493573">
        <ele>357.709</ele>
        <time>2022-12-06T06:02:13Z</time>
      </trkpt>
      <trkpt lat="36.780333" lon="-3.493778">
        <ele>358.209</ele>
        <time>2022-12-06T06:02:21Z</time>
      </trkpt>
      <trkpt lat="36.780364" lon="-3.494003">
        <ele>358.315</ele>
        <time>2022-12-06T06:02:29Z</time>
      </trkpt>
      <trkpt lat="36.780449" lon="-3.494098">
        <ele>359.646</ele>
        <time>2022-12-06T06:02:35Z</time>
      </trkpt>
      <trkpt lat="36.780467" lon="-3.494139">
        <ele>360.724</ele>
        <time>2022-12-06T06:02:38Z</time>
      </trkpt>
      <trkpt lat="36.780513" lon="-3.494291">
        <ele>361.791</ele>
        <time>2022-12-06T06:02:46Z</time>
      </trkpt>
      <trkpt lat="36.780540" lon="-3.494417">
        <ele>362.719</ele>
        <time>2022-12-06T06:02:51Z</time>
      </trkpt>
      <trkpt lat="36.780540" lon="-3.494438">
        <ele>363.223</ele>
        <time>2022-12-06T06:02:52Z</time>
      </trkpt>
      <trkpt lat="36.780473" lon="-3.494521">
        <ele>364.074</ele>
        <time>2022-12-06T06:02:58Z</time>
      </trkpt>
      <trkpt lat="36.780426" lon="-3.494575">
        <ele>365.031</ele>
        <time>2022-12-06T06:03:02Z</time>
      </trkpt>
      <trkpt lat="36.780290" lon="-3.494758">
        <ele>365.762</ele>
        <time>2022-12-06T06:03:11Z</time>
      </trkpt>
      <trkpt lat="36.780222" lon="-3.494885">
        <ele>366.248</ele>
        <time>2022-12-06T06:03:17Z</time>
      </trkpt>
      <trkpt lat="36.780188" lon="-3.495002">
        <ele>366.661</ele>
        <time>2022-12-06T06:03:23Z</time>
      </trkpt>
      <trkpt lat="36.780166" lon="-3.495028">
        <ele>366.317</ele>
        <time>2022-12-06T06:03:25Z</time>
      </trkpt>
      <trkpt lat="36.780089" lon="-3.495029">
        <ele>365.209</ele>
        <time>2022-12-06T06:03:29Z</time>
      </trkpt>
      <trkpt lat="36.780011" lon="-3.495029">
        <ele>364.235</ele>
        <time>2022-12-06T06:03:33Z</time>
      </trkpt>
      <trkpt lat="36.779980" lon="-3.495039">
        <ele>362.666</ele>
        <time>2022-12-06T06:03:35Z</time>
      </trkpt>
      <trkpt lat="36.779955" lon="-3.495049">
        <ele>361.344</ele>
        <time>2022-12-06T06:03:37Z</time>
      </trkpt>
      <trkpt lat="36.779909" lon="-3.495096">
        <ele>360.241</ele>
        <time>2022-12-06T06:03:40Z</time>
      </trkpt>
      <trkpt lat="36.779876" lon="-3.495193">
        <ele>358.749</ele>
        <time>2022-12-06T06:03:44Z</time>
      </trkpt>
      <trkpt lat="36.779864" lon="-3.495209">
        <ele>358.323</ele>
        <time>2022-12-06T06:03:45Z</time>
      </trkpt>
      <trkpt lat="36.779826" lon="-3.495272">
        <ele>357.694</ele>
        <time>2022-12-06T06:03:48Z</time>
      </trkpt>
      <trkpt lat="36.779803" lon="-3.495324">
        <ele>356.671</ele>
        <time>2022-12-06T06:03:51Z</time>
      </trkpt>
      <trkpt lat="36.779785" lon="-3.495331">
        <ele>356.052</ele>
        <time>2022-12-06T06:03:52Z</time>
      </trkpt>
      <trkpt lat="36.779738" lon="-3.495350">
        <ele>354.713</ele>
        <time>2022-12-06T06:03:54Z</time>
      </trkpt>
      <trkpt lat="36.779691" lon="-3.495375">
        <ele>353.743</ele>
        <time>2022-12-06T06:03:57Z</time>
      </trkpt>
      <trkpt lat="36.779622" lon="-3.495392">
        <ele>352.607</ele>
        <time>2022-12-06T06:04:01Z</time>
      </trkpt>
      <trkpt lat="36.779544" lon="-3.495418">
        <ele>351.209</ele>
        <time>2022-12-06T06:04:05Z</time>
      </trkpt>
      <trkpt lat="36.779477" lon="-3.495451">
        <ele>350.032</ele>
        <time>2022-12-06T06:04:08Z</time>
      </trkpt>
      <trkpt lat="36.779407" lon="-3.495471">
        <ele>348.613</ele>
        <time>2022-12-06T06:04:11Z</time>
      </trkpt>
      <trkpt lat="36.779347" lon="-3.495479">
        <ele>347.631</ele>
        <time>2022-12-06T06:04:14Z</time>
      </trkpt>
      <trkpt lat="36.779273" lon="-3.495500">
        <ele>346.318</ele>
        <time>2022-12-06T06:04:18Z</time>
      </trkpt>
      <trkpt lat="36.779105" lon="-3.495585">
        <ele>346.316</ele>
        <time>2022-12-06T06:04:27Z</time>
      </trkpt>
      <trkpt lat="36.778945" lon="-3.495681">
        <ele>347.290</ele>
        <time>2022-12-06T06:04:37Z</time>
      </trkpt>
      <trkpt lat="36.778759" lon="-3.495683">
        <ele>347.061</ele>
        <time>2022-12-06T06:04:46Z</time>
      </trkpt>
      <trkpt lat="36.778562" lon="-3.495691">
        <ele>346.278</ele>
        <time>2022-12-06T06:04:54Z</time>
      </trkpt>
      <trkpt lat="36.778455" lon="-3.495731">
        <ele>345.389</ele>
        <time>2022-12-06T06:04:58Z</time>
      </trkpt>
      <trkpt lat="36.778339" lon="-3.495918">
        <ele>344.288</ele>
        <time>2022-12-06T06:05:06Z</time>
      </trkpt>
      <trkpt lat="36.778312" lon="-3.495966">
        <ele>343.724</ele>
        <time>2022-12-06T06:05:08Z</time>
      </trkpt>
      <trkpt lat="36.778200" lon="-3.496021">
        <ele>343.026</ele>
        <time>2022-12-06T06:05:13Z</time>
      </trkpt>
      <trkpt lat="36.778010" lon="-3.495988">
        <ele>341.709</ele>
        <time>2022-12-06T06:05:21Z</time>
      </trkpt>
      <trkpt lat="36.777899" lon="-3.496085">
        <ele>340.749</ele>
        <time>2022-12-06T06:05:27Z</time>
      </trkpt>
      <trkpt lat="36.777853" lon="-3.496211">
        <ele>340.080</ele>
        <time>2022-12-06T06:05:32Z</time>
      </trkpt>
      <trkpt lat="36.777915" lon="-3.496440">
        <ele>340.338</ele>
        <time>2022-12-06T06:05:44Z</time>
      </trkpt>
      <trkpt lat="36.778009" lon="-3.496635">
        <ele>341.775</ele>
        <time>2022-12-06T06:05:56Z</time>
      </trkpt>
      <trkpt lat="36.778088" lon="-3.496746">
        <ele>343.053</ele>
        <time>2022-12-06T06:06:05Z</time>
      </trkpt>
      <trkpt lat="36.778143" lon="-3.496824">
        <ele>344.097</ele>
        <time>2022-12-06T06:06:11Z</time>
      </trkpt>
      <trkpt lat="36.778149" lon="-3.496838">
        <ele>344.298</ele>
        <time>2022-12-06T06:06:12Z</time>
      </trkpt>
      <trkpt lat="36.778172" lon="-3.496884">
        <ele>344.635</ele>
        <time>2022-12-06T06:06:15Z</time>
      </trkpt>
      <trkpt lat="36.778182" lon="-3.496914">
        <ele>345.046</ele>
        <time>2022-12-06T06:06:17Z</time>
      </trkpt>
      <trkpt lat="36.778184" lon="-3.496930">
        <ele>345.272</ele>
        <time>2022-12-06T06:06:18Z</time>
      </trkpt>
      <trkpt lat="36.778220" lon="-3.497034">
        <ele>346.213</ele>
        <time>2022-12-06T06:06:25Z</time>
      </trkpt>
      <trkpt lat="36.778241" lon="-3.497206">
        <ele>347.214</ele>
        <time>2022-12-06T06:06:34Z</time>
      </trkpt>
      <trkpt lat="36.778325" lon="-3.497357">
        <ele>348.309</ele>
        <time>2022-12-06T06:06:43Z</time>
      </trkpt>
      <trkpt lat="36.778428" lon="-3.497430">
        <ele>349.338</ele>
        <time>2022-12-06T06:06:51Z</time>
      </trkpt>
      <trkpt lat="36.778549" lon="-3.497487">
        <ele>350.649</ele>
        <time>2022-12-06T06:07:01Z</time>
      </trkpt>
      <trkpt lat="36.778632" lon="-3.497510">
        <ele>351.647</ele>
        <time>2022-12-06T06:07:08Z</time>
      </trkpt>
      <trkpt lat="36.778721" lon="-3.497526">
        <ele>352.244</ele>
        <time>2022-12-06T06:07:15Z</time>
      </trkpt>
      <trkpt lat="36.778769" lon="-3.497549">
        <ele>352.772</ele>
        <time>2022-12-06T06:07:19Z</time>
      </trkpt>
      <trkpt lat="36.778825" lon="-3.497581">
        <ele>353.386</ele>
        <time>2022-12-06T06:07:24Z</time>
      </trkpt>
      <trkpt lat="36.778858" lon="-3.497602">
        <ele>353.717</ele>
        <time>2022-12-06T06:07:27Z</time>
      </trkpt>
      <trkpt lat="36.778869" lon="-3.497605">
        <ele>354.074</ele>
        <time>2022-12-06T06:07:28Z</time>
      </trkpt>
      <trkpt lat="36.778955" lon="-3.497646">
        <ele>355.045</ele>
        <time>2022-12-06T06:07:35Z</time>
      </trkpt>
      <trkpt lat="36.779031" lon="-3.497656">
        <ele>356.055</ele>
        <time>2022-12-06T06:07:41Z</time>
      </trkpt>
      <trkpt lat="36.779097" lon="-3.497629">
        <ele>357.007</ele>
        <time>2022-12-06T06:07:46Z</time>
      </trkpt>
      <trkpt lat="36.779120" lon="-3.497614">
        <ele>357.317</ele>
        <time>2022-12-06T06:07:48Z</time>
      </trkpt>
      <trkpt lat="36.779186" lon="-3.497559">
        <ele>358.209</ele>
        <time>2022-12-06T06:07:53Z</time>
      </trkpt>
      <trkpt lat="36.779311" lon="-3.497536">
        <ele>359.266</ele>
        <time>2022-12-06T06:08:03Z</time>
      </trkpt>
      <trkpt lat="36.779371" lon="-3.497588">
        <ele>360.227</ele>
        <time>2022-12-06T06:08:09Z</time>
      </trkpt>
      <trkpt lat="36.779430" lon="-3.497676">
        <ele>361.235</ele>
        <time>2022-12-06T06:08:15Z</time>
      </trkpt>
      <trkpt lat="36.779441" lon="-3.497687">
        <ele>361.272</ele>
        <time>2022-12-06T06:08:16Z</time>
      </trkpt>
      <trkpt lat="36.779541" lon="-3.497760">
        <ele>362.340</ele>
        <time>2022-12-06T06:08:24Z</time>
      </trkpt>
      <trkpt lat="36.779643" lon="-3.497809">
        <ele>363.344</ele>
        <time>2022-12-06T06:08:33Z</time>
      </trkpt>
      <trkpt lat="36.779730" lon="-3.497865">
        <ele>364.385</ele>
        <time>2022-12-06T06:08:41Z</time>
      </trkpt>
      <trkpt lat="36.779832" lon="-3.498059">
        <ele>365.652</ele>
        <time>2022-12-06T06:08:53Z</time>
      </trkpt>
      <trkpt lat="36.779865" lon="-3.498130">
        <ele>366.683</ele>
        <time>2022-12-06T06:08:59Z</time>
      </trkpt>
      <trkpt lat="36.779892" lon="-3.498200">
        <ele>367.734</ele>
        <time>2022-12-06T06:09:04Z</time>
      </trkpt>
      <trkpt lat="36.779964" lon="-3.498418">
        <ele>368.655</ele>
        <time>2022-12-06T06:09:17Z</time>
      </trkpt>
      <trkpt lat="36.779987" lon="-3.498464">
        <ele>368.710</ele>
        <time>2022-12-06T06:09:20Z</time>
      </trkpt>
      <trkpt lat="36.780070" lon="-3.498638">
        <ele>369.709</ele>
        <time>2022-12-06T06:09:31Z</time>
      </trkpt>
      <trkpt lat="36.780123" lon="-3.498712">
        <ele>371.044</ele>
        <time>2022-12-06T06:09:38Z</time>
      </trkpt>
      <trkpt lat="36.780203" lon="-3.498751">
        <ele>371.395</ele>
        <time>2022-12-06T06:09:48Z</time>
      </trkpt>
      <trkpt lat="36.780235" lon="-3.498782">
        <ele>371.693</ele>
        <time>2022-12-06T06:09:54Z</time>
      </trkpt>
      <trkpt lat="36.780385" lon="-3.498925">
        <ele>371.340</ele>
        <time>2022-12-06T06:10:07Z</time>
      </trkpt>
      <trkpt lat="36.780550" lon="-3.499036">
        <ele>370.748</ele>
        <time>2022-12-06T06:10:21Z</time>
      </trkpt>
      <trkpt lat="36.780631" lon="-3.499104">
        <ele>369.742</ele>
        <time>2022-12-06T06:10:28Z</time>
      </trkpt>
      <trkpt lat="36.780751" lon="-3.499228">
        <ele>368.743</ele>
        <time>2022-12-06T06:10:39Z</time>
      </trkpt>
      <trkpt lat="36.780803" lon="-3.499283">
        <ele>368.390</ele>
        <time>2022-12-06T06:10:44Z</time>
      </trkpt>
      <trkpt lat="36.780908" lon="-3.499209">
        <ele>369.021</ele>
        <time>2022-12-06T06:10:54Z</time>
      </trkpt>
      <trkpt lat="36.780969" lon="-3.499207">
        <ele>370.029</ele>
        <time>2022-12-06T06:11:00Z</time>
      </trkpt>
      <trkpt lat="36.780977" lon="-3.499210">
        <ele>370.200</ele>
        <time>2022-12-06T06:11:01Z</time>
      </trkpt>
      <trkpt lat="36.781017" lon="-3.499216">
        <ele>370.720</ele>
        <time>2022-12-06T06:11:04Z</time>
      </trkpt>
      <trkpt lat="36.781028" lon="-3.499224">
        <ele>371.009</ele>
        <time>2022-12-06T06:11:05Z</time>
      </trkpt>
      <trkpt lat="36.781081" lon="-3.499274">
        <ele>372.293</ele>
        <time>2022-12-06T06:11:11Z</time>
      </trkpt>
      <trkpt lat="36.781134" lon="-3.499316">
        <ele>373.254</ele>
        <time>2022-12-06T06:11:17Z</time>
      </trkpt>
      <trkpt lat="36.781159" lon="-3.499345">
        <ele>374.052</ele>
        <time>2022-12-06T06:11:21Z</time>
      </trkpt>
      <trkpt lat="36.781167" lon="-3.499349">
        <ele>374.219</ele>
        <time>2022-12-06T06:11:22Z</time>
      </trkpt>
      <trkpt lat="36.781214" lon="-3.499367">
        <ele>375.317</ele>
        <time>2022-12-06T06:11:28Z</time>
      </trkpt>
      <trkpt lat="36.781260" lon="-3.499379">
        <ele>376.361</ele>
        <time>2022-12-06T06:11:34Z</time>
      </trkpt>
      <trkpt lat="36.781345" lon="-3.499347">
        <ele>377.642</ele>
        <time>2022-12-06T06:11:42Z</time>
      </trkpt>
      <trkpt lat="36.781410" lon="-3.499328">
        <ele>378.369</ele>
        <time>2022-12-06T06:11:49Z</time>
      </trkpt>
      <trkpt lat="36.781424" lon="-3.499319">
        <ele>378.660</ele>
        <time>2022-12-06T06:11:51Z</time>
      </trkpt>
      <trkpt lat="36.781448" lon="-3.499294">
        <ele>378.735</ele>
        <time>2022-12-06T06:11:54Z</time>
      </trkpt>
      <trkpt lat="36.781469" lon="-3.499274">
        <ele>378.286</ele>
        <time>2022-12-06T06:11:56Z</time>
      </trkpt>
      <trkpt lat="36.781510" lon="-3.499239">
        <ele>377.614</ele>
        <time>2022-12-06T06:11:59Z</time>
      </trkpt>
      <trkpt lat="36.781621" lon="-3.499150">
        <ele>376.609</ele>
        <time>2022-12-06T06:12:05Z</time>
      </trkpt>
      <trkpt lat="36.781741" lon="-3.499117">
        <ele>375.374</ele>
        <time>2022-12-06T06:12:11Z</time>
      </trkpt>
      <trkpt lat="36.781837" lon="-3.499109">
        <ele>374.225</ele>
        <time>2022-12-06T06:12:15Z</time>
      </trkpt>
      <trkpt lat="36.781903" lon="-3.499116">
        <ele>373.053</ele>
        <time>2022-12-06T06:12:18Z</time>
      </trkpt>
      <trkpt lat="36.782019" lon="-3.499112">
        <ele>371.760</ele>
        <time>2022-12-06T06:12:23Z</time>
      </trkpt>
      <trkpt lat="36.782083" lon="-3.499125">
        <ele>370.658</ele>
        <time>2022-12-06T06:12:26Z</time>
      </trkpt>
      <trkpt lat="36.782181" lon="-3.499168">
        <ele>369.652</ele>
        <time>2022-12-06T06:12:31Z</time>
      </trkpt>
      <trkpt lat="36.782262" lon="-3.499198">
        <ele>368.333</ele>
        <time>2022-12-06T06:12:35Z</time>
      </trkpt>
      <trkpt lat="36.782318" lon="-3.499205">
        <ele>367.370</ele>
        <time>2022-12-06T06:12:38Z</time>
      </trkpt>
      <trkpt lat="36.782378" lon="-3.499204">
        <ele>366.271</ele>
        <time>2022-12-06T06:12:41Z</time>
      </trkpt>
      <trkpt lat="36.782420" lon="-3.499203">
        <ele>365.059</ele>
        <time>2022-12-06T06:12:43Z</time>
      </trkpt>
      <trkpt lat="36.782466" lon="-3.499201">
        <ele>364.003</ele>
        <time>2022-12-06T06:12:45Z</time>
      </trkpt>
      <trkpt lat="36.782571" lon="-3.499166">
        <ele>362.723</ele>
        <time>2022-12-06T06:12:50Z</time>
      </trkpt>
      <trkpt lat="36.782730" lon="-3.499048">
        <ele>363.009</ele>
        <time>2022-12-06T06:12:58Z</time>
      </trkpt>
      <trkpt lat="36.782905" lon="-3.498969">
        <ele>363.326</ele>
        <time>2022-12-06T06:13:06Z</time>
      </trkpt>
      <trkpt lat="36.783060" lon="-3.498895">
        <ele>364.097</ele>
        <time>2022-12-06T06:13:14Z</time>
      </trkpt>
      <trkpt lat="36.783234" lon="-3.498861">
        <ele>365.285</ele>
        <time>2022-12-06T06:13:21Z</time>
      </trkpt>
      <trkpt lat="36.783430" lon="-3.498797">
        <ele>366.042</ele>
        <time>2022-12-06T06:13:30Z</time>
      </trkpt>
      <trkpt lat="36.783451" lon="-3.498796">
        <ele>366.330</ele>
        <time>2022-12-06T06:13:31Z</time>
      </trkpt>
      <trkpt lat="36.783634" lon="-3.498819">
        <ele>366.334</ele>
        <time>2022-12-06T06:13:39Z</time>
      </trkpt>
      <trkpt lat="36.783817" lon="-3.498893">
        <ele>366.285</ele>
        <time>2022-12-06T06:13:48Z</time>
      </trkpt>
      <trkpt lat="36.784003" lon="-3.498992">
        <ele>365.752</ele>
        <time>2022-12-06T06:13:57Z</time>
      </trkpt>
      <trkpt lat="36.784189" lon="-3.499078">
        <ele>365.693</ele>
        <time>2022-12-06T06:14:05Z</time>
      </trkpt>
      <trkpt lat="36.784238" lon="-3.499099">
        <ele>365.238</ele>
        <time>2022-12-06T06:14:07Z</time>
      </trkpt>
      <trkpt lat="36.784410" lon="-3.499185">
        <ele>365.370</ele>
        <time>2022-12-06T06:14:15Z</time>
      </trkpt>
      <trkpt lat="36.784570" lon="-3.499290">
        <ele>365.217</ele>
        <time>2022-12-06T06:14:23Z</time>
      </trkpt>
      <trkpt lat="36.784732" lon="-3.499414">
        <ele>364.209</ele>
        <time>2022-12-06T06:14:31Z</time>
      </trkpt>
      <trkpt lat="36.784894" lon="-3.499518">
        <ele>363.624</ele>
        <time>2022-12-06T06:14:39Z</time>
      </trkpt>
      <trkpt lat="36.785024" lon="-3.499602">
        <ele>363.225</ele>
        <time>2022-12-06T06:14:45Z</time>
      </trkpt>
      <trkpt lat="36.785129" lon="-3.499657">
        <ele>362.273</ele>
        <time>2022-12-06T06:14:50Z</time>
      </trkpt>
      <trkpt lat="36.785220" lon="-3.499689">
        <ele>361.050</ele>
        <time>2022-12-06T06:14:54Z</time>
      </trkpt>
      <trkpt lat="36.785289" lon="-3.499704">
        <ele>360.048</ele>
        <time>2022-12-06T06:14:57Z</time>
      </trkpt>
      <trkpt lat="36.785455" lon="-3.499704">
        <ele>358.752</ele>
        <time>2022-12-06T06:15:04Z</time>
      </trkpt>
      <trkpt lat="36.785506" lon="-3.499695">
        <ele>357.353</ele>
        <time>2022-12-06T06:15:06Z</time>
      </trkpt>
      <trkpt lat="36.785596" lon="-3.499661">
        <ele>356.320</ele>
        <time>2022-12-06T06:15:10Z</time>
      </trkpt>
      <trkpt lat="36.785726" lon="-3.499658">
        <ele>355.231</ele>
        <time>2022-12-06T06:15:16Z</time>
      </trkpt>
      <trkpt lat="36.785797" lon="-3.499668">
        <ele>354.067</ele>
        <time>2022-12-06T06:15:19Z</time>
      </trkpt>
      <trkpt lat="36.785869" lon="-3.499670">
        <ele>353.081</ele>
        <time>2022-12-06T06:15:22Z</time>
      </trkpt>
      <trkpt lat="36.785977" lon="-3.499699">
        <ele>351.719</ele>
        <time>2022-12-06T06:15:27Z</time>
      </trkpt>
      <trkpt lat="36.786043" lon="-3.499715">
        <ele>350.709</ele>
        <time>2022-12-06T06:15:30Z</time>
      </trkpt>
      <trkpt lat="36.786138" lon="-3.499730">
        <ele>349.637</ele>
        <time>2022-12-06T06:15:34Z</time>
      </trkpt>
      <trkpt lat="36.786265" lon="-3.499744">
        <ele>348.348</ele>
        <time>2022-12-06T06:15:39Z</time>
      </trkpt>
      <trkpt lat="36.786378" lon="-3.499760">
        <ele>347.216</ele>
        <time>2022-12-06T06:15:44Z</time>
      </trkpt>
      <trkpt lat="36.786483" lon="-3.499774">
        <ele>345.793</ele>
        <time>2022-12-06T06:15:48Z</time>
      </trkpt>
      <trkpt lat="36.786670" lon="-3.499839">
        <ele>344.691</ele>
        <time>2022-12-06T06:15:56Z</time>
      </trkpt>
      <trkpt lat="36.786745" lon="-3.499872">
        <ele>343.655</ele>
        <time>2022-12-06T06:16:00Z</time>
      </trkpt>
      <trkpt lat="36.786785" lon="-3.499853">
        <ele>342.696</ele>
        <time>2022-12-06T06:16:03Z</time>
      </trkpt>
      <trkpt lat="36.786789" lon="-3.499854">
        <ele>342.383</ele>
        <time>2022-12-06T06:16:04Z</time>
      </trkpt>
      <trkpt lat="36.786809" lon="-3.499853">
        <ele>342.224</ele>
        <time>2022-12-06T06:16:06Z</time>
      </trkpt>
      <trkpt lat="36.786832" lon="-3.499856">
        <ele>342.295</ele>
        <time>2022-12-06T06:16:08Z</time>
      </trkpt>
      <trkpt lat="36.786952" lon="-3.499844">
        <ele>341.349</ele>
        <time>2022-12-06T06:16:15Z</time>
      </trkpt>
      <trkpt lat="36.787016" lon="-3.499842">
        <ele>340.023</ele>
        <time>2022-12-06T06:16:18Z</time>
      </trkpt>
      <trkpt lat="36.787112" lon="-3.499829">
        <ele>339.009</ele>
        <time>2022-12-06T06:16:22Z</time>
      </trkpt>
      <trkpt lat="36.787289" lon="-3.499805">
        <ele>337.720</ele>
        <time>2022-12-06T06:16:30Z</time>
      </trkpt>
      <trkpt lat="36.787398" lon="-3.499776">
        <ele>336.631</ele>
        <time>2022-12-06T06:16:35Z</time>
      </trkpt>
      <trkpt lat="36.787463" lon="-3.499759">
        <ele>335.389</ele>
        <time>2022-12-06T06:16:38Z</time>
      </trkpt>
      <trkpt lat="36.787551" lon="-3.499740">
        <ele>334.326</ele>
        <time>2022-12-06T06:16:42Z</time>
      </trkpt>
      <trkpt lat="36.787657" lon="-3.499709">
        <ele>333.074</ele>
        <time>2022-12-06T06:16:47Z</time>
      </trkpt>
      <trkpt lat="36.787721" lon="-3.499682">
        <ele>332.028</ele>
        <time>2022-12-06T06:16:50Z</time>
      </trkpt>
      <trkpt lat="36.787828" lon="-3.499638">
        <ele>331.079</ele>
        <time>2022-12-06T06:16:56Z</time>
      </trkpt>
      <trkpt lat="36.787858" lon="-3.499609">
        <ele>330.216</ele>
        <time>2022-12-06T06:16:59Z</time>
      </trkpt>
      <trkpt lat="36.787871" lon="-3.499609">
        <ele>329.767</ele>
        <time>2022-12-06T06:17:00Z</time>
      </trkpt>
      <trkpt lat="36.787882" lon="-3.499608">
        <ele>329.658</ele>
        <time>2022-12-06T06:17:01Z</time>
      </trkpt>
      <trkpt lat="36.787942" lon="-3.499585">
        <ele>328.652</ele>
        <time>2022-12-06T06:17:05Z</time>
      </trkpt>
      <trkpt lat="36.787991" lon="-3.499566">
        <ele>327.317</ele>
        <time>2022-12-06T06:17:08Z</time>
      </trkpt>
      <trkpt lat="36.788072" lon="-3.499534">
        <ele>326.209</ele>
        <time>2022-12-06T06:17:13Z</time>
      </trkpt>
      <trkpt lat="36.788132" lon="-3.499517">
        <ele>324.786</ele>
        <time>2022-12-06T06:17:16Z</time>
      </trkpt>
      <trkpt lat="36.788186" lon="-3.499498">
        <ele>323.787</ele>
        <time>2022-12-06T06:17:19Z</time>
      </trkpt>
      <trkpt lat="36.788245" lon="-3.499472">
        <ele>322.635</ele>
        <time>2022-12-06T06:17:22Z</time>
      </trkpt>
      <trkpt lat="36.788306" lon="-3.499435">
        <ele>321.622</ele>
        <time>2022-12-06T06:17:26Z</time>
      </trkpt>
      <trkpt lat="36.788360" lon="-3.499402">
        <ele>320.320</ele>
        <time>2022-12-06T06:17:29Z</time>
      </trkpt>
      <trkpt lat="36.788397" lon="-3.499389">
        <ele>319.244</ele>
        <time>2022-12-06T06:17:31Z</time>
      </trkpt>
      <trkpt lat="36.788456" lon="-3.499368">
        <ele>317.745</ele>
        <time>2022-12-06T06:17:34Z</time>
      </trkpt>
      <trkpt lat="36.788498" lon="-3.499350">
        <ele>316.712</ele>
        <time>2022-12-06T06:17:37Z</time>
      </trkpt>
      <trkpt lat="36.788544" lon="-3.499332">
        <ele>315.643</ele>
        <time>2022-12-06T06:17:40Z</time>
      </trkpt>
      <trkpt lat="36.788583" lon="-3.499271">
        <ele>314.221</ele>
        <time>2022-12-06T06:17:44Z</time>
      </trkpt>
      <trkpt lat="36.788607" lon="-3.499200">
        <ele>312.741</ele>
        <time>2022-12-06T06:17:47Z</time>
      </trkpt>
      <trkpt lat="36.788626" lon="-3.499105">
        <ele>311.205</ele>
        <time>2022-12-06T06:17:50Z</time>
      </trkpt>
      <trkpt lat="36.788679" lon="-3.499024">
        <ele>310.309</ele>
        <time>2022-12-06T06:17:54Z</time>
      </trkpt>
      <trkpt lat="36.788825" lon="-3.498953">
        <ele>310.263</ele>
        <time>2022-12-06T06:18:01Z</time>
      </trkpt>
      <trkpt lat="36.788946" lon="-3.498880">
        <ele>309.054</ele>
        <time>2022-12-06T06:18:08Z</time>
      </trkpt>
      <trkpt lat="36.788993" lon="-3.498843">
        <ele>307.762</ele>
        <time>2022-12-06T06:18:11Z</time>
      </trkpt>
      <trkpt lat="36.789021" lon="-3.498795">
        <ele>306.619</ele>
        <time>2022-12-06T06:18:14Z</time>
      </trkpt>
      <trkpt lat="36.789081" lon="-3.498736">
        <ele>305.367</ele>
        <time>2022-12-06T06:18:18Z</time>
      </trkpt>
      <trkpt lat="36.789109" lon="-3.498637">
        <ele>304.271</ele>
        <time>2022-12-06T06:18:22Z</time>
      </trkpt>
      <trkpt lat="36.789132" lon="-3.498569">
        <ele>303.212</ele>
        <time>2022-12-06T06:18:27Z</time>
      </trkpt>
      <trkpt lat="36.789185" lon="-3.498468">
        <ele>302.699</ele>
        <time>2022-12-06T06:18:33Z</time>
      </trkpt>
      <trkpt lat="36.789251" lon="-3.498466">
        <ele>302.330</ele>
        <time>2022-12-06T06:18:37Z</time>
      </trkpt>
      <trkpt lat="36.789286" lon="-3.498461">
        <ele>302.247</ele>
        <time>2022-12-06T06:18:39Z</time>
      </trkpt>
      <trkpt lat="36.789347" lon="-3.498447">
        <ele>300.729</ele>
        <time>2022-12-06T06:18:43Z</time>
      </trkpt>
      <trkpt lat="36.789462" lon="-3.498463">
        <ele>299.721</ele>
        <time>2022-12-06T06:18:50Z</time>
      </trkpt>
      <trkpt lat="36.789547" lon="-3.498457">
        <ele>298.309</ele>
        <time>2022-12-06T06:18:55Z</time>
      </trkpt>
      <trkpt lat="36.789557" lon="-3.498460">
        <ele>298.075</ele>
        <time>2022-12-06T06:18:56Z</time>
      </trkpt>
      <trkpt lat="36.789574" lon="-3.498498">
        <ele>297.356</ele>
        <time>2022-12-06T06:18:59Z</time>
      </trkpt>
      <trkpt lat="36.789590" lon="-3.498579">
        <ele>296.234</ele>
        <time>2022-12-06T06:19:04Z</time>
      </trkpt>
      <trkpt lat="36.789576" lon="-3.498667">
        <ele>295.261</ele>
        <time>2022-12-06T06:19:09Z</time>
      </trkpt>
      <trkpt lat="36.789621" lon="-3.498849">
        <ele>295.689</ele>
        <time>2022-12-06T06:19:18Z</time>
      </trkpt>
      <trkpt lat="36.789724" lon="-3.499033">
        <ele>296.263</ele>
        <time>2022-12-06T06:19:27Z</time>
      </trkpt>
      <trkpt lat="36.789727" lon="-3.499055">
        <ele>296.264</ele>
        <time>2022-12-06T06:19:28Z</time>
      </trkpt>
      <trkpt lat="36.789752" lon="-3.499288">
        <ele>296.371</ele>
        <time>2022-12-06T06:19:37Z</time>
      </trkpt>
      <trkpt lat="36.789853" lon="-3.499492">
        <ele>296.642</ele>
        <time>2022-12-06T06:19:48Z</time>
      </trkpt>
      <trkpt lat="36.789878" lon="-3.499552">
        <ele>297.022</ele>
        <time>2022-12-06T06:19:53Z</time>
      </trkpt>
      <trkpt lat="36.789892" lon="-3.499564">
        <ele>297.262</ele>
        <time>2022-12-06T06:20:16Z</time>
      </trkpt>
      <trkpt lat="36.789953" lon="-3.499568">
        <ele>296.708</ele>
        <time>2022-12-06T06:20:29Z</time>
      </trkpt>
      <trkpt lat="36.790124" lon="-3.499679">
        <ele>297.309</ele>
        <time>2022-12-06T06:20:44Z</time>
      </trkpt>
      <trkpt lat="36.790298" lon="-3.499744">
        <ele>297.273</ele>
        <time>2022-12-06T06:20:56Z</time>
      </trkpt>
      <trkpt lat="36.790482" lon="-3.499799">
        <ele>297.374</ele>
        <time>2022-12-06T06:21:04Z</time>
      </trkpt>
      <trkpt lat="36.790662" lon="-3.499816">
        <ele>296.782</ele>
        <time>2022-12-06T06:21:11Z</time>
      </trkpt>
      <trkpt lat="36.790847" lon="-3.499795">
        <ele>296.779</ele>
        <time>2022-12-06T06:21:18Z</time>
      </trkpt>
      <trkpt lat="36.791008" lon="-3.499734">
        <ele>296.017</ele>
        <time>2022-12-06T06:21:24Z</time>
      </trkpt>
      <trkpt lat="36.791150" lon="-3.499701">
        <ele>295.071</ele>
        <time>2022-12-06T06:21:29Z</time>
      </trkpt>
      <trkpt lat="36.791300" lon="-3.499665">
        <ele>293.612</ele>
        <time>2022-12-06T06:21:34Z</time>
      </trkpt>
      <trkpt lat="36.791429" lon="-3.499632">
        <ele>292.629</ele>
        <time>2022-12-06T06:21:39Z</time>
      </trkpt>
      <trkpt lat="36.791608" lon="-3.499509">
        <ele>292.260</ele>
        <time>2022-12-06T06:21:47Z</time>
      </trkpt>
      <trkpt lat="36.791778" lon="-3.499434">
        <ele>292.051</ele>
        <time>2022-12-06T06:21:55Z</time>
      </trkpt>
      <trkpt lat="36.791956" lon="-3.499497">
        <ele>291.701</ele>
        <time>2022-12-06T06:22:03Z</time>
      </trkpt>
      <trkpt lat="36.792054" lon="-3.499521">
        <ele>291.611</ele>
        <time>2022-12-06T06:22:07Z</time>
      </trkpt>
      <trkpt lat="36.792252" lon="-3.499573">
        <ele>291.209</ele>
        <time>2022-12-06T06:22:15Z</time>
      </trkpt>
      <trkpt lat="36.792445" lon="-3.499636">
        <ele>291.096</ele>
        <time>2022-12-06T06:22:23Z</time>
      </trkpt>
      <trkpt lat="36.792592" lon="-3.499698">
        <ele>290.377</ele>
        <time>2022-12-06T06:22:29Z</time>
      </trkpt>
      <trkpt lat="36.792779" lon="-3.499779">
        <ele>290.275</ele>
        <time>2022-12-06T06:22:37Z</time>
      </trkpt>
      <trkpt lat="36.792913" lon="-3.499930">
        <ele>289.782</ele>
        <time>2022-12-06T06:22:44Z</time>
      </trkpt>
      <trkpt lat="36.793027" lon="-3.500084">
        <ele>289.360</ele>
        <time>2022-12-06T06:22:50Z</time>
      </trkpt>
      <trkpt lat="36.793159" lon="-3.500258">
        <ele>289.334</ele>
        <time>2022-12-06T06:22:57Z</time>
      </trkpt>
      <trkpt lat="36.793271" lon="-3.500444">
        <ele>288.675</ele>
        <time>2022-12-06T06:23:04Z</time>
      </trkpt>
      <trkpt lat="36.793296" lon="-3.500505">
        <ele>288.382</ele>
        <time>2022-12-06T06:23:06Z</time>
      </trkpt>
      <trkpt lat="36.793375" lon="-3.500713">
        <ele>287.773</ele>
        <time>2022-12-06T06:23:13Z</time>
      </trkpt>
      <trkpt lat="36.793437" lon="-3.500857">
        <ele>287.264</ele>
        <time>2022-12-06T06:23:18Z</time>
      </trkpt>
      <trkpt lat="36.793501" lon="-3.501077">
        <ele>286.306</ele>
        <time>2022-12-06T06:23:25Z</time>
      </trkpt>
      <trkpt lat="36.793530" lon="-3.501172">
        <ele>286.216</ele>
        <time>2022-12-06T06:23:28Z</time>
      </trkpt>
      <trkpt lat="36.793596" lon="-3.501404">
        <ele>285.309</ele>
        <time>2022-12-06T06:23:35Z</time>
      </trkpt>
      <trkpt lat="36.793649" lon="-3.501518">
        <ele>285.287</ele>
        <time>2022-12-06T06:23:39Z</time>
      </trkpt>
      <trkpt lat="36.793685" lon="-3.501630">
        <ele>284.058</ele>
        <time>2022-12-06T06:23:43Z</time>
      </trkpt>
      <trkpt lat="36.793710" lon="-3.501718">
        <ele>283.326</ele>
        <time>2022-12-06T06:23:46Z</time>
      </trkpt>
      <trkpt lat="36.793720" lon="-3.501778">
        <ele>282.673</ele>
        <time>2022-12-06T06:23:48Z</time>
      </trkpt>
      <trkpt lat="36.793734" lon="-3.501861">
        <ele>281.611</ele>
        <time>2022-12-06T06:23:51Z</time>
      </trkpt>
      <trkpt lat="36.793744" lon="-3.501949">
        <ele>280.385</ele>
        <time>2022-12-06T06:23:54Z</time>
      </trkpt>
      <trkpt lat="36.793756" lon="-3.501971">
        <ele>280.026</ele>
        <time>2022-12-06T06:23:55Z</time>
      </trkpt>
      <trkpt lat="36.793784" lon="-3.501996">
        <ele>279.283</ele>
        <time>2022-12-06T06:23:57Z</time>
      </trkpt>
      <trkpt lat="36.793835" lon="-3.502028">
        <ele>278.214</ele>
        <time>2022-12-06T06:24:00Z</time>
      </trkpt>
      <trkpt lat="36.793861" lon="-3.502049">
        <ele>277.653</ele>
        <time>2022-12-06T06:24:02Z</time>
      </trkpt>
      <trkpt lat="36.794035" lon="-3.502127">
        <ele>279.204</ele>
        <time>2022-12-06T06:24:13Z</time>
      </trkpt>
      <trkpt lat="36.794130" lon="-3.502099">
        <ele>280.214</ele>
        <time>2022-12-06T06:24:20Z</time>
      </trkpt>
      <trkpt lat="36.794295" lon="-3.502010">
        <ele>281.009</ele>
        <time>2022-12-06T06:24:32Z</time>
      </trkpt>
      <trkpt lat="36.794362" lon="-3.501983">
        <ele>281.216</ele>
        <time>2022-12-06T06:24:37Z</time>
      </trkpt>
      <trkpt lat="36.794540" lon="-3.501913">
        <ele>282.267</ele>
        <time>2022-12-06T06:24:50Z</time>
      </trkpt>
      <trkpt lat="36.794551" lon="-3.501907">
        <ele>282.385</ele>
        <time>2022-12-06T06:24:51Z</time>
      </trkpt>
      <trkpt lat="36.794613" lon="-3.501885">
        <ele>283.082</ele>
        <time>2022-12-06T06:24:56Z</time>
      </trkpt>
      <trkpt lat="36.794645" lon="-3.501889">
        <ele>283.310</ele>
        <time>2022-12-06T06:24:59Z</time>
      </trkpt>
      <trkpt lat="36.794659" lon="-3.501906">
        <ele>283.624</ele>
        <time>2022-12-06T06:25:01Z</time>
      </trkpt>
      <trkpt lat="36.794628" lon="-3.502033">
        <ele>284.665</ele>
        <time>2022-12-06T06:25:08Z</time>
      </trkpt>
      <trkpt lat="36.794539" lon="-3.502223">
        <ele>285.622</ele>
        <time>2022-12-06T06:25:20Z</time>
      </trkpt>
      <trkpt lat="36.794488" lon="-3.502349">
        <ele>286.793</ele>
        <time>2022-12-06T06:25:28Z</time>
      </trkpt>
      <trkpt lat="36.794459" lon="-3.502447">
        <ele>287.784</ele>
        <time>2022-12-06T06:25:34Z</time>
      </trkpt>
      <trkpt lat="36.794434" lon="-3.502550">
        <ele>289.007</ele>
        <time>2022-12-06T06:25:40Z</time>
      </trkpt>
      <trkpt lat="36.794430" lon="-3.502633">
        <ele>290.217</ele>
        <time>2022-12-06T06:25:45Z</time>
      </trkpt>
      <trkpt lat="36.794411" lon="-3.502717">
        <ele>291.209</ele>
        <time>2022-12-06T06:25:51Z</time>
      </trkpt>
      <trkpt lat="36.794402" lon="-3.502787">
        <ele>292.329</ele>
        <time>2022-12-06T06:25:56Z</time>
      </trkpt>
      <trkpt lat="36.794372" lon="-3.502886">
        <ele>293.390</ele>
        <time>2022-12-06T06:26:02Z</time>
      </trkpt>
      <trkpt lat="36.794346" lon="-3.502979">
        <ele>294.378</ele>
        <time>2022-12-06T06:26:08Z</time>
      </trkpt>
      <trkpt lat="36.794326" lon="-3.503068">
        <ele>295.345</ele>
        <time>2022-12-06T06:26:14Z</time>
      </trkpt>
      <trkpt lat="36.794284" lon="-3.503163">
        <ele>296.333</ele>
        <time>2022-12-06T06:26:21Z</time>
      </trkpt>
      <trkpt lat="36.794242" lon="-3.503282">
        <ele>297.637</ele>
        <time>2022-12-06T06:26:29Z</time>
      </trkpt>
      <trkpt lat="36.794244" lon="-3.503354">
        <ele>298.688</ele>
        <time>2022-12-06T06:26:34Z</time>
      </trkpt>
      <trkpt lat="36.794252" lon="-3.503358">
        <ele>298.785</ele>
        <time>2022-12-06T06:26:35Z</time>
      </trkpt>
      <trkpt lat="36.794316" lon="-3.503374">
        <ele>300.026</ele>
        <time>2022-12-06T06:26:41Z</time>
      </trkpt>
      <trkpt lat="36.794510" lon="-3.503411">
        <ele>301.017</ele>
        <time>2022-12-06T06:26:53Z</time>
      </trkpt>
      <trkpt lat="36.794698" lon="-3.503343">
        <ele>300.687</ele>
        <time>2022-12-06T06:27:01Z</time>
      </trkpt>
      <trkpt lat="36.794888" lon="-3.503314">
        <ele>300.315</ele>
        <time>2022-12-06T06:27:09Z</time>
      </trkpt>
      <trkpt lat="36.795068" lon="-3.503260">
        <ele>300.609</ele>
        <time>2022-12-06T06:27:17Z</time>
      </trkpt>
      <trkpt lat="36.795258" lon="-3.503265">
        <ele>301.232</ele>
        <time>2022-12-06T06:27:25Z</time>
      </trkpt>
      <trkpt lat="36.795429" lon="-3.503350">
        <ele>302.083</ele>
        <time>2022-12-06T06:27:34Z</time>
      </trkpt>
      <trkpt lat="36.795496" lon="-3.503411">
        <ele>303.041</ele>
        <time>2022-12-06T06:27:38Z</time>
      </trkpt>
      <trkpt lat="36.795656" lon="-3.503492">
        <ele>304.248</ele>
        <time>2022-12-06T06:27:46Z</time>
      </trkpt>
      <trkpt lat="36.795856" lon="-3.503481">
        <ele>304.386</ele>
        <time>2022-12-06T06:27:55Z</time>
      </trkpt>
      <trkpt lat="36.796006" lon="-3.503503">
        <ele>305.280</ele>
        <time>2022-12-06T06:28:03Z</time>
      </trkpt>
      <trkpt lat="36.796096" lon="-3.503516">
        <ele>306.361</ele>
        <time>2022-12-06T06:28:10Z</time>
      </trkpt>
      <trkpt lat="36.796235" lon="-3.503455">
        <ele>307.398</ele>
        <time>2022-12-06T06:28:22Z</time>
      </trkpt>
      <trkpt lat="36.796412" lon="-3.503345">
        <ele>307.219</ele>
        <time>2022-12-06T06:28:32Z</time>
      </trkpt>
      <trkpt lat="36.796591" lon="-3.503236">
        <ele>307.356</ele>
        <time>2022-12-06T06:28:40Z</time>
      </trkpt>
      <trkpt lat="36.796758" lon="-3.503118">
        <ele>307.659</ele>
        <time>2022-12-06T06:28:48Z</time>
      </trkpt>
      <trkpt lat="36.796933" lon="-3.503034">
        <ele>307.714</ele>
        <time>2022-12-06T06:28:56Z</time>
      </trkpt>
      <trkpt lat="36.797090" lon="-3.502898">
        <ele>307.709</ele>
        <time>2022-12-06T06:29:04Z</time>
      </trkpt>
      <trkpt lat="36.797191" lon="-3.502704">
        <ele>308.076</ele>
        <time>2022-12-06T06:29:11Z</time>
      </trkpt>
      <trkpt lat="36.797235" lon="-3.502648">
        <ele>308.327</ele>
        <time>2022-12-06T06:29:15Z</time>
      </trkpt>
      <trkpt lat="36.797371" lon="-3.502489">
        <ele>308.375</ele>
        <time>2022-12-06T06:29:27Z</time>
      </trkpt>
      <trkpt lat="36.797460" lon="-3.502367">
        <ele>309.642</ele>
        <time>2022-12-06T06:29:37Z</time>
      </trkpt>
      <trkpt lat="36.797495" lon="-3.502252">
        <ele>310.690</ele>
        <time>2022-12-06T06:29:44Z</time>
      </trkpt>
      <trkpt lat="36.797593" lon="-3.502187">
        <ele>311.794</ele>
        <time>2022-12-06T06:29:54Z</time>
      </trkpt>
      <trkpt lat="36.797601" lon="-3.502186">
        <ele>312.035</ele>
        <time>2022-12-06T06:29:55Z</time>
      </trkpt>
      <trkpt lat="36.797622" lon="-3.502188">
        <ele>312.742</ele>
        <time>2022-12-06T06:29:58Z</time>
      </trkpt>
      <trkpt lat="36.797641" lon="-3.502167">
        <ele>313.663</ele>
        <time>2022-12-06T06:30:02Z</time>
      </trkpt>
      <trkpt lat="36.797647" lon="-3.502159">
        <ele>314.045</ele>
        <time>2022-12-06T06:30:03Z</time>
      </trkpt>
      <trkpt lat="36.797652" lon="-3.502147">
        <ele>314.047</ele>
        <time>2022-12-06T06:30:04Z</time>
      </trkpt>
      <trkpt lat="36.797661" lon="-3.502096">
        <ele>314.611</ele>
        <time>2022-12-06T06:30:08Z</time>
      </trkpt>
      <trkpt lat="36.797665" lon="-3.502073">
        <ele>315.009</ele>
        <time>2022-12-06T06:30:10Z</time>
      </trkpt>
      <trkpt lat="36.797670" lon="-3.502032">
        <ele>315.715</ele>
        <time>2022-12-06T06:30:13Z</time>
      </trkpt>
      <trkpt lat="36.797670" lon="-3.502020">
        <ele>316.096</ele>
        <time>2022-12-06T06:30:14Z</time>
      </trkpt>
      <trkpt lat="36.797686" lon="-3.501964">
        <ele>317.294</ele>
        <time>2022-12-06T06:30:19Z</time>
      </trkpt>
      <trkpt lat="36.797690" lon="-3.501930">
        <ele>318.371</ele>
        <time>2022-12-06T06:30:23Z</time>
      </trkpt>
      <trkpt lat="36.797691" lon="-3.501922">
        <ele>318.629</ele>
        <time>2022-12-06T06:30:24Z</time>
      </trkpt>
      <trkpt lat="36.797699" lon="-3.501884">
        <ele>319.613</ele>
        <time>2022-12-06T06:30:28Z</time>
      </trkpt>
      <trkpt lat="36.797710" lon="-3.501843">
        <ele>320.774</ele>
        <time>2022-12-06T06:30:33Z</time>
      </trkpt>
      <trkpt lat="36.797734" lon="-3.501802">
        <ele>322.031</ele>
        <time>2022-12-06T06:30:39Z</time>
      </trkpt>
      <trkpt lat="36.797748" lon="-3.501776">
        <ele>323.222</ele>
        <time>2022-12-06T06:30:44Z</time>
      </trkpt>
      <trkpt lat="36.797744" lon="-3.501734">
        <ele>324.367</ele>
        <time>2022-12-06T06:30:50Z</time>
      </trkpt>
      <trkpt lat="36.797743" lon="-3.501707">
        <ele>325.381</ele>
        <time>2022-12-06T06:30:54Z</time>
      </trkpt>
      <trkpt lat="36.797761" lon="-3.501683">
        <ele>326.619</ele>
        <time>2022-12-06T06:30:59Z</time>
      </trkpt>
      <trkpt lat="36.797794" lon="-3.501668">
        <ele>327.609</ele>
        <time>2022-12-06T06:31:04Z</time>
      </trkpt>
      <trkpt lat="36.797838" lon="-3.501657">
        <ele>327.727</ele>
        <time>2022-12-06T06:31:08Z</time>
      </trkpt>
      <trkpt lat="36.797965" lon="-3.501642">
        <ele>328.328</ele>
        <time>2022-12-06T06:31:18Z</time>
      </trkpt>
      <trkpt lat="36.797980" lon="-3.501631">
        <ele>328.646</ele>
        <time>2022-12-06T06:31:20Z</time>
      </trkpt>
      <trkpt lat="36.798030" lon="-3.501620">
        <ele>329.783</ele>
        <time>2022-12-06T06:31:25Z</time>
      </trkpt>
      <trkpt lat="36.798080" lon="-3.501596">
        <ele>331.091</ele>
        <time>2022-12-06T06:31:31Z</time>
      </trkpt>
      <trkpt lat="36.798126" lon="-3.501596">
        <ele>332.285</ele>
        <time>2022-12-06T06:31:36Z</time>
      </trkpt>
      <trkpt lat="36.798164" lon="-3.501603">
        <ele>332.696</ele>
        <time>2022-12-06T06:31:39Z</time>
      </trkpt>
      <trkpt lat="36.798199" lon="-3.501602">
        <ele>333.293</ele>
        <time>2022-12-06T06:31:43Z</time>
      </trkpt>
      <trkpt lat="36.798205" lon="-3.501596">
        <ele>333.384</ele>
        <time>2022-12-06T06:31:44Z</time>
      </trkpt>
      <trkpt lat="36.798240" lon="-3.501570">
        <ele>334.373</ele>
        <time>2022-12-06T06:31:48Z</time>
      </trkpt>
      <trkpt lat="36.798300" lon="-3.501585">
        <ele>335.385</ele>
        <time>2022-12-06T06:31:54Z</time>
      </trkpt>
      <trkpt lat="36.798342" lon="-3.501610">
        <ele>336.313</ele>
        <time>2022-12-06T06:31:59Z</time>
      </trkpt>
      <trkpt lat="36.798393" lon="-3.501616">
        <ele>337.609</ele>
        <time>2022-12-06T06:32:05Z</time>
      </trkpt>
      <trkpt lat="36.798447" lon="-3.501606">
        <ele>338.748</ele>
        <time>2022-12-06T06:32:10Z</time>
      </trkpt>
      <trkpt lat="36.798476" lon="-3.501609">
        <ele>339.379</ele>
        <time>2022-12-06T06:32:13Z</time>
      </trkpt>
      <trkpt lat="36.798500" lon="-3.501616">
        <ele>339.697</ele>
        <time>2022-12-06T06:32:15Z</time>
      </trkpt>
      <trkpt lat="36.798559" lon="-3.501603">
        <ele>339.714</ele>
        <time>2022-12-06T06:32:19Z</time>
      </trkpt>
      <trkpt lat="36.798674" lon="-3.501569">
        <ele>340.022</ele>
        <time>2022-12-06T06:32:30Z</time>
      </trkpt>
      <trkpt lat="36.798726" lon="-3.501508">
        <ele>340.786</ele>
        <time>2022-12-06T06:32:36Z</time>
      </trkpt>
      <trkpt lat="36.798768" lon="-3.501485">
        <ele>342.017</ele>
        <time>2022-12-06T06:32:40Z</time>
      </trkpt>
      <trkpt lat="36.798843" lon="-3.501467">
        <ele>342.364</ele>
        <time>2022-12-06T06:32:47Z</time>
      </trkpt>
      <trkpt lat="36.798863" lon="-3.501441">
        <ele>342.685</ele>
        <time>2022-12-06T06:32:50Z</time>
      </trkpt>
      <trkpt lat="36.798886" lon="-3.501432">
        <ele>343.027</ele>
        <time>2022-12-06T06:32:52Z</time>
      </trkpt>
      <trkpt lat="36.798927" lon="-3.501435">
        <ele>343.668</ele>
        <time>2022-12-06T06:32:56Z</time>
      </trkpt>
      <trkpt lat="36.798971" lon="-3.501416">
        <ele>343.714</ele>
        <time>2022-12-06T06:33:00Z</time>
      </trkpt>
      <trkpt lat="36.799030" lon="-3.501422">
        <ele>344.209</ele>
        <time>2022-12-06T06:33:07Z</time>
      </trkpt>
      <trkpt lat="36.799066" lon="-3.501414">
        <ele>344.263</ele>
        <time>2022-12-06T06:33:10Z</time>
      </trkpt>
      <trkpt lat="36.799159" lon="-3.501379">
        <ele>344.024</ele>
        <time>2022-12-06T06:33:18Z</time>
      </trkpt>
      <trkpt lat="36.799255" lon="-3.501300">
        <ele>345.212</ele>
        <time>2022-12-06T06:33:26Z</time>
      </trkpt>
      <trkpt lat="36.799347" lon="-3.501245">
        <ele>346.379</ele>
        <time>2022-12-06T06:33:35Z</time>
      </trkpt>
      <trkpt lat="36.799396" lon="-3.501203">
        <ele>347.277</ele>
        <time>2022-12-06T06:33:41Z</time>
      </trkpt>
      <trkpt lat="36.799414" lon="-3.501186">
        <ele>347.381</ele>
        <time>2022-12-06T06:33:43Z</time>
      </trkpt>
      <trkpt lat="36.799428" lon="-3.501175">
        <ele>347.712</ele>
        <time>2022-12-06T06:33:45Z</time>
      </trkpt>
      <trkpt lat="36.799494" lon="-3.501174">
        <ele>348.639</ele>
        <time>2022-12-06T06:33:51Z</time>
      </trkpt>
      <trkpt lat="36.799523" lon="-3.501171">
        <ele>348.660</ele>
        <time>2022-12-06T06:33:54Z</time>
      </trkpt>
      <trkpt lat="36.799535" lon="-3.501178">
        <ele>348.629</ele>
        <time>2022-12-06T06:33:56Z</time>
      </trkpt>
      <trkpt lat="36.799551" lon="-3.501250">
        <ele>347.700</ele>
        <time>2022-12-06T06:34:05Z</time>
      </trkpt>
      <trkpt lat="36.799551" lon="-3.501258">
        <ele>347.320</ele>
        <time>2022-12-06T06:34:06Z</time>
      </trkpt>
      <trkpt lat="36.799550" lon="-3.501271">
        <ele>347.009</ele>
        <time>2022-12-06T06:34:07Z</time>
      </trkpt>
      <trkpt lat="36.799553" lon="-3.501288">
        <ele>346.373</ele>
        <time>2022-12-06T06:34:08Z</time>
      </trkpt>
      <trkpt lat="36.799555" lon="-3.501330">
        <ele>345.294</ele>
        <time>2022-12-06T06:34:10Z</time>
      </trkpt>
      <trkpt lat="36.799579" lon="-3.501385">
        <ele>344.062</ele>
        <time>2022-12-06T06:34:13Z</time>
      </trkpt>
      <trkpt lat="36.799591" lon="-3.501435">
        <ele>342.649</ele>
        <time>2022-12-06T06:34:16Z</time>
      </trkpt>
      <trkpt lat="36.799607" lon="-3.501511">
        <ele>341.257</ele>
        <time>2022-12-06T06:34:19Z</time>
      </trkpt>
      <trkpt lat="36.799631" lon="-3.501561">
        <ele>340.781</ele>
        <time>2022-12-06T06:34:21Z</time>
      </trkpt>
      <trkpt lat="36.799661" lon="-3.501621">
        <ele>340.222</ele>
        <time>2022-12-06T06:34:24Z</time>
      </trkpt>
      <trkpt lat="36.799736" lon="-3.501764">
        <ele>339.069</ele>
        <time>2022-12-06T06:34:31Z</time>
      </trkpt>
      <trkpt lat="36.799759" lon="-3.501914">
        <ele>338.010</ele>
        <time>2022-12-06T06:34:37Z</time>
      </trkpt>
      <trkpt lat="36.799770" lon="-3.501937">
        <ele>337.756</ele>
        <time>2022-12-06T06:34:38Z</time>
      </trkpt>
      <trkpt lat="36.799821" lon="-3.501983">
        <ele>337.259</ele>
        <time>2022-12-06T06:34:43Z</time>
      </trkpt>
      <trkpt lat="36.799845" lon="-3.502022">
        <ele>337.014</ele>
        <time>2022-12-06T06:34:46Z</time>
      </trkpt>
      <trkpt lat="36.799958" lon="-3.502147">
        <ele>335.609</ele>
        <time>2022-12-06T06:34:54Z</time>
      </trkpt>
      <trkpt lat="36.800004" lon="-3.502199">
        <ele>334.636</ele>
        <time>2022-12-06T06:34:57Z</time>
      </trkpt>
      <trkpt lat="36.800039" lon="-3.502257">
        <ele>333.687</ele>
        <time>2022-12-06T06:35:00Z</time>
      </trkpt>
      <trkpt lat="36.800060" lon="-3.502305">
        <ele>332.655</ele>
        <time>2022-12-06T06:35:02Z</time>
      </trkpt>
      <trkpt lat="36.800103" lon="-3.502393">
        <ele>331.362</ele>
        <time>2022-12-06T06:35:06Z</time>
      </trkpt>
      <trkpt lat="36.800133" lon="-3.502614">
        <ele>330.790</ele>
        <time>2022-12-06T06:35:15Z</time>
      </trkpt>
      <trkpt lat="36.800139" lon="-3.502634">
        <ele>330.614</ele>
        <time>2022-12-06T06:35:16Z</time>
      </trkpt>
      <trkpt lat="36.800134" lon="-3.502737">
        <ele>330.275</ele>
        <time>2022-12-06T06:35:20Z</time>
      </trkpt>
      <trkpt lat="36.800112" lon="-3.502858">
        <ele>328.772</ele>
        <time>2022-12-06T06:35:24Z</time>
      </trkpt>
      <trkpt lat="36.800085" lon="-3.502958">
        <ele>327.683</ele>
        <time>2022-12-06T06:35:27Z</time>
      </trkpt>
      <trkpt lat="36.800075" lon="-3.503068">
        <ele>326.399</ele>
        <time>2022-12-06T06:35:31Z</time>
      </trkpt>
      <trkpt lat="36.800057" lon="-3.503209">
        <ele>325.307</ele>
        <time>2022-12-06T06:35:36Z</time>
      </trkpt>
      <trkpt lat="36.800031" lon="-3.503373">
        <ele>324.227</ele>
        <time>2022-12-06T06:35:42Z</time>
      </trkpt>
      <trkpt lat="36.800049" lon="-3.503499">
        <ele>323.009</ele>
        <time>2022-12-06T06:35:48Z</time>
      </trkpt>
      <trkpt lat="36.800056" lon="-3.503580">
        <ele>322.080</ele>
        <time>2022-12-06T06:35:51Z</time>
      </trkpt>
      <trkpt lat="36.800038" lon="-3.503671">
        <ele>320.371</ele>
        <time>2022-12-06T06:35:54Z</time>
      </trkpt>
      <trkpt lat="36.800019" lon="-3.503719">
        <ele>319.079</ele>
        <time>2022-12-06T06:35:56Z</time>
      </trkpt>
      <trkpt lat="36.799977" lon="-3.503792">
        <ele>317.396</ele>
        <time>2022-12-06T06:35:59Z</time>
      </trkpt>
      <trkpt lat="36.799940" lon="-3.503866">
        <ele>316.034</ele>
        <time>2022-12-06T06:36:02Z</time>
      </trkpt>
      <trkpt lat="36.799920" lon="-3.503951">
        <ele>314.758</ele>
        <time>2022-12-06T06:36:05Z</time>
      </trkpt>
      <trkpt lat="36.799890" lon="-3.504033">
        <ele>313.649</ele>
        <time>2022-12-06T06:36:08Z</time>
      </trkpt>
      <trkpt lat="36.799831" lon="-3.504151">
        <ele>312.366</ele>
        <time>2022-12-06T06:36:13Z</time>
      </trkpt>
      <trkpt lat="36.799773" lon="-3.504322">
        <ele>311.667</ele>
        <time>2022-12-06T06:36:20Z</time>
      </trkpt>
      <trkpt lat="36.799822" lon="-3.504385">
        <ele>311.361</ele>
        <time>2022-12-06T06:36:24Z</time>
      </trkpt>
      <trkpt lat="36.799835" lon="-3.504397">
        <ele>311.221</ele>
        <time>2022-12-06T06:36:25Z</time>
      </trkpt>
      <trkpt lat="36.799860" lon="-3.504416">
        <ele>310.213</ele>
        <time>2022-12-06T06:36:27Z</time>
      </trkpt>
      <trkpt lat="36.799888" lon="-3.504468">
        <ele>308.709</ele>
        <time>2022-12-06T06:36:30Z</time>
      </trkpt>
      <trkpt lat="36.799911" lon="-3.504519">
        <ele>307.337</ele>
        <time>2022-12-06T06:36:33Z</time>
      </trkpt>
      <trkpt lat="36.799917" lon="-3.504588">
        <ele>306.018</ele>
        <time>2022-12-06T06:36:36Z</time>
      </trkpt>
      <trkpt lat="36.799918" lon="-3.504626">
        <ele>305.076</ele>
        <time>2022-12-06T06:36:38Z</time>
      </trkpt>
      <trkpt lat="36.799927" lon="-3.504652">
        <ele>304.093</ele>
        <time>2022-12-06T06:36:40Z</time>
      </trkpt>
      <trkpt lat="36.799935" lon="-3.504675">
        <ele>303.391</ele>
        <time>2022-12-06T06:36:42Z</time>
      </trkpt>
      <trkpt lat="36.799949" lon="-3.504686">
        <ele>303.085</ele>
        <time>2022-12-06T06:36:43Z</time>
      </trkpt>
      <trkpt lat="36.799960" lon="-3.504696">
        <ele>302.366</ele>
        <time>2022-12-06T06:36:44Z</time>
      </trkpt>
      <trkpt lat="36.799966" lon="-3.504709">
        <ele>301.773</ele>
        <time>2022-12-06T06:36:45Z</time>
      </trkpt>
      <trkpt lat="36.799983" lon="-3.504738">
        <ele>300.614</ele>
        <time>2022-12-06T06:36:47Z</time>
      </trkpt>
      <trkpt lat="36.800011" lon="-3.504768">
        <ele>299.627</ele>
        <time>2022-12-06T06:36:49Z</time>
      </trkpt>
      <trkpt lat="36.800036" lon="-3.504802">
        <ele>298.368</ele>
        <time>2022-12-06T06:36:51Z</time>
      </trkpt>
      <trkpt lat="36.800058" lon="-3.504836">
        <ele>297.314</ele>
        <time>2022-12-06T06:36:53Z</time>
      </trkpt>
      <trkpt lat="36.800062" lon="-3.504859">
        <ele>296.709</ele>
        <time>2022-12-06T06:36:54Z</time>
      </trkpt>
      <trkpt lat="36.800067" lon="-3.504903">
        <ele>295.683</ele>
        <time>2022-12-06T06:36:56Z</time>
      </trkpt>
      <trkpt lat="36.800068" lon="-3.504938">
        <ele>294.354</ele>
        <time>2022-12-06T06:36:58Z</time>
      </trkpt>
      <trkpt lat="36.800072" lon="-3.504994">
        <ele>293.032</ele>
        <time>2022-12-06T06:37:01Z</time>
      </trkpt>
      <trkpt lat="36.800094" lon="-3.505047">
        <ele>292.079</ele>
        <time>2022-12-06T06:37:04Z</time>
      </trkpt>
      <trkpt lat="36.800092" lon="-3.505068">
        <ele>291.367</ele>
        <time>2022-12-06T06:37:05Z</time>
      </trkpt>
      <trkpt lat="36.800087" lon="-3.505088">
        <ele>290.311</ele>
        <time>2022-12-06T06:37:06Z</time>
      </trkpt>
      <trkpt lat="36.800082" lon="-3.505127">
        <ele>289.252</ele>
        <time>2022-12-06T06:37:08Z</time>
      </trkpt>
      <trkpt lat="36.800082" lon="-3.505166">
        <ele>288.019</ele>
        <time>2022-12-06T06:37:11Z</time>
      </trkpt>
      <trkpt lat="36.800068" lon="-3.505183">
        <ele>287.040</ele>
        <time>2022-12-06T06:37:14Z</time>
      </trkpt>
      <trkpt lat="36.800060" lon="-3.505193">
        <ele>286.673</ele>
        <time>2022-12-06T06:37:15Z</time>
      </trkpt>
      <trkpt lat="36.800045" lon="-3.505212">
        <ele>286.285</ele>
        <time>2022-12-06T06:37:17Z</time>
      </trkpt>
      <trkpt lat="36.800036" lon="-3.505236">
        <ele>285.613</ele>
        <time>2022-12-06T06:37:19Z</time>
      </trkpt>
      <trkpt lat="36.800031" lon="-3.505287">
        <ele>284.209</ele>
        <time>2022-12-06T06:37:22Z</time>
      </trkpt>
      <trkpt lat="36.800030" lon="-3.505301">
        <ele>283.788</ele>
        <time>2022-12-06T06:37:23Z</time>
      </trkpt>
      <trkpt lat="36.800026" lon="-3.505324">
        <ele>282.719</ele>
        <time>2022-12-06T06:37:25Z</time>
      </trkpt>
      <trkpt lat="36.800017" lon="-3.505383">
        <ele>281.357</ele>
        <time>2022-12-06T06:37:28Z</time>
      </trkpt>
      <trkpt lat="36.800004" lon="-3.505439">
        <ele>280.044</ele>
        <time>2022-12-06T06:37:31Z</time>
      </trkpt>
      <trkpt lat="36.799981" lon="-3.505469">
        <ele>278.612</ele>
        <time>2022-12-06T06:37:34Z</time>
      </trkpt>
      <trkpt lat="36.799977" lon="-3.505498">
        <ele>278.226</ele>
        <time>2022-12-06T06:37:36Z</time>
      </trkpt>
      <trkpt lat="36.799965" lon="-3.505525">
        <ele>277.397</ele>
        <time>2022-12-06T06:37:38Z</time>
      </trkpt>
      <trkpt lat="36.799958" lon="-3.505542">
        <ele>276.364</ele>
        <time>2022-12-06T06:37:40Z</time>
      </trkpt>
      <trkpt lat="36.799943" lon="-3.505562">
        <ele>275.645</ele>
        <time>2022-12-06T06:37:43Z</time>
      </trkpt>
      <trkpt lat="36.800027" lon="-3.505685">
        <ele>276.727</ele>
        <time>2022-12-06T06:37:54Z</time>
      </trkpt>
      <trkpt lat="36.800029" lon="-3.505707">
        <ele>277.268</ele>
        <time>2022-12-06T06:37:56Z</time>
      </trkpt>
      <trkpt lat="36.800026" lon="-3.505727">
        <ele>277.614</ele>
        <time>2022-12-06T06:37:58Z</time>
      </trkpt>
      <trkpt lat="36.800025" lon="-3.505760">
        <ele>278.609</ele>
        <time>2022-12-06T06:38:02Z</time>
      </trkpt>
      <trkpt lat="36.800039" lon="-3.505806">
        <ele>279.693</ele>
        <time>2022-12-06T06:38:06Z</time>
      </trkpt>
      <trkpt lat="36.800043" lon="-3.505818">
        <ele>279.734</ele>
        <time>2022-12-06T06:38:07Z</time>
      </trkpt>
      <trkpt lat="36.800088" lon="-3.505902">
        <ele>280.642</ele>
        <time>2022-12-06T06:38:15Z</time>
      </trkpt>
      <trkpt lat="36.800095" lon="-3.505910">
        <ele>280.699</ele>
        <time>2022-12-06T06:38:16Z</time>
      </trkpt>
      <trkpt lat="36.800107" lon="-3.505923">
        <ele>281.257</ele>
        <time>2022-12-06T06:38:18Z</time>
      </trkpt>
      <trkpt lat="36.800127" lon="-3.505931">
        <ele>281.731</ele>
        <time>2022-12-06T06:38:21Z</time>
      </trkpt>
      <trkpt lat="36.800165" lon="-3.505921">
        <ele>283.072</ele>
        <time>2022-12-06T06:38:25Z</time>
      </trkpt>
      <trkpt lat="36.800192" lon="-3.505910">
        <ele>283.799</ele>
        <time>2022-12-06T06:38:28Z</time>
      </trkpt>
      <trkpt lat="36.800201" lon="-3.505905">
        <ele>284.290</ele>
        <time>2022-12-06T06:38:29Z</time>
      </trkpt>
      <trkpt lat="36.800221" lon="-3.505896">
        <ele>284.642</ele>
        <time>2022-12-06T06:38:31Z</time>
      </trkpt>
      <trkpt lat="36.800238" lon="-3.505889">
        <ele>285.222</ele>
        <time>2022-12-06T06:38:33Z</time>
      </trkpt>
      <trkpt lat="36.800269" lon="-3.505871">
        <ele>286.314</ele>
        <time>2022-12-06T06:38:37Z</time>
      </trkpt>
      <trkpt lat="36.800300" lon="-3.505860">
        <ele>287.209</ele>
        <time>2022-12-06T06:38:40Z</time>
      </trkpt>
      <trkpt lat="36.800312" lon="-3.505860">
        <ele>287.385</ele>
        <time>2022-12-06T06:38:41Z</time>
      </trkpt>
      <trkpt lat="36.800348" lon="-3.505862">
        <ele>288.696</ele>
        <time>2022-12-06T06:38:45Z</time>
      </trkpt>
      <trkpt lat="36.800380" lon="-3.505869">
        <ele>289.624</ele>
        <time>2022-12-06T06:38:49Z</time>
      </trkpt>
      <trkpt lat="36.800402" lon="-3.505869">
        <ele>290.671</ele>
        <time>2022-12-06T06:38:53Z</time>
      </trkpt>
      <trkpt lat="36.800441" lon="-3.505859">
        <ele>291.779</ele>
        <time>2022-12-06T06:38:58Z</time>
      </trkpt>
      <trkpt lat="36.800463" lon="-3.505876">
        <ele>293.073</ele>
        <time>2022-12-06T06:39:02Z</time>
      </trkpt>
      <trkpt lat="36.800498" lon="-3.505871">
        <ele>294.034</ele>
        <time>2022-12-06T06:39:06Z</time>
      </trkpt>
      <trkpt lat="36.800533" lon="-3.505874">
        <ele>295.081</ele>
        <time>2022-12-06T06:39:10Z</time>
      </trkpt>
      <trkpt lat="36.800541" lon="-3.505877">
        <ele>295.222</ele>
        <time>2022-12-06T06:39:11Z</time>
      </trkpt>
      <trkpt lat="36.800578" lon="-3.505883">
        <ele>296.351</ele>
        <time>2022-12-06T06:39:15Z</time>
      </trkpt>
      <trkpt lat="36.800622" lon="-3.505863">
        <ele>297.201</ele>
        <time>2022-12-06T06:39:20Z</time>
      </trkpt>
      <trkpt lat="36.800628" lon="-3.505862">
        <ele>297.311</ele>
        <time>2022-12-06T06:39:21Z</time>
      </trkpt>
      <trkpt lat="36.800664" lon="-3.505854">
        <ele>298.309</ele>
        <time>2022-12-06T06:39:25Z</time>
      </trkpt>
      <trkpt lat="36.800675" lon="-3.505851">
        <ele>298.736</ele>
        <time>2022-12-06T06:39:26Z</time>
      </trkpt>
      <trkpt lat="36.800738" lon="-3.505838">
        <ele>299.767</ele>
        <time>2022-12-06T06:39:32Z</time>
      </trkpt>
      <trkpt lat="36.800840" lon="-3.505817">
        <ele>301.035</ele>
        <time>2022-12-06T06:39:42Z</time>
      </trkpt>
      <trkpt lat="36.800845" lon="-3.505813">
        <ele>301.282</ele>
        <time>2022-12-06T06:39:47Z</time>
      </trkpt>
      <trkpt lat="36.800817" lon="-3.505844">
        <ele>301.280</ele>
        <time>2022-12-06T06:39:51Z</time>
      </trkpt>
      <trkpt lat="36.800806" lon="-3.505873">
        <ele>301.264</ele>
        <time>2022-12-06T06:39:53Z</time>
      </trkpt>
      <trkpt lat="36.800871" lon="-3.505970">
        <ele>299.785</ele>
        <time>2022-12-06T06:40:01Z</time>
      </trkpt>
      <trkpt lat="36.800987" lon="-3.506139">
        <ele>299.022</ele>
        <time>2022-12-06T06:40:11Z</time>
      </trkpt>
      <trkpt lat="36.800958" lon="-3.506364">
        <ele>300.013</ele>
        <time>2022-12-06T06:40:22Z</time>
      </trkpt>
      <trkpt lat="36.800957" lon="-3.506455">
        <ele>300.759</ele>
        <time>2022-12-06T06:40:29Z</time>
      </trkpt>
      <trkpt lat="36.800971" lon="-3.506484">
        <ele>300.603</ele>
        <time>2022-12-06T06:40:34Z</time>
      </trkpt>
      <trkpt lat="36.800982" lon="-3.506408">
        <ele>300.623</ele>
        <time>2022-12-06T06:40:39Z</time>
      </trkpt>
      <trkpt lat="36.801022" lon="-3.506175">
        <ele>300.709</ele>
        <time>2022-12-06T06:40:50Z</time>
      </trkpt>
      <trkpt lat="36.801016" lon="-3.505949">
        <ele>300.076</ele>
        <time>2022-12-06T06:40:58Z</time>
      </trkpt>
      <trkpt lat="36.801053" lon="-3.505807">
        <ele>301.787</ele>
        <time>2022-12-06T06:41:05Z</time>
      </trkpt>
      <trkpt lat="36.801060" lon="-3.505800">
        <ele>302.365</ele>
        <time>2022-12-06T06:41:06Z</time>
      </trkpt>
      <trkpt lat="36.801075" lon="-3.505799">
        <ele>303.222</ele>
        <time>2022-12-06T06:41:08Z</time>
      </trkpt>
      <trkpt lat="36.801131" lon="-3.505818">
        <ele>304.230</ele>
        <time>2022-12-06T06:41:14Z</time>
      </trkpt>
      <trkpt lat="36.801185" lon="-3.505860">
        <ele>305.254</ele>
        <time>2022-12-06T06:41:20Z</time>
      </trkpt>
      <trkpt lat="36.801221" lon="-3.505889">
        <ele>306.215</ele>
        <time>2022-12-06T06:41:25Z</time>
      </trkpt>
      <trkpt lat="36.801253" lon="-3.505909">
        <ele>307.322</ele>
        <time>2022-12-06T06:41:29Z</time>
      </trkpt>
      <trkpt lat="36.801295" lon="-3.505916">
        <ele>308.393</ele>
        <time>2022-12-06T06:41:34Z</time>
      </trkpt>
      <trkpt lat="36.801321" lon="-3.505915">
        <ele>309.394</ele>
        <time>2022-12-06T06:41:37Z</time>
      </trkpt>
      <trkpt lat="36.801328" lon="-3.505919">
        <ele>309.657</ele>
        <time>2022-12-06T06:41:38Z</time>
      </trkpt>
      <trkpt lat="36.801360" lon="-3.505932">
        <ele>310.722</ele>
        <time>2022-12-06T06:41:43Z</time>
      </trkpt>
      <trkpt lat="36.801390" lon="-3.505947">
        <ele>312.009</ele>
        <time>2022-12-06T06:41:47Z</time>
      </trkpt>
      <trkpt lat="36.801423" lon="-3.505954">
        <ele>313.210</ele>
        <time>2022-12-06T06:41:51Z</time>
      </trkpt>
      <trkpt lat="36.801449" lon="-3.505977">
        <ele>314.241</ele>
        <time>2022-12-06T06:41:55Z</time>
      </trkpt>
      <trkpt lat="36.801629" lon="-3.506049">
        <ele>314.689</ele>
        <time>2022-12-06T06:42:07Z</time>
      </trkpt>
      <trkpt lat="36.801768" lon="-3.506152">
        <ele>313.296</ele>
        <time>2022-12-06T06:42:13Z</time>
      </trkpt>
      <trkpt lat="36.801831" lon="-3.506222">
        <ele>311.724</ele>
        <time>2022-12-06T06:42:17Z</time>
      </trkpt>
      <trkpt lat="36.801879" lon="-3.506277">
        <ele>313.028</ele>
        <time>2022-12-06T06:42:24Z</time>
      </trkpt>
      <trkpt lat="36.801906" lon="-3.506293">
        <ele>314.259</ele>
        <time>2022-12-06T06:42:28Z</time>
      </trkpt>
      <trkpt lat="36.801929" lon="-3.506307">
        <ele>315.276</ele>
        <time>2022-12-06T06:42:32Z</time>
      </trkpt>
      <trkpt lat="36.801958" lon="-3.506327">
        <ele>316.627</ele>
        <time>2022-12-06T06:42:36Z</time>
      </trkpt>
      <trkpt lat="36.801982" lon="-3.506351">
        <ele>317.261</ele>
        <time>2022-12-06T06:42:39Z</time>
      </trkpt>
      <trkpt lat="36.801990" lon="-3.506359">
        <ele>317.621</ele>
        <time>2022-12-06T06:42:40Z</time>
      </trkpt>
      <trkpt lat="36.802055" lon="-3.506431">
        <ele>318.613</ele>
        <time>2022-12-06T06:42:47Z</time>
      </trkpt>
      <trkpt lat="36.802129" lon="-3.506499">
        <ele>319.609</ele>
        <time>2022-12-06T06:42:54Z</time>
      </trkpt>
      <trkpt lat="36.802285" lon="-3.506625">
        <ele>320.017</ele>
        <time>2022-12-06T06:43:08Z</time>
      </trkpt>
      <trkpt lat="36.802460" lon="-3.506726">
        <ele>318.288</ele>
        <time>2022-12-06T06:43:19Z</time>
      </trkpt>
      <trkpt lat="36.802492" lon="-3.506754">
        <ele>317.216</ele>
        <time>2022-12-06T06:43:21Z</time>
      </trkpt>
      <trkpt lat="36.802542" lon="-3.506786">
        <ele>315.733</ele>
        <time>2022-12-06T06:43:24Z</time>
      </trkpt>
      <trkpt lat="36.802573" lon="-3.506793">
        <ele>314.791</ele>
        <time>2022-12-06T06:43:26Z</time>
      </trkpt>
      <trkpt lat="36.802606" lon="-3.506792">
        <ele>313.245</ele>
        <time>2022-12-06T06:43:28Z</time>
      </trkpt>
      <trkpt lat="36.802663" lon="-3.506777">
        <ele>311.646</ele>
        <time>2022-12-06T06:43:30Z</time>
      </trkpt>
      <trkpt lat="36.802730" lon="-3.506772">
        <ele>310.353</ele>
        <time>2022-12-06T06:43:32Z</time>
      </trkpt>
      <trkpt lat="36.802801" lon="-3.506807">
        <ele>309.344</ele>
        <time>2022-12-06T06:43:35Z</time>
      </trkpt>
      <trkpt lat="36.802900" lon="-3.506901">
        <ele>310.352</ele>
        <time>2022-12-06T06:43:41Z</time>
      </trkpt>
      <trkpt lat="36.802986" lon="-3.507011">
        <ele>311.353</ele>
        <time>2022-12-06T06:43:50Z</time>
      </trkpt>
      <trkpt lat="36.803048" lon="-3.507030">
        <ele>312.608</ele>
        <time>2022-12-06T06:43:55Z</time>
      </trkpt>
      <trkpt lat="36.803125" lon="-3.507017">
        <ele>313.609</ele>
        <time>2022-12-06T06:44:01Z</time>
      </trkpt>
      <trkpt lat="36.803199" lon="-3.507010">
        <ele>314.766</ele>
        <time>2022-12-06T06:44:07Z</time>
      </trkpt>
      <trkpt lat="36.803267" lon="-3.506983">
        <ele>315.787</ele>
        <time>2022-12-06T06:44:14Z</time>
      </trkpt>
      <trkpt lat="36.803315" lon="-3.506922">
        <ele>317.075</ele>
        <time>2022-12-06T06:44:20Z</time>
      </trkpt>
      <trkpt lat="36.803354" lon="-3.506864">
        <ele>318.282</ele>
        <time>2022-12-06T06:44:25Z</time>
      </trkpt>
      <trkpt lat="36.803386" lon="-3.506815">
        <ele>319.260</ele>
        <time>2022-12-06T06:44:30Z</time>
      </trkpt>
      <trkpt lat="36.803417" lon="-3.506765">
        <ele>320.394</ele>
        <time>2022-12-06T06:44:35Z</time>
      </trkpt>
      <trkpt lat="36.803444" lon="-3.506714">
        <ele>321.695</ele>
        <time>2022-12-06T06:44:40Z</time>
      </trkpt>
      <trkpt lat="36.803477" lon="-3.506653">
        <ele>322.712</ele>
        <time>2022-12-06T06:44:46Z</time>
      </trkpt>
      <trkpt lat="36.803498" lon="-3.506589">
        <ele>323.723</ele>
        <time>2022-12-06T06:44:51Z</time>
      </trkpt>
      <trkpt lat="36.803526" lon="-3.506523">
        <ele>324.723</ele>
        <time>2022-12-06T06:44:56Z</time>
      </trkpt>
      <trkpt lat="36.803538" lon="-3.506447">
        <ele>325.783</ele>
        <time>2022-12-06T06:45:02Z</time>
      </trkpt>
      <trkpt lat="36.803540" lon="-3.506433">
        <ele>326.011</ele>
        <time>2022-12-06T06:45:03Z</time>
      </trkpt>
      <trkpt lat="36.803551" lon="-3.506382">
        <ele>326.709</ele>
        <time>2022-12-06T06:45:07Z</time>
      </trkpt>
      <trkpt lat="36.803563" lon="-3.506307">
        <ele>327.783</ele>
        <time>2022-12-06T06:45:13Z</time>
      </trkpt>
      <trkpt lat="36.803583" lon="-3.506219">
        <ele>329.224</ele>
        <time>2022-12-06T06:45:21Z</time>
      </trkpt>
      <trkpt lat="36.803603" lon="-3.506144">
        <ele>330.252</ele>
        <time>2022-12-06T06:45:27Z</time>
      </trkpt>
      <trkpt lat="36.803732" lon="-3.505979">
        <ele>331.089</ele>
        <time>2022-12-06T06:45:37Z</time>
      </trkpt>
      <trkpt lat="36.803875" lon="-3.505920">
        <ele>331.247</ele>
        <time>2022-12-06T06:45:43Z</time>
      </trkpt>
      <trkpt lat="36.803962" lon="-3.505908">
        <ele>332.381</ele>
        <time>2022-12-06T06:45:50Z</time>
      </trkpt>
      <trkpt lat="36.804040" lon="-3.505881">
        <ele>333.662</ele>
        <time>2022-12-06T06:45:57Z</time>
      </trkpt>
      <trkpt lat="36.804089" lon="-3.505863">
        <ele>334.769</ele>
        <time>2022-12-06T06:46:02Z</time>
      </trkpt>
      <trkpt lat="36.804148" lon="-3.505842">
        <ele>336.020</ele>
        <time>2022-12-06T06:46:08Z</time>
      </trkpt>
      <trkpt lat="36.804181" lon="-3.505790">
        <ele>337.238</ele>
        <time>2022-12-06T06:46:13Z</time>
      </trkpt>
      <trkpt lat="36.804204" lon="-3.505765">
        <ele>338.370</ele>
        <time>2022-12-06T06:46:16Z</time>
      </trkpt>
      <trkpt lat="36.804210" lon="-3.505759">
        <ele>338.617</ele>
        <time>2022-12-06T06:46:17Z</time>
      </trkpt>
      <trkpt lat="36.804242" lon="-3.505738">
        <ele>339.609</ele>
        <time>2022-12-06T06:46:20Z</time>
      </trkpt>
      <trkpt lat="36.804253" lon="-3.505733">
        <ele>339.774</ele>
        <time>2022-12-06T06:46:21Z</time>
      </trkpt>
      <trkpt lat="36.804311" lon="-3.505699">
        <ele>340.675</ele>
        <time>2022-12-06T06:46:26Z</time>
      </trkpt>
      <trkpt lat="36.804462" lon="-3.505570">
        <ele>339.753</ele>
        <time>2022-12-06T06:46:40Z</time>
      </trkpt>
      <trkpt lat="36.804497" lon="-3.505529">
        <ele>339.660</ele>
        <time>2022-12-06T06:46:43Z</time>
      </trkpt>
      <trkpt lat="36.804650" lon="-3.505404">
        <ele>339.348</ele>
        <time>2022-12-06T06:46:51Z</time>
      </trkpt>
      <trkpt lat="36.804823" lon="-3.505317">
        <ele>338.792</ele>
        <time>2022-12-06T06:46:58Z</time>
      </trkpt>
      <trkpt lat="36.804986" lon="-3.505194">
        <ele>338.783</ele>
        <time>2022-12-06T06:47:05Z</time>
      </trkpt>
      <trkpt lat="36.805032" lon="-3.505149">
        <ele>338.660</ele>
        <time>2022-12-06T06:47:07Z</time>
      </trkpt>
      <trkpt lat="36.805134" lon="-3.504940">
        <ele>337.751</ele>
        <time>2022-12-06T06:47:14Z</time>
      </trkpt>
      <trkpt lat="36.805147" lon="-3.504909">
        <ele>337.333</ele>
        <time>2022-12-06T06:47:15Z</time>
      </trkpt>
      <trkpt lat="36.805238" lon="-3.504701">
        <ele>336.723</ele>
        <time>2022-12-06T06:47:22Z</time>
      </trkpt>
      <trkpt lat="36.805413" lon="-3.504733">
        <ele>336.615</ele>
        <time>2022-12-06T06:47:29Z</time>
      </trkpt>
      <trkpt lat="36.805464" lon="-3.504763">
        <ele>336.309</ele>
        <time>2022-12-06T06:47:31Z</time>
      </trkpt>
      <trkpt lat="36.805627" lon="-3.504867">
        <ele>336.244</ele>
        <time>2022-12-06T06:47:38Z</time>
      </trkpt>
      <trkpt lat="36.805799" lon="-3.504967">
        <ele>337.025</ele>
        <time>2022-12-06T06:47:46Z</time>
      </trkpt>
      <trkpt lat="36.805856" lon="-3.505013">
        <ele>337.323</ele>
        <time>2022-12-06T06:47:50Z</time>
      </trkpt>
      <trkpt lat="36.805888" lon="-3.505037">
        <ele>337.680</ele>
        <time>2022-12-06T06:47:53Z</time>
      </trkpt>
      <trkpt lat="36.805935" lon="-3.505016">
        <ele>337.338</ele>
        <time>2022-12-06T06:47:56Z</time>
      </trkpt>
      <trkpt lat="36.806005" lon="-3.504955">
        <ele>337.052</ele>
        <time>2022-12-06T06:48:02Z</time>
      </trkpt>
      <trkpt lat="36.806043" lon="-3.504954">
        <ele>337.063</ele>
        <time>2022-12-06T06:48:05Z</time>
      </trkpt>
      <trkpt lat="36.806122" lon="-3.504925">
        <ele>336.380</ele>
        <time>2022-12-06T06:48:09Z</time>
      </trkpt>
      <trkpt lat="36.806168" lon="-3.504913">
        <ele>335.351</ele>
        <time>2022-12-06T06:48:11Z</time>
      </trkpt>
      <trkpt lat="36.806210" lon="-3.504903">
        <ele>334.033</ele>
        <time>2022-12-06T06:48:13Z</time>
      </trkpt>
      <trkpt lat="36.806286" lon="-3.504874">
        <ele>332.723</ele>
        <time>2022-12-06T06:48:17Z</time>
      </trkpt>
      <trkpt lat="36.806375" lon="-3.504857">
        <ele>331.315</ele>
        <time>2022-12-06T06:48:22Z</time>
      </trkpt>
      <trkpt lat="36.806435" lon="-3.504857">
        <ele>330.009</ele>
        <time>2022-12-06T06:48:25Z</time>
      </trkpt>
      <trkpt lat="36.806496" lon="-3.504865">
        <ele>329.084</ele>
        <time>2022-12-06T06:48:28Z</time>
      </trkpt>
      <trkpt lat="36.806541" lon="-3.504857">
        <ele>327.735</ele>
        <time>2022-12-06T06:48:31Z</time>
      </trkpt>
      <trkpt lat="36.806568" lon="-3.504854">
        <ele>326.693</ele>
        <time>2022-12-06T06:48:33Z</time>
      </trkpt>
      <trkpt lat="36.806619" lon="-3.504845">
        <ele>325.210</ele>
        <time>2022-12-06T06:48:36Z</time>
      </trkpt>
      <trkpt lat="36.806674" lon="-3.504797">
        <ele>324.048</ele>
        <time>2022-12-06T06:48:39Z</time>
      </trkpt>
      <trkpt lat="36.806730" lon="-3.504726">
        <ele>322.752</ele>
        <time>2022-12-06T06:48:42Z</time>
      </trkpt>
      <trkpt lat="36.806836" lon="-3.504608">
        <ele>321.723</ele>
        <time>2022-12-06T06:48:48Z</time>
      </trkpt>
      <trkpt lat="36.806921" lon="-3.504413">
        <ele>321.360</ele>
        <time>2022-12-06T06:48:56Z</time>
      </trkpt>
      <trkpt lat="36.807028" lon="-3.504287">
        <ele>323.281</ele>
        <time>2022-12-06T06:49:04Z</time>
      </trkpt>
      <trkpt lat="36.807089" lon="-3.504296">
        <ele>324.247</ele>
        <time>2022-12-06T06:49:07Z</time>
      </trkpt>
      <trkpt lat="36.807179" lon="-3.504360">
        <ele>325.629</ele>
        <time>2022-12-06T06:49:12Z</time>
      </trkpt>
      <trkpt lat="36.807210" lon="-3.504398">
        <ele>326.621</ele>
        <time>2022-12-06T06:49:15Z</time>
      </trkpt>
      <trkpt lat="36.807215" lon="-3.504411">
        <ele>326.709</ele>
        <time>2022-12-06T06:49:16Z</time>
      </trkpt>
      <trkpt lat="36.807292" lon="-3.504514">
        <ele>327.775</ele>
        <time>2022-12-06T06:49:25Z</time>
      </trkpt>
      <trkpt lat="36.807409" lon="-3.504578">
        <ele>328.786</ele>
        <time>2022-12-06T06:49:35Z</time>
      </trkpt>
      <trkpt lat="36.807513" lon="-3.504644">
        <ele>329.764</ele>
        <time>2022-12-06T06:49:43Z</time>
      </trkpt>
      <trkpt lat="36.807578" lon="-3.504678">
        <ele>331.051</ele>
        <time>2022-12-06T06:49:49Z</time>
      </trkpt>
      <trkpt lat="36.807644" lon="-3.504689">
        <ele>332.299</ele>
        <time>2022-12-06T06:49:55Z</time>
      </trkpt>
      <trkpt lat="36.807720" lon="-3.504714">
        <ele>333.333</ele>
        <time>2022-12-06T06:50:02Z</time>
      </trkpt>
      <trkpt lat="36.807802" lon="-3.504738">
        <ele>334.354</ele>
        <time>2022-12-06T06:50:09Z</time>
      </trkpt>
      <trkpt lat="36.807880" lon="-3.504762">
        <ele>335.371</ele>
        <time>2022-12-06T06:50:15Z</time>
      </trkpt>
      <trkpt lat="36.807978" lon="-3.504813">
        <ele>336.622</ele>
        <time>2022-12-06T06:50:23Z</time>
      </trkpt>
      <trkpt lat="36.808063" lon="-3.504851">
        <ele>337.669</ele>
        <time>2022-12-06T06:50:30Z</time>
      </trkpt>
      <trkpt lat="36.808143" lon="-3.504871">
        <ele>338.604</ele>
        <time>2022-12-06T06:50:37Z</time>
      </trkpt>
      <trkpt lat="36.808229" lon="-3.504892">
        <ele>339.624</ele>
        <time>2022-12-06T06:50:44Z</time>
      </trkpt>
      <trkpt lat="36.808350" lon="-3.504911">
        <ele>340.709</ele>
        <time>2022-12-06T06:50:54Z</time>
      </trkpt>
      <trkpt lat="36.808413" lon="-3.504918">
        <ele>342.037</ele>
        <time>2022-12-06T06:50:59Z</time>
      </trkpt>
      <trkpt lat="36.808476" lon="-3.504918">
        <ele>342.678</ele>
        <time>2022-12-06T06:51:04Z</time>
      </trkpt>
      <trkpt lat="36.808522" lon="-3.504915">
        <ele>343.036</ele>
        <time>2022-12-06T06:51:08Z</time>
      </trkpt>
      <trkpt lat="36.808613" lon="-3.504924">
        <ele>344.033</ele>
        <time>2022-12-06T06:51:15Z</time>
      </trkpt>
      <trkpt lat="36.808709" lon="-3.504948">
        <ele>345.291</ele>
        <time>2022-12-06T06:51:23Z</time>
      </trkpt>
      <trkpt lat="36.808797" lon="-3.504970">
        <ele>346.225</ele>
        <time>2022-12-06T06:51:30Z</time>
      </trkpt>
      <trkpt lat="36.808845" lon="-3.504978">
        <ele>347.216</ele>
        <time>2022-12-06T06:51:35Z</time>
      </trkpt>
      <trkpt lat="36.808900" lon="-3.505013">
        <ele>348.323</ele>
        <time>2022-12-06T06:51:41Z</time>
      </trkpt>
      <trkpt lat="36.808959" lon="-3.505028">
        <ele>349.244</ele>
        <time>2022-12-06T06:51:46Z</time>
      </trkpt>
      <trkpt lat="36.808990" lon="-3.505017">
        <ele>349.643</ele>
        <time>2022-12-06T06:51:49Z</time>
      </trkpt>
      <trkpt lat="36.809150" lon="-3.504969">
        <ele>350.664</ele>
        <time>2022-12-06T06:52:00Z</time>
      </trkpt>
      <trkpt lat="36.809234" lon="-3.504957">
        <ele>351.610</ele>
        <time>2022-12-06T06:52:07Z</time>
      </trkpt>
      <trkpt lat="36.809303" lon="-3.504956">
        <ele>352.709</ele>
        <time>2022-12-06T06:52:13Z</time>
      </trkpt>
      <trkpt lat="36.809364" lon="-3.504978">
        <ele>353.735</ele>
        <time>2022-12-06T06:52:19Z</time>
      </trkpt>
      <trkpt lat="36.809421" lon="-3.504995">
        <ele>355.046</ele>
        <time>2022-12-06T06:52:24Z</time>
      </trkpt>
      <trkpt lat="36.809459" lon="-3.505004">
        <ele>356.054</ele>
        <time>2022-12-06T06:52:28Z</time>
      </trkpt>
      <trkpt lat="36.809518" lon="-3.505025">
        <ele>357.061</ele>
        <time>2022-12-06T06:52:34Z</time>
      </trkpt>
      <trkpt lat="36.809566" lon="-3.505046">
        <ele>358.329</ele>
        <time>2022-12-06T06:52:39Z</time>
      </trkpt>
      <trkpt lat="36.809623" lon="-3.505059">
        <ele>359.393</ele>
        <time>2022-12-06T06:52:44Z</time>
      </trkpt>
      <trkpt lat="36.809685" lon="-3.505055">
        <ele>360.334</ele>
        <time>2022-12-06T06:52:50Z</time>
      </trkpt>
      <trkpt lat="36.809748" lon="-3.505057">
        <ele>361.381</ele>
        <time>2022-12-06T06:52:56Z</time>
      </trkpt>
      <trkpt lat="36.809805" lon="-3.505064">
        <ele>362.382</ele>
        <time>2022-12-06T06:53:01Z</time>
      </trkpt>
      <trkpt lat="36.809834" lon="-3.505075">
        <ele>363.036</ele>
        <time>2022-12-06T06:53:04Z</time>
      </trkpt>
      <trkpt lat="36.809867" lon="-3.505109">
        <ele>363.617</ele>
        <time>2022-12-06T06:53:08Z</time>
      </trkpt>
      <trkpt lat="36.809916" lon="-3.505151">
        <ele>364.618</ele>
        <time>2022-12-06T06:53:14Z</time>
      </trkpt>
      <trkpt lat="36.809948" lon="-3.505149">
        <ele>365.609</ele>
        <time>2022-12-06T06:53:19Z</time>
      </trkpt>
      <trkpt lat="36.809953" lon="-3.505146">
        <ele>365.724</ele>
        <time>2022-12-06T06:53:20Z</time>
      </trkpt>
      <trkpt lat="36.809983" lon="-3.505155">
        <ele>367.025</ele>
        <time>2022-12-06T06:53:25Z</time>
      </trkpt>
      <trkpt lat="36.810021" lon="-3.505163">
        <ele>368.213</ele>
        <time>2022-12-06T06:53:30Z</time>
      </trkpt>
      <trkpt lat="36.810054" lon="-3.505192">
        <ele>369.390</ele>
        <time>2022-12-06T06:53:35Z</time>
      </trkpt>
      <trkpt lat="36.810072" lon="-3.505228">
        <ele>370.648</ele>
        <time>2022-12-06T06:53:41Z</time>
      </trkpt>
      <trkpt lat="36.810086" lon="-3.505263">
        <ele>371.692</ele>
        <time>2022-12-06T06:53:46Z</time>
      </trkpt>
      <trkpt lat="36.810109" lon="-3.505287">
        <ele>372.643</ele>
        <time>2022-12-06T06:53:51Z</time>
      </trkpt>
      <trkpt lat="36.810149" lon="-3.505295">
        <ele>373.770</ele>
        <time>2022-12-06T06:53:56Z</time>
      </trkpt>
      <trkpt lat="36.810178" lon="-3.505297">
        <ele>374.721</ele>
        <time>2022-12-06T06:54:00Z</time>
      </trkpt>
      <trkpt lat="36.810224" lon="-3.505302">
        <ele>376.072</ele>
        <time>2022-12-06T06:54:05Z</time>
      </trkpt>
      <trkpt lat="36.810264" lon="-3.505291">
        <ele>377.013</ele>
        <time>2022-12-06T06:54:09Z</time>
      </trkpt>
      <trkpt lat="36.810274" lon="-3.505291">
        <ele>377.214</ele>
        <time>2022-12-06T06:54:10Z</time>
      </trkpt>
      <trkpt lat="36.810310" lon="-3.505269">
        <ele>378.209</ele>
        <time>2022-12-06T06:54:15Z</time>
      </trkpt>
      <trkpt lat="36.810367" lon="-3.505250">
        <ele>379.028</ele>
        <time>2022-12-06T06:54:21Z</time>
      </trkpt>
      <trkpt lat="36.810381" lon="-3.505250">
        <ele>379.249</ele>
        <time>2022-12-06T06:54:23Z</time>
      </trkpt>
      <trkpt lat="36.810419" lon="-3.505252">
        <ele>380.377</ele>
        <time>2022-12-06T06:54:27Z</time>
      </trkpt>
      <trkpt lat="36.810443" lon="-3.505259">
        <ele>381.344</ele>
        <time>2022-12-06T06:54:30Z</time>
      </trkpt>
      <trkpt lat="36.810463" lon="-3.505257">
        <ele>382.032</ele>
        <time>2022-12-06T06:54:32Z</time>
      </trkpt>
      <trkpt lat="36.810485" lon="-3.505251">
        <ele>382.366</ele>
        <time>2022-12-06T06:54:35Z</time>
      </trkpt>
      <trkpt lat="36.810492" lon="-3.505251">
        <ele>382.667</ele>
        <time>2022-12-06T06:54:36Z</time>
      </trkpt>
      <trkpt lat="36.810541" lon="-3.505238">
        <ele>383.654</ele>
        <time>2022-12-06T06:54:41Z</time>
      </trkpt>
      <trkpt lat="36.810552" lon="-3.505235">
        <ele>384.045</ele>
        <time>2022-12-06T06:54:42Z</time>
      </trkpt>
      <trkpt lat="36.810632" lon="-3.505200">
        <ele>384.717</ele>
        <time>2022-12-06T06:54:50Z</time>
      </trkpt>
      <trkpt lat="36.810719" lon="-3.505187">
        <ele>385.787</ele>
        <time>2022-12-06T06:54:58Z</time>
      </trkpt>
      <trkpt lat="36.810865" lon="-3.505149">
        <ele>386.715</ele>
        <time>2022-12-06T06:55:10Z</time>
      </trkpt>
      <trkpt lat="36.810968" lon="-3.504980">
        <ele>387.609</ele>
        <time>2022-12-06T06:55:24Z</time>
      </trkpt>
      <trkpt lat="36.810977" lon="-3.504958">
        <ele>387.742</ele>
        <time>2022-12-06T06:55:26Z</time>
      </trkpt>
      <trkpt lat="36.811013" lon="-3.504902">
        <ele>389.223</ele>
        <time>2022-12-06T06:55:31Z</time>
      </trkpt>
      <trkpt lat="36.811044" lon="-3.504840">
        <ele>390.311</ele>
        <time>2022-12-06T06:55:37Z</time>
      </trkpt>
      <trkpt lat="36.811065" lon="-3.504818">
        <ele>391.038</ele>
        <time>2022-12-06T06:55:40Z</time>
      </trkpt>
      <trkpt lat="36.811076" lon="-3.504810">
        <ele>391.676</ele>
        <time>2022-12-06T06:55:42Z</time>
      </trkpt>
      <trkpt lat="36.811097" lon="-3.504801">
        <ele>392.710</ele>
        <time>2022-12-06T06:55:46Z</time>
      </trkpt>
      <trkpt lat="36.811132" lon="-3.504781">
        <ele>394.081</ele>
        <time>2022-12-06T06:55:50Z</time>
      </trkpt>
      <trkpt lat="36.811171" lon="-3.504759">
        <ele>395.268</ele>
        <time>2022-12-06T06:55:55Z</time>
      </trkpt>
      <trkpt lat="36.811187" lon="-3.504755">
        <ele>395.759</ele>
        <time>2022-12-06T06:55:57Z</time>
      </trkpt>
      <trkpt lat="36.811199" lon="-3.504743">
        <ele>396.232</ele>
        <time>2022-12-06T06:55:59Z</time>
      </trkpt>
      <trkpt lat="36.811234" lon="-3.504690">
        <ele>397.392</ele>
        <time>2022-12-06T06:56:05Z</time>
      </trkpt>
      <trkpt lat="36.811248" lon="-3.504656">
        <ele>398.311</ele>
        <time>2022-12-06T06:56:11Z</time>
      </trkpt>
      <trkpt lat="36.811290" lon="-3.504668">
        <ele>399.609</ele>
        <time>2022-12-06T06:56:17Z</time>
      </trkpt>
      <trkpt lat="36.811326" lon="-3.504669">
        <ele>400.084</ele>
        <time>2022-12-06T06:56:20Z</time>
      </trkpt>
      <trkpt lat="36.811338" lon="-3.504670">
        <ele>400.675</ele>
        <time>2022-12-06T06:56:22Z</time>
      </trkpt>
      <trkpt lat="36.811346" lon="-3.504673">
        <ele>401.273</ele>
        <time>2022-12-06T06:56:24Z</time>
      </trkpt>
      <trkpt lat="36.811360" lon="-3.504676">
        <ele>401.680</ele>
        <time>2022-12-06T06:56:26Z</time>
      </trkpt>
      <trkpt lat="36.811386" lon="-3.504669">
        <ele>402.798</ele>
        <time>2022-12-06T06:56:30Z</time>
      </trkpt>
      <trkpt lat="36.811412" lon="-3.504649">
        <ele>404.062</ele>
        <time>2022-12-06T06:56:34Z</time>
      </trkpt>
      <trkpt lat="36.811440" lon="-3.504603">
        <ele>405.233</ele>
        <time>2022-12-06T06:56:39Z</time>
      </trkpt>
      <trkpt lat="36.811458" lon="-3.504581">
        <ele>405.650</ele>
        <time>2022-12-06T06:56:41Z</time>
      </trkpt>
      <trkpt lat="36.811478" lon="-3.504546">
        <ele>406.381</ele>
        <time>2022-12-06T06:56:44Z</time>
      </trkpt>
      <trkpt lat="36.811500" lon="-3.504485">
        <ele>407.049</ele>
        <time>2022-12-06T06:56:49Z</time>
      </trkpt>
      <trkpt lat="36.811531" lon="-3.504442">
        <ele>407.302</ele>
        <time>2022-12-06T06:56:53Z</time>
      </trkpt>
      <trkpt lat="36.811539" lon="-3.504399">
        <ele>408.322</ele>
        <time>2022-12-06T06:56:57Z</time>
      </trkpt>
      <trkpt lat="36.811537" lon="-3.504386">
        <ele>408.609</ele>
        <time>2022-12-06T06:56:58Z</time>
      </trkpt>
      <trkpt lat="36.811544" lon="-3.504321">
        <ele>409.655</ele>
        <time>2022-12-06T06:57:04Z</time>
      </trkpt>
      <trkpt lat="36.811551" lon="-3.504295">
        <ele>410.266</ele>
        <time>2022-12-06T06:57:07Z</time>
      </trkpt>
      <trkpt lat="36.811560" lon="-3.504280">
        <ele>410.714</ele>
        <time>2022-12-06T06:57:09Z</time>
      </trkpt>
      <trkpt lat="36.811566" lon="-3.504265">
        <ele>411.371</ele>
        <time>2022-12-06T06:57:11Z</time>
      </trkpt>
      <trkpt lat="36.811575" lon="-3.504254">
        <ele>412.059</ele>
        <time>2022-12-06T06:57:13Z</time>
      </trkpt>
      <trkpt lat="36.811593" lon="-3.504243">
        <ele>413.053</ele>
        <time>2022-12-06T06:57:17Z</time>
      </trkpt>
      <trkpt lat="36.811610" lon="-3.504220">
        <ele>414.254</ele>
        <time>2022-12-06T06:57:21Z</time>
      </trkpt>
      <trkpt lat="36.811635" lon="-3.504221">
        <ele>415.271</ele>
        <time>2022-12-06T06:57:25Z</time>
      </trkpt>
      <trkpt lat="36.811656" lon="-3.504219">
        <ele>415.752</ele>
        <time>2022-12-06T06:57:28Z</time>
      </trkpt>
      <trkpt lat="36.811672" lon="-3.504209">
        <ele>416.346</ele>
        <time>2022-12-06T06:57:30Z</time>
      </trkpt>
      <trkpt lat="36.811682" lon="-3.504201">
        <ele>416.788</ele>
        <time>2022-12-06T06:57:32Z</time>
      </trkpt>
      <trkpt lat="36.811695" lon="-3.504196">
        <ele>417.316</ele>
        <time>2022-12-06T06:57:35Z</time>
      </trkpt>
      <trkpt lat="36.811721" lon="-3.504179">
        <ele>418.609</ele>
        <time>2022-12-06T06:57:40Z</time>
      </trkpt>
      <trkpt lat="36.811752" lon="-3.504161">
        <ele>419.615</ele>
        <time>2022-12-06T06:57:45Z</time>
      </trkpt>
      <trkpt lat="36.811790" lon="-3.504121">
        <ele>420.746</ele>
        <time>2022-12-06T06:57:50Z</time>
      </trkpt>
      <trkpt lat="36.811839" lon="-3.504099">
        <ele>421.764</ele>
        <time>2022-12-06T06:57:56Z</time>
      </trkpt>
      <trkpt lat="36.811849" lon="-3.504096">
        <ele>422.061</ele>
        <time>2022-12-06T06:57:57Z</time>
      </trkpt>
      <trkpt lat="36.811907" lon="-3.504068">
        <ele>423.059</ele>
        <time>2022-12-06T06:58:03Z</time>
      </trkpt>
      <trkpt lat="36.811971" lon="-3.503992">
        <ele>424.033</ele>
        <time>2022-12-06T06:58:11Z</time>
      </trkpt>
      <trkpt lat="36.812060" lon="-3.503862">
        <ele>425.024</ele>
        <time>2022-12-06T06:58:22Z</time>
      </trkpt>
      <trkpt lat="36.812213" lon="-3.503745">
        <ele>426.021</ele>
        <time>2022-12-06T06:58:35Z</time>
      </trkpt>
      <trkpt lat="36.812233" lon="-3.503731">
        <ele>426.232</ele>
        <time>2022-12-06T06:58:36Z</time>
      </trkpt>
      <trkpt lat="36.812289" lon="-3.503702">
        <ele>426.778</ele>
        <time>2022-12-06T06:58:41Z</time>
      </trkpt>
      <trkpt lat="36.812344" lon="-3.503701">
        <ele>427.233</ele>
        <time>2022-12-06T06:58:46Z</time>
      </trkpt>
      <trkpt lat="36.812429" lon="-3.503643">
        <ele>427.726</ele>
        <time>2022-12-06T06:58:53Z</time>
      </trkpt>
      <trkpt lat="36.812461" lon="-3.503611">
        <ele>428.209</ele>
        <time>2022-12-06T06:58:56Z</time>
      </trkpt>
      <trkpt lat="36.812560" lon="-3.503510">
        <ele>429.228</ele>
        <time>2022-12-06T06:59:02Z</time>
      </trkpt>
      <trkpt lat="36.812686" lon="-3.503350">
        <ele>429.019</ele>
        <time>2022-12-06T06:59:11Z</time>
      </trkpt>
      <trkpt lat="36.812858" lon="-3.503260">
        <ele>428.257</ele>
        <time>2022-12-06T06:59:20Z</time>
      </trkpt>
      <trkpt lat="36.812877" lon="-3.503252">
        <ele>428.214</ele>
        <time>2022-12-06T06:59:21Z</time>
      </trkpt>
      <trkpt lat="36.812992" lon="-3.503129">
        <ele>429.352</ele>
        <time>2022-12-06T06:59:29Z</time>
      </trkpt>
      <trkpt lat="36.813180" lon="-3.503114">
        <ele>430.376</ele>
        <time>2022-12-06T06:59:40Z</time>
      </trkpt>
      <trkpt lat="36.813376" lon="-3.503109">
        <ele>431.377</ele>
        <time>2022-12-06T06:59:49Z</time>
      </trkpt>
      <trkpt lat="36.813389" lon="-3.503109">
        <ele>431.624</ele>
        <time>2022-12-06T06:59:50Z</time>
      </trkpt>
      <trkpt lat="36.813550" lon="-3.503187">
        <ele>431.055</ele>
        <time>2022-12-06T07:00:03Z</time>
      </trkpt>
      <trkpt lat="36.813715" lon="-3.503291">
        <ele>430.649</ele>
        <time>2022-12-06T07:00:16Z</time>
      </trkpt>
      <trkpt lat="36.813879" lon="-3.503400">
        <ele>431.202</ele>
        <time>2022-12-06T07:00:29Z</time>
      </trkpt>
      <trkpt lat="36.813963" lon="-3.503461">
        <ele>432.622</ele>
        <time>2022-12-06T07:00:37Z</time>
      </trkpt>
      <trkpt lat="36.814010" lon="-3.503502">
        <ele>433.709</ele>
        <time>2022-12-06T07:00:42Z</time>
      </trkpt>
      <trkpt lat="36.814055" lon="-3.503555">
        <ele>435.085</ele>
        <time>2022-12-06T07:00:47Z</time>
      </trkpt>
      <trkpt lat="36.814147" lon="-3.503701">
        <ele>436.046</ele>
        <time>2022-12-06T07:00:57Z</time>
      </trkpt>
      <trkpt lat="36.814281" lon="-3.503884">
        <ele>435.744</ele>
        <time>2022-12-06T07:01:06Z</time>
      </trkpt>
      <trkpt lat="36.814432" lon="-3.504051">
        <ele>435.691</ele>
        <time>2022-12-06T07:01:14Z</time>
      </trkpt>
      <trkpt lat="36.814579" lon="-3.504184">
        <ele>435.619</ele>
        <time>2022-12-06T07:01:21Z</time>
      </trkpt>
      <trkpt lat="36.814750" lon="-3.504303">
        <ele>436.013</ele>
        <time>2022-12-06T07:01:29Z</time>
      </trkpt>
      <trkpt lat="36.814816" lon="-3.504321">
        <ele>435.624</ele>
        <time>2022-12-06T07:01:33Z</time>
      </trkpt>
      <trkpt lat="36.814840" lon="-3.504446">
        <ele>435.231</ele>
        <time>2022-12-06T07:03:37Z</time>
      </trkpt>
      <trkpt lat="36.814846" lon="-3.504467">
        <ele>434.692</ele>
        <time>2022-12-06T07:03:39Z</time>
      </trkpt>
      <trkpt lat="36.814856" lon="-3.504488">
        <ele>434.027</ele>
        <time>2022-12-06T07:03:41Z</time>
      </trkpt>
      <trkpt lat="36.814976" lon="-3.504549">
        <ele>434.068</ele>
        <time>2022-12-06T07:03:54Z</time>
      </trkpt>
      <trkpt lat="36.815019" lon="-3.504605">
        <ele>433.314</ele>
        <time>2022-12-06T07:04:02Z</time>
      </trkpt>
      <trkpt lat="36.815038" lon="-3.504622">
        <ele>433.209</ele>
        <time>2022-12-06T07:04:05Z</time>
      </trkpt>
      <trkpt lat="36.815056" lon="-3.504648">
        <ele>433.053</ele>
        <time>2022-12-06T07:04:09Z</time>
      </trkpt>
      <trkpt lat="36.815063" lon="-3.504690">
        <ele>432.664</ele>
        <time>2022-12-06T07:04:16Z</time>
      </trkpt>
      <trkpt lat="36.815065" lon="-3.504697">
        <ele>432.332</ele>
        <time>2022-12-06T07:04:17Z</time>
      </trkpt>
      <trkpt lat="36.815087" lon="-3.504729">
        <ele>431.799</ele>
        <time>2022-12-06T07:04:20Z</time>
      </trkpt>
      <trkpt lat="36.815091" lon="-3.504782">
        <ele>431.277</ele>
        <time>2022-12-06T07:04:24Z</time>
      </trkpt>
      <trkpt lat="36.815100" lon="-3.504815">
        <ele>430.361</ele>
        <time>2022-12-06T07:04:28Z</time>
      </trkpt>
      <trkpt lat="36.815115" lon="-3.504825">
        <ele>430.242</ele>
        <time>2022-12-06T07:04:30Z</time>
      </trkpt>
      <trkpt lat="36.815118" lon="-3.504835">
        <ele>430.079</ele>
        <time>2022-12-06T07:04:31Z</time>
      </trkpt>
      <trkpt lat="36.815129" lon="-3.504906">
        <ele>429.070</ele>
        <time>2022-12-06T07:04:37Z</time>
      </trkpt>
      <trkpt lat="36.815134" lon="-3.504909">
        <ele>428.731</ele>
        <time>2022-12-06T07:04:38Z</time>
      </trkpt>
      <trkpt lat="36.815159" lon="-3.504919">
        <ele>428.061</ele>
        <time>2022-12-06T07:04:41Z</time>
      </trkpt>
      <trkpt lat="36.815180" lon="-3.504945">
        <ele>427.307</ele>
        <time>2022-12-06T07:04:44Z</time>
      </trkpt>
      <trkpt lat="36.815177" lon="-3.504967">
        <ele>427.209</ele>
        <time>2022-12-06T07:04:46Z</time>
      </trkpt>
      <trkpt lat="36.815177" lon="-3.504978">
        <ele>427.054</ele>
        <time>2022-12-06T07:04:47Z</time>
      </trkpt>
      <trkpt lat="36.815187" lon="-3.505041">
        <ele>426.275</ele>
        <time>2022-12-06T07:04:51Z</time>
      </trkpt>
      <trkpt lat="36.815194" lon="-3.505075">
        <ele>425.673</ele>
        <time>2022-12-06T07:04:53Z</time>
      </trkpt>
      <trkpt lat="36.815199" lon="-3.505096">
        <ele>424.670</ele>
        <time>2022-12-06T07:04:55Z</time>
      </trkpt>
      <trkpt lat="36.815206" lon="-3.505117">
        <ele>424.038</ele>
        <time>2022-12-06T07:04:57Z</time>
      </trkpt>
      <trkpt lat="36.815207" lon="-3.505122">
        <ele>423.622</ele>
        <time>2022-12-06T07:04:59Z</time>
      </trkpt>
      <trkpt lat="36.815205" lon="-3.505198">
        <ele>422.763</ele>
        <time>2022-12-06T07:05:07Z</time>
      </trkpt>
      <trkpt lat="36.815219" lon="-3.505238">
        <ele>422.370</ele>
        <time>2022-12-06T07:05:09Z</time>
      </trkpt>
      <trkpt lat="36.815238" lon="-3.505267">
        <ele>421.241</ele>
        <time>2022-12-06T07:05:11Z</time>
      </trkpt>
      <trkpt lat="36.815268" lon="-3.505293">
        <ele>420.069</ele>
        <time>2022-12-06T07:05:14Z</time>
      </trkpt>
      <trkpt lat="36.815295" lon="-3.505328">
        <ele>419.604</ele>
        <time>2022-12-06T07:05:17Z</time>
      </trkpt>
      <trkpt lat="36.815344" lon="-3.505327">
        <ele>419.024</ele>
        <time>2022-12-06T07:05:20Z</time>
      </trkpt>
      <trkpt lat="36.815439" lon="-3.505320">
        <ele>418.609</ele>
        <time>2022-12-06T07:05:25Z</time>
      </trkpt>
      <trkpt lat="36.815609" lon="-3.505312">
        <ele>418.777</ele>
        <time>2022-12-06T07:05:33Z</time>
      </trkpt>
      <trkpt lat="36.815776" lon="-3.505337">
        <ele>417.738</ele>
        <time>2022-12-06T07:05:40Z</time>
      </trkpt>
      <trkpt lat="36.815956" lon="-3.505260">
        <ele>417.666</ele>
        <time>2022-12-06T07:05:48Z</time>
      </trkpt>
      <trkpt lat="36.816139" lon="-3.505237">
        <ele>417.213</ele>
        <time>2022-12-06T07:05:57Z</time>
      </trkpt>
      <trkpt lat="36.816227" lon="-3.505225">
        <ele>416.771</ele>
        <time>2022-12-06T07:06:03Z</time>
      </trkpt>
      <trkpt lat="36.816417" lon="-3.505265">
        <ele>416.015</ele>
        <time>2022-12-06T07:06:17Z</time>
      </trkpt>
      <trkpt lat="36.816462" lon="-3.505277">
        <ele>415.796</ele>
        <time>2022-12-06T07:06:20Z</time>
      </trkpt>
      <trkpt lat="36.816616" lon="-3.505324">
        <ele>414.763</ele>
        <time>2022-12-06T07:06:29Z</time>
      </trkpt>
      <trkpt lat="36.816798" lon="-3.505344">
        <ele>414.274</ele>
        <time>2022-12-06T07:06:41Z</time>
      </trkpt>
      <trkpt lat="36.816982" lon="-3.505365">
        <ele>414.253</ele>
        <time>2022-12-06T07:06:53Z</time>
      </trkpt>
      <trkpt lat="36.817168" lon="-3.505348">
        <ele>414.004</ele>
        <time>2022-12-06T07:07:07Z</time>
      </trkpt>
      <trkpt lat="36.817350" lon="-3.505274">
        <ele>414.214</ele>
        <time>2022-12-06T07:07:19Z</time>
      </trkpt>
      <trkpt lat="36.817426" lon="-3.505271">
        <ele>413.609</ele>
        <time>2022-12-06T07:07:23Z</time>
      </trkpt>
      <trkpt lat="36.817523" lon="-3.505301">
        <ele>412.616</ele>
        <time>2022-12-06T07:07:27Z</time>
      </trkpt>
      <trkpt lat="36.817578" lon="-3.505316">
        <ele>411.357</ele>
        <time>2022-12-06T07:07:29Z</time>
      </trkpt>
      <trkpt lat="36.817668" lon="-3.505340">
        <ele>410.035</ele>
        <time>2022-12-06T07:07:32Z</time>
      </trkpt>
      <trkpt lat="36.817727" lon="-3.505361">
        <ele>408.722</ele>
        <time>2022-12-06T07:07:34Z</time>
      </trkpt>
      <trkpt lat="36.817819" lon="-3.505388">
        <ele>407.620</ele>
        <time>2022-12-06T07:07:37Z</time>
      </trkpt>
      <trkpt lat="36.817909" lon="-3.505399">
        <ele>406.394</ele>
        <time>2022-12-06T07:07:40Z</time>
      </trkpt>
      <trkpt lat="36.818025" lon="-3.505410">
        <ele>405.215</ele>
        <time>2022-12-06T07:07:44Z</time>
      </trkpt>
      <trkpt lat="36.818138" lon="-3.505422">
        <ele>404.072</ele>
        <time>2022-12-06T07:07:48Z</time>
      </trkpt>
      <trkpt lat="36.818218" lon="-3.505431">
        <ele>402.663</ele>
        <time>2022-12-06T07:07:51Z</time>
      </trkpt>
      <trkpt lat="36.818305" lon="-3.505444">
        <ele>401.236</ele>
        <time>2022-12-06T07:07:54Z</time>
      </trkpt>
      <trkpt lat="36.818368" lon="-3.505450">
        <ele>400.217</ele>
        <time>2022-12-06T07:07:56Z</time>
      </trkpt>
      <trkpt lat="36.818426" lon="-3.505471">
        <ele>399.218</ele>
        <time>2022-12-06T07:07:58Z</time>
      </trkpt>
      <trkpt lat="36.818479" lon="-3.505498">
        <ele>398.009</ele>
        <time>2022-12-06T07:08:00Z</time>
      </trkpt>
      <trkpt lat="36.818583" lon="-3.505555">
        <ele>396.774</ele>
        <time>2022-12-06T07:08:04Z</time>
      </trkpt>
      <trkpt lat="36.818646" lon="-3.505604">
        <ele>395.635</ele>
        <time>2022-12-06T07:08:07Z</time>
      </trkpt>
      <trkpt lat="36.818742" lon="-3.505648">
        <ele>394.663</ele>
        <time>2022-12-06T07:08:11Z</time>
      </trkpt>
      <trkpt lat="36.818846" lon="-3.505624">
        <ele>393.350</ele>
        <time>2022-12-06T07:08:15Z</time>
      </trkpt>
      <trkpt lat="36.818916" lon="-3.505590">
        <ele>392.328</ele>
        <time>2022-12-06T07:08:18Z</time>
      </trkpt>
      <trkpt lat="36.819074" lon="-3.505586">
        <ele>391.252</ele>
        <time>2022-12-06T07:08:24Z</time>
      </trkpt>
      <trkpt lat="36.819173" lon="-3.505678">
        <ele>389.643</ele>
        <time>2022-12-06T07:08:29Z</time>
      </trkpt>
      <trkpt lat="36.819231" lon="-3.505749">
        <ele>388.610</ele>
        <time>2022-12-06T07:08:32Z</time>
      </trkpt>
      <trkpt lat="36.819288" lon="-3.505825">
        <ele>387.371</ele>
        <time>2022-12-06T07:08:35Z</time>
      </trkpt>
      <trkpt lat="36.819366" lon="-3.505910">
        <ele>386.234</ele>
        <time>2022-12-06T07:08:39Z</time>
      </trkpt>
      <trkpt lat="36.819438" lon="-3.505927">
        <ele>385.255</ele>
        <time>2022-12-06T07:08:42Z</time>
      </trkpt>
      <trkpt lat="36.819511" lon="-3.505932">
        <ele>384.210</ele>
        <time>2022-12-06T07:08:45Z</time>
      </trkpt>
      <trkpt lat="36.819535" lon="-3.505933">
        <ele>383.709</ele>
        <time>2022-12-06T07:08:46Z</time>
      </trkpt>
      <trkpt lat="36.819632" lon="-3.505947">
        <ele>382.364</ele>
        <time>2022-12-06T07:08:50Z</time>
      </trkpt>
      <trkpt lat="36.819727" lon="-3.505974">
        <ele>381.335</ele>
        <time>2022-12-06T07:08:54Z</time>
      </trkpt>
      <trkpt lat="36.819775" lon="-3.505979">
        <ele>380.223</ele>
        <time>2022-12-06T07:08:56Z</time>
      </trkpt>
      <trkpt lat="36.819851" lon="-3.505998">
        <ele>379.260</ele>
        <time>2022-12-06T07:08:59Z</time>
      </trkpt>
      <trkpt lat="36.819928" lon="-3.506020">
        <ele>377.758</ele>
        <time>2022-12-06T07:09:02Z</time>
      </trkpt>
      <trkpt lat="36.820014" lon="-3.506038">
        <ele>376.652</ele>
        <time>2022-12-06T07:09:05Z</time>
      </trkpt>
      <trkpt lat="36.820124" lon="-3.506062">
        <ele>375.053</ele>
        <time>2022-12-06T07:09:09Z</time>
      </trkpt>
      <trkpt lat="36.820179" lon="-3.506073">
        <ele>373.680</ele>
        <time>2022-12-06T07:09:11Z</time>
      </trkpt>
      <trkpt lat="36.820257" lon="-3.506093">
        <ele>372.611</ele>
        <time>2022-12-06T07:09:14Z</time>
      </trkpt>
      <trkpt lat="36.820309" lon="-3.506111">
        <ele>371.633</ele>
        <time>2022-12-06T07:09:16Z</time>
      </trkpt>
      <trkpt lat="36.820360" lon="-3.506128">
        <ele>370.223</ele>
        <time>2022-12-06T07:09:18Z</time>
      </trkpt>
      <trkpt lat="36.820409" lon="-3.506142">
        <ele>369.015</ele>
        <time>2022-12-06T07:09:20Z</time>
      </trkpt>
      <trkpt lat="36.820491" lon="-3.506162">
        <ele>367.709</ele>
        <time>2022-12-06T07:09:23Z</time>
      </trkpt>
      <trkpt lat="36.820569" lon="-3.506183">
        <ele>366.694</ele>
        <time>2022-12-06T07:09:26Z</time>
      </trkpt>
      <trkpt lat="36.820623" lon="-3.506196">
        <ele>365.355</ele>
        <time>2022-12-06T07:09:28Z</time>
      </trkpt>
      <trkpt lat="36.820675" lon="-3.506209">
        <ele>364.363</ele>
        <time>2022-12-06T07:09:30Z</time>
      </trkpt>
      <trkpt lat="36.820777" lon="-3.506256">
        <ele>363.080</ele>
        <time>2022-12-06T07:09:34Z</time>
      </trkpt>
      <trkpt lat="36.820825" lon="-3.506291">
        <ele>361.698</ele>
        <time>2022-12-06T07:09:36Z</time>
      </trkpt>
      <trkpt lat="36.820892" lon="-3.506356">
        <ele>360.382</ele>
        <time>2022-12-06T07:09:39Z</time>
      </trkpt>
      <trkpt lat="36.820935" lon="-3.506403">
        <ele>359.313</ele>
        <time>2022-12-06T07:09:41Z</time>
      </trkpt>
      <trkpt lat="36.820991" lon="-3.506437">
        <ele>357.790</ele>
        <time>2022-12-06T07:09:43Z</time>
      </trkpt>
      <trkpt lat="36.821054" lon="-3.506454">
        <ele>356.741</ele>
        <time>2022-12-06T07:09:45Z</time>
      </trkpt>
      <trkpt lat="36.821116" lon="-3.506455">
        <ele>355.692</ele>
        <time>2022-12-06T07:09:47Z</time>
      </trkpt>
      <trkpt lat="36.821165" lon="-3.506442">
        <ele>354.673</ele>
        <time>2022-12-06T07:09:49Z</time>
      </trkpt>
      <trkpt lat="36.821270" lon="-3.506392">
        <ele>353.320</ele>
        <time>2022-12-06T07:09:53Z</time>
      </trkpt>
      <trkpt lat="36.821350" lon="-3.506356">
        <ele>352.009</ele>
        <time>2022-12-06T07:09:56Z</time>
      </trkpt>
      <trkpt lat="36.821435" lon="-3.506342">
        <ele>350.780</ele>
        <time>2022-12-06T07:09:59Z</time>
      </trkpt>
      <trkpt lat="36.821524" lon="-3.506337">
        <ele>349.641</ele>
        <time>2022-12-06T07:10:02Z</time>
      </trkpt>
      <trkpt lat="36.821585" lon="-3.506342">
        <ele>348.359</ele>
        <time>2022-12-06T07:10:04Z</time>
      </trkpt>
      <trkpt lat="36.821699" lon="-3.506356">
        <ele>347.026</ele>
        <time>2022-12-06T07:10:08Z</time>
      </trkpt>
      <trkpt lat="36.821782" lon="-3.506384">
        <ele>345.684</ele>
        <time>2022-12-06T07:10:11Z</time>
      </trkpt>
      <trkpt lat="36.821861" lon="-3.506418">
        <ele>344.268</ele>
        <time>2022-12-06T07:10:14Z</time>
      </trkpt>
      <trkpt lat="36.821939" lon="-3.506463">
        <ele>342.789</ele>
        <time>2022-12-06T07:10:17Z</time>
      </trkpt>
      <trkpt lat="36.822029" lon="-3.506513">
        <ele>341.626</ele>
        <time>2022-12-06T07:10:21Z</time>
      </trkpt>
      <trkpt lat="36.822114" lon="-3.506537">
        <ele>340.287</ele>
        <time>2022-12-06T07:10:24Z</time>
      </trkpt>
      <trkpt lat="36.822171" lon="-3.506545">
        <ele>339.092</ele>
        <time>2022-12-06T07:10:26Z</time>
      </trkpt>
      <trkpt lat="36.822275" lon="-3.506555">
        <ele>337.773</ele>
        <time>2022-12-06T07:10:30Z</time>
      </trkpt>
      <trkpt lat="36.822352" lon="-3.506568">
        <ele>336.220</ele>
        <time>2022-12-06T07:10:33Z</time>
      </trkpt>
      <trkpt lat="36.822427" lon="-3.506586">
        <ele>335.009</ele>
        <time>2022-12-06T07:10:36Z</time>
      </trkpt>
      <trkpt lat="36.822500" lon="-3.506618">
        <ele>333.770</ele>
        <time>2022-12-06T07:10:39Z</time>
      </trkpt>
      <trkpt lat="36.822604" lon="-3.506655">
        <ele>332.321</ele>
        <time>2022-12-06T07:10:43Z</time>
      </trkpt>
      <trkpt lat="36.822690" lon="-3.506679">
        <ele>331.039</ele>
        <time>2022-12-06T07:10:46Z</time>
      </trkpt>
      <trkpt lat="36.822754" lon="-3.506693">
        <ele>330.046</ele>
        <time>2022-12-06T07:10:48Z</time>
      </trkpt>
      <trkpt lat="36.822841" lon="-3.506716">
        <ele>328.694</ele>
        <time>2022-12-06T07:10:51Z</time>
      </trkpt>
      <trkpt lat="36.822944" lon="-3.506767">
        <ele>327.228</ele>
        <time>2022-12-06T07:10:55Z</time>
      </trkpt>
      <trkpt lat="36.822999" lon="-3.506793">
        <ele>326.049</ele>
        <time>2022-12-06T07:10:57Z</time>
      </trkpt>
      <trkpt lat="36.823054" lon="-3.506811">
        <ele>325.096</ele>
        <time>2022-12-06T07:10:59Z</time>
      </trkpt>
      <trkpt lat="36.823110" lon="-3.506819">
        <ele>323.727</ele>
        <time>2022-12-06T07:11:01Z</time>
      </trkpt>
      <trkpt lat="36.823159" lon="-3.506813">
        <ele>322.776</ele>
        <time>2022-12-06T07:11:03Z</time>
      </trkpt>
      <trkpt lat="36.823235" lon="-3.506797">
        <ele>321.390</ele>
        <time>2022-12-06T07:11:06Z</time>
      </trkpt>
      <trkpt lat="36.823284" lon="-3.506778">
        <ele>320.219</ele>
        <time>2022-12-06T07:11:08Z</time>
      </trkpt>
      <trkpt lat="36.823338" lon="-3.506755">
        <ele>319.209</ele>
        <time>2022-12-06T07:11:10Z</time>
      </trkpt>
      <trkpt lat="36.823394" lon="-3.506731">
        <ele>318.058</ele>
        <time>2022-12-06T07:11:12Z</time>
      </trkpt>
      <trkpt lat="36.823480" lon="-3.506704">
        <ele>316.749</ele>
        <time>2022-12-06T07:11:15Z</time>
      </trkpt>
      <trkpt lat="36.823678" lon="-3.506682">
        <ele>316.687</ele>
        <time>2022-12-06T07:11:23Z</time>
      </trkpt>
      <trkpt lat="36.823859" lon="-3.506674">
        <ele>317.664</ele>
        <time>2022-12-06T07:11:31Z</time>
      </trkpt>
      <trkpt lat="36.823924" lon="-3.506665">
        <ele>318.052</ele>
        <time>2022-12-06T07:11:34Z</time>
      </trkpt>
      <trkpt lat="36.824102" lon="-3.506543">
        <ele>318.216</ele>
        <time>2022-12-06T07:11:43Z</time>
      </trkpt>
      <trkpt lat="36.824263" lon="-3.506427">
        <ele>317.297</ele>
        <time>2022-12-06T07:11:50Z</time>
      </trkpt>
      <trkpt lat="36.824309" lon="-3.506390">
        <ele>316.784</ele>
        <time>2022-12-06T07:11:52Z</time>
      </trkpt>
      <trkpt lat="36.824421" lon="-3.506298">
        <ele>315.725</ele>
        <time>2022-12-06T07:11:57Z</time>
      </trkpt>
      <trkpt lat="36.824585" lon="-3.506202">
        <ele>315.379</ele>
        <time>2022-12-06T07:12:04Z</time>
      </trkpt>
      <trkpt lat="36.824752" lon="-3.506055">
        <ele>315.005</ele>
        <time>2022-12-06T07:12:12Z</time>
      </trkpt>
      <trkpt lat="36.824800" lon="-3.506019">
        <ele>314.625</ele>
        <time>2022-12-06T07:12:14Z</time>
      </trkpt>
      <trkpt lat="36.824909" lon="-3.505921">
        <ele>313.309</ele>
        <time>2022-12-06T07:12:19Z</time>
      </trkpt>
      <trkpt lat="36.824973" lon="-3.505852">
        <ele>312.048</ele>
        <time>2022-12-06T07:12:22Z</time>
      </trkpt>
      <trkpt lat="36.825090" lon="-3.505710">
        <ele>311.089</ele>
        <time>2022-12-06T07:12:28Z</time>
      </trkpt>
      <trkpt lat="36.825226" lon="-3.505542">
        <ele>310.377</ele>
        <time>2022-12-06T07:12:35Z</time>
      </trkpt>
      <trkpt lat="36.825389" lon="-3.505408">
        <ele>310.654</ele>
        <time>2022-12-06T07:12:44Z</time>
      </trkpt>
      <trkpt lat="36.825570" lon="-3.505325">
        <ele>310.382</ele>
        <time>2022-12-06T07:12:53Z</time>
      </trkpt>
      <trkpt lat="36.825605" lon="-3.505319">
        <ele>310.016</ele>
        <time>2022-12-06T07:12:55Z</time>
      </trkpt>
      <trkpt lat="36.825665" lon="-3.505295">
        <ele>308.757</ele>
        <time>2022-12-06T07:12:58Z</time>
      </trkpt>
      <trkpt lat="36.825705" lon="-3.505279">
        <ele>307.674</ele>
        <time>2022-12-06T07:13:00Z</time>
      </trkpt>
      <trkpt lat="36.825749" lon="-3.505267">
        <ele>306.625</ele>
        <time>2022-12-06T07:13:02Z</time>
      </trkpt>
      <trkpt lat="36.825798" lon="-3.505256">
        <ele>305.381</ele>
        <time>2022-12-06T07:13:04Z</time>
      </trkpt>
      <trkpt lat="36.825853" lon="-3.505239">
        <ele>304.361</ele>
        <time>2022-12-06T07:13:06Z</time>
      </trkpt>
      <trkpt lat="36.825950" lon="-3.505161">
        <ele>303.217</ele>
        <time>2022-12-06T07:13:10Z</time>
      </trkpt>
      <trkpt lat="36.826037" lon="-3.505083">
        <ele>302.009</ele>
        <time>2022-12-06T07:13:14Z</time>
      </trkpt>
      <trkpt lat="36.826073" lon="-3.505055">
        <ele>301.219</ele>
        <time>2022-12-06T07:13:16Z</time>
      </trkpt>
      <trkpt lat="36.826126" lon="-3.505077">
        <ele>300.740</ele>
        <time>2022-12-06T07:13:19Z</time>
      </trkpt>
      <trkpt lat="36.826265" lon="-3.505253">
        <ele>300.268</ele>
        <time>2022-12-06T07:13:28Z</time>
      </trkpt>
      <trkpt lat="36.826415" lon="-3.505257">
        <ele>299.625</ele>
        <time>2022-12-06T07:13:30Z</time>
      </trkpt>
      <trkpt lat="36.826417" lon="-3.505293">
        <ele>299.343</ele>
        <time>2022-12-06T07:13:31Z</time>
      </trkpt>
      <trkpt lat="36.826381" lon="-3.505412">
        <ele>299.267</ele>
        <time>2022-12-06T07:13:34Z</time>
      </trkpt>
      <trkpt lat="36.826451" lon="-3.505611">
        <ele>298.668</ele>
        <time>2022-12-06T07:13:39Z</time>
      </trkpt>
      <trkpt lat="36.826461" lon="-3.505610">
        <ele>298.315</ele>
        <time>2022-12-06T07:13:40Z</time>
      </trkpt>
      <trkpt lat="36.826547" lon="-3.505556">
        <ele>298.086</ele>
        <time>2022-12-06T07:13:44Z</time>
      </trkpt>
      <trkpt lat="36.826706" lon="-3.505421">
        <ele>298.611</ele>
        <time>2022-12-06T07:13:53Z</time>
      </trkpt>
      <trkpt lat="36.826875" lon="-3.505304">
        <ele>298.221</ele>
        <time>2022-12-06T07:14:01Z</time>
      </trkpt>
      <trkpt lat="36.827018" lon="-3.505228">
        <ele>297.303</ele>
        <time>2022-12-06T07:14:07Z</time>
      </trkpt>
      <trkpt lat="36.827207" lon="-3.505195">
        <ele>296.609</ele>
        <time>2022-12-06T07:14:15Z</time>
      </trkpt>
      <trkpt lat="36.827233" lon="-3.505191">
        <ele>296.312</ele>
        <time>2022-12-06T07:14:16Z</time>
      </trkpt>
      <trkpt lat="36.827400" lon="-3.505226">
        <ele>295.033</ele>
        <time>2022-12-06T07:14:23Z</time>
      </trkpt>
      <trkpt lat="36.827469" lon="-3.505262">
        <ele>293.731</ele>
        <time>2022-12-06T07:14:26Z</time>
      </trkpt>
      <trkpt lat="36.827541" lon="-3.505303">
        <ele>292.628</ele>
        <time>2022-12-06T07:14:29Z</time>
      </trkpt>
      <trkpt lat="36.827621" lon="-3.505329">
        <ele>291.226</ele>
        <time>2022-12-06T07:14:32Z</time>
      </trkpt>
      <trkpt lat="36.827682" lon="-3.505331">
        <ele>290.010</ele>
        <time>2022-12-06T07:14:34Z</time>
      </trkpt>
      <trkpt lat="36.827774" lon="-3.505294">
        <ele>288.651</ele>
        <time>2022-12-06T07:14:37Z</time>
      </trkpt>
      <trkpt lat="36.827861" lon="-3.505247">
        <ele>287.258</ele>
        <time>2022-12-06T07:14:40Z</time>
      </trkpt>
      <trkpt lat="36.828043" lon="-3.505221">
        <ele>286.049</ele>
        <time>2022-12-06T07:14:47Z</time>
      </trkpt>
      <trkpt lat="36.828193" lon="-3.505242">
        <ele>284.748</ele>
        <time>2022-12-06T07:14:53Z</time>
      </trkpt>
      <trkpt lat="36.828322" lon="-3.505265">
        <ele>283.661</ele>
        <time>2022-12-06T07:14:58Z</time>
      </trkpt>
      <trkpt lat="36.828487" lon="-3.505316">
        <ele>282.617</ele>
        <time>2022-12-06T07:15:04Z</time>
      </trkpt>
      <trkpt lat="36.828648" lon="-3.505415">
        <ele>282.009</ele>
        <time>2022-12-06T07:15:11Z</time>
      </trkpt>
      <trkpt lat="36.828739" lon="-3.505481">
        <ele>281.615</ele>
        <time>2022-12-06T07:15:15Z</time>
      </trkpt>
      <trkpt lat="36.828825" lon="-3.505514">
        <ele>280.346</ele>
        <time>2022-12-06T07:15:18Z</time>
      </trkpt>
      <trkpt lat="36.828913" lon="-3.505530">
        <ele>279.074</ele>
        <time>2022-12-06T07:15:21Z</time>
      </trkpt>
      <trkpt lat="36.829005" lon="-3.505586">
        <ele>277.741</ele>
        <time>2022-12-06T07:15:25Z</time>
      </trkpt>
      <trkpt lat="36.829057" lon="-3.505710">
        <ele>276.619</ele>
        <time>2022-12-06T07:15:29Z</time>
      </trkpt>
      <trkpt lat="36.829050" lon="-3.505774">
        <ele>276.253</ele>
        <time>2022-12-06T07:15:31Z</time>
      </trkpt>
      <trkpt lat="36.828992" lon="-3.505824">
        <ele>275.244</ele>
        <time>2022-12-06T07:15:34Z</time>
      </trkpt>
      <trkpt lat="36.828915" lon="-3.505814">
        <ele>274.261</ele>
        <time>2022-12-06T07:15:37Z</time>
      </trkpt>
      <trkpt lat="36.828818" lon="-3.505752">
        <ele>272.742</ele>
        <time>2022-12-06T07:15:41Z</time>
      </trkpt>
      <trkpt lat="36.828771" lon="-3.505719">
        <ele>271.728</ele>
        <time>2022-12-06T07:15:43Z</time>
      </trkpt>
      <trkpt lat="36.828663" lon="-3.505657">
        <ele>270.689</ele>
        <time>2022-12-06T07:15:47Z</time>
      </trkpt>
      <trkpt lat="36.828545" lon="-3.505618">
        <ele>269.017</ele>
        <time>2022-12-06T07:15:51Z</time>
      </trkpt>
      <trkpt lat="36.828455" lon="-3.505639">
        <ele>268.009</ele>
        <time>2022-12-06T07:15:54Z</time>
      </trkpt>
      <trkpt lat="36.828328" lon="-3.505709">
        <ele>267.023</ele>
        <time>2022-12-06T07:15:59Z</time>
      </trkpt>
      <trkpt lat="36.828279" lon="-3.505917">
        <ele>266.294</ele>
        <time>2022-12-06T07:16:05Z</time>
      </trkpt>
      <trkpt lat="36.828317" lon="-3.506023">
        <ele>265.662</ele>
        <time>2022-12-06T07:16:08Z</time>
      </trkpt>
      <trkpt lat="36.828369" lon="-3.506125">
        <ele>264.699</ele>
        <time>2022-12-06T07:16:11Z</time>
      </trkpt>
      <trkpt lat="36.828441" lon="-3.506200">
        <ele>263.617</ele>
        <time>2022-12-06T07:16:14Z</time>
      </trkpt>
      <trkpt lat="36.828558" lon="-3.506247">
        <ele>262.311</ele>
        <time>2022-12-06T07:16:18Z</time>
      </trkpt>
      <trkpt lat="36.828677" lon="-3.506273">
        <ele>261.372</ele>
        <time>2022-12-06T07:16:22Z</time>
      </trkpt>
      <trkpt lat="36.828818" lon="-3.506328">
        <ele>260.089</ele>
        <time>2022-12-06T07:16:27Z</time>
      </trkpt>
      <trkpt lat="36.828954" lon="-3.506481">
        <ele>259.210</ele>
        <time>2022-12-06T07:16:34Z</time>
      </trkpt>
      <trkpt lat="36.828993" lon="-3.506571">
        <ele>259.065</ele>
        <time>2022-12-06T07:16:37Z</time>
      </trkpt>
      <trkpt lat="36.829037" lon="-3.506804">
        <ele>258.268</ele>
        <time>2022-12-06T07:16:44Z</time>
      </trkpt>
      <trkpt lat="36.829036" lon="-3.506838">
        <ele>258.014</ele>
        <time>2022-12-06T07:16:45Z</time>
      </trkpt>
      <trkpt lat="36.828980" lon="-3.507062">
        <ele>256.709</ele>
        <time>2022-12-06T07:16:52Z</time>
      </trkpt>
      <trkpt lat="36.829010" lon="-3.507283">
        <ele>255.897</ele>
        <time>2022-12-06T07:16:59Z</time>
      </trkpt>
      <trkpt lat="36.829163" lon="-3.507367">
        <ele>254.378</ele>
        <time>2022-12-06T07:17:05Z</time>
      </trkpt>
      <trkpt lat="36.829239" lon="-3.507405">
        <ele>253.196</ele>
        <time>2022-12-06T07:17:08Z</time>
      </trkpt>
      <trkpt lat="36.829333" lon="-3.507457">
        <ele>252.023</ele>
        <time>2022-12-06T07:17:12Z</time>
      </trkpt>
      <trkpt lat="36.829391" lon="-3.507520">
        <ele>251.031</ele>
        <time>2022-12-06T07:17:15Z</time>
      </trkpt>
      <trkpt lat="36.829499" lon="-3.507672">
        <ele>250.025</ele>
        <time>2022-12-06T07:17:21Z</time>
      </trkpt>
      <trkpt lat="36.829590" lon="-3.507745">
        <ele>248.836</ele>
        <time>2022-12-06T07:17:25Z</time>
      </trkpt>
      <trkpt lat="36.829703" lon="-3.507771">
        <ele>247.853</ele>
        <time>2022-12-06T07:17:29Z</time>
      </trkpt>
      <trkpt lat="36.829822" lon="-3.507798">
        <ele>246.674</ele>
        <time>2022-12-06T07:17:33Z</time>
      </trkpt>
      <trkpt lat="36.829912" lon="-3.507811">
        <ele>245.622</ele>
        <time>2022-12-06T07:17:36Z</time>
      </trkpt>
      <trkpt lat="36.830055" lon="-3.507824">
        <ele>244.362</ele>
        <time>2022-12-06T07:17:41Z</time>
      </trkpt>
      <trkpt lat="36.830148" lon="-3.507828">
        <ele>243.108</ele>
        <time>2022-12-06T07:17:44Z</time>
      </trkpt>
      <trkpt lat="36.830291" lon="-3.507846">
        <ele>242.109</ele>
        <time>2022-12-06T07:17:49Z</time>
      </trkpt>
      <trkpt lat="36.830471" lon="-3.507879">
        <ele>242.043</ele>
        <time>2022-12-06T07:17:57Z</time>
      </trkpt>
      <trkpt lat="36.830643" lon="-3.507990">
        <ele>242.344</ele>
        <time>2022-12-06T07:18:06Z</time>
      </trkpt>
      <trkpt lat="36.830783" lon="-3.508158">
        <ele>242.172</ele>
        <time>2022-12-06T07:18:15Z</time>
      </trkpt>
      <trkpt lat="36.830856" lon="-3.508379">
        <ele>242.119</ele>
        <time>2022-12-06T07:18:23Z</time>
      </trkpt>
      <trkpt lat="36.830872" lon="-3.508514">
        <ele>243.147</ele>
        <time>2022-12-06T07:18:28Z</time>
      </trkpt>
      <trkpt lat="36.830953" lon="-3.508709">
        <ele>244.031</ele>
        <time>2022-12-06T07:18:35Z</time>
      </trkpt>
      <trkpt lat="36.831146" lon="-3.508752">
        <ele>243.322</ele>
        <time>2022-12-06T07:18:43Z</time>
      </trkpt>
      <trkpt lat="36.831337" lon="-3.508769">
        <ele>242.689</ele>
        <time>2022-12-06T07:18:50Z</time>
      </trkpt>
      <trkpt lat="36.831499" lon="-3.508918">
        <ele>242.160</ele>
        <time>2022-12-06T07:18:58Z</time>
      </trkpt>
      <trkpt lat="36.831528" lon="-3.509060">
        <ele>240.844</ele>
        <time>2022-12-06T07:19:02Z</time>
      </trkpt>
      <trkpt lat="36.831526" lon="-3.509172">
        <ele>239.105</ele>
        <time>2022-12-06T07:19:05Z</time>
      </trkpt>
      <trkpt lat="36.831511" lon="-3.509286">
        <ele>238.015</ele>
        <time>2022-12-06T07:19:08Z</time>
      </trkpt>
      <trkpt lat="36.831496" lon="-3.509421">
        <ele>236.809</ele>
        <time>2022-12-06T07:19:12Z</time>
      </trkpt>
      <trkpt lat="36.831488" lon="-3.509599">
        <ele>235.865</ele>
        <time>2022-12-06T07:19:17Z</time>
      </trkpt>
      <trkpt lat="36.831489" lon="-3.509705">
        <ele>235.056</ele>
        <time>2022-12-06T07:19:20Z</time>
      </trkpt>
      <trkpt lat="36.831489" lon="-3.509739">
        <ele>234.684</ele>
        <time>2022-12-06T07:19:21Z</time>
      </trkpt>
      <trkpt lat="36.831482" lon="-3.509877">
        <ele>233.171</ele>
        <time>2022-12-06T07:19:25Z</time>
      </trkpt>
      <trkpt lat="36.831474" lon="-3.510018">
        <ele>231.849</ele>
        <time>2022-12-06T07:19:29Z</time>
      </trkpt>
      <trkpt lat="36.831463" lon="-3.510092">
        <ele>230.883</ele>
        <time>2022-12-06T07:19:31Z</time>
      </trkpt>
      <trkpt lat="36.831456" lon="-3.510150">
        <ele>229.854</ele>
        <time>2022-12-06T07:19:33Z</time>
      </trkpt>
      <trkpt lat="36.831433" lon="-3.510215">
        <ele>228.661</ele>
        <time>2022-12-06T07:19:35Z</time>
      </trkpt>
      <trkpt lat="36.831406" lon="-3.510285">
        <ele>227.312</ele>
        <time>2022-12-06T07:19:37Z</time>
      </trkpt>
      <trkpt lat="36.831379" lon="-3.510345">
        <ele>226.149</ele>
        <time>2022-12-06T07:19:39Z</time>
      </trkpt>
      <trkpt lat="36.831346" lon="-3.510408">
        <ele>225.102</ele>
        <time>2022-12-06T07:19:41Z</time>
      </trkpt>
      <trkpt lat="36.831304" lon="-3.510493">
        <ele>224.022</ele>
        <time>2022-12-06T07:19:44Z</time>
      </trkpt>
      <trkpt lat="36.831246" lon="-3.510606">
        <ele>222.809</ele>
        <time>2022-12-06T07:19:48Z</time>
      </trkpt>
      <trkpt lat="36.831226" lon="-3.510675">
        <ele>221.835</ele>
        <time>2022-12-06T07:19:50Z</time>
      </trkpt>
      <trkpt lat="36.831243" lon="-3.510778">
        <ele>220.386</ele>
        <time>2022-12-06T07:19:53Z</time>
      </trkpt>
      <trkpt lat="36.831311" lon="-3.510873">
        <ele>219.134</ele>
        <time>2022-12-06T07:19:56Z</time>
      </trkpt>
      <trkpt lat="36.831389" lon="-3.510949">
        <ele>217.621</ele>
        <time>2022-12-06T07:19:59Z</time>
      </trkpt>
      <trkpt lat="36.831464" lon="-3.511028">
        <ele>216.319</ele>
        <time>2022-12-06T07:20:02Z</time>
      </trkpt>
      <trkpt lat="36.831537" lon="-3.511109">
        <ele>215.123</ele>
        <time>2022-12-06T07:20:05Z</time>
      </trkpt>
      <trkpt lat="36.831582" lon="-3.511153">
        <ele>214.114</ele>
        <time>2022-12-06T07:20:07Z</time>
      </trkpt>
      <trkpt lat="36.831642" lon="-3.511249">
        <ele>213.021</ele>
        <time>2022-12-06T07:20:10Z</time>
      </trkpt>
      <trkpt lat="36.831716" lon="-3.511358">
        <ele>211.812</ele>
        <time>2022-12-06T07:20:14Z</time>
      </trkpt>
      <trkpt lat="36.831816" lon="-3.511562">
        <ele>211.087</ele>
        <time>2022-12-06T07:20:21Z</time>
      </trkpt>
      <trkpt lat="36.831826" lon="-3.511593">
        <ele>210.642</ele>
        <time>2022-12-06T07:20:22Z</time>
      </trkpt>
      <trkpt lat="36.831856" lon="-3.511754">
        <ele>209.626</ele>
        <time>2022-12-06T07:20:27Z</time>
      </trkpt>
      <trkpt lat="36.831877" lon="-3.511888">
        <ele>208.309</ele>
        <time>2022-12-06T07:20:31Z</time>
      </trkpt>
      <trkpt lat="36.831898" lon="-3.512013">
        <ele>207.179</ele>
        <time>2022-12-06T07:20:35Z</time>
      </trkpt>
      <trkpt lat="36.831922" lon="-3.512138">
        <ele>206.070</ele>
        <time>2022-12-06T07:20:39Z</time>
      </trkpt>
      <trkpt lat="36.831948" lon="-3.512232">
        <ele>205.098</ele>
        <time>2022-12-06T07:20:42Z</time>
      </trkpt>
      <trkpt lat="36.831982" lon="-3.512321">
        <ele>203.885</ele>
        <time>2022-12-06T07:20:45Z</time>
      </trkpt>
      <trkpt lat="36.832031" lon="-3.512406">
        <ele>202.893</ele>
        <time>2022-12-06T07:20:48Z</time>
      </trkpt>
      <trkpt lat="36.832095" lon="-3.512489">
        <ele>201.367</ele>
        <time>2022-12-06T07:20:51Z</time>
      </trkpt>
      <trkpt lat="36.832147" lon="-3.512532">
        <ele>200.348</ele>
        <time>2022-12-06T07:20:53Z</time>
      </trkpt>
      <trkpt lat="36.832236" lon="-3.512582">
        <ele>199.185</ele>
        <time>2022-12-06T07:20:56Z</time>
      </trkpt>
      <trkpt lat="36.832423" lon="-3.512571">
        <ele>198.836</ele>
        <time>2022-12-06T07:21:03Z</time>
      </trkpt>
      <trkpt lat="36.832617" lon="-3.512564">
        <ele>198.895</ele>
        <time>2022-12-06T07:21:10Z</time>
      </trkpt>
      <trkpt lat="36.832799" lon="-3.512577">
        <ele>198.849</ele>
        <time>2022-12-06T07:21:17Z</time>
      </trkpt>
      <trkpt lat="36.832979" lon="-3.512598">
        <ele>199.123</ele>
        <time>2022-12-06T07:21:24Z</time>
      </trkpt>
      <trkpt lat="36.833180" lon="-3.512624">
        <ele>199.009</ele>
        <time>2022-12-06T07:21:32Z</time>
      </trkpt>
      <trkpt lat="36.833380" lon="-3.512662">
        <ele>198.390</ele>
        <time>2022-12-06T07:21:40Z</time>
      </trkpt>
      <trkpt lat="36.833426" lon="-3.512673">
        <ele>198.171</ele>
        <time>2022-12-06T07:21:42Z</time>
      </trkpt>
      <trkpt lat="36.833626" lon="-3.512690">
        <ele>197.629</ele>
        <time>2022-12-06T07:21:49Z</time>
      </trkpt>
      <trkpt lat="36.833728" lon="-3.512699">
        <ele>197.056</ele>
        <time>2022-12-06T07:21:53Z</time>
      </trkpt>
      <trkpt lat="36.833902" lon="-3.512746">
        <ele>195.894</ele>
        <time>2022-12-06T07:22:00Z</time>
      </trkpt>
      <trkpt lat="36.833986" lon="-3.512764">
        <ele>194.638</ele>
        <time>2022-12-06T07:22:03Z</time>
      </trkpt>
      <trkpt lat="36.834098" lon="-3.512765">
        <ele>193.389</ele>
        <time>2022-12-06T07:22:07Z</time>
      </trkpt>
      <trkpt lat="36.834207" lon="-3.512765">
        <ele>192.066</ele>
        <time>2022-12-06T07:22:11Z</time>
      </trkpt>
      <trkpt lat="36.834293" lon="-3.512766">
        <ele>190.677</ele>
        <time>2022-12-06T07:22:14Z</time>
      </trkpt>
      <trkpt lat="36.834345" lon="-3.512801">
        <ele>190.082</ele>
        <time>2022-12-06T07:22:17Z</time>
      </trkpt>
      <trkpt lat="36.834325" lon="-3.512841">
        <ele>189.343</ele>
        <time>2022-12-06T07:22:19Z</time>
      </trkpt>
      <trkpt lat="36.834300" lon="-3.512842">
        <ele>189.117</ele>
        <time>2022-12-06T07:22:20Z</time>
      </trkpt>
      <trkpt lat="36.834111" lon="-3.512846">
        <ele>188.309</ele>
        <time>2022-12-06T07:22:26Z</time>
      </trkpt>
      <trkpt lat="36.834030" lon="-3.512841">
        <ele>188.349</ele>
        <time>2022-12-06T07:22:29Z</time>
      </trkpt>
      <trkpt lat="36.833847" lon="-3.512892">
        <ele>188.060</ele>
        <time>2022-12-06T07:22:37Z</time>
      </trkpt>
      <trkpt lat="36.833676" lon="-3.513027">
        <ele>187.638</ele>
        <time>2022-12-06T07:22:45Z</time>
      </trkpt>
      <trkpt lat="36.833609" lon="-3.513177">
        <ele>187.165</ele>
        <time>2022-12-06T07:22:49Z</time>
      </trkpt>
      <trkpt lat="36.833595" lon="-3.513276">
        <ele>186.043</ele>
        <time>2022-12-06T07:22:52Z</time>
      </trkpt>
      <trkpt lat="36.833594" lon="-3.513421">
        <ele>185.017</ele>
        <time>2022-12-06T07:22:56Z</time>
      </trkpt>
      <trkpt lat="36.833619" lon="-3.513567">
        <ele>183.838</ele>
        <time>2022-12-06T07:23:00Z</time>
      </trkpt>
      <trkpt lat="36.833639" lon="-3.513705">
        <ele>182.685</ele>
        <time>2022-12-06T07:23:04Z</time>
      </trkpt>
      <trkpt lat="36.833624" lon="-3.513855">
        <ele>181.366</ele>
        <time>2022-12-06T07:23:09Z</time>
      </trkpt>
      <trkpt lat="36.833580" lon="-3.513925">
        <ele>180.314</ele>
        <time>2022-12-06T07:23:13Z</time>
      </trkpt>
      <trkpt lat="36.833519" lon="-3.513985">
        <ele>179.054</ele>
        <time>2022-12-06T07:23:17Z</time>
      </trkpt>
      <trkpt lat="36.833527" lon="-3.514033">
        <ele>178.009</ele>
        <time>2022-12-06T07:23:19Z</time>
      </trkpt>
      <trkpt lat="36.833536" lon="-3.514042">
        <ele>177.809</ele>
        <time>2022-12-06T07:23:20Z</time>
      </trkpt>
      <trkpt lat="36.833540" lon="-3.514041">
        <ele>177.612</ele>
        <time>2022-12-06T07:23:21Z</time>
      </trkpt>
      <trkpt lat="36.833563" lon="-3.514040">
        <ele>176.863</ele>
        <time>2022-12-06T07:23:24Z</time>
      </trkpt>
      <trkpt lat="36.833597" lon="-3.514055">
        <ele>175.621</ele>
        <time>2022-12-06T07:23:27Z</time>
      </trkpt>
      <trkpt lat="36.833623" lon="-3.514069">
        <ele>175.058</ele>
        <time>2022-12-06T07:23:29Z</time>
      </trkpt>
      <trkpt lat="36.833607" lon="-3.514106">
        <ele>174.376</ele>
        <time>2022-12-06T07:23:31Z</time>
      </trkpt>
      <trkpt lat="36.833589" lon="-3.514118">
        <ele>174.190</ele>
        <time>2022-12-06T07:23:32Z</time>
      </trkpt>
      <trkpt lat="36.833530" lon="-3.514147">
        <ele>173.191</ele>
        <time>2022-12-06T07:23:36Z</time>
      </trkpt>
      <trkpt lat="36.833514" lon="-3.514179">
        <ele>173.148</ele>
        <time>2022-12-06T07:23:38Z</time>
      </trkpt>
      <trkpt lat="36.833499" lon="-3.514249">
        <ele>172.169</ele>
        <time>2022-12-06T07:23:42Z</time>
      </trkpt>
      <trkpt lat="36.833471" lon="-3.514290">
        <ele>171.322</ele>
        <time>2022-12-06T07:23:44Z</time>
      </trkpt>
      <trkpt lat="36.833460" lon="-3.514307">
        <ele>171.062</ele>
        <time>2022-12-06T07:23:45Z</time>
      </trkpt>
      <trkpt lat="36.833431" lon="-3.514335">
        <ele>170.008</ele>
        <time>2022-12-06T07:23:47Z</time>
      </trkpt>
      <trkpt lat="36.833426" lon="-3.514339">
        <ele>169.609</ele>
        <time>2022-12-06T07:23:48Z</time>
      </trkpt>
      <trkpt lat="36.833447" lon="-3.514333">
        <ele>168.853</ele>
        <time>2022-12-06T07:23:51Z</time>
      </trkpt>
      <trkpt lat="36.833453" lon="-3.514334">
        <ele>168.654</ele>
        <time>2022-12-06T07:23:52Z</time>
      </trkpt>
      <trkpt lat="36.833461" lon="-3.514341">
        <ele>168.152</ele>
        <time>2022-12-06T07:23:53Z</time>
      </trkpt>
      <trkpt lat="36.833454" lon="-3.514360">
        <ele>167.669</ele>
        <time>2022-12-06T07:23:55Z</time>
      </trkpt>
      <trkpt lat="36.833456" lon="-3.514370">
        <ele>167.367</ele>
        <time>2022-12-06T07:23:56Z</time>
      </trkpt>
      <trkpt lat="36.833486" lon="-3.514424">
        <ele>166.181</ele>
        <time>2022-12-06T07:23:59Z</time>
      </trkpt>
      <trkpt lat="36.833492" lon="-3.514437">
        <ele>164.812</ele>
        <time>2022-12-06T07:24:01Z</time>
      </trkpt>
      <trkpt lat="36.833512" lon="-3.514484">
        <ele>163.829</ele>
        <time>2022-12-06T07:24:05Z</time>
      </trkpt>
      <trkpt lat="36.833525" lon="-3.514500">
        <ele>163.390</ele>
        <time>2022-12-06T07:24:06Z</time>
      </trkpt>
      <trkpt lat="36.833543" lon="-3.514538">
        <ele>162.344</ele>
        <time>2022-12-06T07:24:08Z</time>
      </trkpt>
      <trkpt lat="36.833549" lon="-3.514557">
        <ele>162.105</ele>
        <time>2022-12-06T07:24:09Z</time>
      </trkpt>
      <trkpt lat="36.833567" lon="-3.514625">
        <ele>161.315</ele>
        <time>2022-12-06T07:24:11Z</time>
      </trkpt>
      <trkpt lat="36.833554" lon="-3.514651">
        <ele>161.009</ele>
        <time>2022-12-06T07:24:12Z</time>
      </trkpt>
      <trkpt lat="36.833539" lon="-3.514670">
        <ele>160.375</ele>
        <time>2022-12-06T07:24:13Z</time>
      </trkpt>
      <trkpt lat="36.833513" lon="-3.514714">
        <ele>159.826</ele>
        <time>2022-12-06T07:24:15Z</time>
      </trkpt>
      <trkpt lat="36.833471" lon="-3.514770">
        <ele>158.684</ele>
        <time>2022-12-06T07:24:19Z</time>
      </trkpt>
      <trkpt lat="36.833462" lon="-3.514778">
        <ele>158.641</ele>
        <time>2022-12-06T07:24:20Z</time>
      </trkpt>
      <trkpt lat="36.833403" lon="-3.514788">
        <ele>158.159</ele>
        <time>2022-12-06T07:24:24Z</time>
      </trkpt>
      <trkpt lat="36.833262" lon="-3.514787">
        <ele>158.033</ele>
        <time>2022-12-06T07:24:32Z</time>
      </trkpt>
      <trkpt lat="36.833144" lon="-3.514763">
        <ele>157.374</ele>
        <time>2022-12-06T07:24:37Z</time>
      </trkpt>
      <trkpt lat="36.832989" lon="-3.514779">
        <ele>156.381</ele>
        <time>2022-12-06T07:24:43Z</time>
      </trkpt>
      <trkpt lat="36.832833" lon="-3.514764">
        <ele>155.192</ele>
        <time>2022-12-06T07:24:50Z</time>
      </trkpt>
      <trkpt lat="36.832657" lon="-3.514724">
        <ele>154.346</ele>
        <time>2022-12-06T07:24:56Z</time>
      </trkpt>
      <trkpt lat="36.832598" lon="-3.514713">
        <ele>154.188</ele>
        <time>2022-12-06T07:24:58Z</time>
      </trkpt>
      <trkpt lat="36.832407" lon="-3.514667">
        <ele>154.016</ele>
        <time>2022-12-06T07:25:04Z</time>
      </trkpt>
      <trkpt lat="36.832293" lon="-3.514671">
        <ele>153.109</ele>
        <time>2022-12-06T07:25:08Z</time>
      </trkpt>
      <trkpt lat="36.832292" lon="-3.514679">
        <ele>153.175</ele>
        <time>2022-12-06T07:25:09Z</time>
      </trkpt>
      <trkpt lat="36.832293" lon="-3.514726">
        <ele>152.856</ele>
        <time>2022-12-06T07:25:11Z</time>
      </trkpt>
      <trkpt lat="36.832288" lon="-3.514772">
        <ele>152.314</ele>
        <time>2022-12-06T07:25:13Z</time>
      </trkpt>
      <trkpt lat="36.832282" lon="-3.514803">
        <ele>152.131</ele>
        <time>2022-12-06T07:25:14Z</time>
      </trkpt>
      <trkpt lat="36.832256" lon="-3.514861">
        <ele>150.829</ele>
        <time>2022-12-06T07:25:16Z</time>
      </trkpt>
      <trkpt lat="36.832253" lon="-3.514933">
        <ele>149.643</ele>
        <time>2022-12-06T07:25:18Z</time>
      </trkpt>
      <trkpt lat="36.832265" lon="-3.515024">
        <ele>148.634</ele>
        <time>2022-12-06T07:25:20Z</time>
      </trkpt>
      <trkpt lat="36.832259" lon="-3.515133">
        <ele>147.681</ele>
        <time>2022-12-06T07:25:23Z</time>
      </trkpt>
      <trkpt lat="36.832311" lon="-3.515175">
        <ele>146.822</ele>
        <time>2022-12-06T07:25:25Z</time>
      </trkpt>
      <trkpt lat="36.832322" lon="-3.515200">
        <ele>146.676</ele>
        <time>2022-12-06T07:25:26Z</time>
      </trkpt>
      <trkpt lat="36.832378" lon="-3.515393">
        <ele>145.690</ele>
        <time>2022-12-06T07:25:32Z</time>
      </trkpt>
      <trkpt lat="36.832354" lon="-3.515442">
        <ele>145.619</ele>
        <time>2022-12-06T07:25:34Z</time>
      </trkpt>
      <trkpt lat="36.832349" lon="-3.515492">
        <ele>145.309</ele>
        <time>2022-12-06T07:25:35Z</time>
      </trkpt>
      <trkpt lat="36.832346" lon="-3.515645">
        <ele>144.828</ele>
        <time>2022-12-06T07:25:38Z</time>
      </trkpt>
      <trkpt lat="36.832380" lon="-3.515716">
        <ele>144.399</ele>
        <time>2022-12-06T07:25:40Z</time>
      </trkpt>
      <trkpt lat="36.832546" lon="-3.515798">
        <ele>144.697</ele>
        <time>2022-12-06T07:25:46Z</time>
      </trkpt>
      <trkpt lat="36.832610" lon="-3.515850">
        <ele>145.374</ele>
        <time>2022-12-06T07:25:52Z</time>
      </trkpt>
      <trkpt lat="36.832625" lon="-3.515829">
        <ele>145.662</ele>
        <time>2022-12-06T07:25:54Z</time>
      </trkpt>
      <trkpt lat="36.832633" lon="-3.515823">
        <ele>145.626</ele>
        <time>2022-12-06T07:25:55Z</time>
      </trkpt>
      <trkpt lat="36.832717" lon="-3.515797">
        <ele>145.647</ele>
        <time>2022-12-06T07:26:49Z</time>
      </trkpt>
      <trkpt lat="36.832813" lon="-3.515741">
        <ele>145.644</ele>
        <time>2022-12-06T07:28:13Z</time>
      </trkpt>
      <trkpt lat="36.832792" lon="-3.515710">
        <ele>145.635</ele>
        <time>2022-12-06T07:28:21Z</time>
      </trkpt>
      <trkpt lat="36.832713" lon="-3.515869">
        <ele>145.696</ele>
        <time>2022-12-06T07:29:43Z</time>
      </trkpt>
      <trkpt lat="36.832766" lon="-3.515800">
        <ele>145.631</ele>
        <time>2022-12-06T07:30:43Z</time>
      </trkpt>
      <trkpt lat="36.832746" lon="-3.515850">
        <ele>145.624</ele>
        <time>2022-12-06T07:30:45Z</time>
      </trkpt>
      <trkpt lat="36.832740" lon="-3.515875">
        <ele>145.609</ele>
        <time>2022-12-06T07:30:47Z</time>
      </trkpt>
      <trkpt lat="36.832757" lon="-3.515934">
        <ele>145.120</ele>
        <time>2022-12-06T07:30:54Z</time>
      </trkpt>
      <trkpt lat="36.832775" lon="-3.515955">
        <ele>145.161</ele>
        <time>2022-12-06T07:30:56Z</time>
      </trkpt>
      <trkpt lat="36.832889" lon="-3.516065">
        <ele>145.349</ele>
        <time>2022-12-06T07:31:06Z</time>
      </trkpt>
      <trkpt lat="36.832953" lon="-3.516072">
        <ele>145.836</ele>
        <time>2022-12-06T07:31:10Z</time>
      </trkpt>
      <trkpt lat="36.832969" lon="-3.516087">
        <ele>145.854</ele>
        <time>2022-12-06T07:31:12Z</time>
      </trkpt>
      <trkpt lat="36.832980" lon="-3.516099">
        <ele>145.828</ele>
        <time>2022-12-06T07:31:15Z</time>
      </trkpt>
      <trkpt lat="36.832994" lon="-3.516099">
        <ele>145.669</ele>
        <time>2022-12-06T07:31:17Z</time>
      </trkpt>
      <trkpt lat="36.833208" lon="-3.516082">
        <ele>145.366</ele>
        <time>2022-12-06T07:31:25Z</time>
      </trkpt>
      <trkpt lat="36.833230" lon="-3.516111">
        <ele>145.647</ele>
        <time>2022-12-06T07:31:28Z</time>
      </trkpt>
      <trkpt lat="36.833314" lon="-3.516207">
        <ele>145.174</ele>
        <time>2022-12-06T07:31:38Z</time>
      </trkpt>
      <trkpt lat="36.833356" lon="-3.516259">
        <ele>145.156</ele>
        <time>2022-12-06T07:31:41Z</time>
      </trkpt>
      <trkpt lat="36.833408" lon="-3.516295">
        <ele>145.121</ele>
        <time>2022-12-06T07:31:45Z</time>
      </trkpt>
      <trkpt lat="36.833526" lon="-3.516452">
        <ele>144.309</ele>
        <time>2022-12-06T07:32:00Z</time>
      </trkpt>
      <trkpt lat="36.833551" lon="-3.516493">
        <ele>144.368</ele>
        <time>2022-12-06T07:32:05Z</time>
      </trkpt>
      <trkpt lat="36.833619" lon="-3.516707">
        <ele>143.829</ele>
        <time>2022-12-06T07:32:15Z</time>
      </trkpt>
      <trkpt lat="36.833634" lon="-3.516812">
        <ele>143.677</ele>
        <time>2022-12-06T07:32:19Z</time>
      </trkpt>
      <trkpt lat="36.833649" lon="-3.516930">
        <ele>143.354</ele>
        <time>2022-12-06T07:32:24Z</time>
      </trkpt>
      <trkpt lat="36.833655" lon="-3.516983">
        <ele>143.332</ele>
        <time>2022-12-06T07:32:27Z</time>
      </trkpt>
      <trkpt lat="36.833726" lon="-3.517100">
        <ele>143.656</ele>
        <time>2022-12-06T07:32:34Z</time>
      </trkpt>
      <trkpt lat="36.833677" lon="-3.517214">
        <ele>143.637</ele>
        <time>2022-12-06T07:32:39Z</time>
      </trkpt>
      <trkpt lat="36.833677" lon="-3.517245">
        <ele>143.614</ele>
        <time>2022-12-06T07:32:41Z</time>
      </trkpt>
      <trkpt lat="36.833723" lon="-3.517370">
        <ele>143.895</ele>
        <time>2022-12-06T07:32:49Z</time>
      </trkpt>
      <trkpt lat="36.833747" lon="-3.517421">
        <ele>143.673</ele>
        <time>2022-12-06T07:32:52Z</time>
      </trkpt>
      <trkpt lat="36.833879" lon="-3.517590">
        <ele>143.085</ele>
        <time>2022-12-06T07:33:04Z</time>
      </trkpt>
      <trkpt lat="36.833912" lon="-3.517611">
        <ele>142.613</ele>
        <time>2022-12-06T07:33:06Z</time>
      </trkpt>
      <trkpt lat="36.833937" lon="-3.517646">
        <ele>142.309</ele>
        <time>2022-12-06T07:33:08Z</time>
      </trkpt>
      <trkpt lat="36.833969" lon="-3.517665">
        <ele>142.188</ele>
        <time>2022-12-06T07:33:11Z</time>
      </trkpt>
      <trkpt lat="36.834013" lon="-3.517783">
        <ele>142.049</ele>
        <time>2022-12-06T07:33:16Z</time>
      </trkpt>
      <trkpt lat="36.833998" lon="-3.517860">
        <ele>142.097</ele>
        <time>2022-12-06T07:33:20Z</time>
      </trkpt>
      <trkpt lat="36.833965" lon="-3.517963">
        <ele>141.144</ele>
        <time>2022-12-06T07:33:25Z</time>
      </trkpt>
      <trkpt lat="36.833913" lon="-3.518169">
        <ele>140.142</ele>
        <time>2022-12-06T07:33:34Z</time>
      </trkpt>
      <trkpt lat="36.833898" lon="-3.518243">
        <ele>139.086</ele>
        <time>2022-12-06T07:33:38Z</time>
      </trkpt>
      <trkpt lat="36.833889" lon="-3.518349">
        <ele>138.087</ele>
        <time>2022-12-06T07:33:45Z</time>
      </trkpt>
      <trkpt lat="36.833884" lon="-3.518404">
        <ele>136.854</ele>
        <time>2022-12-06T07:33:48Z</time>
      </trkpt>
      <trkpt lat="36.833876" lon="-3.518488">
        <ele>135.815</ele>
        <time>2022-12-06T07:33:53Z</time>
      </trkpt>
      <trkpt lat="36.833873" lon="-3.518519">
        <ele>135.151</ele>
        <time>2022-12-06T07:33:55Z</time>
      </trkpt>
      <trkpt lat="36.833870" lon="-3.518540">
        <ele>134.601</ele>
        <time>2022-12-06T07:33:56Z</time>
      </trkpt>
      <trkpt lat="36.833862" lon="-3.518559">
        <ele>134.011</ele>
        <time>2022-12-06T07:33:57Z</time>
      </trkpt>
      <trkpt lat="36.833847" lon="-3.518601">
        <ele>133.309</ele>
        <time>2022-12-06T07:33:59Z</time>
      </trkpt>
      <trkpt lat="36.833866" lon="-3.518645">
        <ele>133.076</ele>
        <time>2022-12-06T07:34:01Z</time>
      </trkpt>
      <trkpt lat="36.833836" lon="-3.518655">
        <ele>131.817</ele>
        <time>2022-12-06T07:34:04Z</time>
      </trkpt>
      <trkpt lat="36.833808" lon="-3.518647">
        <ele>130.675</ele>
        <time>2022-12-06T07:34:06Z</time>
      </trkpt>
      <trkpt lat="36.833794" lon="-3.518640">
        <ele>130.322</ele>
        <time>2022-12-06T07:34:07Z</time>
      </trkpt>
      <trkpt lat="36.833741" lon="-3.518616">
        <ele>129.620</ele>
        <time>2022-12-06T07:34:10Z</time>
      </trkpt>
      <trkpt lat="36.833704" lon="-3.518576">
        <ele>128.364</ele>
        <time>2022-12-06T07:34:13Z</time>
      </trkpt>
      <trkpt lat="36.833639" lon="-3.518543">
        <ele>126.835</ele>
        <time>2022-12-06T07:34:17Z</time>
      </trkpt>
      <trkpt lat="36.833613" lon="-3.518528">
        <ele>125.872</ele>
        <time>2022-12-06T07:34:19Z</time>
      </trkpt>
      <trkpt lat="36.833549" lon="-3.518486">
        <ele>124.573</ele>
        <time>2022-12-06T07:34:23Z</time>
      </trkpt>
      <trkpt lat="36.833545" lon="-3.518481">
        <ele>124.157</ele>
        <time>2022-12-06T07:34:24Z</time>
      </trkpt>
      <trkpt lat="36.833525" lon="-3.518468">
        <ele>123.400</ele>
        <time>2022-12-06T07:34:26Z</time>
      </trkpt>
      <trkpt lat="36.833516" lon="-3.518462">
        <ele>122.820</ele>
        <time>2022-12-06T07:34:27Z</time>
      </trkpt>
      <trkpt lat="36.833503" lon="-3.518459">
        <ele>122.409</ele>
        <time>2022-12-06T07:34:28Z</time>
      </trkpt>
      <trkpt lat="36.833482" lon="-3.518456">
        <ele>121.816</ele>
        <time>2022-12-06T07:34:30Z</time>
      </trkpt>
      <trkpt lat="36.833477" lon="-3.518461">
        <ele>121.487</ele>
        <time>2022-12-06T07:34:31Z</time>
      </trkpt>
      <trkpt lat="36.833465" lon="-3.518473">
        <ele>121.025</ele>
        <time>2022-12-06T07:34:32Z</time>
      </trkpt>
      <trkpt lat="36.833429" lon="-3.518511">
        <ele>120.472</ele>
        <time>2022-12-06T07:34:35Z</time>
      </trkpt>
      <trkpt lat="36.833375" lon="-3.518583">
        <ele>118.850</ele>
        <time>2022-12-06T07:34:38Z</time>
      </trkpt>
      <trkpt lat="36.833372" lon="-3.518706">
        <ele>117.894</ele>
        <time>2022-12-06T07:34:42Z</time>
      </trkpt>
      <trkpt lat="36.833404" lon="-3.518799">
        <ele>116.515</ele>
        <time>2022-12-06T07:34:47Z</time>
      </trkpt>
      <trkpt lat="36.833444" lon="-3.518850">
        <ele>115.592</ele>
        <time>2022-12-06T07:34:51Z</time>
      </trkpt>
      <trkpt lat="36.833474" lon="-3.518880">
        <ele>114.453</ele>
        <time>2022-12-06T07:34:53Z</time>
      </trkpt>
      <trkpt lat="36.833510" lon="-3.518910">
        <ele>113.449</ele>
        <time>2022-12-06T07:34:55Z</time>
      </trkpt>
      <trkpt lat="36.833615" lon="-3.518951">
        <ele>112.102</ele>
        <time>2022-12-06T07:35:00Z</time>
      </trkpt>
      <trkpt lat="36.833655" lon="-3.518971">
        <ele>111.022</ele>
        <time>2022-12-06T07:35:02Z</time>
      </trkpt>
      <trkpt lat="36.833698" lon="-3.518992">
        <ele>109.809</ele>
        <time>2022-12-06T07:35:04Z</time>
      </trkpt>
      <trkpt lat="36.833743" lon="-3.519025">
        <ele>108.535</ele>
        <time>2022-12-06T07:35:06Z</time>
      </trkpt>
      <trkpt lat="36.833808" lon="-3.519047">
        <ele>107.146</ele>
        <time>2022-12-06T07:35:09Z</time>
      </trkpt>
      <trkpt lat="36.833851" lon="-3.519051">
        <ele>106.194</ele>
        <time>2022-12-06T07:35:11Z</time>
      </trkpt>
      <trkpt lat="36.833893" lon="-3.519073">
        <ele>105.021</ele>
        <time>2022-12-06T07:35:13Z</time>
      </trkpt>
      <trkpt lat="36.833923" lon="-3.519117">
        <ele>103.839</ele>
        <time>2022-12-06T07:35:15Z</time>
      </trkpt>
      <trkpt lat="36.833928" lon="-3.519159">
        <ele>102.593</ele>
        <time>2022-12-06T07:35:18Z</time>
      </trkpt>
      <trkpt lat="36.833881" lon="-3.519215">
        <ele>102.094</ele>
        <time>2022-12-06T07:35:24Z</time>
      </trkpt>
      <trkpt lat="36.833857" lon="-3.519212">
        <ele>102.091</ele>
        <time>2022-12-06T07:35:26Z</time>
      </trkpt>
      <trkpt lat="36.833804" lon="-3.519260">
        <ele>102.052</ele>
        <time>2022-12-06T07:35:29Z</time>
      </trkpt>
      <trkpt lat="36.833737" lon="-3.519364">
        <ele>101.526</ele>
        <time>2022-12-06T07:35:36Z</time>
      </trkpt>
      <trkpt lat="36.833666" lon="-3.519465">
        <ele>101.147</ele>
        <time>2022-12-06T07:35:43Z</time>
      </trkpt>
      <trkpt lat="36.833645" lon="-3.519501">
        <ele>100.411</ele>
        <time>2022-12-06T07:35:46Z</time>
      </trkpt>
      <trkpt lat="36.833604" lon="-3.519497">
        <ele>99.409</ele>
        <time>2022-12-06T07:35:49Z</time>
      </trkpt>
      <trkpt lat="36.833574" lon="-3.519491">
        <ele>98.523</ele>
        <time>2022-12-06T07:35:51Z</time>
      </trkpt>
      <trkpt lat="36.833542" lon="-3.519469">
        <ele>98.134</ele>
        <time>2022-12-06T07:35:53Z</time>
      </trkpt>
      <trkpt lat="36.833521" lon="-3.519461">
        <ele>98.092</ele>
        <time>2022-12-06T07:35:54Z</time>
      </trkpt>
      <trkpt lat="36.833406" lon="-3.519492">
        <ele>97.089</ele>
        <time>2022-12-06T07:35:58Z</time>
      </trkpt>
      <trkpt lat="36.833266" lon="-3.519559">
        <ele>96.097</ele>
        <time>2022-12-06T07:36:03Z</time>
      </trkpt>
      <trkpt lat="36.833093" lon="-3.519632">
        <ele>95.871</ele>
        <time>2022-12-06T07:36:10Z</time>
      </trkpt>
      <trkpt lat="36.832950" lon="-3.519798">
        <ele>95.832</ele>
        <time>2022-12-06T07:36:18Z</time>
      </trkpt>
      <trkpt lat="36.832837" lon="-3.519970">
        <ele>94.579</ele>
        <time>2022-12-06T07:36:24Z</time>
      </trkpt>
      <trkpt lat="36.832725" lon="-3.520152">
        <ele>94.130</ele>
        <time>2022-12-06T07:36:31Z</time>
      </trkpt>
      <trkpt lat="36.832758" lon="-3.520210">
        <ele>94.487</ele>
        <time>2022-12-06T07:36:33Z</time>
      </trkpt>
      <trkpt lat="36.832932" lon="-3.520310">
        <ele>95.442</ele>
        <time>2022-12-06T07:36:40Z</time>
      </trkpt>
      <trkpt lat="36.833094" lon="-3.520437">
        <ele>95.526</ele>
        <time>2022-12-06T07:36:47Z</time>
      </trkpt>
      <trkpt lat="36.833256" lon="-3.520542">
        <ele>95.409</ele>
        <time>2022-12-06T07:36:54Z</time>
      </trkpt>
      <trkpt lat="36.833278" lon="-3.520560">
        <ele>95.579</ele>
        <time>2022-12-06T07:36:55Z</time>
      </trkpt>
      <trkpt lat="36.833443" lon="-3.520692">
        <ele>96.010</ele>
        <time>2022-12-06T07:37:03Z</time>
      </trkpt>
      <trkpt lat="36.833620" lon="-3.520785">
        <ele>96.188</ele>
        <time>2022-12-06T07:37:11Z</time>
      </trkpt>
      <trkpt lat="36.833785" lon="-3.520910">
        <ele>96.465</ele>
        <time>2022-12-06T07:37:19Z</time>
      </trkpt>
      <trkpt lat="36.833964" lon="-3.521027">
        <ele>96.473</ele>
        <time>2022-12-06T07:37:27Z</time>
      </trkpt>
      <trkpt lat="36.834029" lon="-3.521059">
        <ele>96.567</ele>
        <time>2022-12-06T07:37:30Z</time>
      </trkpt>
      <trkpt lat="36.834199" lon="-3.521185">
        <ele>96.848</ele>
        <time>2022-12-06T07:37:38Z</time>
      </trkpt>
      <trkpt lat="36.834306" lon="-3.521285">
        <ele>97.025</ele>
        <time>2022-12-06T07:37:43Z</time>
      </trkpt>
      <trkpt lat="36.834473" lon="-3.521421">
        <ele>97.156</ele>
        <time>2022-12-06T07:37:51Z</time>
      </trkpt>
      <trkpt lat="36.834650" lon="-3.521537">
        <ele>97.426</ele>
        <time>2022-12-06T07:37:59Z</time>
      </trkpt>
      <trkpt lat="36.834820" lon="-3.521655">
        <ele>97.447</ele>
        <time>2022-12-06T07:38:07Z</time>
      </trkpt>
      <trkpt lat="36.834974" lon="-3.521746">
        <ele>97.511</ele>
        <time>2022-12-06T07:38:14Z</time>
      </trkpt>
      <trkpt lat="36.835154" lon="-3.521823">
        <ele>97.809</ele>
        <time>2022-12-06T07:38:22Z</time>
      </trkpt>
      <trkpt lat="36.835324" lon="-3.521927">
        <ele>98.083</ele>
        <time>2022-12-06T07:38:30Z</time>
      </trkpt>
      <trkpt lat="36.835513" lon="-3.521995">
        <ele>98.024</ele>
        <time>2022-12-06T07:38:38Z</time>
      </trkpt>
      <trkpt lat="36.835707" lon="-3.522023">
        <ele>98.472</ele>
        <time>2022-12-06T07:38:46Z</time>
      </trkpt>
      <trkpt lat="36.835903" lon="-3.522041">
        <ele>98.479</ele>
        <time>2022-12-06T07:38:54Z</time>
      </trkpt>
      <trkpt lat="36.836078" lon="-3.521977">
        <ele>98.467</ele>
        <time>2022-12-06T07:39:01Z</time>
      </trkpt>
      <trkpt lat="36.836147" lon="-3.521963">
        <ele>98.461</ele>
        <time>2022-12-06T07:39:04Z</time>
      </trkpt>
      <trkpt lat="36.836282" lon="-3.521959">
        <ele>98.432</ele>
        <time>2022-12-06T07:39:10Z</time>
      </trkpt>
      <trkpt lat="36.836453" lon="-3.521835">
        <ele>98.449</ele>
        <time>2022-12-06T07:39:16Z</time>
      </trkpt>
      <trkpt lat="36.836595" lon="-3.521743">
        <ele>98.860</ele>
        <time>2022-12-06T07:39:22Z</time>
      </trkpt>
      <trkpt lat="36.836754" lon="-3.521626">
        <ele>98.856</ele>
        <time>2022-12-06T07:39:29Z</time>
      </trkpt>
      <trkpt lat="36.836917" lon="-3.521479">
        <ele>98.859</ele>
        <time>2022-12-06T07:39:37Z</time>
      </trkpt>
      <trkpt lat="36.837052" lon="-3.521312">
        <ele>99.414</ele>
        <time>2022-12-06T07:39:45Z</time>
      </trkpt>
      <trkpt lat="36.837150" lon="-3.521164">
        <ele>100.009</ele>
        <time>2022-12-06T07:39:51Z</time>
      </trkpt>
      <trkpt lat="36.837256" lon="-3.520970">
        <ele>99.836</ele>
        <time>2022-12-06T07:39:59Z</time>
      </trkpt>
      <trkpt lat="36.837404" lon="-3.520811">
        <ele>100.417</ele>
        <time>2022-12-06T07:40:07Z</time>
      </trkpt>
      <trkpt lat="36.837533" lon="-3.520631">
        <ele>100.015</ele>
        <time>2022-12-06T07:40:14Z</time>
      </trkpt>
      <trkpt lat="36.837637" lon="-3.520432">
        <ele>100.142</ele>
        <time>2022-12-06T07:40:21Z</time>
      </trkpt>
      <trkpt lat="36.837740" lon="-3.520247">
        <ele>100.020</ele>
        <time>2022-12-06T07:40:28Z</time>
      </trkpt>
      <trkpt lat="36.837857" lon="-3.520075">
        <ele>100.184</ele>
        <time>2022-12-06T07:40:35Z</time>
      </trkpt>
      <trkpt lat="36.837967" lon="-3.519882">
        <ele>100.155</ele>
        <time>2022-12-06T07:40:43Z</time>
      </trkpt>
      <trkpt lat="36.838066" lon="-3.519669">
        <ele>100.512</ele>
        <time>2022-12-06T07:40:51Z</time>
      </trkpt>
      <trkpt lat="36.838159" lon="-3.519464">
        <ele>100.463</ele>
        <time>2022-12-06T07:40:59Z</time>
      </trkpt>
      <trkpt lat="36.838242" lon="-3.519259">
        <ele>100.888</ele>
        <time>2022-12-06T07:41:06Z</time>
      </trkpt>
      <trkpt lat="36.838281" lon="-3.519178">
        <ele>101.024</ele>
        <time>2022-12-06T07:41:09Z</time>
      </trkpt>
      <trkpt lat="36.838379" lon="-3.518985">
        <ele>101.026</ele>
        <time>2022-12-06T07:41:16Z</time>
      </trkpt>
      <trkpt lat="36.838521" lon="-3.518838">
        <ele>101.409</ele>
        <time>2022-12-06T07:41:25Z</time>
      </trkpt>
      <trkpt lat="36.838695" lon="-3.518909">
        <ele>101.569</ele>
        <time>2022-12-06T07:41:33Z</time>
      </trkpt>
      <trkpt lat="36.838861" lon="-3.519005">
        <ele>102.090</ele>
        <time>2022-12-06T07:41:41Z</time>
      </trkpt>
      <trkpt lat="36.839025" lon="-3.519100">
        <ele>102.438</ele>
        <time>2022-12-06T07:41:49Z</time>
      </trkpt>
      <trkpt lat="36.839203" lon="-3.519180">
        <ele>103.025</ele>
        <time>2022-12-06T07:41:57Z</time>
      </trkpt>
      <trkpt lat="36.839220" lon="-3.519187">
        <ele>103.143</ele>
        <time>2022-12-06T07:41:58Z</time>
      </trkpt>
      <trkpt lat="36.839385" lon="-3.519299">
        <ele>104.177</ele>
        <time>2022-12-06T07:42:12Z</time>
      </trkpt>
      <trkpt lat="36.839520" lon="-3.519400">
        <ele>105.458</ele>
        <time>2022-12-06T07:42:23Z</time>
      </trkpt>
      <trkpt lat="36.839593" lon="-3.519451">
        <ele>106.415</ele>
        <time>2022-12-06T07:42:29Z</time>
      </trkpt>
      <trkpt lat="36.839671" lon="-3.519559">
        <ele>107.466</ele>
        <time>2022-12-06T07:42:38Z</time>
      </trkpt>
      <trkpt lat="36.839768" lon="-3.519684">
        <ele>108.562</ele>
        <time>2022-12-06T07:42:48Z</time>
      </trkpt>
      <trkpt lat="36.839882" lon="-3.519823">
        <ele>109.583</ele>
        <time>2022-12-06T07:42:59Z</time>
      </trkpt>
      <trkpt lat="36.839948" lon="-3.519912">
        <ele>110.511</ele>
        <time>2022-12-06T07:43:06Z</time>
      </trkpt>
      <trkpt lat="36.840020" lon="-3.519985">
        <ele>111.509</ele>
        <time>2022-12-06T07:43:13Z</time>
      </trkpt>
      <trkpt lat="36.840112" lon="-3.520014">
        <ele>112.457</ele>
        <time>2022-12-06T07:43:21Z</time>
      </trkpt>
      <trkpt lat="36.840123" lon="-3.519996">
        <ele>112.838</ele>
        <time>2022-12-06T07:43:23Z</time>
      </trkpt>
      <trkpt lat="36.840244" lon="-3.519980">
        <ele>113.836</ele>
        <time>2022-12-06T07:43:31Z</time>
      </trkpt>
      <trkpt lat="36.840273" lon="-3.519991">
        <ele>114.163</ele>
        <time>2022-12-06T07:43:33Z</time>
      </trkpt>
      <trkpt lat="36.840334" lon="-3.520001">
        <ele>115.061</ele>
        <time>2022-12-06T07:43:37Z</time>
      </trkpt>
      <trkpt lat="36.840424" lon="-3.520035">
        <ele>116.015</ele>
        <time>2022-12-06T07:43:44Z</time>
      </trkpt>
      <trkpt lat="36.840489" lon="-3.520039">
        <ele>117.016</ele>
        <time>2022-12-06T07:43:50Z</time>
      </trkpt>
      <trkpt lat="36.840507" lon="-3.520038">
        <ele>117.573</ele>
        <time>2022-12-06T07:43:52Z</time>
      </trkpt>
      <trkpt lat="36.840526" lon="-3.520023">
        <ele>118.114</ele>
        <time>2022-12-06T07:43:54Z</time>
      </trkpt>
      <trkpt lat="36.840534" lon="-3.520014">
        <ele>118.531</ele>
        <time>2022-12-06T07:43:55Z</time>
      </trkpt>
      <trkpt lat="36.840545" lon="-3.519930">
        <ele>119.161</ele>
        <time>2022-12-06T07:43:59Z</time>
      </trkpt>
      <trkpt lat="36.840587" lon="-3.519710">
        <ele>119.507</ele>
        <time>2022-12-06T07:44:11Z</time>
      </trkpt>
      <trkpt lat="36.840598" lon="-3.519649">
        <ele>119.809</ele>
        <time>2022-12-06T07:44:15Z</time>
      </trkpt>
      <trkpt lat="36.840587" lon="-3.519623">
        <ele>120.194</ele>
        <time>2022-12-06T07:44:17Z</time>
      </trkpt>
      <trkpt lat="36.840515" lon="-3.519567">
        <ele>121.195</ele>
        <time>2022-12-06T07:44:23Z</time>
      </trkpt>
      <trkpt lat="36.840454" lon="-3.519497">
        <ele>122.413</ele>
        <time>2022-12-06T07:44:29Z</time>
      </trkpt>
      <trkpt lat="36.840424" lon="-3.519440">
        <ele>123.490</ele>
        <time>2022-12-06T07:44:33Z</time>
      </trkpt>
      <trkpt lat="36.840378" lon="-3.519388">
        <ele>124.528</ele>
        <time>2022-12-06T07:44:38Z</time>
      </trkpt>
      <trkpt lat="36.840325" lon="-3.519306">
        <ele>125.592</ele>
        <time>2022-12-06T07:44:45Z</time>
      </trkpt>
      <trkpt lat="36.840313" lon="-3.519227">
        <ele>126.593</ele>
        <time>2022-12-06T07:44:50Z</time>
      </trkpt>
      <trkpt lat="36.840315" lon="-3.519111">
        <ele>127.820</ele>
        <time>2022-12-06T07:44:58Z</time>
      </trkpt>
      <trkpt lat="36.840342" lon="-3.519028">
        <ele>128.851</ele>
        <time>2022-12-06T07:45:04Z</time>
      </trkpt>
      <trkpt lat="36.840401" lon="-3.518983">
        <ele>129.871</ele>
        <time>2022-12-06T07:45:10Z</time>
      </trkpt>
      <trkpt lat="36.840447" lon="-3.518973">
        <ele>130.841</ele>
        <time>2022-12-06T07:45:14Z</time>
      </trkpt>
      <trkpt lat="36.840482" lon="-3.518972">
        <ele>131.315</ele>
        <time>2022-12-06T07:45:17Z</time>
      </trkpt>
      <trkpt lat="36.840505" lon="-3.518967">
        <ele>132.009</ele>
        <time>2022-12-06T07:45:19Z</time>
      </trkpt>
      <trkpt lat="36.840565" lon="-3.518942">
        <ele>133.188</ele>
        <time>2022-12-06T07:45:25Z</time>
      </trkpt>
      <trkpt lat="36.840619" lon="-3.518914">
        <ele>134.119</ele>
        <time>2022-12-06T07:45:30Z</time>
      </trkpt>
      <trkpt lat="36.840661" lon="-3.518887">
        <ele>135.327</ele>
        <time>2022-12-06T07:45:34Z</time>
      </trkpt>
      <trkpt lat="36.840724" lon="-3.518831">
        <ele>136.624</ele>
        <time>2022-12-06T07:45:40Z</time>
      </trkpt>
      <trkpt lat="36.840759" lon="-3.518794">
        <ele>137.662</ele>
        <time>2022-12-06T07:45:45Z</time>
      </trkpt>
      <trkpt lat="36.840802" lon="-3.518751">
        <ele>138.816</ele>
        <time>2022-12-06T07:45:50Z</time>
      </trkpt>
      <trkpt lat="36.840851" lon="-3.518705">
        <ele>140.017</ele>
        <time>2022-12-06T07:45:55Z</time>
      </trkpt>
      <trkpt lat="36.840900" lon="-3.518656">
        <ele>141.194</ele>
        <time>2022-12-06T07:46:00Z</time>
      </trkpt>
      <trkpt lat="36.840945" lon="-3.518615">
        <ele>142.165</ele>
        <time>2022-12-06T07:46:05Z</time>
      </trkpt>
      <trkpt lat="36.840990" lon="-3.518588">
        <ele>143.127</ele>
        <time>2022-12-06T07:46:09Z</time>
      </trkpt>
      <trkpt lat="36.841037" lon="-3.518525">
        <ele>144.368</ele>
        <time>2022-12-06T07:46:14Z</time>
      </trkpt>
      <trkpt lat="36.841069" lon="-3.518462">
        <ele>145.314</ele>
        <time>2022-12-06T07:46:19Z</time>
      </trkpt>
      <trkpt lat="36.841097" lon="-3.518399">
        <ele>146.609</ele>
        <time>2022-12-06T07:46:24Z</time>
      </trkpt>
      <trkpt lat="36.841121" lon="-3.518366">
        <ele>147.893</ele>
        <time>2022-12-06T07:46:28Z</time>
      </trkpt>
      <trkpt lat="36.841170" lon="-3.518319">
        <ele>149.084</ele>
        <time>2022-12-06T07:46:33Z</time>
      </trkpt>
      <trkpt lat="36.841207" lon="-3.518291">
        <ele>150.152</ele>
        <time>2022-12-06T07:46:37Z</time>
      </trkpt>
      <trkpt lat="36.841267" lon="-3.518273">
        <ele>151.349</ele>
        <time>2022-12-06T07:46:42Z</time>
      </trkpt>
      <trkpt lat="36.841319" lon="-3.518272">
        <ele>152.677</ele>
        <time>2022-12-06T07:46:47Z</time>
      </trkpt>
      <trkpt lat="36.841348" lon="-3.518266">
        <ele>153.321</ele>
        <time>2022-12-06T07:46:50Z</time>
      </trkpt>
      <trkpt lat="36.841358" lon="-3.518264">
        <ele>153.622</ele>
        <time>2022-12-06T07:46:51Z</time>
      </trkpt>
      <trkpt lat="36.841413" lon="-3.518240">
        <ele>154.899</ele>
        <time>2022-12-06T07:46:56Z</time>
      </trkpt>
      <trkpt lat="36.841485" lon="-3.518233">
        <ele>155.810</ele>
        <time>2022-12-06T07:47:02Z</time>
      </trkpt>
      <trkpt lat="36.841499" lon="-3.518229">
        <ele>156.097</ele>
        <time>2022-12-06T07:47:03Z</time>
      </trkpt>
      <trkpt lat="36.841565" lon="-3.518230">
        <ele>157.023</ele>
        <time>2022-12-06T07:47:08Z</time>
      </trkpt>
      <trkpt lat="36.841635" lon="-3.518250">
        <ele>158.125</ele>
        <time>2022-12-06T07:47:14Z</time>
      </trkpt>
      <trkpt lat="36.841673" lon="-3.518260">
        <ele>159.109</ele>
        <time>2022-12-06T07:47:18Z</time>
      </trkpt>
      <trkpt lat="36.841677" lon="-3.518268">
        <ele>159.320</ele>
        <time>2022-12-06T07:47:19Z</time>
      </trkpt>
      <trkpt lat="36.841683" lon="-3.518273">
        <ele>159.841</ele>
        <time>2022-12-06T07:47:20Z</time>
      </trkpt>
      <trkpt lat="36.841694" lon="-3.518293">
        <ele>160.679</ele>
        <time>2022-12-06T07:47:22Z</time>
      </trkpt>
      <trkpt lat="36.841723" lon="-3.518334">
        <ele>161.676</ele>
        <time>2022-12-06T07:47:26Z</time>
      </trkpt>
      <trkpt lat="36.841722" lon="-3.518371">
        <ele>162.824</ele>
        <time>2022-12-06T07:47:31Z</time>
      </trkpt>
      <trkpt lat="36.841681" lon="-3.518357">
        <ele>164.028</ele>
        <time>2022-12-06T07:47:35Z</time>
      </trkpt>
      <trkpt lat="36.841607" lon="-3.518344">
        <ele>165.099</ele>
        <time>2022-12-06T07:47:40Z</time>
      </trkpt>
      <trkpt lat="36.841533" lon="-3.518341">
        <ele>166.166</ele>
        <time>2022-12-06T07:47:46Z</time>
      </trkpt>
      <trkpt lat="36.841488" lon="-3.518374">
        <ele>167.167</ele>
        <time>2022-12-06T07:47:51Z</time>
      </trkpt>
      <trkpt lat="36.841453" lon="-3.518436">
        <ele>168.335</ele>
        <time>2022-12-06T07:47:56Z</time>
      </trkpt>
      <trkpt lat="36.841472" lon="-3.518476">
        <ele>168.886</ele>
        <time>2022-12-06T07:47:58Z</time>
      </trkpt>
      <trkpt lat="36.841515" lon="-3.518503">
        <ele>169.314</ele>
        <time>2022-12-06T07:48:02Z</time>
      </trkpt>
      <trkpt lat="36.841567" lon="-3.518521">
        <ele>170.609</ele>
        <time>2022-12-06T07:48:07Z</time>
      </trkpt>
      <trkpt lat="36.841582" lon="-3.518533">
        <ele>171.074</ele>
        <time>2022-12-06T07:48:09Z</time>
      </trkpt>
      <trkpt lat="36.841615" lon="-3.518551">
        <ele>171.885</ele>
        <time>2022-12-06T07:48:13Z</time>
      </trkpt>
      <trkpt lat="36.841645" lon="-3.518557">
        <ele>172.643</ele>
        <time>2022-12-06T07:48:16Z</time>
      </trkpt>
      <trkpt lat="36.841654" lon="-3.518560">
        <ele>172.860</ele>
        <time>2022-12-06T07:48:17Z</time>
      </trkpt>
      <trkpt lat="36.841683" lon="-3.518568">
        <ele>174.028</ele>
        <time>2022-12-06T07:48:21Z</time>
      </trkpt>
      <trkpt lat="36.841714" lon="-3.518574">
        <ele>175.122</ele>
        <time>2022-12-06T07:48:26Z</time>
      </trkpt>
      <trkpt lat="36.841754" lon="-3.518584">
        <ele>176.393</ele>
        <time>2022-12-06T07:48:31Z</time>
      </trkpt>
      <trkpt lat="36.841786" lon="-3.518607">
        <ele>177.320</ele>
        <time>2022-12-06T07:48:35Z</time>
      </trkpt>
      <trkpt lat="36.841797" lon="-3.518609">
        <ele>177.841</ele>
        <time>2022-12-06T07:48:36Z</time>
      </trkpt>
      <trkpt lat="36.841832" lon="-3.518629">
        <ele>178.351</ele>
        <time>2022-12-06T07:48:40Z</time>
      </trkpt>
      <trkpt lat="36.841867" lon="-3.518646">
        <ele>179.601</ele>
        <time>2022-12-06T07:48:44Z</time>
      </trkpt>
      <trkpt lat="36.841910" lon="-3.518673">
        <ele>180.811</ele>
        <time>2022-12-06T07:48:49Z</time>
      </trkpt>
      <trkpt lat="36.841934" lon="-3.518700">
        <ele>181.609</ele>
        <time>2022-12-06T07:48:53Z</time>
      </trkpt>
      <trkpt lat="36.841942" lon="-3.518704">
        <ele>181.876</ele>
        <time>2022-12-06T07:48:54Z</time>
      </trkpt>
      <trkpt lat="36.841972" lon="-3.518749">
        <ele>183.097</ele>
        <time>2022-12-06T07:48:59Z</time>
      </trkpt>
      <trkpt lat="36.841979" lon="-3.518752">
        <ele>183.165</ele>
        <time>2022-12-06T07:49:00Z</time>
      </trkpt>
      <trkpt lat="36.842034" lon="-3.518773">
        <ele>184.192</ele>
        <time>2022-12-06T07:49:06Z</time>
      </trkpt>
      <trkpt lat="36.842044" lon="-3.518777">
        <ele>184.330</ele>
        <time>2022-12-06T07:49:07Z</time>
      </trkpt>
      <trkpt lat="36.842075" lon="-3.518782">
        <ele>185.164</ele>
        <time>2022-12-06T07:49:10Z</time>
      </trkpt>
      <trkpt lat="36.842114" lon="-3.518788">
        <ele>186.185</ele>
        <time>2022-12-06T07:49:14Z</time>
      </trkpt>
      <trkpt lat="36.842133" lon="-3.518776">
        <ele>186.692</ele>
        <time>2022-12-06T07:49:16Z</time>
      </trkpt>
      <trkpt lat="36.842176" lon="-3.518777">
        <ele>187.343</ele>
        <time>2022-12-06T07:49:20Z</time>
      </trkpt>
      <trkpt lat="36.842233" lon="-3.518776">
        <ele>188.395</ele>
        <time>2022-12-06T07:49:26Z</time>
      </trkpt>
      <trkpt lat="36.842312" lon="-3.518797">
        <ele>189.649</ele>
        <time>2022-12-06T07:49:33Z</time>
      </trkpt>
      <trkpt lat="36.842334" lon="-3.518805">
        <ele>190.123</ele>
        <time>2022-12-06T07:49:36Z</time>
      </trkpt>
      <trkpt lat="36.842361" lon="-3.518802">
        <ele>190.609</ele>
        <time>2022-12-06T07:49:39Z</time>
      </trkpt>
      <trkpt lat="36.842407" lon="-3.518792">
        <ele>191.840</ele>
        <time>2022-12-06T07:49:43Z</time>
      </trkpt>
      <trkpt lat="36.842451" lon="-3.518822">
        <ele>192.841</ele>
        <time>2022-12-06T07:49:48Z</time>
      </trkpt>
      <trkpt lat="36.842463" lon="-3.518819">
        <ele>193.069</ele>
        <time>2022-12-06T07:49:49Z</time>
      </trkpt>
      <trkpt lat="36.842492" lon="-3.518804">
        <ele>193.866</ele>
        <time>2022-12-06T07:49:52Z</time>
      </trkpt>
      <trkpt lat="36.842501" lon="-3.518779">
        <ele>194.364</ele>
        <time>2022-12-06T07:49:54Z</time>
      </trkpt>
      <trkpt lat="36.842491" lon="-3.518749">
        <ele>194.858</ele>
        <time>2022-12-06T07:49:56Z</time>
      </trkpt>
      <trkpt lat="36.842473" lon="-3.518731">
        <ele>195.169</ele>
        <time>2022-12-06T07:49:58Z</time>
      </trkpt>
      <trkpt lat="36.842454" lon="-3.518700">
        <ele>195.666</ele>
        <time>2022-12-06T07:50:00Z</time>
      </trkpt>
      <trkpt lat="36.842444" lon="-3.518689">
        <ele>196.087</ele>
        <time>2022-12-06T07:50:01Z</time>
      </trkpt>
      <trkpt lat="36.842388" lon="-3.518617">
        <ele>197.027</ele>
        <time>2022-12-06T07:50:07Z</time>
      </trkpt>
      <trkpt lat="36.842345" lon="-3.518569">
        <ele>198.068</ele>
        <time>2022-12-06T07:50:11Z</time>
      </trkpt>
      <trkpt lat="36.842330" lon="-3.518553">
        <ele>198.314</ele>
        <time>2022-12-06T07:50:13Z</time>
      </trkpt>
      <trkpt lat="36.842305" lon="-3.518523">
        <ele>199.009</ele>
        <time>2022-12-06T07:50:16Z</time>
      </trkpt>
      <trkpt lat="36.842281" lon="-3.518356">
        <ele>200.023</ele>
        <time>2022-12-06T07:50:28Z</time>
      </trkpt>
      <trkpt lat="36.842293" lon="-3.518297">
        <ele>201.044</ele>
        <time>2022-12-06T07:50:33Z</time>
      </trkpt>
      <trkpt lat="36.842297" lon="-3.518268">
        <ele>201.812</ele>
        <time>2022-12-06T07:50:36Z</time>
      </trkpt>
      <trkpt lat="36.842301" lon="-3.518263">
        <ele>202.069</ele>
        <time>2022-12-06T07:50:37Z</time>
      </trkpt>
      <trkpt lat="36.842304" lon="-3.518244">
        <ele>202.667</ele>
        <time>2022-12-06T07:50:39Z</time>
      </trkpt>
      <trkpt lat="36.842314" lon="-3.518213">
        <ele>203.171</ele>
        <time>2022-12-06T07:50:42Z</time>
      </trkpt>
      <trkpt lat="36.842317" lon="-3.518185">
        <ele>204.042</ele>
        <time>2022-12-06T07:50:44Z</time>
      </trkpt>
      <trkpt lat="36.842314" lon="-3.518171">
        <ele>204.379</ele>
        <time>2022-12-06T07:50:45Z</time>
      </trkpt>
      <trkpt lat="36.842309" lon="-3.518076">
        <ele>205.330</ele>
        <time>2022-12-06T07:50:52Z</time>
      </trkpt>
      <trkpt lat="36.842325" lon="-3.518051">
        <ele>205.693</ele>
        <time>2022-12-06T07:50:55Z</time>
      </trkpt>
      <trkpt lat="36.842352" lon="-3.518003">
        <ele>206.065</ele>
        <time>2022-12-06T07:50:59Z</time>
      </trkpt>
      <trkpt lat="36.842376" lon="-3.517970">
        <ele>206.621</ele>
        <time>2022-12-06T07:51:02Z</time>
      </trkpt>
      <trkpt lat="36.842414" lon="-3.517932">
        <ele>207.609</ele>
        <time>2022-12-06T07:51:07Z</time>
      </trkpt>
      <trkpt lat="36.842426" lon="-3.517911">
        <ele>208.190</ele>
        <time>2022-12-06T07:51:09Z</time>
      </trkpt>
      <trkpt lat="36.842444" lon="-3.517853">
        <ele>208.631</ele>
        <time>2022-12-06T07:51:13Z</time>
      </trkpt>
      <trkpt lat="36.842485" lon="-3.517779">
        <ele>209.849</ele>
        <time>2022-12-06T07:51:20Z</time>
      </trkpt>
      <trkpt lat="36.842528" lon="-3.517735">
        <ele>211.066</ele>
        <time>2022-12-06T07:51:26Z</time>
      </trkpt>
      <trkpt lat="36.842578" lon="-3.517722">
        <ele>212.064</ele>
        <time>2022-12-06T07:51:31Z</time>
      </trkpt>
      <trkpt lat="36.842622" lon="-3.517714">
        <ele>213.188</ele>
        <time>2022-12-06T07:51:36Z</time>
      </trkpt>
      <trkpt lat="36.842632" lon="-3.517711">
        <ele>213.369</ele>
        <time>2022-12-06T07:51:37Z</time>
      </trkpt>
      <trkpt lat="36.842671" lon="-3.517685">
        <ele>214.176</ele>
        <time>2022-12-06T07:51:41Z</time>
      </trkpt>
      <trkpt lat="36.842725" lon="-3.517645">
        <ele>215.327</ele>
        <time>2022-12-06T07:51:47Z</time>
      </trkpt>
      <trkpt lat="36.842781" lon="-3.517612">
        <ele>216.695</ele>
        <time>2022-12-06T07:51:53Z</time>
      </trkpt>
      <trkpt lat="36.842810" lon="-3.517573">
        <ele>217.349</ele>
        <time>2022-12-06T07:51:57Z</time>
      </trkpt>
      <trkpt lat="36.842811" lon="-3.517561">
        <ele>217.623</ele>
        <time>2022-12-06T07:51:58Z</time>
      </trkpt>
      <trkpt lat="36.842826" lon="-3.517498">
        <ele>218.609</ele>
        <time>2022-12-06T07:52:03Z</time>
      </trkpt>
      <trkpt lat="36.842840" lon="-3.517432">
        <ele>219.860</ele>
        <time>2022-12-06T07:52:09Z</time>
      </trkpt>
      <trkpt lat="36.842856" lon="-3.517374">
        <ele>221.041</ele>
        <time>2022-12-06T07:52:14Z</time>
      </trkpt>
      <trkpt lat="36.842894" lon="-3.517297">
        <ele>222.039</ele>
        <time>2022-12-06T07:52:21Z</time>
      </trkpt>
      <trkpt lat="36.842929" lon="-3.517243">
        <ele>223.156</ele>
        <time>2022-12-06T07:52:26Z</time>
      </trkpt>
      <trkpt lat="36.842978" lon="-3.517193">
        <ele>224.384</ele>
        <time>2022-12-06T07:52:32Z</time>
      </trkpt>
      <trkpt lat="36.843002" lon="-3.517180">
        <ele>224.828</ele>
        <time>2022-12-06T07:52:35Z</time>
      </trkpt>
      <trkpt lat="36.843029" lon="-3.517170">
        <ele>225.319</ele>
        <time>2022-12-06T07:52:38Z</time>
      </trkpt>
      <trkpt lat="36.843078" lon="-3.517148">
        <ele>226.676</ele>
        <time>2022-12-06T07:52:43Z</time>
      </trkpt>
      <trkpt lat="36.843125" lon="-3.517107">
        <ele>227.877</ele>
        <time>2022-12-06T07:52:48Z</time>
      </trkpt>
      <trkpt lat="36.843193" lon="-3.517067">
        <ele>229.078</ele>
        <time>2022-12-06T07:52:54Z</time>
      </trkpt>
      <trkpt lat="36.843257" lon="-3.517048">
        <ele>230.133</ele>
        <time>2022-12-06T07:53:00Z</time>
      </trkpt>
      <trkpt lat="36.843303" lon="-3.517074">
        <ele>231.326</ele>
        <time>2022-12-06T07:53:05Z</time>
      </trkpt>
      <trkpt lat="36.843335" lon="-3.517097">
        <ele>232.309</ele>
        <time>2022-12-06T07:53:09Z</time>
      </trkpt>
      <trkpt lat="36.843413" lon="-3.517132">
        <ele>233.878</ele>
        <time>2022-12-06T07:53:16Z</time>
      </trkpt>
      <trkpt lat="36.843435" lon="-3.517149">
        <ele>234.369</ele>
        <time>2022-12-06T07:53:19Z</time>
      </trkpt>
      <trkpt lat="36.843450" lon="-3.517175">
        <ele>234.897</ele>
        <time>2022-12-06T07:53:21Z</time>
      </trkpt>
      <trkpt lat="36.843495" lon="-3.517230">
        <ele>235.674</ele>
        <time>2022-12-06T07:53:26Z</time>
      </trkpt>
      <trkpt lat="36.843505" lon="-3.517235">
        <ele>235.852</ele>
        <time>2022-12-06T07:53:27Z</time>
      </trkpt>
      <trkpt lat="36.843547" lon="-3.517262">
        <ele>236.626</ele>
        <time>2022-12-06T07:53:31Z</time>
      </trkpt>
      <trkpt lat="36.843561" lon="-3.517263">
        <ele>236.817</ele>
        <time>2022-12-06T07:53:32Z</time>
      </trkpt>
      <trkpt lat="36.843622" lon="-3.517287">
        <ele>237.854</ele>
        <time>2022-12-06T07:53:38Z</time>
      </trkpt>
      <trkpt lat="36.843671" lon="-3.517312">
        <ele>239.025</ele>
        <time>2022-12-06T07:53:43Z</time>
      </trkpt>
      <trkpt lat="36.843725" lon="-3.517325">
        <ele>240.013</ele>
        <time>2022-12-06T07:53:48Z</time>
      </trkpt>
      <trkpt lat="36.843778" lon="-3.517348">
        <ele>241.143</ele>
        <time>2022-12-06T07:53:53Z</time>
      </trkpt>
      <trkpt lat="36.843859" lon="-3.517401">
        <ele>242.107</ele>
        <time>2022-12-06T07:54:01Z</time>
      </trkpt>
      <trkpt lat="36.843887" lon="-3.517426">
        <ele>243.009</ele>
        <time>2022-12-06T07:54:04Z</time>
      </trkpt>
      <trkpt lat="36.843907" lon="-3.517432">
        <ele>243.352</ele>
        <time>2022-12-06T07:54:06Z</time>
      </trkpt>
      <trkpt lat="36.843966" lon="-3.517482">
        <ele>244.663</ele>
        <time>2022-12-06T07:54:13Z</time>
      </trkpt>
      <trkpt lat="36.844018" lon="-3.517508">
        <ele>245.641</ele>
        <time>2022-12-06T07:54:18Z</time>
      </trkpt>
      <trkpt lat="36.844083" lon="-3.517552">
        <ele>246.878</ele>
        <time>2022-12-06T07:54:24Z</time>
      </trkpt>
      <trkpt lat="36.844142" lon="-3.517555">
        <ele>247.886</ele>
        <time>2022-12-06T07:54:29Z</time>
      </trkpt>
      <trkpt lat="36.844160" lon="-3.517547">
        <ele>248.340</ele>
        <time>2022-12-06T07:54:31Z</time>
      </trkpt>
      <trkpt lat="36.844171" lon="-3.517546">
        <ele>249.011</ele>
        <time>2022-12-06T07:54:33Z</time>
      </trkpt>
      <trkpt lat="36.844168" lon="-3.517558">
        <ele>249.868</ele>
        <time>2022-12-06T07:54:36Z</time>
      </trkpt>
      <trkpt lat="36.844158" lon="-3.517570">
        <ele>250.119</ele>
        <time>2022-12-06T07:54:38Z</time>
      </trkpt>
      <trkpt lat="36.844148" lon="-3.517578">
        <ele>250.649</ele>
        <time>2022-12-06T07:54:39Z</time>
      </trkpt>
      <trkpt lat="36.844117" lon="-3.517592">
        <ele>251.302</ele>
        <time>2022-12-06T07:54:42Z</time>
      </trkpt>
      <trkpt lat="36.844040" lon="-3.517596">
        <ele>252.322</ele>
        <time>2022-12-06T07:54:48Z</time>
      </trkpt>
      <trkpt lat="36.843949" lon="-3.517589">
        <ele>253.609</ele>
        <time>2022-12-06T07:54:55Z</time>
      </trkpt>
      <trkpt lat="36.843884" lon="-3.517584">
        <ele>254.655</ele>
        <time>2022-12-06T07:55:01Z</time>
      </trkpt>
      <trkpt lat="36.843825" lon="-3.517590">
        <ele>255.646</ele>
        <time>2022-12-06T07:55:06Z</time>
      </trkpt>
      <trkpt lat="36.843796" lon="-3.517606">
        <ele>256.244</ele>
        <time>2022-12-06T07:55:09Z</time>
      </trkpt>
      <trkpt lat="36.843751" lon="-3.517630">
        <ele>256.751</ele>
        <time>2022-12-06T07:55:13Z</time>
      </trkpt>
      <trkpt lat="36.843670" lon="-3.517701">
        <ele>258.039</ele>
        <time>2022-12-06T07:55:21Z</time>
      </trkpt>
      <trkpt lat="36.843642" lon="-3.517787">
        <ele>259.083</ele>
        <time>2022-12-06T07:55:27Z</time>
      </trkpt>
      <trkpt lat="36.843654" lon="-3.517858">
        <ele>260.374</ele>
        <time>2022-12-06T07:55:32Z</time>
      </trkpt>
      <trkpt lat="36.843671" lon="-3.517916">
        <ele>261.311</ele>
        <time>2022-12-06T07:55:36Z</time>
      </trkpt>
      <trkpt lat="36.843688" lon="-3.517965">
        <ele>262.652</ele>
        <time>2022-12-06T07:55:40Z</time>
      </trkpt>
      <trkpt lat="36.843718" lon="-3.518036">
        <ele>263.668</ele>
        <time>2022-12-06T07:55:45Z</time>
      </trkpt>
      <trkpt lat="36.843742" lon="-3.518074">
        <ele>264.742</ele>
        <time>2022-12-06T07:55:49Z</time>
      </trkpt>
      <trkpt lat="36.843768" lon="-3.518118">
        <ele>266.026</ele>
        <time>2022-12-06T07:55:54Z</time>
      </trkpt>
      <trkpt lat="36.843796" lon="-3.518167">
        <ele>267.209</ele>
        <time>2022-12-06T07:55:59Z</time>
      </trkpt>
      <trkpt lat="36.843835" lon="-3.518189">
        <ele>268.377</ele>
        <time>2022-12-06T07:56:04Z</time>
      </trkpt>
      <trkpt lat="36.843843" lon="-3.518195">
        <ele>268.648</ele>
        <time>2022-12-06T07:56:05Z</time>
      </trkpt>
      <trkpt lat="36.843870" lon="-3.518199">
        <ele>269.396</ele>
        <time>2022-12-06T07:56:08Z</time>
      </trkpt>
      <trkpt lat="36.843900" lon="-3.518198">
        <ele>270.353</ele>
        <time>2022-12-06T07:56:12Z</time>
      </trkpt>
      <trkpt lat="36.843918" lon="-3.518182">
        <ele>271.081</ele>
        <time>2022-12-06T07:56:14Z</time>
      </trkpt>
      <trkpt lat="36.843939" lon="-3.518160">
        <ele>271.355</ele>
        <time>2022-12-06T07:56:16Z</time>
      </trkpt>
      <trkpt lat="36.843959" lon="-3.518145">
        <ele>272.036</ele>
        <time>2022-12-06T07:56:18Z</time>
      </trkpt>
      <trkpt lat="36.843992" lon="-3.518129">
        <ele>272.623</ele>
        <time>2022-12-06T07:56:21Z</time>
      </trkpt>
      <trkpt lat="36.844047" lon="-3.518112">
        <ele>273.664</ele>
        <time>2022-12-06T07:56:26Z</time>
      </trkpt>
      <trkpt lat="36.844135" lon="-3.518119">
        <ele>274.778</ele>
        <time>2022-12-06T07:56:34Z</time>
      </trkpt>
      <trkpt lat="36.844159" lon="-3.518131">
        <ele>275.233</ele>
        <time>2022-12-06T07:56:37Z</time>
      </trkpt>
      <trkpt lat="36.844182" lon="-3.518153">
        <ele>276.026</ele>
        <time>2022-12-06T07:56:40Z</time>
      </trkpt>
      <trkpt lat="36.844193" lon="-3.518160">
        <ele>276.209</ele>
        <time>2022-12-06T07:56:41Z</time>
      </trkpt>
      <trkpt lat="36.844212" lon="-3.518172">
        <ele>276.658</ele>
        <time>2022-12-06T07:56:43Z</time>
      </trkpt>
      <trkpt lat="36.844219" lon="-3.518173">
        <ele>277.039</ele>
        <time>2022-12-06T07:56:44Z</time>
      </trkpt>
      <trkpt lat="36.844228" lon="-3.518176">
        <ele>277.277</ele>
        <time>2022-12-06T07:56:45Z</time>
      </trkpt>
      <trkpt lat="36.844247" lon="-3.518199">
        <ele>278.074</ele>
        <time>2022-12-06T07:56:48Z</time>
      </trkpt>
      <trkpt lat="36.844267" lon="-3.518227">
        <ele>279.212</ele>
        <time>2022-12-06T07:56:52Z</time>
      </trkpt>
      <trkpt lat="36.844294" lon="-3.518241">
        <ele>280.256</ele>
        <time>2022-12-06T07:56:56Z</time>
      </trkpt>
      <trkpt lat="36.844329" lon="-3.518254">
        <ele>281.387</ele>
        <time>2022-12-06T07:57:00Z</time>
      </trkpt>
      <trkpt lat="36.844344" lon="-3.518264">
        <ele>282.054</ele>
        <time>2022-12-06T07:57:02Z</time>
      </trkpt>
      <trkpt lat="36.844359" lon="-3.518265">
        <ele>282.645</ele>
        <time>2022-12-06T07:57:04Z</time>
      </trkpt>
      <trkpt lat="36.844368" lon="-3.518267">
        <ele>282.752</ele>
        <time>2022-12-06T07:57:05Z</time>
      </trkpt>
      <trkpt lat="36.844395" lon="-3.518279">
        <ele>283.653</ele>
        <time>2022-12-06T07:57:08Z</time>
      </trkpt>
      <trkpt lat="36.844434" lon="-3.518291">
        <ele>284.708</ele>
        <time>2022-12-06T07:57:12Z</time>
      </trkpt>
      <trkpt lat="36.844450" lon="-3.518302">
        <ele>285.209</ele>
        <time>2022-12-06T07:57:14Z</time>
      </trkpt>
      <trkpt lat="36.844459" lon="-3.518307">
        <ele>285.756</ele>
        <time>2022-12-06T07:57:16Z</time>
      </trkpt>
      <trkpt lat="36.844455" lon="-3.518331">
        <ele>287.077</ele>
        <time>2022-12-06T07:57:20Z</time>
      </trkpt>
      <trkpt lat="36.844448" lon="-3.518355">
        <ele>287.745</ele>
        <time>2022-12-06T07:57:23Z</time>
      </trkpt>
      <trkpt lat="36.844448" lon="-3.518363">
        <ele>288.292</ele>
        <time>2022-12-06T07:57:24Z</time>
      </trkpt>
      <trkpt lat="36.844440" lon="-3.518393">
        <ele>289.240</ele>
        <time>2022-12-06T07:57:28Z</time>
      </trkpt>
      <trkpt lat="36.844453" lon="-3.518430">
        <ele>290.384</ele>
        <time>2022-12-06T07:57:32Z</time>
      </trkpt>
      <trkpt lat="36.844474" lon="-3.518453">
        <ele>291.665</ele>
        <time>2022-12-06T07:57:36Z</time>
      </trkpt>
      <trkpt lat="36.844504" lon="-3.518467">
        <ele>292.752</ele>
        <time>2022-12-06T07:57:40Z</time>
      </trkpt>
      <trkpt lat="36.844532" lon="-3.518477">
        <ele>293.683</ele>
        <time>2022-12-06T07:57:43Z</time>
      </trkpt>
      <trkpt lat="36.844540" lon="-3.518480">
        <ele>293.789</ele>
        <time>2022-12-06T07:57:44Z</time>
      </trkpt>
      <trkpt lat="36.844560" lon="-3.518485">
        <ele>294.606</ele>
        <time>2022-12-06T07:57:47Z</time>
      </trkpt>
      <trkpt lat="36.844572" lon="-3.518483">
        <ele>295.026</ele>
        <time>2022-12-06T07:57:49Z</time>
      </trkpt>
      <trkpt lat="36.844602" lon="-3.518509">
        <ele>296.209</ele>
        <time>2022-12-06T07:57:54Z</time>
      </trkpt>
      <trkpt lat="36.844608" lon="-3.518515">
        <ele>296.339</ele>
        <time>2022-12-06T07:57:55Z</time>
      </trkpt>
      <trkpt lat="36.844616" lon="-3.518527">
        <ele>296.750</ele>
        <time>2022-12-06T07:57:57Z</time>
      </trkpt>
      <trkpt lat="36.844625" lon="-3.518542">
        <ele>297.288</ele>
        <time>2022-12-06T07:57:59Z</time>
      </trkpt>
      <trkpt lat="36.844647" lon="-3.518568">
        <ele>298.345</ele>
        <time>2022-12-06T07:58:03Z</time>
      </trkpt>
      <trkpt lat="36.844671" lon="-3.518584">
        <ele>299.643</ele>
        <time>2022-12-06T07:58:07Z</time>
      </trkpt>
      <trkpt lat="36.844700" lon="-3.518603">
        <ele>300.797</ele>
        <time>2022-12-06T07:58:11Z</time>
      </trkpt>
      <trkpt lat="36.844723" lon="-3.518619">
        <ele>302.038</ele>
        <time>2022-12-06T07:58:15Z</time>
      </trkpt>
      <trkpt lat="36.844744" lon="-3.518639">
        <ele>303.075</ele>
        <time>2022-12-06T07:58:19Z</time>
      </trkpt>
      <trkpt lat="36.844767" lon="-3.518673">
        <ele>304.026</ele>
        <time>2022-12-06T07:58:24Z</time>
      </trkpt>
      <trkpt lat="36.844785" lon="-3.518699">
        <ele>305.295</ele>
        <time>2022-12-06T07:58:28Z</time>
      </trkpt>
      <trkpt lat="36.844808" lon="-3.518739">
        <ele>306.349</ele>
        <time>2022-12-06T07:58:32Z</time>
      </trkpt>
      <trkpt lat="36.844848" lon="-3.518753">
        <ele>307.323</ele>
        <time>2022-12-06T07:58:37Z</time>
      </trkpt>
      <trkpt lat="36.844883" lon="-3.518762">
        <ele>308.209</ele>
        <time>2022-12-06T07:58:40Z</time>
      </trkpt>
      <trkpt lat="36.844898" lon="-3.518771">
        <ele>308.610</ele>
        <time>2022-12-06T07:58:42Z</time>
      </trkpt>
      <trkpt lat="36.844903" lon="-3.518775">
        <ele>308.761</ele>
        <time>2022-12-06T07:58:43Z</time>
      </trkpt>
      <trkpt lat="36.844947" lon="-3.518779">
        <ele>309.729</ele>
        <time>2022-12-06T07:58:48Z</time>
      </trkpt>
      <trkpt lat="36.845051" lon="-3.518820">
        <ele>310.776</ele>
        <time>2022-12-06T07:58:58Z</time>
      </trkpt>
      <trkpt lat="36.845112" lon="-3.518841">
        <ele>312.014</ele>
        <time>2022-12-06T07:59:04Z</time>
      </trkpt>
      <trkpt lat="36.845126" lon="-3.518845">
        <ele>312.348</ele>
        <time>2022-12-06T07:59:06Z</time>
      </trkpt>
      <trkpt lat="36.845155" lon="-3.518858">
        <ele>313.229</ele>
        <time>2022-12-06T07:59:10Z</time>
      </trkpt>
      <trkpt lat="36.845167" lon="-3.518865">
        <ele>313.776</ele>
        <time>2022-12-06T07:59:12Z</time>
      </trkpt>
      <trkpt lat="36.845187" lon="-3.518865">
        <ele>314.387</ele>
        <time>2022-12-06T07:59:14Z</time>
      </trkpt>
      <trkpt lat="36.845239" lon="-3.518866">
        <ele>315.361</ele>
        <time>2022-12-06T07:59:19Z</time>
      </trkpt>
      <trkpt lat="36.845258" lon="-3.518866">
        <ele>315.721</ele>
        <time>2022-12-06T07:59:21Z</time>
      </trkpt>
      <trkpt lat="36.845286" lon="-3.518868">
        <ele>316.313</ele>
        <time>2022-12-06T07:59:25Z</time>
      </trkpt>
      <trkpt lat="36.845308" lon="-3.518825">
        <ele>316.609</ele>
        <time>2022-12-06T07:59:29Z</time>
      </trkpt>
      <trkpt lat="36.845321" lon="-3.518786">
        <ele>316.287</ele>
        <time>2022-12-06T07:59:33Z</time>
      </trkpt>
      <trkpt lat="36.845339" lon="-3.518768">
        <ele>315.388</ele>
        <time>2022-12-06T07:59:39Z</time>
      </trkpt>
      <trkpt lat="36.845336" lon="-3.518781">
        <ele>316.256</ele>
        <time>2022-12-06T07:59:58Z</time>
      </trkpt>
      <trkpt lat="36.845350" lon="-3.518742">
        <ele>315.313</ele>
        <time>2022-12-06T08:00:15Z</time>
      </trkpt>
      <trkpt lat="36.845371" lon="-3.518703">
        <ele>315.091</ele>
        <time>2022-12-06T08:00:18Z</time>
      </trkpt>
      <trkpt lat="36.845396" lon="-3.518665">
        <ele>314.275</ele>
        <time>2022-12-06T08:00:21Z</time>
      </trkpt>
      <trkpt lat="36.845420" lon="-3.518588">
        <ele>313.276</ele>
        <time>2022-12-06T08:00:25Z</time>
      </trkpt>
      <trkpt lat="36.845468" lon="-3.518445">
        <ele>312.093</ele>
        <time>2022-12-06T08:00:30Z</time>
      </trkpt>
      <trkpt lat="36.845506" lon="-3.518371">
        <ele>310.774</ele>
        <time>2022-12-06T08:00:33Z</time>
      </trkpt>
      <trkpt lat="36.845570" lon="-3.518317">
        <ele>309.773</ele>
        <time>2022-12-06T08:00:36Z</time>
      </trkpt>
      <trkpt lat="36.845652" lon="-3.518292">
        <ele>308.285</ele>
        <time>2022-12-06T08:00:39Z</time>
      </trkpt>
      <trkpt lat="36.845731" lon="-3.518279">
        <ele>307.013</ele>
        <time>2022-12-06T08:00:42Z</time>
      </trkpt>
      <trkpt lat="36.845856" lon="-3.518240">
        <ele>305.709</ele>
        <time>2022-12-06T08:00:47Z</time>
      </trkpt>
      <trkpt lat="36.845914" lon="-3.518199">
        <ele>304.648</ele>
        <time>2022-12-06T08:00:52Z</time>
      </trkpt>
      <trkpt lat="36.846020" lon="-3.518044">
        <ele>303.699</ele>
        <time>2022-12-06T08:01:04Z</time>
      </trkpt>
      <trkpt lat="36.846071" lon="-3.518041">
        <ele>303.337</ele>
        <time>2022-12-06T08:01:09Z</time>
      </trkpt>
      <trkpt lat="36.846173" lon="-3.518086">
        <ele>302.374</ele>
        <time>2022-12-06T08:01:19Z</time>
      </trkpt>
      <trkpt lat="36.846194" lon="-3.518093">
        <ele>302.262</ele>
        <time>2022-12-06T08:01:20Z</time>
      </trkpt>
      <trkpt lat="36.846231" lon="-3.518099">
        <ele>301.696</ele>
        <time>2022-12-06T08:01:22Z</time>
      </trkpt>
      <trkpt lat="36.846261" lon="-3.518084">
        <ele>301.397</ele>
        <time>2022-12-06T08:01:24Z</time>
      </trkpt>
      <trkpt lat="36.846271" lon="-3.518070">
        <ele>301.314</ele>
        <time>2022-12-06T08:01:26Z</time>
      </trkpt>
      <trkpt lat="36.846294" lon="-3.518054">
        <ele>301.275</ele>
        <time>2022-12-06T08:01:28Z</time>
      </trkpt>
      <trkpt lat="36.846355" lon="-3.517992">
        <ele>300.218</ele>
        <time>2022-12-06T08:01:34Z</time>
      </trkpt>
      <trkpt lat="36.846445" lon="-3.517893">
        <ele>300.698</ele>
        <time>2022-12-06T08:01:44Z</time>
      </trkpt>
      <trkpt lat="36.846472" lon="-3.517884">
        <ele>300.717</ele>
        <time>2022-12-06T08:01:47Z</time>
      </trkpt>
      <trkpt lat="36.846500" lon="-3.517880">
        <ele>300.709</ele>
        <time>2022-12-06T08:01:49Z</time>
      </trkpt>
      <trkpt lat="36.846556" lon="-3.517881">
        <ele>301.382</ele>
        <time>2022-12-06T08:01:54Z</time>
      </trkpt>
      <trkpt lat="36.846572" lon="-3.517886">
        <ele>301.393</ele>
        <time>2022-12-06T08:01:55Z</time>
      </trkpt>
      <trkpt lat="36.846707" lon="-3.517851">
        <ele>302.071</ele>
        <time>2022-12-06T08:02:07Z</time>
      </trkpt>
      <trkpt lat="36.846759" lon="-3.517815">
        <ele>301.628</ele>
        <time>2022-12-06T08:02:12Z</time>
      </trkpt>
      <trkpt lat="36.846792" lon="-3.517800">
        <ele>301.636</ele>
        <time>2022-12-06T08:02:15Z</time>
      </trkpt>
      <trkpt lat="36.846824" lon="-3.517807">
        <ele>301.720</ele>
        <time>2022-12-06T08:02:17Z</time>
      </trkpt>
      <trkpt lat="36.846886" lon="-3.517832">
        <ele>302.371</ele>
        <time>2022-12-06T08:02:21Z</time>
      </trkpt>
      <trkpt lat="36.846901" lon="-3.517830">
        <ele>302.718</ele>
        <time>2022-12-06T08:02:23Z</time>
      </trkpt>
      <trkpt lat="36.846981" lon="-3.517799">
        <ele>303.329</ele>
        <time>2022-12-06T08:02:29Z</time>
      </trkpt>
      <trkpt lat="36.846995" lon="-3.517798">
        <ele>303.661</ele>
        <time>2022-12-06T08:02:30Z</time>
      </trkpt>
      <trkpt lat="36.847028" lon="-3.517785">
        <ele>303.621</ele>
        <time>2022-12-06T08:02:32Z</time>
      </trkpt>
      <trkpt lat="36.847111" lon="-3.517697">
        <ele>302.313</ele>
        <time>2022-12-06T08:02:38Z</time>
      </trkpt>
      <trkpt lat="36.847240" lon="-3.517518">
        <ele>301.709</ele>
        <time>2022-12-06T08:02:49Z</time>
      </trkpt>
      <trkpt lat="36.847374" lon="-3.517351">
        <ele>302.247</ele>
        <time>2022-12-06T08:03:03Z</time>
      </trkpt>
      <trkpt lat="36.847441" lon="-3.517222">
        <ele>302.678</ele>
        <time>2022-12-06T08:03:12Z</time>
      </trkpt>
      <trkpt lat="36.847502" lon="-3.516992">
        <ele>302.256</ele>
        <time>2022-12-06T08:03:26Z</time>
      </trkpt>
      <trkpt lat="36.847496" lon="-3.516937">
        <ele>302.233</ele>
        <time>2022-12-06T08:03:29Z</time>
      </trkpt>
      <trkpt lat="36.847498" lon="-3.516887">
        <ele>302.691</ele>
        <time>2022-12-06T08:03:32Z</time>
      </trkpt>
      <trkpt lat="36.847520" lon="-3.516751">
        <ele>303.375</ele>
        <time>2022-12-06T08:03:41Z</time>
      </trkpt>
      <trkpt lat="36.847652" lon="-3.516592">
        <ele>304.046</ele>
        <time>2022-12-06T08:03:55Z</time>
      </trkpt>
      <trkpt lat="36.847735" lon="-3.516532">
        <ele>303.773</ele>
        <time>2022-12-06T08:04:02Z</time>
      </trkpt>
      <trkpt lat="36.847750" lon="-3.516491">
        <ele>303.634</ele>
        <time>2022-12-06T08:04:05Z</time>
      </trkpt>
      <trkpt lat="36.847849" lon="-3.516303">
        <ele>304.663</ele>
        <time>2022-12-06T08:04:17Z</time>
      </trkpt>
      <trkpt lat="36.847907" lon="-3.516165">
        <ele>305.344</ele>
        <time>2022-12-06T08:04:26Z</time>
      </trkpt>
      <trkpt lat="36.847925" lon="-3.516138">
        <ele>305.618</ele>
        <time>2022-12-06T08:04:28Z</time>
      </trkpt>
      <trkpt lat="36.848023" lon="-3.515945">
        <ele>305.709</ele>
        <time>2022-12-06T08:04:41Z</time>
      </trkpt>
      <trkpt lat="36.848046" lon="-3.515897">
        <ele>305.367</ele>
        <time>2022-12-06T08:04:46Z</time>
      </trkpt>
      <trkpt lat="36.848080" lon="-3.515866">
        <ele>305.358</ele>
        <time>2022-12-06T08:04:50Z</time>
      </trkpt>
      <trkpt lat="36.848245" lon="-3.515752">
        <ele>305.326</ele>
        <time>2022-12-06T08:04:59Z</time>
      </trkpt>
      <trkpt lat="36.848350" lon="-3.515686">
        <ele>304.313</ele>
        <time>2022-12-06T08:05:03Z</time>
      </trkpt>
      <trkpt lat="36.848461" lon="-3.515619">
        <ele>303.281</ele>
        <time>2022-12-06T08:05:07Z</time>
      </trkpt>
      <trkpt lat="36.848610" lon="-3.515481">
        <ele>303.265</ele>
        <time>2022-12-06T08:05:14Z</time>
      </trkpt>
      <trkpt lat="36.848662" lon="-3.515355">
        <ele>303.276</ele>
        <time>2022-12-06T08:05:18Z</time>
      </trkpt>
      <trkpt lat="36.848700" lon="-3.515200">
        <ele>304.673</ele>
        <time>2022-12-06T08:05:24Z</time>
      </trkpt>
      <trkpt lat="36.848743" lon="-3.515123">
        <ele>305.694</ele>
        <time>2022-12-06T08:05:27Z</time>
      </trkpt>
      <trkpt lat="36.848875" lon="-3.514938">
        <ele>304.781</ele>
        <time>2022-12-06T08:05:34Z</time>
      </trkpt>
      <trkpt lat="36.848891" lon="-3.514910">
        <ele>304.661</ele>
        <time>2022-12-06T08:05:35Z</time>
      </trkpt>
      <trkpt lat="36.849005" lon="-3.514725">
        <ele>304.217</ele>
        <time>2022-12-06T08:05:42Z</time>
      </trkpt>
      <trkpt lat="36.849006" lon="-3.514492">
        <ele>303.709</ele>
        <time>2022-12-06T08:05:50Z</time>
      </trkpt>
      <trkpt lat="36.849008" lon="-3.514435">
        <ele>303.649</ele>
        <time>2022-12-06T08:05:52Z</time>
      </trkpt>
      <trkpt lat="36.849023" lon="-3.514192">
        <ele>303.270</ele>
        <time>2022-12-06T08:06:00Z</time>
      </trkpt>
      <trkpt lat="36.849027" lon="-3.513949">
        <ele>303.698</ele>
        <time>2022-12-06T08:06:09Z</time>
      </trkpt>
      <trkpt lat="36.849071" lon="-3.513728">
        <ele>302.645</ele>
        <time>2022-12-06T08:06:17Z</time>
      </trkpt>
      <trkpt lat="36.849078" lon="-3.513700">
        <ele>302.353</ele>
        <time>2022-12-06T08:06:18Z</time>
      </trkpt>
      <trkpt lat="36.849157" lon="-3.513563">
        <ele>301.277</ele>
        <time>2022-12-06T08:06:23Z</time>
      </trkpt>
      <trkpt lat="36.849251" lon="-3.513466">
        <ele>300.088</ele>
        <time>2022-12-06T08:06:27Z</time>
      </trkpt>
      <trkpt lat="36.849359" lon="-3.513273">
        <ele>299.385</ele>
        <time>2022-12-06T08:06:36Z</time>
      </trkpt>
      <trkpt lat="36.849367" lon="-3.513260">
        <ele>299.746</ele>
        <time>2022-12-06T08:06:37Z</time>
      </trkpt>
      <trkpt lat="36.849455" lon="-3.513174">
        <ele>300.722</ele>
        <time>2022-12-06T08:06:46Z</time>
      </trkpt>
      <trkpt lat="36.849472" lon="-3.513165">
        <ele>301.262</ele>
        <time>2022-12-06T08:06:48Z</time>
      </trkpt>
      <trkpt lat="36.849510" lon="-3.513134">
        <ele>301.708</ele>
        <time>2022-12-06T08:06:52Z</time>
      </trkpt>
      <trkpt lat="36.849528" lon="-3.513117">
        <ele>302.209</ele>
        <time>2022-12-06T08:06:54Z</time>
      </trkpt>
      <trkpt lat="36.849667" lon="-3.512969">
        <ele>303.093</ele>
        <time>2022-12-06T08:07:04Z</time>
      </trkpt>
      <trkpt lat="36.849791" lon="-3.512783">
        <ele>302.244</ele>
        <time>2022-12-06T08:07:11Z</time>
      </trkpt>
      <trkpt lat="36.849933" lon="-3.512636">
        <ele>303.312</ele>
        <time>2022-12-06T08:07:19Z</time>
      </trkpt>
      <trkpt lat="36.849996" lon="-3.512593">
        <ele>303.349</ele>
        <time>2022-12-06T08:07:22Z</time>
      </trkpt>
      <trkpt lat="36.850152" lon="-3.512430">
        <ele>302.667</ele>
        <time>2022-12-06T08:07:30Z</time>
      </trkpt>
      <trkpt lat="36.850176" lon="-3.512406">
        <ele>302.061</ele>
        <time>2022-12-06T08:07:31Z</time>
      </trkpt>
      <trkpt lat="36.850239" lon="-3.512307">
        <ele>300.682</ele>
        <time>2022-12-06T08:07:34Z</time>
      </trkpt>
      <trkpt lat="36.850350" lon="-3.512105">
        <ele>299.719</ele>
        <time>2022-12-06T08:07:42Z</time>
      </trkpt>
      <trkpt lat="36.850451" lon="-3.511936">
        <ele>299.330</ele>
        <time>2022-12-06T08:07:49Z</time>
      </trkpt>
      <trkpt lat="36.850525" lon="-3.511853">
        <ele>298.392</ele>
        <time>2022-12-06T08:07:53Z</time>
      </trkpt>
      <trkpt lat="36.850569" lon="-3.511809">
        <ele>297.273</ele>
        <time>2022-12-06T08:07:57Z</time>
      </trkpt>
      <trkpt lat="36.850522" lon="-3.511803">
        <ele>296.320</ele>
        <time>2022-12-06T08:09:14Z</time>
      </trkpt>
      <trkpt lat="36.850549" lon="-3.511841">
        <ele>296.609</ele>
        <time>2022-12-06T08:10:56Z</time>
      </trkpt>
      <trkpt lat="36.850617" lon="-3.511914">
        <ele>298.340</ele>
        <time>2022-12-06T08:11:22Z</time>
      </trkpt>
      <trkpt lat="36.850623" lon="-3.511920">
        <ele>299.081</ele>
        <time>2022-12-06T08:11:23Z</time>
      </trkpt>
      <trkpt lat="36.850639" lon="-3.511939">
        <ele>299.719</ele>
        <time>2022-12-06T08:11:26Z</time>
      </trkpt>
      <trkpt lat="36.850652" lon="-3.511990">
        <ele>300.746</ele>
        <time>2022-12-06T08:11:33Z</time>
      </trkpt>
      <trkpt lat="36.850680" lon="-3.512011">
        <ele>302.074</ele>
        <time>2022-12-06T08:11:38Z</time>
      </trkpt>
      <trkpt lat="36.850698" lon="-3.512045">
        <ele>303.098</ele>
        <time>2022-12-06T08:11:43Z</time>
      </trkpt>
      <trkpt lat="36.850707" lon="-3.512053">
        <ele>303.379</ele>
        <time>2022-12-06T08:11:45Z</time>
      </trkpt>
      <trkpt lat="36.850715" lon="-3.512080">
        <ele>304.046</ele>
        <time>2022-12-06T08:11:49Z</time>
      </trkpt>
      <trkpt lat="36.850731" lon="-3.512113">
        <ele>305.257</ele>
        <time>2022-12-06T08:11:55Z</time>
      </trkpt>
      <trkpt lat="36.850730" lon="-3.512120">
        <ele>305.393</ele>
        <time>2022-12-06T08:11:56Z</time>
      </trkpt>
      <trkpt lat="36.850750" lon="-3.512143">
        <ele>305.765</ele>
        <time>2022-12-06T08:11:59Z</time>
      </trkpt>
      <trkpt lat="36.850749" lon="-3.512163">
        <ele>306.221</ele>
        <time>2022-12-06T08:12:01Z</time>
      </trkpt>
      <trkpt lat="36.850743" lon="-3.512180">
        <ele>307.309</ele>
        <time>2022-12-06T08:12:05Z</time>
      </trkpt>
      <trkpt lat="36.850713" lon="-3.512180">
        <ele>308.350</ele>
        <time>2022-12-06T08:12:11Z</time>
      </trkpt>
      <trkpt lat="36.850696" lon="-3.512195">
        <ele>309.621</ele>
        <time>2022-12-06T08:12:16Z</time>
      </trkpt>
      <trkpt lat="36.850689" lon="-3.512198">
        <ele>310.279</ele>
        <time>2022-12-06T08:12:18Z</time>
      </trkpt>
      <trkpt lat="36.850678" lon="-3.512199">
        <ele>310.716</ele>
        <time>2022-12-06T08:12:20Z</time>
      </trkpt>
      <trkpt lat="36.850668" lon="-3.512221">
        <ele>311.714</ele>
        <time>2022-12-06T08:12:23Z</time>
      </trkpt>
      <trkpt lat="36.850657" lon="-3.512249">
        <ele>313.038</ele>
        <time>2022-12-06T08:12:27Z</time>
      </trkpt>
      <trkpt lat="36.850656" lon="-3.512285">
        <ele>314.099</ele>
        <time>2022-12-06T08:12:31Z</time>
      </trkpt>
      <trkpt lat="36.850647" lon="-3.512307">
        <ele>315.236</ele>
        <time>2022-12-06T08:12:35Z</time>
      </trkpt>
      <trkpt lat="36.850633" lon="-3.512332">
        <ele>316.317</ele>
        <time>2022-12-06T08:12:39Z</time>
      </trkpt>
      <trkpt lat="36.850612" lon="-3.512344">
        <ele>317.075</ele>
        <time>2022-12-06T08:12:42Z</time>
      </trkpt>
      <trkpt lat="36.850598" lon="-3.512349">
        <ele>317.328</ele>
        <time>2022-12-06T08:12:44Z</time>
      </trkpt>
      <trkpt lat="36.850572" lon="-3.512364">
        <ele>318.620</ele>
        <time>2022-12-06T08:12:50Z</time>
      </trkpt>
      <trkpt lat="36.850559" lon="-3.512436">
        <ele>319.609</ele>
        <time>2022-12-06T08:12:56Z</time>
      </trkpt>
      <trkpt lat="36.850550" lon="-3.512462">
        <ele>320.088</ele>
        <time>2022-12-06T08:12:58Z</time>
      </trkpt>
      <trkpt lat="36.850547" lon="-3.512560">
        <ele>320.789</ele>
        <time>2022-12-06T08:13:05Z</time>
      </trkpt>
      <trkpt lat="36.850561" lon="-3.512692">
        <ele>321.787</ele>
        <time>2022-12-06T08:13:13Z</time>
      </trkpt>
      <trkpt lat="36.850562" lon="-3.512706">
        <ele>322.034</ele>
        <time>2022-12-06T08:13:14Z</time>
      </trkpt>
      <trkpt lat="36.850558" lon="-3.512751">
        <ele>323.242</ele>
        <time>2022-12-06T08:13:18Z</time>
      </trkpt>
      <trkpt lat="36.850551" lon="-3.512809">
        <ele>324.346</ele>
        <time>2022-12-06T08:13:23Z</time>
      </trkpt>
      <trkpt lat="36.850550" lon="-3.512837">
        <ele>325.027</ele>
        <time>2022-12-06T08:13:25Z</time>
      </trkpt>
      <trkpt lat="36.850558" lon="-3.512862">
        <ele>325.354</ele>
        <time>2022-12-06T08:13:27Z</time>
      </trkpt>
      <trkpt lat="36.850563" lon="-3.512869">
        <ele>326.365</ele>
        <time>2022-12-06T08:13:30Z</time>
      </trkpt>
      <trkpt lat="36.850572" lon="-3.512873">
        <ele>326.615</ele>
        <time>2022-12-06T08:13:31Z</time>
      </trkpt>
      <trkpt lat="36.850578" lon="-3.512907">
        <ele>327.665</ele>
        <time>2022-12-06T08:13:35Z</time>
      </trkpt>
      <trkpt lat="36.850583" lon="-3.512943">
        <ele>328.211</ele>
        <time>2022-12-06T08:13:38Z</time>
      </trkpt>
      <trkpt lat="36.850601" lon="-3.512959">
        <ele>328.609</ele>
        <time>2022-12-06T08:13:40Z</time>
      </trkpt>
      <trkpt lat="36.850613" lon="-3.512958">
        <ele>328.772</ele>
        <time>2022-12-06T08:13:41Z</time>
      </trkpt>
      <trkpt lat="36.850684" lon="-3.512936">
        <ele>330.033</ele>
        <time>2022-12-06T08:13:47Z</time>
      </trkpt>
      <trkpt lat="36.850730" lon="-3.512903">
        <ele>331.231</ele>
        <time>2022-12-06T08:13:52Z</time>
      </trkpt>
      <trkpt lat="36.850736" lon="-3.512897">
        <ele>331.368</ele>
        <time>2022-12-06T08:13:53Z</time>
      </trkpt>
      <trkpt lat="36.850749" lon="-3.512889">
        <ele>331.756</ele>
        <time>2022-12-06T08:13:55Z</time>
      </trkpt>
      <trkpt lat="36.850766" lon="-3.512887">
        <ele>332.350</ele>
        <time>2022-12-06T08:13:57Z</time>
      </trkpt>
      <trkpt lat="36.850775" lon="-3.512887">
        <ele>332.661</ele>
        <time>2022-12-06T08:13:58Z</time>
      </trkpt>
      <trkpt lat="36.850795" lon="-3.512897">
        <ele>333.018</ele>
        <time>2022-12-06T08:14:00Z</time>
      </trkpt>
      <trkpt lat="36.850821" lon="-3.512928">
        <ele>333.379</ele>
        <time>2022-12-06T08:14:03Z</time>
      </trkpt>
      <trkpt lat="36.850852" lon="-3.512988">
        <ele>334.684</ele>
        <time>2022-12-06T08:14:09Z</time>
      </trkpt>
      <trkpt lat="36.850860" lon="-3.513007">
        <ele>335.007</ele>
        <time>2022-12-06T08:14:11Z</time>
      </trkpt>
      <trkpt lat="36.850872" lon="-3.513031">
        <ele>335.617</ele>
        <time>2022-12-06T08:14:15Z</time>
      </trkpt>
      <trkpt lat="36.850896" lon="-3.513068">
        <ele>336.609</ele>
        <time>2022-12-06T08:14:21Z</time>
      </trkpt>
      <trkpt lat="36.850901" lon="-3.513114">
        <ele>337.739</ele>
        <time>2022-12-06T08:14:27Z</time>
      </trkpt>
      <trkpt lat="36.850886" lon="-3.513142">
        <ele>338.740</ele>
        <time>2022-12-06T08:14:32Z</time>
      </trkpt>
      <trkpt lat="36.850863" lon="-3.513170">
        <ele>339.738</ele>
        <time>2022-12-06T08:14:37Z</time>
      </trkpt>
      <trkpt lat="36.850837" lon="-3.513210">
        <ele>341.075</ele>
        <time>2022-12-06T08:14:42Z</time>
      </trkpt>
      <trkpt lat="36.850841" lon="-3.513232">
        <ele>341.323</ele>
        <time>2022-12-06T08:14:44Z</time>
      </trkpt>
      <trkpt lat="36.850848" lon="-3.513265">
        <ele>342.097</ele>
        <time>2022-12-06T08:14:47Z</time>
      </trkpt>
      <trkpt lat="36.850853" lon="-3.513282">
        <ele>342.218</ele>
        <time>2022-12-06T08:14:48Z</time>
      </trkpt>
      <trkpt lat="36.850856" lon="-3.513298">
        <ele>342.665</ele>
        <time>2022-12-06T08:14:49Z</time>
      </trkpt>
      <trkpt lat="36.850870" lon="-3.513323">
        <ele>343.026</ele>
        <time>2022-12-06T08:14:51Z</time>
      </trkpt>
      <trkpt lat="36.850879" lon="-3.513332">
        <ele>343.228</ele>
        <time>2022-12-06T08:14:52Z</time>
      </trkpt>
      <trkpt lat="36.850898" lon="-3.513363">
        <ele>344.089</ele>
        <time>2022-12-06T08:14:55Z</time>
      </trkpt>
      <trkpt lat="36.850910" lon="-3.513380">
        <ele>344.317</ele>
        <time>2022-12-06T08:14:57Z</time>
      </trkpt>
      <trkpt lat="36.850934" lon="-3.513415">
        <ele>345.309</ele>
        <time>2022-12-06T08:15:03Z</time>
      </trkpt>
      <trkpt lat="36.850930" lon="-3.513455">
        <ele>346.653</ele>
        <time>2022-12-06T08:15:08Z</time>
      </trkpt>
      <trkpt lat="36.850933" lon="-3.513480">
        <ele>347.094</ele>
        <time>2022-12-06T08:15:10Z</time>
      </trkpt>
      <trkpt lat="36.850946" lon="-3.513508">
        <ele>347.332</ele>
        <time>2022-12-06T08:15:13Z</time>
      </trkpt>
      <trkpt lat="36.850948" lon="-3.513516">
        <ele>347.749</ele>
        <time>2022-12-06T08:15:14Z</time>
      </trkpt>
      <trkpt lat="36.850947" lon="-3.513557">
        <ele>348.797</ele>
        <time>2022-12-06T08:15:18Z</time>
      </trkpt>
      <trkpt lat="36.850953" lon="-3.513615">
        <ele>350.061</ele>
        <time>2022-12-06T08:15:23Z</time>
      </trkpt>
      <trkpt lat="36.850952" lon="-3.513672">
        <ele>351.262</ele>
        <time>2022-12-06T08:15:27Z</time>
      </trkpt>
      <trkpt lat="36.850956" lon="-3.513709">
        <ele>352.689</ele>
        <time>2022-12-06T08:15:32Z</time>
      </trkpt>
      <trkpt lat="36.850987" lon="-3.513767">
        <ele>353.650</ele>
        <time>2022-12-06T08:15:37Z</time>
      </trkpt>
      <trkpt lat="36.851074" lon="-3.513936">
        <ele>353.361</ele>
        <time>2022-12-06T08:15:44Z</time>
      </trkpt>
      <trkpt lat="36.851087" lon="-3.513946">
        <ele>353.621</ele>
        <time>2022-12-06T08:15:46Z</time>
      </trkpt>
      <trkpt lat="36.851114" lon="-3.513975">
        <ele>354.213</ele>
        <time>2022-12-06T08:15:50Z</time>
      </trkpt>
      <trkpt lat="36.851115" lon="-3.513988">
        <ele>354.609</ele>
        <time>2022-12-06T08:15:52Z</time>
      </trkpt>
      <trkpt lat="36.851088" lon="-3.513983">
        <ele>355.757</ele>
        <time>2022-12-06T08:15:57Z</time>
      </trkpt>
      <trkpt lat="36.851057" lon="-3.513978">
        <ele>356.738</ele>
        <time>2022-12-06T08:16:01Z</time>
      </trkpt>
      <trkpt lat="36.851032" lon="-3.513980">
        <ele>357.756</ele>
        <time>2022-12-06T08:16:06Z</time>
      </trkpt>
      <trkpt lat="36.851016" lon="-3.513992">
        <ele>358.783</ele>
        <time>2022-12-06T08:16:10Z</time>
      </trkpt>
      <trkpt lat="36.850996" lon="-3.514011">
        <ele>360.081</ele>
        <time>2022-12-06T08:16:14Z</time>
      </trkpt>
      <trkpt lat="36.850979" lon="-3.514040">
        <ele>361.235</ele>
        <time>2022-12-06T08:16:19Z</time>
      </trkpt>
      <trkpt lat="36.850956" lon="-3.514078">
        <ele>362.296</ele>
        <time>2022-12-06T08:16:23Z</time>
      </trkpt>
      <trkpt lat="36.850962" lon="-3.514109">
        <ele>362.323</ele>
        <time>2022-12-06T08:16:24Z</time>
      </trkpt>
      <trkpt lat="36.850957" lon="-3.514122">
        <ele>362.714</ele>
        <time>2022-12-06T08:16:25Z</time>
      </trkpt>
      <trkpt lat="36.850943" lon="-3.514175">
        <ele>363.638</ele>
        <time>2022-12-06T08:16:29Z</time>
      </trkpt>
      <trkpt lat="36.850926" lon="-3.514196">
        <ele>364.070</ele>
        <time>2022-12-06T08:16:31Z</time>
      </trkpt>
      <trkpt lat="36.850908" lon="-3.514244">
        <ele>364.617</ele>
        <time>2022-12-06T08:16:35Z</time>
      </trkpt>
      <trkpt lat="36.850898" lon="-3.514282">
        <ele>365.209</ele>
        <time>2022-12-06T08:16:38Z</time>
      </trkpt>
      <trkpt lat="36.850904" lon="-3.514338">
        <ele>365.754</ele>
        <time>2022-12-06T08:16:42Z</time>
      </trkpt>
      <trkpt lat="36.850902" lon="-3.514354">
        <ele>365.725</ele>
        <time>2022-12-06T08:16:43Z</time>
      </trkpt>
      <trkpt lat="36.850903" lon="-3.514380">
        <ele>366.263</ele>
        <time>2022-12-06T08:16:45Z</time>
      </trkpt>
      <trkpt lat="36.850913" lon="-3.514401">
        <ele>366.780</ele>
        <time>2022-12-06T08:16:47Z</time>
      </trkpt>
      <trkpt lat="36.850919" lon="-3.514441">
        <ele>367.328</ele>
        <time>2022-12-06T08:16:50Z</time>
      </trkpt>
      <trkpt lat="36.850926" lon="-3.514459">
        <ele>368.062</ele>
        <time>2022-12-06T08:16:52Z</time>
      </trkpt>
      <trkpt lat="36.850960" lon="-3.514509">
        <ele>369.273</ele>
        <time>2022-12-06T08:16:57Z</time>
      </trkpt>
      <trkpt lat="36.850968" lon="-3.514537">
        <ele>369.780</ele>
        <time>2022-12-06T08:17:00Z</time>
      </trkpt>
      <trkpt lat="36.850966" lon="-3.514551">
        <ele>370.221</ele>
        <time>2022-12-06T08:17:02Z</time>
      </trkpt>
      <trkpt lat="36.850994" lon="-3.514571">
        <ele>370.743</ele>
        <time>2022-12-06T08:17:06Z</time>
      </trkpt>
      <trkpt lat="36.851011" lon="-3.514569">
        <ele>371.364</ele>
        <time>2022-12-06T08:17:08Z</time>
      </trkpt>
      <trkpt lat="36.851024" lon="-3.514574">
        <ele>372.310</ele>
        <time>2022-12-06T08:17:11Z</time>
      </trkpt>
      <trkpt lat="36.851041" lon="-3.514591">
        <ele>373.609</ele>
        <time>2022-12-06T08:17:16Z</time>
      </trkpt>
      <trkpt lat="36.851063" lon="-3.514617">
        <ele>375.045</ele>
        <time>2022-12-06T08:17:20Z</time>
      </trkpt>
      <trkpt lat="36.851097" lon="-3.514643">
        <ele>376.086</ele>
        <time>2022-12-06T08:17:25Z</time>
      </trkpt>
      <trkpt lat="36.851122" lon="-3.514658">
        <ele>376.664</ele>
        <time>2022-12-06T08:17:28Z</time>
      </trkpt>
      <trkpt lat="36.851137" lon="-3.514679">
        <ele>377.031</ele>
        <time>2022-12-06T08:17:31Z</time>
      </trkpt>
      <trkpt lat="36.851152" lon="-3.514688">
        <ele>377.389</ele>
        <time>2022-12-06T08:17:33Z</time>
      </trkpt>
      <trkpt lat="36.851168" lon="-3.514703">
        <ele>378.213</ele>
        <time>2022-12-06T08:17:36Z</time>
      </trkpt>
      <trkpt lat="36.851219" lon="-3.514702">
        <ele>378.744</ele>
        <time>2022-12-06T08:17:41Z</time>
      </trkpt>
      <trkpt lat="36.851238" lon="-3.514706">
        <ele>379.391</ele>
        <time>2022-12-06T08:17:43Z</time>
      </trkpt>
      <trkpt lat="36.851246" lon="-3.514705">
        <ele>379.672</ele>
        <time>2022-12-06T08:17:44Z</time>
      </trkpt>
      <trkpt lat="36.851280" lon="-3.514704">
        <ele>380.364</ele>
        <time>2022-12-06T08:17:48Z</time>
      </trkpt>
      <trkpt lat="36.851319" lon="-3.514701">
        <ele>381.006</ele>
        <time>2022-12-06T08:17:51Z</time>
      </trkpt>
      <trkpt lat="36.851355" lon="-3.514688">
        <ele>381.316</ele>
        <time>2022-12-06T08:17:54Z</time>
      </trkpt>
      <trkpt lat="36.851368" lon="-3.514686">
        <ele>381.309</ele>
        <time>2022-12-06T08:17:55Z</time>
      </trkpt>
      <trkpt lat="36.851420" lon="-3.514703">
        <ele>381.697</ele>
        <time>2022-12-06T08:17:58Z</time>
      </trkpt>
      <trkpt lat="36.851481" lon="-3.514686">
        <ele>382.318</ele>
        <time>2022-12-06T08:18:02Z</time>
      </trkpt>
      <trkpt lat="36.851519" lon="-3.514680">
        <ele>383.046</ele>
        <time>2022-12-06T08:18:05Z</time>
      </trkpt>
      <trkpt lat="36.851547" lon="-3.514688">
        <ele>383.653</ele>
        <time>2022-12-06T08:18:08Z</time>
      </trkpt>
      <trkpt lat="36.851593" lon="-3.514673">
        <ele>384.261</ele>
        <time>2022-12-06T08:18:13Z</time>
      </trkpt>
      <trkpt lat="36.851615" lon="-3.514666">
        <ele>384.675</ele>
        <time>2022-12-06T08:18:16Z</time>
      </trkpt>
      <trkpt lat="36.851634" lon="-3.514665">
        <ele>385.326</ele>
        <time>2022-12-06T08:18:19Z</time>
      </trkpt>
      <trkpt lat="36.851640" lon="-3.514667">
        <ele>385.783</ele>
        <time>2022-12-06T08:18:21Z</time>
      </trkpt>
      <trkpt lat="36.851684" lon="-3.514677">
        <ele>386.664</ele>
        <time>2022-12-06T08:18:26Z</time>
      </trkpt>
      <trkpt lat="36.851739" lon="-3.514683">
        <ele>386.771</ele>
        <time>2022-12-06T08:18:32Z</time>
      </trkpt>
      <trkpt lat="36.851755" lon="-3.514682">
        <ele>386.741</ele>
        <time>2022-12-06T08:18:34Z</time>
      </trkpt>
      <trkpt lat="36.851796" lon="-3.514631">
        <ele>387.615</ele>
        <time>2022-12-06T08:18:39Z</time>
      </trkpt>
      <trkpt lat="36.851812" lon="-3.514600">
        <ele>388.009</ele>
        <time>2022-12-06T08:18:41Z</time>
      </trkpt>
      <trkpt lat="36.851841" lon="-3.514547">
        <ele>388.728</ele>
        <time>2022-12-06T08:18:45Z</time>
      </trkpt>
      <trkpt lat="36.851853" lon="-3.514539">
        <ele>389.069</ele>
        <time>2022-12-06T08:18:46Z</time>
      </trkpt>
      <trkpt lat="36.851876" lon="-3.514539">
        <ele>389.297</ele>
        <time>2022-12-06T08:18:48Z</time>
      </trkpt>
      <trkpt lat="36.851925" lon="-3.514526">
        <ele>390.064</ele>
        <time>2022-12-06T08:18:52Z</time>
      </trkpt>
      <trkpt lat="36.851988" lon="-3.514483">
        <ele>391.282</ele>
        <time>2022-12-06T08:18:58Z</time>
      </trkpt>
      <trkpt lat="36.852062" lon="-3.514433">
        <ele>392.226</ele>
        <time>2022-12-06T08:19:04Z</time>
      </trkpt>
      <trkpt lat="36.852153" lon="-3.514407">
        <ele>393.217</ele>
        <time>2022-12-06T08:19:12Z</time>
      </trkpt>
      <trkpt lat="36.852221" lon="-3.514407">
        <ele>394.354</ele>
        <time>2022-12-06T08:19:19Z</time>
      </trkpt>
      <trkpt lat="36.852259" lon="-3.514407">
        <ele>395.225</ele>
        <time>2022-12-06T08:19:23Z</time>
      </trkpt>
      <trkpt lat="36.852279" lon="-3.514418">
        <ele>395.621</ele>
        <time>2022-12-06T08:19:25Z</time>
      </trkpt>
      <trkpt lat="36.852341" lon="-3.514458">
        <ele>396.741</ele>
        <time>2022-12-06T08:19:31Z</time>
      </trkpt>
      <trkpt lat="36.852395" lon="-3.514493">
        <ele>397.705</ele>
        <time>2022-12-06T08:19:37Z</time>
      </trkpt>
      <trkpt lat="36.852406" lon="-3.514509">
        <ele>398.009</ele>
        <time>2022-12-06T08:19:39Z</time>
      </trkpt>
      <trkpt lat="36.852443" lon="-3.514558">
        <ele>398.773</ele>
        <time>2022-12-06T08:19:44Z</time>
      </trkpt>
      <trkpt lat="36.852458" lon="-3.514566">
        <ele>399.224</ele>
        <time>2022-12-06T08:19:46Z</time>
      </trkpt>
      <trkpt lat="36.852517" lon="-3.514593">
        <ele>400.032</ele>
        <time>2022-12-06T08:19:52Z</time>
      </trkpt>
      <trkpt lat="36.852577" lon="-3.514608">
        <ele>400.779</ele>
        <time>2022-12-06T08:19:58Z</time>
      </trkpt>
      <trkpt lat="36.852589" lon="-3.514632">
        <ele>401.017</ele>
        <time>2022-12-06T08:20:00Z</time>
      </trkpt>
      <trkpt lat="36.852604" lon="-3.514660">
        <ele>401.231</ele>
        <time>2022-12-06T08:20:02Z</time>
      </trkpt>
      <trkpt lat="36.852619" lon="-3.514678">
        <ele>401.392</ele>
        <time>2022-12-06T08:20:04Z</time>
      </trkpt>
      <trkpt lat="36.852655" lon="-3.514714">
        <ele>402.019</ele>
        <time>2022-12-06T08:20:08Z</time>
      </trkpt>
      <trkpt lat="36.852688" lon="-3.514735">
        <ele>402.340</ele>
        <time>2022-12-06T08:20:11Z</time>
      </trkpt>
      <trkpt lat="36.852740" lon="-3.514754">
        <ele>403.297</ele>
        <time>2022-12-06T08:20:15Z</time>
      </trkpt>
      <trkpt lat="36.852780" lon="-3.514747">
        <ele>404.023</ele>
        <time>2022-12-06T08:20:19Z</time>
      </trkpt>
      <trkpt lat="36.852798" lon="-3.514746">
        <ele>404.325</ele>
        <time>2022-12-06T08:20:21Z</time>
      </trkpt>
      <trkpt lat="36.852834" lon="-3.514735">
        <ele>405.309</ele>
        <time>2022-12-06T08:20:26Z</time>
      </trkpt>
      <trkpt lat="36.852847" lon="-3.514716">
        <ele>406.320</ele>
        <time>2022-12-06T08:20:29Z</time>
      </trkpt>
      <trkpt lat="36.852863" lon="-3.514717">
        <ele>407.321</ele>
        <time>2022-12-06T08:20:33Z</time>
      </trkpt>
      <trkpt lat="36.852917" lon="-3.514748">
        <ele>408.749</ele>
        <time>2022-12-06T08:20:38Z</time>
      </trkpt>
      <trkpt lat="36.852932" lon="-3.514755">
        <ele>409.086</ele>
        <time>2022-12-06T08:20:39Z</time>
      </trkpt>
      <trkpt lat="36.852951" lon="-3.514774">
        <ele>409.734</ele>
        <time>2022-12-06T08:20:42Z</time>
      </trkpt>
      <trkpt lat="36.852985" lon="-3.514786">
        <ele>410.738</ele>
        <time>2022-12-06T08:20:47Z</time>
      </trkpt>
      <trkpt lat="36.853024" lon="-3.514734">
        <ele>411.079</ele>
        <time>2022-12-06T08:20:52Z</time>
      </trkpt>
      <trkpt lat="36.853042" lon="-3.514656">
        <ele>410.786</ele>
        <time>2022-12-06T08:20:56Z</time>
      </trkpt>
      <trkpt lat="36.853038" lon="-3.514591">
        <ele>410.227</ele>
        <time>2022-12-06T08:21:00Z</time>
      </trkpt>
      <trkpt lat="36.853043" lon="-3.514566">
        <ele>409.747</ele>
        <time>2022-12-06T08:21:01Z</time>
      </trkpt>
      <trkpt lat="36.853056" lon="-3.514496">
        <ele>408.729</ele>
        <time>2022-12-06T08:21:04Z</time>
      </trkpt>
      <trkpt lat="36.853090" lon="-3.514463">
        <ele>408.621</ele>
        <time>2022-12-06T08:21:07Z</time>
      </trkpt>
      <trkpt lat="36.853174" lon="-3.514399">
        <ele>409.009</ele>
        <time>2022-12-06T08:21:14Z</time>
      </trkpt>
      <trkpt lat="36.853192" lon="-3.514277">
        <ele>409.775</ele>
        <time>2022-12-06T08:21:24Z</time>
      </trkpt>
      <trkpt lat="36.853190" lon="-3.514230">
        <ele>410.256</ele>
        <time>2022-12-06T08:21:27Z</time>
      </trkpt>
      <trkpt lat="36.853224" lon="-3.514168">
        <ele>410.684</ele>
        <time>2022-12-06T08:21:32Z</time>
      </trkpt>
      <trkpt lat="36.853257" lon="-3.514109">
        <ele>410.671</ele>
        <time>2022-12-06T08:21:37Z</time>
      </trkpt>
      <trkpt lat="36.853274" lon="-3.514004">
        <ele>410.059</ele>
        <time>2022-12-06T08:21:44Z</time>
      </trkpt>
      <trkpt lat="36.853285" lon="-3.513936">
        <ele>410.093</ele>
        <time>2022-12-06T08:21:49Z</time>
      </trkpt>
      <trkpt lat="36.853304" lon="-3.513916">
        <ele>410.224</ele>
        <time>2022-12-06T08:21:51Z</time>
      </trkpt>
      <trkpt lat="36.853333" lon="-3.513866">
        <ele>410.371</ele>
        <time>2022-12-06T08:21:54Z</time>
      </trkpt>
      <trkpt lat="36.853360" lon="-3.513855">
        <ele>410.632</ele>
        <time>2022-12-06T08:21:56Z</time>
      </trkpt>
      <trkpt lat="36.853392" lon="-3.513839">
        <ele>411.074</ele>
        <time>2022-12-06T08:21:59Z</time>
      </trkpt>
      <trkpt lat="36.853457" lon="-3.513854">
        <ele>412.056</ele>
        <time>2022-12-06T08:22:06Z</time>
      </trkpt>
      <trkpt lat="36.853524" lon="-3.513853">
        <ele>413.021</ele>
        <time>2022-12-06T08:22:11Z</time>
      </trkpt>
      <trkpt lat="36.853534" lon="-3.513844">
        <ele>413.009</ele>
        <time>2022-12-06T08:22:12Z</time>
      </trkpt>
      <trkpt lat="36.853722" lon="-3.513756">
        <ele>413.748</ele>
        <time>2022-12-06T08:22:28Z</time>
      </trkpt>
      <trkpt lat="36.853901" lon="-3.513646">
        <ele>414.069</ele>
        <time>2022-12-06T08:22:35Z</time>
      </trkpt>
      <trkpt lat="36.854025" lon="-3.513652">
        <ele>414.267</ele>
        <time>2022-12-06T08:22:41Z</time>
      </trkpt>
      <trkpt lat="36.854220" lon="-3.513667">
        <ele>414.084</ele>
        <time>2022-12-06T08:22:49Z</time>
      </trkpt>
      <trkpt lat="36.854324" lon="-3.513671">
        <ele>414.292</ele>
        <time>2022-12-06T08:22:54Z</time>
      </trkpt>
      <trkpt lat="36.854399" lon="-3.513526">
        <ele>414.266</ele>
        <time>2022-12-06T08:23:00Z</time>
      </trkpt>
      <trkpt lat="36.854484" lon="-3.513316">
        <ele>414.027</ele>
        <time>2022-12-06T08:23:09Z</time>
      </trkpt>
      <trkpt lat="36.854638" lon="-3.513170">
        <ele>414.274</ele>
        <time>2022-12-06T08:23:19Z</time>
      </trkpt>
      <trkpt lat="36.854807" lon="-3.513072">
        <ele>414.245</ele>
        <time>2022-12-06T08:23:28Z</time>
      </trkpt>
      <trkpt lat="36.854988" lon="-3.512937">
        <ele>414.227</ele>
        <time>2022-12-06T08:23:35Z</time>
      </trkpt>
      <trkpt lat="36.855139" lon="-3.512775">
        <ele>414.268</ele>
        <time>2022-12-06T08:23:42Z</time>
      </trkpt>
      <trkpt lat="36.855264" lon="-3.512607">
        <ele>414.214</ele>
        <time>2022-12-06T08:23:49Z</time>
      </trkpt>
      <trkpt lat="36.855437" lon="-3.512499">
        <ele>414.209</ele>
        <time>2022-12-06T08:23:57Z</time>
      </trkpt>
      <trkpt lat="36.855618" lon="-3.512464">
        <ele>414.293</ele>
        <time>2022-12-06T08:24:05Z</time>
      </trkpt>
      <trkpt lat="36.855719" lon="-3.512484">
        <ele>414.324</ele>
        <time>2022-12-06T08:24:10Z</time>
      </trkpt>
      <trkpt lat="36.855909" lon="-3.512447">
        <ele>413.792</ele>
        <time>2022-12-06T08:24:19Z</time>
      </trkpt>
      <trkpt lat="36.856090" lon="-3.512409">
        <ele>414.069</ele>
        <time>2022-12-06T08:24:27Z</time>
      </trkpt>
      <trkpt lat="36.856243" lon="-3.512293">
        <ele>413.777</ele>
        <time>2022-12-06T08:24:37Z</time>
      </trkpt>
      <trkpt lat="36.856264" lon="-3.512286">
        <ele>413.771</ele>
        <time>2022-12-06T08:24:38Z</time>
      </trkpt>
      <trkpt lat="36.856449" lon="-3.512281">
        <ele>414.042</ele>
        <time>2022-12-06T08:24:47Z</time>
      </trkpt>
      <trkpt lat="36.856520" lon="-3.512274">
        <ele>414.039</ele>
        <time>2022-12-06T08:24:51Z</time>
      </trkpt>
      <trkpt lat="36.856598" lon="-3.512254">
        <ele>413.320</ele>
        <time>2022-12-06T08:24:58Z</time>
      </trkpt>
      <trkpt lat="36.856688" lon="-3.512222">
        <ele>413.651</ele>
        <time>2022-12-06T08:25:05Z</time>
      </trkpt>
      <trkpt lat="36.856705" lon="-3.512209">
        <ele>413.601</ele>
        <time>2022-12-06T08:25:07Z</time>
      </trkpt>
      <trkpt lat="36.856758" lon="-3.512150">
        <ele>413.011</ele>
        <time>2022-12-06T08:25:11Z</time>
      </trkpt>
      <trkpt lat="36.856786" lon="-3.512118">
        <ele>412.609</ele>
        <time>2022-12-06T08:25:12Z</time>
      </trkpt>
      <trkpt lat="36.856843" lon="-3.512070">
        <ele>411.786</ele>
        <time>2022-12-06T08:25:14Z</time>
      </trkpt>
      <trkpt lat="36.856962" lon="-3.511902">
        <ele>411.087</ele>
        <time>2022-12-06T08:25:21Z</time>
      </trkpt>
      <trkpt lat="36.857084" lon="-3.511719">
        <ele>413.065</ele>
        <time>2022-12-06T08:25:30Z</time>
      </trkpt>
      <trkpt lat="36.857198" lon="-3.511606">
        <ele>414.052</ele>
        <time>2022-12-06T08:25:38Z</time>
      </trkpt>
      <trkpt lat="36.857359" lon="-3.511503">
        <ele>414.270</ele>
        <time>2022-12-06T08:25:50Z</time>
      </trkpt>
      <trkpt lat="36.857509" lon="-3.511369">
        <ele>414.314</ele>
        <time>2022-12-06T08:25:59Z</time>
      </trkpt>
      <trkpt lat="36.857612" lon="-3.511243">
        <ele>414.045</ele>
        <time>2022-12-06T08:26:07Z</time>
      </trkpt>
      <trkpt lat="36.857779" lon="-3.511166">
        <ele>414.282</ele>
        <time>2022-12-06T08:26:17Z</time>
      </trkpt>
      <trkpt lat="36.857879" lon="-3.510961">
        <ele>415.093</ele>
        <time>2022-12-06T08:26:24Z</time>
      </trkpt>
      <trkpt lat="36.857883" lon="-3.510930">
        <ele>415.052</ele>
        <time>2022-12-06T08:26:25Z</time>
      </trkpt>
      <trkpt lat="36.857955" lon="-3.510718">
        <ele>414.053</ele>
        <time>2022-12-06T08:26:32Z</time>
      </trkpt>
      <trkpt lat="36.857969" lon="-3.510651">
        <ele>413.008</ele>
        <time>2022-12-06T08:26:35Z</time>
      </trkpt>
      <trkpt lat="36.858000" lon="-3.510574">
        <ele>412.009</ele>
        <time>2022-12-06T08:26:39Z</time>
      </trkpt>
      <trkpt lat="36.857940" lon="-3.510386">
        <ele>411.016</ele>
        <time>2022-12-06T08:26:46Z</time>
      </trkpt>
      <trkpt lat="36.857900" lon="-3.510322">
        <ele>409.677</ele>
        <time>2022-12-06T08:26:49Z</time>
      </trkpt>
      <trkpt lat="36.857890" lon="-3.510265">
        <ele>408.335</ele>
        <time>2022-12-06T08:26:51Z</time>
      </trkpt>
      <trkpt lat="36.857893" lon="-3.510182">
        <ele>407.372</ele>
        <time>2022-12-06T08:26:54Z</time>
      </trkpt>
      <trkpt lat="36.857872" lon="-3.510110">
        <ele>406.240</ele>
        <time>2022-12-06T08:26:57Z</time>
      </trkpt>
      <trkpt lat="36.857832" lon="-3.509884">
        <ele>406.294</ele>
        <time>2022-12-06T08:27:06Z</time>
      </trkpt>
      <trkpt lat="36.857823" lon="-3.509648">
        <ele>406.365</ele>
        <time>2022-12-06T08:27:16Z</time>
      </trkpt>
      <trkpt lat="36.857838" lon="-3.509459">
        <ele>405.622</ele>
        <time>2022-12-06T08:27:24Z</time>
      </trkpt>
      <trkpt lat="36.857850" lon="-3.509405">
        <ele>405.273</ele>
        <time>2022-12-06T08:27:26Z</time>
      </trkpt>
      <trkpt lat="36.857882" lon="-3.509302">
        <ele>404.273</ele>
        <time>2022-12-06T08:27:30Z</time>
      </trkpt>
      <trkpt lat="36.857897" lon="-3.509220">
        <ele>403.285</ele>
        <time>2022-12-06T08:27:34Z</time>
      </trkpt>
      <trkpt lat="36.857906" lon="-3.509199">
        <ele>403.013</ele>
        <time>2022-12-06T08:27:35Z</time>
      </trkpt>
      <trkpt lat="36.858049" lon="-3.509063">
        <ele>404.009</ele>
        <time>2022-12-06T08:27:45Z</time>
      </trkpt>
      <trkpt lat="36.858132" lon="-3.508993">
        <ele>405.218</ele>
        <time>2022-12-06T08:27:51Z</time>
      </trkpt>
      <trkpt lat="36.858184" lon="-3.508918">
        <ele>406.369</ele>
        <time>2022-12-06T08:27:57Z</time>
      </trkpt>
      <trkpt lat="36.858203" lon="-3.508904">
        <ele>406.777</ele>
        <time>2022-12-06T08:27:59Z</time>
      </trkpt>
      <trkpt lat="36.858243" lon="-3.508885">
        <ele>407.634</ele>
        <time>2022-12-06T08:28:02Z</time>
      </trkpt>
      <trkpt lat="36.858278" lon="-3.508870">
        <ele>408.382</ele>
        <time>2022-12-06T08:28:05Z</time>
      </trkpt>
      <trkpt lat="36.858290" lon="-3.508869">
        <ele>408.636</ele>
        <time>2022-12-06T08:28:06Z</time>
      </trkpt>
      <trkpt lat="36.858337" lon="-3.508890">
        <ele>409.677</ele>
        <time>2022-12-06T08:28:11Z</time>
      </trkpt>
      <trkpt lat="36.858396" lon="-3.508890">
        <ele>410.294</ele>
        <time>2022-12-06T08:28:16Z</time>
      </trkpt>
      <trkpt lat="36.858434" lon="-3.508858">
        <ele>410.685</ele>
        <time>2022-12-06T08:28:19Z</time>
      </trkpt>
      <trkpt lat="36.858445" lon="-3.508846">
        <ele>410.652</ele>
        <time>2022-12-06T08:28:20Z</time>
      </trkpt>
      <trkpt lat="36.858493" lon="-3.508786">
        <ele>411.753</ele>
        <time>2022-12-06T08:28:26Z</time>
      </trkpt>
      <trkpt lat="36.858507" lon="-3.508777">
        <ele>412.308</ele>
        <time>2022-12-06T08:28:28Z</time>
      </trkpt>
      <trkpt lat="36.858520" lon="-3.508752">
        <ele>413.009</ele>
        <time>2022-12-06T08:28:31Z</time>
      </trkpt>
      <trkpt lat="36.858528" lon="-3.508738">
        <ele>413.356</ele>
        <time>2022-12-06T08:28:33Z</time>
      </trkpt>
      <trkpt lat="36.858537" lon="-3.508687">
        <ele>413.727</ele>
        <time>2022-12-06T08:28:37Z</time>
      </trkpt>
      <trkpt lat="36.858567" lon="-3.508618">
        <ele>413.775</ele>
        <time>2022-12-06T08:28:42Z</time>
      </trkpt>
      <trkpt lat="36.858733" lon="-3.508495">
        <ele>413.792</ele>
        <time>2022-12-06T08:28:55Z</time>
      </trkpt>
      <trkpt lat="36.858914" lon="-3.508411">
        <ele>413.350</ele>
        <time>2022-12-06T08:29:03Z</time>
      </trkpt>
      <trkpt lat="36.859065" lon="-3.508301">
        <ele>414.294</ele>
        <time>2022-12-06T08:29:10Z</time>
      </trkpt>
      <trkpt lat="36.859260" lon="-3.508305">
        <ele>413.765</ele>
        <time>2022-12-06T08:29:18Z</time>
      </trkpt>
      <trkpt lat="36.859325" lon="-3.508323">
        <ele>414.032</ele>
        <time>2022-12-06T08:29:21Z</time>
      </trkpt>
      <trkpt lat="36.859515" lon="-3.508409">
        <ele>414.013</ele>
        <time>2022-12-06T08:29:29Z</time>
      </trkpt>
      <trkpt lat="36.859694" lon="-3.508456">
        <ele>413.739</ele>
        <time>2022-12-06T08:29:36Z</time>
      </trkpt>
      <trkpt lat="36.859878" lon="-3.508469">
        <ele>414.701</ele>
        <time>2022-12-06T08:29:46Z</time>
      </trkpt>
      <trkpt lat="36.859893" lon="-3.508462">
        <ele>414.721</ele>
        <time>2022-12-06T08:29:47Z</time>
      </trkpt>
      <trkpt lat="36.860038" lon="-3.508320">
        <ele>414.609</ele>
        <time>2022-12-06T08:29:55Z</time>
      </trkpt>
      <trkpt lat="36.860140" lon="-3.508120">
        <ele>414.354</ele>
        <time>2022-12-06T08:30:02Z</time>
      </trkpt>
      <trkpt lat="36.860243" lon="-3.507925">
        <ele>414.045</ele>
        <time>2022-12-06T08:30:09Z</time>
      </trkpt>
      <trkpt lat="36.860298" lon="-3.507848">
        <ele>414.063</ele>
        <time>2022-12-06T08:30:12Z</time>
      </trkpt>
      <trkpt lat="36.860459" lon="-3.507721">
        <ele>414.090</ele>
        <time>2022-12-06T08:30:20Z</time>
      </trkpt>
      <trkpt lat="36.860593" lon="-3.507541">
        <ele>413.758</ele>
        <time>2022-12-06T08:30:29Z</time>
      </trkpt>
      <trkpt lat="36.860685" lon="-3.507332">
        <ele>413.682</ele>
        <time>2022-12-06T08:30:39Z</time>
      </trkpt>
      <trkpt lat="36.860735" lon="-3.507295">
        <ele>413.013</ele>
        <time>2022-12-06T08:30:41Z</time>
      </trkpt>
      <trkpt lat="36.860813" lon="-3.507234">
        <ele>412.650</ele>
        <time>2022-12-06T08:30:45Z</time>
      </trkpt>
      <trkpt lat="36.860854" lon="-3.507171">
        <ele>414.241</ele>
        <time>2022-12-06T08:30:49Z</time>
      </trkpt>
      <trkpt lat="36.860864" lon="-3.507149">
        <ele>414.329</ele>
        <time>2022-12-06T08:30:50Z</time>
      </trkpt>
      <trkpt lat="36.860966" lon="-3.507004">
        <ele>414.200</ele>
        <time>2022-12-06T08:30:56Z</time>
      </trkpt>
      <trkpt lat="36.861074" lon="-3.506806">
        <ele>413.020</ele>
        <time>2022-12-06T08:31:03Z</time>
      </trkpt>
      <trkpt lat="36.861139" lon="-3.506729">
        <ele>411.709</ele>
        <time>2022-12-06T08:31:06Z</time>
      </trkpt>
      <trkpt lat="36.861316" lon="-3.506649">
        <ele>411.283</ele>
        <time>2022-12-06T08:31:13Z</time>
      </trkpt>
      <trkpt lat="36.861503" lon="-3.506622">
        <ele>411.064</ele>
        <time>2022-12-06T08:31:19Z</time>
      </trkpt>
      <trkpt lat="36.861562" lon="-3.506629">
        <ele>411.612</ele>
        <time>2022-12-06T08:31:23Z</time>
      </trkpt>
      <trkpt lat="36.861572" lon="-3.506642">
        <ele>411.799</ele>
        <time>2022-12-06T08:31:25Z</time>
      </trkpt>
      <trkpt lat="36.861610" lon="-3.506670">
        <ele>412.727</ele>
        <time>2022-12-06T08:31:32Z</time>
      </trkpt>
      <trkpt lat="36.861648" lon="-3.506665">
        <ele>413.351</ele>
        <time>2022-12-06T08:31:35Z</time>
      </trkpt>
      <trkpt lat="36.861820" lon="-3.506589">
        <ele>413.622</ele>
        <time>2022-12-06T08:31:44Z</time>
      </trkpt>
      <trkpt lat="36.862013" lon="-3.506531">
        <ele>413.679</ele>
        <time>2022-12-06T08:31:51Z</time>
      </trkpt>
      <trkpt lat="36.862201" lon="-3.506509">
        <ele>413.680</ele>
        <time>2022-12-06T08:32:00Z</time>
      </trkpt>
      <trkpt lat="36.862331" lon="-3.506543">
        <ele>413.383</ele>
        <time>2022-12-06T08:32:06Z</time>
      </trkpt>
      <trkpt lat="36.862510" lon="-3.506566">
        <ele>413.325</ele>
        <time>2022-12-06T08:32:13Z</time>
      </trkpt>
      <trkpt lat="36.862602" lon="-3.506597">
        <ele>413.317</ele>
        <time>2022-12-06T08:32:18Z</time>
      </trkpt>
      <trkpt lat="36.862739" lon="-3.506454">
        <ele>413.709</ele>
        <time>2022-12-06T08:32:26Z</time>
      </trkpt>
      <trkpt lat="36.862920" lon="-3.506407">
        <ele>414.719</ele>
        <time>2022-12-06T08:32:36Z</time>
      </trkpt>
      <trkpt lat="36.862952" lon="-3.506419">
        <ele>415.010</ele>
        <time>2022-12-06T08:32:38Z</time>
      </trkpt>
      <trkpt lat="36.863116" lon="-3.506554">
        <ele>413.688</ele>
        <time>2022-12-06T08:32:47Z</time>
      </trkpt>
      <trkpt lat="36.863169" lon="-3.506633">
        <ele>412.225</ele>
        <time>2022-12-06T08:32:51Z</time>
      </trkpt>
      <trkpt lat="36.863190" lon="-3.506656">
        <ele>411.283</ele>
        <time>2022-12-06T08:32:53Z</time>
      </trkpt>
      <trkpt lat="36.863369" lon="-3.506635">
        <ele>410.777</ele>
        <time>2022-12-06T08:33:01Z</time>
      </trkpt>
      <trkpt lat="36.863512" lon="-3.506544">
        <ele>411.318</ele>
        <time>2022-12-06T08:33:10Z</time>
      </trkpt>
      <trkpt lat="36.863527" lon="-3.506515">
        <ele>412.035</ele>
        <time>2022-12-06T08:33:12Z</time>
      </trkpt>
      <trkpt lat="36.863534" lon="-3.506505">
        <ele>412.226</ele>
        <time>2022-12-06T08:33:13Z</time>
      </trkpt>
      <trkpt lat="36.863559" lon="-3.506480">
        <ele>413.225</ele>
        <time>2022-12-06T08:33:16Z</time>
      </trkpt>
      <trkpt lat="36.863568" lon="-3.506464">
        <ele>413.326</ele>
        <time>2022-12-06T08:33:17Z</time>
      </trkpt>
      <trkpt lat="36.863612" lon="-3.506443">
        <ele>414.208</ele>
        <time>2022-12-06T08:33:20Z</time>
      </trkpt>
      <trkpt lat="36.863794" lon="-3.506452">
        <ele>412.009</ele>
        <time>2022-12-06T08:33:27Z</time>
      </trkpt>
      <trkpt lat="36.863840" lon="-3.506375">
        <ele>410.793</ele>
        <time>2022-12-06T08:33:30Z</time>
      </trkpt>
      <trkpt lat="36.863900" lon="-3.506252">
        <ele>410.274</ele>
        <time>2022-12-06T08:33:35Z</time>
      </trkpt>
      <trkpt lat="36.864081" lon="-3.506182">
        <ele>410.242</ele>
        <time>2022-12-06T08:33:43Z</time>
      </trkpt>
      <trkpt lat="36.864189" lon="-3.506149">
        <ele>410.719</ele>
        <time>2022-12-06T08:33:51Z</time>
      </trkpt>
      <trkpt lat="36.864221" lon="-3.506156">
        <ele>410.797</ele>
        <time>2022-12-06T08:33:54Z</time>
      </trkpt>
      <trkpt lat="36.864271" lon="-3.506142">
        <ele>410.781</ele>
        <time>2022-12-06T08:33:57Z</time>
      </trkpt>
      <trkpt lat="36.864304" lon="-3.506134">
        <ele>411.652</ele>
        <time>2022-12-06T08:34:00Z</time>
      </trkpt>
      <trkpt lat="36.864328" lon="-3.506127">
        <ele>412.079</ele>
        <time>2022-12-06T08:34:02Z</time>
      </trkpt>
      <trkpt lat="36.864370" lon="-3.506143">
        <ele>412.710</ele>
        <time>2022-12-06T08:34:05Z</time>
      </trkpt>
      <trkpt lat="36.864385" lon="-3.506150">
        <ele>413.093</ele>
        <time>2022-12-06T08:34:06Z</time>
      </trkpt>
      <trkpt lat="36.864432" lon="-3.506185">
        <ele>413.665</ele>
        <time>2022-12-06T08:34:10Z</time>
      </trkpt>
      <trkpt lat="36.864437" lon="-3.506205">
        <ele>413.721</ele>
        <time>2022-12-06T08:34:12Z</time>
      </trkpt>
      <trkpt lat="36.864491" lon="-3.506261">
        <ele>414.009</ele>
        <time>2022-12-06T08:34:15Z</time>
      </trkpt>
      <trkpt lat="36.864686" lon="-3.506291">
        <ele>413.770</ele>
        <time>2022-12-06T08:34:24Z</time>
      </trkpt>
      <trkpt lat="36.864787" lon="-3.506305">
        <ele>414.031</ele>
        <time>2022-12-06T08:34:28Z</time>
      </trkpt>
      <trkpt lat="36.864854" lon="-3.506318">
        <ele>413.699</ele>
        <time>2022-12-06T08:34:32Z</time>
      </trkpt>
      <trkpt lat="36.865032" lon="-3.506362">
        <ele>414.336</ele>
        <time>2022-12-06T08:34:43Z</time>
      </trkpt>
      <trkpt lat="36.865210" lon="-3.506427">
        <ele>413.354</ele>
        <time>2022-12-06T08:34:51Z</time>
      </trkpt>
      <trkpt lat="36.865383" lon="-3.506546">
        <ele>413.388</ele>
        <time>2022-12-06T08:34:59Z</time>
      </trkpt>
      <trkpt lat="36.865499" lon="-3.506706">
        <ele>413.069</ele>
        <time>2022-12-06T08:35:07Z</time>
      </trkpt>
      <trkpt lat="36.865535" lon="-3.506716">
        <ele>413.046</ele>
        <time>2022-12-06T08:35:09Z</time>
      </trkpt>
      <trkpt lat="36.865710" lon="-3.506634">
        <ele>413.687</ele>
        <time>2022-12-06T08:35:18Z</time>
      </trkpt>
      <trkpt lat="36.865755" lon="-3.506635">
        <ele>414.037</ele>
        <time>2022-12-06T08:35:22Z</time>
      </trkpt>
      <trkpt lat="36.865845" lon="-3.506663">
        <ele>414.749</ele>
        <time>2022-12-06T08:35:30Z</time>
      </trkpt>
      <trkpt lat="36.865893" lon="-3.506678">
        <ele>415.213</ele>
        <time>2022-12-06T08:35:34Z</time>
      </trkpt>
      <trkpt lat="36.865914" lon="-3.506687">
        <ele>415.209</ele>
        <time>2022-12-06T08:35:36Z</time>
      </trkpt>
      <trkpt lat="36.865942" lon="-3.506725">
        <ele>415.314</ele>
        <time>2022-12-06T08:35:54Z</time>
      </trkpt>
      <trkpt lat="36.866062" lon="-3.506900">
        <ele>415.385</ele>
        <time>2022-12-06T08:36:02Z</time>
      </trkpt>
      <trkpt lat="36.866172" lon="-3.507097">
        <ele>415.653</ele>
        <time>2022-12-06T08:36:11Z</time>
      </trkpt>
      <trkpt lat="36.866310" lon="-3.507255">
        <ele>415.630</ele>
        <time>2022-12-06T08:36:25Z</time>
      </trkpt>
      <trkpt lat="36.866310" lon="-3.507328">
        <ele>416.248</ele>
        <time>2022-12-06T08:36:29Z</time>
      </trkpt>
      <trkpt lat="36.866314" lon="-3.507374">
        <ele>416.712</ele>
        <time>2022-12-06T08:36:33Z</time>
      </trkpt>
      <trkpt lat="36.866321" lon="-3.507400">
        <ele>417.293</ele>
        <time>2022-12-06T08:36:35Z</time>
      </trkpt>
      <trkpt lat="36.866388" lon="-3.507482">
        <ele>417.010</ele>
        <time>2022-12-06T08:37:09Z</time>
      </trkpt>
      <trkpt lat="36.866418" lon="-3.507493">
        <ele>417.011</ele>
        <time>2022-12-06T08:37:11Z</time>
      </trkpt>
      <trkpt lat="36.866478" lon="-3.507553">
        <ele>417.384</ele>
        <time>2022-12-06T08:37:17Z</time>
      </trkpt>
      <trkpt lat="36.866491" lon="-3.507667">
        <ele>416.707</ele>
        <time>2022-12-06T08:37:22Z</time>
      </trkpt>
      <trkpt lat="36.866500" lon="-3.507903">
        <ele>417.617</ele>
        <time>2022-12-06T08:37:37Z</time>
      </trkpt>
      <trkpt lat="36.866516" lon="-3.507946">
        <ele>417.709</ele>
        <time>2022-12-06T08:37:40Z</time>
      </trkpt>
      <trkpt lat="36.866528" lon="-3.508023">
        <ele>417.379</ele>
        <time>2022-12-06T08:37:44Z</time>
      </trkpt>
      <trkpt lat="36.866563" lon="-3.508248">
        <ele>417.370</ele>
        <time>2022-12-06T08:37:53Z</time>
      </trkpt>
      <trkpt lat="36.866588" lon="-3.508282">
        <ele>417.298</ele>
        <time>2022-12-06T08:37:55Z</time>
      </trkpt>
      <trkpt lat="36.866639" lon="-3.508289">
        <ele>418.015</ele>
        <time>2022-12-06T08:37:59Z</time>
      </trkpt>
      <trkpt lat="36.866659" lon="-3.508283">
        <ele>418.363</ele>
        <time>2022-12-06T08:38:01Z</time>
      </trkpt>
      <trkpt lat="36.866760" lon="-3.508192">
        <ele>419.287</ele>
        <time>2022-12-06T08:38:10Z</time>
      </trkpt>
      <trkpt lat="36.866784" lon="-3.508183">
        <ele>419.378</ele>
        <time>2022-12-06T08:38:12Z</time>
      </trkpt>
      <trkpt lat="36.866855" lon="-3.508153">
        <ele>420.325</ele>
        <time>2022-12-06T08:38:18Z</time>
      </trkpt>
      <trkpt lat="36.866861" lon="-3.508158">
        <ele>420.646</ele>
        <time>2022-12-06T08:38:19Z</time>
      </trkpt>
      <trkpt lat="36.866904" lon="-3.508216">
        <ele>421.789</ele>
        <time>2022-12-06T08:38:25Z</time>
      </trkpt>
      <trkpt lat="36.866965" lon="-3.508255">
        <ele>422.706</ele>
        <time>2022-12-06T08:38:31Z</time>
      </trkpt>
      <trkpt lat="36.867037" lon="-3.508332">
        <ele>423.226</ele>
        <time>2022-12-06T08:38:39Z</time>
      </trkpt>
      <trkpt lat="36.867059" lon="-3.508344">
        <ele>423.709</ele>
        <time>2022-12-06T08:38:41Z</time>
      </trkpt>
      <trkpt lat="36.867078" lon="-3.508364">
        <ele>424.339</ele>
        <time>2022-12-06T08:38:43Z</time>
      </trkpt>
      <trkpt lat="36.867115" lon="-3.508391">
        <ele>425.090</ele>
        <time>2022-12-06T08:38:46Z</time>
      </trkpt>
      <trkpt lat="36.867158" lon="-3.508448">
        <ele>426.048</ele>
        <time>2022-12-06T08:38:52Z</time>
      </trkpt>
      <trkpt lat="36.867184" lon="-3.508497">
        <ele>427.275</ele>
        <time>2022-12-06T08:38:58Z</time>
      </trkpt>
      <trkpt lat="36.867196" lon="-3.508524">
        <ele>428.373</ele>
        <time>2022-12-06T08:39:02Z</time>
      </trkpt>
      <trkpt lat="36.867233" lon="-3.508588">
        <ele>429.227</ele>
        <time>2022-12-06T08:39:08Z</time>
      </trkpt>
      <trkpt lat="36.867246" lon="-3.508618">
        <ele>429.398</ele>
        <time>2022-12-06T08:39:10Z</time>
      </trkpt>
      <trkpt lat="36.867303" lon="-3.508759">
        <ele>429.395</ele>
        <time>2022-12-06T08:39:18Z</time>
      </trkpt>
      <trkpt lat="36.867430" lon="-3.508884">
        <ele>428.016</ele>
        <time>2022-12-06T08:39:25Z</time>
      </trkpt>
      <trkpt lat="36.867445" lon="-3.508898">
        <ele>427.659</ele>
        <time>2022-12-06T08:39:26Z</time>
      </trkpt>
      <trkpt lat="36.867474" lon="-3.508864">
        <ele>426.703</ele>
        <time>2022-12-06T08:39:29Z</time>
      </trkpt>
      <trkpt lat="36.867482" lon="-3.508826">
        <ele>426.623</ele>
        <time>2022-12-06T08:39:30Z</time>
      </trkpt>
      <trkpt lat="36.867535" lon="-3.508626">
        <ele>425.709</ele>
        <time>2022-12-06T08:39:37Z</time>
      </trkpt>
      <trkpt lat="36.867549" lon="-3.508610">
        <ele>425.656</ele>
        <time>2022-12-06T08:39:38Z</time>
      </trkpt>
      <trkpt lat="36.867590" lon="-3.508565">
        <ele>424.747</ele>
        <time>2022-12-06T08:39:40Z</time>
      </trkpt>
      <trkpt lat="36.867622" lon="-3.508507">
        <ele>423.645</ele>
        <time>2022-12-06T08:39:42Z</time>
      </trkpt>
      <trkpt lat="36.867664" lon="-3.508434">
        <ele>422.672</ele>
        <time>2022-12-06T08:39:45Z</time>
      </trkpt>
      <trkpt lat="36.867692" lon="-3.508378">
        <ele>421.390</ele>
        <time>2022-12-06T08:39:47Z</time>
      </trkpt>
      <trkpt lat="36.867708" lon="-3.508323">
        <ele>420.394</ele>
        <time>2022-12-06T08:39:49Z</time>
      </trkpt>
      <trkpt lat="36.867707" lon="-3.508274">
        <ele>419.235</ele>
        <time>2022-12-06T08:39:51Z</time>
      </trkpt>
      <trkpt lat="36.867716" lon="-3.508197">
        <ele>418.222</ele>
        <time>2022-12-06T08:39:54Z</time>
      </trkpt>
      <trkpt lat="36.867756" lon="-3.508124">
        <ele>416.623</ele>
        <time>2022-12-06T08:39:57Z</time>
      </trkpt>
      <trkpt lat="36.867793" lon="-3.508087">
        <ele>415.022</ele>
        <time>2022-12-06T08:39:59Z</time>
      </trkpt>
      <trkpt lat="36.867838" lon="-3.508069">
        <ele>414.262</ele>
        <time>2022-12-06T08:40:01Z</time>
      </trkpt>
      <trkpt lat="36.867867" lon="-3.508072">
        <ele>413.708</ele>
        <time>2022-12-06T08:40:02Z</time>
      </trkpt>
      <trkpt lat="36.868016" lon="-3.508098">
        <ele>413.609</ele>
        <time>2022-12-06T08:40:10Z</time>
      </trkpt>
      <trkpt lat="36.868044" lon="-3.508073">
        <ele>413.633</ele>
        <time>2022-12-06T08:40:12Z</time>
      </trkpt>
      <trkpt lat="36.868039" lon="-3.508005">
        <ele>412.774</ele>
        <time>2022-12-06T08:40:16Z</time>
      </trkpt>
      <trkpt lat="36.868020" lon="-3.507871">
        <ele>411.332</ele>
        <time>2022-12-06T08:40:20Z</time>
      </trkpt>
      <trkpt lat="36.867996" lon="-3.507636">
        <ele>410.749</ele>
        <time>2022-12-06T08:40:28Z</time>
      </trkpt>
      <trkpt lat="36.867990" lon="-3.507413">
        <ele>410.717</ele>
        <time>2022-12-06T08:40:36Z</time>
      </trkpt>
      <trkpt lat="36.867960" lon="-3.507183">
        <ele>410.671</ele>
        <time>2022-12-06T08:40:44Z</time>
      </trkpt>
      <trkpt lat="36.867926" lon="-3.506940">
        <ele>410.372</ele>
        <time>2022-12-06T08:40:53Z</time>
      </trkpt>
      <trkpt lat="36.867958" lon="-3.506765">
        <ele>410.039</ele>
        <time>2022-12-06T08:41:01Z</time>
      </trkpt>
      <trkpt lat="36.867977" lon="-3.506655">
        <ele>410.690</ele>
        <time>2022-12-06T08:41:06Z</time>
      </trkpt>
      <trkpt lat="36.868003" lon="-3.506628">
        <ele>410.762</ele>
        <time>2022-12-06T08:41:08Z</time>
      </trkpt>
      <trkpt lat="36.868015" lon="-3.506609">
        <ele>411.283</ele>
        <time>2022-12-06T08:41:10Z</time>
      </trkpt>
      <trkpt lat="36.868043" lon="-3.506578">
        <ele>411.611</ele>
        <time>2022-12-06T08:41:12Z</time>
      </trkpt>
      <trkpt lat="36.868056" lon="-3.506558">
        <ele>411.709</ele>
        <time>2022-12-06T08:41:14Z</time>
      </trkpt>
      <trkpt lat="36.868077" lon="-3.506498">
        <ele>412.347</ele>
        <time>2022-12-06T08:41:18Z</time>
      </trkpt>
      <trkpt lat="36.868082" lon="-3.506455">
        <ele>412.378</ele>
        <time>2022-12-06T08:41:20Z</time>
      </trkpt>
      <trkpt lat="36.868130" lon="-3.506322">
        <ele>412.036</ele>
        <time>2022-12-06T08:41:26Z</time>
      </trkpt>
      <trkpt lat="36.868147" lon="-3.506293">
        <ele>412.093</ele>
        <time>2022-12-06T08:41:28Z</time>
      </trkpt>
      <trkpt lat="36.868175" lon="-3.506246">
        <ele>412.021</ele>
        <time>2022-12-06T08:41:32Z</time>
      </trkpt>
      <trkpt lat="36.868217" lon="-3.506211">
        <ele>412.225</ele>
        <time>2022-12-06T08:41:37Z</time>
      </trkpt>
      <trkpt lat="36.868225" lon="-3.506201">
        <ele>412.636</ele>
        <time>2022-12-06T08:41:38Z</time>
      </trkpt>
      <trkpt lat="36.868231" lon="-3.506193">
        <ele>413.013</ele>
        <time>2022-12-06T08:41:39Z</time>
      </trkpt>
      <trkpt lat="36.868231" lon="-3.506172">
        <ele>413.624</ele>
        <time>2022-12-06T08:41:41Z</time>
      </trkpt>
      <trkpt lat="36.868223" lon="-3.506115">
        <ele>414.375</ele>
        <time>2022-12-06T08:41:44Z</time>
      </trkpt>
      <trkpt lat="36.868195" lon="-3.506068">
        <ele>414.328</ele>
        <time>2022-12-06T08:41:49Z</time>
      </trkpt>
      <trkpt lat="36.868218" lon="-3.505908">
        <ele>412.620</ele>
        <time>2022-12-06T08:41:57Z</time>
      </trkpt>
      <trkpt lat="36.868226" lon="-3.505682">
        <ele>411.609</ele>
        <time>2022-12-06T08:42:05Z</time>
      </trkpt>
      <trkpt lat="36.868330" lon="-3.505456">
        <ele>411.348</ele>
        <time>2022-12-06T08:42:14Z</time>
      </trkpt>
      <trkpt lat="36.868356" lon="-3.505357">
        <ele>411.379</ele>
        <time>2022-12-06T08:42:18Z</time>
      </trkpt>
      <trkpt lat="36.868396" lon="-3.505307">
        <ele>411.367</ele>
        <time>2022-12-06T08:42:20Z</time>
      </trkpt>
      <trkpt lat="36.868407" lon="-3.505278">
        <ele>411.384</ele>
        <time>2022-12-06T08:42:21Z</time>
      </trkpt>
      <trkpt lat="36.868424" lon="-3.505041">
        <ele>411.342</ele>
        <time>2022-12-06T08:42:30Z</time>
      </trkpt>
      <trkpt lat="36.868437" lon="-3.504933">
        <ele>410.616</ele>
        <time>2022-12-06T08:42:34Z</time>
      </trkpt>
      <trkpt lat="36.868441" lon="-3.504848">
        <ele>409.347</ele>
        <time>2022-12-06T08:42:37Z</time>
      </trkpt>
      <trkpt lat="36.868437" lon="-3.504790">
        <ele>407.714</ele>
        <time>2022-12-06T08:42:39Z</time>
      </trkpt>
      <trkpt lat="36.868430" lon="-3.504693">
        <ele>406.385</ele>
        <time>2022-12-06T08:42:42Z</time>
      </trkpt>
      <trkpt lat="36.868427" lon="-3.504633">
        <ele>405.266</ele>
        <time>2022-12-06T08:42:44Z</time>
      </trkpt>
      <trkpt lat="36.868426" lon="-3.504569">
        <ele>403.729</ele>
        <time>2022-12-06T08:42:46Z</time>
      </trkpt>
      <trkpt lat="36.868428" lon="-3.504509">
        <ele>402.621</ele>
        <time>2022-12-06T08:42:48Z</time>
      </trkpt>
      <trkpt lat="36.868434" lon="-3.504416">
        <ele>401.009</ele>
        <time>2022-12-06T08:42:51Z</time>
      </trkpt>
      <trkpt lat="36.868426" lon="-3.504320">
        <ele>399.657</ele>
        <time>2022-12-06T08:42:54Z</time>
      </trkpt>
      <trkpt lat="36.868392" lon="-3.504261">
        <ele>398.258</ele>
        <time>2022-12-06T08:42:56Z</time>
      </trkpt>
      <trkpt lat="36.868354" lon="-3.504202">
        <ele>397.096</ele>
        <time>2022-12-06T08:42:58Z</time>
      </trkpt>
      <trkpt lat="36.868313" lon="-3.504150">
        <ele>395.643</ele>
        <time>2022-12-06T08:43:00Z</time>
      </trkpt>
      <trkpt lat="36.868272" lon="-3.504111">
        <ele>394.311</ele>
        <time>2022-12-06T08:43:02Z</time>
      </trkpt>
      <trkpt lat="36.868227" lon="-3.504073">
        <ele>393.245</ele>
        <time>2022-12-06T08:43:04Z</time>
      </trkpt>
      <trkpt lat="36.868155" lon="-3.504014">
        <ele>391.696</ele>
        <time>2022-12-06T08:43:07Z</time>
      </trkpt>
      <trkpt lat="36.868096" lon="-3.503992">
        <ele>390.333</ele>
        <time>2022-12-06T08:43:09Z</time>
      </trkpt>
      <trkpt lat="36.868036" lon="-3.504001">
        <ele>389.324</ele>
        <time>2022-12-06T08:43:11Z</time>
      </trkpt>
      <trkpt lat="36.867988" lon="-3.504086">
        <ele>388.054</ele>
        <time>2022-12-06T08:43:14Z</time>
      </trkpt>
      <trkpt lat="36.868001" lon="-3.504193">
        <ele>386.656</ele>
        <time>2022-12-06T08:43:17Z</time>
      </trkpt>
      <trkpt lat="36.868033" lon="-3.504298">
        <ele>385.211</ele>
        <time>2022-12-06T08:43:20Z</time>
      </trkpt>
      <trkpt lat="36.868051" lon="-3.504370">
        <ele>384.009</ele>
        <time>2022-12-06T08:43:22Z</time>
      </trkpt>
      <trkpt lat="36.868046" lon="-3.504458">
        <ele>382.396</ele>
        <time>2022-12-06T08:43:25Z</time>
      </trkpt>
      <trkpt lat="36.868007" lon="-3.504521">
        <ele>381.247</ele>
        <time>2022-12-06T08:43:28Z</time>
      </trkpt>
      <trkpt lat="36.867954" lon="-3.504581">
        <ele>379.625</ele>
        <time>2022-12-06T08:43:31Z</time>
      </trkpt>
      <trkpt lat="36.867921" lon="-3.504576">
        <ele>378.722</ele>
        <time>2022-12-06T08:43:33Z</time>
      </trkpt>
      <trkpt lat="36.867905" lon="-3.504529">
        <ele>378.370</ele>
        <time>2022-12-06T08:43:35Z</time>
      </trkpt>
      <trkpt lat="36.867899" lon="-3.504472">
        <ele>377.254</ele>
        <time>2022-12-06T08:43:37Z</time>
      </trkpt>
      <trkpt lat="36.867896" lon="-3.504412">
        <ele>376.085</ele>
        <time>2022-12-06T08:43:39Z</time>
      </trkpt>
      <trkpt lat="36.867892" lon="-3.504385">
        <ele>375.362</ele>
        <time>2022-12-06T08:43:40Z</time>
      </trkpt>
      <trkpt lat="36.867882" lon="-3.504358">
        <ele>374.733</ele>
        <time>2022-12-06T08:43:41Z</time>
      </trkpt>
      <trkpt lat="36.867818" lon="-3.504299">
        <ele>373.365</ele>
        <time>2022-12-06T08:43:44Z</time>
      </trkpt>
      <trkpt lat="36.867779" lon="-3.504276">
        <ele>372.368</ele>
        <time>2022-12-06T08:43:46Z</time>
      </trkpt>
      <trkpt lat="36.867736" lon="-3.504261">
        <ele>371.314</ele>
        <time>2022-12-06T08:43:48Z</time>
      </trkpt>
      <trkpt lat="36.867650" lon="-3.504237">
        <ele>370.009</ele>
        <time>2022-12-06T08:43:51Z</time>
      </trkpt>
      <trkpt lat="36.867573" lon="-3.504227">
        <ele>368.657</ele>
        <time>2022-12-06T08:43:54Z</time>
      </trkpt>
      <trkpt lat="36.867498" lon="-3.504224">
        <ele>367.358</ele>
        <time>2022-12-06T08:43:57Z</time>
      </trkpt>
      <trkpt lat="36.867408" lon="-3.504213">
        <ele>366.236</ele>
        <time>2022-12-06T08:44:01Z</time>
      </trkpt>
      <trkpt lat="36.867322" lon="-3.504158">
        <ele>365.273</ele>
        <time>2022-12-06T08:44:05Z</time>
      </trkpt>
      <trkpt lat="36.867251" lon="-3.504037">
        <ele>364.291</ele>
        <time>2022-12-06T08:44:10Z</time>
      </trkpt>
      <trkpt lat="36.867235" lon="-3.503913">
        <ele>363.015</ele>
        <time>2022-12-06T08:44:14Z</time>
      </trkpt>
      <trkpt lat="36.867282" lon="-3.503805">
        <ele>362.076</ele>
        <time>2022-12-06T08:44:18Z</time>
      </trkpt>
      <trkpt lat="36.867322" lon="-3.503661">
        <ele>361.063</ele>
        <time>2022-12-06T08:44:24Z</time>
      </trkpt>
      <trkpt lat="36.867358" lon="-3.503503">
        <ele>359.724</ele>
        <time>2022-12-06T08:44:30Z</time>
      </trkpt>
      <trkpt lat="36.867456" lon="-3.503410">
        <ele>358.692</ele>
        <time>2022-12-06T08:44:36Z</time>
      </trkpt>
      <trkpt lat="36.867636" lon="-3.503493">
        <ele>358.773</ele>
        <time>2022-12-06T08:44:44Z</time>
      </trkpt>
      <trkpt lat="36.867790" lon="-3.503638">
        <ele>358.220</ele>
        <time>2022-12-06T08:44:52Z</time>
      </trkpt>
      <trkpt lat="36.867967" lon="-3.503606">
        <ele>358.009</ele>
        <time>2022-12-06T08:45:01Z</time>
      </trkpt>
      <trkpt lat="36.868115" lon="-3.503443">
        <ele>357.790</ele>
        <time>2022-12-06T08:45:10Z</time>
      </trkpt>
      <trkpt lat="36.868212" lon="-3.503312">
        <ele>358.081</ele>
        <time>2022-12-06T08:45:20Z</time>
      </trkpt>
      <trkpt lat="36.868218" lon="-3.503289">
        <ele>357.759</ele>
        <time>2022-12-06T08:45:22Z</time>
      </trkpt>
      <trkpt lat="36.868192" lon="-3.503272">
        <ele>357.666</ele>
        <time>2022-12-06T08:45:26Z</time>
      </trkpt>
      <trkpt lat="36.868163" lon="-3.503220">
        <ele>357.654</ele>
        <time>2022-12-06T08:45:30Z</time>
      </trkpt>
      <trkpt lat="36.868140" lon="-3.503170">
        <ele>357.728</ele>
        <time>2022-12-06T08:45:34Z</time>
      </trkpt>
      <trkpt lat="36.868134" lon="-3.503147">
        <ele>357.789</ele>
        <time>2022-12-06T08:45:36Z</time>
      </trkpt>
      <trkpt lat="36.868095" lon="-3.503092">
        <ele>358.216</ele>
        <time>2022-12-06T08:45:40Z</time>
      </trkpt>
      <trkpt lat="36.868048" lon="-3.503031">
        <ele>358.777</ele>
        <time>2022-12-06T08:45:45Z</time>
      </trkpt>
      <trkpt lat="36.867974" lon="-3.502819">
        <ele>359.627</ele>
        <time>2022-12-06T08:46:00Z</time>
      </trkpt>
      <trkpt lat="36.867966" lon="-3.502791">
        <ele>359.768</ele>
        <time>2022-12-06T08:46:03Z</time>
      </trkpt>
      <trkpt lat="36.867966" lon="-3.502778">
        <ele>359.714</ele>
        <time>2022-12-06T08:46:04Z</time>
      </trkpt>
      <trkpt lat="36.867960" lon="-3.502744">
        <ele>360.009</ele>
        <time>2022-12-06T08:46:06Z</time>
      </trkpt>
      <trkpt lat="36.867912" lon="-3.502652">
        <ele>360.623</ele>
        <time>2022-12-06T08:46:12Z</time>
      </trkpt>
      <trkpt lat="36.867909" lon="-3.502637">
        <ele>360.734</ele>
        <time>2022-12-06T08:46:13Z</time>
      </trkpt>
      <trkpt lat="36.867883" lon="-3.502536">
        <ele>361.752</ele>
        <time>2022-12-06T08:46:20Z</time>
      </trkpt>
      <trkpt lat="36.867811" lon="-3.502338">
        <ele>363.099</ele>
        <time>2022-12-06T08:46:33Z</time>
      </trkpt>
      <trkpt lat="36.867812" lon="-3.502242">
        <ele>364.237</ele>
        <time>2022-12-06T08:46:40Z</time>
      </trkpt>
      <trkpt lat="36.867822" lon="-3.502144">
        <ele>365.391</ele>
        <time>2022-12-06T08:46:47Z</time>
      </trkpt>
      <trkpt lat="36.867797" lon="-3.502023">
        <ele>366.342</ele>
        <time>2022-12-06T08:46:55Z</time>
      </trkpt>
      <trkpt lat="36.867785" lon="-3.501893">
        <ele>367.299</ele>
        <time>2022-12-06T08:47:03Z</time>
      </trkpt>
      <trkpt lat="36.867790" lon="-3.501875">
        <ele>367.310</ele>
        <time>2022-12-06T08:47:04Z</time>
      </trkpt>
      <trkpt lat="36.867784" lon="-3.501829">
        <ele>367.717</ele>
        <time>2022-12-06T08:47:07Z</time>
      </trkpt>
      <trkpt lat="36.867806" lon="-3.501738">
        <ele>368.687</ele>
        <time>2022-12-06T08:47:15Z</time>
      </trkpt>
      <trkpt lat="36.867827" lon="-3.501727">
        <ele>368.715</ele>
        <time>2022-12-06T08:47:17Z</time>
      </trkpt>
      <trkpt lat="36.867870" lon="-3.501743">
        <ele>369.309</ele>
        <time>2022-12-06T08:47:21Z</time>
      </trkpt>
      <trkpt lat="36.867869" lon="-3.501753">
        <ele>369.612</ele>
        <time>2022-12-06T08:47:22Z</time>
      </trkpt>
      <trkpt lat="36.867855" lon="-3.501852">
        <ele>370.613</ele>
        <time>2022-12-06T08:47:29Z</time>
      </trkpt>
      <trkpt lat="36.867840" lon="-3.501897">
        <ele>372.091</ele>
        <time>2022-12-06T08:47:33Z</time>
      </trkpt>
      <trkpt lat="36.867841" lon="-3.501935">
        <ele>372.798</ele>
        <time>2022-12-06T08:47:37Z</time>
      </trkpt>
      <trkpt lat="36.867857" lon="-3.501965">
        <ele>373.026</ele>
        <time>2022-12-06T08:47:39Z</time>
      </trkpt>
      <trkpt lat="36.867894" lon="-3.502025">
        <ele>373.730</ele>
        <time>2022-12-06T08:47:45Z</time>
      </trkpt>
      <trkpt lat="36.867919" lon="-3.502044">
        <ele>374.221</ele>
        <time>2022-12-06T08:47:49Z</time>
      </trkpt>
      <trkpt lat="36.867943" lon="-3.502081">
        <ele>375.398</ele>
        <time>2022-12-06T08:47:54Z</time>
      </trkpt>
      <trkpt lat="36.867963" lon="-3.502092">
        <ele>376.379</ele>
        <time>2022-12-06T08:47:58Z</time>
      </trkpt>
      <trkpt lat="36.867993" lon="-3.502083">
        <ele>377.614</ele>
        <time>2022-12-06T08:48:03Z</time>
      </trkpt>
      <trkpt lat="36.868021" lon="-3.502067">
        <ele>378.754</ele>
        <time>2022-12-06T08:48:07Z</time>
      </trkpt>
      <trkpt lat="36.868050" lon="-3.502066">
        <ele>380.009</ele>
        <time>2022-12-06T08:48:14Z</time>
      </trkpt>
      <trkpt lat="36.868069" lon="-3.502093">
        <ele>381.009</ele>
        <time>2022-12-06T08:48:18Z</time>
      </trkpt>
      <trkpt lat="36.868113" lon="-3.502108">
        <ele>382.272</ele>
        <time>2022-12-06T08:48:24Z</time>
      </trkpt>
      <trkpt lat="36.868156" lon="-3.502124">
        <ele>383.213</ele>
        <time>2022-12-06T08:48:29Z</time>
      </trkpt>
      <trkpt lat="36.868203" lon="-3.502169">
        <ele>384.251</ele>
        <time>2022-12-06T08:48:35Z</time>
      </trkpt>
      <trkpt lat="36.868232" lon="-3.502252">
        <ele>385.048</ele>
        <time>2022-12-06T08:48:43Z</time>
      </trkpt>
      <trkpt lat="36.868238" lon="-3.502276">
        <ele>385.386</ele>
        <time>2022-12-06T08:48:45Z</time>
      </trkpt>
      <trkpt lat="36.868244" lon="-3.502287">
        <ele>385.650</ele>
        <time>2022-12-06T08:48:46Z</time>
      </trkpt>
      <trkpt lat="36.868250" lon="-3.502309">
        <ele>386.021</ele>
        <time>2022-12-06T08:48:48Z</time>
      </trkpt>
      <trkpt lat="36.868262" lon="-3.502320">
        <ele>386.358</ele>
        <time>2022-12-06T08:48:50Z</time>
      </trkpt>
      <trkpt lat="36.868270" lon="-3.502322">
        <ele>386.629</ele>
        <time>2022-12-06T08:48:51Z</time>
      </trkpt>
      <trkpt lat="36.868285" lon="-3.502327">
        <ele>387.035</ele>
        <time>2022-12-06T08:48:53Z</time>
      </trkpt>
      <trkpt lat="36.868302" lon="-3.502312">
        <ele>387.686</ele>
        <time>2022-12-06T08:48:56Z</time>
      </trkpt>
      <trkpt lat="36.868324" lon="-3.502297">
        <ele>388.714</ele>
        <time>2022-12-06T08:49:00Z</time>
      </trkpt>
      <trkpt lat="36.868360" lon="-3.502304">
        <ele>389.709</ele>
        <time>2022-12-06T08:49:04Z</time>
      </trkpt>
      <trkpt lat="36.868413" lon="-3.502311">
        <ele>390.744</ele>
        <time>2022-12-06T08:49:10Z</time>
      </trkpt>
      <trkpt lat="36.868426" lon="-3.502328">
        <ele>391.375</ele>
        <time>2022-12-06T08:49:13Z</time>
      </trkpt>
      <trkpt lat="36.868431" lon="-3.502336">
        <ele>392.063</ele>
        <time>2022-12-06T08:49:15Z</time>
      </trkpt>
      <trkpt lat="36.868458" lon="-3.502357">
        <ele>393.060</ele>
        <time>2022-12-06T08:49:20Z</time>
      </trkpt>
      <trkpt lat="36.868499" lon="-3.502384">
        <ele>394.098</ele>
        <time>2022-12-06T08:49:25Z</time>
      </trkpt>
      <trkpt lat="36.868527" lon="-3.502414">
        <ele>395.272</ele>
        <time>2022-12-06T08:49:29Z</time>
      </trkpt>
      <trkpt lat="36.868571" lon="-3.502433">
        <ele>396.263</ele>
        <time>2022-12-06T08:49:34Z</time>
      </trkpt>
      <trkpt lat="36.868625" lon="-3.502449">
        <ele>397.370</ele>
        <time>2022-12-06T08:49:40Z</time>
      </trkpt>
      <trkpt lat="36.868641" lon="-3.502450">
        <ele>397.791</ele>
        <time>2022-12-06T08:49:42Z</time>
      </trkpt>
      <trkpt lat="36.868667" lon="-3.502470">
        <ele>398.622</ele>
        <time>2022-12-06T08:49:47Z</time>
      </trkpt>
      <trkpt lat="36.868694" lon="-3.502545">
        <ele>399.662</ele>
        <time>2022-12-06T08:49:54Z</time>
      </trkpt>
      <trkpt lat="36.868726" lon="-3.502577">
        <ele>400.608</ele>
        <time>2022-12-06T08:49:59Z</time>
      </trkpt>
      <trkpt lat="36.868781" lon="-3.502600">
        <ele>401.309</ele>
        <time>2022-12-06T08:50:05Z</time>
      </trkpt>
      <trkpt lat="36.868790" lon="-3.502602">
        <ele>401.793</ele>
        <time>2022-12-06T08:50:06Z</time>
      </trkpt>
      <trkpt lat="36.868825" lon="-3.502625">
        <ele>402.714</ele>
        <time>2022-12-06T08:50:11Z</time>
      </trkpt>
      <trkpt lat="36.868843" lon="-3.502698">
        <ele>403.742</ele>
        <time>2022-12-06T08:50:17Z</time>
      </trkpt>
      <trkpt lat="36.868846" lon="-3.502713">
        <ele>404.039</ele>
        <time>2022-12-06T08:50:18Z</time>
      </trkpt>
      <trkpt lat="36.868878" lon="-3.502788">
        <ele>404.097</ele>
        <time>2022-12-06T08:50:24Z</time>
      </trkpt>
      <trkpt lat="36.868901" lon="-3.502820">
        <ele>404.791</ele>
        <time>2022-12-06T08:50:28Z</time>
      </trkpt>
      <trkpt lat="36.868910" lon="-3.502816">
        <ele>405.052</ele>
        <time>2022-12-06T08:50:29Z</time>
      </trkpt>
      <trkpt lat="36.868933" lon="-3.502789">
        <ele>406.029</ele>
        <time>2022-12-06T08:50:32Z</time>
      </trkpt>
      <trkpt lat="36.868935" lon="-3.502781">
        <ele>406.240</ele>
        <time>2022-12-06T08:50:33Z</time>
      </trkpt>
      <trkpt lat="36.868968" lon="-3.502757">
        <ele>407.222</ele>
        <time>2022-12-06T08:50:39Z</time>
      </trkpt>
      <trkpt lat="36.869018" lon="-3.502746">
        <ele>408.262</ele>
        <time>2022-12-06T08:50:44Z</time>
      </trkpt>
      <trkpt lat="36.869026" lon="-3.502746">
        <ele>408.308</ele>
        <time>2022-12-06T08:50:45Z</time>
      </trkpt>
      <trkpt lat="36.869039" lon="-3.502743">
        <ele>408.709</ele>
        <time>2022-12-06T08:50:47Z</time>
      </trkpt>
      <trkpt lat="36.869059" lon="-3.502744">
        <ele>409.333</ele>
        <time>2022-12-06T08:50:50Z</time>
      </trkpt>
      <trkpt lat="36.869089" lon="-3.502752">
        <ele>410.674</ele>
        <time>2022-12-06T08:50:55Z</time>
      </trkpt>
      <trkpt lat="36.869121" lon="-3.502762">
        <ele>411.652</ele>
        <time>2022-12-06T08:51:00Z</time>
      </trkpt>
      <trkpt lat="36.869143" lon="-3.502773">
        <ele>412.789</ele>
        <time>2022-12-06T08:51:03Z</time>
      </trkpt>
      <trkpt lat="36.869153" lon="-3.502779">
        <ele>413.737</ele>
        <time>2022-12-06T08:51:06Z</time>
      </trkpt>
      <trkpt lat="36.869153" lon="-3.502831">
        <ele>415.051</ele>
        <time>2022-12-06T08:51:12Z</time>
      </trkpt>
      <trkpt lat="36.869146" lon="-3.502857">
        <ele>416.062</ele>
        <time>2022-12-06T08:51:17Z</time>
      </trkpt>
      <trkpt lat="36.869137" lon="-3.502901">
        <ele>417.269</ele>
        <time>2022-12-06T08:51:22Z</time>
      </trkpt>
      <trkpt lat="36.869148" lon="-3.502935">
        <ele>418.360</ele>
        <time>2022-12-06T08:51:28Z</time>
      </trkpt>
      <trkpt lat="36.869180" lon="-3.502971">
        <ele>419.325</ele>
        <time>2022-12-06T08:51:34Z</time>
      </trkpt>
      <trkpt lat="36.869212" lon="-3.502950">
        <ele>420.026</ele>
        <time>2022-12-06T08:51:38Z</time>
      </trkpt>
      <trkpt lat="36.869229" lon="-3.502942">
        <ele>420.308</ele>
        <time>2022-12-06T08:51:40Z</time>
      </trkpt>
      <trkpt lat="36.869259" lon="-3.502927">
        <ele>421.309</ele>
        <time>2022-12-06T08:51:44Z</time>
      </trkpt>
      <trkpt lat="36.869288" lon="-3.502937">
        <ele>422.723</ele>
        <time>2022-12-06T08:51:50Z</time>
      </trkpt>
      <trkpt lat="36.869310" lon="-3.502956">
        <ele>424.094</ele>
        <time>2022-12-06T08:51:56Z</time>
      </trkpt>
      <trkpt lat="36.869337" lon="-3.502991">
        <ele>425.292</ele>
        <time>2022-12-06T08:52:02Z</time>
      </trkpt>
      <trkpt lat="36.869354" lon="-3.502999">
        <ele>426.289</ele>
        <time>2022-12-06T08:52:06Z</time>
      </trkpt>
      <trkpt lat="36.869387" lon="-3.503001">
        <ele>427.357</ele>
        <time>2022-12-06T08:52:11Z</time>
      </trkpt>
      <trkpt lat="36.869403" lon="-3.503014">
        <ele>428.641</ele>
        <time>2022-12-06T08:52:15Z</time>
      </trkpt>
      <trkpt lat="36.869414" lon="-3.503064">
        <ele>429.782</ele>
        <time>2022-12-06T08:52:20Z</time>
      </trkpt>
      <trkpt lat="36.869455" lon="-3.503124">
        <ele>430.799</ele>
        <time>2022-12-06T08:52:29Z</time>
      </trkpt>
      <trkpt lat="36.869529" lon="-3.503197">
        <ele>431.380</ele>
        <time>2022-12-06T08:52:36Z</time>
      </trkpt>
      <trkpt lat="36.869543" lon="-3.503180">
        <ele>431.362</ele>
        <time>2022-12-06T08:52:38Z</time>
      </trkpt>
      <trkpt lat="36.869548" lon="-3.503158">
        <ele>432.083</ele>
        <time>2022-12-06T08:52:40Z</time>
      </trkpt>
      <trkpt lat="36.869621" lon="-3.503100">
        <ele>433.211</ele>
        <time>2022-12-06T08:52:48Z</time>
      </trkpt>
      <trkpt lat="36.869658" lon="-3.503112">
        <ele>434.309</ele>
        <time>2022-12-06T08:52:53Z</time>
      </trkpt>
      <trkpt lat="36.869663" lon="-3.503122">
        <ele>435.057</ele>
        <time>2022-12-06T08:52:55Z</time>
      </trkpt>
      <trkpt lat="36.869669" lon="-3.503124">
        <ele>435.318</ele>
        <time>2022-12-06T08:52:57Z</time>
      </trkpt>
      <trkpt lat="36.869695" lon="-3.503159">
        <ele>436.686</ele>
        <time>2022-12-06T08:53:01Z</time>
      </trkpt>
      <trkpt lat="36.869721" lon="-3.503229">
        <ele>437.743</ele>
        <time>2022-12-06T08:53:08Z</time>
      </trkpt>
      <trkpt lat="36.869734" lon="-3.503266">
        <ele>438.341</ele>
        <time>2022-12-06T08:53:11Z</time>
      </trkpt>
      <trkpt lat="36.869760" lon="-3.503286">
        <ele>438.625</ele>
        <time>2022-12-06T08:53:14Z</time>
      </trkpt>
      <trkpt lat="36.869763" lon="-3.503280">
        <ele>438.756</ele>
        <time>2022-12-06T08:53:15Z</time>
      </trkpt>
      <trkpt lat="36.869785" lon="-3.503237">
        <ele>440.053</ele>
        <time>2022-12-06T08:53:19Z</time>
      </trkpt>
      <trkpt lat="36.869792" lon="-3.503232">
        <ele>440.274</ele>
        <time>2022-12-06T08:53:20Z</time>
      </trkpt>
      <trkpt lat="36.869806" lon="-3.503251">
        <ele>441.011</ele>
        <time>2022-12-06T08:53:25Z</time>
      </trkpt>
      <trkpt lat="36.869821" lon="-3.503292">
        <ele>442.221</ele>
        <time>2022-12-06T08:53:30Z</time>
      </trkpt>
      <trkpt lat="36.869882" lon="-3.503340">
        <ele>443.203</ele>
        <time>2022-12-06T08:53:37Z</time>
      </trkpt>
      <trkpt lat="36.869905" lon="-3.503341">
        <ele>444.309</ele>
        <time>2022-12-06T08:53:43Z</time>
      </trkpt>
      <trkpt lat="36.869936" lon="-3.503289">
        <ele>445.392</ele>
        <time>2022-12-06T08:53:48Z</time>
      </trkpt>
      <trkpt lat="36.869949" lon="-3.503273">
        <ele>445.773</ele>
        <time>2022-12-06T08:53:50Z</time>
      </trkpt>
      <trkpt lat="36.869969" lon="-3.503266">
        <ele>446.661</ele>
        <time>2022-12-06T08:53:53Z</time>
      </trkpt>
      <trkpt lat="36.869995" lon="-3.503286">
        <ele>447.688</ele>
        <time>2022-12-06T08:53:57Z</time>
      </trkpt>
      <trkpt lat="36.870010" lon="-3.503312">
        <ele>448.756</ele>
        <time>2022-12-06T08:54:00Z</time>
      </trkpt>
      <trkpt lat="36.870019" lon="-3.503339">
        <ele>449.260</ele>
        <time>2022-12-06T08:54:02Z</time>
      </trkpt>
      <trkpt lat="36.870034" lon="-3.503378">
        <ele>449.751</ele>
        <time>2022-12-06T08:54:11Z</time>
      </trkpt>
      <trkpt lat="36.870082" lon="-3.503394">
        <ele>450.718</ele>
        <time>2022-12-06T08:54:27Z</time>
      </trkpt>
      <trkpt lat="36.870102" lon="-3.503435">
        <ele>451.799</ele>
        <time>2022-12-06T08:54:30Z</time>
      </trkpt>
      <trkpt lat="36.870116" lon="-3.503476">
        <ele>452.325</ele>
        <time>2022-12-06T08:54:32Z</time>
      </trkpt>
      <trkpt lat="36.870135" lon="-3.503511">
        <ele>453.026</ele>
        <time>2022-12-06T08:54:34Z</time>
      </trkpt>
      <trkpt lat="36.870227" lon="-3.503554">
        <ele>453.208</ele>
        <time>2022-12-06T08:54:43Z</time>
      </trkpt>
      <trkpt lat="36.870267" lon="-3.503532">
        <ele>454.009</ele>
        <time>2022-12-06T08:54:47Z</time>
      </trkpt>
      <trkpt lat="36.870272" lon="-3.503524">
        <ele>454.243</ele>
        <time>2022-12-06T08:54:48Z</time>
      </trkpt>
      <trkpt lat="36.870290" lon="-3.503508">
        <ele>455.254</ele>
        <time>2022-12-06T08:54:51Z</time>
      </trkpt>
      <trkpt lat="36.870305" lon="-3.503484">
        <ele>456.352</ele>
        <time>2022-12-06T08:54:53Z</time>
      </trkpt>
      <trkpt lat="36.870280" lon="-3.503433">
        <ele>457.319</ele>
        <time>2022-12-06T08:54:57Z</time>
      </trkpt>
      <trkpt lat="36.870249" lon="-3.503418">
        <ele>457.637</ele>
        <time>2022-12-06T08:54:58Z</time>
      </trkpt>
      <trkpt lat="36.870188" lon="-3.503339">
        <ele>458.391</ele>
        <time>2022-12-06T08:55:04Z</time>
      </trkpt>
      <trkpt lat="36.870223" lon="-3.503333">
        <ele>458.762</ele>
        <time>2022-12-06T08:55:07Z</time>
      </trkpt>
      <trkpt lat="36.870243" lon="-3.503357">
        <ele>459.679</ele>
        <time>2022-12-06T08:55:10Z</time>
      </trkpt>
      <trkpt lat="36.870258" lon="-3.503382">
        <ele>460.290</ele>
        <time>2022-12-06T08:55:12Z</time>
      </trkpt>
      <trkpt lat="36.870316" lon="-3.503426">
        <ele>460.214</ele>
        <time>2022-12-06T08:55:17Z</time>
      </trkpt>
      <trkpt lat="36.870422" lon="-3.503624">
        <ele>460.654</ele>
        <time>2022-12-06T08:55:30Z</time>
      </trkpt>
      <trkpt lat="36.870445" lon="-3.503658">
        <ele>461.609</ele>
        <time>2022-12-06T08:55:33Z</time>
      </trkpt>
      <trkpt lat="36.870518" lon="-3.503708">
        <ele>462.009</ele>
        <time>2022-12-06T08:55:42Z</time>
      </trkpt>
      <trkpt lat="36.870556" lon="-3.503717">
        <ele>462.672</ele>
        <time>2022-12-06T08:55:46Z</time>
      </trkpt>
      <trkpt lat="36.870610" lon="-3.503719">
        <ele>463.783</ele>
        <time>2022-12-06T08:55:51Z</time>
      </trkpt>
      <trkpt lat="36.870618" lon="-3.503726">
        <ele>464.021</ele>
        <time>2022-12-06T08:55:52Z</time>
      </trkpt>
      <trkpt lat="36.870657" lon="-3.503775">
        <ele>465.068</ele>
        <time>2022-12-06T08:55:58Z</time>
      </trkpt>
      <trkpt lat="36.870681" lon="-3.503828">
        <ele>465.766</ele>
        <time>2022-12-06T08:56:03Z</time>
      </trkpt>
      <trkpt lat="36.870684" lon="-3.503839">
        <ele>466.260</ele>
        <time>2022-12-06T08:56:04Z</time>
      </trkpt>
      <trkpt lat="36.870704" lon="-3.503860">
        <ele>467.351</ele>
        <time>2022-12-06T08:56:07Z</time>
      </trkpt>
      <trkpt lat="36.870722" lon="-3.503864">
        <ele>468.368</ele>
        <time>2022-12-06T08:56:10Z</time>
      </trkpt>
      <trkpt lat="36.870753" lon="-3.503858">
        <ele>469.359</ele>
        <time>2022-12-06T08:56:14Z</time>
      </trkpt>
      <trkpt lat="36.870761" lon="-3.503850">
        <ele>469.674</ele>
        <time>2022-12-06T08:56:16Z</time>
      </trkpt>
      <trkpt lat="36.870790" lon="-3.503837">
        <ele>470.656</ele>
        <time>2022-12-06T08:56:20Z</time>
      </trkpt>
      <trkpt lat="36.870807" lon="-3.503834">
        <ele>471.721</ele>
        <time>2022-12-06T08:56:24Z</time>
      </trkpt>
      <trkpt lat="36.870821" lon="-3.503827">
        <ele>472.709</ele>
        <time>2022-12-06T08:56:27Z</time>
      </trkpt>
      <trkpt lat="36.870860" lon="-3.503835">
        <ele>474.078</ele>
        <time>2022-12-06T08:56:33Z</time>
      </trkpt>
      <trkpt lat="36.870883" lon="-3.503852">
        <ele>475.369</ele>
        <time>2022-12-06T08:56:37Z</time>
      </trkpt>
      <trkpt lat="36.870901" lon="-3.503894">
        <ele>476.637</ele>
        <time>2022-12-06T08:56:43Z</time>
      </trkpt>
      <trkpt lat="36.870919" lon="-3.503922">
        <ele>477.644</ele>
        <time>2022-12-06T08:56:47Z</time>
      </trkpt>
      <trkpt lat="36.870956" lon="-3.503936">
        <ele>478.662</ele>
        <time>2022-12-06T08:56:52Z</time>
      </trkpt>
      <trkpt lat="36.870991" lon="-3.503899">
        <ele>479.296</ele>
        <time>2022-12-06T08:56:57Z</time>
      </trkpt>
      <trkpt lat="36.870996" lon="-3.503893">
        <ele>479.797</ele>
        <time>2022-12-06T08:56:58Z</time>
      </trkpt>
      <trkpt lat="36.871010" lon="-3.503879">
        <ele>481.064</ele>
        <time>2022-12-06T08:57:01Z</time>
      </trkpt>
      <trkpt lat="36.871075" lon="-3.503860">
        <ele>482.265</ele>
        <time>2022-12-06T08:57:10Z</time>
      </trkpt>
      <trkpt lat="36.871109" lon="-3.503864">
        <ele>483.348</ele>
        <time>2022-12-06T08:57:14Z</time>
      </trkpt>
      <trkpt lat="36.871132" lon="-3.503865">
        <ele>484.361</ele>
        <time>2022-12-06T08:57:17Z</time>
      </trkpt>
      <trkpt lat="36.871178" lon="-3.503895">
        <ele>485.617</ele>
        <time>2022-12-06T08:57:25Z</time>
      </trkpt>
      <trkpt lat="36.871214" lon="-3.503950">
        <ele>486.609</ele>
        <time>2022-12-06T08:57:31Z</time>
      </trkpt>
      <trkpt lat="36.871388" lon="-3.504018">
        <ele>486.625</ele>
        <time>2022-12-06T08:57:45Z</time>
      </trkpt>
      <trkpt lat="36.871420" lon="-3.504012">
        <ele>486.676</ele>
        <time>2022-12-06T08:57:47Z</time>
      </trkpt>
      <trkpt lat="36.871432" lon="-3.504009">
        <ele>486.644</ele>
        <time>2022-12-06T08:57:49Z</time>
      </trkpt>
      <trkpt lat="36.871468" lon="-3.504010">
        <ele>487.761</ele>
        <time>2022-12-06T08:57:54Z</time>
      </trkpt>
      <trkpt lat="36.871486" lon="-3.503972">
        <ele>488.629</ele>
        <time>2022-12-06T08:57:57Z</time>
      </trkpt>
      <trkpt lat="36.871487" lon="-3.503960">
        <ele>488.743</ele>
        <time>2022-12-06T08:57:58Z</time>
      </trkpt>
      <trkpt lat="36.871488" lon="-3.503943">
        <ele>489.374</ele>
        <time>2022-12-06T08:58:00Z</time>
      </trkpt>
      <trkpt lat="36.871489" lon="-3.503922">
        <ele>490.071</ele>
        <time>2022-12-06T08:58:02Z</time>
      </trkpt>
      <trkpt lat="36.871492" lon="-3.503892">
        <ele>491.252</ele>
        <time>2022-12-06T08:58:05Z</time>
      </trkpt>
      <trkpt lat="36.871490" lon="-3.503836">
        <ele>491.771</ele>
        <time>2022-12-06T08:58:09Z</time>
      </trkpt>
      <trkpt lat="36.871477" lon="-3.503794">
        <ele>491.741</ele>
        <time>2022-12-06T08:58:11Z</time>
      </trkpt>
      <trkpt lat="36.871465" lon="-3.503760">
        <ele>492.015</ele>
        <time>2022-12-06T08:58:13Z</time>
      </trkpt>
      <trkpt lat="36.871457" lon="-3.503729">
        <ele>492.209</ele>
        <time>2022-12-06T08:58:15Z</time>
      </trkpt>
      <trkpt lat="36.871450" lon="-3.503680">
        <ele>493.378</ele>
        <time>2022-12-06T08:58:18Z</time>
      </trkpt>
      <trkpt lat="36.871446" lon="-3.503554">
        <ele>494.399</ele>
        <time>2022-12-06T08:58:26Z</time>
      </trkpt>
      <trkpt lat="36.871446" lon="-3.503473">
        <ele>495.657</ele>
        <time>2022-12-06T08:58:32Z</time>
      </trkpt>
      <trkpt lat="36.871463" lon="-3.503441">
        <ele>496.674</ele>
        <time>2022-12-06T08:58:37Z</time>
      </trkpt>
      <trkpt lat="36.871474" lon="-3.503438">
        <ele>496.762</ele>
        <time>2022-12-06T08:58:38Z</time>
      </trkpt>
      <trkpt lat="36.871512" lon="-3.503420">
        <ele>498.096</ele>
        <time>2022-12-06T08:58:43Z</time>
      </trkpt>
      <trkpt lat="36.871546" lon="-3.503404">
        <ele>498.647</ele>
        <time>2022-12-06T08:58:47Z</time>
      </trkpt>
      <trkpt lat="36.871563" lon="-3.503397">
        <ele>499.084</ele>
        <time>2022-12-06T08:58:49Z</time>
      </trkpt>
      <trkpt lat="36.871569" lon="-3.503395">
        <ele>499.295</ele>
        <time>2022-12-06T08:58:50Z</time>
      </trkpt>
      <trkpt lat="36.871586" lon="-3.503395">
        <ele>500.243</ele>
        <time>2022-12-06T08:58:55Z</time>
      </trkpt>
      <trkpt lat="36.871601" lon="-3.503401">
        <ele>501.364</ele>
        <time>2022-12-06T08:58:59Z</time>
      </trkpt>
      <trkpt lat="36.871633" lon="-3.503435">
        <ele>502.610</ele>
        <time>2022-12-06T08:59:06Z</time>
      </trkpt>
      <trkpt lat="36.871635" lon="-3.503462">
        <ele>503.609</ele>
        <time>2022-12-06T08:59:11Z</time>
      </trkpt>
      <trkpt lat="36.871638" lon="-3.503479">
        <ele>504.725</ele>
        <time>2022-12-06T08:59:14Z</time>
      </trkpt>
      <trkpt lat="36.871629" lon="-3.503521">
        <ele>506.076</ele>
        <time>2022-12-06T08:59:19Z</time>
      </trkpt>
      <trkpt lat="36.871634" lon="-3.503581">
        <ele>507.254</ele>
        <time>2022-12-06T08:59:24Z</time>
      </trkpt>
      <trkpt lat="36.871639" lon="-3.503592">
        <ele>507.341</ele>
        <time>2022-12-06T08:59:25Z</time>
      </trkpt>
      <trkpt lat="36.871669" lon="-3.503611">
        <ele>508.019</ele>
        <time>2022-12-06T08:59:28Z</time>
      </trkpt>
      <trkpt lat="36.871688" lon="-3.503608">
        <ele>508.363</ele>
        <time>2022-12-06T08:59:30Z</time>
      </trkpt>
      <trkpt lat="36.871702" lon="-3.503608">
        <ele>508.624</ele>
        <time>2022-12-06T08:59:31Z</time>
      </trkpt>
      <trkpt lat="36.871716" lon="-3.503606">
        <ele>509.081</ele>
        <time>2022-12-06T08:59:33Z</time>
      </trkpt>
      <trkpt lat="36.871734" lon="-3.503616">
        <ele>509.672</ele>
        <time>2022-12-06T08:59:36Z</time>
      </trkpt>
      <trkpt lat="36.871765" lon="-3.503622">
        <ele>510.647</ele>
        <time>2022-12-06T08:59:40Z</time>
      </trkpt>
      <trkpt lat="36.871791" lon="-3.503604">
        <ele>511.229</ele>
        <time>2022-12-06T08:59:43Z</time>
      </trkpt>
      <trkpt lat="36.871811" lon="-3.503582">
        <ele>511.721</ele>
        <time>2022-12-06T08:59:46Z</time>
      </trkpt>
      <trkpt lat="36.871819" lon="-3.503578">
        <ele>512.009</ele>
        <time>2022-12-06T08:59:47Z</time>
      </trkpt>
      <trkpt lat="36.871844" lon="-3.503576">
        <ele>512.725</ele>
        <time>2022-12-06T08:59:50Z</time>
      </trkpt>
      <trkpt lat="36.871866" lon="-3.503584">
        <ele>513.536</ele>
        <time>2022-12-06T08:59:53Z</time>
      </trkpt>
      <trkpt lat="36.871866" lon="-3.503591">
        <ele>513.764</ele>
        <time>2022-12-06T08:59:54Z</time>
      </trkpt>
      <trkpt lat="36.871889" lon="-3.503624">
        <ele>515.041</ele>
        <time>2022-12-06T08:59:59Z</time>
      </trkpt>
      <trkpt lat="36.871891" lon="-3.503654">
        <ele>516.069</ele>
        <time>2022-12-06T09:00:03Z</time>
      </trkpt>
      <trkpt lat="36.871891" lon="-3.503684">
        <ele>517.073</ele>
        <time>2022-12-06T09:00:09Z</time>
      </trkpt>
      <trkpt lat="36.871919" lon="-3.503745">
        <ele>518.264</ele>
        <time>2022-12-06T09:00:16Z</time>
      </trkpt>
      <trkpt lat="36.871934" lon="-3.503822">
        <ele>519.421</ele>
        <time>2022-12-06T09:00:23Z</time>
      </trkpt>
      <trkpt lat="36.871960" lon="-3.503863">
        <ele>520.442</ele>
        <time>2022-12-06T09:00:28Z</time>
      </trkpt>
      <trkpt lat="36.871972" lon="-3.503908">
        <ele>521.554</ele>
        <time>2022-12-06T09:00:35Z</time>
      </trkpt>
      <trkpt lat="36.871988" lon="-3.503935">
        <ele>522.756</ele>
        <time>2022-12-06T09:00:40Z</time>
      </trkpt>
      <trkpt lat="36.871996" lon="-3.503999">
        <ele>523.711</ele>
        <time>2022-12-06T09:00:45Z</time>
      </trkpt>
      <trkpt lat="36.872007" lon="-3.504041">
        <ele>524.409</ele>
        <time>2022-12-06T09:00:48Z</time>
      </trkpt>
      <trkpt lat="36.872021" lon="-3.504049">
        <ele>524.756</ele>
        <time>2022-12-06T09:00:50Z</time>
      </trkpt>
      <trkpt lat="36.872027" lon="-3.504044">
        <ele>524.737</ele>
        <time>2022-12-06T09:00:51Z</time>
      </trkpt>
      <trkpt lat="36.872032" lon="-3.504049">
        <ele>525.025</ele>
        <time>2022-12-06T09:00:52Z</time>
      </trkpt>
      <trkpt lat="36.872065" lon="-3.504051">
        <ele>526.092</ele>
        <time>2022-12-06T09:00:58Z</time>
      </trkpt>
      <trkpt lat="36.872112" lon="-3.504051">
        <ele>527.070</ele>
        <time>2022-12-06T09:01:04Z</time>
      </trkpt>
      <trkpt lat="36.872154" lon="-3.504045">
        <ele>528.274</ele>
        <time>2022-12-06T09:01:09Z</time>
      </trkpt>
      <trkpt lat="36.872174" lon="-3.504047">
        <ele>529.415</ele>
        <time>2022-12-06T09:01:13Z</time>
      </trkpt>
      <trkpt lat="36.872203" lon="-3.504052">
        <ele>530.582</ele>
        <time>2022-12-06T09:01:18Z</time>
      </trkpt>
      <trkpt lat="36.872241" lon="-3.504049">
        <ele>531.523</ele>
        <time>2022-12-06T09:01:23Z</time>
      </trkpt>
      <trkpt lat="36.872271" lon="-3.504079">
        <ele>532.539</ele>
        <time>2022-12-06T09:01:28Z</time>
      </trkpt>
      <trkpt lat="36.872316" lon="-3.504076">
        <ele>533.701</ele>
        <time>2022-12-06T09:01:34Z</time>
      </trkpt>
      <trkpt lat="36.872377" lon="-3.504081">
        <ele>534.721</ele>
        <time>2022-12-06T09:01:42Z</time>
      </trkpt>
      <trkpt lat="36.872405" lon="-3.504102">
        <ele>535.709</ele>
        <time>2022-12-06T09:01:48Z</time>
      </trkpt>
      <trkpt lat="36.872435" lon="-3.504110">
        <ele>536.714</ele>
        <time>2022-12-06T09:01:53Z</time>
      </trkpt>
      <trkpt lat="36.872468" lon="-3.504110">
        <ele>538.015</ele>
        <time>2022-12-06T09:01:58Z</time>
      </trkpt>
      <trkpt lat="36.872527" lon="-3.504081">
        <ele>539.043</ele>
        <time>2022-12-06T09:02:07Z</time>
      </trkpt>
      <trkpt lat="36.872543" lon="-3.504086">
        <ele>540.080</ele>
        <time>2022-12-06T09:02:11Z</time>
      </trkpt>
      <trkpt lat="36.872548" lon="-3.504098">
        <ele>541.488</ele>
        <time>2022-12-06T09:02:15Z</time>
      </trkpt>
      <trkpt lat="36.872545" lon="-3.504111">
        <ele>542.432</ele>
        <time>2022-12-06T09:02:20Z</time>
      </trkpt>
      <trkpt lat="36.872555" lon="-3.504132">
        <ele>543.713</ele>
        <time>2022-12-06T09:02:24Z</time>
      </trkpt>
      <trkpt lat="36.872583" lon="-3.504185">
        <ele>545.010</ele>
        <time>2022-12-06T09:02:32Z</time>
      </trkpt>
      <trkpt lat="36.872593" lon="-3.504199">
        <ele>546.041</ele>
        <time>2022-12-06T09:02:39Z</time>
      </trkpt>
      <trkpt lat="36.872598" lon="-3.504206">
        <ele>547.212</ele>
        <time>2022-12-06T09:02:44Z</time>
      </trkpt>
      <trkpt lat="36.872618" lon="-3.504268">
        <ele>548.232</ele>
        <time>2022-12-06T09:02:50Z</time>
      </trkpt>
      <trkpt lat="36.872646" lon="-3.504324">
        <ele>549.205</ele>
        <time>2022-12-06T09:02:59Z</time>
      </trkpt>
      <trkpt lat="36.872660" lon="-3.504355">
        <ele>550.409</ele>
        <time>2022-12-06T09:03:04Z</time>
      </trkpt>
      <trkpt lat="36.872683" lon="-3.504427">
        <ele>551.482</ele>
        <time>2022-12-06T09:03:13Z</time>
      </trkpt>
      <trkpt lat="36.872699" lon="-3.504439">
        <ele>552.533</ele>
        <time>2022-12-06T09:03:17Z</time>
      </trkpt>
      <trkpt lat="36.872716" lon="-3.504438">
        <ele>553.581</ele>
        <time>2022-12-06T09:03:23Z</time>
      </trkpt>
      <trkpt lat="36.872741" lon="-3.504410">
        <ele>554.578</ele>
        <time>2022-12-06T09:03:31Z</time>
      </trkpt>
      <trkpt lat="36.872778" lon="-3.504357">
        <ele>555.716</ele>
        <time>2022-12-06T09:03:37Z</time>
      </trkpt>
      <trkpt lat="36.872780" lon="-3.504344">
        <ele>556.040</ele>
        <time>2022-12-06T09:03:38Z</time>
      </trkpt>
      <trkpt lat="36.872799" lon="-3.504277">
        <ele>557.071</ele>
        <time>2022-12-06T09:03:43Z</time>
      </trkpt>
      <trkpt lat="36.872800" lon="-3.504264">
        <ele>557.058</ele>
        <time>2022-12-06T09:03:44Z</time>
      </trkpt>
      <trkpt lat="36.872821" lon="-3.504156">
        <ele>558.099</ele>
        <time>2022-12-06T09:03:54Z</time>
      </trkpt>
      <trkpt lat="36.872844" lon="-3.504119">
        <ele>559.097</ele>
        <time>2022-12-06T09:03:59Z</time>
      </trkpt>
      <trkpt lat="36.872872" lon="-3.504073">
        <ele>560.223</ele>
        <time>2022-12-06T09:04:04Z</time>
      </trkpt>
      <trkpt lat="36.872880" lon="-3.504049">
        <ele>560.425</ele>
        <time>2022-12-06T09:04:06Z</time>
      </trkpt>
      <trkpt lat="36.872889" lon="-3.503997">
        <ele>561.209</ele>
        <time>2022-12-06T09:04:10Z</time>
      </trkpt>
      <trkpt lat="36.872890" lon="-3.503977">
        <ele>561.520</ele>
        <time>2022-12-06T09:04:12Z</time>
      </trkpt>
      <trkpt lat="36.872945" lon="-3.503906">
        <ele>562.231</ele>
        <time>2022-12-06T09:04:20Z</time>
      </trkpt>
      <trkpt lat="36.872956" lon="-3.503902">
        <ele>562.499</ele>
        <time>2022-12-06T09:04:21Z</time>
      </trkpt>
      <trkpt lat="36.872967" lon="-3.503898">
        <ele>562.516</ele>
        <time>2022-12-06T09:04:23Z</time>
      </trkpt>
      <trkpt lat="36.873014" lon="-3.503889">
        <ele>563.484</ele>
        <time>2022-12-06T09:04:29Z</time>
      </trkpt>
      <trkpt lat="36.873037" lon="-3.503893">
        <ele>564.758</ele>
        <time>2022-12-06T09:04:34Z</time>
      </trkpt>
      <trkpt lat="36.873047" lon="-3.503882">
        <ele>566.039</ele>
        <time>2022-12-06T09:04:36Z</time>
      </trkpt>
      <trkpt lat="36.873072" lon="-3.503862">
        <ele>566.556</ele>
        <time>2022-12-06T09:04:39Z</time>
      </trkpt>
      <trkpt lat="36.873084" lon="-3.503852">
        <ele>567.497</ele>
        <time>2022-12-06T09:04:41Z</time>
      </trkpt>
      <trkpt lat="36.873101" lon="-3.503847">
        <ele>568.563</ele>
        <time>2022-12-06T09:04:43Z</time>
      </trkpt>
      <trkpt lat="36.873141" lon="-3.503779">
        <ele>569.544</ele>
        <time>2022-12-06T09:04:58Z</time>
      </trkpt>
      <trkpt lat="36.873153" lon="-3.503751">
        <ele>570.218</ele>
        <time>2022-12-06T09:05:01Z</time>
      </trkpt>
      <trkpt lat="36.873168" lon="-3.503738">
        <ele>570.509</ele>
        <time>2022-12-06T09:05:03Z</time>
      </trkpt>
      <trkpt lat="36.873201" lon="-3.503749">
        <ele>571.267</ele>
        <time>2022-12-06T09:05:07Z</time>
      </trkpt>
      <trkpt lat="36.873195" lon="-3.503809">
        <ele>571.538</ele>
        <time>2022-12-06T09:05:13Z</time>
      </trkpt>
      <trkpt lat="36.873180" lon="-3.503836">
        <ele>571.736</ele>
        <time>2022-12-06T09:05:15Z</time>
      </trkpt>
      <trkpt lat="36.873164" lon="-3.503881">
        <ele>571.723</ele>
        <time>2022-12-06T09:05:18Z</time>
      </trkpt>
      <trkpt lat="36.873143" lon="-3.503960">
        <ele>572.441</ele>
        <time>2022-12-06T09:05:25Z</time>
      </trkpt>
      <trkpt lat="36.873133" lon="-3.504006">
        <ele>572.775</ele>
        <time>2022-12-06T09:05:29Z</time>
      </trkpt>
      <trkpt lat="36.873138" lon="-3.504014">
        <ele>573.056</ele>
        <time>2022-12-06T09:05:30Z</time>
      </trkpt>
      <trkpt lat="36.873147" lon="-3.504066">
        <ele>574.283</ele>
        <time>2022-12-06T09:05:34Z</time>
      </trkpt>
      <trkpt lat="36.873160" lon="-3.504146">
        <ele>575.414</ele>
        <time>2022-12-06T09:05:40Z</time>
      </trkpt>
      <trkpt lat="36.873174" lon="-3.504220">
        <ele>576.437</ele>
        <time>2022-12-06T09:05:46Z</time>
      </trkpt>
      <trkpt lat="36.873182" lon="-3.504295">
        <ele>577.249</ele>
        <time>2022-12-06T09:05:52Z</time>
      </trkpt>
      <trkpt lat="36.873187" lon="-3.504313">
        <ele>577.713</ele>
        <time>2022-12-06T09:05:54Z</time>
      </trkpt>
      <trkpt lat="36.873170" lon="-3.504413">
        <ele>578.709</ele>
        <time>2022-12-06T09:06:02Z</time>
      </trkpt>
      <trkpt lat="36.873152" lon="-3.504497">
        <ele>580.054</ele>
        <time>2022-12-06T09:06:10Z</time>
      </trkpt>
      <trkpt lat="36.873159" lon="-3.504532">
        <ele>580.525</ele>
        <time>2022-12-06T09:06:14Z</time>
      </trkpt>
      <trkpt lat="36.873168" lon="-3.504548">
        <ele>581.053</ele>
        <time>2022-12-06T09:06:16Z</time>
      </trkpt>
      <trkpt lat="36.873179" lon="-3.504566">
        <ele>581.440</ele>
        <time>2022-12-06T09:06:18Z</time>
      </trkpt>
      <trkpt lat="36.873188" lon="-3.504581">
        <ele>582.298</ele>
        <time>2022-12-06T09:06:21Z</time>
      </trkpt>
      <trkpt lat="36.873197" lon="-3.504601">
        <ele>583.232</ele>
        <time>2022-12-06T09:06:24Z</time>
      </trkpt>
      <trkpt lat="36.873204" lon="-3.504626">
        <ele>584.433</ele>
        <time>2022-12-06T09:06:28Z</time>
      </trkpt>
      <trkpt lat="36.873208" lon="-3.504653">
        <ele>585.560</ele>
        <time>2022-12-06T09:06:32Z</time>
      </trkpt>
      <trkpt lat="36.873245" lon="-3.504871">
        <ele>586.491</ele>
        <time>2022-12-06T09:06:50Z</time>
      </trkpt>
      <trkpt lat="36.873248" lon="-3.504879">
        <ele>586.562</ele>
        <time>2022-12-06T09:06:51Z</time>
      </trkpt>
      <trkpt lat="36.873261" lon="-3.504942">
        <ele>587.583</ele>
        <time>2022-12-06T09:06:56Z</time>
      </trkpt>
      <trkpt lat="36.873261" lon="-3.504954">
        <ele>587.711</ele>
        <time>2022-12-06T09:06:57Z</time>
      </trkpt>
      <trkpt lat="36.873258" lon="-3.504993">
        <ele>588.709</ele>
        <time>2022-12-06T09:07:01Z</time>
      </trkpt>
      <trkpt lat="36.873256" lon="-3.505000">
        <ele>589.077</ele>
        <time>2022-12-06T09:07:02Z</time>
      </trkpt>
      <trkpt lat="36.873243" lon="-3.505046">
        <ele>590.288</ele>
        <time>2022-12-06T09:07:08Z</time>
      </trkpt>
      <trkpt lat="36.873247" lon="-3.505092">
        <ele>591.226</ele>
        <time>2022-12-06T09:07:13Z</time>
      </trkpt>
      <trkpt lat="36.873251" lon="-3.505122">
        <ele>592.293</ele>
        <time>2022-12-06T09:07:16Z</time>
      </trkpt>
      <trkpt lat="36.873264" lon="-3.505160">
        <ele>593.471</ele>
        <time>2022-12-06T09:07:20Z</time>
      </trkpt>
      <trkpt lat="36.873289" lon="-3.505200">
        <ele>594.515</ele>
        <time>2022-12-06T09:07:25Z</time>
      </trkpt>
      <trkpt lat="36.873326" lon="-3.505240">
        <ele>595.596</ele>
        <time>2022-12-06T09:07:31Z</time>
      </trkpt>
      <trkpt lat="36.873354" lon="-3.505255">
        <ele>596.513</ele>
        <time>2022-12-06T09:07:35Z</time>
      </trkpt>
      <trkpt lat="36.873376" lon="-3.505284">
        <ele>597.714</ele>
        <time>2022-12-06T09:07:40Z</time>
      </trkpt>
      <trkpt lat="36.873398" lon="-3.505324">
        <ele>598.761</ele>
        <time>2022-12-06T09:07:44Z</time>
      </trkpt>
      <trkpt lat="36.873455" lon="-3.505384">
        <ele>599.721</ele>
        <time>2022-12-06T09:07:52Z</time>
      </trkpt>
      <trkpt lat="36.873462" lon="-3.505410">
        <ele>601.013</ele>
        <time>2022-12-06T09:07:56Z</time>
      </trkpt>
      <trkpt lat="36.873464" lon="-3.505449">
        <ele>602.009</ele>
        <time>2022-12-06T09:08:01Z</time>
      </trkpt>
      <trkpt lat="36.873476" lon="-3.505499">
        <ele>603.457</ele>
        <time>2022-12-06T09:08:07Z</time>
      </trkpt>
      <trkpt lat="36.873478" lon="-3.505552">
        <ele>604.468</ele>
        <time>2022-12-06T09:08:12Z</time>
      </trkpt>
      <trkpt lat="36.873492" lon="-3.505603">
        <ele>604.796</ele>
        <time>2022-12-06T09:08:17Z</time>
      </trkpt>
      <trkpt lat="36.873495" lon="-3.505625">
        <ele>605.073</ele>
        <time>2022-12-06T09:08:19Z</time>
      </trkpt>
      <trkpt lat="36.873496" lon="-3.505640">
        <ele>605.251</ele>
        <time>2022-12-06T09:08:21Z</time>
      </trkpt>
      <trkpt lat="36.873502" lon="-3.505660">
        <ele>605.545</ele>
        <time>2022-12-06T09:08:23Z</time>
      </trkpt>
      <trkpt lat="36.873520" lon="-3.505703">
        <ele>606.556</ele>
        <time>2022-12-06T09:08:27Z</time>
      </trkpt>
      <trkpt lat="36.873545" lon="-3.505801">
        <ele>607.533</ele>
        <time>2022-12-06T09:08:35Z</time>
      </trkpt>
      <trkpt lat="36.873561" lon="-3.505837">
        <ele>608.714</ele>
        <time>2022-12-06T09:08:39Z</time>
      </trkpt>
      <trkpt lat="36.873562" lon="-3.505874">
        <ele>609.757</ele>
        <time>2022-12-06T09:08:43Z</time>
      </trkpt>
      <trkpt lat="36.873560" lon="-3.505884">
        <ele>610.000</ele>
        <time>2022-12-06T09:08:44Z</time>
      </trkpt>
      <trkpt lat="36.873565" lon="-3.505898">
        <ele>611.020</ele>
        <time>2022-12-06T09:08:47Z</time>
      </trkpt>
      <trkpt lat="36.873562" lon="-3.505922">
        <ele>612.409</ele>
        <time>2022-12-06T09:08:50Z</time>
      </trkpt>
      <trkpt lat="36.873563" lon="-3.505982">
        <ele>613.456</ele>
        <time>2022-12-06T09:08:55Z</time>
      </trkpt>
      <trkpt lat="36.873569" lon="-3.506014">
        <ele>613.527</ele>
        <time>2022-12-06T09:08:59Z</time>
      </trkpt>
      <trkpt lat="36.873563" lon="-3.506050">
        <ele>614.445</ele>
        <time>2022-12-06T09:09:04Z</time>
      </trkpt>
      <trkpt lat="36.873557" lon="-3.506286">
        <ele>613.792</ele>
        <time>2022-12-06T09:09:16Z</time>
      </trkpt>
      <trkpt lat="36.873556" lon="-3.506315">
        <ele>613.730</ele>
        <time>2022-12-06T09:09:18Z</time>
      </trkpt>
      <trkpt lat="36.873561" lon="-3.506362">
        <ele>614.574</ele>
        <time>2022-12-06T09:09:22Z</time>
      </trkpt>
      <trkpt lat="36.873566" lon="-3.506386">
        <ele>615.075</ele>
        <time>2022-12-06T09:09:24Z</time>
      </trkpt>
      <trkpt lat="36.873575" lon="-3.506403">
        <ele>615.552</ele>
        <time>2022-12-06T09:09:26Z</time>
      </trkpt>
      <trkpt lat="36.873594" lon="-3.506440">
        <ele>616.563</ele>
        <time>2022-12-06T09:09:31Z</time>
      </trkpt>
      <trkpt lat="36.873603" lon="-3.506501">
        <ele>617.455</ele>
        <time>2022-12-06T09:09:35Z</time>
      </trkpt>
      <trkpt lat="36.873618" lon="-3.506553">
        <ele>617.707</ele>
        <time>2022-12-06T09:09:39Z</time>
      </trkpt>
      <trkpt lat="36.873621" lon="-3.506562">
        <ele>618.717</ele>
        <time>2022-12-06T09:09:45Z</time>
      </trkpt>
      <trkpt lat="36.873616" lon="-3.506575">
        <ele>619.709</ele>
        <time>2022-12-06T09:09:49Z</time>
      </trkpt>
      <trkpt lat="36.873627" lon="-3.506610">
        <ele>621.056</ele>
        <time>2022-12-06T09:09:53Z</time>
      </trkpt>
      <trkpt lat="36.873662" lon="-3.506696">
        <ele>621.477</ele>
        <time>2022-12-06T09:10:00Z</time>
      </trkpt>
      <trkpt lat="36.873652" lon="-3.506714">
        <ele>621.495</ele>
        <time>2022-12-06T09:10:02Z</time>
      </trkpt>
      <trkpt lat="36.873636" lon="-3.506747">
        <ele>622.092</ele>
        <time>2022-12-06T09:10:05Z</time>
      </trkpt>
      <trkpt lat="36.873630" lon="-3.506755">
        <ele>622.250</ele>
        <time>2022-12-06T09:10:06Z</time>
      </trkpt>
      <trkpt lat="36.873629" lon="-3.506768">
        <ele>622.594</ele>
        <time>2022-12-06T09:10:08Z</time>
      </trkpt>
      <trkpt lat="36.873627" lon="-3.506783">
        <ele>623.265</ele>
        <time>2022-12-06T09:10:10Z</time>
      </trkpt>
      <trkpt lat="36.873648" lon="-3.506980">
        <ele>624.292</ele>
        <time>2022-12-06T09:10:25Z</time>
      </trkpt>
      <trkpt lat="36.873651" lon="-3.506986">
        <ele>624.553</ele>
        <time>2022-12-06T09:10:27Z</time>
      </trkpt>
      <trkpt lat="36.873645" lon="-3.506995">
        <ele>625.286</ele>
        <time>2022-12-06T09:10:30Z</time>
      </trkpt>
      <trkpt lat="36.873656" lon="-3.507019">
        <ele>626.460</ele>
        <time>2022-12-06T09:10:36Z</time>
      </trkpt>
      <trkpt lat="36.873674" lon="-3.507046">
        <ele>627.426</ele>
        <time>2022-12-06T09:10:42Z</time>
      </trkpt>
      <trkpt lat="36.873696" lon="-3.507153">
        <ele>628.209</ele>
        <time>2022-12-06T09:10:51Z</time>
      </trkpt>
      <trkpt lat="36.873721" lon="-3.507251">
        <ele>628.529</ele>
        <time>2022-12-06T09:10:57Z</time>
      </trkpt>
      <trkpt lat="36.873726" lon="-3.507277">
        <ele>629.470</ele>
        <time>2022-12-06T09:11:00Z</time>
      </trkpt>
      <trkpt lat="36.873728" lon="-3.507289">
        <ele>629.788</ele>
        <time>2022-12-06T09:11:01Z</time>
      </trkpt>
      <trkpt lat="36.873750" lon="-3.507340">
        <ele>630.435</ele>
        <time>2022-12-06T09:11:05Z</time>
      </trkpt>
      <trkpt lat="36.873752" lon="-3.507371">
        <ele>630.763</ele>
        <time>2022-12-06T09:11:08Z</time>
      </trkpt>
      <trkpt lat="36.873756" lon="-3.507392">
        <ele>631.447</ele>
        <time>2022-12-06T09:11:10Z</time>
      </trkpt>
      <trkpt lat="36.873770" lon="-3.507424">
        <ele>631.718</ele>
        <time>2022-12-06T09:11:13Z</time>
      </trkpt>
      <trkpt lat="36.873777" lon="-3.507471">
        <ele>633.235</ele>
        <time>2022-12-06T09:11:18Z</time>
      </trkpt>
      <trkpt lat="36.873783" lon="-3.507489">
        <ele>634.246</ele>
        <time>2022-12-06T09:11:22Z</time>
      </trkpt>
      <trkpt lat="36.873789" lon="-3.507502">
        <ele>635.258</ele>
        <time>2022-12-06T09:11:27Z</time>
      </trkpt>
      <trkpt lat="36.873800" lon="-3.507528">
        <ele>636.252</ele>
        <time>2022-12-06T09:11:31Z</time>
      </trkpt>
      <trkpt lat="36.873790" lon="-3.507555">
        <ele>637.417</ele>
        <time>2022-12-06T09:11:36Z</time>
      </trkpt>
      <trkpt lat="36.873788" lon="-3.507605">
        <ele>638.509</ele>
        <time>2022-12-06T09:11:42Z</time>
      </trkpt>
      <trkpt lat="36.873835" lon="-3.507821">
        <ele>639.286</ele>
        <time>2022-12-06T09:12:00Z</time>
      </trkpt>
      <trkpt lat="36.873836" lon="-3.507866">
        <ele>640.087</ele>
        <time>2022-12-06T09:12:04Z</time>
      </trkpt>
      <trkpt lat="36.873790" lon="-3.508016">
        <ele>641.015</ele>
        <time>2022-12-06T09:12:15Z</time>
      </trkpt>
      <trkpt lat="36.873825" lon="-3.508109">
        <ele>642.032</ele>
        <time>2022-12-06T09:12:23Z</time>
      </trkpt>
      <trkpt lat="36.873869" lon="-3.508338">
        <ele>641.490</ele>
        <time>2022-12-06T09:12:37Z</time>
      </trkpt>
      <trkpt lat="36.873894" lon="-3.508554">
        <ele>643.024</ele>
        <time>2022-12-06T09:12:51Z</time>
      </trkpt>
      <trkpt lat="36.873892" lon="-3.508651">
        <ele>644.425</ele>
        <time>2022-12-06T09:12:59Z</time>
      </trkpt>
      <trkpt lat="36.873890" lon="-3.508722">
        <ele>645.482</ele>
        <time>2022-12-06T09:13:04Z</time>
      </trkpt>
      <trkpt lat="36.873877" lon="-3.508750">
        <ele>645.783</ele>
        <time>2022-12-06T09:13:06Z</time>
      </trkpt>
      <trkpt lat="36.873865" lon="-3.508793">
        <ele>646.481</ele>
        <time>2022-12-06T09:13:09Z</time>
      </trkpt>
      <trkpt lat="36.873862" lon="-3.508809">
        <ele>646.761</ele>
        <time>2022-12-06T09:13:11Z</time>
      </trkpt>
      <trkpt lat="36.873863" lon="-3.508822">
        <ele>647.217</ele>
        <time>2022-12-06T09:13:13Z</time>
      </trkpt>
      <trkpt lat="36.873863" lon="-3.508825">
        <ele>647.409</ele>
        <time>2022-12-06T09:13:14Z</time>
      </trkpt>
      <trkpt lat="36.873856" lon="-3.508830">
        <ele>648.479</ele>
        <time>2022-12-06T09:13:17Z</time>
      </trkpt>
      <trkpt lat="36.873854" lon="-3.508874">
        <ele>649.540</ele>
        <time>2022-12-06T09:13:23Z</time>
      </trkpt>
      <trkpt lat="36.873860" lon="-3.508899">
        <ele>650.598</ele>
        <time>2022-12-06T09:13:27Z</time>
      </trkpt>
      <trkpt lat="36.873875" lon="-3.508945">
        <ele>651.275</ele>
        <time>2022-12-06T09:13:32Z</time>
      </trkpt>
      <trkpt lat="36.873954" lon="-3.509090">
        <ele>652.093</ele>
        <time>2022-12-06T09:13:48Z</time>
      </trkpt>
      <trkpt lat="36.873974" lon="-3.509122">
        <ele>653.297</ele>
        <time>2022-12-06T09:13:53Z</time>
      </trkpt>
      <trkpt lat="36.873990" lon="-3.509147">
        <ele>654.218</ele>
        <time>2022-12-06T09:13:58Z</time>
      </trkpt>
      <trkpt lat="36.873992" lon="-3.509205">
        <ele>655.485</ele>
        <time>2022-12-06T09:14:04Z</time>
      </trkpt>
      <trkpt lat="36.873999" lon="-3.509241">
        <ele>656.456</ele>
        <time>2022-12-06T09:14:09Z</time>
      </trkpt>
      <trkpt lat="36.873995" lon="-3.509272">
        <ele>657.565</ele>
        <time>2022-12-06T09:14:13Z</time>
      </trkpt>
      <trkpt lat="36.873991" lon="-3.509334">
        <ele>658.568</ele>
        <time>2022-12-06T09:14:19Z</time>
      </trkpt>
      <trkpt lat="36.873966" lon="-3.509372">
        <ele>659.714</ele>
        <time>2022-12-06T09:14:25Z</time>
      </trkpt>
      <trkpt lat="36.873940" lon="-3.509436">
        <ele>660.709</ele>
        <time>2022-12-06T09:14:31Z</time>
      </trkpt>
      <trkpt lat="36.873922" lon="-3.509485">
        <ele>662.017</ele>
        <time>2022-12-06T09:14:36Z</time>
      </trkpt>
      <trkpt lat="36.873898" lon="-3.509550">
        <ele>663.258</ele>
        <time>2022-12-06T09:14:43Z</time>
      </trkpt>
      <trkpt lat="36.873857" lon="-3.509616">
        <ele>664.246</ele>
        <time>2022-12-06T09:14:50Z</time>
      </trkpt>
      <trkpt lat="36.873835" lon="-3.509739">
        <ele>665.493</ele>
        <time>2022-12-06T09:15:00Z</time>
      </trkpt>
      <trkpt lat="36.873827" lon="-3.509794">
        <ele>666.451</ele>
        <time>2022-12-06T09:15:05Z</time>
      </trkpt>
      <trkpt lat="36.873818" lon="-3.509853">
        <ele>667.545</ele>
        <time>2022-12-06T09:15:12Z</time>
      </trkpt>
      <trkpt lat="36.873844" lon="-3.509914">
        <ele>668.796</ele>
        <time>2022-12-06T09:15:18Z</time>
      </trkpt>
      <trkpt lat="36.873849" lon="-3.509923">
        <ele>669.013</ele>
        <time>2022-12-06T09:15:19Z</time>
      </trkpt>
      <trkpt lat="36.873853" lon="-3.509940">
        <ele>669.284</ele>
        <time>2022-12-06T09:15:21Z</time>
      </trkpt>
      <trkpt lat="36.873858" lon="-3.509955">
        <ele>669.263</ele>
        <time>2022-12-06T09:15:23Z</time>
      </trkpt>
      <trkpt lat="36.873859" lon="-3.510012">
        <ele>669.544</ele>
        <time>2022-12-06T09:15:27Z</time>
      </trkpt>
      <trkpt lat="36.873852" lon="-3.510024">
        <ele>669.718</ele>
        <time>2022-12-06T09:15:29Z</time>
      </trkpt>
      <trkpt lat="36.873849" lon="-3.510032">
        <ele>669.709</ele>
        <time>2022-12-06T09:15:30Z</time>
      </trkpt>
      <trkpt lat="36.873857" lon="-3.510113">
        <ele>669.797</ele>
        <time>2022-12-06T09:15:37Z</time>
      </trkpt>
      <trkpt lat="36.873833" lon="-3.510184">
        <ele>670.478</ele>
        <time>2022-12-06T09:15:43Z</time>
      </trkpt>
      <trkpt lat="36.873895" lon="-3.510391">
        <ele>670.536</ele>
        <time>2022-12-06T09:15:59Z</time>
      </trkpt>
      <trkpt lat="36.873896" lon="-3.510396">
        <ele>670.573</ele>
        <time>2022-12-06T09:16:01Z</time>
      </trkpt>
      <trkpt lat="36.873940" lon="-3.510434">
        <ele>671.231</ele>
        <time>2022-12-06T09:16:10Z</time>
      </trkpt>
      <trkpt lat="36.873972" lon="-3.510462">
        <ele>672.425</ele>
        <time>2022-12-06T09:16:15Z</time>
      </trkpt>
      <trkpt lat="36.873969" lon="-3.510511">
        <ele>673.596</ele>
        <time>2022-12-06T09:16:21Z</time>
      </trkpt>
      <trkpt lat="36.873975" lon="-3.510612">
        <ele>674.563</ele>
        <time>2022-12-06T09:16:33Z</time>
      </trkpt>
      <trkpt lat="36.873999" lon="-3.510676">
        <ele>675.524</ele>
        <time>2022-12-06T09:16:38Z</time>
      </trkpt>
      <trkpt lat="36.874035" lon="-3.510728">
        <ele>676.253</ele>
        <time>2022-12-06T09:16:42Z</time>
      </trkpt>
      <trkpt lat="36.874065" lon="-3.510747">
        <ele>676.704</ele>
        <time>2022-12-06T09:16:45Z</time>
      </trkpt>
      <trkpt lat="36.874082" lon="-3.510756">
        <ele>677.214</ele>
        <time>2022-12-06T09:16:47Z</time>
      </trkpt>
      <trkpt lat="36.874109" lon="-3.510758">
        <ele>678.009</ele>
        <time>2022-12-06T09:16:51Z</time>
      </trkpt>
      <trkpt lat="36.874141" lon="-3.510749">
        <ele>679.056</ele>
        <time>2022-12-06T09:16:56Z</time>
      </trkpt>
      <trkpt lat="36.874181" lon="-3.510776">
        <ele>680.227</ele>
        <time>2022-12-06T09:17:02Z</time>
      </trkpt>
      <trkpt lat="36.874192" lon="-3.510792">
        <ele>680.495</ele>
        <time>2022-12-06T09:17:04Z</time>
      </trkpt>
      <trkpt lat="36.874213" lon="-3.510907">
        <ele>681.492</ele>
        <time>2022-12-06T09:17:19Z</time>
      </trkpt>
      <trkpt lat="36.874206" lon="-3.510978">
        <ele>682.490</ele>
        <time>2022-12-06T09:17:26Z</time>
      </trkpt>
      <trkpt lat="36.874180" lon="-3.511028">
        <ele>683.524</ele>
        <time>2022-12-06T09:17:32Z</time>
      </trkpt>
      <trkpt lat="36.874156" lon="-3.511081">
        <ele>684.715</ele>
        <time>2022-12-06T09:17:38Z</time>
      </trkpt>
      <trkpt lat="36.874147" lon="-3.511149">
        <ele>685.762</ele>
        <time>2022-12-06T09:17:45Z</time>
      </trkpt>
      <trkpt lat="36.874146" lon="-3.511207">
        <ele>686.783</ele>
        <time>2022-12-06T09:17:51Z</time>
      </trkpt>
      <trkpt lat="36.874157" lon="-3.511215">
        <ele>687.024</ele>
        <time>2022-12-06T09:17:52Z</time>
      </trkpt>
      <trkpt lat="36.874169" lon="-3.511228">
        <ele>687.404</ele>
        <time>2022-12-06T09:17:54Z</time>
      </trkpt>
      <trkpt lat="36.874183" lon="-3.511248">
        <ele>688.214</ele>
        <time>2022-12-06T09:17:57Z</time>
      </trkpt>
      <trkpt lat="36.874217" lon="-3.511300">
        <ele>689.409</ele>
        <time>2022-12-06T09:18:03Z</time>
      </trkpt>
      <trkpt lat="36.874225" lon="-3.511322">
        <ele>690.433</ele>
        <time>2022-12-06T09:18:07Z</time>
      </trkpt>
      <trkpt lat="36.874224" lon="-3.511389">
        <ele>691.544</ele>
        <time>2022-12-06T09:18:14Z</time>
      </trkpt>
      <trkpt lat="36.874223" lon="-3.511414">
        <ele>692.522</ele>
        <time>2022-12-06T09:18:17Z</time>
      </trkpt>
      <trkpt lat="36.874233" lon="-3.511445">
        <ele>693.799</ele>
        <time>2022-12-06T09:18:23Z</time>
      </trkpt>
      <trkpt lat="36.874243" lon="-3.511474">
        <ele>695.057</ele>
        <time>2022-12-06T09:18:28Z</time>
      </trkpt>
      <trkpt lat="36.874068" lon="-3.511507">
        <ele>695.711</ele>
        <time>2022-12-06T09:18:52Z</time>
      </trkpt>
      <trkpt lat="36.874067" lon="-3.511521">
        <ele>696.072</ele>
        <time>2022-12-06T09:18:53Z</time>
      </trkpt>
      <trkpt lat="36.874043" lon="-3.511626">
        <ele>697.069</ele>
        <time>2022-12-06T09:19:02Z</time>
      </trkpt>
      <trkpt lat="36.874024" lon="-3.511661">
        <ele>697.530</ele>
        <time>2022-12-06T09:19:06Z</time>
      </trkpt>
      <trkpt lat="36.874012" lon="-3.511680">
        <ele>698.075</ele>
        <time>2022-12-06T09:19:08Z</time>
      </trkpt>
      <trkpt lat="36.874014" lon="-3.511713">
        <ele>698.528</ele>
        <time>2022-12-06T09:19:10Z</time>
      </trkpt>
      <trkpt lat="36.874017" lon="-3.511760">
        <ele>699.220</ele>
        <time>2022-12-06T09:19:14Z</time>
      </trkpt>
      <trkpt lat="36.874016" lon="-3.511813">
        <ele>700.409</ele>
        <time>2022-12-06T09:19:19Z</time>
      </trkpt>
      <trkpt lat="36.874014" lon="-3.511820">
        <ele>700.528</ele>
        <time>2022-12-06T09:19:20Z</time>
      </trkpt>
      <trkpt lat="36.873984" lon="-3.511844">
        <ele>701.049</ele>
        <time>2022-12-06T09:19:24Z</time>
      </trkpt>
      <trkpt lat="36.873928" lon="-3.511911">
        <ele>701.547</ele>
        <time>2022-12-06T09:19:33Z</time>
      </trkpt>
      <trkpt lat="36.873920" lon="-3.511951">
        <ele>702.044</ele>
        <time>2022-12-06T09:19:36Z</time>
      </trkpt>
      <trkpt lat="36.873928" lon="-3.511986">
        <ele>702.292</ele>
        <time>2022-12-06T09:19:39Z</time>
      </trkpt>
      <trkpt lat="36.873945" lon="-3.512027">
        <ele>702.786</ele>
        <time>2022-12-06T09:19:43Z</time>
      </trkpt>
      <trkpt lat="36.873962" lon="-3.512052">
        <ele>703.737</ele>
        <time>2022-12-06T09:19:47Z</time>
      </trkpt>
      <trkpt lat="36.873998" lon="-3.512081">
        <ele>705.024</ele>
        <time>2022-12-06T09:19:53Z</time>
      </trkpt>
      <trkpt lat="36.874011" lon="-3.512113">
        <ele>706.235</ele>
        <time>2022-12-06T09:19:58Z</time>
      </trkpt>
      <trkpt lat="36.874030" lon="-3.512145">
        <ele>707.475</ele>
        <time>2022-12-06T09:20:03Z</time>
      </trkpt>
      <trkpt lat="36.874038" lon="-3.512173">
        <ele>708.528</ele>
        <time>2022-12-06T09:20:07Z</time>
      </trkpt>
      <trkpt lat="36.874028" lon="-3.512231">
        <ele>709.520</ele>
        <time>2022-12-06T09:20:16Z</time>
      </trkpt>
      <trkpt lat="36.874038" lon="-3.512259">
        <ele>710.709</ele>
        <time>2022-12-06T09:20:20Z</time>
      </trkpt>
      <trkpt lat="36.874047" lon="-3.512286">
        <ele>712.038</ele>
        <time>2022-12-06T09:20:23Z</time>
      </trkpt>
      <trkpt lat="36.874044" lon="-3.512369">
        <ele>713.019</ele>
        <time>2022-12-06T09:20:32Z</time>
      </trkpt>
      <trkpt lat="36.874006" lon="-3.512576">
        <ele>712.047</ele>
        <time>2022-12-06T09:20:46Z</time>
      </trkpt>
      <trkpt lat="36.873986" lon="-3.512744">
        <ele>711.024</ele>
        <time>2022-12-06T09:20:58Z</time>
      </trkpt>
      <trkpt lat="36.873970" lon="-3.512821">
        <ele>711.282</ele>
        <time>2022-12-06T09:21:04Z</time>
      </trkpt>
      <trkpt lat="36.873978" lon="-3.512936">
        <ele>712.066</ele>
        <time>2022-12-06T09:21:11Z</time>
      </trkpt>
      <trkpt lat="36.873989" lon="-3.512948">
        <ele>712.057</ele>
        <time>2022-12-06T09:21:12Z</time>
      </trkpt>
      <trkpt lat="36.874042" lon="-3.512981">
        <ele>712.514</ele>
        <time>2022-12-06T09:21:16Z</time>
      </trkpt>
      <trkpt lat="36.874089" lon="-3.513040">
        <ele>712.585</ele>
        <time>2022-12-06T09:21:21Z</time>
      </trkpt>
      <trkpt lat="36.874090" lon="-3.513066">
        <ele>713.239</ele>
        <time>2022-12-06T09:21:23Z</time>
      </trkpt>
      <trkpt lat="36.874075" lon="-3.513078">
        <ele>714.001</ele>
        <time>2022-12-06T09:21:26Z</time>
      </trkpt>
      <trkpt lat="36.874067" lon="-3.513081">
        <ele>714.221</ele>
        <time>2022-12-06T09:21:27Z</time>
      </trkpt>
      <trkpt lat="36.874022" lon="-3.513102">
        <ele>715.209</ele>
        <time>2022-12-06T09:21:33Z</time>
      </trkpt>
      <trkpt lat="36.873968" lon="-3.513121">
        <ele>716.254</ele>
        <time>2022-12-06T09:21:41Z</time>
      </trkpt>
      <trkpt lat="36.873905" lon="-3.513105">
        <ele>717.075</ele>
        <time>2022-12-06T09:21:47Z</time>
      </trkpt>
      <trkpt lat="36.873847" lon="-3.513087">
        <ele>717.263</ele>
        <time>2022-12-06T09:21:52Z</time>
      </trkpt>
      <trkpt lat="36.873782" lon="-3.513110">
        <ele>717.790</ele>
        <time>2022-12-06T09:22:00Z</time>
      </trkpt>
      <trkpt lat="36.873761" lon="-3.513120">
        <ele>718.428</ele>
        <time>2022-12-06T09:22:03Z</time>
      </trkpt>
      <trkpt lat="36.873722" lon="-3.513132">
        <ele>719.222</ele>
        <time>2022-12-06T09:22:07Z</time>
      </trkpt>
      <trkpt lat="36.873713" lon="-3.513129">
        <ele>719.423</ele>
        <time>2022-12-06T09:22:08Z</time>
      </trkpt>
      <trkpt lat="36.873684" lon="-3.513116">
        <ele>719.580</ele>
        <time>2022-12-06T09:22:11Z</time>
      </trkpt>
      <trkpt lat="36.873554" lon="-3.513115">
        <ele>719.441</ele>
        <time>2022-12-06T09:22:22Z</time>
      </trkpt>
      <trkpt lat="36.873550" lon="-3.513149">
        <ele>719.595</ele>
        <time>2022-12-06T09:22:25Z</time>
      </trkpt>
      <trkpt lat="36.873553" lon="-3.513175">
        <ele>719.749</ele>
        <time>2022-12-06T09:22:28Z</time>
      </trkpt>
      <trkpt lat="36.873543" lon="-3.513196">
        <ele>720.523</ele>
        <time>2022-12-06T09:22:31Z</time>
      </trkpt>
      <trkpt lat="36.873525" lon="-3.513233">
        <ele>721.709</ele>
        <time>2022-12-06T09:22:35Z</time>
      </trkpt>
      <trkpt lat="36.873511" lon="-3.513280">
        <ele>722.780</ele>
        <time>2022-12-06T09:22:40Z</time>
      </trkpt>
      <trkpt lat="36.873512" lon="-3.513322">
        <ele>724.241</ele>
        <time>2022-12-06T09:22:44Z</time>
      </trkpt>
      <trkpt lat="36.873499" lon="-3.513370">
        <ele>725.219</ele>
        <time>2022-12-06T09:22:49Z</time>
      </trkpt>
      <trkpt lat="36.873407" lon="-3.513519">
        <ele>725.486</ele>
        <time>2022-12-06T09:23:04Z</time>
      </trkpt>
      <trkpt lat="36.873424" lon="-3.513581">
        <ele>726.294</ele>
        <time>2022-12-06T09:23:08Z</time>
      </trkpt>
      <trkpt lat="36.873425" lon="-3.513595">
        <ele>726.448</ele>
        <time>2022-12-06T09:23:09Z</time>
      </trkpt>
      <trkpt lat="36.873430" lon="-3.513620">
        <ele>726.789</ele>
        <time>2022-12-06T09:23:11Z</time>
      </trkpt>
      <trkpt lat="36.873450" lon="-3.513668">
        <ele>727.596</ele>
        <time>2022-12-06T09:23:15Z</time>
      </trkpt>
      <trkpt lat="36.873450" lon="-3.513675">
        <ele>727.777</ele>
        <time>2022-12-06T09:23:16Z</time>
      </trkpt>
      <trkpt lat="36.873452" lon="-3.513695">
        <ele>728.053</ele>
        <time>2022-12-06T09:23:18Z</time>
      </trkpt>
      <trkpt lat="36.873452" lon="-3.513713">
        <ele>728.504</ele>
        <time>2022-12-06T09:23:20Z</time>
      </trkpt>
      <trkpt lat="36.873451" lon="-3.513738">
        <ele>729.514</ele>
        <time>2022-12-06T09:23:23Z</time>
      </trkpt>
      <trkpt lat="36.873436" lon="-3.513755">
        <ele>730.209</ele>
        <time>2022-12-06T09:23:25Z</time>
      </trkpt>
      <trkpt lat="36.873432" lon="-3.513766">
        <ele>730.726</ele>
        <time>2022-12-06T09:23:27Z</time>
      </trkpt>
      <trkpt lat="36.873432" lon="-3.513772">
        <ele>731.037</ele>
        <time>2022-12-06T09:23:28Z</time>
      </trkpt>
      <trkpt lat="36.873423" lon="-3.513783">
        <ele>732.065</ele>
        <time>2022-12-06T09:23:32Z</time>
      </trkpt>
      <trkpt lat="36.873440" lon="-3.513830">
        <ele>733.252</ele>
        <time>2022-12-06T09:23:39Z</time>
      </trkpt>
      <trkpt lat="36.873415" lon="-3.513899">
        <ele>734.230</ele>
        <time>2022-12-06T09:23:45Z</time>
      </trkpt>
      <trkpt lat="36.873389" lon="-3.513940">
        <ele>734.424</ele>
        <time>2022-12-06T09:23:48Z</time>
      </trkpt>
      <trkpt lat="36.873372" lon="-3.513963">
        <ele>735.015</ele>
        <time>2022-12-06T09:23:54Z</time>
      </trkpt>
      <trkpt lat="36.873374" lon="-3.513963">
        <ele>735.252</ele>
        <time>2022-12-06T09:23:55Z</time>
      </trkpt>
      <trkpt lat="36.873374" lon="-3.513967">
        <ele>735.423</ele>
        <time>2022-12-06T09:23:56Z</time>
      </trkpt>
      <trkpt lat="36.873378" lon="-3.513992">
        <ele>736.288</ele>
        <time>2022-12-06T09:24:00Z</time>
      </trkpt>
      <trkpt lat="36.873391" lon="-3.514014">
        <ele>737.424</ele>
        <time>2022-12-06T09:24:05Z</time>
      </trkpt>
      <trkpt lat="36.873393" lon="-3.514037">
        <ele>738.426</ele>
        <time>2022-12-06T09:24:09Z</time>
      </trkpt>
      <trkpt lat="36.873400" lon="-3.514073">
        <ele>739.409</ele>
        <time>2022-12-06T09:24:14Z</time>
      </trkpt>
      <trkpt lat="36.873421" lon="-3.514083">
        <ele>740.569</ele>
        <time>2022-12-06T09:24:20Z</time>
      </trkpt>
      <trkpt lat="36.873470" lon="-3.514079">
        <ele>741.740</ele>
        <time>2022-12-06T09:24:26Z</time>
      </trkpt>
      <trkpt lat="36.873489" lon="-3.514065">
        <ele>742.798</ele>
        <time>2022-12-06T09:24:31Z</time>
      </trkpt>
      <trkpt lat="36.873535" lon="-3.514052">
        <ele>743.765</ele>
        <time>2022-12-06T09:24:39Z</time>
      </trkpt>
      <trkpt lat="36.873549" lon="-3.514066">
        <ele>745.263</ele>
        <time>2022-12-06T09:24:44Z</time>
      </trkpt>
      <trkpt lat="36.873547" lon="-3.514086">
        <ele>746.477</ele>
        <time>2022-12-06T09:24:48Z</time>
      </trkpt>
      <trkpt lat="36.873525" lon="-3.514093">
        <ele>747.588</ele>
        <time>2022-12-06T09:24:53Z</time>
      </trkpt>
      <trkpt lat="36.873493" lon="-3.514116">
        <ele>748.555</ele>
        <time>2022-12-06T09:24:59Z</time>
      </trkpt>
      <trkpt lat="36.873478" lon="-3.514152">
        <ele>749.526</ele>
        <time>2022-12-06T09:25:05Z</time>
      </trkpt>
      <trkpt lat="36.873486" lon="-3.514193">
        <ele>750.551</ele>
        <time>2022-12-06T09:25:19Z</time>
      </trkpt>
      <trkpt lat="36.873533" lon="-3.514192">
        <ele>751.501</ele>
        <time>2022-12-06T09:25:27Z</time>
      </trkpt>
      <trkpt lat="36.873594" lon="-3.514196">
        <ele>752.511</ele>
        <time>2022-12-06T09:25:34Z</time>
      </trkpt>
      <trkpt lat="36.873600" lon="-3.514221">
        <ele>753.509</ele>
        <time>2022-12-06T09:25:38Z</time>
      </trkpt>
      <trkpt lat="36.873600" lon="-3.514241">
        <ele>754.556</ele>
        <time>2022-12-06T09:25:42Z</time>
      </trkpt>
      <trkpt lat="36.873594" lon="-3.514253">
        <ele>755.527</ele>
        <time>2022-12-06T09:25:46Z</time>
      </trkpt>
      <trkpt lat="36.873581" lon="-3.514284">
        <ele>756.795</ele>
        <time>2022-12-06T09:25:51Z</time>
      </trkpt>
      <trkpt lat="36.873581" lon="-3.514311">
        <ele>758.082</ele>
        <time>2022-12-06T09:25:54Z</time>
      </trkpt>
      <trkpt lat="36.873566" lon="-3.514407">
        <ele>759.080</ele>
        <time>2022-12-06T09:26:05Z</time>
      </trkpt>
      <trkpt lat="36.873562" lon="-3.514414">
        <ele>759.024</ele>
        <time>2022-12-06T09:26:06Z</time>
      </trkpt>
      <trkpt lat="36.873544" lon="-3.514450">
        <ele>759.095</ele>
        <time>2022-12-06T09:26:10Z</time>
      </trkpt>
      <trkpt lat="36.873512" lon="-3.514464">
        <ele>759.012</ele>
        <time>2022-12-06T09:26:14Z</time>
      </trkpt>
      <trkpt lat="36.873331" lon="-3.514533">
        <ele>759.413</ele>
        <time>2022-12-06T09:26:31Z</time>
      </trkpt>
      <trkpt lat="36.873264" lon="-3.514587">
        <ele>760.069</ele>
        <time>2022-12-06T09:26:38Z</time>
      </trkpt>
      <trkpt lat="36.873185" lon="-3.514657">
        <ele>761.004</ele>
        <time>2022-12-06T09:26:46Z</time>
      </trkpt>
      <trkpt lat="36.873121" lon="-3.514729">
        <ele>762.024</ele>
        <time>2022-12-06T09:26:53Z</time>
      </trkpt>
      <trkpt lat="36.873100" lon="-3.514810">
        <ele>763.209</ele>
        <time>2022-12-06T09:27:00Z</time>
      </trkpt>
      <trkpt lat="36.873106" lon="-3.514821">
        <ele>763.597</ele>
        <time>2022-12-06T09:27:01Z</time>
      </trkpt>
      <trkpt lat="36.873129" lon="-3.514854">
        <ele>764.418</ele>
        <time>2022-12-06T09:27:04Z</time>
      </trkpt>
      <trkpt lat="36.873203" lon="-3.514920">
        <ele>765.586</ele>
        <time>2022-12-06T09:27:11Z</time>
      </trkpt>
      <trkpt lat="36.873251" lon="-3.514951">
        <ele>766.583</ele>
        <time>2022-12-06T09:27:16Z</time>
      </trkpt>
      <trkpt lat="36.873271" lon="-3.514960">
        <ele>767.051</ele>
        <time>2022-12-06T09:27:18Z</time>
      </trkpt>
      <trkpt lat="36.873308" lon="-3.515004">
        <ele>767.525</ele>
        <time>2022-12-06T09:27:22Z</time>
      </trkpt>
      <trkpt lat="36.873344" lon="-3.515044">
        <ele>768.566</ele>
        <time>2022-12-06T09:27:27Z</time>
      </trkpt>
      <trkpt lat="36.873381" lon="-3.515076">
        <ele>769.733</ele>
        <time>2022-12-06T09:27:32Z</time>
      </trkpt>
      <trkpt lat="36.873462" lon="-3.515178">
        <ele>770.714</ele>
        <time>2022-12-06T09:27:42Z</time>
      </trkpt>
      <trkpt lat="36.873508" lon="-3.515241">
        <ele>771.289</ele>
        <time>2022-12-06T09:27:48Z</time>
      </trkpt>
      <trkpt lat="36.873545" lon="-3.515276">
        <ele>772.006</ele>
        <time>2022-12-06T09:27:52Z</time>
      </trkpt>
      <trkpt lat="36.873590" lon="-3.515303">
        <ele>773.226</ele>
        <time>2022-12-06T09:27:57Z</time>
      </trkpt>
      <trkpt lat="36.873624" lon="-3.515329">
        <ele>774.209</ele>
        <time>2022-12-06T09:28:01Z</time>
      </trkpt>
      <trkpt lat="36.873682" lon="-3.515366">
        <ele>775.489</ele>
        <time>2022-12-06T09:28:07Z</time>
      </trkpt>
      <trkpt lat="36.873735" lon="-3.515421">
        <ele>776.740</ele>
        <time>2022-12-06T09:28:13Z</time>
      </trkpt>
      <trkpt lat="36.873774" lon="-3.515459">
        <ele>777.748</ele>
        <time>2022-12-06T09:28:18Z</time>
      </trkpt>
      <trkpt lat="36.873885" lon="-3.515587">
        <ele>779.065</ele>
        <time>2022-12-06T09:28:32Z</time>
      </trkpt>
      <trkpt lat="36.873900" lon="-3.515635">
        <ele>780.263</ele>
        <time>2022-12-06T09:28:36Z</time>
      </trkpt>
      <trkpt lat="36.873897" lon="-3.515760">
        <ele>780.247</ele>
        <time>2022-12-06T09:28:46Z</time>
      </trkpt>
      <trkpt lat="36.873830" lon="-3.515806">
        <ele>781.248</ele>
        <time>2022-12-06T09:28:56Z</time>
      </trkpt>
      <trkpt lat="36.873792" lon="-3.515833">
        <ele>782.215</ele>
        <time>2022-12-06T09:29:01Z</time>
      </trkpt>
      <trkpt lat="36.873697" lon="-3.516038">
        <ele>783.036</ele>
        <time>2022-12-06T09:29:16Z</time>
      </trkpt>
      <trkpt lat="36.873732" lon="-3.516255">
        <ele>782.712</ele>
        <time>2022-12-06T09:29:29Z</time>
      </trkpt>
      <trkpt lat="36.873754" lon="-3.516301">
        <ele>783.432</ele>
        <time>2022-12-06T09:29:33Z</time>
      </trkpt>
      <trkpt lat="36.873782" lon="-3.516337">
        <ele>784.405</ele>
        <time>2022-12-06T09:29:38Z</time>
      </trkpt>
      <trkpt lat="36.873847" lon="-3.516414">
        <ele>785.509</ele>
        <time>2022-12-06T09:29:47Z</time>
      </trkpt>
      <trkpt lat="36.873869" lon="-3.516449">
        <ele>786.522</ele>
        <time>2022-12-06T09:29:51Z</time>
      </trkpt>
      <trkpt lat="36.873895" lon="-3.516488">
        <ele>787.573</ele>
        <time>2022-12-06T09:29:55Z</time>
      </trkpt>
      <trkpt lat="36.873926" lon="-3.516541">
        <ele>789.071</ele>
        <time>2022-12-06T09:30:00Z</time>
      </trkpt>
      <trkpt lat="36.873962" lon="-3.516708">
        <ele>790.098</ele>
        <time>2022-12-06T09:30:14Z</time>
      </trkpt>
      <trkpt lat="36.874054" lon="-3.516886">
        <ele>790.226</ele>
        <time>2022-12-06T09:30:30Z</time>
      </trkpt>
      <trkpt lat="36.874069" lon="-3.516915">
        <ele>791.020</ele>
        <time>2022-12-06T09:30:36Z</time>
      </trkpt>
      <trkpt lat="36.874061" lon="-3.516926">
        <ele>791.231</ele>
        <time>2022-12-06T09:30:44Z</time>
      </trkpt>
      <trkpt lat="36.874160" lon="-3.516949">
        <ele>790.578</ele>
        <time>2022-12-06T09:31:54Z</time>
      </trkpt>
      <trkpt lat="36.874293" lon="-3.517005">
        <ele>790.299</ele>
        <time>2022-12-06T09:32:06Z</time>
      </trkpt>
      <trkpt lat="36.874358" lon="-3.516991">
        <ele>790.452</ele>
        <time>2022-12-06T09:33:07Z</time>
      </trkpt>
      <trkpt lat="36.874380" lon="-3.516977">
        <ele>790.053</ele>
        <time>2022-12-06T09:33:10Z</time>
      </trkpt>
      <trkpt lat="36.874420" lon="-3.516959">
        <ele>790.008</ele>
        <time>2022-12-06T09:33:14Z</time>
      </trkpt>
      <trkpt lat="36.874601" lon="-3.517014">
        <ele>790.709</ele>
        <time>2022-12-06T09:33:31Z</time>
      </trkpt>
      <trkpt lat="36.874623" lon="-3.517007">
        <ele>791.096</ele>
        <time>2022-12-06T09:33:33Z</time>
      </trkpt>
      <trkpt lat="36.874782" lon="-3.516903">
        <ele>791.297</ele>
        <time>2022-12-06T09:33:51Z</time>
      </trkpt>
      <trkpt lat="36.874786" lon="-3.516908">
        <ele>791.435</ele>
        <time>2022-12-06T09:33:54Z</time>
      </trkpt>
      <trkpt lat="36.874789" lon="-3.516909">
        <ele>791.482</ele>
        <time>2022-12-06T09:33:56Z</time>
      </trkpt>
      <trkpt lat="36.874807" lon="-3.516886">
        <ele>791.010</ele>
        <time>2022-12-06T09:34:01Z</time>
      </trkpt>
      <trkpt lat="36.874815" lon="-3.516867">
        <ele>790.734</ele>
        <time>2022-12-06T09:34:03Z</time>
      </trkpt>
      <trkpt lat="36.874845" lon="-3.516826">
        <ele>790.065</ele>
        <time>2022-12-06T09:34:09Z</time>
      </trkpt>
      <trkpt lat="36.874891" lon="-3.516734">
        <ele>789.042</ele>
        <time>2022-12-06T09:34:47Z</time>
      </trkpt>
      <trkpt lat="36.874930" lon="-3.516677">
        <ele>788.043</ele>
        <time>2022-12-06T09:35:11Z</time>
      </trkpt>
      <trkpt lat="36.874939" lon="-3.516665">
        <ele>787.715</ele>
        <time>2022-12-06T09:35:12Z</time>
      </trkpt>
      <trkpt lat="36.874945" lon="-3.516654">
        <ele>787.565</ele>
        <time>2022-12-06T09:35:13Z</time>
      </trkpt>
      <trkpt lat="36.874954" lon="-3.516664">
        <ele>786.711</ele>
        <time>2022-12-06T09:35:35Z</time>
      </trkpt>
      <trkpt lat="36.874957" lon="-3.516581">
        <ele>786.409</ele>
        <time>2022-12-06T09:36:14Z</time>
      </trkpt>
      <trkpt lat="36.874988" lon="-3.516549">
        <ele>785.512</ele>
        <time>2022-12-06T09:36:17Z</time>
      </trkpt>
      <trkpt lat="36.875046" lon="-3.516474">
        <ele>784.543</ele>
        <time>2022-12-06T09:36:23Z</time>
      </trkpt>
      <trkpt lat="36.875077" lon="-3.516377">
        <ele>783.581</ele>
        <time>2022-12-06T09:36:30Z</time>
      </trkpt>
      <trkpt lat="36.875085" lon="-3.516364">
        <ele>783.458</ele>
        <time>2022-12-06T09:36:31Z</time>
      </trkpt>
      <trkpt lat="36.875170" lon="-3.516300">
        <ele>782.436</ele>
        <time>2022-12-06T09:36:38Z</time>
      </trkpt>
      <trkpt lat="36.875254" lon="-3.516285">
        <ele>781.220</ele>
        <time>2022-12-06T09:36:44Z</time>
      </trkpt>
      <trkpt lat="36.875393" lon="-3.516318">
        <ele>780.211</ele>
        <time>2022-12-06T09:36:54Z</time>
      </trkpt>
      <trkpt lat="36.875447" lon="-3.516342">
        <ele>778.748</ele>
        <time>2022-12-06T09:36:58Z</time>
      </trkpt>
      <trkpt lat="36.875601" lon="-3.516402">
        <ele>777.759</ele>
        <time>2022-12-06T09:37:09Z</time>
      </trkpt>
      <trkpt lat="36.875645" lon="-3.516408">
        <ele>776.553</ele>
        <time>2022-12-06T09:37:12Z</time>
      </trkpt>
      <trkpt lat="36.875677" lon="-3.516407">
        <ele>775.404</ele>
        <time>2022-12-06T09:37:14Z</time>
      </trkpt>
      <trkpt lat="36.875811" lon="-3.516415">
        <ele>774.214</ele>
        <time>2022-12-06T09:37:23Z</time>
      </trkpt>
      <trkpt lat="36.875996" lon="-3.516481">
        <ele>774.209</ele>
        <time>2022-12-06T09:37:36Z</time>
      </trkpt>
      <trkpt lat="36.876167" lon="-3.516553">
        <ele>773.256</ele>
        <time>2022-12-06T09:37:49Z</time>
      </trkpt>
      <trkpt lat="36.876210" lon="-3.516570">
        <ele>772.047</ele>
        <time>2022-12-06T09:37:52Z</time>
      </trkpt>
      <trkpt lat="36.876249" lon="-3.516582">
        <ele>770.765</ele>
        <time>2022-12-06T09:37:55Z</time>
      </trkpt>
      <trkpt lat="36.876374" lon="-3.516623">
        <ele>769.722</ele>
        <time>2022-12-06T09:38:05Z</time>
      </trkpt>
      <trkpt lat="36.876422" lon="-3.516648">
        <ele>768.760</ele>
        <time>2022-12-06T09:38:09Z</time>
      </trkpt>
      <trkpt lat="36.876523" lon="-3.516707">
        <ele>768.584</ele>
        <time>2022-12-06T09:38:17Z</time>
      </trkpt>
      <trkpt lat="36.876696" lon="-3.516783">
        <ele>769.565</ele>
        <time>2022-12-06T09:38:33Z</time>
      </trkpt>
      <trkpt lat="36.876706" lon="-3.516791">
        <ele>769.742</ele>
        <time>2022-12-06T09:38:34Z</time>
      </trkpt>
      <trkpt lat="36.876775" lon="-3.516838">
        <ele>771.013</ele>
        <time>2022-12-06T09:38:40Z</time>
      </trkpt>
      <trkpt lat="36.876865" lon="-3.516917">
        <ele>772.037</ele>
        <time>2022-12-06T09:38:49Z</time>
      </trkpt>
      <trkpt lat="36.876949" lon="-3.516983">
        <ele>773.049</ele>
        <time>2022-12-06T09:38:58Z</time>
      </trkpt>
      <trkpt lat="36.877042" lon="-3.517023">
        <ele>774.213</ele>
        <time>2022-12-06T09:39:07Z</time>
      </trkpt>
      <trkpt lat="36.877230" lon="-3.517059">
        <ele>773.509</ele>
        <time>2022-12-06T09:39:22Z</time>
      </trkpt>
      <trkpt lat="36.877401" lon="-3.517156">
        <ele>773.294</ele>
        <time>2022-12-06T09:39:35Z</time>
      </trkpt>
      <trkpt lat="36.877422" lon="-3.517176">
        <ele>773.025</ele>
        <time>2022-12-06T09:39:37Z</time>
      </trkpt>
      <trkpt lat="36.877476" lon="-3.517229">
        <ele>771.733</ele>
        <time>2022-12-06T09:39:42Z</time>
      </trkpt>
      <trkpt lat="36.877533" lon="-3.517295">
        <ele>770.730</ele>
        <time>2022-12-06T09:39:48Z</time>
      </trkpt>
      <trkpt lat="36.877590" lon="-3.517365">
        <ele>769.738</ele>
        <time>2022-12-06T09:39:54Z</time>
      </trkpt>
      <trkpt lat="36.877665" lon="-3.517436">
        <ele>768.732</ele>
        <time>2022-12-06T09:40:01Z</time>
      </trkpt>
      <trkpt lat="36.877705" lon="-3.517480">
        <ele>767.783</ele>
        <time>2022-12-06T09:40:05Z</time>
      </trkpt>
      <trkpt lat="36.877763" lon="-3.517534">
        <ele>766.540</ele>
        <time>2022-12-06T09:40:10Z</time>
      </trkpt>
      <trkpt lat="36.877822" lon="-3.517604">
        <ele>765.411</ele>
        <time>2022-12-06T09:40:16Z</time>
      </trkpt>
      <trkpt lat="36.877865" lon="-3.517655">
        <ele>764.478</ele>
        <time>2022-12-06T09:40:20Z</time>
      </trkpt>
      <trkpt lat="36.877925" lon="-3.517705">
        <ele>763.433</ele>
        <time>2022-12-06T09:40:25Z</time>
      </trkpt>
      <trkpt lat="36.878014" lon="-3.517778">
        <ele>762.426</ele>
        <time>2022-12-06T09:40:32Z</time>
      </trkpt>
      <trkpt lat="36.878093" lon="-3.517822">
        <ele>761.009</ele>
        <time>2022-12-06T09:40:38Z</time>
      </trkpt>
      <trkpt lat="36.878132" lon="-3.517843">
        <ele>760.048</ele>
        <time>2022-12-06T09:40:41Z</time>
      </trkpt>
      <trkpt lat="36.878184" lon="-3.517873">
        <ele>758.749</ele>
        <time>2022-12-06T09:40:45Z</time>
      </trkpt>
      <trkpt lat="36.878253" lon="-3.517886">
        <ele>757.597</ele>
        <time>2022-12-06T09:40:50Z</time>
      </trkpt>
      <trkpt lat="36.878348" lon="-3.517920">
        <ele>756.544</ele>
        <time>2022-12-06T09:40:57Z</time>
      </trkpt>
      <trkpt lat="36.878447" lon="-3.517955">
        <ele>755.422</ele>
        <time>2022-12-06T09:41:04Z</time>
      </trkpt>
      <trkpt lat="36.878538" lon="-3.517974">
        <ele>754.466</ele>
        <time>2022-12-06T09:41:10Z</time>
      </trkpt>
      <trkpt lat="36.878642" lon="-3.518012">
        <ele>753.217</ele>
        <time>2022-12-06T09:41:17Z</time>
      </trkpt>
      <trkpt lat="36.878724" lon="-3.518035">
        <ele>752.284</ele>
        <time>2022-12-06T09:41:23Z</time>
      </trkpt>
      <trkpt lat="36.878838" lon="-3.518073">
        <ele>751.085</ele>
        <time>2022-12-06T09:41:32Z</time>
      </trkpt>
      <trkpt lat="36.879026" lon="-3.518109">
        <ele>750.067</ele>
        <time>2022-12-06T09:41:46Z</time>
      </trkpt>
      <trkpt lat="36.879085" lon="-3.518105">
        <ele>749.081</ele>
        <time>2022-12-06T09:41:50Z</time>
      </trkpt>
      <trkpt lat="36.879159" lon="-3.518081">
        <ele>747.719</ele>
        <time>2022-12-06T09:41:55Z</time>
      </trkpt>
      <trkpt lat="36.879243" lon="-3.518040">
        <ele>746.709</ele>
        <time>2022-12-06T09:42:01Z</time>
      </trkpt>
      <trkpt lat="36.879336" lon="-3.517945">
        <ele>745.717</ele>
        <time>2022-12-06T09:42:09Z</time>
      </trkpt>
      <trkpt lat="36.879397" lon="-3.517823">
        <ele>744.778</ele>
        <time>2022-12-06T09:42:17Z</time>
      </trkpt>
      <trkpt lat="36.879518" lon="-3.517637">
        <ele>744.586</ele>
        <time>2022-12-06T09:42:30Z</time>
      </trkpt>
      <trkpt lat="36.879575" lon="-3.517559">
        <ele>743.713</ele>
        <time>2022-12-06T09:42:36Z</time>
      </trkpt>
      <trkpt lat="36.879612" lon="-3.517469">
        <ele>742.421</ele>
        <time>2022-12-06T09:42:41Z</time>
      </trkpt>
      <trkpt lat="36.879659" lon="-3.517324">
        <ele>741.425</ele>
        <time>2022-12-06T09:42:49Z</time>
      </trkpt>
      <trkpt lat="36.879683" lon="-3.517259">
        <ele>740.246</ele>
        <time>2022-12-06T09:42:53Z</time>
      </trkpt>
      <trkpt lat="36.879711" lon="-3.517186">
        <ele>739.213</ele>
        <time>2022-12-06T09:42:57Z</time>
      </trkpt>
      <trkpt lat="36.879742" lon="-3.517092">
        <ele>738.034</ele>
        <time>2022-12-06T09:43:02Z</time>
      </trkpt>
      <trkpt lat="36.879767" lon="-3.516985">
        <ele>737.027</ele>
        <time>2022-12-06T09:43:09Z</time>
      </trkpt>
      <trkpt lat="36.879779" lon="-3.516879">
        <ele>736.068</ele>
        <time>2022-12-06T09:43:16Z</time>
      </trkpt>
      <trkpt lat="36.879817" lon="-3.516774">
        <ele>734.714</ele>
        <time>2022-12-06T09:43:23Z</time>
      </trkpt>
      <trkpt lat="36.879822" lon="-3.516741">
        <ele>734.209</ele>
        <time>2022-12-06T09:43:26Z</time>
      </trkpt>
      <trkpt lat="36.879828" lon="-3.516715">
        <ele>733.783</ele>
        <time>2022-12-06T09:43:28Z</time>
      </trkpt>
      <trkpt lat="36.879836" lon="-3.516701">
        <ele>733.724</ele>
        <time>2022-12-06T09:43:29Z</time>
      </trkpt>
      <trkpt lat="36.879893" lon="-3.516629">
        <ele>732.512</ele>
        <time>2022-12-06T09:43:34Z</time>
      </trkpt>
      <trkpt lat="36.879956" lon="-3.516568">
        <ele>731.459</ele>
        <time>2022-12-06T09:43:39Z</time>
      </trkpt>
      <trkpt lat="36.880051" lon="-3.516440">
        <ele>730.437</ele>
        <time>2022-12-06T09:43:48Z</time>
      </trkpt>
      <trkpt lat="36.880132" lon="-3.516300">
        <ele>729.411</ele>
        <time>2022-12-06T09:43:57Z</time>
      </trkpt>
      <trkpt lat="36.880157" lon="-3.516283">
        <ele>729.472</ele>
        <time>2022-12-06T09:43:59Z</time>
      </trkpt>
      <trkpt lat="36.880258" lon="-3.516225">
        <ele>728.219</ele>
        <time>2022-12-06T09:44:08Z</time>
      </trkpt>
      <trkpt lat="36.880352" lon="-3.516213">
        <ele>726.720</ele>
        <time>2022-12-06T09:44:15Z</time>
      </trkpt>
      <trkpt lat="36.880456" lon="-3.516219">
        <ele>725.784</ele>
        <time>2022-12-06T09:44:22Z</time>
      </trkpt>
      <trkpt lat="36.880633" lon="-3.516267">
        <ele>725.707</ele>
        <time>2022-12-06T09:44:35Z</time>
      </trkpt>
      <trkpt lat="36.880814" lon="-3.516278">
        <ele>726.017</ele>
        <time>2022-12-06T09:44:48Z</time>
      </trkpt>
      <trkpt lat="36.880893" lon="-3.516265">
        <ele>727.009</ele>
        <time>2022-12-06T09:44:54Z</time>
      </trkpt>
      <trkpt lat="36.880946" lon="-3.516254">
        <ele>728.019</ele>
        <time>2022-12-06T09:44:58Z</time>
      </trkpt>
      <trkpt lat="36.881110" lon="-3.516148">
        <ele>727.530</ele>
        <time>2022-12-06T09:45:12Z</time>
      </trkpt>
      <trkpt lat="36.881166" lon="-3.516133">
        <ele>726.728</ele>
        <time>2022-12-06T09:45:16Z</time>
      </trkpt>
      <trkpt lat="36.881350" lon="-3.516110">
        <ele>725.595</ele>
        <time>2022-12-06T09:45:25Z</time>
      </trkpt>
      <trkpt lat="36.881540" lon="-3.516058">
        <ele>724.793</ele>
        <time>2022-12-06T09:45:32Z</time>
      </trkpt>
      <trkpt lat="36.881562" lon="-3.516046">
        <ele>724.597</ele>
        <time>2022-12-06T09:45:33Z</time>
      </trkpt>
      <trkpt lat="36.881631" lon="-3.516005">
        <ele>723.498</ele>
        <time>2022-12-06T09:45:36Z</time>
      </trkpt>
      <trkpt lat="36.881782" lon="-3.515889">
        <ele>722.035</ele>
        <time>2022-12-06T09:45:43Z</time>
      </trkpt>
      <trkpt lat="36.881846" lon="-3.515845">
        <ele>720.766</ele>
        <time>2022-12-06T09:45:46Z</time>
      </trkpt>
      <trkpt lat="36.881904" lon="-3.515809">
        <ele>719.423</ele>
        <time>2022-12-06T09:45:49Z</time>
      </trkpt>
      <trkpt lat="36.881962" lon="-3.515772">
        <ele>718.283</ele>
        <time>2022-12-06T09:45:52Z</time>
      </trkpt>
      <trkpt lat="36.882052" lon="-3.515727">
        <ele>716.711</ele>
        <time>2022-12-06T09:45:56Z</time>
      </trkpt>
      <trkpt lat="36.882096" lon="-3.515699">
        <ele>715.509</ele>
        <time>2022-12-06T09:45:58Z</time>
      </trkpt>
      <trkpt lat="36.882139" lon="-3.515682">
        <ele>714.413</ele>
        <time>2022-12-06T09:46:00Z</time>
      </trkpt>
      <trkpt lat="36.882180" lon="-3.515684">
        <ele>713.274</ele>
        <time>2022-12-06T09:46:02Z</time>
      </trkpt>
      <trkpt lat="36.882223" lon="-3.515736">
        <ele>712.232</ele>
        <time>2022-12-06T09:46:05Z</time>
      </trkpt>
      <trkpt lat="36.882257" lon="-3.515819">
        <ele>711.099</ele>
        <time>2022-12-06T09:46:08Z</time>
      </trkpt>
      <trkpt lat="36.882273" lon="-3.515888">
        <ele>709.717</ele>
        <time>2022-12-06T09:46:10Z</time>
      </trkpt>
      <trkpt lat="36.882317" lon="-3.516016">
        <ele>708.731</ele>
        <time>2022-12-06T09:46:14Z</time>
      </trkpt>
      <trkpt lat="36.882351" lon="-3.516112">
        <ele>707.292</ele>
        <time>2022-12-06T09:46:17Z</time>
      </trkpt>
      <trkpt lat="36.882376" lon="-3.516180">
        <ele>706.019</ele>
        <time>2022-12-06T09:46:19Z</time>
      </trkpt>
      <trkpt lat="36.882399" lon="-3.516243">
        <ele>705.210</ele>
        <time>2022-12-06T09:46:21Z</time>
      </trkpt>
      <trkpt lat="36.882411" lon="-3.516276">
        <ele>705.013</ele>
        <time>2022-12-06T09:46:22Z</time>
      </trkpt>
      <trkpt lat="36.882444" lon="-3.516362">
        <ele>703.743</ele>
        <time>2022-12-06T09:46:25Z</time>
      </trkpt>
      <trkpt lat="36.882506" lon="-3.516469">
        <ele>702.507</ele>
        <time>2022-12-06T09:46:29Z</time>
      </trkpt>
      <trkpt lat="36.882541" lon="-3.516522">
        <ele>701.509</ele>
        <time>2022-12-06T09:46:31Z</time>
      </trkpt>
      <trkpt lat="36.882586" lon="-3.516566">
        <ele>700.442</ele>
        <time>2022-12-06T09:46:33Z</time>
      </trkpt>
      <trkpt lat="36.882661" lon="-3.516613">
        <ele>698.793</ele>
        <time>2022-12-06T09:46:36Z</time>
      </trkpt>
      <trkpt lat="36.882716" lon="-3.516631">
        <ele>697.451</ele>
        <time>2022-12-06T09:46:38Z</time>
      </trkpt>
      <trkpt lat="36.882766" lon="-3.516620">
        <ele>695.538</ele>
        <time>2022-12-06T09:46:40Z</time>
      </trkpt>
      <trkpt lat="36.882830" lon="-3.516555">
        <ele>694.246</ele>
        <time>2022-12-06T09:46:43Z</time>
      </trkpt>
      <trkpt lat="36.882862" lon="-3.516457">
        <ele>693.050</ele>
        <time>2022-12-06T09:46:46Z</time>
      </trkpt>
      <trkpt lat="36.882893" lon="-3.516325">
        <ele>691.581</ele>
        <time>2022-12-06T09:46:50Z</time>
      </trkpt>
      <trkpt lat="36.882916" lon="-3.516217">
        <ele>690.028</ele>
        <time>2022-12-06T09:46:53Z</time>
      </trkpt>
      <trkpt lat="36.882944" lon="-3.516116">
        <ele>688.549</ele>
        <time>2022-12-06T09:46:56Z</time>
      </trkpt>
      <trkpt lat="36.882974" lon="-3.516022">
        <ele>687.516</ele>
        <time>2022-12-06T09:46:59Z</time>
      </trkpt>
      <trkpt lat="36.883086" lon="-3.515841">
        <ele>686.776</ele>
        <time>2022-12-06T09:47:06Z</time>
      </trkpt>
      <trkpt lat="36.883138" lon="-3.515676">
        <ele>686.513</ele>
        <time>2022-12-06T09:47:12Z</time>
      </trkpt>
      <trkpt lat="36.883148" lon="-3.515514">
        <ele>685.409</ele>
        <time>2022-12-06T09:47:17Z</time>
      </trkpt>
      <trkpt lat="36.883162" lon="-3.515423">
        <ele>684.022</ele>
        <time>2022-12-06T09:47:20Z</time>
      </trkpt>
      <trkpt lat="36.883157" lon="-3.515330">
        <ele>682.713</ele>
        <time>2022-12-06T09:47:23Z</time>
      </trkpt>
      <trkpt lat="36.883140" lon="-3.515197">
        <ele>681.451</ele>
        <time>2022-12-06T09:47:27Z</time>
      </trkpt>
      <trkpt lat="36.883125" lon="-3.515102">
        <ele>680.448</ele>
        <time>2022-12-06T09:47:30Z</time>
      </trkpt>
      <trkpt lat="36.883101" lon="-3.515008">
        <ele>679.256</ele>
        <time>2022-12-06T09:47:33Z</time>
      </trkpt>
      <trkpt lat="36.883063" lon="-3.514909">
        <ele>678.080</ele>
        <time>2022-12-06T09:47:36Z</time>
      </trkpt>
      <trkpt lat="36.883016" lon="-3.514832">
        <ele>676.451</ele>
        <time>2022-12-06T09:47:39Z</time>
      </trkpt>
      <trkpt lat="36.882899" lon="-3.514672">
        <ele>675.258</ele>
        <time>2022-12-06T09:47:46Z</time>
      </trkpt>
      <trkpt lat="36.882801" lon="-3.514536">
        <ele>674.239</ele>
        <time>2022-12-06T09:47:52Z</time>
      </trkpt>
      <trkpt lat="36.882714" lon="-3.514457">
        <ele>673.087</ele>
        <time>2022-12-06T09:47:57Z</time>
      </trkpt>
      <trkpt lat="36.882615" lon="-3.514367">
        <ele>672.042</ele>
        <time>2022-12-06T09:48:02Z</time>
      </trkpt>
      <trkpt lat="36.882529" lon="-3.514258">
        <ele>670.526</ele>
        <time>2022-12-06T09:48:06Z</time>
      </trkpt>
      <trkpt lat="36.882460" lon="-3.514186">
        <ele>669.509</ele>
        <time>2022-12-06T09:48:09Z</time>
      </trkpt>
      <trkpt lat="36.882410" lon="-3.514132">
        <ele>668.579</ele>
        <time>2022-12-06T09:48:11Z</time>
      </trkpt>
      <trkpt lat="36.882339" lon="-3.514070">
        <ele>667.260</ele>
        <time>2022-12-06T09:48:14Z</time>
      </trkpt>
      <trkpt lat="36.882270" lon="-3.514021">
        <ele>666.038</ele>
        <time>2022-12-06T09:48:17Z</time>
      </trkpt>
      <trkpt lat="36.882170" lon="-3.513965">
        <ele>664.785</ele>
        <time>2022-12-06T09:48:21Z</time>
      </trkpt>
      <trkpt lat="36.882095" lon="-3.513932">
        <ele>663.773</ele>
        <time>2022-12-06T09:48:24Z</time>
      </trkpt>
      <trkpt lat="36.882004" lon="-3.513873">
        <ele>662.597</ele>
        <time>2022-12-06T09:48:28Z</time>
      </trkpt>
      <trkpt lat="36.881913" lon="-3.513803">
        <ele>661.438</ele>
        <time>2022-12-06T09:48:32Z</time>
      </trkpt>
      <trkpt lat="36.881823" lon="-3.513724">
        <ele>660.275</ele>
        <time>2022-12-06T09:48:36Z</time>
      </trkpt>
      <trkpt lat="36.881719" lon="-3.513640">
        <ele>659.226</ele>
        <time>2022-12-06T09:48:41Z</time>
      </trkpt>
      <trkpt lat="36.881643" lon="-3.513574">
        <ele>658.081</ele>
        <time>2022-12-06T09:48:45Z</time>
      </trkpt>
      <trkpt lat="36.881528" lon="-3.513432">
        <ele>656.561</ele>
        <time>2022-12-06T09:48:51Z</time>
      </trkpt>
      <trkpt lat="36.881431" lon="-3.513320">
        <ele>655.417</ele>
        <time>2022-12-06T09:48:56Z</time>
      </trkpt>
      <trkpt lat="36.881387" lon="-3.513279">
        <ele>654.409</ele>
        <time>2022-12-06T09:48:58Z</time>
      </trkpt>
      <trkpt lat="36.881329" lon="-3.513210">
        <ele>653.479</ele>
        <time>2022-12-06T09:49:01Z</time>
      </trkpt>
      <trkpt lat="36.881270" lon="-3.513148">
        <ele>652.090</ele>
        <time>2022-12-06T09:49:04Z</time>
      </trkpt>
      <trkpt lat="36.881186" lon="-3.513066">
        <ele>650.788</ele>
        <time>2022-12-06T09:49:08Z</time>
      </trkpt>
      <trkpt lat="36.881129" lon="-3.512983">
        <ele>649.725</ele>
        <time>2022-12-06T09:49:12Z</time>
      </trkpt>
      <trkpt lat="36.881055" lon="-3.512837">
        <ele>648.793</ele>
        <time>2022-12-06T09:49:18Z</time>
      </trkpt>
      <trkpt lat="36.880993" lon="-3.512724">
        <ele>647.517</ele>
        <time>2022-12-06T09:49:22Z</time>
      </trkpt>
      <trkpt lat="36.880884" lon="-3.512525">
        <ele>646.548</ele>
        <time>2022-12-06T09:49:29Z</time>
      </trkpt>
      <trkpt lat="36.880872" lon="-3.512502">
        <ele>646.415</ele>
        <time>2022-12-06T09:49:30Z</time>
      </trkpt>
      <trkpt lat="36.880775" lon="-3.512325">
        <ele>645.426</ele>
        <time>2022-12-06T09:49:37Z</time>
      </trkpt>
      <trkpt lat="36.880731" lon="-3.512235">
        <ele>644.418</ele>
        <time>2022-12-06T09:49:41Z</time>
      </trkpt>
      <trkpt lat="36.880828" lon="-3.512257">
        <ele>643.098</ele>
        <time>2022-12-06T09:49:45Z</time>
      </trkpt>
      <trkpt lat="36.880928" lon="-3.512326">
        <ele>641.717</ele>
        <time>2022-12-06T09:49:49Z</time>
      </trkpt>
      <trkpt lat="36.881095" lon="-3.512470">
        <ele>640.709</ele>
        <time>2022-12-06T09:49:57Z</time>
      </trkpt>
      <trkpt lat="36.881114" lon="-3.512492">
        <ele>640.522</ele>
        <time>2022-12-06T09:49:58Z</time>
      </trkpt>
      <trkpt lat="36.881175" lon="-3.512547">
        <ele>639.463</ele>
        <time>2022-12-06T09:50:01Z</time>
      </trkpt>
      <trkpt lat="36.881219" lon="-3.512581">
        <ele>638.451</ele>
        <time>2022-12-06T09:50:03Z</time>
      </trkpt>
      <trkpt lat="36.881265" lon="-3.512617">
        <ele>637.748</ele>
        <time>2022-12-06T09:50:05Z</time>
      </trkpt>
      <trkpt lat="36.881306" lon="-3.512654">
        <ele>637.276</ele>
        <time>2022-12-06T09:50:07Z</time>
      </trkpt>
      <trkpt lat="36.881354" lon="-3.512698">
        <ele>636.040</ele>
        <time>2022-12-06T09:50:09Z</time>
      </trkpt>
      <trkpt lat="36.881425" lon="-3.512753">
        <ele>634.441</ele>
        <time>2022-12-06T09:50:12Z</time>
      </trkpt>
      <trkpt lat="36.881473" lon="-3.512787">
        <ele>633.088</ele>
        <time>2022-12-06T09:50:14Z</time>
      </trkpt>
      <trkpt lat="36.881542" lon="-3.512835">
        <ele>631.769</ele>
        <time>2022-12-06T09:50:17Z</time>
      </trkpt>
      <trkpt lat="36.881621" lon="-3.512891">
        <ele>630.417</ele>
        <time>2022-12-06T09:50:22Z</time>
      </trkpt>
      <trkpt lat="36.881624" lon="-3.512891">
        <ele>630.487</ele>
        <time>2022-12-06T09:50:23Z</time>
      </trkpt>
      <trkpt lat="36.881638" lon="-3.512873">
        <ele>630.015</ele>
        <time>2022-12-06T09:51:01Z</time>
      </trkpt>
      <trkpt lat="36.881684" lon="-3.512898">
        <ele>629.409</ele>
        <time>2022-12-06T09:51:04Z</time>
      </trkpt>
      <trkpt lat="36.881729" lon="-3.512923">
        <ele>628.442</ele>
        <time>2022-12-06T09:51:07Z</time>
      </trkpt>
      <trkpt lat="36.881890" lon="-3.513006">
        <ele>627.253</ele>
        <time>2022-12-06T09:51:14Z</time>
      </trkpt>
      <trkpt lat="36.882016" lon="-3.513077">
        <ele>626.221</ele>
        <time>2022-12-06T09:51:19Z</time>
      </trkpt>
      <trkpt lat="36.882197" lon="-3.513194">
        <ele>625.258</ele>
        <time>2022-12-06T09:51:26Z</time>
      </trkpt>
      <trkpt lat="36.882327" lon="-3.513210">
        <ele>624.046</ele>
        <time>2022-12-06T09:51:31Z</time>
      </trkpt>
      <trkpt lat="36.882430" lon="-3.513202">
        <ele>622.730</ele>
        <time>2022-12-06T09:51:35Z</time>
      </trkpt>
      <trkpt lat="36.882534" lon="-3.513192">
        <ele>621.761</ele>
        <time>2022-12-06T09:51:39Z</time>
      </trkpt>
      <trkpt lat="36.882607" lon="-3.513195">
        <ele>620.518</ele>
        <time>2022-12-06T09:51:42Z</time>
      </trkpt>
      <trkpt lat="36.882677" lon="-3.513192">
        <ele>619.489</ele>
        <time>2022-12-06T09:51:45Z</time>
      </trkpt>
      <trkpt lat="36.882774" lon="-3.513224">
        <ele>618.083</ele>
        <time>2022-12-06T09:51:49Z</time>
      </trkpt>
      <trkpt lat="36.882824" lon="-3.513227">
        <ele>616.725</ele>
        <time>2022-12-06T09:51:51Z</time>
      </trkpt>
      <trkpt lat="36.882902" lon="-3.513231">
        <ele>615.717</ele>
        <time>2022-12-06T09:51:54Z</time>
      </trkpt>
      <trkpt lat="36.882959" lon="-3.513240">
        <ele>614.509</ele>
        <time>2022-12-06T09:51:56Z</time>
      </trkpt>
      <trkpt lat="36.883009" lon="-3.513240">
        <ele>613.449</ele>
        <time>2022-12-06T09:51:58Z</time>
      </trkpt>
      <trkpt lat="36.883119" lon="-3.513235">
        <ele>611.710</ele>
        <time>2022-12-06T09:52:02Z</time>
      </trkpt>
      <trkpt lat="36.883168" lon="-3.513226">
        <ele>610.448</ele>
        <time>2022-12-06T09:52:04Z</time>
      </trkpt>
      <trkpt lat="36.883221" lon="-3.513229">
        <ele>609.475</ele>
        <time>2022-12-06T09:52:06Z</time>
      </trkpt>
      <trkpt lat="36.883328" lon="-3.513232">
        <ele>608.063</ele>
        <time>2022-12-06T09:52:10Z</time>
      </trkpt>
      <trkpt lat="36.883399" lon="-3.513233">
        <ele>606.747</ele>
        <time>2022-12-06T09:52:13Z</time>
      </trkpt>
      <trkpt lat="36.883481" lon="-3.513239">
        <ele>605.738</ele>
        <time>2022-12-06T09:52:16Z</time>
      </trkpt>
      <trkpt lat="36.883542" lon="-3.513242">
        <ele>604.415</ele>
        <time>2022-12-06T09:52:18Z</time>
      </trkpt>
      <trkpt lat="36.883599" lon="-3.513252">
        <ele>603.456</ele>
        <time>2022-12-06T09:52:20Z</time>
      </trkpt>
      <trkpt lat="36.883652" lon="-3.513261">
        <ele>602.217</ele>
        <time>2022-12-06T09:52:22Z</time>
      </trkpt>
      <trkpt lat="36.883736" lon="-3.513271">
        <ele>600.787</ele>
        <time>2022-12-06T09:52:25Z</time>
      </trkpt>
      <trkpt lat="36.883824" lon="-3.513283">
        <ele>599.515</ele>
        <time>2022-12-06T09:52:28Z</time>
      </trkpt>
      <trkpt lat="36.883875" lon="-3.513283">
        <ele>598.409</ele>
        <time>2022-12-06T09:52:30Z</time>
      </trkpt>
      <trkpt lat="36.883920" lon="-3.513292">
        <ele>597.262</ele>
        <time>2022-12-06T09:52:32Z</time>
      </trkpt>
      <trkpt lat="36.883992" lon="-3.513292">
        <ele>596.073</ele>
        <time>2022-12-06T09:52:35Z</time>
      </trkpt>
      <trkpt lat="36.884042" lon="-3.513297">
        <ele>594.761</ele>
        <time>2022-12-06T09:52:37Z</time>
      </trkpt>
      <trkpt lat="36.884127" lon="-3.513308">
        <ele>593.518</ele>
        <time>2022-12-06T09:52:40Z</time>
      </trkpt>
      <trkpt lat="36.884237" lon="-3.513314">
        <ele>592.566</ele>
        <time>2022-12-06T09:52:44Z</time>
      </trkpt>
      <trkpt lat="36.884407" lon="-3.513377">
        <ele>591.730</ele>
        <time>2022-12-06T09:52:51Z</time>
      </trkpt>
      <trkpt lat="36.884422" lon="-3.513323">
        <ele>591.481</ele>
        <time>2022-12-06T09:52:53Z</time>
      </trkpt>
      <trkpt lat="36.884382" lon="-3.513242">
        <ele>590.228</ele>
        <time>2022-12-06T09:52:56Z</time>
      </trkpt>
      <trkpt lat="36.884269" lon="-3.513147">
        <ele>588.739</ele>
        <time>2022-12-06T09:53:01Z</time>
      </trkpt>
      <trkpt lat="36.884196" lon="-3.513083">
        <ele>587.465</ele>
        <time>2022-12-06T09:53:04Z</time>
      </trkpt>
      <trkpt lat="36.884126" lon="-3.513019">
        <ele>586.468</ele>
        <time>2022-12-06T09:53:07Z</time>
      </trkpt>
      <trkpt lat="36.884059" lon="-3.512946">
        <ele>584.714</ele>
        <time>2022-12-06T09:53:10Z</time>
      </trkpt>
      <trkpt lat="36.883990" lon="-3.512857">
        <ele>583.709</ele>
        <time>2022-12-06T09:53:14Z</time>
      </trkpt>
      <trkpt lat="36.883886" lon="-3.512673">
        <ele>583.437</ele>
        <time>2022-12-06T09:53:23Z</time>
      </trkpt>
      <trkpt lat="36.883875" lon="-3.512600">
        <ele>582.568</ele>
        <time>2022-12-06T09:53:26Z</time>
      </trkpt>
      <trkpt lat="36.883861" lon="-3.512513">
        <ele>581.436</ele>
        <time>2022-12-06T09:53:29Z</time>
      </trkpt>
      <trkpt lat="36.883873" lon="-3.512451">
        <ele>580.413</ele>
        <time>2022-12-06T09:53:31Z</time>
      </trkpt>
      <trkpt lat="36.883887" lon="-3.512411">
        <ele>579.451</ele>
        <time>2022-12-06T09:53:34Z</time>
      </trkpt>
      <trkpt lat="36.883899" lon="-3.512409">
        <ele>579.035</ele>
        <time>2022-12-06T09:53:35Z</time>
      </trkpt>
      <trkpt lat="36.883930" lon="-3.512409">
        <ele>577.716</ele>
        <time>2022-12-06T09:53:37Z</time>
      </trkpt>
      <trkpt lat="36.883971" lon="-3.512406">
        <ele>576.443</ele>
        <time>2022-12-06T09:53:39Z</time>
      </trkpt>
      <trkpt lat="36.884017" lon="-3.512402">
        <ele>575.014</ele>
        <time>2022-12-06T09:53:41Z</time>
      </trkpt>
      <trkpt lat="36.884064" lon="-3.512399">
        <ele>573.558</ele>
        <time>2022-12-06T09:53:43Z</time>
      </trkpt>
      <trkpt lat="36.884135" lon="-3.512394">
        <ele>572.452</ele>
        <time>2022-12-06T09:53:46Z</time>
      </trkpt>
      <trkpt lat="36.884179" lon="-3.512392">
        <ele>571.217</ele>
        <time>2022-12-06T09:53:48Z</time>
      </trkpt>
      <trkpt lat="36.884214" lon="-3.512382">
        <ele>570.409</ele>
        <time>2022-12-06T09:53:51Z</time>
      </trkpt>
      <trkpt lat="36.884209" lon="-3.512382">
        <ele>570.036</ele>
        <time>2022-12-06T09:53:52Z</time>
      </trkpt>
      <trkpt lat="36.884224" lon="-3.512386">
        <ele>570.237</ele>
        <time>2022-12-06T09:53:57Z</time>
      </trkpt>
      <trkpt lat="36.884363" lon="-3.512262">
        <ele>569.255</ele>
        <time>2022-12-06T09:54:06Z</time>
      </trkpt>
      <trkpt lat="36.884367" lon="-3.512238">
        <ele>568.722</ele>
        <time>2022-12-06T09:54:07Z</time>
      </trkpt>
      <trkpt lat="36.884377" lon="-3.512215">
        <ele>568.570</ele>
        <time>2022-12-06T09:54:08Z</time>
      </trkpt>
      <trkpt lat="36.884408" lon="-3.512172">
        <ele>567.714</ele>
        <time>2022-12-06T09:54:10Z</time>
      </trkpt>
      <trkpt lat="36.884462" lon="-3.512116">
        <ele>566.565</ele>
        <time>2022-12-06T09:54:13Z</time>
      </trkpt>
      <trkpt lat="36.884520" lon="-3.512058">
        <ele>565.532</ele>
        <time>2022-12-06T09:54:16Z</time>
      </trkpt>
      <trkpt lat="36.884575" lon="-3.512008">
        <ele>564.483</ele>
        <time>2022-12-06T09:54:19Z</time>
      </trkpt>
      <trkpt lat="36.884621" lon="-3.511978">
        <ele>563.065</ele>
        <time>2022-12-06T09:54:21Z</time>
      </trkpt>
      <trkpt lat="36.884706" lon="-3.511925">
        <ele>562.068</ele>
        <time>2022-12-06T09:54:25Z</time>
      </trkpt>
      <trkpt lat="36.884809" lon="-3.511845">
        <ele>561.014</ele>
        <time>2022-12-06T09:54:30Z</time>
      </trkpt>
      <trkpt lat="36.884878" lon="-3.511759">
        <ele>559.709</ele>
        <time>2022-12-06T09:54:34Z</time>
      </trkpt>
      <trkpt lat="36.884946" lon="-3.511600">
        <ele>558.717</ele>
        <time>2022-12-06T09:54:40Z</time>
      </trkpt>
      <trkpt lat="36.884995" lon="-3.511536">
        <ele>557.738</ele>
        <time>2022-12-06T09:54:43Z</time>
      </trkpt>
      <trkpt lat="36.885080" lon="-3.511400">
        <ele>556.556</ele>
        <time>2022-12-06T09:54:49Z</time>
      </trkpt>
      <trkpt lat="36.885182" lon="-3.511315">
        <ele>555.593</ele>
        <time>2022-12-06T09:54:57Z</time>
      </trkpt>
      <trkpt lat="36.885295" lon="-3.511190">
        <ele>554.471</ele>
        <time>2022-12-06T09:55:03Z</time>
      </trkpt>
      <trkpt lat="36.885407" lon="-3.511114">
        <ele>553.425</ele>
        <time>2022-12-06T09:55:09Z</time>
      </trkpt>
      <trkpt lat="36.885589" lon="-3.511068">
        <ele>552.256</ele>
        <time>2022-12-06T09:55:18Z</time>
      </trkpt>
      <trkpt lat="36.885760" lon="-3.511114">
        <ele>551.053</ele>
        <time>2022-12-06T09:55:28Z</time>
      </trkpt>
      <trkpt lat="36.885822" lon="-3.511101">
        <ele>549.554</ele>
        <time>2022-12-06T09:55:31Z</time>
      </trkpt>
      <trkpt lat="36.885860" lon="-3.511080">
        <ele>548.289</ele>
        <time>2022-12-06T09:55:33Z</time>
      </trkpt>
      <trkpt lat="36.885932" lon="-3.511030">
        <ele>546.706</ele>
        <time>2022-12-06T09:55:37Z</time>
      </trkpt>
      <trkpt lat="36.885976" lon="-3.510950">
        <ele>545.526</ele>
        <time>2022-12-06T09:55:40Z</time>
      </trkpt>
      <trkpt lat="36.885995" lon="-3.510826">
        <ele>544.409</ele>
        <time>2022-12-06T09:55:44Z</time>
      </trkpt>
      <trkpt lat="36.886005" lon="-3.510702">
        <ele>543.419</ele>
        <time>2022-12-06T09:55:49Z</time>
      </trkpt>
      <trkpt lat="36.885987" lon="-3.510584">
        <ele>542.060</ele>
        <time>2022-12-06T09:55:55Z</time>
      </trkpt>
      <trkpt lat="36.885995" lon="-3.510576">
        <ele>541.468</ele>
        <time>2022-12-06T09:55:56Z</time>
      </trkpt>
      <trkpt lat="36.886007" lon="-3.510575">
        <ele>540.755</ele>
        <time>2022-12-06T09:55:57Z</time>
      </trkpt>
      <trkpt lat="36.886098" lon="-3.510602">
        <ele>539.573</ele>
        <time>2022-12-06T09:56:02Z</time>
      </trkpt>
      <trkpt lat="36.886123" lon="-3.510591">
        <ele>538.217</ele>
        <time>2022-12-06T09:56:04Z</time>
      </trkpt>
      <trkpt lat="36.886147" lon="-3.510574">
        <ele>536.718</ele>
        <time>2022-12-06T09:56:06Z</time>
      </trkpt>
      <trkpt lat="36.886190" lon="-3.510546">
        <ele>535.585</ele>
        <time>2022-12-06T09:56:09Z</time>
      </trkpt>
      <trkpt lat="36.886248" lon="-3.510521">
        <ele>534.446</ele>
        <time>2022-12-06T09:56:13Z</time>
      </trkpt>
      <trkpt lat="36.886291" lon="-3.510501">
        <ele>532.747</ele>
        <time>2022-12-06T09:56:16Z</time>
      </trkpt>
      <trkpt lat="36.886316" lon="-3.510473">
        <ele>531.029</ele>
        <time>2022-12-06T09:56:18Z</time>
      </trkpt>
      <trkpt lat="36.886351" lon="-3.510448">
        <ele>529.421</ele>
        <time>2022-12-06T09:56:20Z</time>
      </trkpt>
      <trkpt lat="36.886402" lon="-3.510419">
        <ele>527.709</ele>
        <time>2022-12-06T09:56:23Z</time>
      </trkpt>
      <trkpt lat="36.886452" lon="-3.510378">
        <ele>526.585</ele>
        <time>2022-12-06T09:56:26Z</time>
      </trkpt>
      <trkpt lat="36.886493" lon="-3.510332">
        <ele>525.496</ele>
        <time>2022-12-06T09:56:28Z</time>
      </trkpt>
      <trkpt lat="36.886545" lon="-3.510254">
        <ele>524.074</ele>
        <time>2022-12-06T09:56:31Z</time>
      </trkpt>
      <trkpt lat="36.886597" lon="-3.510183">
        <ele>522.751</ele>
        <time>2022-12-06T09:56:34Z</time>
      </trkpt>
      <trkpt lat="36.886663" lon="-3.510103">
        <ele>521.769</ele>
        <time>2022-12-06T09:56:37Z</time>
      </trkpt>
      <trkpt lat="36.886718" lon="-3.510034">
        <ele>520.783</ele>
        <time>2022-12-06T09:56:40Z</time>
      </trkpt>
      <trkpt lat="36.886824" lon="-3.509987">
        <ele>519.564</ele>
        <time>2022-12-06T09:56:45Z</time>
      </trkpt>
      <trkpt lat="36.886914" lon="-3.509995">
        <ele>518.511</ele>
        <time>2022-12-06T09:56:50Z</time>
      </trkpt>
      <trkpt lat="36.887060" lon="-3.510122">
        <ele>518.212</ele>
        <time>2022-12-06T09:56:58Z</time>
      </trkpt>
      <trkpt lat="36.887141" lon="-3.510311">
        <ele>517.455</ele>
        <time>2022-12-06T09:57:05Z</time>
      </trkpt>
      <trkpt lat="36.887147" lon="-3.510438">
        <ele>516.207</ele>
        <time>2022-12-06T09:57:10Z</time>
      </trkpt>
      <trkpt lat="36.887139" lon="-3.510655">
        <ele>515.217</ele>
        <time>2022-12-06T09:57:17Z</time>
      </trkpt>
      <trkpt lat="36.887140" lon="-3.510690">
        <ele>515.009</ele>
        <time>2022-12-06T09:57:18Z</time>
      </trkpt>
      <trkpt lat="36.887150" lon="-3.510778">
        <ele>514.226</ele>
        <time>2022-12-06T09:57:21Z</time>
      </trkpt>
      <trkpt lat="36.887150" lon="-3.511008">
        <ele>513.067</ele>
        <time>2022-12-06T09:57:28Z</time>
      </trkpt>
      <trkpt lat="36.887105" lon="-3.511177">
        <ele>511.625</ele>
        <time>2022-12-06T09:57:33Z</time>
      </trkpt>
      <trkpt lat="36.887079" lon="-3.511276">
        <ele>510.312</ele>
        <time>2022-12-06T09:57:36Z</time>
      </trkpt>
      <trkpt lat="36.887053" lon="-3.511372">
        <ele>509.240</ele>
        <time>2022-12-06T09:57:39Z</time>
      </trkpt>
      <trkpt lat="36.887047" lon="-3.511479">
        <ele>508.084</ele>
        <time>2022-12-06T09:57:42Z</time>
      </trkpt>
      <trkpt lat="36.887082" lon="-3.511611">
        <ele>506.765</ele>
        <time>2022-12-06T09:57:46Z</time>
      </trkpt>
      <trkpt lat="36.887131" lon="-3.511741">
        <ele>505.652</ele>
        <time>2022-12-06T09:57:51Z</time>
      </trkpt>
      <trkpt lat="36.887173" lon="-3.511832">
        <ele>504.353</ele>
        <time>2022-12-06T09:57:54Z</time>
      </trkpt>
      <trkpt lat="36.887230" lon="-3.512076">
        <ele>503.349</ele>
        <time>2022-12-06T09:58:01Z</time>
      </trkpt>
      <trkpt lat="36.887234" lon="-3.512106">
        <ele>503.202</ele>
        <time>2022-12-06T09:58:02Z</time>
      </trkpt>
      <trkpt lat="36.887272" lon="-3.512343">
        <ele>503.322</ele>
        <time>2022-12-06T09:58:10Z</time>
      </trkpt>
      <trkpt lat="36.887406" lon="-3.512484">
        <ele>503.309</ele>
        <time>2022-12-06T09:58:17Z</time>
      </trkpt>
      <trkpt lat="36.887610" lon="-3.512533">
        <ele>502.045</ele>
        <time>2022-12-06T09:58:24Z</time>
      </trkpt>
      <trkpt lat="36.887796" lon="-3.512567">
        <ele>500.716</ele>
        <time>2022-12-06T09:58:31Z</time>
      </trkpt>
      <trkpt lat="36.887874" lon="-3.512529">
        <ele>500.364</ele>
        <time>2022-12-06T09:58:34Z</time>
      </trkpt>
      <trkpt lat="36.888054" lon="-3.512484">
        <ele>500.271</ele>
        <time>2022-12-06T09:58:41Z</time>
      </trkpt>
      <trkpt lat="36.888201" lon="-3.512535">
        <ele>499.789</ele>
        <time>2022-12-06T09:58:47Z</time>
      </trkpt>
      <trkpt lat="36.888292" lon="-3.512586">
        <ele>498.643</ele>
        <time>2022-12-06T09:58:51Z</time>
      </trkpt>
      <trkpt lat="36.888387" lon="-3.512637">
        <ele>497.684</ele>
        <time>2022-12-06T09:58:55Z</time>
      </trkpt>
      <trkpt lat="36.888467" lon="-3.512671">
        <ele>496.261</ele>
        <time>2022-12-06T09:58:58Z</time>
      </trkpt>
      <trkpt lat="36.888573" lon="-3.512704">
        <ele>495.272</ele>
        <time>2022-12-06T09:59:02Z</time>
      </trkpt>
      <trkpt lat="36.888667" lon="-3.512713">
        <ele>494.079</ele>
        <time>2022-12-06T09:59:06Z</time>
      </trkpt>
      <trkpt lat="36.888734" lon="-3.512740">
        <ele>492.705</ele>
        <time>2022-12-06T09:59:09Z</time>
      </trkpt>
      <trkpt lat="36.888785" lon="-3.512747">
        <ele>491.625</ele>
        <time>2022-12-06T09:59:12Z</time>
      </trkpt>
      <trkpt lat="36.888807" lon="-3.512726">
        <ele>491.209</ele>
        <time>2022-12-06T09:59:15Z</time>
      </trkpt>
      <trkpt lat="36.888857" lon="-3.512749">
        <ele>491.668</ele>
        <time>2022-12-06T09:59:21Z</time>
      </trkpt>
      <trkpt lat="36.888895" lon="-3.512791">
        <ele>490.629</ele>
        <time>2022-12-06T09:59:25Z</time>
      </trkpt>
      <trkpt lat="36.888908" lon="-3.512804">
        <ele>490.377</ele>
        <time>2022-12-06T09:59:26Z</time>
      </trkpt>
      <trkpt lat="36.889018" lon="-3.512973">
        <ele>490.214</ele>
        <time>2022-12-06T09:59:38Z</time>
      </trkpt>
      <trkpt lat="36.889070" lon="-3.513060">
        <ele>489.352</ele>
        <time>2022-12-06T09:59:45Z</time>
      </trkpt>
      <trkpt lat="36.889093" lon="-3.513081">
        <ele>489.036</ele>
        <time>2022-12-06T09:59:47Z</time>
      </trkpt>
      <trkpt lat="36.889127" lon="-3.513142">
        <ele>488.247</ele>
        <time>2022-12-06T09:59:52Z</time>
      </trkpt>
      <trkpt lat="36.889159" lon="-3.513168">
        <ele>486.764</ele>
        <time>2022-12-06T09:59:55Z</time>
      </trkpt>
      <trkpt lat="36.889272" lon="-3.513362">
        <ele>486.385</ele>
        <time>2022-12-06T10:00:07Z</time>
      </trkpt>
      <trkpt lat="36.889286" lon="-3.513399">
        <ele>485.783</ele>
        <time>2022-12-06T10:00:09Z</time>
      </trkpt>
      <trkpt lat="36.889308" lon="-3.513452">
        <ele>485.625</ele>
        <time>2022-12-06T10:00:12Z</time>
      </trkpt>
      <trkpt lat="36.889412" lon="-3.513630">
        <ele>485.317</ele>
        <time>2022-12-06T10:00:25Z</time>
      </trkpt>
      <trkpt lat="36.889443" lon="-3.513703">
        <ele>484.309</ele>
        <time>2022-12-06T10:00:31Z</time>
      </trkpt>
      <trkpt lat="36.889457" lon="-3.513734">
        <ele>483.359</ele>
        <time>2022-12-06T10:00:33Z</time>
      </trkpt>
      <trkpt lat="36.889469" lon="-3.513741">
        <ele>483.250</ele>
        <time>2022-12-06T10:00:34Z</time>
      </trkpt>
      <trkpt lat="36.889529" lon="-3.513785">
        <ele>482.628</ele>
        <time>2022-12-06T10:00:40Z</time>
      </trkpt>
      <trkpt lat="36.889566" lon="-3.513899">
        <ele>481.675</ele>
        <time>2022-12-06T10:00:47Z</time>
      </trkpt>
      <trkpt lat="36.889620" lon="-3.513939">
        <ele>480.693</ele>
        <time>2022-12-06T10:00:52Z</time>
      </trkpt>
      <trkpt lat="36.889619" lon="-3.513939">
        <ele>479.317</ele>
        <time>2022-12-06T10:00:57Z</time>
      </trkpt>
      <trkpt lat="36.889647" lon="-3.513982">
        <ele>479.718</ele>
        <time>2022-12-06T10:01:07Z</time>
      </trkpt>
      <trkpt lat="36.889690" lon="-3.513989">
        <ele>478.065</ele>
        <time>2022-12-06T10:01:11Z</time>
      </trkpt>
      <trkpt lat="36.889714" lon="-3.513981">
        <ele>476.736</ele>
        <time>2022-12-06T10:01:13Z</time>
      </trkpt>
      <trkpt lat="36.889737" lon="-3.513973">
        <ele>475.289</ele>
        <time>2022-12-06T10:01:15Z</time>
      </trkpt>
      <trkpt lat="36.889779" lon="-3.513971">
        <ele>474.206</ele>
        <time>2022-12-06T10:01:18Z</time>
      </trkpt>
      <trkpt lat="36.889804" lon="-3.513976">
        <ele>473.726</ele>
        <time>2022-12-06T10:01:20Z</time>
      </trkpt>
      <trkpt lat="36.889829" lon="-3.513981">
        <ele>473.009</ele>
        <time>2022-12-06T10:01:22Z</time>
      </trkpt>
      <trkpt lat="36.889862" lon="-3.513994">
        <ele>471.629</ele>
        <time>2022-12-06T10:01:24Z</time>
      </trkpt>
      <trkpt lat="36.889970" lon="-3.514015">
        <ele>470.690</ele>
        <time>2022-12-06T10:01:32Z</time>
      </trkpt>
      <trkpt lat="36.890034" lon="-3.514042">
        <ele>469.638</ele>
        <time>2022-12-06T10:01:37Z</time>
      </trkpt>
      <trkpt lat="36.890219" lon="-3.513987">
        <ele>468.675</ele>
        <time>2022-12-06T10:01:53Z</time>
      </trkpt>
      <trkpt lat="36.890229" lon="-3.513980">
        <ele>468.263</ele>
        <time>2022-12-06T10:01:54Z</time>
      </trkpt>
      <trkpt lat="36.890270" lon="-3.513924">
        <ele>467.727</ele>
        <time>2022-12-06T10:01:58Z</time>
      </trkpt>
      <trkpt lat="36.890279" lon="-3.513901">
        <ele>467.398</ele>
        <time>2022-12-06T10:02:00Z</time>
      </trkpt>
      <trkpt lat="36.890291" lon="-3.513886">
        <ele>466.615</ele>
        <time>2022-12-06T10:02:02Z</time>
      </trkpt>
      <trkpt lat="36.890297" lon="-3.513883">
        <ele>466.236</ele>
        <time>2022-12-06T10:02:03Z</time>
      </trkpt>
      <trkpt lat="36.890331" lon="-3.513845">
        <ele>465.026</ele>
        <time>2022-12-06T10:02:07Z</time>
      </trkpt>
      <trkpt lat="36.890341" lon="-3.513829">
        <ele>464.647</ele>
        <time>2022-12-06T10:02:08Z</time>
      </trkpt>
      <trkpt lat="36.890364" lon="-3.513809">
        <ele>463.711</ele>
        <time>2022-12-06T10:02:10Z</time>
      </trkpt>
      <trkpt lat="36.890395" lon="-3.513778">
        <ele>462.609</ele>
        <time>2022-12-06T10:02:13Z</time>
      </trkpt>
      <trkpt lat="36.890429" lon="-3.513742">
        <ele>461.393</ele>
        <time>2022-12-06T10:02:17Z</time>
      </trkpt>
      <trkpt lat="36.890436" lon="-3.513734">
        <ele>461.254</ele>
        <time>2022-12-06T10:02:18Z</time>
      </trkpt>
      <trkpt lat="36.890465" lon="-3.513726">
        <ele>460.012</ele>
        <time>2022-12-06T10:02:21Z</time>
      </trkpt>
      <trkpt lat="36.890486" lon="-3.513730">
        <ele>458.729</ele>
        <time>2022-12-06T10:02:23Z</time>
      </trkpt>
      <trkpt lat="36.890502" lon="-3.513739">
        <ele>458.077</ele>
        <time>2022-12-06T10:02:25Z</time>
      </trkpt>
      <trkpt lat="36.890516" lon="-3.513741">
        <ele>457.371</ele>
        <time>2022-12-06T10:02:26Z</time>
      </trkpt>
      <trkpt lat="36.890553" lon="-3.513738">
        <ele>456.312</ele>
        <time>2022-12-06T10:02:29Z</time>
      </trkpt>
      <trkpt lat="36.890581" lon="-3.513724">
        <ele>456.019</ele>
        <time>2022-12-06T10:02:32Z</time>
      </trkpt>
      <trkpt lat="36.890608" lon="-3.513719">
        <ele>455.260</ele>
        <time>2022-12-06T10:02:35Z</time>
      </trkpt>
      <trkpt lat="36.890623" lon="-3.513709">
        <ele>454.257</ele>
        <time>2022-12-06T10:02:38Z</time>
      </trkpt>
      <trkpt lat="36.890652" lon="-3.513699">
        <ele>453.000</ele>
        <time>2022-12-06T10:02:43Z</time>
      </trkpt>
      <trkpt lat="36.890699" lon="-3.513685">
        <ele>451.720</ele>
        <time>2022-12-06T10:02:48Z</time>
      </trkpt>
      <trkpt lat="36.890708" lon="-3.513684">
        <ele>451.309</ele>
        <time>2022-12-06T10:02:49Z</time>
      </trkpt>
      <trkpt lat="36.890729" lon="-3.513682">
        <ele>450.686</ele>
        <time>2022-12-06T10:02:51Z</time>
      </trkpt>
      <trkpt lat="36.890759" lon="-3.513676">
        <ele>449.697</ele>
        <time>2022-12-06T10:02:54Z</time>
      </trkpt>
      <trkpt lat="36.890767" lon="-3.513672">
        <ele>449.215</ele>
        <time>2022-12-06T10:02:55Z</time>
      </trkpt>
      <trkpt lat="36.890771" lon="-3.513659">
        <ele>448.382</ele>
        <time>2022-12-06T10:02:57Z</time>
      </trkpt>
      <trkpt lat="36.890797" lon="-3.513623">
        <ele>447.260</ele>
        <time>2022-12-06T10:03:02Z</time>
      </trkpt>
      <trkpt lat="36.890819" lon="-3.513596">
        <ele>446.264</ele>
        <time>2022-12-06T10:03:05Z</time>
      </trkpt>
      <trkpt lat="36.890829" lon="-3.513586">
        <ele>446.085</ele>
        <time>2022-12-06T10:03:06Z</time>
      </trkpt>
      <trkpt lat="36.890863" lon="-3.513557">
        <ele>444.352</ele>
        <time>2022-12-06T10:03:09Z</time>
      </trkpt>
      <trkpt lat="36.890893" lon="-3.513553">
        <ele>443.293</ele>
        <time>2022-12-06T10:03:11Z</time>
      </trkpt>
      <trkpt lat="36.890931" lon="-3.513517">
        <ele>442.277</ele>
        <time>2022-12-06T10:03:14Z</time>
      </trkpt>
      <trkpt lat="36.890975" lon="-3.513501">
        <ele>441.261</ele>
        <time>2022-12-06T10:03:17Z</time>
      </trkpt>
      <trkpt lat="36.891020" lon="-3.513473">
        <ele>439.627</ele>
        <time>2022-12-06T10:03:20Z</time>
      </trkpt>
      <trkpt lat="36.891031" lon="-3.513456">
        <ele>438.309</ele>
        <time>2022-12-06T10:03:22Z</time>
      </trkpt>
      <trkpt lat="36.891059" lon="-3.513423">
        <ele>437.288</ele>
        <time>2022-12-06T10:03:26Z</time>
      </trkpt>
      <trkpt lat="36.891091" lon="-3.513396">
        <ele>436.259</ele>
        <time>2022-12-06T10:03:29Z</time>
      </trkpt>
      <trkpt lat="36.891100" lon="-3.513386">
        <ele>436.097</ele>
        <time>2022-12-06T10:03:30Z</time>
      </trkpt>
      <trkpt lat="36.891094" lon="-3.513353">
        <ele>435.794</ele>
        <time>2022-12-06T10:03:34Z</time>
      </trkpt>
      <trkpt lat="36.891087" lon="-3.513306">
        <ele>435.792</ele>
        <time>2022-12-06T10:03:41Z</time>
      </trkpt>
      <trkpt lat="36.891120" lon="-3.513271">
        <ele>435.656</ele>
        <time>2022-12-06T10:03:45Z</time>
      </trkpt>
      <trkpt lat="36.891128" lon="-3.513258">
        <ele>435.217</ele>
        <time>2022-12-06T10:03:46Z</time>
      </trkpt>
      <trkpt lat="36.891150" lon="-3.513240">
        <ele>434.214</ele>
        <time>2022-12-06T10:03:48Z</time>
      </trkpt>
      <trkpt lat="36.891167" lon="-3.513235">
        <ele>433.765</ele>
        <time>2022-12-06T10:03:49Z</time>
      </trkpt>
      <trkpt lat="36.891224" lon="-3.513172">
        <ele>432.769</ele>
        <time>2022-12-06T10:03:54Z</time>
      </trkpt>
      <trkpt lat="36.891259" lon="-3.513147">
        <ele>431.704</ele>
        <time>2022-12-06T10:03:57Z</time>
      </trkpt>
      <trkpt lat="36.891277" lon="-3.513119">
        <ele>431.624</ele>
        <time>2022-12-06T10:03:59Z</time>
      </trkpt>
      <trkpt lat="36.891333" lon="-3.513048">
        <ele>430.609</ele>
        <time>2022-12-06T10:04:04Z</time>
      </trkpt>
      <trkpt lat="36.891363" lon="-3.513004">
        <ele>429.617</ele>
        <time>2022-12-06T10:04:06Z</time>
      </trkpt>
      <trkpt lat="36.891372" lon="-3.512982">
        <ele>429.218</ele>
        <time>2022-12-06T10:04:07Z</time>
      </trkpt>
      <trkpt lat="36.891375" lon="-3.512933">
        <ele>428.346</ele>
        <time>2022-12-06T10:04:09Z</time>
      </trkpt>
      <trkpt lat="36.891393" lon="-3.512871">
        <ele>427.693</ele>
        <time>2022-12-06T10:04:12Z</time>
      </trkpt>
      <trkpt lat="36.891397" lon="-3.512851">
        <ele>427.231</ele>
        <time>2022-12-06T10:04:13Z</time>
      </trkpt>
      <trkpt lat="36.891400" lon="-3.512716">
        <ele>426.095</ele>
        <time>2022-12-06T10:04:19Z</time>
      </trkpt>
      <trkpt lat="36.891412" lon="-3.512606">
        <ele>425.036</ele>
        <time>2022-12-06T10:04:25Z</time>
      </trkpt>
      <trkpt lat="36.891481" lon="-3.512482">
        <ele>424.093</ele>
        <time>2022-12-06T10:04:34Z</time>
      </trkpt>
      <trkpt lat="36.891493" lon="-3.512475">
        <ele>423.714</ele>
        <time>2022-12-06T10:04:35Z</time>
      </trkpt>
      <trkpt lat="36.891589" lon="-3.512474">
        <ele>422.742</ele>
        <time>2022-12-06T10:04:41Z</time>
      </trkpt>
      <trkpt lat="36.891697" lon="-3.512463">
        <ele>421.622</ele>
        <time>2022-12-06T10:04:49Z</time>
      </trkpt>
      <trkpt lat="36.891756" lon="-3.512471">
        <ele>420.314</ele>
        <time>2022-12-06T10:04:53Z</time>
      </trkpt>
      <trkpt lat="36.891815" lon="-3.512443">
        <ele>419.309</ele>
        <time>2022-12-06T10:04:58Z</time>
      </trkpt>
      <trkpt lat="36.891859" lon="-3.512434">
        <ele>418.325</ele>
        <time>2022-12-06T10:05:02Z</time>
      </trkpt>
      <trkpt lat="36.891867" lon="-3.512440">
        <ele>418.236</ele>
        <time>2022-12-06T10:05:03Z</time>
      </trkpt>
      <trkpt lat="36.891902" lon="-3.512445">
        <ele>417.654</ele>
        <time>2022-12-06T10:05:08Z</time>
      </trkpt>
      <trkpt lat="36.891926" lon="-3.512440">
        <ele>417.631</ele>
        <time>2022-12-06T10:05:10Z</time>
      </trkpt>
      <trkpt lat="36.891977" lon="-3.512443">
        <ele>417.089</ele>
        <time>2022-12-06T10:05:14Z</time>
      </trkpt>
      <trkpt lat="36.892002" lon="-3.512444">
        <ele>416.383</ele>
        <time>2022-12-06T10:05:17Z</time>
      </trkpt>
      <trkpt lat="36.892013" lon="-3.512436">
        <ele>416.024</ele>
        <time>2022-12-06T10:05:21Z</time>
      </trkpt>
      <trkpt lat="36.892005" lon="-3.512408">
        <ele>415.751</ele>
        <time>2022-12-06T10:05:24Z</time>
      </trkpt>
      <trkpt lat="36.892015" lon="-3.512378">
        <ele>415.732</ele>
        <time>2022-12-06T10:05:26Z</time>
      </trkpt>
      <trkpt lat="36.892048" lon="-3.512365">
        <ele>415.355</ele>
        <time>2022-12-06T10:05:28Z</time>
      </trkpt>
      <trkpt lat="36.892078" lon="-3.512380">
        <ele>414.607</ele>
        <time>2022-12-06T10:05:30Z</time>
      </trkpt>
      <trkpt lat="36.892172" lon="-3.512382">
        <ele>413.617</ele>
        <time>2022-12-06T10:05:38Z</time>
      </trkpt>
      <trkpt lat="36.892205" lon="-3.512349">
        <ele>412.709</ele>
        <time>2022-12-06T10:05:43Z</time>
      </trkpt>
      <trkpt lat="36.892209" lon="-3.512340">
        <ele>412.346</ele>
        <time>2022-12-06T10:05:44Z</time>
      </trkpt>
      <trkpt lat="36.892216" lon="-3.512331">
        <ele>412.287</ele>
        <time>2022-12-06T10:05:45Z</time>
      </trkpt>
      <trkpt lat="36.892271" lon="-3.512301">
        <ele>411.395</ele>
        <time>2022-12-06T10:05:48Z</time>
      </trkpt>
      <trkpt lat="36.892454" lon="-3.512341">
        <ele>410.712</ele>
        <time>2022-12-06T10:06:03Z</time>
      </trkpt>
      <trkpt lat="36.892557" lon="-3.512527">
        <ele>411.270</ele>
        <time>2022-12-06T10:06:18Z</time>
      </trkpt>
      <trkpt lat="36.892568" lon="-3.512570">
        <ele>411.334</ele>
        <time>2022-12-06T10:06:22Z</time>
      </trkpt>
      <trkpt lat="36.892550" lon="-3.512654">
        <ele>412.315</ele>
        <time>2022-12-06T10:06:29Z</time>
      </trkpt>
      <trkpt lat="36.892569" lon="-3.512835">
        <ele>413.662</ele>
        <time>2022-12-06T10:06:42Z</time>
      </trkpt>
      <trkpt lat="36.892538" lon="-3.512966">
        <ele>412.633</ele>
        <time>2022-12-06T10:06:50Z</time>
      </trkpt>
      <trkpt lat="36.892550" lon="-3.513020">
        <ele>411.665</ele>
        <time>2022-12-06T10:06:53Z</time>
      </trkpt>
      <trkpt lat="36.892566" lon="-3.513100">
        <ele>411.668</ele>
        <time>2022-12-06T10:06:58Z</time>
      </trkpt>
      <trkpt lat="36.892542" lon="-3.513155">
        <ele>412.714</ele>
        <time>2022-12-06T10:07:02Z</time>
      </trkpt>
      <trkpt lat="36.892516" lon="-3.513214">
        <ele>413.209</ele>
        <time>2022-12-06T10:07:06Z</time>
      </trkpt>
      <trkpt lat="36.892510" lon="-3.513286">
        <ele>411.677</ele>
        <time>2022-12-06T10:07:10Z</time>
      </trkpt>
      <trkpt lat="36.892507" lon="-3.513342">
        <ele>410.288</ele>
        <time>2022-12-06T10:07:13Z</time>
      </trkpt>
      <trkpt lat="36.892501" lon="-3.513371">
        <ele>408.736</ele>
        <time>2022-12-06T10:07:15Z</time>
      </trkpt>
      <trkpt lat="36.892489" lon="-3.513398">
        <ele>407.673</ele>
        <time>2022-12-06T10:07:17Z</time>
      </trkpt>
      <trkpt lat="36.892488" lon="-3.513411">
        <ele>407.341</ele>
        <time>2022-12-06T10:07:18Z</time>
      </trkpt>
      <trkpt lat="36.892488" lon="-3.513487">
        <ele>407.255</ele>
        <time>2022-12-06T10:07:23Z</time>
      </trkpt>
      <trkpt lat="36.892489" lon="-3.513531">
        <ele>406.656</ele>
        <time>2022-12-06T10:07:26Z</time>
      </trkpt>
      <trkpt lat="36.892487" lon="-3.513549">
        <ele>405.663</ele>
        <time>2022-12-06T10:07:28Z</time>
      </trkpt>
      <trkpt lat="36.892488" lon="-3.513558">
        <ele>405.094</ele>
        <time>2022-12-06T10:07:29Z</time>
      </trkpt>
      <trkpt lat="36.892483" lon="-3.513582">
        <ele>404.678</ele>
        <time>2022-12-06T10:07:31Z</time>
      </trkpt>
      <trkpt lat="36.892469" lon="-3.513619">
        <ele>404.233</ele>
        <time>2022-12-06T10:07:33Z</time>
      </trkpt>
      <trkpt lat="36.892464" lon="-3.513648">
        <ele>404.026</ele>
        <time>2022-12-06T10:07:34Z</time>
      </trkpt>
      <trkpt lat="36.892473" lon="-3.513723">
        <ele>402.709</ele>
        <time>2022-12-06T10:07:37Z</time>
      </trkpt>
      <trkpt lat="36.892485" lon="-3.513814">
        <ele>402.218</ele>
        <time>2022-12-06T10:07:43Z</time>
      </trkpt>
      <trkpt lat="36.892513" lon="-3.513837">
        <ele>401.659</ele>
        <time>2022-12-06T10:07:45Z</time>
      </trkpt>
      <trkpt lat="36.892542" lon="-3.513835">
        <ele>400.377</ele>
        <time>2022-12-06T10:07:47Z</time>
      </trkpt>
      <trkpt lat="36.892570" lon="-3.513825">
        <ele>399.734</ele>
        <time>2022-12-06T10:07:49Z</time>
      </trkpt>
      <trkpt lat="36.892655" lon="-3.513750">
        <ele>399.342</ele>
        <time>2022-12-06T10:07:56Z</time>
      </trkpt>
      <trkpt lat="36.892767" lon="-3.513568">
        <ele>399.036</ele>
        <time>2022-12-06T10:08:10Z</time>
      </trkpt>
      <trkpt lat="36.892810" lon="-3.513570">
        <ele>398.267</ele>
        <time>2022-12-06T10:08:13Z</time>
      </trkpt>
      <trkpt lat="36.892857" lon="-3.513556">
        <ele>396.644</ele>
        <time>2022-12-06T10:08:16Z</time>
      </trkpt>
      <trkpt lat="36.892890" lon="-3.513545">
        <ele>395.365</ele>
        <time>2022-12-06T10:08:18Z</time>
      </trkpt>
      <trkpt lat="36.892944" lon="-3.513497">
        <ele>394.248</ele>
        <time>2022-12-06T10:08:22Z</time>
      </trkpt>
      <trkpt lat="36.892973" lon="-3.513456">
        <ele>393.061</ele>
        <time>2022-12-06T10:08:25Z</time>
      </trkpt>
      <trkpt lat="36.893001" lon="-3.513434">
        <ele>391.717</ele>
        <time>2022-12-06T10:08:27Z</time>
      </trkpt>
      <trkpt lat="36.893030" lon="-3.513411">
        <ele>390.709</ele>
        <time>2022-12-06T10:08:29Z</time>
      </trkpt>
      <trkpt lat="36.893073" lon="-3.513368">
        <ele>389.345</ele>
        <time>2022-12-06T10:08:32Z</time>
      </trkpt>
      <trkpt lat="36.893089" lon="-3.513360">
        <ele>388.266</ele>
        <time>2022-12-06T10:08:34Z</time>
      </trkpt>
      <trkpt lat="36.893095" lon="-3.513343">
        <ele>387.214</ele>
        <time>2022-12-06T10:08:36Z</time>
      </trkpt>
      <trkpt lat="36.893116" lon="-3.513305">
        <ele>386.291</ele>
        <time>2022-12-06T10:08:39Z</time>
      </trkpt>
      <trkpt lat="36.893118" lon="-3.513293">
        <ele>386.019</ele>
        <time>2022-12-06T10:08:40Z</time>
      </trkpt>
      <trkpt lat="36.893125" lon="-3.513255">
        <ele>384.733</ele>
        <time>2022-12-06T10:08:43Z</time>
      </trkpt>
      <trkpt lat="36.893130" lon="-3.513244">
        <ele>384.274</ele>
        <time>2022-12-06T10:08:44Z</time>
      </trkpt>
      <trkpt lat="36.893145" lon="-3.513223">
        <ele>383.671</ele>
        <time>2022-12-06T10:08:46Z</time>
      </trkpt>
      <trkpt lat="36.893175" lon="-3.513190">
        <ele>382.212</ele>
        <time>2022-12-06T10:08:49Z</time>
      </trkpt>
      <trkpt lat="36.893178" lon="-3.513173">
        <ele>381.662</ele>
        <time>2022-12-06T10:08:50Z</time>
      </trkpt>
      <trkpt lat="36.893187" lon="-3.513142">
        <ele>380.783</ele>
        <time>2022-12-06T10:08:52Z</time>
      </trkpt>
      <trkpt lat="36.893203" lon="-3.513086">
        <ele>380.011</ele>
        <time>2022-12-06T10:08:56Z</time>
      </trkpt>
      <trkpt lat="36.893204" lon="-3.513071">
        <ele>379.609</ele>
        <time>2022-12-06T10:08:57Z</time>
      </trkpt>
      <trkpt lat="36.893214" lon="-3.513035">
        <ele>379.047</ele>
        <time>2022-12-06T10:08:59Z</time>
      </trkpt>
      <trkpt lat="36.893228" lon="-3.513003">
        <ele>378.358</ele>
        <time>2022-12-06T10:09:01Z</time>
      </trkpt>
      <trkpt lat="36.893230" lon="-3.512980">
        <ele>377.636</ele>
        <time>2022-12-06T10:09:03Z</time>
      </trkpt>
      <trkpt lat="36.893236" lon="-3.512973">
        <ele>377.393</ele>
        <time>2022-12-06T10:09:04Z</time>
      </trkpt>
      <trkpt lat="36.893258" lon="-3.512942">
        <ele>376.361</ele>
        <time>2022-12-06T10:09:07Z</time>
      </trkpt>
      <trkpt lat="36.893263" lon="-3.512926">
        <ele>376.215</ele>
        <time>2022-12-06T10:09:08Z</time>
      </trkpt>
      <trkpt lat="36.893272" lon="-3.512913">
        <ele>376.026</ele>
        <time>2022-12-06T10:09:09Z</time>
      </trkpt>
      <trkpt lat="36.893298" lon="-3.512853">
        <ele>375.013</ele>
        <time>2022-12-06T10:09:13Z</time>
      </trkpt>
      <trkpt lat="36.893282" lon="-3.512780">
        <ele>374.084</ele>
        <time>2022-12-06T10:09:17Z</time>
      </trkpt>
      <trkpt lat="36.893262" lon="-3.512724">
        <ele>372.636</ele>
        <time>2022-12-06T10:09:21Z</time>
      </trkpt>
      <trkpt lat="36.893254" lon="-3.512701">
        <ele>371.717</ele>
        <time>2022-12-06T10:09:23Z</time>
      </trkpt>
      <trkpt lat="36.893262" lon="-3.512685">
        <ele>371.318</ele>
        <time>2022-12-06T10:09:24Z</time>
      </trkpt>
      <trkpt lat="36.893266" lon="-3.512655">
        <ele>371.009</ele>
        <time>2022-12-06T10:09:26Z</time>
      </trkpt>
      <trkpt lat="36.893252" lon="-3.512631">
        <ele>370.664</ele>
        <time>2022-12-06T10:09:28Z</time>
      </trkpt>
      <trkpt lat="36.893254" lon="-3.512622">
        <ele>370.335</ele>
        <time>2022-12-06T10:09:29Z</time>
      </trkpt>
      <trkpt lat="36.893277" lon="-3.512630">
        <ele>368.743</ele>
        <time>2022-12-06T10:09:32Z</time>
      </trkpt>
      <trkpt lat="36.893287" lon="-3.512633">
        <ele>368.310</ele>
        <time>2022-12-06T10:09:33Z</time>
      </trkpt>
      <trkpt lat="36.893307" lon="-3.512629">
        <ele>367.798</ele>
        <time>2022-12-06T10:09:35Z</time>
      </trkpt>
      <trkpt lat="36.893320" lon="-3.512598">
        <ele>367.062</ele>
        <time>2022-12-06T10:09:38Z</time>
      </trkpt>
      <trkpt lat="36.893322" lon="-3.512584">
        <ele>366.393</ele>
        <time>2022-12-06T10:09:39Z</time>
      </trkpt>
      <trkpt lat="36.893327" lon="-3.512524">
        <ele>365.320</ele>
        <time>2022-12-06T10:09:43Z</time>
      </trkpt>
      <trkpt lat="36.893335" lon="-3.512461">
        <ele>364.261</ele>
        <time>2022-12-06T10:09:47Z</time>
      </trkpt>
      <trkpt lat="36.893349" lon="-3.512411">
        <ele>363.096</ele>
        <time>2022-12-06T10:09:50Z</time>
      </trkpt>
      <trkpt lat="36.893357" lon="-3.512363">
        <ele>361.731</ele>
        <time>2022-12-06T10:09:53Z</time>
      </trkpt>
      <trkpt lat="36.893351" lon="-3.512346">
        <ele>361.624</ele>
        <time>2022-12-06T10:09:54Z</time>
      </trkpt>
      <trkpt lat="36.893345" lon="-3.512307">
        <ele>360.609</ele>
        <time>2022-12-06T10:09:56Z</time>
      </trkpt>
      <trkpt lat="36.893349" lon="-3.512227">
        <ele>359.380</ele>
        <time>2022-12-06T10:10:00Z</time>
      </trkpt>
      <trkpt lat="36.893349" lon="-3.512170">
        <ele>358.241</ele>
        <time>2022-12-06T10:10:03Z</time>
      </trkpt>
      <trkpt lat="36.893362" lon="-3.512082">
        <ele>356.719</ele>
        <time>2022-12-06T10:10:06Z</time>
      </trkpt>
      <trkpt lat="36.893360" lon="-3.512023">
        <ele>355.766</ele>
        <time>2022-12-06T10:10:08Z</time>
      </trkpt>
      <trkpt lat="36.893370" lon="-3.511969">
        <ele>354.314</ele>
        <time>2022-12-06T10:10:10Z</time>
      </trkpt>
      <trkpt lat="36.893392" lon="-3.511872">
        <ele>353.078</ele>
        <time>2022-12-06T10:10:13Z</time>
      </trkpt>
      <trkpt lat="36.893411" lon="-3.511793">
        <ele>351.669</ele>
        <time>2022-12-06T10:10:16Z</time>
      </trkpt>
      <trkpt lat="36.893431" lon="-3.511746">
        <ele>350.366</ele>
        <time>2022-12-06T10:10:20Z</time>
      </trkpt>
      <trkpt lat="36.893502" lon="-3.511661">
        <ele>349.237</ele>
        <time>2022-12-06T10:10:26Z</time>
      </trkpt>
      <trkpt lat="36.893540" lon="-3.511621">
        <ele>348.071</ele>
        <time>2022-12-06T10:10:28Z</time>
      </trkpt>
      <trkpt lat="36.893579" lon="-3.511574">
        <ele>346.641</ele>
        <time>2022-12-06T10:10:30Z</time>
      </trkpt>
      <trkpt lat="36.893622" lon="-3.511526">
        <ele>345.215</ele>
        <time>2022-12-06T10:10:32Z</time>
      </trkpt>
      <trkpt lat="36.893660" lon="-3.511482">
        <ele>344.209</ele>
        <time>2022-12-06T10:10:34Z</time>
      </trkpt>
      <trkpt lat="36.893702" lon="-3.511404">
        <ele>343.228</ele>
        <time>2022-12-06T10:10:37Z</time>
      </trkpt>
      <trkpt lat="36.893718" lon="-3.511336">
        <ele>342.099</ele>
        <time>2022-12-06T10:10:39Z</time>
      </trkpt>
      <trkpt lat="36.893729" lon="-3.511240">
        <ele>341.077</ele>
        <time>2022-12-06T10:10:42Z</time>
      </trkpt>
      <trkpt lat="36.893740" lon="-3.511213">
        <ele>339.384</ele>
        <time>2022-12-06T10:10:44Z</time>
      </trkpt>
      <trkpt lat="36.893762" lon="-3.511230">
        <ele>338.232</ele>
        <time>2022-12-06T10:10:46Z</time>
      </trkpt>
      <trkpt lat="36.893785" lon="-3.511264">
        <ele>337.036</ele>
        <time>2022-12-06T10:10:48Z</time>
      </trkpt>
      <trkpt lat="36.893812" lon="-3.511338">
        <ele>336.067</ele>
        <time>2022-12-06T10:10:52Z</time>
      </trkpt>
      <trkpt lat="36.893842" lon="-3.511441">
        <ele>334.654</ele>
        <time>2022-12-06T10:10:56Z</time>
      </trkpt>
      <trkpt lat="36.893851" lon="-3.511514">
        <ele>333.625</ele>
        <time>2022-12-06T10:10:59Z</time>
      </trkpt>
      <trkpt lat="36.893855" lon="-3.511555">
        <ele>332.364</ele>
        <time>2022-12-06T10:11:01Z</time>
      </trkpt>
      <trkpt lat="36.893862" lon="-3.511606">
        <ele>331.206</ele>
        <time>2022-12-06T10:11:03Z</time>
      </trkpt>
      <trkpt lat="36.893869" lon="-3.511659">
        <ele>330.016</ele>
        <time>2022-12-06T10:11:05Z</time>
      </trkpt>
      <trkpt lat="36.893881" lon="-3.511682">
        <ele>329.309</ele>
        <time>2022-12-06T10:11:06Z</time>
      </trkpt>
      <trkpt lat="36.893901" lon="-3.511693">
        <ele>329.067</ele>
        <time>2022-12-06T10:11:07Z</time>
      </trkpt>
      <trkpt lat="36.893932" lon="-3.511667">
        <ele>328.278</ele>
        <time>2022-12-06T10:11:09Z</time>
      </trkpt>
      <trkpt lat="36.893945" lon="-3.511642">
        <ele>327.786</ele>
        <time>2022-12-06T10:11:10Z</time>
      </trkpt>
      <trkpt lat="36.894059" lon="-3.511436">
        <ele>326.683</ele>
        <time>2022-12-06T10:11:18Z</time>
      </trkpt>
      <trkpt lat="36.894076" lon="-3.511311">
        <ele>325.331</ele>
        <time>2022-12-06T10:11:22Z</time>
      </trkpt>
      <trkpt lat="36.894051" lon="-3.511186">
        <ele>324.255</ele>
        <time>2022-12-06T10:11:26Z</time>
      </trkpt>
      <trkpt lat="36.894024" lon="-3.511096">
        <ele>323.016</ele>
        <time>2022-12-06T10:11:29Z</time>
      </trkpt>
      <trkpt lat="36.894021" lon="-3.510986">
        <ele>321.653</ele>
        <time>2022-12-06T10:11:33Z</time>
      </trkpt>
      <trkpt lat="36.894056" lon="-3.510988">
        <ele>320.664</ele>
        <time>2022-12-06T10:11:35Z</time>
      </trkpt>
      <trkpt lat="36.894103" lon="-3.511054">
        <ele>319.228</ele>
        <time>2022-12-06T10:11:38Z</time>
      </trkpt>
      <trkpt lat="36.894157" lon="-3.511132">
        <ele>318.089</ele>
        <time>2022-12-06T10:11:41Z</time>
      </trkpt>
      <trkpt lat="36.894193" lon="-3.511179">
        <ele>316.617</ele>
        <time>2022-12-06T10:11:43Z</time>
      </trkpt>
      <trkpt lat="36.894218" lon="-3.511238">
        <ele>315.309</ele>
        <time>2022-12-06T10:11:45Z</time>
      </trkpt>
      <trkpt lat="36.894241" lon="-3.511302">
        <ele>314.393</ele>
        <time>2022-12-06T10:11:47Z</time>
      </trkpt>
      <trkpt lat="36.894256" lon="-3.511368">
        <ele>313.264</ele>
        <time>2022-12-06T10:11:49Z</time>
      </trkpt>
      <trkpt lat="36.894270" lon="-3.511470">
        <ele>311.732</ele>
        <time>2022-12-06T10:11:52Z</time>
      </trkpt>
      <trkpt lat="36.894296" lon="-3.511557">
        <ele>310.369</ele>
        <time>2022-12-06T10:11:55Z</time>
      </trkpt>
      <trkpt lat="36.894318" lon="-3.511609">
        <ele>309.047</ele>
        <time>2022-12-06T10:11:57Z</time>
      </trkpt>
      <trkpt lat="36.894336" lon="-3.511656">
        <ele>308.031</ele>
        <time>2022-12-06T10:11:59Z</time>
      </trkpt>
      <trkpt lat="36.894368" lon="-3.511730">
        <ele>307.012</ele>
        <time>2022-12-06T10:12:02Z</time>
      </trkpt>
      <trkpt lat="36.894397" lon="-3.511789">
        <ele>305.629</ele>
        <time>2022-12-06T10:12:05Z</time>
      </trkpt>
      <trkpt lat="36.894406" lon="-3.511901">
        <ele>304.250</ele>
        <time>2022-12-06T10:12:09Z</time>
      </trkpt>
      <trkpt lat="36.894420" lon="-3.511995">
        <ele>303.363</ele>
        <time>2022-12-06T10:12:12Z</time>
      </trkpt>
      <trkpt lat="36.894416" lon="-3.512021">
        <ele>303.244</ele>
        <time>2022-12-06T10:12:13Z</time>
      </trkpt>
      <trkpt lat="36.894399" lon="-3.512129">
        <ele>303.018</ele>
        <time>2022-12-06T10:12:17Z</time>
      </trkpt>
      <trkpt lat="36.894431" lon="-3.512380">
        <ele>303.209</ele>
        <time>2022-12-06T10:12:25Z</time>
      </trkpt>
      <trkpt lat="36.894494" lon="-3.512570">
        <ele>302.257</ele>
        <time>2022-12-06T10:12:32Z</time>
      </trkpt>
      <trkpt lat="36.894536" lon="-3.512638">
        <ele>301.098</ele>
        <time>2022-12-06T10:12:35Z</time>
      </trkpt>
      <trkpt lat="36.894577" lon="-3.512709">
        <ele>299.796</ele>
        <time>2022-12-06T10:12:38Z</time>
      </trkpt>
      <trkpt lat="36.894581" lon="-3.512741">
        <ele>299.313</ele>
        <time>2022-12-06T10:12:39Z</time>
      </trkpt>
      <trkpt lat="36.894596" lon="-3.512800">
        <ele>298.661</ele>
        <time>2022-12-06T10:12:41Z</time>
      </trkpt>
      <trkpt lat="36.894611" lon="-3.512822">
        <ele>297.715</ele>
        <time>2022-12-06T10:12:42Z</time>
      </trkpt>
      <trkpt lat="36.894627" lon="-3.512843">
        <ele>297.366</ele>
        <time>2022-12-06T10:12:43Z</time>
      </trkpt>
      <trkpt lat="36.894656" lon="-3.512890">
        <ele>296.023</ele>
        <time>2022-12-06T10:12:45Z</time>
      </trkpt>
      <trkpt lat="36.894690" lon="-3.512941">
        <ele>294.634</ele>
        <time>2022-12-06T10:12:47Z</time>
      </trkpt>
      <trkpt lat="36.894725" lon="-3.512984">
        <ele>293.652</ele>
        <time>2022-12-06T10:12:49Z</time>
      </trkpt>
      <trkpt lat="36.894792" lon="-3.513041">
        <ele>292.053</ele>
        <time>2022-12-06T10:12:52Z</time>
      </trkpt>
      <trkpt lat="36.894839" lon="-3.513083">
        <ele>290.608</ele>
        <time>2022-12-06T10:12:54Z</time>
      </trkpt>
      <trkpt lat="36.894911" lon="-3.513153">
        <ele>289.209</ele>
        <time>2022-12-06T10:12:57Z</time>
      </trkpt>
      <trkpt lat="36.894999" lon="-3.513237">
        <ele>288.236</ele>
        <time>2022-12-06T10:13:01Z</time>
      </trkpt>
      <trkpt lat="36.895138" lon="-3.513400">
        <ele>288.627</ele>
        <time>2022-12-06T10:13:09Z</time>
      </trkpt>
      <trkpt lat="36.895257" lon="-3.513597">
        <ele>287.265</ele>
        <time>2022-12-06T10:13:17Z</time>
      </trkpt>
      <trkpt lat="36.895276" lon="-3.513617">
        <ele>287.082</ele>
        <time>2022-12-06T10:13:18Z</time>
      </trkpt>
      <trkpt lat="36.895394" lon="-3.513807">
        <ele>285.790</ele>
        <time>2022-12-06T10:13:25Z</time>
      </trkpt>
      <trkpt lat="36.895441" lon="-3.514041">
        <ele>285.214</ele>
        <time>2022-12-06T10:13:33Z</time>
      </trkpt>
      <trkpt lat="36.895445" lon="-3.514089">
        <ele>285.255</ele>
        <time>2022-12-06T10:13:35Z</time>
      </trkpt>
      <trkpt lat="36.895454" lon="-3.514333">
        <ele>286.312</ele>
        <time>2022-12-06T10:13:44Z</time>
      </trkpt>
      <trkpt lat="36.895453" lon="-3.514371">
        <ele>286.693</ele>
        <time>2022-12-06T10:13:47Z</time>
      </trkpt>
      <trkpt lat="36.895459" lon="-3.514386">
        <ele>286.777</ele>
        <time>2022-12-06T10:13:49Z</time>
      </trkpt>
      <trkpt lat="36.895471" lon="-3.514417">
        <ele>286.761</ele>
        <time>2022-12-06T10:14:18Z</time>
      </trkpt>
      <trkpt lat="36.895431" lon="-3.514443">
        <ele>287.327</ele>
        <time>2022-12-06T10:14:22Z</time>
      </trkpt>
      <trkpt lat="36.895380" lon="-3.514463">
        <ele>287.709</ele>
        <time>2022-12-06T10:14:26Z</time>
      </trkpt>
      <trkpt lat="36.895367" lon="-3.514472">
        <ele>288.048</ele>
        <time>2022-12-06T10:14:27Z</time>
      </trkpt>
      <trkpt lat="36.895234" lon="-3.514645">
        <ele>288.269</ele>
        <time>2022-12-06T10:14:41Z</time>
      </trkpt>
      <trkpt lat="36.895194" lon="-3.514768">
        <ele>288.787</ele>
        <time>2022-12-06T10:14:49Z</time>
      </trkpt>
      <trkpt lat="36.895202" lon="-3.514829">
        <ele>289.654</ele>
        <time>2022-12-06T10:14:52Z</time>
      </trkpt>
      <trkpt lat="36.895224" lon="-3.514885">
        <ele>290.012</ele>
        <time>2022-12-06T10:14:55Z</time>
      </trkpt>
      <trkpt lat="36.895316" lon="-3.515081">
        <ele>289.226</ele>
        <time>2022-12-06T10:15:07Z</time>
      </trkpt>
      <trkpt lat="36.895330" lon="-3.515130">
        <ele>288.777</ele>
        <time>2022-12-06T10:15:10Z</time>
      </trkpt>
      <trkpt lat="36.895323" lon="-3.515154">
        <ele>288.794</ele>
        <time>2022-12-06T10:15:12Z</time>
      </trkpt>
      <trkpt lat="36.895157" lon="-3.515268">
        <ele>288.765</ele>
        <time>2022-12-06T10:15:20Z</time>
      </trkpt>
      <trkpt lat="36.895028" lon="-3.515449">
        <ele>288.275</ele>
        <time>2022-12-06T10:15:27Z</time>
      </trkpt>
      <trkpt lat="36.894999" lon="-3.515458">
        <ele>287.728</ele>
        <time>2022-12-06T10:15:28Z</time>
      </trkpt>
      <trkpt lat="36.894877" lon="-3.515585">
        <ele>287.320</ele>
        <time>2022-12-06T10:15:35Z</time>
      </trkpt>
      <trkpt lat="36.894840" lon="-3.515693">
        <ele>287.209</ele>
        <time>2022-12-06T10:15:39Z</time>
      </trkpt>
      <trkpt lat="36.894842" lon="-3.515773">
        <ele>286.748</ele>
        <time>2022-12-06T10:15:42Z</time>
      </trkpt>
      <trkpt lat="36.894832" lon="-3.515901">
        <ele>285.239</ele>
        <time>2022-12-06T10:15:46Z</time>
      </trkpt>
      <trkpt lat="36.894814" lon="-3.515972">
        <ele>283.717</ele>
        <time>2022-12-06T10:15:48Z</time>
      </trkpt>
      <trkpt lat="36.894781" lon="-3.516049">
        <ele>282.664</ele>
        <time>2022-12-06T10:15:50Z</time>
      </trkpt>
      <trkpt lat="36.894741" lon="-3.516150">
        <ele>281.392</ele>
        <time>2022-12-06T10:15:53Z</time>
      </trkpt>
      <trkpt lat="36.894757" lon="-3.516325">
        <ele>280.226</ele>
        <time>2022-12-06T10:16:00Z</time>
      </trkpt>
      <trkpt lat="36.894793" lon="-3.516483">
        <ele>278.717</ele>
        <time>2022-12-06T10:16:05Z</time>
      </trkpt>
      <trkpt lat="36.894753" lon="-3.516640">
        <ele>277.694</ele>
        <time>2022-12-06T10:16:09Z</time>
      </trkpt>
      <trkpt lat="36.894682" lon="-3.516870">
        <ele>277.345</ele>
        <time>2022-12-06T10:16:18Z</time>
      </trkpt>
      <trkpt lat="36.894703" lon="-3.517035">
        <ele>278.689</ele>
        <time>2022-12-06T10:16:25Z</time>
      </trkpt>
      <trkpt lat="36.894706" lon="-3.517045">
        <ele>278.706</ele>
        <time>2022-12-06T10:16:26Z</time>
      </trkpt>
      <trkpt lat="36.894625" lon="-3.517120">
        <ele>279.226</ele>
        <time>2022-12-06T10:16:31Z</time>
      </trkpt>
      <trkpt lat="36.894633" lon="-3.517188">
        <ele>279.709</ele>
        <time>2022-12-06T10:16:35Z</time>
      </trkpt>
      <trkpt lat="36.894645" lon="-3.517230">
        <ele>279.759</ele>
        <time>2022-12-06T10:16:37Z</time>
      </trkpt>
      <trkpt lat="36.894658" lon="-3.517321">
        <ele>280.610</ele>
        <time>2022-12-06T10:16:42Z</time>
      </trkpt>
      <trkpt lat="36.894655" lon="-3.517336">
        <ele>280.788</ele>
        <time>2022-12-06T10:16:43Z</time>
      </trkpt>
      <trkpt lat="36.894650" lon="-3.517353">
        <ele>281.065</ele>
        <time>2022-12-06T10:16:44Z</time>
      </trkpt>
      <trkpt lat="36.894578" lon="-3.517565">
        <ele>281.383</ele>
        <time>2022-12-06T10:16:59Z</time>
      </trkpt>
      <trkpt lat="36.894553" lon="-3.517649">
        <ele>281.787</ele>
        <time>2022-12-06T10:17:04Z</time>
      </trkpt>
      <trkpt lat="36.894554" lon="-3.517767">
        <ele>283.278</ele>
        <time>2022-12-06T10:17:10Z</time>
      </trkpt>
      <trkpt lat="36.894540" lon="-3.517851">
        <ele>284.345</ele>
        <time>2022-12-06T10:17:14Z</time>
      </trkpt>
      <trkpt lat="36.894527" lon="-3.517882">
        <ele>284.656</ele>
        <time>2022-12-06T10:17:16Z</time>
      </trkpt>
      <trkpt lat="36.894510" lon="-3.517923">
        <ele>285.045</ele>
        <time>2022-12-06T10:17:19Z</time>
      </trkpt>
      <trkpt lat="36.894506" lon="-3.517956">
        <ele>285.247</ele>
        <time>2022-12-06T10:17:21Z</time>
      </trkpt>
      <trkpt lat="36.894507" lon="-3.517973">
        <ele>285.311</ele>
        <time>2022-12-06T10:17:22Z</time>
      </trkpt>
      <trkpt lat="36.894509" lon="-3.518056">
        <ele>285.609</ele>
        <time>2022-12-06T10:17:27Z</time>
      </trkpt>
      <trkpt lat="36.894515" lon="-3.518112">
        <ele>285.695</ele>
        <time>2022-12-06T10:17:30Z</time>
      </trkpt>
      <trkpt lat="36.894511" lon="-3.518312">
        <ele>284.236</ele>
        <time>2022-12-06T10:17:37Z</time>
      </trkpt>
      <trkpt lat="36.894470" lon="-3.518362">
        <ele>282.724</ele>
        <time>2022-12-06T10:17:39Z</time>
      </trkpt>
      <trkpt lat="36.894413" lon="-3.518431">
        <ele>281.681</ele>
        <time>2022-12-06T10:17:42Z</time>
      </trkpt>
      <trkpt lat="36.894346" lon="-3.518531">
        <ele>281.099</ele>
        <time>2022-12-06T10:17:47Z</time>
      </trkpt>
      <trkpt lat="36.894289" lon="-3.518612">
        <ele>280.293</ele>
        <time>2022-12-06T10:17:51Z</time>
      </trkpt>
      <trkpt lat="36.894252" lon="-3.518650">
        <ele>278.764</ele>
        <time>2022-12-06T10:17:53Z</time>
      </trkpt>
      <trkpt lat="36.894217" lon="-3.518726">
        <ele>277.641</ele>
        <time>2022-12-06T10:17:56Z</time>
      </trkpt>
      <trkpt lat="36.894181" lon="-3.518765">
        <ele>275.772</ele>
        <time>2022-12-06T10:17:58Z</time>
      </trkpt>
      <trkpt lat="36.894141" lon="-3.518802">
        <ele>274.617</ele>
        <time>2022-12-06T10:18:00Z</time>
      </trkpt>
      <trkpt lat="36.894102" lon="-3.518873">
        <ele>273.287</ele>
        <time>2022-12-06T10:18:03Z</time>
      </trkpt>
      <trkpt lat="36.894075" lon="-3.518920">
        <ele>271.715</ele>
        <time>2022-12-06T10:18:05Z</time>
      </trkpt>
      <trkpt lat="36.894043" lon="-3.518960">
        <ele>270.609</ele>
        <time>2022-12-06T10:18:07Z</time>
      </trkpt>
      <trkpt lat="36.894014" lon="-3.519012">
        <ele>268.722</ele>
        <time>2022-12-06T10:18:09Z</time>
      </trkpt>
      <trkpt lat="36.894042" lon="-3.519065">
        <ele>267.033</ele>
        <time>2022-12-06T10:18:11Z</time>
      </trkpt>
      <trkpt lat="36.894090" lon="-3.519088">
        <ele>265.781</ele>
        <time>2022-12-06T10:18:13Z</time>
      </trkpt>
      <trkpt lat="36.894151" lon="-3.519071">
        <ele>264.398</ele>
        <time>2022-12-06T10:18:16Z</time>
      </trkpt>
      <trkpt lat="36.894168" lon="-3.519069">
        <ele>263.346</ele>
        <time>2022-12-06T10:18:17Z</time>
      </trkpt>
      <trkpt lat="36.894179" lon="-3.519082">
        <ele>262.640</ele>
        <time>2022-12-06T10:18:18Z</time>
      </trkpt>
      <trkpt lat="36.894176" lon="-3.519103">
        <ele>262.011</ele>
        <time>2022-12-06T10:18:19Z</time>
      </trkpt>
      <trkpt lat="36.894164" lon="-3.519133">
        <ele>261.338</ele>
        <time>2022-12-06T10:18:20Z</time>
      </trkpt>
      <trkpt lat="36.894136" lon="-3.519183">
        <ele>260.379</ele>
        <time>2022-12-06T10:18:22Z</time>
      </trkpt>
      <trkpt lat="36.894115" lon="-3.519224">
        <ele>258.789</ele>
        <time>2022-12-06T10:18:24Z</time>
      </trkpt>
      <trkpt lat="36.894092" lon="-3.519277">
        <ele>257.606</ele>
        <time>2022-12-06T10:18:26Z</time>
      </trkpt>
      <trkpt lat="36.894077" lon="-3.519335">
        <ele>256.326</ele>
        <time>2022-12-06T10:18:28Z</time>
      </trkpt>
      <trkpt lat="36.894063" lon="-3.519412">
        <ele>255.009</ele>
        <time>2022-12-06T10:18:30Z</time>
      </trkpt>
      <trkpt lat="36.894049" lon="-3.519540">
        <ele>253.669</ele>
        <time>2022-12-06T10:18:33Z</time>
      </trkpt>
      <trkpt lat="36.894041" lon="-3.519659">
        <ele>252.160</ele>
        <time>2022-12-06T10:18:36Z</time>
      </trkpt>
      <trkpt lat="36.893939" lon="-3.519847">
        <ele>251.828</ele>
        <time>2022-12-06T10:18:43Z</time>
      </trkpt>
      <trkpt lat="36.893895" lon="-3.520065">
        <ele>252.365</ele>
        <time>2022-12-06T10:18:52Z</time>
      </trkpt>
      <trkpt lat="36.893862" lon="-3.520294">
        <ele>252.853</ele>
        <time>2022-12-06T10:19:00Z</time>
      </trkpt>
      <trkpt lat="36.893834" lon="-3.520517">
        <ele>253.017</ele>
        <time>2022-12-06T10:19:08Z</time>
      </trkpt>
      <trkpt lat="36.893806" lon="-3.520695">
        <ele>253.348</ele>
        <time>2022-12-06T10:19:14Z</time>
      </trkpt>
      <trkpt lat="36.893783" lon="-3.520939">
        <ele>254.665</ele>
        <time>2022-12-06T10:19:22Z</time>
      </trkpt>
      <trkpt lat="36.893665" lon="-3.521122">
        <ele>255.176</ele>
        <time>2022-12-06T10:19:31Z</time>
      </trkpt>
      <trkpt lat="36.893600" lon="-3.521192">
        <ele>254.858</ele>
        <time>2022-12-06T10:19:37Z</time>
      </trkpt>
      <trkpt lat="36.893551" lon="-3.521239">
        <ele>254.652</ele>
        <time>2022-12-06T10:19:43Z</time>
      </trkpt>
      <trkpt lat="36.893458" lon="-3.521340">
        <ele>255.617</ele>
        <time>2022-12-06T10:19:54Z</time>
      </trkpt>
      <trkpt lat="36.893422" lon="-3.521373">
        <ele>255.809</ele>
        <time>2022-12-06T10:19:58Z</time>
      </trkpt>
      <trkpt lat="36.893388" lon="-3.521403">
        <ele>255.856</ele>
        <time>2022-12-06T10:20:02Z</time>
      </trkpt>
      <trkpt lat="36.893386" lon="-3.521451">
        <ele>256.067</ele>
        <time>2022-12-06T10:20:05Z</time>
      </trkpt>
      <trkpt lat="36.893321" lon="-3.521601">
        <ele>256.225</ele>
        <time>2022-12-06T10:20:14Z</time>
      </trkpt>
      <trkpt lat="36.893312" lon="-3.521619">
        <ele>256.352</ele>
        <time>2022-12-06T10:20:15Z</time>
      </trkpt>
      <trkpt lat="36.893268" lon="-3.521755">
        <ele>256.010</ele>
        <time>2022-12-06T10:20:25Z</time>
      </trkpt>
      <trkpt lat="36.893334" lon="-3.521786">
        <ele>255.844</ele>
        <time>2022-12-06T10:20:30Z</time>
      </trkpt>
      <trkpt lat="36.893350" lon="-3.521816">
        <ele>256.015</ele>
        <time>2022-12-06T10:20:32Z</time>
      </trkpt>
      <trkpt lat="36.893426" lon="-3.521988">
        <ele>256.332</ele>
        <time>2022-12-06T10:20:42Z</time>
      </trkpt>
      <trkpt lat="36.893446" lon="-3.522015">
        <ele>256.263</ele>
        <time>2022-12-06T10:20:46Z</time>
      </trkpt>
      <trkpt lat="36.893460" lon="-3.522030">
        <ele>256.337</ele>
        <time>2022-12-06T10:20:48Z</time>
      </trkpt>
      <trkpt lat="36.893494" lon="-3.522080">
        <ele>256.649</ele>
        <time>2022-12-06T10:20:53Z</time>
      </trkpt>
      <trkpt lat="36.893505" lon="-3.522094">
        <ele>256.713</ele>
        <time>2022-12-06T10:20:54Z</time>
      </trkpt>
      <trkpt lat="36.893574" lon="-3.522285">
        <ele>257.609</ele>
        <time>2022-12-06T10:21:06Z</time>
      </trkpt>
      <trkpt lat="36.893580" lon="-3.522306">
        <ele>257.614</ele>
        <time>2022-12-06T10:21:09Z</time>
      </trkpt>
      <trkpt lat="36.893607" lon="-3.522354">
        <ele>257.375</ele>
        <time>2022-12-06T10:21:16Z</time>
      </trkpt>
      <trkpt lat="36.893633" lon="-3.522470">
        <ele>257.373</ele>
        <time>2022-12-06T10:21:22Z</time>
      </trkpt>
      <trkpt lat="36.893656" lon="-3.522554">
        <ele>257.630</ele>
        <time>2022-12-06T10:21:28Z</time>
      </trkpt>
      <trkpt lat="36.893721" lon="-3.522725">
        <ele>258.648</ele>
        <time>2022-12-06T10:21:42Z</time>
      </trkpt>
      <trkpt lat="36.893736" lon="-3.522779">
        <ele>258.652</ele>
        <time>2022-12-06T10:21:49Z</time>
      </trkpt>
      <trkpt lat="36.893764" lon="-3.522833">
        <ele>258.353</ele>
        <time>2022-12-06T10:21:58Z</time>
      </trkpt>
      <trkpt lat="36.893817" lon="-3.522958">
        <ele>258.790</ele>
        <time>2022-12-06T10:22:09Z</time>
      </trkpt>
      <trkpt lat="36.893840" lon="-3.523027">
        <ele>259.721</ele>
        <time>2022-12-06T10:22:15Z</time>
      </trkpt>
      <trkpt lat="36.893841" lon="-3.523030">
        <ele>259.735</ele>
        <time>2022-12-06T10:22:16Z</time>
      </trkpt>
      <trkpt lat="36.893837" lon="-3.523040">
        <ele>259.786</ele>
        <time>2022-12-06T10:22:18Z</time>
      </trkpt>
      <trkpt lat="36.893839" lon="-3.523121">
        <ele>259.714</ele>
        <time>2022-12-06T10:22:27Z</time>
      </trkpt>
      <trkpt lat="36.893870" lon="-3.523156">
        <ele>259.709</ele>
        <time>2022-12-06T10:22:31Z</time>
      </trkpt>
      <trkpt lat="36.893885" lon="-3.523172">
        <ele>259.774</ele>
        <time>2022-12-06T10:22:33Z</time>
      </trkpt>
      <trkpt lat="36.893979" lon="-3.523367">
        <ele>260.675</ele>
        <time>2022-12-06T10:22:45Z</time>
      </trkpt>
      <trkpt lat="36.894076" lon="-3.523557">
        <ele>260.273</ele>
        <time>2022-12-06T10:22:58Z</time>
      </trkpt>
      <trkpt lat="36.894199" lon="-3.523739">
        <ele>260.370</ele>
        <time>2022-12-06T10:23:11Z</time>
      </trkpt>
      <trkpt lat="36.894323" lon="-3.523925">
        <ele>261.068</ele>
        <time>2022-12-06T10:23:24Z</time>
      </trkpt>
      <trkpt lat="36.894437" lon="-3.524078">
        <ele>262.012</ele>
        <time>2022-12-06T10:23:35Z</time>
      </trkpt>
      <trkpt lat="36.894575" lon="-3.524236">
        <ele>262.293</ele>
        <time>2022-12-06T10:23:47Z</time>
      </trkpt>
      <trkpt lat="36.894710" lon="-3.524402">
        <ele>262.640</ele>
        <time>2022-12-06T10:24:00Z</time>
      </trkpt>
      <trkpt lat="36.894746" lon="-3.524436">
        <ele>263.081</ele>
        <time>2022-12-06T10:24:03Z</time>
      </trkpt>
      <trkpt lat="36.894795" lon="-3.524490">
        <ele>263.232</ele>
        <time>2022-12-06T10:24:07Z</time>
      </trkpt>
      <trkpt lat="36.894883" lon="-3.524607">
        <ele>263.392</ele>
        <time>2022-12-06T10:24:16Z</time>
      </trkpt>
      <trkpt lat="36.894841" lon="-3.524777">
        <ele>264.011</ele>
        <time>2022-12-06T10:24:26Z</time>
      </trkpt>
      <trkpt lat="36.894947" lon="-3.524958">
        <ele>264.709</ele>
        <time>2022-12-06T10:24:37Z</time>
      </trkpt>
      <trkpt lat="36.894991" lon="-3.525003">
        <ele>265.074</ele>
        <time>2022-12-06T10:24:40Z</time>
      </trkpt>
      <trkpt lat="36.895128" lon="-3.525174">
        <ele>265.665</ele>
        <time>2022-12-06T10:24:52Z</time>
      </trkpt>
      <trkpt lat="36.895161" lon="-3.525230">
        <ele>266.263</ele>
        <time>2022-12-06T10:24:56Z</time>
      </trkpt>
      <trkpt lat="36.895212" lon="-3.525301">
        <ele>267.230</ele>
        <time>2022-12-06T10:25:02Z</time>
      </trkpt>
      <trkpt lat="36.895223" lon="-3.525308">
        <ele>267.338</ele>
        <time>2022-12-06T10:25:03Z</time>
      </trkpt>
      <trkpt lat="36.895299" lon="-3.525386">
        <ele>268.242</ele>
        <time>2022-12-06T10:25:09Z</time>
      </trkpt>
      <trkpt lat="36.895373" lon="-3.525430">
        <ele>269.343</ele>
        <time>2022-12-06T10:25:15Z</time>
      </trkpt>
      <trkpt lat="36.895428" lon="-3.525498">
        <ele>270.360</ele>
        <time>2022-12-06T10:25:21Z</time>
      </trkpt>
      <trkpt lat="36.895442" lon="-3.525527">
        <ele>270.771</ele>
        <time>2022-12-06T10:25:24Z</time>
      </trkpt>
      <trkpt lat="36.895383" lon="-3.525484">
        <ele>271.638</ele>
        <time>2022-12-06T10:25:28Z</time>
      </trkpt>
      <trkpt lat="36.895323" lon="-3.525421">
        <ele>272.670</ele>
        <time>2022-12-06T10:25:33Z</time>
      </trkpt>
      <trkpt lat="36.895310" lon="-3.525418">
        <ele>272.717</ele>
        <time>2022-12-06T10:25:34Z</time>
      </trkpt>
      <trkpt lat="36.895217" lon="-3.525469">
        <ele>273.709</ele>
        <time>2022-12-06T10:25:42Z</time>
      </trkpt>
      <trkpt lat="36.895167" lon="-3.525449">
        <ele>274.354</ele>
        <time>2022-12-06T10:25:45Z</time>
      </trkpt>
      <trkpt lat="36.895105" lon="-3.525431">
        <ele>274.795</ele>
        <time>2022-12-06T10:25:48Z</time>
      </trkpt>
      <trkpt lat="36.895006" lon="-3.525466">
        <ele>276.013</ele>
        <time>2022-12-06T10:25:55Z</time>
      </trkpt>
      <trkpt lat="36.894929" lon="-3.525529">
        <ele>277.270</ele>
        <time>2022-12-06T10:26:01Z</time>
      </trkpt>
      <trkpt lat="36.894817" lon="-3.525608">
        <ele>278.248</ele>
        <time>2022-12-06T10:26:09Z</time>
      </trkpt>
      <trkpt lat="36.894698" lon="-3.525645">
        <ele>279.312</ele>
        <time>2022-12-06T10:26:16Z</time>
      </trkpt>
      <trkpt lat="36.894622" lon="-3.525639">
        <ele>280.313</ele>
        <time>2022-12-06T10:26:21Z</time>
      </trkpt>
      <trkpt lat="36.894454" lon="-3.525545">
        <ele>281.320</ele>
        <time>2022-12-06T10:26:30Z</time>
      </trkpt>
      <trkpt lat="36.894439" lon="-3.525563">
        <ele>281.611</ele>
        <time>2022-12-06T10:26:31Z</time>
      </trkpt>
      <trkpt lat="36.894370" lon="-3.525607">
        <ele>282.649</ele>
        <time>2022-12-06T10:26:36Z</time>
      </trkpt>
      <trkpt lat="36.894301" lon="-3.525624">
        <ele>283.702</ele>
        <time>2022-12-06T10:26:41Z</time>
      </trkpt>
      <trkpt lat="36.894256" lon="-3.525691">
        <ele>284.722</ele>
        <time>2022-12-06T10:26:45Z</time>
      </trkpt>
      <trkpt lat="36.894254" lon="-3.525720">
        <ele>285.009</ele>
        <time>2022-12-06T10:26:46Z</time>
      </trkpt>
      <trkpt lat="36.894260" lon="-3.525743">
        <ele>285.075</ele>
        <time>2022-12-06T10:26:47Z</time>
      </trkpt>
      <trkpt lat="36.894307" lon="-3.525776">
        <ele>286.086</ele>
        <time>2022-12-06T10:26:51Z</time>
      </trkpt>
      <trkpt lat="36.894345" lon="-3.525804">
        <ele>287.274</ele>
        <time>2022-12-06T10:26:55Z</time>
      </trkpt>
      <trkpt lat="36.894416" lon="-3.525851">
        <ele>288.071</ele>
        <time>2022-12-06T10:27:00Z</time>
      </trkpt>
      <trkpt lat="36.894434" lon="-3.525851">
        <ele>288.219</ele>
        <time>2022-12-06T10:27:01Z</time>
      </trkpt>
      <trkpt lat="36.894483" lon="-3.525854">
        <ele>289.023</ele>
        <time>2022-12-06T10:27:05Z</time>
      </trkpt>
      <trkpt lat="36.894503" lon="-3.525859">
        <ele>289.384</ele>
        <time>2022-12-06T10:27:07Z</time>
      </trkpt>
      <trkpt lat="36.894555" lon="-3.525871">
        <ele>290.641</ele>
        <time>2022-12-06T10:27:14Z</time>
      </trkpt>
      <trkpt lat="36.894583" lon="-3.525870">
        <ele>291.082</ele>
        <time>2022-12-06T10:27:16Z</time>
      </trkpt>
      <trkpt lat="36.894604" lon="-3.525869">
        <ele>291.227</ele>
        <time>2022-12-06T10:27:18Z</time>
      </trkpt>
      <trkpt lat="36.894622" lon="-3.525862">
        <ele>291.668</ele>
        <time>2022-12-06T10:27:20Z</time>
      </trkpt>
      <trkpt lat="36.894662" lon="-3.525841">
        <ele>292.214</ele>
        <time>2022-12-06T10:27:23Z</time>
      </trkpt>
      <trkpt lat="36.894709" lon="-3.525844">
        <ele>292.609</ele>
        <time>2022-12-06T10:27:26Z</time>
      </trkpt>
      <trkpt lat="36.894808" lon="-3.525835">
        <ele>293.793</ele>
        <time>2022-12-06T10:27:33Z</time>
      </trkpt>
      <trkpt lat="36.894820" lon="-3.525841">
        <ele>294.014</ele>
        <time>2022-12-06T10:27:34Z</time>
      </trkpt>
      <trkpt lat="36.894851" lon="-3.525842">
        <ele>294.662</ele>
        <time>2022-12-06T10:27:37Z</time>
      </trkpt>
      <trkpt lat="36.894891" lon="-3.525845">
        <ele>295.089</ele>
        <time>2022-12-06T10:27:40Z</time>
      </trkpt>
      <trkpt lat="36.894903" lon="-3.525843">
        <ele>295.297</ele>
        <time>2022-12-06T10:27:41Z</time>
      </trkpt>
      <trkpt lat="36.894979" lon="-3.525848">
        <ele>296.261</ele>
        <time>2022-12-06T10:27:46Z</time>
      </trkpt>
      <trkpt lat="36.895075" lon="-3.525864">
        <ele>297.292</ele>
        <time>2022-12-06T10:27:52Z</time>
      </trkpt>
      <trkpt lat="36.895112" lon="-3.525880">
        <ele>297.679</ele>
        <time>2022-12-06T10:27:55Z</time>
      </trkpt>
      <trkpt lat="36.895164" lon="-3.525888">
        <ele>298.270</ele>
        <time>2022-12-06T10:27:59Z</time>
      </trkpt>
      <trkpt lat="36.895212" lon="-3.525916">
        <ele>298.781</ele>
        <time>2022-12-06T10:28:04Z</time>
      </trkpt>
      <trkpt lat="36.895248" lon="-3.525947">
        <ele>299.261</ele>
        <time>2022-12-06T10:28:08Z</time>
      </trkpt>
      <trkpt lat="36.895279" lon="-3.525957">
        <ele>299.617</ele>
        <time>2022-12-06T10:28:12Z</time>
      </trkpt>
      <trkpt lat="36.895303" lon="-3.525973">
        <ele>299.709</ele>
        <time>2022-12-06T10:28:15Z</time>
      </trkpt>
      <trkpt lat="36.895328" lon="-3.525971">
        <ele>300.039</ele>
        <time>2022-12-06T10:28:17Z</time>
      </trkpt>
      <trkpt lat="36.895352" lon="-3.525983">
        <ele>300.210</ele>
        <time>2022-12-06T10:28:19Z</time>
      </trkpt>
      <trkpt lat="36.895379" lon="-3.526006">
        <ele>300.348</ele>
        <time>2022-12-06T10:28:22Z</time>
      </trkpt>
      <trkpt lat="36.895397" lon="-3.526022">
        <ele>300.315</ele>
        <time>2022-12-06T10:28:24Z</time>
      </trkpt>
      <trkpt lat="36.895415" lon="-3.526034">
        <ele>300.333</ele>
        <time>2022-12-06T10:28:28Z</time>
      </trkpt>
      <trkpt lat="36.895421" lon="-3.526026">
        <ele>300.357</ele>
        <time>2022-12-06T10:28:29Z</time>
      </trkpt>
      <trkpt lat="36.895425" lon="-3.526019">
        <ele>300.338</ele>
        <time>2022-12-06T10:28:31Z</time>
      </trkpt>
      <trkpt lat="36.895425" lon="-3.526015">
        <ele>300.385</ele>
        <time>2022-12-06T10:28:33Z</time>
      </trkpt>
      <trkpt lat="36.895418" lon="-3.526012">
        <ele>300.266</ele>
        <time>2022-12-06T10:28:38Z</time>
      </trkpt>
      <trkpt lat="36.895424" lon="-3.526070">
        <ele>300.377</ele>
        <time>2022-12-06T10:30:34Z</time>
      </trkpt>
      <trkpt lat="36.895415" lon="-3.526074">
        <ele>300.361</ele>
        <time>2022-12-06T10:30:37Z</time>
      </trkpt>
      <trkpt lat="36.895493" lon="-3.526065">
        <ele>300.027</ele>
        <time>2022-12-06T10:32:06Z</time>
      </trkpt>
      <trkpt lat="36.895520" lon="-3.526115">
        <ele>300.209</ele>
        <time>2022-12-06T10:32:10Z</time>
      </trkpt>
      <trkpt lat="36.895593" lon="-3.526211">
        <ele>300.798</ele>
        <time>2022-12-06T10:32:16Z</time>
      </trkpt>
      <trkpt lat="36.895625" lon="-3.526266">
        <ele>301.099</ele>
        <time>2022-12-06T10:32:20Z</time>
      </trkpt>
      <trkpt lat="36.895665" lon="-3.526291">
        <ele>301.087</ele>
        <time>2022-12-06T10:32:22Z</time>
      </trkpt>
      <trkpt lat="36.895743" lon="-3.526361">
        <ele>301.284</ele>
        <time>2022-12-06T10:32:29Z</time>
      </trkpt>
      <trkpt lat="36.895749" lon="-3.526371">
        <ele>301.352</ele>
        <time>2022-12-06T10:32:30Z</time>
      </trkpt>
      <trkpt lat="36.895795" lon="-3.526382">
        <ele>302.626</ele>
        <time>2022-12-06T10:32:37Z</time>
      </trkpt>
      <trkpt lat="36.895804" lon="-3.526374">
        <ele>302.647</ele>
        <time>2022-12-06T10:32:38Z</time>
      </trkpt>
      <trkpt lat="36.895866" lon="-3.526343">
        <ele>303.214</ele>
        <time>2022-12-06T10:32:43Z</time>
      </trkpt>
      <trkpt lat="36.895893" lon="-3.526336">
        <ele>303.655</ele>
        <time>2022-12-06T10:32:45Z</time>
      </trkpt>
      <trkpt lat="36.895921" lon="-3.526285">
        <ele>304.737</ele>
        <time>2022-12-06T10:32:49Z</time>
      </trkpt>
      <trkpt lat="36.895942" lon="-3.526285">
        <ele>305.649</ele>
        <time>2022-12-06T10:32:52Z</time>
      </trkpt>
      <trkpt lat="36.895945" lon="-3.526291">
        <ele>305.713</ele>
        <time>2022-12-06T10:32:53Z</time>
      </trkpt>
      <trkpt lat="36.895959" lon="-3.526325">
        <ele>307.009</ele>
        <time>2022-12-06T10:32:57Z</time>
      </trkpt>
      <trkpt lat="36.895948" lon="-3.526363">
        <ele>308.284</ele>
        <time>2022-12-06T10:33:01Z</time>
      </trkpt>
      <trkpt lat="36.895945" lon="-3.526408">
        <ele>309.395</ele>
        <time>2022-12-06T10:33:06Z</time>
      </trkpt>
      <trkpt lat="36.895950" lon="-3.526425">
        <ele>310.023</ele>
        <time>2022-12-06T10:33:09Z</time>
      </trkpt>
      <trkpt lat="36.895954" lon="-3.526439">
        <ele>310.690</ele>
        <time>2022-12-06T10:33:11Z</time>
      </trkpt>
      <trkpt lat="36.895978" lon="-3.526452">
        <ele>311.048</ele>
        <time>2022-12-06T10:33:13Z</time>
      </trkpt>
      <trkpt lat="36.896010" lon="-3.526457">
        <ele>311.672</ele>
        <time>2022-12-06T10:33:16Z</time>
      </trkpt>
      <trkpt lat="36.896023" lon="-3.526452">
        <ele>312.063</ele>
        <time>2022-12-06T10:33:18Z</time>
      </trkpt>
      <trkpt lat="36.896037" lon="-3.526425">
        <ele>312.660</ele>
        <time>2022-12-06T10:33:21Z</time>
      </trkpt>
      <trkpt lat="36.896060" lon="-3.526416">
        <ele>313.741</ele>
        <time>2022-12-06T10:33:27Z</time>
      </trkpt>
      <trkpt lat="36.896086" lon="-3.526474">
        <ele>314.781</ele>
        <time>2022-12-06T10:33:33Z</time>
      </trkpt>
      <trkpt lat="36.896101" lon="-3.526524">
        <ele>315.261</ele>
        <time>2022-12-06T10:33:36Z</time>
      </trkpt>
      <trkpt lat="36.896133" lon="-3.526511">
        <ele>315.617</ele>
        <time>2022-12-06T10:33:39Z</time>
      </trkpt>
      <trkpt lat="36.896142" lon="-3.526542">
        <ele>316.009</ele>
        <time>2022-12-06T10:33:41Z</time>
      </trkpt>
      <trkpt lat="36.896161" lon="-3.526569">
        <ele>316.389</ele>
        <time>2022-12-06T10:33:43Z</time>
      </trkpt>
      <trkpt lat="36.896181" lon="-3.526601">
        <ele>317.030</ele>
        <time>2022-12-06T10:33:46Z</time>
      </trkpt>
      <trkpt lat="36.896192" lon="-3.526634">
        <ele>317.278</ele>
        <time>2022-12-06T10:33:48Z</time>
      </trkpt>
      <trkpt lat="36.896239" lon="-3.526681">
        <ele>316.245</ele>
        <time>2022-12-06T10:33:54Z</time>
      </trkpt>
      <trkpt lat="36.896266" lon="-3.526745">
        <ele>316.223</ele>
        <time>2022-12-06T10:33:58Z</time>
      </trkpt>
      <trkpt lat="36.896276" lon="-3.526815">
        <ele>316.247</ele>
        <time>2022-12-06T10:34:02Z</time>
      </trkpt>
      <trkpt lat="36.896274" lon="-3.526919">
        <ele>316.028</ele>
        <time>2022-12-06T10:34:08Z</time>
      </trkpt>
      <trkpt lat="36.896334" lon="-3.527032">
        <ele>315.625</ele>
        <time>2022-12-06T10:34:16Z</time>
      </trkpt>
      <trkpt lat="36.896347" lon="-3.527092">
        <ele>314.776</ele>
        <time>2022-12-06T10:34:20Z</time>
      </trkpt>
      <trkpt lat="36.896348" lon="-3.527197">
        <ele>313.361</ele>
        <time>2022-12-06T10:34:25Z</time>
      </trkpt>
      <trkpt lat="36.896349" lon="-3.527262">
        <ele>311.721</ele>
        <time>2022-12-06T10:34:27Z</time>
      </trkpt>
      <trkpt lat="36.896364" lon="-3.527314">
        <ele>310.713</ele>
        <time>2022-12-06T10:34:29Z</time>
      </trkpt>
      <trkpt lat="36.896373" lon="-3.527335">
        <ele>310.309</ele>
        <time>2022-12-06T10:34:30Z</time>
      </trkpt>
      <trkpt lat="36.896400" lon="-3.527402">
        <ele>309.387</ele>
        <time>2022-12-06T10:34:33Z</time>
      </trkpt>
      <trkpt lat="36.896411" lon="-3.527417">
        <ele>309.258</ele>
        <time>2022-12-06T10:34:34Z</time>
      </trkpt>
      <trkpt lat="36.896436" lon="-3.527392">
        <ele>308.286</ele>
        <time>2022-12-06T10:34:36Z</time>
      </trkpt>
      <trkpt lat="36.896461" lon="-3.527319">
        <ele>306.773</ele>
        <time>2022-12-06T10:34:39Z</time>
      </trkpt>
      <trkpt lat="36.896477" lon="-3.527272">
        <ele>305.621</ele>
        <time>2022-12-06T10:34:41Z</time>
      </trkpt>
      <trkpt lat="36.896493" lon="-3.527225">
        <ele>303.625</ele>
        <time>2022-12-06T10:34:43Z</time>
      </trkpt>
      <trkpt lat="36.896511" lon="-3.527192">
        <ele>302.346</ele>
        <time>2022-12-06T10:34:45Z</time>
      </trkpt>
      <trkpt lat="36.896535" lon="-3.527200">
        <ele>301.293</ele>
        <time>2022-12-06T10:34:47Z</time>
      </trkpt>
      <trkpt lat="36.896549" lon="-3.527254">
        <ele>300.214</ele>
        <time>2022-12-06T10:34:49Z</time>
      </trkpt>
      <trkpt lat="36.896555" lon="-3.527287">
        <ele>299.648</ele>
        <time>2022-12-06T10:34:50Z</time>
      </trkpt>
      <trkpt lat="36.896587" lon="-3.527386">
        <ele>298.361</ele>
        <time>2022-12-06T10:34:53Z</time>
      </trkpt>
      <trkpt lat="36.896622" lon="-3.527420">
        <ele>297.717</ele>
        <time>2022-12-06T10:34:55Z</time>
      </trkpt>
      <trkpt lat="36.896683" lon="-3.527394">
        <ele>298.309</ele>
        <time>2022-12-06T10:34:59Z</time>
      </trkpt>
      <trkpt lat="36.896712" lon="-3.527358">
        <ele>299.315</ele>
        <time>2022-12-06T10:35:02Z</time>
      </trkpt>
      <trkpt lat="36.896718" lon="-3.527349">
        <ele>299.696</ele>
        <time>2022-12-06T10:35:03Z</time>
      </trkpt>
      <trkpt lat="36.896730" lon="-3.527335">
        <ele>300.074</ele>
        <time>2022-12-06T10:35:05Z</time>
      </trkpt>
      <trkpt lat="36.896775" lon="-3.527338">
        <ele>300.781</ele>
        <time>2022-12-06T10:35:08Z</time>
      </trkpt>
      <trkpt lat="36.896812" lon="-3.527318">
        <ele>302.069</ele>
        <time>2022-12-06T10:35:12Z</time>
      </trkpt>
      <trkpt lat="36.896850" lon="-3.527317">
        <ele>303.243</ele>
        <time>2022-12-06T10:35:17Z</time>
      </trkpt>
      <trkpt lat="36.896880" lon="-3.527300">
        <ele>304.074</ele>
        <time>2022-12-06T10:35:21Z</time>
      </trkpt>
      <trkpt lat="36.896896" lon="-3.527287">
        <ele>304.381</ele>
        <time>2022-12-06T10:35:23Z</time>
      </trkpt>
      <trkpt lat="36.896911" lon="-3.527283">
        <ele>304.612</ele>
        <time>2022-12-06T10:35:25Z</time>
      </trkpt>
      <trkpt lat="36.896950" lon="-3.527255">
        <ele>305.296</ele>
        <time>2022-12-06T10:35:29Z</time>
      </trkpt>
      <trkpt lat="36.896974" lon="-3.527241">
        <ele>305.331</ele>
        <time>2022-12-06T10:35:31Z</time>
      </trkpt>
      <trkpt lat="36.897026" lon="-3.527164">
        <ele>306.324</ele>
        <time>2022-12-06T10:35:38Z</time>
      </trkpt>
      <trkpt lat="36.897074" lon="-3.527092">
        <ele>307.309</ele>
        <time>2022-12-06T10:35:44Z</time>
      </trkpt>
      <trkpt lat="36.897228" lon="-3.527052">
        <ele>308.040</ele>
        <time>2022-12-06T10:36:01Z</time>
      </trkpt>
      <trkpt lat="36.897410" lon="-3.527122">
        <ele>307.391</ele>
        <time>2022-12-06T10:36:14Z</time>
      </trkpt>
      <trkpt lat="36.897504" lon="-3.527227">
        <ele>306.679</ele>
        <time>2022-12-06T10:36:20Z</time>
      </trkpt>
      <trkpt lat="36.897596" lon="-3.527285">
        <ele>306.336</ele>
        <time>2022-12-06T10:36:24Z</time>
      </trkpt>
      <trkpt lat="36.897771" lon="-3.527344">
        <ele>305.744</ele>
        <time>2022-12-06T10:36:32Z</time>
      </trkpt>
      <trkpt lat="36.897839" lon="-3.527451">
        <ele>306.258</ele>
        <time>2022-12-06T10:36:37Z</time>
      </trkpt>
      <trkpt lat="36.897892" lon="-3.527675">
        <ele>306.359</ele>
        <time>2022-12-06T10:36:45Z</time>
      </trkpt>
      <trkpt lat="36.897939" lon="-3.527906">
        <ele>307.226</ele>
        <time>2022-12-06T10:36:53Z</time>
      </trkpt>
      <trkpt lat="36.897952" lon="-3.527962">
        <ele>307.377</ele>
        <time>2022-12-06T10:36:55Z</time>
      </trkpt>
      <trkpt lat="36.898056" lon="-3.528139">
        <ele>307.759</ele>
        <time>2022-12-06T10:37:03Z</time>
      </trkpt>
      <trkpt lat="36.898229" lon="-3.528248">
        <ele>307.303</ele>
        <time>2022-12-06T10:37:11Z</time>
      </trkpt>
      <trkpt lat="36.898297" lon="-3.528279">
        <ele>307.223</ele>
        <time>2022-12-06T10:37:14Z</time>
      </trkpt>
      <trkpt lat="36.898342" lon="-3.528287">
        <ele>307.009</ele>
        <time>2022-12-06T10:37:16Z</time>
      </trkpt>
      <trkpt lat="36.898393" lon="-3.528314">
        <ele>306.066</ele>
        <time>2022-12-06T10:37:18Z</time>
      </trkpt>
      <trkpt lat="36.898500" lon="-3.528411">
        <ele>304.757</ele>
        <time>2022-12-06T10:37:23Z</time>
      </trkpt>
      <trkpt lat="36.898528" lon="-3.528460">
        <ele>303.715</ele>
        <time>2022-12-06T10:37:25Z</time>
      </trkpt>
      <trkpt lat="36.898540" lon="-3.528491">
        <ele>303.372</ele>
        <time>2022-12-06T10:37:26Z</time>
      </trkpt>
      <trkpt lat="36.898583" lon="-3.528679">
        <ele>302.340</ele>
        <time>2022-12-06T10:37:32Z</time>
      </trkpt>
      <trkpt lat="36.898596" lon="-3.528771">
        <ele>301.264</ele>
        <time>2022-12-06T10:37:35Z</time>
      </trkpt>
      <trkpt lat="36.898611" lon="-3.528804">
        <ele>300.795</ele>
        <time>2022-12-06T10:37:37Z</time>
      </trkpt>
      <trkpt lat="36.898626" lon="-3.528834">
        <ele>300.242</ele>
        <time>2022-12-06T10:37:39Z</time>
      </trkpt>
      <trkpt lat="36.898636" lon="-3.528853">
        <ele>300.023</ele>
        <time>2022-12-06T10:37:40Z</time>
      </trkpt>
      <trkpt lat="36.898651" lon="-3.528912">
        <ele>298.367</ele>
        <time>2022-12-06T10:37:43Z</time>
      </trkpt>
      <trkpt lat="36.898655" lon="-3.528955">
        <ele>297.081</ele>
        <time>2022-12-06T10:37:45Z</time>
      </trkpt>
      <trkpt lat="36.898670" lon="-3.529008">
        <ele>295.719</ele>
        <time>2022-12-06T10:37:47Z</time>
      </trkpt>
      <trkpt lat="36.898692" lon="-3.529060">
        <ele>294.309</ele>
        <time>2022-12-06T10:37:49Z</time>
      </trkpt>
      <trkpt lat="36.898731" lon="-3.529105">
        <ele>293.097</ele>
        <time>2022-12-06T10:37:51Z</time>
      </trkpt>
      <trkpt lat="36.898810" lon="-3.529186">
        <ele>291.768</ele>
        <time>2022-12-06T10:37:55Z</time>
      </trkpt>
      <trkpt lat="36.898850" lon="-3.529207">
        <ele>290.646</ele>
        <time>2022-12-06T10:37:57Z</time>
      </trkpt>
      <trkpt lat="36.898901" lon="-3.529232">
        <ele>289.323</ele>
        <time>2022-12-06T10:37:59Z</time>
      </trkpt>
      <trkpt lat="36.898996" lon="-3.529267">
        <ele>288.291</ele>
        <time>2022-12-06T10:38:02Z</time>
      </trkpt>
      <trkpt lat="36.899040" lon="-3.529310">
        <ele>287.795</ele>
        <time>2022-12-06T10:38:04Z</time>
      </trkpt>
      <trkpt lat="36.899085" lon="-3.529369">
        <ele>287.246</ele>
        <time>2022-12-06T10:38:07Z</time>
      </trkpt>
      <trkpt lat="36.899093" lon="-3.529396">
        <ele>286.763</ele>
        <time>2022-12-06T10:38:09Z</time>
      </trkpt>
      <trkpt lat="36.899091" lon="-3.529411">
        <ele>285.784</ele>
        <time>2022-12-06T10:38:11Z</time>
      </trkpt>
      <trkpt lat="36.899085" lon="-3.529417">
        <ele>284.682</ele>
        <time>2022-12-06T10:38:13Z</time>
      </trkpt>
      <trkpt lat="36.899073" lon="-3.529441">
        <ele>284.243</ele>
        <time>2022-12-06T10:38:18Z</time>
      </trkpt>
      <trkpt lat="36.899100" lon="-3.529544">
        <ele>284.617</ele>
        <time>2022-12-06T10:38:25Z</time>
      </trkpt>
      <trkpt lat="36.899128" lon="-3.529615">
        <ele>285.309</ele>
        <time>2022-12-06T10:38:30Z</time>
      </trkpt>
      <trkpt lat="36.899154" lon="-3.529623">
        <ele>286.049</ele>
        <time>2022-12-06T10:38:32Z</time>
      </trkpt>
      <trkpt lat="36.899159" lon="-3.529627">
        <ele>286.040</ele>
        <time>2022-12-06T10:38:33Z</time>
      </trkpt>
      <trkpt lat="36.899177" lon="-3.529674">
        <ele>287.058</ele>
        <time>2022-12-06T10:38:37Z</time>
      </trkpt>
      <trkpt lat="36.899176" lon="-3.529716">
        <ele>287.365</ele>
        <time>2022-12-06T10:38:40Z</time>
      </trkpt>
      <trkpt lat="36.899168" lon="-3.529733">
        <ele>288.043</ele>
        <time>2022-12-06T10:38:44Z</time>
      </trkpt>
      <trkpt lat="36.899160" lon="-3.529738">
        <ele>288.277</ele>
        <time>2022-12-06T10:38:45Z</time>
      </trkpt>
      <trkpt lat="36.899159" lon="-3.529755">
        <ele>288.748</ele>
        <time>2022-12-06T10:38:48Z</time>
      </trkpt>
      <trkpt lat="36.899160" lon="-3.529768">
        <ele>289.215</ele>
        <time>2022-12-06T10:38:49Z</time>
      </trkpt>
      <trkpt lat="36.899170" lon="-3.529793">
        <ele>289.666</ele>
        <time>2022-12-06T10:38:51Z</time>
      </trkpt>
      <trkpt lat="36.899204" lon="-3.529780">
        <ele>290.264</ele>
        <time>2022-12-06T10:38:54Z</time>
      </trkpt>
      <trkpt lat="36.899230" lon="-3.529750">
        <ele>290.706</ele>
        <time>2022-12-06T10:38:56Z</time>
      </trkpt>
      <trkpt lat="36.899259" lon="-3.529717">
        <ele>291.316</ele>
        <time>2022-12-06T10:38:59Z</time>
      </trkpt>
      <trkpt lat="36.899320" lon="-3.529655">
        <ele>292.309</ele>
        <time>2022-12-06T10:39:07Z</time>
      </trkpt>
      <trkpt lat="36.899363" lon="-3.529631">
        <ele>293.697</ele>
        <time>2022-12-06T10:39:12Z</time>
      </trkpt>
      <trkpt lat="36.899403" lon="-3.529620">
        <ele>294.678</ele>
        <time>2022-12-06T10:39:17Z</time>
      </trkpt>
      <trkpt lat="36.899406" lon="-3.529611">
        <ele>294.796</ele>
        <time>2022-12-06T10:39:18Z</time>
      </trkpt>
      <trkpt lat="36.899409" lon="-3.529562">
        <ele>295.313</ele>
        <time>2022-12-06T10:39:21Z</time>
      </trkpt>
      <trkpt lat="36.899408" lon="-3.529547">
        <ele>295.691</ele>
        <time>2022-12-06T10:39:22Z</time>
      </trkpt>
      <trkpt lat="36.899436" lon="-3.529454">
        <ele>296.665</ele>
        <time>2022-12-06T10:39:28Z</time>
      </trkpt>
      <trkpt lat="36.899454" lon="-3.529420">
        <ele>297.376</ele>
        <time>2022-12-06T10:39:31Z</time>
      </trkpt>
      <trkpt lat="36.899457" lon="-3.529399">
        <ele>297.793</ele>
        <time>2022-12-06T10:39:33Z</time>
      </trkpt>
      <trkpt lat="36.899467" lon="-3.529386">
        <ele>298.274</ele>
        <time>2022-12-06T10:39:35Z</time>
      </trkpt>
      <trkpt lat="36.899487" lon="-3.529375">
        <ele>298.778</ele>
        <time>2022-12-06T10:39:38Z</time>
      </trkpt>
      <trkpt lat="36.899543" lon="-3.529362">
        <ele>300.033</ele>
        <time>2022-12-06T10:39:43Z</time>
      </trkpt>
      <trkpt lat="36.899563" lon="-3.529359">
        <ele>300.326</ele>
        <time>2022-12-06T10:39:45Z</time>
      </trkpt>
      <trkpt lat="36.899574" lon="-3.529364">
        <ele>300.709</ele>
        <time>2022-12-06T10:39:47Z</time>
      </trkpt>
      <trkpt lat="36.899574" lon="-3.529369">
        <ele>301.098</ele>
        <time>2022-12-06T10:39:48Z</time>
      </trkpt>
      <trkpt lat="36.899563" lon="-3.529377">
        <ele>301.369</ele>
        <time>2022-12-06T10:39:50Z</time>
      </trkpt>
      <trkpt lat="36.899549" lon="-3.529395">
        <ele>301.737</ele>
        <time>2022-12-06T10:39:53Z</time>
      </trkpt>
      <trkpt lat="36.899553" lon="-3.529402">
        <ele>302.294</ele>
        <time>2022-12-06T10:39:54Z</time>
      </trkpt>
      <trkpt lat="36.899573" lon="-3.529419">
        <ele>303.012</ele>
        <time>2022-12-06T10:39:57Z</time>
      </trkpt>
      <trkpt lat="36.899580" lon="-3.529423">
        <ele>303.256</ele>
        <time>2022-12-06T10:39:58Z</time>
      </trkpt>
      <trkpt lat="36.899573" lon="-3.529459">
        <ele>303.747</ele>
        <time>2022-12-06T10:40:02Z</time>
      </trkpt>
      <trkpt lat="36.899576" lon="-3.529466">
        <ele>304.214</ele>
        <time>2022-12-06T10:40:03Z</time>
      </trkpt>
      <trkpt lat="36.899602" lon="-3.529481">
        <ele>305.325</ele>
        <time>2022-12-06T10:40:07Z</time>
      </trkpt>
      <trkpt lat="36.899612" lon="-3.529491">
        <ele>305.784</ele>
        <time>2022-12-06T10:40:09Z</time>
      </trkpt>
      <trkpt lat="36.899616" lon="-3.529510">
        <ele>306.307</ele>
        <time>2022-12-06T10:40:11Z</time>
      </trkpt>
      <trkpt lat="36.899640" lon="-3.529528">
        <ele>307.617</ele>
        <time>2022-12-06T10:40:15Z</time>
      </trkpt>
      <trkpt lat="36.899645" lon="-3.529532">
        <ele>307.709</ele>
        <time>2022-12-06T10:40:16Z</time>
      </trkpt>
      <trkpt lat="36.899661" lon="-3.529553">
        <ele>308.659</ele>
        <time>2022-12-06T10:40:19Z</time>
      </trkpt>
      <trkpt lat="36.899664" lon="-3.529564">
        <ele>308.780</ele>
        <time>2022-12-06T10:40:20Z</time>
      </trkpt>
      <trkpt lat="36.899665" lon="-3.529571">
        <ele>309.038</ele>
        <time>2022-12-06T10:40:21Z</time>
      </trkpt>
      <trkpt lat="36.899643" lon="-3.529568">
        <ele>309.795</ele>
        <time>2022-12-06T10:40:25Z</time>
      </trkpt>
      <trkpt lat="36.899635" lon="-3.529576">
        <ele>310.253</ele>
        <time>2022-12-06T10:40:27Z</time>
      </trkpt>
      <trkpt lat="36.899647" lon="-3.529592">
        <ele>311.027</ele>
        <time>2022-12-06T10:40:31Z</time>
      </trkpt>
      <trkpt lat="36.899651" lon="-3.529625">
        <ele>312.278</ele>
        <time>2022-12-06T10:40:37Z</time>
      </trkpt>
      <trkpt lat="36.899664" lon="-3.529657">
        <ele>312.785</ele>
        <time>2022-12-06T10:40:40Z</time>
      </trkpt>
      <trkpt lat="36.899681" lon="-3.529657">
        <ele>313.376</ele>
        <time>2022-12-06T10:40:43Z</time>
      </trkpt>
      <trkpt lat="36.899694" lon="-3.529659">
        <ele>313.724</ele>
        <time>2022-12-06T10:40:45Z</time>
      </trkpt>
      <trkpt lat="36.899717" lon="-3.529665">
        <ele>314.604</ele>
        <time>2022-12-06T10:40:48Z</time>
      </trkpt>
      <trkpt lat="36.899693" lon="-3.529715">
        <ele>315.614</ele>
        <time>2022-12-06T10:40:54Z</time>
      </trkpt>
      <trkpt lat="36.899676" lon="-3.529743">
        <ele>316.709</ele>
        <time>2022-12-06T10:40:58Z</time>
      </trkpt>
      <trkpt lat="36.899675" lon="-3.529764">
        <ele>317.233</ele>
        <time>2022-12-06T10:41:00Z</time>
      </trkpt>
      <trkpt lat="36.899681" lon="-3.529782">
        <ele>317.654</ele>
        <time>2022-12-06T10:41:02Z</time>
      </trkpt>
      <trkpt lat="36.899691" lon="-3.529791">
        <ele>317.712</ele>
        <time>2022-12-06T10:41:03Z</time>
      </trkpt>
      <trkpt lat="36.899715" lon="-3.529790">
        <ele>318.769</ele>
        <time>2022-12-06T10:41:07Z</time>
      </trkpt>
      <trkpt lat="36.899734" lon="-3.529772">
        <ele>320.067</ele>
        <time>2022-12-06T10:41:11Z</time>
      </trkpt>
      <trkpt lat="36.899732" lon="-3.529810">
        <ele>321.211</ele>
        <time>2022-12-06T10:41:18Z</time>
      </trkpt>
      <trkpt lat="36.899765" lon="-3.529840">
        <ele>322.362</ele>
        <time>2022-12-06T10:41:24Z</time>
      </trkpt>
      <trkpt lat="36.899784" lon="-3.529870">
        <ele>323.679</ele>
        <time>2022-12-06T10:41:29Z</time>
      </trkpt>
      <trkpt lat="36.899732" lon="-3.529858">
        <ele>324.660</ele>
        <time>2022-12-06T10:41:35Z</time>
      </trkpt>
      <trkpt lat="36.899724" lon="-3.529860">
        <ele>324.753</ele>
        <time>2022-12-06T10:41:36Z</time>
      </trkpt>
      <trkpt lat="36.899717" lon="-3.529868">
        <ele>325.204</ele>
        <time>2022-12-06T10:41:38Z</time>
      </trkpt>
      <trkpt lat="36.899730" lon="-3.529892">
        <ele>325.614</ele>
        <time>2022-12-06T10:41:41Z</time>
      </trkpt>
      <trkpt lat="36.899804" lon="-3.529924">
        <ele>326.709</ele>
        <time>2022-12-06T10:41:49Z</time>
      </trkpt>
      <trkpt lat="36.899854" lon="-3.529934">
        <ele>327.666</ele>
        <time>2022-12-06T10:41:54Z</time>
      </trkpt>
      <trkpt lat="36.899853" lon="-3.529949">
        <ele>328.037</ele>
        <time>2022-12-06T10:41:56Z</time>
      </trkpt>
      <trkpt lat="36.899787" lon="-3.529980">
        <ele>329.015</ele>
        <time>2022-12-06T10:42:03Z</time>
      </trkpt>
      <trkpt lat="36.899785" lon="-3.529989">
        <ele>329.212</ele>
        <time>2022-12-06T10:42:04Z</time>
      </trkpt>
      <trkpt lat="36.899782" lon="-3.530004">
        <ele>329.320</ele>
        <time>2022-12-06T10:42:06Z</time>
      </trkpt>
      <trkpt lat="36.899812" lon="-3.530022">
        <ele>330.264</ele>
        <time>2022-12-06T10:42:10Z</time>
      </trkpt>
      <trkpt lat="36.899819" lon="-3.530026">
        <ele>330.385</ele>
        <time>2022-12-06T10:42:11Z</time>
      </trkpt>
      <trkpt lat="36.899851" lon="-3.530056">
        <ele>331.012</ele>
        <time>2022-12-06T10:42:15Z</time>
      </trkpt>
      <trkpt lat="36.899850" lon="-3.530064">
        <ele>331.373</ele>
        <time>2022-12-06T10:42:16Z</time>
      </trkpt>
      <trkpt lat="36.899841" lon="-3.530074">
        <ele>331.617</ele>
        <time>2022-12-06T10:42:17Z</time>
      </trkpt>
      <trkpt lat="36.899826" lon="-3.530086">
        <ele>331.787</ele>
        <time>2022-12-06T10:42:19Z</time>
      </trkpt>
      <trkpt lat="36.899803" lon="-3.530102">
        <ele>332.315</ele>
        <time>2022-12-06T10:42:22Z</time>
      </trkpt>
      <trkpt lat="36.899820" lon="-3.530125">
        <ele>333.609</ele>
        <time>2022-12-06T10:42:27Z</time>
      </trkpt>
      <trkpt lat="36.899866" lon="-3.530173">
        <ele>334.612</ele>
        <time>2022-12-06T10:42:33Z</time>
      </trkpt>
      <trkpt lat="36.899894" lon="-3.530212">
        <ele>335.723</ele>
        <time>2022-12-06T10:42:37Z</time>
      </trkpt>
      <trkpt lat="36.899900" lon="-3.530240">
        <ele>336.761</ele>
        <time>2022-12-06T10:42:42Z</time>
      </trkpt>
      <trkpt lat="36.899876" lon="-3.530250">
        <ele>337.648</ele>
        <time>2022-12-06T10:42:46Z</time>
      </trkpt>
      <trkpt lat="36.899879" lon="-3.530258">
        <ele>338.036</ele>
        <time>2022-12-06T10:42:47Z</time>
      </trkpt>
      <trkpt lat="36.899911" lon="-3.530276">
        <ele>338.760</ele>
        <time>2022-12-06T10:42:51Z</time>
      </trkpt>
      <trkpt lat="36.899918" lon="-3.530281">
        <ele>339.031</ele>
        <time>2022-12-06T10:42:52Z</time>
      </trkpt>
      <trkpt lat="36.899921" lon="-3.530286">
        <ele>339.248</ele>
        <time>2022-12-06T10:42:53Z</time>
      </trkpt>
      <trkpt lat="36.899883" lon="-3.530296">
        <ele>340.099</ele>
        <time>2022-12-06T10:42:58Z</time>
      </trkpt>
      <trkpt lat="36.899837" lon="-3.530317">
        <ele>341.257</ele>
        <time>2022-12-06T10:43:05Z</time>
      </trkpt>
      <trkpt lat="36.899857" lon="-3.530362">
        <ele>342.200</ele>
        <time>2022-12-06T10:43:11Z</time>
      </trkpt>
      <trkpt lat="36.899888" lon="-3.530394">
        <ele>343.320</ele>
        <time>2022-12-06T10:43:16Z</time>
      </trkpt>
      <trkpt lat="36.899926" lon="-3.530462">
        <ele>344.609</ele>
        <time>2022-12-06T10:43:22Z</time>
      </trkpt>
      <trkpt lat="36.899947" lon="-3.530500">
        <ele>345.226</ele>
        <time>2022-12-06T10:43:26Z</time>
      </trkpt>
      <trkpt lat="36.899930" lon="-3.530503">
        <ele>345.737</ele>
        <time>2022-12-06T10:43:29Z</time>
      </trkpt>
      <trkpt lat="36.899898" lon="-3.530501">
        <ele>346.785</ele>
        <time>2022-12-06T10:43:34Z</time>
      </trkpt>
      <trkpt lat="36.899870" lon="-3.530527">
        <ele>347.722</ele>
        <time>2022-12-06T10:43:39Z</time>
      </trkpt>
      <trkpt lat="36.899860" lon="-3.530556">
        <ele>348.760</ele>
        <time>2022-12-06T10:43:44Z</time>
      </trkpt>
      <trkpt lat="36.899877" lon="-3.530580">
        <ele>350.054</ele>
        <time>2022-12-06T10:43:49Z</time>
      </trkpt>
      <trkpt lat="36.899916" lon="-3.530622">
        <ele>350.725</ele>
        <time>2022-12-06T10:43:53Z</time>
      </trkpt>
      <trkpt lat="36.899924" lon="-3.530630">
        <ele>351.092</ele>
        <time>2022-12-06T10:43:54Z</time>
      </trkpt>
      <trkpt lat="36.899938" lon="-3.530649">
        <ele>351.343</ele>
        <time>2022-12-06T10:43:56Z</time>
      </trkpt>
      <trkpt lat="36.899941" lon="-3.530686">
        <ele>352.227</ele>
        <time>2022-12-06T10:44:00Z</time>
      </trkpt>
      <trkpt lat="36.899947" lon="-3.530721">
        <ele>353.368</ele>
        <time>2022-12-06T10:44:04Z</time>
      </trkpt>
      <trkpt lat="36.899965" lon="-3.530767">
        <ele>354.314</ele>
        <time>2022-12-06T10:44:09Z</time>
      </trkpt>
      <trkpt lat="36.899984" lon="-3.530800">
        <ele>355.609</ele>
        <time>2022-12-06T10:44:13Z</time>
      </trkpt>
      <trkpt lat="36.900020" lon="-3.530849">
        <ele>356.623</ele>
        <time>2022-12-06T10:44:19Z</time>
      </trkpt>
      <trkpt lat="36.900023" lon="-3.530856">
        <ele>356.764</ele>
        <time>2022-12-06T10:44:20Z</time>
      </trkpt>
      <trkpt lat="36.900041" lon="-3.530872">
        <ele>357.352</ele>
        <time>2022-12-06T10:44:23Z</time>
      </trkpt>
      <trkpt lat="36.900047" lon="-3.530877">
        <ele>357.629</ele>
        <time>2022-12-06T10:44:24Z</time>
      </trkpt>
      <trkpt lat="36.900072" lon="-3.530900">
        <ele>358.697</ele>
        <time>2022-12-06T10:44:29Z</time>
      </trkpt>
      <trkpt lat="36.900086" lon="-3.530944">
        <ele>359.711</ele>
        <time>2022-12-06T10:44:34Z</time>
      </trkpt>
      <trkpt lat="36.900115" lon="-3.530980">
        <ele>360.782</ele>
        <time>2022-12-06T10:44:39Z</time>
      </trkpt>
      <trkpt lat="36.900145" lon="-3.530996">
        <ele>361.789</ele>
        <time>2022-12-06T10:44:44Z</time>
      </trkpt>
      <trkpt lat="36.900179" lon="-3.531021">
        <ele>362.680</ele>
        <time>2022-12-06T10:44:48Z</time>
      </trkpt>
      <trkpt lat="36.900202" lon="-3.531037">
        <ele>363.077</ele>
        <time>2022-12-06T10:44:50Z</time>
      </trkpt>
      <trkpt lat="36.900212" lon="-3.531043">
        <ele>363.061</ele>
        <time>2022-12-06T10:44:51Z</time>
      </trkpt>
      <trkpt lat="36.900229" lon="-3.531057">
        <ele>363.327</ele>
        <time>2022-12-06T10:44:53Z</time>
      </trkpt>
      <trkpt lat="36.900264" lon="-3.531094">
        <ele>364.009</ele>
        <time>2022-12-06T10:44:58Z</time>
      </trkpt>
      <trkpt lat="36.900275" lon="-3.531096">
        <ele>364.228</ele>
        <time>2022-12-06T10:44:59Z</time>
      </trkpt>
      <trkpt lat="36.900311" lon="-3.531133">
        <ele>365.279</ele>
        <time>2022-12-06T10:45:03Z</time>
      </trkpt>
      <trkpt lat="36.900318" lon="-3.531146">
        <ele>365.347</ele>
        <time>2022-12-06T10:45:05Z</time>
      </trkpt>
      <trkpt lat="36.900326" lon="-3.531157">
        <ele>365.734</ele>
        <time>2022-12-06T10:45:07Z</time>
      </trkpt>
      <trkpt lat="36.900338" lon="-3.531160">
        <ele>366.292</ele>
        <time>2022-12-06T10:45:09Z</time>
      </trkpt>
      <trkpt lat="36.900391" lon="-3.531220">
        <ele>367.376</ele>
        <time>2022-12-06T10:45:18Z</time>
      </trkpt>
      <trkpt lat="36.900478" lon="-3.531253">
        <ele>368.377</ele>
        <time>2022-12-06T10:45:25Z</time>
      </trkpt>
      <trkpt lat="36.900539" lon="-3.531265">
        <ele>369.234</ele>
        <time>2022-12-06T10:45:29Z</time>
      </trkpt>
      <trkpt lat="36.900563" lon="-3.531262">
        <ele>369.315</ele>
        <time>2022-12-06T10:45:31Z</time>
      </trkpt>
      <trkpt lat="36.900579" lon="-3.531264">
        <ele>369.621</ele>
        <time>2022-12-06T10:45:32Z</time>
      </trkpt>
      <trkpt lat="36.900599" lon="-3.531280">
        <ele>369.741</ele>
        <time>2022-12-06T10:45:34Z</time>
      </trkpt>
      <trkpt lat="36.900617" lon="-3.531296">
        <ele>369.705</ele>
        <time>2022-12-06T10:45:36Z</time>
      </trkpt>
      <trkpt lat="36.900646" lon="-3.531302">
        <ele>370.009</ele>
        <time>2022-12-06T10:45:39Z</time>
      </trkpt>
      <trkpt lat="36.900675" lon="-3.531327">
        <ele>370.393</ele>
        <time>2022-12-06T10:45:43Z</time>
      </trkpt>
      <trkpt lat="36.900700" lon="-3.531360">
        <ele>370.754</ele>
        <time>2022-12-06T10:45:46Z</time>
      </trkpt>
      <trkpt lat="36.900723" lon="-3.531395">
        <ele>371.632</ele>
        <time>2022-12-06T10:45:50Z</time>
      </trkpt>
      <trkpt lat="36.900763" lon="-3.531444">
        <ele>372.789</ele>
        <time>2022-12-06T10:45:56Z</time>
      </trkpt>
      <trkpt lat="36.900800" lon="-3.531492">
        <ele>373.687</ele>
        <time>2022-12-06T10:46:02Z</time>
      </trkpt>
      <trkpt lat="36.900805" lon="-3.531497">
        <ele>373.721</ele>
        <time>2022-12-06T10:46:03Z</time>
      </trkpt>
      <trkpt lat="36.900813" lon="-3.531499">
        <ele>374.072</ele>
        <time>2022-12-06T10:46:04Z</time>
      </trkpt>
      <trkpt lat="36.900838" lon="-3.531498">
        <ele>374.249</ele>
        <time>2022-12-06T10:46:06Z</time>
      </trkpt>
      <trkpt lat="36.900838" lon="-3.531524">
        <ele>374.210</ele>
        <time>2022-12-06T10:46:10Z</time>
      </trkpt>
      <trkpt lat="36.900869" lon="-3.531544">
        <ele>374.322</ele>
        <time>2022-12-06T10:46:13Z</time>
      </trkpt>
      <trkpt lat="36.900901" lon="-3.531565">
        <ele>374.762</ele>
        <time>2022-12-06T10:46:15Z</time>
      </trkpt>
      <trkpt lat="36.900976" lon="-3.531632">
        <ele>375.708</ele>
        <time>2022-12-06T10:46:22Z</time>
      </trkpt>
      <trkpt lat="36.901007" lon="-3.531646">
        <ele>376.309</ele>
        <time>2022-12-06T10:46:25Z</time>
      </trkpt>
      <trkpt lat="36.901002" lon="-3.531680">
        <ele>376.783</ele>
        <time>2022-12-06T10:46:27Z</time>
      </trkpt>
      <trkpt lat="36.900997" lon="-3.531688">
        <ele>377.014</ele>
        <time>2022-12-06T10:46:28Z</time>
      </trkpt>
      <trkpt lat="36.900955" lon="-3.531710">
        <ele>378.022</ele>
        <time>2022-12-06T10:46:33Z</time>
      </trkpt>
      <trkpt lat="36.900948" lon="-3.531714">
        <ele>378.219</ele>
        <time>2022-12-06T10:46:34Z</time>
      </trkpt>
      <trkpt lat="36.900927" lon="-3.531713">
        <ele>379.097</ele>
        <time>2022-12-06T10:46:38Z</time>
      </trkpt>
      <trkpt lat="36.900925" lon="-3.531705">
        <ele>379.281</ele>
        <time>2022-12-06T10:46:39Z</time>
      </trkpt>
      <trkpt lat="36.900916" lon="-3.531689">
        <ele>379.792</ele>
        <time>2022-12-06T10:46:41Z</time>
      </trkpt>
      <trkpt lat="36.900901" lon="-3.531688">
        <ele>380.379</ele>
        <time>2022-12-06T10:46:44Z</time>
      </trkpt>
      <trkpt lat="36.900931" lon="-3.531711">
        <ele>381.020</ele>
        <time>2022-12-06T10:46:48Z</time>
      </trkpt>
      <trkpt lat="36.900948" lon="-3.531725">
        <ele>381.396</ele>
        <time>2022-12-06T10:46:50Z</time>
      </trkpt>
      <trkpt lat="36.900986" lon="-3.531780">
        <ele>382.331</ele>
        <time>2022-12-06T10:46:56Z</time>
      </trkpt>
      <trkpt lat="36.900995" lon="-3.531802">
        <ele>382.724</ele>
        <time>2022-12-06T10:46:58Z</time>
      </trkpt>
      <trkpt lat="36.901009" lon="-3.531811">
        <ele>383.009</ele>
        <time>2022-12-06T10:47:00Z</time>
      </trkpt>
      <trkpt lat="36.901020" lon="-3.531818">
        <ele>383.220</ele>
        <time>2022-12-06T10:47:01Z</time>
      </trkpt>
      <trkpt lat="36.901036" lon="-3.531832">
        <ele>383.391</ele>
        <time>2022-12-06T10:47:03Z</time>
      </trkpt>
      <trkpt lat="36.901055" lon="-3.531854">
        <ele>384.099</ele>
        <time>2022-12-06T10:47:06Z</time>
      </trkpt>
      <trkpt lat="36.901065" lon="-3.531876">
        <ele>384.646</ele>
        <time>2022-12-06T10:47:09Z</time>
      </trkpt>
      <trkpt lat="36.901089" lon="-3.531910">
        <ele>385.324</ele>
        <time>2022-12-06T10:47:13Z</time>
      </trkpt>
      <trkpt lat="36.901102" lon="-3.531927">
        <ele>385.758</ele>
        <time>2022-12-06T10:47:15Z</time>
      </trkpt>
      <trkpt lat="36.901112" lon="-3.531940">
        <ele>386.229</ele>
        <time>2022-12-06T10:47:17Z</time>
      </trkpt>
      <trkpt lat="36.901141" lon="-3.531966">
        <ele>386.736</ele>
        <time>2022-12-06T10:47:21Z</time>
      </trkpt>
      <trkpt lat="36.901146" lon="-3.531973">
        <ele>387.067</ele>
        <time>2022-12-06T10:47:22Z</time>
      </trkpt>
      <trkpt lat="36.901189" lon="-3.532010">
        <ele>388.058</ele>
        <time>2022-12-06T10:47:28Z</time>
      </trkpt>
      <trkpt lat="36.901225" lon="-3.532054">
        <ele>389.252</ele>
        <time>2022-12-06T10:47:34Z</time>
      </trkpt>
      <trkpt lat="36.901236" lon="-3.532069">
        <ele>389.717</ele>
        <time>2022-12-06T10:47:36Z</time>
      </trkpt>
      <trkpt lat="36.901248" lon="-3.532080">
        <ele>390.209</ele>
        <time>2022-12-06T10:47:38Z</time>
      </trkpt>
      <trkpt lat="36.901258" lon="-3.532087">
        <ele>390.346</ele>
        <time>2022-12-06T10:47:39Z</time>
      </trkpt>
      <trkpt lat="36.901277" lon="-3.532097">
        <ele>390.797</ele>
        <time>2022-12-06T10:47:41Z</time>
      </trkpt>
      <trkpt lat="36.901326" lon="-3.532153">
        <ele>391.315</ele>
        <time>2022-12-06T10:47:47Z</time>
      </trkpt>
      <trkpt lat="36.901411" lon="-3.532257">
        <ele>392.342</ele>
        <time>2022-12-06T10:47:59Z</time>
      </trkpt>
      <trkpt lat="36.901415" lon="-3.532262">
        <ele>392.620</ele>
        <time>2022-12-06T10:48:01Z</time>
      </trkpt>
      <trkpt lat="36.901414" lon="-3.532257">
        <ele>393.634</ele>
        <time>2022-12-06T10:48:05Z</time>
      </trkpt>
      <trkpt lat="36.901442" lon="-3.532265">
        <ele>394.755</ele>
        <time>2022-12-06T10:48:10Z</time>
      </trkpt>
      <trkpt lat="36.901470" lon="-3.532290">
        <ele>396.032</ele>
        <time>2022-12-06T10:48:14Z</time>
      </trkpt>
      <trkpt lat="36.901497" lon="-3.532308">
        <ele>397.213</ele>
        <time>2022-12-06T10:48:18Z</time>
      </trkpt>
      <trkpt lat="36.901530" lon="-3.532338">
        <ele>398.283</ele>
        <time>2022-12-06T10:48:22Z</time>
      </trkpt>
      <trkpt lat="36.901548" lon="-3.532388">
        <ele>399.225</ele>
        <time>2022-12-06T10:48:27Z</time>
      </trkpt>
      <trkpt lat="36.901548" lon="-3.532399">
        <ele>399.217</ele>
        <time>2022-12-06T10:48:28Z</time>
      </trkpt>
      <trkpt lat="36.901552" lon="-3.532408">
        <ele>399.309</ele>
        <time>2022-12-06T10:48:29Z</time>
      </trkpt>
      <trkpt lat="36.901594" lon="-3.532436">
        <ele>400.299</ele>
        <time>2022-12-06T10:48:34Z</time>
      </trkpt>
      <trkpt lat="36.901614" lon="-3.532470">
        <ele>401.230</ele>
        <time>2022-12-06T10:48:39Z</time>
      </trkpt>
      <trkpt lat="36.901605" lon="-3.532474">
        <ele>401.318</ele>
        <time>2022-12-06T10:48:40Z</time>
      </trkpt>
      <trkpt lat="36.901570" lon="-3.532466">
        <ele>401.785</ele>
        <time>2022-12-06T10:48:44Z</time>
      </trkpt>
      <trkpt lat="36.901547" lon="-3.532454">
        <ele>402.383</ele>
        <time>2022-12-06T10:48:46Z</time>
      </trkpt>
      <trkpt lat="36.901538" lon="-3.532453">
        <ele>402.657</ele>
        <time>2022-12-06T10:48:47Z</time>
      </trkpt>
      <trkpt lat="36.901542" lon="-3.532480">
        <ele>403.328</ele>
        <time>2022-12-06T10:48:51Z</time>
      </trkpt>
      <trkpt lat="36.901550" lon="-3.532488">
        <ele>403.635</ele>
        <time>2022-12-06T10:48:52Z</time>
      </trkpt>
      <trkpt lat="36.901611" lon="-3.532553">
        <ele>404.696</ele>
        <time>2022-12-06T10:48:59Z</time>
      </trkpt>
      <trkpt lat="36.901645" lon="-3.532611">
        <ele>406.045</ele>
        <time>2022-12-06T10:49:05Z</time>
      </trkpt>
      <trkpt lat="36.901663" lon="-3.532664">
        <ele>406.747</ele>
        <time>2022-12-06T10:49:10Z</time>
      </trkpt>
      <trkpt lat="36.901667" lon="-3.532669">
        <ele>407.011</ele>
        <time>2022-12-06T10:49:11Z</time>
      </trkpt>
      <trkpt lat="36.901669" lon="-3.532677">
        <ele>407.309</ele>
        <time>2022-12-06T10:49:12Z</time>
      </trkpt>
      <trkpt lat="36.901681" lon="-3.532693">
        <ele>408.065</ele>
        <time>2022-12-06T10:49:15Z</time>
      </trkpt>
      <trkpt lat="36.901683" lon="-3.532699">
        <ele>408.026</ele>
        <time>2022-12-06T10:49:16Z</time>
      </trkpt>
      <trkpt lat="36.901706" lon="-3.532738">
        <ele>408.684</ele>
        <time>2022-12-06T10:49:20Z</time>
      </trkpt>
      <trkpt lat="36.901729" lon="-3.532762">
        <ele>409.251</ele>
        <time>2022-12-06T10:49:23Z</time>
      </trkpt>
      <trkpt lat="36.901764" lon="-3.532806">
        <ele>410.259</ele>
        <time>2022-12-06T10:49:28Z</time>
      </trkpt>
      <trkpt lat="36.901770" lon="-3.532817">
        <ele>410.333</ele>
        <time>2022-12-06T10:49:29Z</time>
      </trkpt>
      <trkpt lat="36.901789" lon="-3.532837">
        <ele>410.764</ele>
        <time>2022-12-06T10:49:32Z</time>
      </trkpt>
      <trkpt lat="36.901773" lon="-3.532849">
        <ele>411.211</ele>
        <time>2022-12-06T10:49:35Z</time>
      </trkpt>
      <trkpt lat="36.901766" lon="-3.532852">
        <ele>411.662</ele>
        <time>2022-12-06T10:49:36Z</time>
      </trkpt>
      <trkpt lat="36.901739" lon="-3.532856">
        <ele>412.315</ele>
        <time>2022-12-06T10:49:40Z</time>
      </trkpt>
      <trkpt lat="36.901697" lon="-3.532824">
        <ele>413.665</ele>
        <time>2022-12-06T10:49:45Z</time>
      </trkpt>
      <trkpt lat="36.901647" lon="-3.532813">
        <ele>414.611</ele>
        <time>2022-12-06T10:49:50Z</time>
      </trkpt>
      <trkpt lat="36.901599" lon="-3.532807">
        <ele>415.709</ele>
        <time>2022-12-06T10:49:56Z</time>
      </trkpt>
      <trkpt lat="36.901564" lon="-3.532803">
        <ele>417.012</ele>
        <time>2022-12-06T10:50:00Z</time>
      </trkpt>
      <trkpt lat="36.901578" lon="-3.532835">
        <ele>417.743</ele>
        <time>2022-12-06T10:50:04Z</time>
      </trkpt>
      <trkpt lat="36.901587" lon="-3.532847">
        <ele>418.231</ele>
        <time>2022-12-06T10:50:05Z</time>
      </trkpt>
      <trkpt lat="36.901622" lon="-3.532874">
        <ele>419.248</ele>
        <time>2022-12-06T10:50:09Z</time>
      </trkpt>
      <trkpt lat="36.901673" lon="-3.532916">
        <ele>420.346</ele>
        <time>2022-12-06T10:50:15Z</time>
      </trkpt>
      <trkpt lat="36.901678" lon="-3.532926">
        <ele>420.620</ele>
        <time>2022-12-06T10:50:16Z</time>
      </trkpt>
      <trkpt lat="36.901710" lon="-3.532967">
        <ele>421.221</ele>
        <time>2022-12-06T10:50:21Z</time>
      </trkpt>
      <trkpt lat="36.901715" lon="-3.532971">
        <ele>421.378</ele>
        <time>2022-12-06T10:50:22Z</time>
      </trkpt>
      <trkpt lat="36.901717" lon="-3.532978">
        <ele>421.769</ele>
        <time>2022-12-06T10:50:23Z</time>
      </trkpt>
      <trkpt lat="36.901690" lon="-3.533004">
        <ele>422.692</ele>
        <time>2022-12-06T10:50:27Z</time>
      </trkpt>
      <trkpt lat="36.901682" lon="-3.533007">
        <ele>422.773</ele>
        <time>2022-12-06T10:50:28Z</time>
      </trkpt>
      <trkpt lat="36.901648" lon="-3.533019">
        <ele>423.720</ele>
        <time>2022-12-06T10:50:33Z</time>
      </trkpt>
      <trkpt lat="36.901612" lon="-3.533008">
        <ele>424.709</ele>
        <time>2022-12-06T10:50:38Z</time>
      </trkpt>
      <trkpt lat="36.901604" lon="-3.533028">
        <ele>425.740</ele>
        <time>2022-12-06T10:50:42Z</time>
      </trkpt>
      <trkpt lat="36.901625" lon="-3.533065">
        <ele>426.731</ele>
        <time>2022-12-06T10:50:46Z</time>
      </trkpt>
      <trkpt lat="36.901635" lon="-3.533078">
        <ele>427.399</ele>
        <time>2022-12-06T10:50:48Z</time>
      </trkpt>
      <trkpt lat="36.901669" lon="-3.533090">
        <ele>427.716</ele>
        <time>2022-12-06T10:50:51Z</time>
      </trkpt>
      <trkpt lat="36.901680" lon="-3.533096">
        <ele>428.044</ele>
        <time>2022-12-06T10:50:52Z</time>
      </trkpt>
      <trkpt lat="36.901718" lon="-3.533154">
        <ele>429.088</ele>
        <time>2022-12-06T10:50:58Z</time>
      </trkpt>
      <trkpt lat="36.901750" lon="-3.533213">
        <ele>430.249</ele>
        <time>2022-12-06T10:51:04Z</time>
      </trkpt>
      <trkpt lat="36.901761" lon="-3.533232">
        <ele>430.316</ele>
        <time>2022-12-06T10:51:06Z</time>
      </trkpt>
      <trkpt lat="36.901786" lon="-3.533271">
        <ele>431.357</ele>
        <time>2022-12-06T10:51:11Z</time>
      </trkpt>
      <trkpt lat="36.901809" lon="-3.533313">
        <ele>432.334</ele>
        <time>2022-12-06T10:51:16Z</time>
      </trkpt>
      <trkpt lat="36.901839" lon="-3.533335">
        <ele>433.055</ele>
        <time>2022-12-06T10:51:19Z</time>
      </trkpt>
      <trkpt lat="36.901877" lon="-3.533374">
        <ele>433.610</ele>
        <time>2022-12-06T10:51:23Z</time>
      </trkpt>
      <trkpt lat="36.901897" lon="-3.533394">
        <ele>434.009</ele>
        <time>2022-12-06T10:51:26Z</time>
      </trkpt>
      <trkpt lat="36.901903" lon="-3.533410">
        <ele>434.634</ele>
        <time>2022-12-06T10:51:28Z</time>
      </trkpt>
      <trkpt lat="36.901919" lon="-3.533443">
        <ele>435.775</ele>
        <time>2022-12-06T10:51:33Z</time>
      </trkpt>
      <trkpt lat="36.901933" lon="-3.533462">
        <ele>436.723</ele>
        <time>2022-12-06T10:51:37Z</time>
      </trkpt>
      <trkpt lat="36.901949" lon="-3.533510">
        <ele>438.010</ele>
        <time>2022-12-06T10:51:43Z</time>
      </trkpt>
      <trkpt lat="36.901963" lon="-3.533550">
        <ele>439.288</ele>
        <time>2022-12-06T10:51:48Z</time>
      </trkpt>
      <trkpt lat="36.901952" lon="-3.533580">
        <ele>440.252</ele>
        <time>2022-12-06T10:51:53Z</time>
      </trkpt>
      <trkpt lat="36.901945" lon="-3.533612">
        <ele>441.313</ele>
        <time>2022-12-06T10:51:57Z</time>
      </trkpt>
      <trkpt lat="36.901949" lon="-3.533658">
        <ele>442.320</ele>
        <time>2022-12-06T10:52:03Z</time>
      </trkpt>
      <trkpt lat="36.901953" lon="-3.533704">
        <ele>443.331</ele>
        <time>2022-12-06T10:52:07Z</time>
      </trkpt>
      <trkpt lat="36.901965" lon="-3.533726">
        <ele>444.087</ele>
        <time>2022-12-06T10:52:09Z</time>
      </trkpt>
      <trkpt lat="36.901966" lon="-3.533741">
        <ele>444.242</ele>
        <time>2022-12-06T10:52:10Z</time>
      </trkpt>
      <trkpt lat="36.901979" lon="-3.533796">
        <ele>444.626</ele>
        <time>2022-12-06T10:52:14Z</time>
      </trkpt>
      <trkpt lat="36.902009" lon="-3.533876">
        <ele>445.609</ele>
        <time>2022-12-06T10:52:21Z</time>
      </trkpt>
      <trkpt lat="36.902013" lon="-3.533949">
        <ele>446.699</ele>
        <time>2022-12-06T10:52:27Z</time>
      </trkpt>
      <trkpt lat="36.902028" lon="-3.533992">
        <ele>446.720</ele>
        <time>2022-12-06T10:52:30Z</time>
      </trkpt>
      <trkpt lat="36.902051" lon="-3.534074">
        <ele>447.298</ele>
        <time>2022-12-06T10:52:36Z</time>
      </trkpt>
      <trkpt lat="36.902062" lon="-3.534141">
        <ele>447.645</ele>
        <time>2022-12-06T10:52:40Z</time>
      </trkpt>
      <trkpt lat="36.902058" lon="-3.534191">
        <ele>448.043</ele>
        <time>2022-12-06T10:52:43Z</time>
      </trkpt>
      <trkpt lat="36.902063" lon="-3.534256">
        <ele>448.747</ele>
        <time>2022-12-06T10:52:48Z</time>
      </trkpt>
      <trkpt lat="36.902059" lon="-3.534279">
        <ele>449.018</ele>
        <time>2022-12-06T10:52:50Z</time>
      </trkpt>
      <trkpt lat="36.902056" lon="-3.534331">
        <ele>449.695</ele>
        <time>2022-12-06T10:52:53Z</time>
      </trkpt>
      <trkpt lat="36.902055" lon="-3.534362">
        <ele>449.726</ele>
        <time>2022-12-06T10:52:55Z</time>
      </trkpt>
      <trkpt lat="36.902057" lon="-3.534374">
        <ele>449.794</ele>
        <time>2022-12-06T10:52:56Z</time>
      </trkpt>
      <trkpt lat="36.902049" lon="-3.534425">
        <ele>450.057</ele>
        <time>2022-12-06T10:52:59Z</time>
      </trkpt>
      <trkpt lat="36.902041" lon="-3.534488">
        <ele>450.222</ele>
        <time>2022-12-06T10:53:03Z</time>
      </trkpt>
      <trkpt lat="36.902100" lon="-3.534681">
        <ele>448.709</ele>
        <time>2022-12-06T10:53:12Z</time>
      </trkpt>
      <trkpt lat="36.902168" lon="-3.534889">
        <ele>448.620</ele>
        <time>2022-12-06T10:53:20Z</time>
      </trkpt>
      <trkpt lat="36.902175" lon="-3.535061">
        <ele>450.041</ele>
        <time>2022-12-06T10:53:27Z</time>
      </trkpt>
      <trkpt lat="36.902121" lon="-3.535261">
        <ele>451.069</ele>
        <time>2022-12-06T10:53:40Z</time>
      </trkpt>
      <trkpt lat="36.902121" lon="-3.535279">
        <ele>451.376</ele>
        <time>2022-12-06T10:53:42Z</time>
      </trkpt>
      <trkpt lat="36.902120" lon="-3.535318">
        <ele>451.774</ele>
        <time>2022-12-06T10:53:45Z</time>
      </trkpt>
      <trkpt lat="36.902106" lon="-3.535353">
        <ele>452.248</ele>
        <time>2022-12-06T10:53:47Z</time>
      </trkpt>
      <trkpt lat="36.902107" lon="-3.535450">
        <ele>453.399</ele>
        <time>2022-12-06T10:53:53Z</time>
      </trkpt>
      <trkpt lat="36.902110" lon="-3.535460">
        <ele>453.696</ele>
        <time>2022-12-06T10:53:54Z</time>
      </trkpt>
      <trkpt lat="36.902099" lon="-3.535562">
        <ele>454.247</ele>
        <time>2022-12-06T10:54:02Z</time>
      </trkpt>
      <trkpt lat="36.902126" lon="-3.535706">
        <ele>454.397</ele>
        <time>2022-12-06T10:54:12Z</time>
      </trkpt>
      <trkpt lat="36.902081" lon="-3.535899">
        <ele>455.623</ele>
        <time>2022-12-06T10:54:23Z</time>
      </trkpt>
      <trkpt lat="36.902116" lon="-3.536020">
        <ele>456.325</ele>
        <time>2022-12-06T10:54:30Z</time>
      </trkpt>
      <trkpt lat="36.902121" lon="-3.536049">
        <ele>456.609</ele>
        <time>2022-12-06T10:54:32Z</time>
      </trkpt>
      <trkpt lat="36.902106" lon="-3.536112">
        <ele>457.610</ele>
        <time>2022-12-06T10:54:36Z</time>
      </trkpt>
      <trkpt lat="36.902102" lon="-3.536125">
        <ele>457.721</ele>
        <time>2022-12-06T10:54:37Z</time>
      </trkpt>
      <trkpt lat="36.902098" lon="-3.536213">
        <ele>459.059</ele>
        <time>2022-12-06T10:54:43Z</time>
      </trkpt>
      <trkpt lat="36.902097" lon="-3.536227">
        <ele>459.246</ele>
        <time>2022-12-06T10:54:44Z</time>
      </trkpt>
      <trkpt lat="36.902114" lon="-3.536282">
        <ele>460.094</ele>
        <time>2022-12-06T10:54:48Z</time>
      </trkpt>
      <trkpt lat="36.902115" lon="-3.536336">
        <ele>461.218</ele>
        <time>2022-12-06T10:54:52Z</time>
      </trkpt>
      <trkpt lat="36.902127" lon="-3.536386">
        <ele>462.299</ele>
        <time>2022-12-06T10:54:56Z</time>
      </trkpt>
      <trkpt lat="36.902144" lon="-3.536425">
        <ele>463.256</ele>
        <time>2022-12-06T10:54:59Z</time>
      </trkpt>
      <trkpt lat="36.902188" lon="-3.536456">
        <ele>464.657</ele>
        <time>2022-12-06T10:55:04Z</time>
      </trkpt>
      <trkpt lat="36.902215" lon="-3.536494">
        <ele>466.028</ele>
        <time>2022-12-06T10:55:08Z</time>
      </trkpt>
      <trkpt lat="36.902245" lon="-3.536533">
        <ele>467.089</ele>
        <time>2022-12-06T10:55:12Z</time>
      </trkpt>
      <trkpt lat="36.902288" lon="-3.536550">
        <ele>468.217</ele>
        <time>2022-12-06T10:55:16Z</time>
      </trkpt>
      <trkpt lat="36.902319" lon="-3.536575">
        <ele>469.309</ele>
        <time>2022-12-06T10:55:20Z</time>
      </trkpt>
      <trkpt lat="36.902339" lon="-3.536624">
        <ele>470.333</ele>
        <time>2022-12-06T10:55:24Z</time>
      </trkpt>
      <trkpt lat="36.902352" lon="-3.536645">
        <ele>471.074</ele>
        <time>2022-12-06T10:55:26Z</time>
      </trkpt>
      <trkpt lat="36.902368" lon="-3.536664">
        <ele>471.622</ele>
        <time>2022-12-06T10:55:29Z</time>
      </trkpt>
      <trkpt lat="36.902440" lon="-3.536673">
        <ele>472.669</ele>
        <time>2022-12-06T10:55:34Z</time>
      </trkpt>
      <trkpt lat="36.902484" lon="-3.536669">
        <ele>473.287</ele>
        <time>2022-12-06T10:55:37Z</time>
      </trkpt>
      <trkpt lat="36.902517" lon="-3.536660">
        <ele>473.671</ele>
        <time>2022-12-06T10:55:40Z</time>
      </trkpt>
      <trkpt lat="36.902579" lon="-3.536673">
        <ele>475.062</ele>
        <time>2022-12-06T10:55:45Z</time>
      </trkpt>
      <trkpt lat="36.902594" lon="-3.536692">
        <ele>475.319</ele>
        <time>2022-12-06T10:55:47Z</time>
      </trkpt>
      <trkpt lat="36.902595" lon="-3.536703">
        <ele>475.770</ele>
        <time>2022-12-06T10:55:49Z</time>
      </trkpt>
      <trkpt lat="36.902591" lon="-3.536710">
        <ele>476.212</ele>
        <time>2022-12-06T10:55:50Z</time>
      </trkpt>
      <trkpt lat="36.902569" lon="-3.536735">
        <ele>477.232</ele>
        <time>2022-12-06T10:55:54Z</time>
      </trkpt>
      <trkpt lat="36.902587" lon="-3.536753">
        <ele>478.205</ele>
        <time>2022-12-06T10:55:58Z</time>
      </trkpt>
      <trkpt lat="36.902613" lon="-3.536776">
        <ele>479.209</ele>
        <time>2022-12-06T10:56:01Z</time>
      </trkpt>
      <trkpt lat="36.902624" lon="-3.536784">
        <ele>479.392</ele>
        <time>2022-12-06T10:56:02Z</time>
      </trkpt>
      <trkpt lat="36.902721" lon="-3.536834">
        <ele>480.293</ele>
        <time>2022-12-06T10:56:12Z</time>
      </trkpt>
      <trkpt lat="36.902742" lon="-3.536874">
        <ele>480.251</ele>
        <time>2022-12-06T10:56:15Z</time>
      </trkpt>
      <trkpt lat="36.902748" lon="-3.536888">
        <ele>480.398</ele>
        <time>2022-12-06T10:56:16Z</time>
      </trkpt>
      <trkpt lat="36.902887" lon="-3.537047">
        <ele>480.696</ele>
        <time>2022-12-06T10:56:26Z</time>
      </trkpt>
      <trkpt lat="36.902975" lon="-3.537162">
        <ele>480.340</ele>
        <time>2022-12-06T10:56:32Z</time>
      </trkpt>
      <trkpt lat="36.903104" lon="-3.537330">
        <ele>481.211</ele>
        <time>2022-12-06T10:56:41Z</time>
      </trkpt>
      <trkpt lat="36.903135" lon="-3.537372">
        <ele>481.388</ele>
        <time>2022-12-06T10:56:43Z</time>
      </trkpt>
      <trkpt lat="36.903284" lon="-3.537517">
        <ele>482.339</ele>
        <time>2022-12-06T10:56:52Z</time>
      </trkpt>
      <trkpt lat="36.903294" lon="-3.537537">
        <ele>482.656</ele>
        <time>2022-12-06T10:56:53Z</time>
      </trkpt>
      <trkpt lat="36.903336" lon="-3.537705">
        <ele>483.359</ele>
        <time>2022-12-06T10:57:03Z</time>
      </trkpt>
      <trkpt lat="36.903318" lon="-3.537746">
        <ele>483.614</ele>
        <time>2022-12-06T10:57:06Z</time>
      </trkpt>
      <trkpt lat="36.903315" lon="-3.537766">
        <ele>483.609</ele>
        <time>2022-12-06T10:57:07Z</time>
      </trkpt>
      <trkpt lat="36.903312" lon="-3.537973">
        <ele>484.766</ele>
        <time>2022-12-06T10:57:19Z</time>
      </trkpt>
      <trkpt lat="36.903294" lon="-3.538042">
        <ele>485.757</ele>
        <time>2022-12-06T10:57:24Z</time>
      </trkpt>
      <trkpt lat="36.903287" lon="-3.538057">
        <ele>485.725</ele>
        <time>2022-12-06T10:57:25Z</time>
      </trkpt>
      <trkpt lat="36.903269" lon="-3.538093">
        <ele>486.042</ele>
        <time>2022-12-06T10:57:28Z</time>
      </trkpt>
      <trkpt lat="36.903273" lon="-3.538179">
        <ele>486.690</ele>
        <time>2022-12-06T10:57:34Z</time>
      </trkpt>
      <trkpt lat="36.903302" lon="-3.538238">
        <ele>486.764</ele>
        <time>2022-12-06T10:57:36Z</time>
      </trkpt>
      <trkpt lat="36.903430" lon="-3.538409">
        <ele>486.315</ele>
        <time>2022-12-06T10:57:43Z</time>
      </trkpt>
      <trkpt lat="36.903472" lon="-3.538498">
        <ele>486.762</ele>
        <time>2022-12-06T10:57:47Z</time>
      </trkpt>
      <trkpt lat="36.903486" lon="-3.538640">
        <ele>486.713</ele>
        <time>2022-12-06T10:57:53Z</time>
      </trkpt>
      <trkpt lat="36.903492" lon="-3.538674">
        <ele>486.772</ele>
        <time>2022-12-06T10:57:55Z</time>
      </trkpt>
      <trkpt lat="36.903511" lon="-3.538849">
        <ele>487.613</ele>
        <time>2022-12-06T10:58:04Z</time>
      </trkpt>
      <trkpt lat="36.903531" lon="-3.538876">
        <ele>488.014</ele>
        <time>2022-12-06T10:58:06Z</time>
      </trkpt>
      <trkpt lat="36.903570" lon="-3.538897">
        <ele>488.609</ele>
        <time>2022-12-06T10:58:09Z</time>
      </trkpt>
      <trkpt lat="36.903575" lon="-3.538935">
        <ele>489.238</ele>
        <time>2022-12-06T10:58:12Z</time>
      </trkpt>
      <trkpt lat="36.903577" lon="-3.538942">
        <ele>489.389</ele>
        <time>2022-12-06T10:58:13Z</time>
      </trkpt>
      <trkpt lat="36.903569" lon="-3.538963">
        <ele>490.357</ele>
        <time>2022-12-06T10:58:16Z</time>
      </trkpt>
      <trkpt lat="36.903581" lon="-3.539034">
        <ele>491.324</ele>
        <time>2022-12-06T10:58:22Z</time>
      </trkpt>
      <trkpt lat="36.903610" lon="-3.539073">
        <ele>492.662</ele>
        <time>2022-12-06T10:58:27Z</time>
      </trkpt>
      <trkpt lat="36.903633" lon="-3.539109">
        <ele>493.656</ele>
        <time>2022-12-06T10:58:33Z</time>
      </trkpt>
      <trkpt lat="36.903776" lon="-3.539197">
        <ele>494.667</ele>
        <time>2022-12-06T10:58:46Z</time>
      </trkpt>
      <trkpt lat="36.903799" lon="-3.539212">
        <ele>494.674</ele>
        <time>2022-12-06T10:58:48Z</time>
      </trkpt>
      <trkpt lat="36.903946" lon="-3.539362">
        <ele>495.645</ele>
        <time>2022-12-06T10:59:01Z</time>
      </trkpt>
      <trkpt lat="36.904062" lon="-3.539553">
        <ele>496.266</ele>
        <time>2022-12-06T10:59:10Z</time>
      </trkpt>
      <trkpt lat="36.904074" lon="-3.539590">
        <ele>497.029</ele>
        <time>2022-12-06T10:59:12Z</time>
      </trkpt>
      <trkpt lat="36.904091" lon="-3.539838">
        <ele>497.621</ele>
        <time>2022-12-06T10:59:21Z</time>
      </trkpt>
      <trkpt lat="36.904102" lon="-3.539926">
        <ele>498.009</ele>
        <time>2022-12-06T10:59:24Z</time>
      </trkpt>
      <trkpt lat="36.904189" lon="-3.540127">
        <ele>498.777</ele>
        <time>2022-12-06T10:59:32Z</time>
      </trkpt>
      <trkpt lat="36.904232" lon="-3.540191">
        <ele>499.248</ele>
        <time>2022-12-06T10:59:35Z</time>
      </trkpt>
      <trkpt lat="36.904262" lon="-3.540261">
        <ele>500.336</ele>
        <time>2022-12-06T10:59:40Z</time>
      </trkpt>
      <trkpt lat="36.904292" lon="-3.540299">
        <ele>501.033</ele>
        <time>2022-12-06T10:59:43Z</time>
      </trkpt>
      <trkpt lat="36.904301" lon="-3.540325">
        <ele>501.381</ele>
        <time>2022-12-06T10:59:45Z</time>
      </trkpt>
      <trkpt lat="36.904308" lon="-3.540415">
        <ele>502.355</ele>
        <time>2022-12-06T10:59:51Z</time>
      </trkpt>
      <trkpt lat="36.904303" lon="-3.540527">
        <ele>503.366</ele>
        <time>2022-12-06T11:00:00Z</time>
      </trkpt>
      <trkpt lat="36.904304" lon="-3.540544">
        <ele>503.793</ele>
        <time>2022-12-06T11:00:02Z</time>
      </trkpt>
      <trkpt lat="36.904312" lon="-3.540582">
        <ele>504.384</ele>
        <time>2022-12-06T11:00:06Z</time>
      </trkpt>
      <trkpt lat="36.904311" lon="-3.540593">
        <ele>504.634</ele>
        <time>2022-12-06T11:00:07Z</time>
      </trkpt>
      <trkpt lat="36.904314" lon="-3.540634">
        <ele>505.355</ele>
        <time>2022-12-06T11:00:11Z</time>
      </trkpt>
      <trkpt lat="36.904327" lon="-3.540653">
        <ele>505.710</ele>
        <time>2022-12-06T11:00:13Z</time>
      </trkpt>
      <trkpt lat="36.904363" lon="-3.540696">
        <ele>506.309</ele>
        <time>2022-12-06T11:00:18Z</time>
      </trkpt>
      <trkpt lat="36.904371" lon="-3.540713">
        <ele>506.764</ele>
        <time>2022-12-06T11:00:20Z</time>
      </trkpt>
      <trkpt lat="36.904433" lon="-3.540772">
        <ele>507.755</ele>
        <time>2022-12-06T11:00:28Z</time>
      </trkpt>
      <trkpt lat="36.904457" lon="-3.540777">
        <ele>508.253</ele>
        <time>2022-12-06T11:00:30Z</time>
      </trkpt>
      <trkpt lat="36.904484" lon="-3.540768">
        <ele>508.730</ele>
        <time>2022-12-06T11:00:32Z</time>
      </trkpt>
      <trkpt lat="36.904503" lon="-3.540765">
        <ele>509.038</ele>
        <time>2022-12-06T11:00:33Z</time>
      </trkpt>
      <trkpt lat="36.904556" lon="-3.540750">
        <ele>510.242</ele>
        <time>2022-12-06T11:00:38Z</time>
      </trkpt>
      <trkpt lat="36.904603" lon="-3.540744">
        <ele>511.343</ele>
        <time>2022-12-06T11:00:43Z</time>
      </trkpt>
      <trkpt lat="36.904644" lon="-3.540784">
        <ele>512.460</ele>
        <time>2022-12-06T11:00:48Z</time>
      </trkpt>
      <trkpt lat="36.904648" lon="-3.540794">
        <ele>512.581</ele>
        <time>2022-12-06T11:00:49Z</time>
      </trkpt>
      <trkpt lat="36.904660" lon="-3.540812">
        <ele>513.099</ele>
        <time>2022-12-06T11:00:51Z</time>
      </trkpt>
      <trkpt lat="36.904673" lon="-3.540843">
        <ele>513.407</ele>
        <time>2022-12-06T11:00:54Z</time>
      </trkpt>
      <trkpt lat="36.904678" lon="-3.540860">
        <ele>513.527</ele>
        <time>2022-12-06T11:00:55Z</time>
      </trkpt>
      <trkpt lat="36.904709" lon="-3.540903">
        <ele>514.009</ele>
        <time>2022-12-06T11:00:59Z</time>
      </trkpt>
      <trkpt lat="36.904746" lon="-3.540938">
        <ele>514.530</ele>
        <time>2022-12-06T11:01:03Z</time>
      </trkpt>
      <trkpt lat="36.904752" lon="-3.540950">
        <ele>514.711</ele>
        <time>2022-12-06T11:01:04Z</time>
      </trkpt>
      <trkpt lat="36.904776" lon="-3.540987">
        <ele>515.759</ele>
        <time>2022-12-06T11:01:08Z</time>
      </trkpt>
      <trkpt lat="36.904799" lon="-3.541018">
        <ele>516.456</ele>
        <time>2022-12-06T11:01:11Z</time>
      </trkpt>
      <trkpt lat="36.904805" lon="-3.541045">
        <ele>517.054</ele>
        <time>2022-12-06T11:01:13Z</time>
      </trkpt>
      <trkpt lat="36.904808" lon="-3.541066">
        <ele>517.528</ele>
        <time>2022-12-06T11:01:15Z</time>
      </trkpt>
      <trkpt lat="36.904820" lon="-3.541081">
        <ele>518.029</ele>
        <time>2022-12-06T11:01:17Z</time>
      </trkpt>
      <trkpt lat="36.904843" lon="-3.541101">
        <ele>519.286</ele>
        <time>2022-12-06T11:01:21Z</time>
      </trkpt>
      <trkpt lat="36.904884" lon="-3.541106">
        <ele>520.477</ele>
        <time>2022-12-06T11:01:25Z</time>
      </trkpt>
      <trkpt lat="36.904940" lon="-3.541111">
        <ele>521.446</ele>
        <time>2022-12-06T11:01:29Z</time>
      </trkpt>
      <trkpt lat="36.904949" lon="-3.541111">
        <ele>521.788</ele>
        <time>2022-12-06T11:01:30Z</time>
      </trkpt>
      <trkpt lat="36.904978" lon="-3.541130">
        <ele>522.516</ele>
        <time>2022-12-06T11:01:33Z</time>
      </trkpt>
      <trkpt lat="36.905024" lon="-3.541187">
        <ele>523.509</ele>
        <time>2022-12-06T11:01:38Z</time>
      </trkpt>
      <trkpt lat="36.905078" lon="-3.541276">
        <ele>524.545</ele>
        <time>2022-12-06T11:01:45Z</time>
      </trkpt>
      <trkpt lat="36.905087" lon="-3.541283">
        <ele>524.736</ele>
        <time>2022-12-06T11:01:46Z</time>
      </trkpt>
      <trkpt lat="36.905123" lon="-3.541336">
        <ele>525.734</ele>
        <time>2022-12-06T11:01:52Z</time>
      </trkpt>
      <trkpt lat="36.905152" lon="-3.541402">
        <ele>526.761</ele>
        <time>2022-12-06T11:01:58Z</time>
      </trkpt>
      <trkpt lat="36.905192" lon="-3.541449">
        <ele>528.039</ele>
        <time>2022-12-06T11:02:03Z</time>
      </trkpt>
      <trkpt lat="36.905210" lon="-3.541487">
        <ele>528.793</ele>
        <time>2022-12-06T11:02:07Z</time>
      </trkpt>
      <trkpt lat="36.905214" lon="-3.541495">
        <ele>529.054</ele>
        <time>2022-12-06T11:02:08Z</time>
      </trkpt>
      <trkpt lat="36.905220" lon="-3.541497">
        <ele>529.411</ele>
        <time>2022-12-06T11:02:09Z</time>
      </trkpt>
      <trkpt lat="36.905229" lon="-3.541512">
        <ele>530.072</ele>
        <time>2022-12-06T11:02:11Z</time>
      </trkpt>
      <trkpt lat="36.905236" lon="-3.541524">
        <ele>530.457</ele>
        <time>2022-12-06T11:02:12Z</time>
      </trkpt>
      <trkpt lat="36.905252" lon="-3.541539">
        <ele>531.000</ele>
        <time>2022-12-06T11:02:14Z</time>
      </trkpt>
      <trkpt lat="36.905267" lon="-3.541562">
        <ele>531.520</ele>
        <time>2022-12-06T11:02:16Z</time>
      </trkpt>
      <trkpt lat="36.905284" lon="-3.541600">
        <ele>532.409</ele>
        <time>2022-12-06T11:02:20Z</time>
      </trkpt>
      <trkpt lat="36.905288" lon="-3.541607">
        <ele>532.546</ele>
        <time>2022-12-06T11:02:21Z</time>
      </trkpt>
      <trkpt lat="36.905298" lon="-3.541621">
        <ele>533.037</ele>
        <time>2022-12-06T11:02:23Z</time>
      </trkpt>
      <trkpt lat="36.905315" lon="-3.541658">
        <ele>533.765</ele>
        <time>2022-12-06T11:02:27Z</time>
      </trkpt>
      <trkpt lat="36.905347" lon="-3.541705">
        <ele>534.782</ele>
        <time>2022-12-06T11:02:32Z</time>
      </trkpt>
      <trkpt lat="36.905353" lon="-3.541715">
        <ele>534.790</ele>
        <time>2022-12-06T11:02:33Z</time>
      </trkpt>
      <trkpt lat="36.905373" lon="-3.541771">
        <ele>535.584</ele>
        <time>2022-12-06T11:02:37Z</time>
      </trkpt>
      <trkpt lat="36.905396" lon="-3.541787">
        <ele>536.015</ele>
        <time>2022-12-06T11:02:39Z</time>
      </trkpt>
      <trkpt lat="36.905462" lon="-3.541863">
        <ele>537.062</ele>
        <time>2022-12-06T11:02:46Z</time>
      </trkpt>
      <trkpt lat="36.905519" lon="-3.541931">
        <ele>538.023</ele>
        <time>2022-12-06T11:02:53Z</time>
      </trkpt>
      <trkpt lat="36.905553" lon="-3.541986">
        <ele>539.086</ele>
        <time>2022-12-06T11:02:59Z</time>
      </trkpt>
      <trkpt lat="36.905561" lon="-3.541994">
        <ele>539.260</ele>
        <time>2022-12-06T11:03:00Z</time>
      </trkpt>
      <trkpt lat="36.905580" lon="-3.542017">
        <ele>540.226</ele>
        <time>2022-12-06T11:03:03Z</time>
      </trkpt>
      <trkpt lat="36.905586" lon="-3.542021">
        <ele>540.409</ele>
        <time>2022-12-06T11:03:04Z</time>
      </trkpt>
      <trkpt lat="36.905603" lon="-3.542055">
        <ele>541.259</ele>
        <time>2022-12-06T11:03:07Z</time>
      </trkpt>
      <trkpt lat="36.905615" lon="-3.542092">
        <ele>541.560</ele>
        <time>2022-12-06T11:03:09Z</time>
      </trkpt>
      <trkpt lat="36.905626" lon="-3.542116">
        <ele>542.038</ele>
        <time>2022-12-06T11:03:11Z</time>
      </trkpt>
      <trkpt lat="36.905635" lon="-3.542136">
        <ele>542.425</ele>
        <time>2022-12-06T11:03:13Z</time>
      </trkpt>
      <trkpt lat="36.905639" lon="-3.542145">
        <ele>542.593</ele>
        <time>2022-12-06T11:03:14Z</time>
      </trkpt>
      <trkpt lat="36.905659" lon="-3.542191">
        <ele>543.587</ele>
        <time>2022-12-06T11:03:18Z</time>
      </trkpt>
      <trkpt lat="36.905650" lon="-3.542242">
        <ele>544.718</ele>
        <time>2022-12-06T11:03:23Z</time>
      </trkpt>
      <trkpt lat="36.905636" lon="-3.542262">
        <ele>545.425</ele>
        <time>2022-12-06T11:03:25Z</time>
      </trkpt>
      <trkpt lat="36.905619" lon="-3.542277">
        <ele>546.066</ele>
        <time>2022-12-06T11:03:27Z</time>
      </trkpt>
      <trkpt lat="36.905594" lon="-3.542297">
        <ele>546.789</ele>
        <time>2022-12-06T11:03:30Z</time>
      </trkpt>
      <trkpt lat="36.905582" lon="-3.542308">
        <ele>547.206</ele>
        <time>2022-12-06T11:03:32Z</time>
      </trkpt>
      <trkpt lat="36.905575" lon="-3.542326">
        <ele>547.526</ele>
        <time>2022-12-06T11:03:34Z</time>
      </trkpt>
      <trkpt lat="36.905576" lon="-3.542346">
        <ele>548.509</ele>
        <time>2022-12-06T11:03:37Z</time>
      </trkpt>
      <trkpt lat="36.905577" lon="-3.542354">
        <ele>548.769</ele>
        <time>2022-12-06T11:03:38Z</time>
      </trkpt>
      <trkpt lat="36.905597" lon="-3.542396">
        <ele>549.560</ele>
        <time>2022-12-06T11:03:41Z</time>
      </trkpt>
      <trkpt lat="36.905603" lon="-3.542405">
        <ele>549.768</ele>
        <time>2022-12-06T11:03:42Z</time>
      </trkpt>
      <trkpt lat="36.905633" lon="-3.542471">
        <ele>550.755</ele>
        <time>2022-12-06T11:03:47Z</time>
      </trkpt>
      <trkpt lat="36.905644" lon="-3.542503">
        <ele>551.263</ele>
        <time>2022-12-06T11:03:49Z</time>
      </trkpt>
      <trkpt lat="36.905670" lon="-3.542546">
        <ele>552.067</ele>
        <time>2022-12-06T11:03:53Z</time>
      </trkpt>
      <trkpt lat="36.905739" lon="-3.542590">
        <ele>553.078</ele>
        <time>2022-12-06T11:03:59Z</time>
      </trkpt>
      <trkpt lat="36.905789" lon="-3.542623">
        <ele>553.575</ele>
        <time>2022-12-06T11:04:05Z</time>
      </trkpt>
      <trkpt lat="36.905815" lon="-3.542644">
        <ele>554.296</ele>
        <time>2022-12-06T11:04:09Z</time>
      </trkpt>
      <trkpt lat="36.905846" lon="-3.542672">
        <ele>554.745</ele>
        <time>2022-12-06T11:04:12Z</time>
      </trkpt>
      <trkpt lat="36.905857" lon="-3.542700">
        <ele>555.047</ele>
        <time>2022-12-06T11:04:14Z</time>
      </trkpt>
      <trkpt lat="36.905872" lon="-3.542720">
        <ele>555.211</ele>
        <time>2022-12-06T11:04:16Z</time>
      </trkpt>
      <trkpt lat="36.905947" lon="-3.542744">
        <ele>556.009</ele>
        <time>2022-12-06T11:04:24Z</time>
      </trkpt>
      <trkpt lat="36.905982" lon="-3.542761">
        <ele>556.265</ele>
        <time>2022-12-06T11:04:28Z</time>
      </trkpt>
      <trkpt lat="36.906000" lon="-3.542765">
        <ele>556.296</ele>
        <time>2022-12-06T11:04:29Z</time>
      </trkpt>
      <trkpt lat="36.906064" lon="-3.542771">
        <ele>556.424</ele>
        <time>2022-12-06T11:04:32Z</time>
      </trkpt>
      <trkpt lat="36.906154" lon="-3.542785">
        <ele>557.231</ele>
        <time>2022-12-06T11:04:38Z</time>
      </trkpt>
      <trkpt lat="36.906237" lon="-3.542782">
        <ele>558.469</ele>
        <time>2022-12-06T11:04:44Z</time>
      </trkpt>
      <trkpt lat="36.906285" lon="-3.542804">
        <ele>559.433</ele>
        <time>2022-12-06T11:04:48Z</time>
      </trkpt>
      <trkpt lat="36.906428" lon="-3.542946">
        <ele>560.594</ele>
        <time>2022-12-06T11:05:03Z</time>
      </trkpt>
      <trkpt lat="36.906485" lon="-3.543030">
        <ele>561.561</ele>
        <time>2022-12-06T11:05:11Z</time>
      </trkpt>
      <trkpt lat="36.906490" lon="-3.543039">
        <ele>561.742</ele>
        <time>2022-12-06T11:05:12Z</time>
      </trkpt>
      <trkpt lat="36.906582" lon="-3.543107">
        <ele>562.511</ele>
        <time>2022-12-06T11:05:21Z</time>
      </trkpt>
      <trkpt lat="36.906732" lon="-3.543249">
        <ele>563.421</ele>
        <time>2022-12-06T11:05:36Z</time>
      </trkpt>
      <trkpt lat="36.906754" lon="-3.543270">
        <ele>563.703</ele>
        <time>2022-12-06T11:05:38Z</time>
      </trkpt>
      <trkpt lat="36.906912" lon="-3.543376">
        <ele>564.709</ele>
        <time>2022-12-06T11:05:52Z</time>
      </trkpt>
      <trkpt lat="36.906990" lon="-3.543429">
        <ele>566.062</ele>
        <time>2022-12-06T11:05:59Z</time>
      </trkpt>
      <trkpt lat="36.907067" lon="-3.543513">
        <ele>567.043</ele>
        <time>2022-12-06T11:06:07Z</time>
      </trkpt>
      <trkpt lat="36.907133" lon="-3.543612">
        <ele>568.081</ele>
        <time>2022-12-06T11:06:15Z</time>
      </trkpt>
      <trkpt lat="36.907209" lon="-3.543754">
        <ele>569.218</ele>
        <time>2022-12-06T11:06:26Z</time>
      </trkpt>
      <trkpt lat="36.907215" lon="-3.543779">
        <ele>569.596</ele>
        <time>2022-12-06T11:06:28Z</time>
      </trkpt>
      <trkpt lat="36.907245" lon="-3.543820">
        <ele>570.280</ele>
        <time>2022-12-06T11:06:32Z</time>
      </trkpt>
      <trkpt lat="36.907256" lon="-3.543831">
        <ele>570.221</ele>
        <time>2022-12-06T11:06:33Z</time>
      </trkpt>
      <trkpt lat="36.907303" lon="-3.543887">
        <ele>570.518</ele>
        <time>2022-12-06T11:06:38Z</time>
      </trkpt>
      <trkpt lat="36.907358" lon="-3.543911">
        <ele>571.249</ele>
        <time>2022-12-06T11:06:43Z</time>
      </trkpt>
      <trkpt lat="36.907427" lon="-3.543967">
        <ele>572.484</ele>
        <time>2022-12-06T11:06:50Z</time>
      </trkpt>
      <trkpt lat="36.907471" lon="-3.544010">
        <ele>573.407</ele>
        <time>2022-12-06T11:06:55Z</time>
      </trkpt>
      <trkpt lat="36.907476" lon="-3.544021">
        <ele>573.517</ele>
        <time>2022-12-06T11:06:56Z</time>
      </trkpt>
      <trkpt lat="36.907498" lon="-3.544070">
        <ele>574.409</ele>
        <time>2022-12-06T11:07:01Z</time>
      </trkpt>
      <trkpt lat="36.907524" lon="-3.544159">
        <ele>575.599</ele>
        <time>2022-12-06T11:07:08Z</time>
      </trkpt>
      <trkpt lat="36.907526" lon="-3.544196">
        <ele>576.280</ele>
        <time>2022-12-06T11:07:11Z</time>
      </trkpt>
      <trkpt lat="36.907533" lon="-3.544238">
        <ele>576.738</ele>
        <time>2022-12-06T11:07:14Z</time>
      </trkpt>
      <trkpt lat="36.907553" lon="-3.544312">
        <ele>578.285</ele>
        <time>2022-12-06T11:07:20Z</time>
      </trkpt>
      <trkpt lat="36.907573" lon="-3.544382">
        <ele>579.283</ele>
        <time>2022-12-06T11:07:25Z</time>
      </trkpt>
      <trkpt lat="36.907582" lon="-3.544422">
        <ele>580.427</ele>
        <time>2022-12-06T11:07:29Z</time>
      </trkpt>
      <trkpt lat="36.907585" lon="-3.544483">
        <ele>581.518</ele>
        <time>2022-12-06T11:07:34Z</time>
      </trkpt>
      <trkpt lat="36.907584" lon="-3.544497">
        <ele>582.255</ele>
        <time>2022-12-06T11:07:35Z</time>
      </trkpt>
      <trkpt lat="36.907586" lon="-3.544526">
        <ele>583.026</ele>
        <time>2022-12-06T11:07:37Z</time>
      </trkpt>
      <trkpt lat="36.907598" lon="-3.544663">
        <ele>584.089</ele>
        <time>2022-12-06T11:07:47Z</time>
      </trkpt>
      <trkpt lat="36.907600" lon="-3.544799">
        <ele>585.006</ele>
        <time>2022-12-06T11:07:57Z</time>
      </trkpt>
      <trkpt lat="36.907612" lon="-3.544913">
        <ele>585.726</ele>
        <time>2022-12-06T11:08:04Z</time>
      </trkpt>
      <trkpt lat="36.907621" lon="-3.544948">
        <ele>586.209</ele>
        <time>2022-12-06T11:08:06Z</time>
      </trkpt>
      <trkpt lat="36.907637" lon="-3.545027">
        <ele>587.479</ele>
        <time>2022-12-06T11:08:12Z</time>
      </trkpt>
      <trkpt lat="36.907658" lon="-3.545159">
        <ele>588.470</ele>
        <time>2022-12-06T11:08:22Z</time>
      </trkpt>
      <trkpt lat="36.907656" lon="-3.545285">
        <ele>589.438</ele>
        <time>2022-12-06T11:08:30Z</time>
      </trkpt>
      <trkpt lat="36.907676" lon="-3.545373">
        <ele>590.585</ele>
        <time>2022-12-06T11:08:36Z</time>
      </trkpt>
      <trkpt lat="36.907732" lon="-3.545519">
        <ele>591.543</ele>
        <time>2022-12-06T11:08:46Z</time>
      </trkpt>
      <trkpt lat="36.907740" lon="-3.545639">
        <ele>592.727</ele>
        <time>2022-12-06T11:08:55Z</time>
      </trkpt>
      <trkpt lat="36.907754" lon="-3.545720">
        <ele>593.728</ele>
        <time>2022-12-06T11:09:01Z</time>
      </trkpt>
      <trkpt lat="36.907775" lon="-3.545810">
        <ele>594.745</ele>
        <time>2022-12-06T11:09:07Z</time>
      </trkpt>
      <trkpt lat="36.907807" lon="-3.546030">
        <ele>595.566</ele>
        <time>2022-12-06T11:09:20Z</time>
      </trkpt>
      <trkpt lat="36.907845" lon="-3.546251">
        <ele>595.456</ele>
        <time>2022-12-06T11:09:34Z</time>
      </trkpt>
      <trkpt lat="36.907844" lon="-3.546279">
        <ele>595.459</ele>
        <time>2022-12-06T11:09:36Z</time>
      </trkpt>
      <trkpt lat="36.907830" lon="-3.546360">
        <ele>596.014</ele>
        <time>2022-12-06T11:09:40Z</time>
      </trkpt>
      <trkpt lat="36.907823" lon="-3.546586">
        <ele>596.509</ele>
        <time>2022-12-06T11:09:53Z</time>
      </trkpt>
      <trkpt lat="36.907820" lon="-3.546620">
        <ele>597.016</ele>
        <time>2022-12-06T11:09:55Z</time>
      </trkpt>
      <trkpt lat="36.907813" lon="-3.546708">
        <ele>598.047</ele>
        <time>2022-12-06T11:10:01Z</time>
      </trkpt>
      <trkpt lat="36.907815" lon="-3.546730">
        <ele>598.095</ele>
        <time>2022-12-06T11:10:02Z</time>
      </trkpt>
      <trkpt lat="36.907864" lon="-3.546974">
        <ele>598.462</ele>
        <time>2022-12-06T11:10:11Z</time>
      </trkpt>
      <trkpt lat="36.907920" lon="-3.547222">
        <ele>596.730</ele>
        <time>2022-12-06T11:10:19Z</time>
      </trkpt>
      <trkpt lat="36.907954" lon="-3.547330">
        <ele>595.544</ele>
        <time>2022-12-06T11:10:22Z</time>
      </trkpt>
      <trkpt lat="36.907969" lon="-3.547404">
        <ele>594.415</ele>
        <time>2022-12-06T11:10:24Z</time>
      </trkpt>
      <trkpt lat="36.908047" lon="-3.547508">
        <ele>593.592</ele>
        <time>2022-12-06T11:10:29Z</time>
      </trkpt>
      <trkpt lat="36.908213" lon="-3.547396">
        <ele>594.763</ele>
        <time>2022-12-06T11:10:37Z</time>
      </trkpt>
      <trkpt lat="36.908294" lon="-3.547377">
        <ele>595.555</ele>
        <time>2022-12-06T11:10:42Z</time>
      </trkpt>
      <trkpt lat="36.908339" lon="-3.547353">
        <ele>596.707</ele>
        <time>2022-12-06T11:10:47Z</time>
      </trkpt>
      <trkpt lat="36.908405" lon="-3.547287">
        <ele>598.017</ele>
        <time>2022-12-06T11:10:52Z</time>
      </trkpt>
      <trkpt lat="36.908444" lon="-3.547221">
        <ele>599.209</ele>
        <time>2022-12-06T11:10:58Z</time>
      </trkpt>
      <trkpt lat="36.908480" lon="-3.547153">
        <ele>600.296</ele>
        <time>2022-12-06T11:11:04Z</time>
      </trkpt>
      <trkpt lat="36.908585" lon="-3.547041">
        <ele>601.257</ele>
        <time>2022-12-06T11:11:16Z</time>
      </trkpt>
      <trkpt lat="36.908688" lon="-3.546936">
        <ele>602.215</ele>
        <time>2022-12-06T11:11:25Z</time>
      </trkpt>
      <trkpt lat="36.908711" lon="-3.546933">
        <ele>602.412</ele>
        <time>2022-12-06T11:11:27Z</time>
      </trkpt>
      <trkpt lat="36.908784" lon="-3.547009">
        <ele>603.410</ele>
        <time>2022-12-06T11:11:35Z</time>
      </trkpt>
      <trkpt lat="36.908802" lon="-3.547130">
        <ele>604.564</ele>
        <time>2022-12-06T11:11:43Z</time>
      </trkpt>
      <trkpt lat="36.908846" lon="-3.547352">
        <ele>605.435</ele>
        <time>2022-12-06T11:11:57Z</time>
      </trkpt>
      <trkpt lat="36.908947" lon="-3.547565">
        <ele>604.482</ele>
        <time>2022-12-06T11:12:06Z</time>
      </trkpt>
      <trkpt lat="36.909081" lon="-3.547716">
        <ele>604.023</ele>
        <time>2022-12-06T11:12:13Z</time>
      </trkpt>
      <trkpt lat="36.909267" lon="-3.547750">
        <ele>604.059</ele>
        <time>2022-12-06T11:12:21Z</time>
      </trkpt>
      <trkpt lat="36.909450" lon="-3.547728">
        <ele>604.003</ele>
        <time>2022-12-06T11:12:29Z</time>
      </trkpt>
      <trkpt lat="36.909618" lon="-3.547815">
        <ele>604.723</ele>
        <time>2022-12-06T11:12:37Z</time>
      </trkpt>
      <trkpt lat="36.909761" lon="-3.547974">
        <ele>605.209</ele>
        <time>2022-12-06T11:12:45Z</time>
      </trkpt>
      <trkpt lat="36.909922" lon="-3.548087">
        <ele>605.446</ele>
        <time>2022-12-06T11:12:53Z</time>
      </trkpt>
      <trkpt lat="36.910027" lon="-3.548105">
        <ele>605.547</ele>
        <time>2022-12-06T11:12:58Z</time>
      </trkpt>
      <trkpt lat="36.910230" lon="-3.548076">
        <ele>606.475</ele>
        <time>2022-12-06T11:13:07Z</time>
      </trkpt>
      <trkpt lat="36.910312" lon="-3.548020">
        <ele>606.742</ele>
        <time>2022-12-06T11:13:10Z</time>
      </trkpt>
      <trkpt lat="36.910427" lon="-3.547974">
        <ele>608.020</ele>
        <time>2022-12-06T11:13:15Z</time>
      </trkpt>
      <trkpt lat="36.910592" lon="-3.548065">
        <ele>608.464</ele>
        <time>2022-12-06T11:13:24Z</time>
      </trkpt>
      <trkpt lat="36.910764" lon="-3.548124">
        <ele>608.785</ele>
        <time>2022-12-06T11:13:32Z</time>
      </trkpt>
      <trkpt lat="36.910841" lon="-3.548120">
        <ele>609.042</ele>
        <time>2022-12-06T11:13:36Z</time>
      </trkpt>
      <trkpt lat="36.911015" lon="-3.548200">
        <ele>609.443</ele>
        <time>2022-12-06T11:13:44Z</time>
      </trkpt>
      <trkpt lat="36.911105" lon="-3.548391">
        <ele>608.589</ele>
        <time>2022-12-06T11:13:51Z</time>
      </trkpt>
      <trkpt lat="36.911170" lon="-3.548527">
        <ele>607.706</ele>
        <time>2022-12-06T11:13:56Z</time>
      </trkpt>
      <trkpt lat="36.911326" lon="-3.548659">
        <ele>606.726</ele>
        <time>2022-12-06T11:14:03Z</time>
      </trkpt>
      <trkpt lat="36.911353" lon="-3.548671">
        <ele>606.509</ele>
        <time>2022-12-06T11:14:04Z</time>
      </trkpt>
      <trkpt lat="36.911520" lon="-3.548808">
        <ele>606.099</ele>
        <time>2022-12-06T11:14:12Z</time>
      </trkpt>
      <trkpt lat="36.911669" lon="-3.548944">
        <ele>605.570</ele>
        <time>2022-12-06T11:14:19Z</time>
      </trkpt>
      <trkpt lat="36.911751" lon="-3.549161">
        <ele>605.258</ele>
        <time>2022-12-06T11:14:27Z</time>
      </trkpt>
      <trkpt lat="36.911761" lon="-3.549234">
        <ele>605.445</ele>
        <time>2022-12-06T11:14:30Z</time>
      </trkpt>
      <trkpt lat="36.911769" lon="-3.549327">
        <ele>606.063</ele>
        <time>2022-12-06T11:14:34Z</time>
      </trkpt>
      <trkpt lat="36.911794" lon="-3.549390">
        <ele>605.557</ele>
        <time>2022-12-06T11:14:37Z</time>
      </trkpt>
      <trkpt lat="36.911781" lon="-3.549428">
        <ele>605.458</ele>
        <time>2022-12-06T11:14:40Z</time>
      </trkpt>
      <trkpt lat="36.911720" lon="-3.549468">
        <ele>605.475</ele>
        <time>2022-12-06T11:14:43Z</time>
      </trkpt>
      <trkpt lat="36.911634" lon="-3.549537">
        <ele>606.776</ele>
        <time>2022-12-06T11:14:51Z</time>
      </trkpt>
      <trkpt lat="36.911629" lon="-3.549560">
        <ele>606.754</ele>
        <time>2022-12-06T11:14:52Z</time>
      </trkpt>
      <trkpt lat="36.911606" lon="-3.549797">
        <ele>607.056</ele>
        <time>2022-12-06T11:15:03Z</time>
      </trkpt>
      <trkpt lat="36.911601" lon="-3.549809">
        <ele>607.011</ele>
        <time>2022-12-06T11:15:04Z</time>
      </trkpt>
      <trkpt lat="36.911533" lon="-3.549824">
        <ele>607.009</ele>
        <time>2022-12-06T11:15:09Z</time>
      </trkpt>
      <trkpt lat="36.911532" lon="-3.549902">
        <ele>607.766</ele>
        <time>2022-12-06T11:15:14Z</time>
      </trkpt>
      <trkpt lat="36.911553" lon="-3.550028">
        <ele>608.767</ele>
        <time>2022-12-06T11:15:20Z</time>
      </trkpt>
      <trkpt lat="36.911575" lon="-3.550165">
        <ele>609.425</ele>
        <time>2022-12-06T11:15:28Z</time>
      </trkpt>
      <trkpt lat="36.911584" lon="-3.550222">
        <ele>609.532</ele>
        <time>2022-12-06T11:15:31Z</time>
      </trkpt>
      <trkpt lat="36.911601" lon="-3.550326">
        <ele>610.070</ele>
        <time>2022-12-06T11:15:37Z</time>
      </trkpt>
      <trkpt lat="36.911605" lon="-3.550406">
        <ele>610.464</ele>
        <time>2022-12-06T11:15:42Z</time>
      </trkpt>
      <trkpt lat="36.911619" lon="-3.550416">
        <ele>610.295</ele>
        <time>2022-12-06T11:15:44Z</time>
      </trkpt>
      <trkpt lat="36.911626" lon="-3.550424">
        <ele>610.032</ele>
        <time>2022-12-06T11:15:50Z</time>
      </trkpt>
      <trkpt lat="36.911633" lon="-3.550475">
        <ele>610.043</ele>
        <time>2022-12-06T11:15:54Z</time>
      </trkpt>
      <trkpt lat="36.911638" lon="-3.550507">
        <ele>610.043</ele>
        <time>2022-12-06T11:15:56Z</time>
      </trkpt>
      <trkpt lat="36.911649" lon="-3.550540">
        <ele>610.264</ele>
        <time>2022-12-06T11:15:58Z</time>
      </trkpt>
      <trkpt lat="36.911643" lon="-3.550577">
        <ele>610.210</ele>
        <time>2022-12-06T11:16:00Z</time>
      </trkpt>
      <trkpt lat="36.911645" lon="-3.550628">
        <ele>610.209</ele>
        <time>2022-12-06T11:16:03Z</time>
      </trkpt>
      <trkpt lat="36.911658" lon="-3.550697">
        <ele>610.065</ele>
        <time>2022-12-06T11:16:07Z</time>
      </trkpt>
      <trkpt lat="36.911652" lon="-3.550732">
        <ele>610.096</ele>
        <time>2022-12-06T11:16:10Z</time>
      </trkpt>
      <trkpt lat="36.911650" lon="-3.550800">
        <ele>610.074</ele>
        <time>2022-12-06T11:16:15Z</time>
      </trkpt>
      <trkpt lat="36.911650" lon="-3.550869">
        <ele>609.751</ele>
        <time>2022-12-06T11:16:20Z</time>
      </trkpt>
      <trkpt lat="36.911660" lon="-3.550957">
        <ele>609.049</ele>
        <time>2022-12-06T11:16:25Z</time>
      </trkpt>
      <trkpt lat="36.911663" lon="-3.550976">
        <ele>608.713</ele>
        <time>2022-12-06T11:16:26Z</time>
      </trkpt>
      <trkpt lat="36.911648" lon="-3.551102">
        <ele>608.764</ele>
        <time>2022-12-06T11:16:33Z</time>
      </trkpt>
      <trkpt lat="36.911509" lon="-3.551253">
        <ele>609.241</ele>
        <time>2022-12-06T11:16:44Z</time>
      </trkpt>
      <trkpt lat="36.911468" lon="-3.551402">
        <ele>609.732</ele>
        <time>2022-12-06T11:16:52Z</time>
      </trkpt>
      <trkpt lat="36.911467" lon="-3.551448">
        <ele>609.779</ele>
        <time>2022-12-06T11:16:54Z</time>
      </trkpt>
      <trkpt lat="36.911440" lon="-3.551618">
        <ele>610.205</ele>
        <time>2022-12-06T11:17:03Z</time>
      </trkpt>
      <trkpt lat="36.911423" lon="-3.551660">
        <ele>610.225</ele>
        <time>2022-12-06T11:17:05Z</time>
      </trkpt>
      <trkpt lat="36.911403" lon="-3.551700">
        <ele>610.409</ele>
        <time>2022-12-06T11:17:07Z</time>
      </trkpt>
      <trkpt lat="36.911421" lon="-3.551819">
        <ele>610.548</ele>
        <time>2022-12-06T11:17:13Z</time>
      </trkpt>
      <trkpt lat="36.911411" lon="-3.551853">
        <ele>611.039</ele>
        <time>2022-12-06T11:17:15Z</time>
      </trkpt>
      <trkpt lat="36.911402" lon="-3.551880">
        <ele>611.247</ele>
        <time>2022-12-06T11:17:16Z</time>
      </trkpt>
      <trkpt lat="36.911406" lon="-3.551963">
        <ele>611.574</ele>
        <time>2022-12-06T11:17:25Z</time>
      </trkpt>
      <trkpt lat="36.911388" lon="-3.551989">
        <ele>611.722</ele>
        <time>2022-12-06T11:17:28Z</time>
      </trkpt>
      <trkpt lat="36.911388" lon="-3.552037">
        <ele>612.026</ele>
        <time>2022-12-06T11:17:31Z</time>
      </trkpt>
      <trkpt lat="36.911399" lon="-3.552107">
        <ele>612.287</ele>
        <time>2022-12-06T11:17:34Z</time>
      </trkpt>
      <trkpt lat="36.911399" lon="-3.552223">
        <ele>613.064</ele>
        <time>2022-12-06T11:17:39Z</time>
      </trkpt>
      <trkpt lat="36.911404" lon="-3.552237">
        <ele>613.245</ele>
        <time>2022-12-06T11:17:40Z</time>
      </trkpt>
      <trkpt lat="36.911422" lon="-3.552264">
        <ele>613.468</ele>
        <time>2022-12-06T11:17:42Z</time>
      </trkpt>
      <trkpt lat="36.911431" lon="-3.552298">
        <ele>613.542</ele>
        <time>2022-12-06T11:17:44Z</time>
      </trkpt>
      <trkpt lat="36.911431" lon="-3.552351">
        <ele>614.026</ele>
        <time>2022-12-06T11:17:47Z</time>
      </trkpt>
      <trkpt lat="36.911425" lon="-3.552365">
        <ele>614.209</ele>
        <time>2022-12-06T11:17:48Z</time>
      </trkpt>
      <trkpt lat="36.911418" lon="-3.552385">
        <ele>614.247</ele>
        <time>2022-12-06T11:17:49Z</time>
      </trkpt>
      <trkpt lat="36.911340" lon="-3.552475">
        <ele>615.258</ele>
        <time>2022-12-06T11:17:58Z</time>
      </trkpt>
      <trkpt lat="36.911287" lon="-3.552498">
        <ele>615.776</ele>
        <time>2022-12-06T11:18:01Z</time>
      </trkpt>
      <trkpt lat="36.911245" lon="-3.552524">
        <ele>616.233</ele>
        <time>2022-12-06T11:18:04Z</time>
      </trkpt>
      <trkpt lat="36.911148" lon="-3.552592">
        <ele>617.441</ele>
        <time>2022-12-06T11:18:12Z</time>
      </trkpt>
      <trkpt lat="36.911127" lon="-3.552611">
        <ele>617.575</ele>
        <time>2022-12-06T11:18:14Z</time>
      </trkpt>
      <trkpt lat="36.911028" lon="-3.552703">
        <ele>618.456</ele>
        <time>2022-12-06T11:18:21Z</time>
      </trkpt>
      <trkpt lat="36.911002" lon="-3.552740">
        <ele>619.083</ele>
        <time>2022-12-06T11:18:26Z</time>
      </trkpt>
      <trkpt lat="36.911015" lon="-3.552763">
        <ele>619.514</ele>
        <time>2022-12-06T11:18:28Z</time>
      </trkpt>
      <trkpt lat="36.911034" lon="-3.552782">
        <ele>620.238</ele>
        <time>2022-12-06T11:18:30Z</time>
      </trkpt>
      <trkpt lat="36.911066" lon="-3.552817">
        <ele>621.070</ele>
        <time>2022-12-06T11:18:33Z</time>
      </trkpt>
      <trkpt lat="36.911084" lon="-3.552829">
        <ele>621.417</ele>
        <time>2022-12-06T11:18:35Z</time>
      </trkpt>
      <trkpt lat="36.911091" lon="-3.552854">
        <ele>621.709</ele>
        <time>2022-12-06T11:18:37Z</time>
      </trkpt>
      <trkpt lat="36.911096" lon="-3.552866">
        <ele>622.064</ele>
        <time>2022-12-06T11:18:38Z</time>
      </trkpt>
      <trkpt lat="36.911098" lon="-3.552875">
        <ele>622.475</ele>
        <time>2022-12-06T11:18:39Z</time>
      </trkpt>
      <trkpt lat="36.911098" lon="-3.552895">
        <ele>623.083</ele>
        <time>2022-12-06T11:18:41Z</time>
      </trkpt>
      <trkpt lat="36.911089" lon="-3.552941">
        <ele>624.220</ele>
        <time>2022-12-06T11:18:45Z</time>
      </trkpt>
      <trkpt lat="36.911087" lon="-3.552998">
        <ele>625.438</ele>
        <time>2022-12-06T11:18:50Z</time>
      </trkpt>
      <trkpt lat="36.911080" lon="-3.553092">
        <ele>626.532</ele>
        <time>2022-12-06T11:18:56Z</time>
      </trkpt>
      <trkpt lat="36.911076" lon="-3.553173">
        <ele>627.063</ele>
        <time>2022-12-06T11:19:01Z</time>
      </trkpt>
      <trkpt lat="36.911064" lon="-3.553212">
        <ele>627.580</ele>
        <time>2022-12-06T11:19:04Z</time>
      </trkpt>
      <trkpt lat="36.911039" lon="-3.553312">
        <ele>628.561</ele>
        <time>2022-12-06T11:19:11Z</time>
      </trkpt>
      <trkpt lat="36.911037" lon="-3.553336">
        <ele>629.056</ele>
        <time>2022-12-06T11:19:13Z</time>
      </trkpt>
      <trkpt lat="36.911032" lon="-3.553410">
        <ele>629.759</ele>
        <time>2022-12-06T11:19:18Z</time>
      </trkpt>
      <trkpt lat="36.911031" lon="-3.553427">
        <ele>630.014</ele>
        <time>2022-12-06T11:19:20Z</time>
      </trkpt>
      <trkpt lat="36.911038" lon="-3.553448">
        <ele>630.509</ele>
        <time>2022-12-06T11:19:22Z</time>
      </trkpt>
      <trkpt lat="36.911041" lon="-3.553462">
        <ele>630.756</ele>
        <time>2022-12-06T11:19:23Z</time>
      </trkpt>
      <trkpt lat="36.911034" lon="-3.553523">
        <ele>631.567</ele>
        <time>2022-12-06T11:19:27Z</time>
      </trkpt>
      <trkpt lat="36.911024" lon="-3.553555">
        <ele>632.035</ele>
        <time>2022-12-06T11:19:29Z</time>
      </trkpt>
      <trkpt lat="36.911020" lon="-3.553583">
        <ele>632.442</ele>
        <time>2022-12-06T11:19:31Z</time>
      </trkpt>
      <trkpt lat="36.911022" lon="-3.553611">
        <ele>633.030</ele>
        <time>2022-12-06T11:19:33Z</time>
      </trkpt>
      <trkpt lat="36.911016" lon="-3.553635">
        <ele>633.754</ele>
        <time>2022-12-06T11:19:36Z</time>
      </trkpt>
      <trkpt lat="36.911011" lon="-3.553645">
        <ele>634.075</ele>
        <time>2022-12-06T11:19:37Z</time>
      </trkpt>
      <trkpt lat="36.910978" lon="-3.553679">
        <ele>635.062</ele>
        <time>2022-12-06T11:19:41Z</time>
      </trkpt>
      <trkpt lat="36.910977" lon="-3.553693">
        <ele>635.433</ele>
        <time>2022-12-06T11:19:42Z</time>
      </trkpt>
      <trkpt lat="36.910980" lon="-3.553709">
        <ele>635.574</ele>
        <time>2022-12-06T11:19:43Z</time>
      </trkpt>
      <trkpt lat="36.910976" lon="-3.553758">
        <ele>636.456</ele>
        <time>2022-12-06T11:19:46Z</time>
      </trkpt>
      <trkpt lat="36.910966" lon="-3.553828">
        <ele>637.421</ele>
        <time>2022-12-06T11:19:50Z</time>
      </trkpt>
      <trkpt lat="36.910970" lon="-3.553842">
        <ele>637.509</ele>
        <time>2022-12-06T11:19:51Z</time>
      </trkpt>
      <trkpt lat="36.910989" lon="-3.553900">
        <ele>638.598</ele>
        <time>2022-12-06T11:19:55Z</time>
      </trkpt>
      <trkpt lat="36.911012" lon="-3.553966">
        <ele>639.719</ele>
        <time>2022-12-06T11:20:00Z</time>
      </trkpt>
      <trkpt lat="36.911029" lon="-3.554039">
        <ele>640.737</ele>
        <time>2022-12-06T11:20:06Z</time>
      </trkpt>
      <trkpt lat="36.911047" lon="-3.554110">
        <ele>642.014</ele>
        <time>2022-12-06T11:20:11Z</time>
      </trkpt>
      <trkpt lat="36.911066" lon="-3.554199">
        <ele>643.082</ele>
        <time>2022-12-06T11:20:17Z</time>
      </trkpt>
      <trkpt lat="36.911084" lon="-3.554273">
        <ele>644.496</ele>
        <time>2022-12-06T11:20:23Z</time>
      </trkpt>
      <trkpt lat="36.911083" lon="-3.554303">
        <ele>644.737</ele>
        <time>2022-12-06T11:20:25Z</time>
      </trkpt>
      <trkpt lat="36.911073" lon="-3.554355">
        <ele>645.414</ele>
        <time>2022-12-06T11:20:28Z</time>
      </trkpt>
      <trkpt lat="36.911103" lon="-3.554398">
        <ele>645.765</ele>
        <time>2022-12-06T11:20:32Z</time>
      </trkpt>
      <trkpt lat="36.911134" lon="-3.554476">
        <ele>646.057</ele>
        <time>2022-12-06T11:20:39Z</time>
      </trkpt>
      <trkpt lat="36.911138" lon="-3.554542">
        <ele>646.200</ele>
        <time>2022-12-06T11:20:45Z</time>
      </trkpt>
      <trkpt lat="36.911144" lon="-3.554568">
        <ele>646.420</ele>
        <time>2022-12-06T11:20:47Z</time>
      </trkpt>
      <trkpt lat="36.911142" lon="-3.554591">
        <ele>646.509</ele>
        <time>2022-12-06T11:20:49Z</time>
      </trkpt>
      <trkpt lat="36.911125" lon="-3.554609">
        <ele>646.546</ele>
        <time>2022-12-06T11:20:51Z</time>
      </trkpt>
      <trkpt lat="36.911026" lon="-3.554761">
        <ele>646.727</ele>
        <time>2022-12-06T11:21:00Z</time>
      </trkpt>
      <trkpt lat="36.910953" lon="-3.554831">
        <ele>647.545</ele>
        <time>2022-12-06T11:21:06Z</time>
      </trkpt>
      <trkpt lat="36.910773" lon="-3.554904">
        <ele>647.292</ele>
        <time>2022-12-06T11:21:21Z</time>
      </trkpt>
      <trkpt lat="36.910599" lon="-3.554993">
        <ele>648.070</ele>
        <time>2022-12-06T11:21:35Z</time>
      </trkpt>
      <trkpt lat="36.910591" lon="-3.555019">
        <ele>648.594</ele>
        <time>2022-12-06T11:21:37Z</time>
      </trkpt>
      <trkpt lat="36.910589" lon="-3.555077">
        <ele>649.255</ele>
        <time>2022-12-06T11:21:41Z</time>
      </trkpt>
      <trkpt lat="36.910587" lon="-3.555105">
        <ele>649.422</ele>
        <time>2022-12-06T11:21:43Z</time>
      </trkpt>
      <trkpt lat="36.910584" lon="-3.555145">
        <ele>649.723</ele>
        <time>2022-12-06T11:21:45Z</time>
      </trkpt>
      <trkpt lat="36.910574" lon="-3.555220">
        <ele>650.493</ele>
        <time>2022-12-06T11:21:50Z</time>
      </trkpt>
      <trkpt lat="36.910560" lon="-3.555264">
        <ele>651.065</ele>
        <time>2022-12-06T11:21:53Z</time>
      </trkpt>
      <trkpt lat="36.910503" lon="-3.555324">
        <ele>651.721</ele>
        <time>2022-12-06T11:21:58Z</time>
      </trkpt>
      <trkpt lat="36.910484" lon="-3.555340">
        <ele>652.009</ele>
        <time>2022-12-06T11:22:00Z</time>
      </trkpt>
      <trkpt lat="36.910471" lon="-3.555353">
        <ele>652.050</ele>
        <time>2022-12-06T11:22:01Z</time>
      </trkpt>
      <trkpt lat="36.910453" lon="-3.555383">
        <ele>652.461</ele>
        <time>2022-12-06T11:22:03Z</time>
      </trkpt>
      <trkpt lat="36.910413" lon="-3.555437">
        <ele>653.219</ele>
        <time>2022-12-06T11:22:08Z</time>
      </trkpt>
      <trkpt lat="36.910394" lon="-3.555506">
        <ele>654.016</ele>
        <time>2022-12-06T11:22:14Z</time>
      </trkpt>
      <trkpt lat="36.910365" lon="-3.555553">
        <ele>654.294</ele>
        <time>2022-12-06T11:22:18Z</time>
      </trkpt>
      <trkpt lat="36.910303" lon="-3.555665">
        <ele>654.768</ele>
        <time>2022-12-06T11:22:28Z</time>
      </trkpt>
      <trkpt lat="36.910247" lon="-3.555672">
        <ele>655.479</ele>
        <time>2022-12-06T11:22:32Z</time>
      </trkpt>
      <trkpt lat="36.910100" lon="-3.555760">
        <ele>656.476</ele>
        <time>2022-12-06T11:22:44Z</time>
      </trkpt>
      <trkpt lat="36.910095" lon="-3.555767">
        <ele>656.487</ele>
        <time>2022-12-06T11:22:45Z</time>
      </trkpt>
      <trkpt lat="36.910093" lon="-3.555782">
        <ele>656.577</ele>
        <time>2022-12-06T11:22:47Z</time>
      </trkpt>
      <trkpt lat="36.910052" lon="-3.555770">
        <ele>657.461</ele>
        <time>2022-12-06T11:22:51Z</time>
      </trkpt>
      <trkpt lat="36.909970" lon="-3.555844">
        <ele>658.427</ele>
        <time>2022-12-06T11:22:59Z</time>
      </trkpt>
      <trkpt lat="36.909941" lon="-3.555862">
        <ele>658.709</ele>
        <time>2022-12-06T11:23:01Z</time>
      </trkpt>
      <trkpt lat="36.909905" lon="-3.555997">
        <ele>659.758</ele>
        <time>2022-12-06T11:23:07Z</time>
      </trkpt>
      <trkpt lat="36.909864" lon="-3.556070">
        <ele>660.799</ele>
        <time>2022-12-06T11:23:16Z</time>
      </trkpt>
      <trkpt lat="36.909866" lon="-3.556127">
        <ele>660.747</ele>
        <time>2022-12-06T11:23:19Z</time>
      </trkpt>
      <trkpt lat="36.909834" lon="-3.556177">
        <ele>661.064</ele>
        <time>2022-12-06T11:23:24Z</time>
      </trkpt>
      <trkpt lat="36.909826" lon="-3.556199">
        <ele>661.412</ele>
        <time>2022-12-06T11:23:28Z</time>
      </trkpt>
      <trkpt lat="36.909823" lon="-3.556216">
        <ele>661.486</ele>
        <time>2022-12-06T11:23:30Z</time>
      </trkpt>
      <trkpt lat="36.909813" lon="-3.556217">
        <ele>661.267</ele>
        <time>2022-12-06T11:23:35Z</time>
      </trkpt>
      <trkpt lat="36.909817" lon="-3.556278">
        <ele>661.494</ele>
        <time>2022-12-06T11:24:15Z</time>
      </trkpt>
      <trkpt lat="36.909814" lon="-3.556287">
        <ele>661.475</ele>
        <time>2022-12-06T11:24:18Z</time>
      </trkpt>
      <trkpt lat="36.909875" lon="-3.556309">
        <ele>661.591</ele>
        <time>2022-12-06T11:25:01Z</time>
      </trkpt>
      <trkpt lat="36.909814" lon="-3.556310">
        <ele>661.581</ele>
        <time>2022-12-06T11:26:17Z</time>
      </trkpt>
      <trkpt lat="36.909840" lon="-3.556271">
        <ele>661.519</ele>
        <time>2022-12-06T11:27:44Z</time>
      </trkpt>
      <trkpt lat="36.909785" lon="-3.556228">
        <ele>661.509</ele>
        <time>2022-12-06T11:29:30Z</time>
      </trkpt>
      <trkpt lat="36.909748" lon="-3.556225">
        <ele>661.790</ele>
        <time>2022-12-06T11:29:35Z</time>
      </trkpt>
      <trkpt lat="36.909743" lon="-3.556225">
        <ele>661.741</ele>
        <time>2022-12-06T11:29:36Z</time>
      </trkpt>
      <trkpt lat="36.909686" lon="-3.556225">
        <ele>662.029</ele>
        <time>2022-12-06T11:29:42Z</time>
      </trkpt>
      <trkpt lat="36.909662" lon="-3.556228">
        <ele>662.426</ele>
        <time>2022-12-06T11:29:46Z</time>
      </trkpt>
      <trkpt lat="36.909570" lon="-3.556288">
        <ele>662.724</ele>
        <time>2022-12-06T11:29:55Z</time>
      </trkpt>
      <trkpt lat="36.909549" lon="-3.556289">
        <ele>663.028</ele>
        <time>2022-12-06T11:29:57Z</time>
      </trkpt>
      <trkpt lat="36.909462" lon="-3.556357">
        <ele>663.519</ele>
        <time>2022-12-06T11:30:05Z</time>
      </trkpt>
      <trkpt lat="36.909452" lon="-3.556376">
        <ele>663.446</ele>
        <time>2022-12-06T11:30:07Z</time>
      </trkpt>
      <trkpt lat="36.909382" lon="-3.556395">
        <ele>664.047</ele>
        <time>2022-12-06T11:30:15Z</time>
      </trkpt>
      <trkpt lat="36.909359" lon="-3.556390">
        <ele>664.229</ele>
        <time>2022-12-06T11:30:17Z</time>
      </trkpt>
      <trkpt lat="36.909280" lon="-3.556410">
        <ele>665.000</ele>
        <time>2022-12-06T11:30:23Z</time>
      </trkpt>
      <trkpt lat="36.909247" lon="-3.556435">
        <ele>665.220</ele>
        <time>2022-12-06T11:30:27Z</time>
      </trkpt>
      <trkpt lat="36.909237" lon="-3.556448">
        <ele>665.209</ele>
        <time>2022-12-06T11:30:29Z</time>
      </trkpt>
      <trkpt lat="36.909240" lon="-3.556434">
        <ele>665.553</ele>
        <time>2022-12-06T11:30:33Z</time>
      </trkpt>
      <trkpt lat="36.909187" lon="-3.556405">
        <ele>665.724</ele>
        <time>2022-12-06T11:31:11Z</time>
      </trkpt>
      <trkpt lat="36.909179" lon="-3.556408">
        <ele>666.042</ele>
        <time>2022-12-06T11:31:12Z</time>
      </trkpt>
      <trkpt lat="36.909152" lon="-3.556423">
        <ele>666.069</ele>
        <time>2022-12-06T11:31:17Z</time>
      </trkpt>
      <trkpt lat="36.909116" lon="-3.556443">
        <ele>666.447</ele>
        <time>2022-12-06T11:31:21Z</time>
      </trkpt>
      <trkpt lat="36.909082" lon="-3.556465">
        <ele>666.531</ele>
        <time>2022-12-06T11:31:23Z</time>
      </trkpt>
      <trkpt lat="36.909049" lon="-3.556479">
        <ele>667.282</ele>
        <time>2022-12-06T11:31:25Z</time>
      </trkpt>
      <trkpt lat="36.908881" lon="-3.556549">
        <ele>668.279</ele>
        <time>2022-12-06T11:31:38Z</time>
      </trkpt>
      <trkpt lat="36.908808" lon="-3.556632">
        <ele>669.080</ele>
        <time>2022-12-06T11:31:47Z</time>
      </trkpt>
      <trkpt lat="36.908814" lon="-3.556717">
        <ele>669.246</ele>
        <time>2022-12-06T11:31:51Z</time>
      </trkpt>
      <trkpt lat="36.908762" lon="-3.556840">
        <ele>669.088</ele>
        <time>2022-12-06T11:31:58Z</time>
      </trkpt>
      <trkpt lat="36.908760" lon="-3.557070">
        <ele>669.216</ele>
        <time>2022-12-06T11:32:10Z</time>
      </trkpt>
      <trkpt lat="36.908765" lon="-3.557087">
        <ele>669.209</ele>
        <time>2022-12-06T11:32:11Z</time>
      </trkpt>
      <trkpt lat="36.908812" lon="-3.557312">
        <ele>668.465</ele>
        <time>2022-12-06T11:32:25Z</time>
      </trkpt>
      <trkpt lat="36.908832" lon="-3.557542">
        <ele>669.266</ele>
        <time>2022-12-06T11:32:39Z</time>
      </trkpt>
      <trkpt lat="36.908864" lon="-3.557745">
        <ele>668.544</ele>
        <time>2022-12-06T11:32:52Z</time>
      </trkpt>
      <trkpt lat="36.908865" lon="-3.557778">
        <ele>668.571</ele>
        <time>2022-12-06T11:32:54Z</time>
      </trkpt>
      <trkpt lat="36.908872" lon="-3.557806">
        <ele>668.529</ele>
        <time>2022-12-06T11:32:56Z</time>
      </trkpt>
      <trkpt lat="36.908897" lon="-3.557869">
        <ele>668.513</ele>
        <time>2022-12-06T11:33:01Z</time>
      </trkpt>
      <trkpt lat="36.908918" lon="-3.557925">
        <ele>669.064</ele>
        <time>2022-12-06T11:33:05Z</time>
      </trkpt>
      <trkpt lat="36.908931" lon="-3.557949">
        <ele>669.051</ele>
        <time>2022-12-06T11:33:07Z</time>
      </trkpt>
      <trkpt lat="36.908925" lon="-3.558124">
        <ele>668.572</ele>
        <time>2022-12-06T11:33:19Z</time>
      </trkpt>
      <trkpt lat="36.908886" lon="-3.558142">
        <ele>669.021</ele>
        <time>2022-12-06T11:33:23Z</time>
      </trkpt>
      <trkpt lat="36.908850" lon="-3.558164">
        <ele>669.441</ele>
        <time>2022-12-06T11:33:26Z</time>
      </trkpt>
      <trkpt lat="36.908787" lon="-3.558129">
        <ele>670.405</ele>
        <time>2022-12-06T11:33:32Z</time>
      </trkpt>
      <trkpt lat="36.908730" lon="-3.558089">
        <ele>671.409</ele>
        <time>2022-12-06T11:33:38Z</time>
      </trkpt>
      <trkpt lat="36.908721" lon="-3.558079">
        <ele>671.523</ele>
        <time>2022-12-06T11:33:39Z</time>
      </trkpt>
      <trkpt lat="36.908660" lon="-3.558035">
        <ele>672.564</ele>
        <time>2022-12-06T11:33:44Z</time>
      </trkpt>
      <trkpt lat="36.908588" lon="-3.557981">
        <ele>673.532</ele>
        <time>2022-12-06T11:33:51Z</time>
      </trkpt>
      <trkpt lat="36.908581" lon="-3.557963">
        <ele>674.099</ele>
        <time>2022-12-06T11:33:53Z</time>
      </trkpt>
      <trkpt lat="36.908566" lon="-3.557942">
        <ele>674.777</ele>
        <time>2022-12-06T11:33:56Z</time>
      </trkpt>
      <trkpt lat="36.908493" lon="-3.557924">
        <ele>675.781</ele>
        <time>2022-12-06T11:34:02Z</time>
      </trkpt>
      <trkpt lat="36.908453" lon="-3.557903">
        <ele>676.742</ele>
        <time>2022-12-06T11:34:07Z</time>
      </trkpt>
      <trkpt lat="36.908383" lon="-3.557875">
        <ele>678.259</ele>
        <time>2022-12-06T11:34:14Z</time>
      </trkpt>
      <trkpt lat="36.908352" lon="-3.557865">
        <ele>679.090</ele>
        <time>2022-12-06T11:34:18Z</time>
      </trkpt>
      <trkpt lat="36.908343" lon="-3.557860">
        <ele>679.246</ele>
        <time>2022-12-06T11:34:19Z</time>
      </trkpt>
      <trkpt lat="36.908305" lon="-3.557812">
        <ele>680.488</ele>
        <time>2022-12-06T11:34:24Z</time>
      </trkpt>
      <trkpt lat="36.908267" lon="-3.557752">
        <ele>681.516</ele>
        <time>2022-12-06T11:34:29Z</time>
      </trkpt>
      <trkpt lat="36.908104" lon="-3.557628">
        <ele>682.209</ele>
        <time>2022-12-06T11:34:44Z</time>
      </trkpt>
      <trkpt lat="36.908035" lon="-3.557664">
        <ele>682.465</ele>
        <time>2022-12-06T11:34:51Z</time>
      </trkpt>
      <trkpt lat="36.907989" lon="-3.557738">
        <ele>682.786</ele>
        <time>2022-12-06T11:34:56Z</time>
      </trkpt>
      <trkpt lat="36.907989" lon="-3.557768">
        <ele>683.214</ele>
        <time>2022-12-06T11:34:58Z</time>
      </trkpt>
      <trkpt lat="36.908013" lon="-3.557813">
        <ele>683.771</ele>
        <time>2022-12-06T11:35:01Z</time>
      </trkpt>
      <trkpt lat="36.908043" lon="-3.557907">
        <ele>684.749</ele>
        <time>2022-12-06T11:35:06Z</time>
      </trkpt>
      <trkpt lat="36.908095" lon="-3.557995">
        <ele>686.063</ele>
        <time>2022-12-06T11:35:12Z</time>
      </trkpt>
      <trkpt lat="36.908141" lon="-3.558079">
        <ele>686.584</ele>
        <time>2022-12-06T11:35:21Z</time>
      </trkpt>
      <trkpt lat="36.908163" lon="-3.558126">
        <ele>686.781</ele>
        <time>2022-12-06T11:35:25Z</time>
      </trkpt>
      <trkpt lat="36.908187" lon="-3.558166">
        <ele>687.042</ele>
        <time>2022-12-06T11:35:28Z</time>
      </trkpt>
      <trkpt lat="36.908212" lon="-3.558233">
        <ele>687.794</ele>
        <time>2022-12-06T11:35:33Z</time>
      </trkpt>
      <trkpt lat="36.908249" lon="-3.558290">
        <ele>688.057</ele>
        <time>2022-12-06T11:35:40Z</time>
      </trkpt>
      <trkpt lat="36.908265" lon="-3.558303">
        <ele>688.222</ele>
        <time>2022-12-06T11:35:42Z</time>
      </trkpt>
      <trkpt lat="36.908288" lon="-3.558329">
        <ele>688.709</ele>
        <time>2022-12-06T11:35:46Z</time>
      </trkpt>
      <trkpt lat="36.908288" lon="-3.558350">
        <ele>689.230</ele>
        <time>2022-12-06T11:35:48Z</time>
      </trkpt>
      <trkpt lat="36.908295" lon="-3.558352">
        <ele>689.261</ele>
        <time>2022-12-06T11:35:49Z</time>
      </trkpt>
      <trkpt lat="36.908309" lon="-3.558358">
        <ele>689.549</ele>
        <time>2022-12-06T11:35:51Z</time>
      </trkpt>
      <trkpt lat="36.908365" lon="-3.558413">
        <ele>690.036</ele>
        <time>2022-12-06T11:35:58Z</time>
      </trkpt>
      <trkpt lat="36.908385" lon="-3.558446">
        <ele>690.464</ele>
        <time>2022-12-06T11:36:01Z</time>
      </trkpt>
      <trkpt lat="36.908394" lon="-3.558463">
        <ele>690.518</ele>
        <time>2022-12-06T11:36:03Z</time>
      </trkpt>
      <trkpt lat="36.908413" lon="-3.558487">
        <ele>691.079</ele>
        <time>2022-12-06T11:36:07Z</time>
      </trkpt>
      <trkpt lat="36.908415" lon="-3.558510">
        <ele>691.486</ele>
        <time>2022-12-06T11:36:10Z</time>
      </trkpt>
      <trkpt lat="36.908443" lon="-3.558582">
        <ele>692.497</ele>
        <time>2022-12-06T11:36:17Z</time>
      </trkpt>
      <trkpt lat="36.908459" lon="-3.558653">
        <ele>693.494</ele>
        <time>2022-12-06T11:36:23Z</time>
      </trkpt>
      <trkpt lat="36.908462" lon="-3.558714">
        <ele>694.057</ele>
        <time>2022-12-06T11:36:28Z</time>
      </trkpt>
      <trkpt lat="36.908452" lon="-3.558716">
        <ele>694.522</ele>
        <time>2022-12-06T11:36:31Z</time>
      </trkpt>
      <trkpt lat="36.908445" lon="-3.558705">
        <ele>695.009</ele>
        <time>2022-12-06T11:36:33Z</time>
      </trkpt>
      <trkpt lat="36.908431" lon="-3.558677">
        <ele>695.790</ele>
        <time>2022-12-06T11:36:36Z</time>
      </trkpt>
      <trkpt lat="36.908407" lon="-3.558642">
        <ele>697.051</ele>
        <time>2022-12-06T11:36:41Z</time>
      </trkpt>
      <trkpt lat="36.908400" lon="-3.558630">
        <ele>697.249</ele>
        <time>2022-12-06T11:36:42Z</time>
      </trkpt>
      <trkpt lat="36.908362" lon="-3.558582">
        <ele>698.066</ele>
        <time>2022-12-06T11:36:47Z</time>
      </trkpt>
      <trkpt lat="36.908296" lon="-3.558536">
        <ele>699.024</ele>
        <time>2022-12-06T11:36:54Z</time>
      </trkpt>
      <trkpt lat="36.908229" lon="-3.558472">
        <ele>700.098</ele>
        <time>2022-12-06T11:37:02Z</time>
      </trkpt>
      <trkpt lat="36.908188" lon="-3.558458">
        <ele>700.559</ele>
        <time>2022-12-06T11:37:07Z</time>
      </trkpt>
      <trkpt lat="36.908186" lon="-3.558442">
        <ele>700.756</ele>
        <time>2022-12-06T11:37:11Z</time>
      </trkpt>
      <trkpt lat="36.908143" lon="-3.558413">
        <ele>701.297</ele>
        <time>2022-12-06T11:37:34Z</time>
      </trkpt>
      <trkpt lat="36.908144" lon="-3.558384">
        <ele>702.069</ele>
        <time>2022-12-06T11:38:52Z</time>
      </trkpt>
      <trkpt lat="36.908129" lon="-3.558390">
        <ele>702.404</ele>
        <time>2022-12-06T11:38:54Z</time>
      </trkpt>
      <trkpt lat="36.908080" lon="-3.558422">
        <ele>703.524</ele>
        <time>2022-12-06T11:38:59Z</time>
      </trkpt>
      <trkpt lat="36.908044" lon="-3.558458">
        <ele>704.509</ele>
        <time>2022-12-06T11:39:04Z</time>
      </trkpt>
      <trkpt lat="36.908038" lon="-3.558464">
        <ele>704.747</ele>
        <time>2022-12-06T11:39:05Z</time>
      </trkpt>
      <trkpt lat="36.908023" lon="-3.558476">
        <ele>705.548</ele>
        <time>2022-12-06T11:39:08Z</time>
      </trkpt>
      <trkpt lat="36.907983" lon="-3.558494">
        <ele>707.066</ele>
        <time>2022-12-06T11:39:13Z</time>
      </trkpt>
      <trkpt lat="36.907951" lon="-3.558513">
        <ele>708.293</ele>
        <time>2022-12-06T11:39:17Z</time>
      </trkpt>
      <trkpt lat="36.907933" lon="-3.558493">
        <ele>709.471</ele>
        <time>2022-12-06T11:39:22Z</time>
      </trkpt>
      <trkpt lat="36.907909" lon="-3.558471">
        <ele>710.575</ele>
        <time>2022-12-06T11:39:27Z</time>
      </trkpt>
      <trkpt lat="36.907896" lon="-3.558467">
        <ele>711.236</ele>
        <time>2022-12-06T11:39:29Z</time>
      </trkpt>
      <trkpt lat="36.907889" lon="-3.558472">
        <ele>711.493</ele>
        <time>2022-12-06T11:39:30Z</time>
      </trkpt>
      <trkpt lat="36.907882" lon="-3.558476">
        <ele>711.564</ele>
        <time>2022-12-06T11:39:31Z</time>
      </trkpt>
      <trkpt lat="36.907872" lon="-3.558480">
        <ele>712.095</ele>
        <time>2022-12-06T11:39:33Z</time>
      </trkpt>
      <trkpt lat="36.907862" lon="-3.558489">
        <ele>712.549</ele>
        <time>2022-12-06T11:39:36Z</time>
      </trkpt>
      <trkpt lat="36.907838" lon="-3.558498">
        <ele>713.523</ele>
        <time>2022-12-06T11:39:41Z</time>
      </trkpt>
      <trkpt lat="36.907815" lon="-3.558519">
        <ele>715.009</ele>
        <time>2022-12-06T11:39:46Z</time>
      </trkpt>
      <trkpt lat="36.907816" lon="-3.558545">
        <ele>716.050</ele>
        <time>2022-12-06T11:39:50Z</time>
      </trkpt>
      <trkpt lat="36.907827" lon="-3.558589">
        <ele>717.241</ele>
        <time>2022-12-06T11:39:54Z</time>
      </trkpt>
      <trkpt lat="36.907840" lon="-3.558668">
        <ele>718.229</ele>
        <time>2022-12-06T11:40:00Z</time>
      </trkpt>
      <trkpt lat="36.907844" lon="-3.558677">
        <ele>718.456</ele>
        <time>2022-12-06T11:40:01Z</time>
      </trkpt>
      <trkpt lat="36.907861" lon="-3.558728">
        <ele>719.064</ele>
        <time>2022-12-06T11:40:05Z</time>
      </trkpt>
      <trkpt lat="36.907861" lon="-3.558758">
        <ele>719.288</ele>
        <time>2022-12-06T11:40:07Z</time>
      </trkpt>
      <trkpt lat="36.907891" lon="-3.558842">
        <ele>720.099</ele>
        <time>2022-12-06T11:40:14Z</time>
      </trkpt>
      <trkpt lat="36.907894" lon="-3.558863">
        <ele>720.426</ele>
        <time>2022-12-06T11:40:16Z</time>
      </trkpt>
      <trkpt lat="36.907916" lon="-3.558895">
        <ele>721.567</ele>
        <time>2022-12-06T11:40:21Z</time>
      </trkpt>
      <trkpt lat="36.907945" lon="-3.558970">
        <ele>722.524</ele>
        <time>2022-12-06T11:40:28Z</time>
      </trkpt>
      <trkpt lat="36.907948" lon="-3.558981">
        <ele>723.004</ele>
        <time>2022-12-06T11:40:29Z</time>
      </trkpt>
      <trkpt lat="36.907969" lon="-3.559021">
        <ele>723.714</ele>
        <time>2022-12-06T11:40:33Z</time>
      </trkpt>
      <trkpt lat="36.907998" lon="-3.559063">
        <ele>725.009</ele>
        <time>2022-12-06T11:40:38Z</time>
      </trkpt>
      <trkpt lat="36.908025" lon="-3.559092">
        <ele>725.523</ele>
        <time>2022-12-06T11:40:42Z</time>
      </trkpt>
      <trkpt lat="36.908042" lon="-3.559108">
        <ele>726.084</ele>
        <time>2022-12-06T11:40:44Z</time>
      </trkpt>
      <trkpt lat="36.908080" lon="-3.559157">
        <ele>727.062</ele>
        <time>2022-12-06T11:40:50Z</time>
      </trkpt>
      <trkpt lat="36.908125" lon="-3.559202">
        <ele>728.259</ele>
        <time>2022-12-06T11:40:56Z</time>
      </trkpt>
      <trkpt lat="36.908153" lon="-3.559257">
        <ele>728.757</ele>
        <time>2022-12-06T11:41:01Z</time>
      </trkpt>
      <trkpt lat="36.908181" lon="-3.559293">
        <ele>729.261</ele>
        <time>2022-12-06T11:41:05Z</time>
      </trkpt>
      <trkpt lat="36.908212" lon="-3.559351">
        <ele>730.412</ele>
        <time>2022-12-06T11:41:11Z</time>
      </trkpt>
      <trkpt lat="36.908228" lon="-3.559397">
        <ele>731.249</ele>
        <time>2022-12-06T11:41:15Z</time>
      </trkpt>
      <trkpt lat="36.908229" lon="-3.559417">
        <ele>731.520</ele>
        <time>2022-12-06T11:41:18Z</time>
      </trkpt>
      <trkpt lat="36.908231" lon="-3.559420">
        <ele>731.794</ele>
        <time>2022-12-06T11:41:19Z</time>
      </trkpt>
      <trkpt lat="36.908191" lon="-3.559392">
        <ele>732.757</ele>
        <time>2022-12-06T11:41:24Z</time>
      </trkpt>
      <trkpt lat="36.908171" lon="-3.559380">
        <ele>733.222</ele>
        <time>2022-12-06T11:41:26Z</time>
      </trkpt>
      <trkpt lat="36.908151" lon="-3.559367">
        <ele>733.509</ele>
        <time>2022-12-06T11:41:29Z</time>
      </trkpt>
      <trkpt lat="36.908144" lon="-3.559377">
        <ele>733.790</ele>
        <time>2022-12-06T11:41:31Z</time>
      </trkpt>
      <trkpt lat="36.908141" lon="-3.559401">
        <ele>735.021</ele>
        <time>2022-12-06T11:41:35Z</time>
      </trkpt>
      <trkpt lat="36.908145" lon="-3.559450">
        <ele>736.269</ele>
        <time>2022-12-06T11:41:40Z</time>
      </trkpt>
      <trkpt lat="36.908145" lon="-3.559488">
        <ele>736.556</ele>
        <time>2022-12-06T11:41:43Z</time>
      </trkpt>
      <trkpt lat="36.908154" lon="-3.559582">
        <ele>737.294</ele>
        <time>2022-12-06T11:41:49Z</time>
      </trkpt>
      <trkpt lat="36.908138" lon="-3.559645">
        <ele>737.798</ele>
        <time>2022-12-06T11:41:54Z</time>
      </trkpt>
      <trkpt lat="36.908133" lon="-3.559657">
        <ele>738.099</ele>
        <time>2022-12-06T11:41:56Z</time>
      </trkpt>
      <trkpt lat="36.908130" lon="-3.559665">
        <ele>738.266</ele>
        <time>2022-12-06T11:41:57Z</time>
      </trkpt>
      <trkpt lat="36.908120" lon="-3.559679">
        <ele>738.557</ele>
        <time>2022-12-06T11:41:59Z</time>
      </trkpt>
      <trkpt lat="36.908107" lon="-3.559698">
        <ele>739.236</ele>
        <time>2022-12-06T11:42:02Z</time>
      </trkpt>
      <trkpt lat="36.908098" lon="-3.559726">
        <ele>739.717</ele>
        <time>2022-12-06T11:42:05Z</time>
      </trkpt>
      <trkpt lat="36.908096" lon="-3.559730">
        <ele>740.218</ele>
        <time>2022-12-06T11:42:07Z</time>
      </trkpt>
      <trkpt lat="36.908092" lon="-3.559734">
        <ele>740.209</ele>
        <time>2022-12-06T11:42:08Z</time>
      </trkpt>
      <trkpt lat="36.908067" lon="-3.559733">
        <ele>741.434</ele>
        <time>2022-12-06T11:42:14Z</time>
      </trkpt>
      <trkpt lat="36.908043" lon="-3.559676">
        <ele>742.515</ele>
        <time>2022-12-06T11:42:19Z</time>
      </trkpt>
      <trkpt lat="36.908009" lon="-3.559665">
        <ele>743.763</ele>
        <time>2022-12-06T11:42:25Z</time>
      </trkpt>
      <trkpt lat="36.908005" lon="-3.559711">
        <ele>745.060</ele>
        <time>2022-12-06T11:42:30Z</time>
      </trkpt>
      <trkpt lat="36.907998" lon="-3.559764">
        <ele>746.238</ele>
        <time>2022-12-06T11:42:35Z</time>
      </trkpt>
      <trkpt lat="36.907990" lon="-3.559775">
        <ele>746.232</ele>
        <time>2022-12-06T11:42:36Z</time>
      </trkpt>
      <trkpt lat="36.907971" lon="-3.559788">
        <ele>746.533</ele>
        <time>2022-12-06T11:42:39Z</time>
      </trkpt>
      <trkpt lat="36.907954" lon="-3.559772">
        <ele>747.090</ele>
        <time>2022-12-06T11:42:41Z</time>
      </trkpt>
      <trkpt lat="36.907950" lon="-3.559762">
        <ele>747.281</ele>
        <time>2022-12-06T11:42:42Z</time>
      </trkpt>
      <trkpt lat="36.907951" lon="-3.559750">
        <ele>747.568</ele>
        <time>2022-12-06T11:42:44Z</time>
      </trkpt>
      <trkpt lat="36.907954" lon="-3.559739">
        <ele>748.442</ele>
        <time>2022-12-06T11:42:47Z</time>
      </trkpt>
      <trkpt lat="36.907935" lon="-3.559737">
        <ele>749.426</ele>
        <time>2022-12-06T11:42:52Z</time>
      </trkpt>
      <trkpt lat="36.907931" lon="-3.559746">
        <ele>749.509</ele>
        <time>2022-12-06T11:42:53Z</time>
      </trkpt>
      <trkpt lat="36.907923" lon="-3.559783">
        <ele>750.587</ele>
        <time>2022-12-06T11:42:57Z</time>
      </trkpt>
      <trkpt lat="36.907899" lon="-3.559817">
        <ele>751.258</ele>
        <time>2022-12-06T11:43:00Z</time>
      </trkpt>
      <trkpt lat="36.907884" lon="-3.559852">
        <ele>751.586</ele>
        <time>2022-12-06T11:43:03Z</time>
      </trkpt>
      <trkpt lat="36.907856" lon="-3.559910">
        <ele>752.753</ele>
        <time>2022-12-06T11:43:08Z</time>
      </trkpt>
      <trkpt lat="36.907839" lon="-3.559962">
        <ele>753.531</ele>
        <time>2022-12-06T11:43:12Z</time>
      </trkpt>
      <trkpt lat="36.907834" lon="-3.559973">
        <ele>753.775</ele>
        <time>2022-12-06T11:43:13Z</time>
      </trkpt>
      <trkpt lat="36.907829" lon="-3.559986">
        <ele>754.046</ele>
        <time>2022-12-06T11:43:14Z</time>
      </trkpt>
      <trkpt lat="36.907825" lon="-3.560010">
        <ele>754.433</ele>
        <time>2022-12-06T11:43:16Z</time>
      </trkpt>
      <trkpt lat="36.907816" lon="-3.560061">
        <ele>755.094</ele>
        <time>2022-12-06T11:43:20Z</time>
      </trkpt>
      <trkpt lat="36.907797" lon="-3.560087">
        <ele>755.486</ele>
        <time>2022-12-06T11:43:22Z</time>
      </trkpt>
      <trkpt lat="36.907769" lon="-3.560116">
        <ele>756.060</ele>
        <time>2022-12-06T11:43:25Z</time>
      </trkpt>
      <trkpt lat="36.907761" lon="-3.560120">
        <ele>756.026</ele>
        <time>2022-12-06T11:43:26Z</time>
      </trkpt>
      <trkpt lat="36.907751" lon="-3.560111">
        <ele>756.209</ele>
        <time>2022-12-06T11:43:27Z</time>
      </trkpt>
      <trkpt lat="36.907724" lon="-3.560053">
        <ele>757.299</ele>
        <time>2022-12-06T11:43:32Z</time>
      </trkpt>
      <trkpt lat="36.907687" lon="-3.559997">
        <ele>758.410</ele>
        <time>2022-12-06T11:43:37Z</time>
      </trkpt>
      <trkpt lat="36.907677" lon="-3.559989">
        <ele>758.518</ele>
        <time>2022-12-06T11:43:38Z</time>
      </trkpt>
      <trkpt lat="36.907645" lon="-3.559953">
        <ele>759.435</ele>
        <time>2022-12-06T11:43:42Z</time>
      </trkpt>
      <trkpt lat="36.907650" lon="-3.559903">
        <ele>760.573</ele>
        <time>2022-12-06T11:43:49Z</time>
      </trkpt>
      <trkpt lat="36.907662" lon="-3.559885">
        <ele>761.037</ele>
        <time>2022-12-06T11:43:51Z</time>
      </trkpt>
      <trkpt lat="36.907650" lon="-3.559856">
        <ele>761.768</ele>
        <time>2022-12-06T11:43:55Z</time>
      </trkpt>
      <trkpt lat="36.907635" lon="-3.559836">
        <ele>762.055</ele>
        <time>2022-12-06T11:43:57Z</time>
      </trkpt>
      <trkpt lat="36.907607" lon="-3.559807">
        <ele>762.536</ele>
        <time>2022-12-06T11:43:59Z</time>
      </trkpt>
      <trkpt lat="36.907580" lon="-3.559778">
        <ele>762.728</ele>
        <time>2022-12-06T11:44:01Z</time>
      </trkpt>
      <trkpt lat="36.907522" lon="-3.559740">
        <ele>763.789</ele>
        <time>2022-12-06T11:44:08Z</time>
      </trkpt>
      <trkpt lat="36.907499" lon="-3.559733">
        <ele>764.517</ele>
        <time>2022-12-06T11:44:12Z</time>
      </trkpt>
      <trkpt lat="36.907492" lon="-3.559723">
        <ele>764.709</ele>
        <time>2022-12-06T11:44:14Z</time>
      </trkpt>
      <trkpt lat="36.907476" lon="-3.559705">
        <ele>765.523</ele>
        <time>2022-12-06T11:44:17Z</time>
      </trkpt>
      <trkpt lat="36.907459" lon="-3.559702">
        <ele>766.014</ele>
        <time>2022-12-06T11:44:19Z</time>
      </trkpt>
      <trkpt lat="36.907410" lon="-3.559714">
        <ele>767.092</ele>
        <time>2022-12-06T11:44:24Z</time>
      </trkpt>
      <trkpt lat="36.907386" lon="-3.559743">
        <ele>768.279</ele>
        <time>2022-12-06T11:44:28Z</time>
      </trkpt>
      <trkpt lat="36.907388" lon="-3.559812">
        <ele>769.277</ele>
        <time>2022-12-06T11:44:33Z</time>
      </trkpt>
      <trkpt lat="36.907389" lon="-3.559838">
        <ele>769.591</ele>
        <time>2022-12-06T11:44:35Z</time>
      </trkpt>
      <trkpt lat="36.907392" lon="-3.559879">
        <ele>770.022</ele>
        <time>2022-12-06T11:44:38Z</time>
      </trkpt>
      <trkpt lat="36.907386" lon="-3.559916">
        <ele>770.499</ele>
        <time>2022-12-06T11:44:41Z</time>
      </trkpt>
      <trkpt lat="36.907381" lon="-3.559956">
        <ele>771.070</ele>
        <time>2022-12-06T11:44:44Z</time>
      </trkpt>
      <trkpt lat="36.907376" lon="-3.559985">
        <ele>771.433</ele>
        <time>2022-12-06T11:44:46Z</time>
      </trkpt>
      <trkpt lat="36.907364" lon="-3.560010">
        <ele>772.023</ele>
        <time>2022-12-06T11:44:49Z</time>
      </trkpt>
      <trkpt lat="36.907345" lon="-3.560017">
        <ele>772.415</ele>
        <time>2022-12-06T11:44:52Z</time>
      </trkpt>
      <trkpt lat="36.907336" lon="-3.560016">
        <ele>772.509</ele>
        <time>2022-12-06T11:44:53Z</time>
      </trkpt>
      <trkpt lat="36.907290" lon="-3.559960">
        <ele>773.494</ele>
        <time>2022-12-06T11:44:58Z</time>
      </trkpt>
      <trkpt lat="36.907290" lon="-3.559951">
        <ele>773.555</ele>
        <time>2022-12-06T11:44:59Z</time>
      </trkpt>
      <trkpt lat="36.907243" lon="-3.559911">
        <ele>774.723</ele>
        <time>2022-12-06T11:45:07Z</time>
      </trkpt>
      <trkpt lat="36.907211" lon="-3.559873">
        <ele>775.480</ele>
        <time>2022-12-06T11:45:12Z</time>
      </trkpt>
      <trkpt lat="36.907188" lon="-3.559861">
        <ele>775.798</ele>
        <time>2022-12-06T11:45:15Z</time>
      </trkpt>
      <trkpt lat="36.907166" lon="-3.559871">
        <ele>776.562</ele>
        <time>2022-12-06T11:45:18Z</time>
      </trkpt>
      <trkpt lat="36.907155" lon="-3.559883">
        <ele>777.243</ele>
        <time>2022-12-06T11:45:20Z</time>
      </trkpt>
      <trkpt lat="36.907148" lon="-3.559890">
        <ele>777.510</ele>
        <time>2022-12-06T11:45:22Z</time>
      </trkpt>
      <trkpt lat="36.907149" lon="-3.559922">
        <ele>778.411</ele>
        <time>2022-12-06T11:45:25Z</time>
      </trkpt>
      <trkpt lat="36.907170" lon="-3.559983">
        <ele>779.292</ele>
        <time>2022-12-06T11:45:29Z</time>
      </trkpt>
      <trkpt lat="36.907175" lon="-3.559998">
        <ele>779.573</ele>
        <time>2022-12-06T11:45:30Z</time>
      </trkpt>
      <trkpt lat="36.907178" lon="-3.560022">
        <ele>780.020</ele>
        <time>2022-12-06T11:45:32Z</time>
      </trkpt>
      <trkpt lat="36.907170" lon="-3.560055">
        <ele>780.409</ele>
        <time>2022-12-06T11:45:35Z</time>
      </trkpt>
      <trkpt lat="36.907164" lon="-3.560054">
        <ele>780.570</ele>
        <time>2022-12-06T11:45:36Z</time>
      </trkpt>
      <trkpt lat="36.907117" lon="-3.560037">
        <ele>781.511</ele>
        <time>2022-12-06T11:45:42Z</time>
      </trkpt>
      <trkpt lat="36.907094" lon="-3.560023">
        <ele>782.029</ele>
        <time>2022-12-06T11:45:44Z</time>
      </trkpt>
      <trkpt lat="36.907074" lon="-3.559988">
        <ele>782.796</ele>
        <time>2022-12-06T11:45:48Z</time>
      </trkpt>
      <trkpt lat="36.907013" lon="-3.559960">
        <ele>784.094</ele>
        <time>2022-12-06T11:45:55Z</time>
      </trkpt>
      <trkpt lat="36.906950" lon="-3.559965">
        <ele>785.218</ele>
        <time>2022-12-06T11:46:01Z</time>
      </trkpt>
      <trkpt lat="36.906947" lon="-3.559984">
        <ele>785.519</ele>
        <time>2022-12-06T11:46:03Z</time>
      </trkpt>
      <trkpt lat="36.906959" lon="-3.560020">
        <ele>786.496</ele>
        <time>2022-12-06T11:46:06Z</time>
      </trkpt>
      <trkpt lat="36.906979" lon="-3.560079">
        <ele>787.437</ele>
        <time>2022-12-06T11:46:10Z</time>
      </trkpt>
      <trkpt lat="36.906989" lon="-3.560177">
        <ele>788.491</ele>
        <time>2022-12-06T11:46:17Z</time>
      </trkpt>
      <trkpt lat="36.906990" lon="-3.560202">
        <ele>788.781</ele>
        <time>2022-12-06T11:46:19Z</time>
      </trkpt>
      <trkpt lat="36.906986" lon="-3.560252">
        <ele>789.519</ele>
        <time>2022-12-06T11:46:23Z</time>
      </trkpt>
      <trkpt lat="36.906999" lon="-3.560316">
        <ele>790.409</ele>
        <time>2022-12-06T11:46:29Z</time>
      </trkpt>
      <trkpt lat="36.906999" lon="-3.560340">
        <ele>790.760</ele>
        <time>2022-12-06T11:46:31Z</time>
      </trkpt>
      <trkpt lat="36.906993" lon="-3.560368">
        <ele>791.251</ele>
        <time>2022-12-06T11:46:34Z</time>
      </trkpt>
      <trkpt lat="36.906986" lon="-3.560406">
        <ele>791.759</ele>
        <time>2022-12-06T11:46:37Z</time>
      </trkpt>
      <trkpt lat="36.906961" lon="-3.560393">
        <ele>793.086</ele>
        <time>2022-12-06T11:46:41Z</time>
      </trkpt>
      <trkpt lat="36.906954" lon="-3.560377">
        <ele>793.474</ele>
        <time>2022-12-06T11:46:43Z</time>
      </trkpt>
      <trkpt lat="36.906946" lon="-3.560352">
        <ele>793.498</ele>
        <time>2022-12-06T11:46:45Z</time>
      </trkpt>
      <trkpt lat="36.906933" lon="-3.560334">
        <ele>793.799</ele>
        <time>2022-12-06T11:46:47Z</time>
      </trkpt>
      <trkpt lat="36.906932" lon="-3.560325">
        <ele>794.056</ele>
        <time>2022-12-06T11:46:48Z</time>
      </trkpt>
      <trkpt lat="36.906905" lon="-3.560298">
        <ele>794.787</ele>
        <time>2022-12-06T11:46:52Z</time>
      </trkpt>
      <trkpt lat="36.906908" lon="-3.560283">
        <ele>795.036</ele>
        <time>2022-12-06T11:46:54Z</time>
      </trkpt>
      <trkpt lat="36.906883" lon="-3.560251">
        <ele>795.717</ele>
        <time>2022-12-06T11:46:59Z</time>
      </trkpt>
      <trkpt lat="36.906851" lon="-3.560225">
        <ele>796.018</ele>
        <time>2022-12-06T11:47:02Z</time>
      </trkpt>
      <trkpt lat="36.906831" lon="-3.560207">
        <ele>796.409</ele>
        <time>2022-12-06T11:47:04Z</time>
      </trkpt>
      <trkpt lat="36.906760" lon="-3.560125">
        <ele>797.254</ele>
        <time>2022-12-06T11:47:14Z</time>
      </trkpt>
      <trkpt lat="36.906636" lon="-3.560017">
        <ele>798.245</ele>
        <time>2022-12-06T11:47:21Z</time>
      </trkpt>
      <trkpt lat="36.906479" lon="-3.559904">
        <ele>799.263</ele>
        <time>2022-12-06T11:47:29Z</time>
      </trkpt>
      <trkpt lat="36.906332" lon="-3.559820">
        <ele>800.240</ele>
        <time>2022-12-06T11:47:38Z</time>
      </trkpt>
      <trkpt lat="36.906262" lon="-3.559817">
        <ele>800.228</ele>
        <time>2022-12-06T11:47:42Z</time>
      </trkpt>
      <trkpt lat="36.906056" lon="-3.559817">
        <ele>800.582</ele>
        <time>2022-12-06T11:47:51Z</time>
      </trkpt>
      <trkpt lat="36.905949" lon="-3.559793">
        <ele>801.223</ele>
        <time>2022-12-06T11:47:56Z</time>
      </trkpt>
      <trkpt lat="36.905836" lon="-3.559772">
        <ele>802.470</ele>
        <time>2022-12-06T11:48:06Z</time>
      </trkpt>
      <trkpt lat="36.905829" lon="-3.559770">
        <ele>802.551</ele>
        <time>2022-12-06T11:48:07Z</time>
      </trkpt>
      <trkpt lat="36.905805" lon="-3.559764">
        <ele>802.776</ele>
        <time>2022-12-06T11:48:09Z</time>
      </trkpt>
      <trkpt lat="36.905760" lon="-3.559724">
        <ele>803.590</ele>
        <time>2022-12-06T11:48:13Z</time>
      </trkpt>
      <trkpt lat="36.905674" lon="-3.559693">
        <ele>804.019</ele>
        <time>2022-12-06T11:48:20Z</time>
      </trkpt>
      <trkpt lat="36.905657" lon="-3.559655">
        <ele>804.409</ele>
        <time>2022-12-06T11:48:24Z</time>
      </trkpt>
      <trkpt lat="36.905658" lon="-3.559650">
        <ele>804.498</ele>
        <time>2022-12-06T11:48:25Z</time>
      </trkpt>
      <trkpt lat="36.905657" lon="-3.559635">
        <ele>804.569</ele>
        <time>2022-12-06T11:48:27Z</time>
      </trkpt>
      <trkpt lat="36.905655" lon="-3.559614">
        <ele>804.767</ele>
        <time>2022-12-06T11:48:29Z</time>
      </trkpt>
      <trkpt lat="36.905606" lon="-3.559377">
        <ele>805.024</ele>
        <time>2022-12-06T11:48:46Z</time>
      </trkpt>
      <trkpt lat="36.905552" lon="-3.559246">
        <ele>805.062</ele>
        <time>2022-12-06T11:48:56Z</time>
      </trkpt>
      <trkpt lat="36.905434" lon="-3.559041">
        <ele>804.726</ele>
        <time>2022-12-06T11:49:05Z</time>
      </trkpt>
      <trkpt lat="36.905396" lon="-3.558987">
        <ele>804.737</ele>
        <time>2022-12-06T11:49:08Z</time>
      </trkpt>
      <trkpt lat="36.905271" lon="-3.558787">
        <ele>804.714</ele>
        <time>2022-12-06T11:49:16Z</time>
      </trkpt>
      <trkpt lat="36.905188" lon="-3.558584">
        <ele>805.245</ele>
        <time>2022-12-06T11:49:23Z</time>
      </trkpt>
      <trkpt lat="36.905180" lon="-3.558560">
        <ele>805.451</ele>
        <time>2022-12-06T11:49:24Z</time>
      </trkpt>
      <trkpt lat="36.905187" lon="-3.558512">
        <ele>805.501</ele>
        <time>2022-12-06T11:49:26Z</time>
      </trkpt>
      <trkpt lat="36.905208" lon="-3.558458">
        <ele>805.711</ele>
        <time>2022-12-06T11:49:28Z</time>
      </trkpt>
      <trkpt lat="36.905297" lon="-3.558250">
        <ele>806.409</ele>
        <time>2022-12-06T11:49:36Z</time>
      </trkpt>
      <trkpt lat="36.905315" lon="-3.558155">
        <ele>806.536</ele>
        <time>2022-12-06T11:49:40Z</time>
      </trkpt>
      <trkpt lat="36.905290" lon="-3.558103">
        <ele>806.567</ele>
        <time>2022-12-06T11:49:42Z</time>
      </trkpt>
      <trkpt lat="36.905126" lon="-3.557993">
        <ele>806.055</ele>
        <time>2022-12-06T11:49:50Z</time>
      </trkpt>
      <trkpt lat="36.905058" lon="-3.557970">
        <ele>805.572</ele>
        <time>2022-12-06T11:49:53Z</time>
      </trkpt>
      <trkpt lat="36.904872" lon="-3.557936">
        <ele>805.010</ele>
        <time>2022-12-06T11:50:01Z</time>
      </trkpt>
      <trkpt lat="36.904823" lon="-3.557922">
        <ele>804.524</ele>
        <time>2022-12-06T11:50:03Z</time>
      </trkpt>
      <trkpt lat="36.904700" lon="-3.557917">
        <ele>803.755</ele>
        <time>2022-12-06T11:50:09Z</time>
      </trkpt>
      <trkpt lat="36.904601" lon="-3.557900">
        <ele>803.472</ele>
        <time>2022-12-06T11:50:13Z</time>
      </trkpt>
      <trkpt lat="36.904417" lon="-3.557855">
        <ele>803.023</ele>
        <time>2022-12-06T11:50:20Z</time>
      </trkpt>
      <trkpt lat="36.904242" lon="-3.557759">
        <ele>802.741</ele>
        <time>2022-12-06T11:50:28Z</time>
      </trkpt>
      <trkpt lat="36.904138" lon="-3.557669">
        <ele>803.281</ele>
        <time>2022-12-06T11:50:33Z</time>
      </trkpt>
      <trkpt lat="36.903966" lon="-3.557589">
        <ele>803.209</ele>
        <time>2022-12-06T11:50:43Z</time>
      </trkpt>
      <trkpt lat="36.903871" lon="-3.557601">
        <ele>802.409</ele>
        <time>2022-12-06T11:50:47Z</time>
      </trkpt>
      <trkpt lat="36.903805" lon="-3.557593">
        <ele>801.555</ele>
        <time>2022-12-06T11:50:50Z</time>
      </trkpt>
      <trkpt lat="36.903785" lon="-3.557607">
        <ele>801.486</ele>
        <time>2022-12-06T11:50:51Z</time>
      </trkpt>
      <trkpt lat="36.903661" lon="-3.557674">
        <ele>800.224</ele>
        <time>2022-12-06T11:50:57Z</time>
      </trkpt>
      <trkpt lat="36.903488" lon="-3.557750">
        <ele>799.771</ele>
        <time>2022-12-06T11:51:05Z</time>
      </trkpt>
      <trkpt lat="36.903314" lon="-3.557839">
        <ele>799.769</ele>
        <time>2022-12-06T11:51:13Z</time>
      </trkpt>
      <trkpt lat="36.903233" lon="-3.557882">
        <ele>799.083</ele>
        <time>2022-12-06T11:51:17Z</time>
      </trkpt>
      <trkpt lat="36.903141" lon="-3.557930">
        <ele>797.794</ele>
        <time>2022-12-06T11:51:21Z</time>
      </trkpt>
      <trkpt lat="36.903053" lon="-3.558001">
        <ele>797.051</ele>
        <time>2022-12-06T11:51:26Z</time>
      </trkpt>
      <trkpt lat="36.903035" lon="-3.558014">
        <ele>796.712</ele>
        <time>2022-12-06T11:51:27Z</time>
      </trkpt>
      <trkpt lat="36.902860" lon="-3.558161">
        <ele>797.442</ele>
        <time>2022-12-06T11:51:37Z</time>
      </trkpt>
      <trkpt lat="36.902716" lon="-3.558298">
        <ele>797.722</ele>
        <time>2022-12-06T11:51:45Z</time>
      </trkpt>
      <trkpt lat="36.902593" lon="-3.558305">
        <ele>798.414</ele>
        <time>2022-12-06T11:51:52Z</time>
      </trkpt>
      <trkpt lat="36.902572" lon="-3.558319">
        <ele>798.709</ele>
        <time>2022-12-06T11:51:54Z</time>
      </trkpt>
      <trkpt lat="36.902559" lon="-3.558317">
        <ele>799.015</ele>
        <time>2022-12-06T11:51:55Z</time>
      </trkpt>
      <trkpt lat="36.902495" lon="-3.558340">
        <ele>800.056</ele>
        <time>2022-12-06T11:52:00Z</time>
      </trkpt>
      <trkpt lat="36.902403" lon="-3.558352">
        <ele>801.064</ele>
        <time>2022-12-06T11:52:07Z</time>
      </trkpt>
      <trkpt lat="36.902385" lon="-3.558362">
        <ele>801.281</ele>
        <time>2022-12-06T11:52:10Z</time>
      </trkpt>
      <trkpt lat="36.902350" lon="-3.558383">
        <ele>801.719</ele>
        <time>2022-12-06T11:52:13Z</time>
      </trkpt>
      <trkpt lat="36.902329" lon="-3.558406">
        <ele>802.223</ele>
        <time>2022-12-06T11:52:15Z</time>
      </trkpt>
      <trkpt lat="36.902184" lon="-3.558577">
        <ele>801.724</ele>
        <time>2022-12-06T11:52:23Z</time>
      </trkpt>
      <trkpt lat="36.902058" lon="-3.558741">
        <ele>801.561</ele>
        <time>2022-12-06T11:52:31Z</time>
      </trkpt>
      <trkpt lat="36.902037" lon="-3.558755">
        <ele>801.742</ele>
        <time>2022-12-06T11:52:32Z</time>
      </trkpt>
      <trkpt lat="36.902000" lon="-3.558705">
        <ele>801.794</ele>
        <time>2022-12-06T11:52:35Z</time>
      </trkpt>
      <trkpt lat="36.901936" lon="-3.558496">
        <ele>803.057</ele>
        <time>2022-12-06T11:52:48Z</time>
      </trkpt>
      <trkpt lat="36.901847" lon="-3.558351">
        <ele>800.722</ele>
        <time>2022-12-06T11:52:55Z</time>
      </trkpt>
      <trkpt lat="36.901806" lon="-3.558278">
        <ele>799.709</ele>
        <time>2022-12-06T11:52:58Z</time>
      </trkpt>
      <trkpt lat="36.901729" lon="-3.558155">
        <ele>798.510</ele>
        <time>2022-12-06T11:53:02Z</time>
      </trkpt>
      <trkpt lat="36.901563" lon="-3.558045">
        <ele>797.531</ele>
        <time>2022-12-06T11:53:09Z</time>
      </trkpt>
      <trkpt lat="36.901420" lon="-3.558011">
        <ele>796.419</ele>
        <time>2022-12-06T11:53:16Z</time>
      </trkpt>
      <trkpt lat="36.901333" lon="-3.557979">
        <ele>795.496</ele>
        <time>2022-12-06T11:53:20Z</time>
      </trkpt>
      <trkpt lat="36.901249" lon="-3.558028">
        <ele>794.494</ele>
        <time>2022-12-06T11:53:24Z</time>
      </trkpt>
      <trkpt lat="36.901075" lon="-3.558150">
        <ele>793.728</ele>
        <time>2022-12-06T11:53:32Z</time>
      </trkpt>
      <trkpt lat="36.900900" lon="-3.558229">
        <ele>795.069</ele>
        <time>2022-12-06T11:53:40Z</time>
      </trkpt>
      <trkpt lat="36.900723" lon="-3.558283">
        <ele>795.436</ele>
        <time>2022-12-06T11:53:49Z</time>
      </trkpt>
      <trkpt lat="36.900701" lon="-3.558280">
        <ele>795.437</ele>
        <time>2022-12-06T11:53:50Z</time>
      </trkpt>
      <trkpt lat="36.900509" lon="-3.558256">
        <ele>795.214</ele>
        <time>2022-12-06T11:53:58Z</time>
      </trkpt>
      <trkpt lat="36.900426" lon="-3.558319">
        <ele>794.454</ele>
        <time>2022-12-06T11:54:03Z</time>
      </trkpt>
      <trkpt lat="36.900365" lon="-3.558382">
        <ele>793.209</ele>
        <time>2022-12-06T11:54:08Z</time>
      </trkpt>
      <trkpt lat="36.900341" lon="-3.558415">
        <ele>793.009</ele>
        <time>2022-12-06T11:54:10Z</time>
      </trkpt>
      <trkpt lat="36.900314" lon="-3.558479">
        <ele>791.722</ele>
        <time>2022-12-06T11:54:13Z</time>
      </trkpt>
      <trkpt lat="36.900310" lon="-3.558541">
        <ele>790.553</ele>
        <time>2022-12-06T11:54:16Z</time>
      </trkpt>
      <trkpt lat="36.900282" lon="-3.558585">
        <ele>789.091</ele>
        <time>2022-12-06T11:54:19Z</time>
      </trkpt>
      <trkpt lat="36.900260" lon="-3.558638">
        <ele>787.548</ele>
        <time>2022-12-06T11:54:21Z</time>
      </trkpt>
      <trkpt lat="36.900246" lon="-3.558703">
        <ele>786.596</ele>
        <time>2022-12-06T11:54:23Z</time>
      </trkpt>
      <trkpt lat="36.900244" lon="-3.558763">
        <ele>785.410</ele>
        <time>2022-12-06T11:54:25Z</time>
      </trkpt>
      <trkpt lat="36.900238" lon="-3.558940">
        <ele>784.471</ele>
        <time>2022-12-06T11:54:33Z</time>
      </trkpt>
      <trkpt lat="36.900175" lon="-3.559127">
        <ele>783.438</ele>
        <time>2022-12-06T11:54:41Z</time>
      </trkpt>
      <trkpt lat="36.900165" lon="-3.559176">
        <ele>783.099</ele>
        <time>2022-12-06T11:54:44Z</time>
      </trkpt>
      <trkpt lat="36.900146" lon="-3.559236">
        <ele>782.019</ele>
        <time>2022-12-06T11:54:47Z</time>
      </trkpt>
      <trkpt lat="36.900122" lon="-3.559306">
        <ele>780.409</ele>
        <time>2022-12-06T11:54:50Z</time>
      </trkpt>
      <trkpt lat="36.900079" lon="-3.559281">
        <ele>779.219</ele>
        <time>2022-12-06T11:54:53Z</time>
      </trkpt>
      <trkpt lat="36.900053" lon="-3.559232">
        <ele>779.409</ele>
        <time>2022-12-06T11:54:56Z</time>
      </trkpt>
      <trkpt lat="36.900010" lon="-3.559207">
        <ele>780.412</ele>
        <time>2022-12-06T11:55:01Z</time>
      </trkpt>
      <trkpt lat="36.900004" lon="-3.559199">
        <ele>780.743</ele>
        <time>2022-12-06T11:55:02Z</time>
      </trkpt>
      <trkpt lat="36.899999" lon="-3.559182">
        <ele>781.471</ele>
        <time>2022-12-06T11:55:04Z</time>
      </trkpt>
      <trkpt lat="36.899991" lon="-3.559170">
        <ele>781.588</ele>
        <time>2022-12-06T11:55:05Z</time>
      </trkpt>
      <trkpt lat="36.899948" lon="-3.559106">
        <ele>782.436</ele>
        <time>2022-12-06T11:55:11Z</time>
      </trkpt>
      <trkpt lat="36.899817" lon="-3.558969">
        <ele>783.260</ele>
        <time>2022-12-06T11:55:25Z</time>
      </trkpt>
      <trkpt lat="36.899642" lon="-3.558951">
        <ele>781.251</ele>
        <time>2022-12-06T11:55:32Z</time>
      </trkpt>
      <trkpt lat="36.899493" lon="-3.558912">
        <ele>780.068</ele>
        <time>2022-12-06T11:55:38Z</time>
      </trkpt>
      <trkpt lat="36.899324" lon="-3.558832">
        <ele>780.729</ele>
        <time>2022-12-06T11:55:47Z</time>
      </trkpt>
      <trkpt lat="36.899283" lon="-3.558796">
        <ele>781.057</ele>
        <time>2022-12-06T11:55:49Z</time>
      </trkpt>
      <trkpt lat="36.899109" lon="-3.558690">
        <ele>780.500</ele>
        <time>2022-12-06T11:55:57Z</time>
      </trkpt>
      <trkpt lat="36.898918" lon="-3.558725">
        <ele>780.420</ele>
        <time>2022-12-06T11:56:05Z</time>
      </trkpt>
      <trkpt lat="36.898775" lon="-3.558882">
        <ele>781.409</ele>
        <time>2022-12-06T11:56:14Z</time>
      </trkpt>
      <trkpt lat="36.898693" lon="-3.558959">
        <ele>781.486</ele>
        <time>2022-12-06T11:56:19Z</time>
      </trkpt>
      <trkpt lat="36.898549" lon="-3.559123">
        <ele>780.037</ele>
        <time>2022-12-06T11:56:28Z</time>
      </trkpt>
      <trkpt lat="36.898454" lon="-3.559191">
        <ele>778.765</ele>
        <time>2022-12-06T11:56:32Z</time>
      </trkpt>
      <trkpt lat="36.898404" lon="-3.559286">
        <ele>777.732</ele>
        <time>2022-12-06T11:56:35Z</time>
      </trkpt>
      <trkpt lat="36.898331" lon="-3.559359">
        <ele>776.580</ele>
        <time>2022-12-06T11:56:40Z</time>
      </trkpt>
      <trkpt lat="36.898273" lon="-3.559409">
        <ele>775.284</ele>
        <time>2022-12-06T11:56:44Z</time>
      </trkpt>
      <trkpt lat="36.898235" lon="-3.559479">
        <ele>774.035</ele>
        <time>2022-12-06T11:56:47Z</time>
      </trkpt>
      <trkpt lat="36.898163" lon="-3.559601">
        <ele>772.742</ele>
        <time>2022-12-06T11:56:52Z</time>
      </trkpt>
      <trkpt lat="36.898060" lon="-3.559788">
        <ele>772.023</ele>
        <time>2022-12-06T11:56:59Z</time>
      </trkpt>
      <trkpt lat="36.898029" lon="-3.559856">
        <ele>771.738</ele>
        <time>2022-12-06T11:57:02Z</time>
      </trkpt>
      <trkpt lat="36.897991" lon="-3.560079">
        <ele>772.270</ele>
        <time>2022-12-06T11:57:13Z</time>
      </trkpt>
      <trkpt lat="36.897953" lon="-3.560240">
        <ele>772.717</ele>
        <time>2022-12-06T11:57:19Z</time>
      </trkpt>
      <trkpt lat="36.897951" lon="-3.560268">
        <ele>773.009</ele>
        <time>2022-12-06T11:57:20Z</time>
      </trkpt>
      <trkpt lat="36.897942" lon="-3.560287">
        <ele>773.084</ele>
        <time>2022-12-06T11:57:21Z</time>
      </trkpt>
      <trkpt lat="36.897795" lon="-3.560424">
        <ele>773.555</ele>
        <time>2022-12-06T11:57:33Z</time>
      </trkpt>
      <trkpt lat="36.897771" lon="-3.560470">
        <ele>774.073</ele>
        <time>2022-12-06T11:57:36Z</time>
      </trkpt>
      <trkpt lat="36.897717" lon="-3.560536">
        <ele>775.230</ele>
        <time>2022-12-06T11:57:43Z</time>
      </trkpt>
      <trkpt lat="36.897645" lon="-3.560628">
        <ele>776.218</ele>
        <time>2022-12-06T11:57:52Z</time>
      </trkpt>
      <trkpt lat="36.897572" lon="-3.560714">
        <ele>776.582</ele>
        <time>2022-12-06T11:58:00Z</time>
      </trkpt>
      <trkpt lat="36.897552" lon="-3.560773">
        <ele>776.743</ele>
        <time>2022-12-06T11:58:04Z</time>
      </trkpt>
      <trkpt lat="36.897540" lon="-3.560847">
        <ele>777.270</ele>
        <time>2022-12-06T11:58:08Z</time>
      </trkpt>
      <trkpt lat="36.897454" lon="-3.561052">
        <ele>776.481</ele>
        <time>2022-12-06T11:58:21Z</time>
      </trkpt>
      <trkpt lat="36.897413" lon="-3.561276">
        <ele>776.017</ele>
        <time>2022-12-06T11:58:30Z</time>
      </trkpt>
      <trkpt lat="36.897294" lon="-3.561451">
        <ele>775.487</ele>
        <time>2022-12-06T11:58:37Z</time>
      </trkpt>
      <trkpt lat="36.897273" lon="-3.561499">
        <ele>775.215</ele>
        <time>2022-12-06T11:58:39Z</time>
      </trkpt>
      <trkpt lat="36.897253" lon="-3.561582">
        <ele>774.209</ele>
        <time>2022-12-06T11:58:43Z</time>
      </trkpt>
      <trkpt lat="36.897228" lon="-3.561713">
        <ele>772.732</ele>
        <time>2022-12-06T11:58:48Z</time>
      </trkpt>
      <trkpt lat="36.897210" lon="-3.561800">
        <ele>771.523</ele>
        <time>2022-12-06T11:58:51Z</time>
      </trkpt>
      <trkpt lat="36.897197" lon="-3.561892">
        <ele>770.461</ele>
        <time>2022-12-06T11:58:54Z</time>
      </trkpt>
      <trkpt lat="36.897191" lon="-3.561986">
        <ele>769.428</ele>
        <time>2022-12-06T11:58:57Z</time>
      </trkpt>
      <trkpt lat="36.897190" lon="-3.562113">
        <ele>768.276</ele>
        <time>2022-12-06T11:59:01Z</time>
      </trkpt>
      <trkpt lat="36.897136" lon="-3.562270">
        <ele>767.010</ele>
        <time>2022-12-06T11:59:07Z</time>
      </trkpt>
      <trkpt lat="36.897114" lon="-3.562334">
        <ele>765.521</ele>
        <time>2022-12-06T11:59:10Z</time>
      </trkpt>
      <trkpt lat="36.897104" lon="-3.562353">
        <ele>765.088</ele>
        <time>2022-12-06T11:59:11Z</time>
      </trkpt>
      <trkpt lat="36.897093" lon="-3.562367">
        <ele>764.459</ele>
        <time>2022-12-06T11:59:12Z</time>
      </trkpt>
      <trkpt lat="36.897086" lon="-3.562386">
        <ele>764.063</ele>
        <time>2022-12-06T11:59:13Z</time>
      </trkpt>
      <trkpt lat="36.897089" lon="-3.562441">
        <ele>763.544</ele>
        <time>2022-12-06T11:59:15Z</time>
      </trkpt>
      <trkpt lat="36.897113" lon="-3.562475">
        <ele>763.218</ele>
        <time>2022-12-06T11:59:17Z</time>
      </trkpt>
      <trkpt lat="36.897232" lon="-3.562617">
        <ele>762.009</ele>
        <time>2022-12-06T11:59:25Z</time>
      </trkpt>
      <trkpt lat="36.897237" lon="-3.562631">
        <ele>761.567</ele>
        <time>2022-12-06T11:59:26Z</time>
      </trkpt>
      <trkpt lat="36.897234" lon="-3.562660">
        <ele>760.768</ele>
        <time>2022-12-06T11:59:28Z</time>
      </trkpt>
      <trkpt lat="36.897250" lon="-3.562769">
        <ele>759.556</ele>
        <time>2022-12-06T11:59:34Z</time>
      </trkpt>
      <trkpt lat="36.897252" lon="-3.562792">
        <ele>759.223</ele>
        <time>2022-12-06T11:59:35Z</time>
      </trkpt>
      <trkpt lat="36.897218" lon="-3.562881">
        <ele>758.521</ele>
        <time>2022-12-06T11:59:40Z</time>
      </trkpt>
      <trkpt lat="36.897214" lon="-3.562895">
        <ele>758.265</ele>
        <time>2022-12-06T11:59:41Z</time>
      </trkpt>
      <trkpt lat="36.897199" lon="-3.562923">
        <ele>757.516</ele>
        <time>2022-12-06T11:59:44Z</time>
      </trkpt>
      <trkpt lat="36.897197" lon="-3.562931">
        <ele>757.263</ele>
        <time>2022-12-06T11:59:45Z</time>
      </trkpt>
      <trkpt lat="36.897187" lon="-3.562975">
        <ele>756.294</ele>
        <time>2022-12-06T11:59:48Z</time>
      </trkpt>
      <trkpt lat="36.897176" lon="-3.563007">
        <ele>755.754</ele>
        <time>2022-12-06T11:59:50Z</time>
      </trkpt>
      <trkpt lat="36.897172" lon="-3.563033">
        <ele>754.756</ele>
        <time>2022-12-06T11:59:52Z</time>
      </trkpt>
      <trkpt lat="36.897176" lon="-3.563109">
        <ele>753.711</ele>
        <time>2022-12-06T11:59:56Z</time>
      </trkpt>
      <trkpt lat="36.897186" lon="-3.563131">
        <ele>753.709</ele>
        <time>2022-12-06T11:59:57Z</time>
      </trkpt>
      <trkpt lat="36.897196" lon="-3.563178">
        <ele>753.256</ele>
        <time>2022-12-06T11:59:59Z</time>
      </trkpt>
      <trkpt lat="36.897191" lon="-3.563296">
        <ele>752.527</ele>
        <time>2022-12-06T12:00:04Z</time>
      </trkpt>
      <trkpt lat="36.897225" lon="-3.563535">
        <ele>752.515</ele>
        <time>2022-12-06T12:00:15Z</time>
      </trkpt>
      <trkpt lat="36.897231" lon="-3.563567">
        <ele>752.452</ele>
        <time>2022-12-06T12:00:17Z</time>
      </trkpt>
      <trkpt lat="36.897204" lon="-3.563785">
        <ele>753.210</ele>
        <time>2022-12-06T12:00:30Z</time>
      </trkpt>
      <trkpt lat="36.897202" lon="-3.563845">
        <ele>753.594</ele>
        <time>2022-12-06T12:00:34Z</time>
      </trkpt>
      <trkpt lat="36.897206" lon="-3.563856">
        <ele>753.785</ele>
        <time>2022-12-06T12:00:35Z</time>
      </trkpt>
      <trkpt lat="36.897221" lon="-3.563891">
        <ele>754.032</ele>
        <time>2022-12-06T12:00:37Z</time>
      </trkpt>
      <trkpt lat="36.897231" lon="-3.563925">
        <ele>754.053</ele>
        <time>2022-12-06T12:00:39Z</time>
      </trkpt>
      <trkpt lat="36.897241" lon="-3.563945">
        <ele>754.029</ele>
        <time>2022-12-06T12:00:41Z</time>
      </trkpt>
      <trkpt lat="36.897233" lon="-3.563996">
        <ele>754.000</ele>
        <time>2022-12-06T12:00:45Z</time>
      </trkpt>
      <trkpt lat="36.897170" lon="-3.564016">
        <ele>754.220</ele>
        <time>2022-12-06T12:00:50Z</time>
      </trkpt>
      <trkpt lat="36.897150" lon="-3.564028">
        <ele>754.209</ele>
        <time>2022-12-06T12:00:52Z</time>
      </trkpt>
      <trkpt lat="36.897116" lon="-3.564044">
        <ele>754.563</ele>
        <time>2022-12-06T12:00:56Z</time>
      </trkpt>
      <trkpt lat="36.897112" lon="-3.564054">
        <ele>755.014</ele>
        <time>2022-12-06T12:00:57Z</time>
      </trkpt>
      <trkpt lat="36.897062" lon="-3.564055">
        <ele>756.032</ele>
        <time>2022-12-06T12:01:02Z</time>
      </trkpt>
      <trkpt lat="36.897007" lon="-3.564069">
        <ele>757.029</ele>
        <time>2022-12-06T12:01:07Z</time>
      </trkpt>
      <trkpt lat="36.896981" lon="-3.564100">
        <ele>757.577</ele>
        <time>2022-12-06T12:01:10Z</time>
      </trkpt>
      <trkpt lat="36.896958" lon="-3.564158">
        <ele>758.221</ele>
        <time>2022-12-06T12:01:14Z</time>
      </trkpt>
      <trkpt lat="36.896891" lon="-3.564233">
        <ele>758.722</ele>
        <time>2022-12-06T12:01:22Z</time>
      </trkpt>
      <trkpt lat="36.896726" lon="-3.564333">
        <ele>758.429</ele>
        <time>2022-12-06T12:01:36Z</time>
      </trkpt>
      <trkpt lat="36.896699" lon="-3.564328">
        <ele>758.580</ele>
        <time>2022-12-06T12:01:38Z</time>
      </trkpt>
      <trkpt lat="36.896635" lon="-3.564357">
        <ele>759.226</ele>
        <time>2022-12-06T12:01:43Z</time>
      </trkpt>
      <trkpt lat="36.896601" lon="-3.564389">
        <ele>759.547</ele>
        <time>2022-12-06T12:01:46Z</time>
      </trkpt>
      <trkpt lat="36.896593" lon="-3.564521">
        <ele>760.211</ele>
        <time>2022-12-06T12:01:54Z</time>
      </trkpt>
      <trkpt lat="36.896690" lon="-3.564720">
        <ele>760.209</ele>
        <time>2022-12-06T12:02:05Z</time>
      </trkpt>
      <trkpt lat="36.896711" lon="-3.564773">
        <ele>760.213</ele>
        <time>2022-12-06T12:02:09Z</time>
      </trkpt>
      <trkpt lat="36.896700" lon="-3.564995">
        <ele>761.244</ele>
        <time>2022-12-06T12:02:22Z</time>
      </trkpt>
      <trkpt lat="36.896662" lon="-3.565072">
        <ele>761.462</ele>
        <time>2022-12-06T12:02:25Z</time>
      </trkpt>
      <trkpt lat="36.896637" lon="-3.565298">
        <ele>762.049</ele>
        <time>2022-12-06T12:02:33Z</time>
      </trkpt>
      <trkpt lat="36.896617" lon="-3.565346">
        <ele>762.237</ele>
        <time>2022-12-06T12:02:36Z</time>
      </trkpt>
      <trkpt lat="36.896618" lon="-3.565360">
        <ele>762.431</ele>
        <time>2022-12-06T12:02:37Z</time>
      </trkpt>
      <trkpt lat="36.896612" lon="-3.565382">
        <ele>762.752</ele>
        <time>2022-12-06T12:02:39Z</time>
      </trkpt>
      <trkpt lat="36.896602" lon="-3.565412">
        <ele>763.599</ele>
        <time>2022-12-06T12:02:44Z</time>
      </trkpt>
      <trkpt lat="36.896599" lon="-3.565431">
        <ele>763.540</ele>
        <time>2022-12-06T12:02:45Z</time>
      </trkpt>
      <trkpt lat="36.896591" lon="-3.565486">
        <ele>763.729</ele>
        <time>2022-12-06T12:02:48Z</time>
      </trkpt>
      <trkpt lat="36.896584" lon="-3.565557">
        <ele>764.500</ele>
        <time>2022-12-06T12:02:53Z</time>
      </trkpt>
      <trkpt lat="36.896571" lon="-3.565591">
        <ele>765.520</ele>
        <time>2022-12-06T12:02:57Z</time>
      </trkpt>
      <trkpt lat="36.896542" lon="-3.565622">
        <ele>766.409</ele>
        <time>2022-12-06T12:03:01Z</time>
      </trkpt>
      <trkpt lat="36.896535" lon="-3.565649">
        <ele>766.773</ele>
        <time>2022-12-06T12:03:03Z</time>
      </trkpt>
      <trkpt lat="36.896517" lon="-3.565685">
        <ele>767.294</ele>
        <time>2022-12-06T12:03:06Z</time>
      </trkpt>
      <trkpt lat="36.896497" lon="-3.565720">
        <ele>767.782</ele>
        <time>2022-12-06T12:03:10Z</time>
      </trkpt>
      <trkpt lat="36.896495" lon="-3.565734">
        <ele>768.029</ele>
        <time>2022-12-06T12:03:11Z</time>
      </trkpt>
      <trkpt lat="36.896494" lon="-3.565776">
        <ele>768.767</ele>
        <time>2022-12-06T12:03:15Z</time>
      </trkpt>
      <trkpt lat="36.896493" lon="-3.565786">
        <ele>769.041</ele>
        <time>2022-12-06T12:03:16Z</time>
      </trkpt>
      <trkpt lat="36.896486" lon="-3.565826">
        <ele>769.432</ele>
        <time>2022-12-06T12:03:19Z</time>
      </trkpt>
      <trkpt lat="36.896469" lon="-3.565885">
        <ele>770.019</ele>
        <time>2022-12-06T12:03:23Z</time>
      </trkpt>
      <trkpt lat="36.896451" lon="-3.565940">
        <ele>770.410</ele>
        <time>2022-12-06T12:03:28Z</time>
      </trkpt>
      <trkpt lat="36.896378" lon="-3.565989">
        <ele>771.067</ele>
        <time>2022-12-06T12:03:36Z</time>
      </trkpt>
      <trkpt lat="36.896320" lon="-3.566005">
        <ele>772.081</ele>
        <time>2022-12-06T12:03:42Z</time>
      </trkpt>
      <trkpt lat="36.896291" lon="-3.566047">
        <ele>772.719</ele>
        <time>2022-12-06T12:03:47Z</time>
      </trkpt>
      <trkpt lat="36.896280" lon="-3.566067">
        <ele>773.209</ele>
        <time>2022-12-06T12:03:49Z</time>
      </trkpt>
      <trkpt lat="36.896259" lon="-3.566118">
        <ele>774.257</ele>
        <time>2022-12-06T12:03:54Z</time>
      </trkpt>
      <trkpt lat="36.896250" lon="-3.566137">
        <ele>774.748</ele>
        <time>2022-12-06T12:03:57Z</time>
      </trkpt>
      <trkpt lat="36.896252" lon="-3.566167">
        <ele>775.486</ele>
        <time>2022-12-06T12:04:00Z</time>
      </trkpt>
      <trkpt lat="36.896264" lon="-3.566224">
        <ele>775.593</ele>
        <time>2022-12-06T12:04:04Z</time>
      </trkpt>
      <trkpt lat="36.896286" lon="-3.566454">
        <ele>775.521</ele>
        <time>2022-12-06T12:04:16Z</time>
      </trkpt>
      <trkpt lat="36.896273" lon="-3.566501">
        <ele>775.795</ele>
        <time>2022-12-06T12:04:19Z</time>
      </trkpt>
      <trkpt lat="36.896251" lon="-3.566533">
        <ele>775.726</ele>
        <time>2022-12-06T12:04:22Z</time>
      </trkpt>
      <trkpt lat="36.896235" lon="-3.566559">
        <ele>775.773</ele>
        <time>2022-12-06T12:04:25Z</time>
      </trkpt>
      <trkpt lat="36.896223" lon="-3.566598">
        <ele>776.094</ele>
        <time>2022-12-06T12:04:29Z</time>
      </trkpt>
      <trkpt lat="36.896214" lon="-3.566609">
        <ele>776.053</ele>
        <time>2022-12-06T12:04:31Z</time>
      </trkpt>
      <trkpt lat="36.896225" lon="-3.566669">
        <ele>776.204</ele>
        <time>2022-12-06T12:04:34Z</time>
      </trkpt>
      <trkpt lat="36.896204" lon="-3.566698">
        <ele>776.414</ele>
        <time>2022-12-06T12:04:36Z</time>
      </trkpt>
      <trkpt lat="36.896196" lon="-3.566716">
        <ele>776.509</ele>
        <time>2022-12-06T12:04:37Z</time>
      </trkpt>
      <trkpt lat="36.896147" lon="-3.566760">
        <ele>777.046</ele>
        <time>2022-12-06T12:04:42Z</time>
      </trkpt>
      <trkpt lat="36.896121" lon="-3.566784">
        <ele>777.227</ele>
        <time>2022-12-06T12:04:45Z</time>
      </trkpt>
      <trkpt lat="36.896080" lon="-3.566832">
        <ele>777.455</ele>
        <time>2022-12-06T12:04:49Z</time>
      </trkpt>
      <trkpt lat="36.896066" lon="-3.566836">
        <ele>777.412</ele>
        <time>2022-12-06T12:04:50Z</time>
      </trkpt>
      <trkpt lat="36.896040" lon="-3.566843">
        <ele>777.580</ele>
        <time>2022-12-06T12:04:52Z</time>
      </trkpt>
      <trkpt lat="36.895996" lon="-3.566842">
        <ele>778.024</ele>
        <time>2022-12-06T12:04:55Z</time>
      </trkpt>
      <trkpt lat="36.895948" lon="-3.566837">
        <ele>778.545</ele>
        <time>2022-12-06T12:04:59Z</time>
      </trkpt>
      <trkpt lat="36.895900" lon="-3.566814">
        <ele>779.062</ele>
        <time>2022-12-06T12:05:04Z</time>
      </trkpt>
      <trkpt lat="36.895862" lon="-3.566826">
        <ele>779.573</ele>
        <time>2022-12-06T12:05:08Z</time>
      </trkpt>
      <trkpt lat="36.895851" lon="-3.566828">
        <ele>779.584</ele>
        <time>2022-12-06T12:05:09Z</time>
      </trkpt>
      <trkpt lat="36.895703" lon="-3.566848">
        <ele>780.707</ele>
        <time>2022-12-06T12:05:21Z</time>
      </trkpt>
      <trkpt lat="36.895611" lon="-3.566871">
        <ele>781.217</ele>
        <time>2022-12-06T12:05:28Z</time>
      </trkpt>
      <trkpt lat="36.895521" lon="-3.567071">
        <ele>781.009</ele>
        <time>2022-12-06T12:05:38Z</time>
      </trkpt>
      <trkpt lat="36.895441" lon="-3.567284">
        <ele>780.559</ele>
        <time>2022-12-06T12:05:45Z</time>
      </trkpt>
      <trkpt lat="36.895335" lon="-3.567461">
        <ele>780.410</ele>
        <time>2022-12-06T12:05:52Z</time>
      </trkpt>
      <trkpt lat="36.895174" lon="-3.567580">
        <ele>781.028</ele>
        <time>2022-12-06T12:06:00Z</time>
      </trkpt>
      <trkpt lat="36.895132" lon="-3.567647">
        <ele>781.745</ele>
        <time>2022-12-06T12:06:03Z</time>
      </trkpt>
      <trkpt lat="36.895109" lon="-3.567880">
        <ele>780.223</ele>
        <time>2022-12-06T12:06:11Z</time>
      </trkpt>
      <trkpt lat="36.895106" lon="-3.568007">
        <ele>779.527</ele>
        <time>2022-12-06T12:06:15Z</time>
      </trkpt>
      <trkpt lat="36.895102" lon="-3.568236">
        <ele>779.788</ele>
        <time>2022-12-06T12:06:23Z</time>
      </trkpt>
      <trkpt lat="36.895030" lon="-3.568464">
        <ele>780.215</ele>
        <time>2022-12-06T12:06:32Z</time>
      </trkpt>
      <trkpt lat="36.894904" lon="-3.568658">
        <ele>779.726</ele>
        <time>2022-12-06T12:06:40Z</time>
      </trkpt>
      <trkpt lat="36.894743" lon="-3.568794">
        <ele>780.416</ele>
        <time>2022-12-06T12:06:48Z</time>
      </trkpt>
      <trkpt lat="36.894642" lon="-3.568861">
        <ele>780.576</ele>
        <time>2022-12-06T12:06:53Z</time>
      </trkpt>
      <trkpt lat="36.894491" lon="-3.568995">
        <ele>781.213</ele>
        <time>2022-12-06T12:07:02Z</time>
      </trkpt>
      <trkpt lat="36.894497" lon="-3.569117">
        <ele>780.409</ele>
        <time>2022-12-06T12:07:06Z</time>
      </trkpt>
      <trkpt lat="36.894489" lon="-3.569206">
        <ele>779.472</ele>
        <time>2022-12-06T12:07:09Z</time>
      </trkpt>
      <trkpt lat="36.894513" lon="-3.569429">
        <ele>778.533</ele>
        <time>2022-12-06T12:07:19Z</time>
      </trkpt>
      <trkpt lat="36.894528" lon="-3.569503">
        <ele>778.461</ele>
        <time>2022-12-06T12:07:22Z</time>
      </trkpt>
      <trkpt lat="36.894498" lon="-3.569704">
        <ele>778.418</ele>
        <time>2022-12-06T12:07:34Z</time>
      </trkpt>
      <trkpt lat="36.894457" lon="-3.569754">
        <ele>777.456</ele>
        <time>2022-12-06T12:07:38Z</time>
      </trkpt>
      <trkpt lat="36.894443" lon="-3.569780">
        <ele>777.240</ele>
        <time>2022-12-06T12:07:39Z</time>
      </trkpt>
      <trkpt lat="36.894433" lon="-3.570011">
        <ele>776.471</ele>
        <time>2022-12-06T12:07:47Z</time>
      </trkpt>
      <trkpt lat="36.894415" lon="-3.570248">
        <ele>776.588</ele>
        <time>2022-12-06T12:07:55Z</time>
      </trkpt>
      <trkpt lat="36.894330" lon="-3.570466">
        <ele>776.479</ele>
        <time>2022-12-06T12:08:03Z</time>
      </trkpt>
      <trkpt lat="36.894266" lon="-3.570635">
        <ele>775.248</ele>
        <time>2022-12-06T12:08:09Z</time>
      </trkpt>
      <trkpt lat="36.894226" lon="-3.570727">
        <ele>775.061</ele>
        <time>2022-12-06T12:08:12Z</time>
      </trkpt>
      <trkpt lat="36.894038" lon="-3.570741">
        <ele>774.717</ele>
        <time>2022-12-06T12:08:20Z</time>
      </trkpt>
      <trkpt lat="36.893858" lon="-3.570785">
        <ele>774.709</ele>
        <time>2022-12-06T12:08:29Z</time>
      </trkpt>
      <trkpt lat="36.893675" lon="-3.570871">
        <ele>775.295</ele>
        <time>2022-12-06T12:08:38Z</time>
      </trkpt>
      <trkpt lat="36.893480" lon="-3.570897">
        <ele>775.436</ele>
        <time>2022-12-06T12:08:46Z</time>
      </trkpt>
      <trkpt lat="36.893310" lon="-3.571010">
        <ele>775.544</ele>
        <time>2022-12-06T12:08:54Z</time>
      </trkpt>
      <trkpt lat="36.893214" lon="-3.571106">
        <ele>776.211</ele>
        <time>2022-12-06T12:08:59Z</time>
      </trkpt>
      <trkpt lat="36.893105" lon="-3.571214">
        <ele>777.249</ele>
        <time>2022-12-06T12:09:05Z</time>
      </trkpt>
      <trkpt lat="36.893009" lon="-3.571327">
        <ele>778.283</ele>
        <time>2022-12-06T12:09:11Z</time>
      </trkpt>
      <trkpt lat="36.893002" lon="-3.571577">
        <ele>778.274</ele>
        <time>2022-12-06T12:09:19Z</time>
      </trkpt>
      <trkpt lat="36.893034" lon="-3.571813">
        <ele>778.251</ele>
        <time>2022-12-06T12:09:27Z</time>
      </trkpt>
      <trkpt lat="36.893081" lon="-3.572039">
        <ele>779.272</ele>
        <time>2022-12-06T12:09:35Z</time>
      </trkpt>
      <trkpt lat="36.893086" lon="-3.572066">
        <ele>779.452</ele>
        <time>2022-12-06T12:09:36Z</time>
      </trkpt>
      <trkpt lat="36.893134" lon="-3.572288">
        <ele>779.553</ele>
        <time>2022-12-06T12:09:48Z</time>
      </trkpt>
      <trkpt lat="36.893151" lon="-3.572452">
        <ele>780.008</ele>
        <time>2022-12-06T12:09:58Z</time>
      </trkpt>
      <trkpt lat="36.893139" lon="-3.572481">
        <ele>780.509</ele>
        <time>2022-12-06T12:10:00Z</time>
      </trkpt>
      <trkpt lat="36.893117" lon="-3.572522">
        <ele>781.796</ele>
        <time>2022-12-06T12:10:03Z</time>
      </trkpt>
      <trkpt lat="36.893072" lon="-3.572651">
        <ele>783.277</ele>
        <time>2022-12-06T12:10:11Z</time>
      </trkpt>
      <trkpt lat="36.892978" lon="-3.572830">
        <ele>784.295</ele>
        <time>2022-12-06T12:10:23Z</time>
      </trkpt>
      <trkpt lat="36.892831" lon="-3.572959">
        <ele>784.232</ele>
        <time>2022-12-06T12:10:36Z</time>
      </trkpt>
      <trkpt lat="36.892757" lon="-3.573092">
        <ele>785.230</ele>
        <time>2022-12-06T12:10:45Z</time>
      </trkpt>
      <trkpt lat="36.892683" lon="-3.573310">
        <ele>785.224</ele>
        <time>2022-12-06T12:10:57Z</time>
      </trkpt>
      <trkpt lat="36.892621" lon="-3.573528">
        <ele>784.735</ele>
        <time>2022-12-06T12:11:11Z</time>
      </trkpt>
      <trkpt lat="36.892548" lon="-3.573749">
        <ele>784.262</ele>
        <time>2022-12-06T12:11:20Z</time>
      </trkpt>
      <trkpt lat="36.892476" lon="-3.573976">
        <ele>783.763</ele>
        <time>2022-12-06T12:11:28Z</time>
      </trkpt>
      <trkpt lat="36.892464" lon="-3.573996">
        <ele>783.554</ele>
        <time>2022-12-06T12:11:29Z</time>
      </trkpt>
      <trkpt lat="36.892296" lon="-3.574114">
        <ele>784.756</ele>
        <time>2022-12-06T12:11:38Z</time>
      </trkpt>
      <trkpt lat="36.892229" lon="-3.574304">
        <ele>784.711</ele>
        <time>2022-12-06T12:11:46Z</time>
      </trkpt>
      <trkpt lat="36.892251" lon="-3.574454">
        <ele>785.409</ele>
        <time>2022-12-06T12:11:52Z</time>
      </trkpt>
      <trkpt lat="36.892258" lon="-3.574545">
        <ele>786.476</ele>
        <time>2022-12-06T12:11:57Z</time>
      </trkpt>
      <trkpt lat="36.892252" lon="-3.574671">
        <ele>787.497</ele>
        <time>2022-12-06T12:12:04Z</time>
      </trkpt>
      <trkpt lat="36.892345" lon="-3.574825">
        <ele>788.575</ele>
        <time>2022-12-06T12:12:15Z</time>
      </trkpt>
      <trkpt lat="36.892413" lon="-3.574946">
        <ele>789.752</ele>
        <time>2022-12-06T12:12:24Z</time>
      </trkpt>
      <trkpt lat="36.892457" lon="-3.575046">
        <ele>791.030</ele>
        <time>2022-12-06T12:12:31Z</time>
      </trkpt>
      <trkpt lat="36.892493" lon="-3.575128">
        <ele>792.024</ele>
        <time>2022-12-06T12:12:37Z</time>
      </trkpt>
      <trkpt lat="36.892542" lon="-3.575233">
        <ele>793.035</ele>
        <time>2022-12-06T12:12:45Z</time>
      </trkpt>
      <trkpt lat="36.892579" lon="-3.575322">
        <ele>793.552</ele>
        <time>2022-12-06T12:12:51Z</time>
      </trkpt>
      <trkpt lat="36.892599" lon="-3.575363">
        <ele>794.283</ele>
        <time>2022-12-06T12:12:54Z</time>
      </trkpt>
      <trkpt lat="36.892603" lon="-3.575424">
        <ele>795.082</ele>
        <time>2022-12-06T12:12:59Z</time>
      </trkpt>
      <trkpt lat="36.892596" lon="-3.575434">
        <ele>795.443</ele>
        <time>2022-12-06T12:13:00Z</time>
      </trkpt>
      <trkpt lat="36.892581" lon="-3.575446">
        <ele>796.017</ele>
        <time>2022-12-06T12:13:02Z</time>
      </trkpt>
      <trkpt lat="36.892554" lon="-3.575454">
        <ele>796.509</ele>
        <time>2022-12-06T12:13:04Z</time>
      </trkpt>
      <trkpt lat="36.892541" lon="-3.575452">
        <ele>797.069</ele>
        <time>2022-12-06T12:13:05Z</time>
      </trkpt>
      <trkpt lat="36.892504" lon="-3.575455">
        <ele>797.750</ele>
        <time>2022-12-06T12:13:08Z</time>
      </trkpt>
      <trkpt lat="36.892459" lon="-3.575456">
        <ele>799.038</ele>
        <time>2022-12-06T12:13:12Z</time>
      </trkpt>
      <trkpt lat="36.892420" lon="-3.575476">
        <ele>799.425</ele>
        <time>2022-12-06T12:13:17Z</time>
      </trkpt>
      <trkpt lat="36.892379" lon="-3.575489">
        <ele>800.093</ele>
        <time>2022-12-06T12:13:21Z</time>
      </trkpt>
      <trkpt lat="36.892350" lon="-3.575521">
        <ele>800.787</ele>
        <time>2022-12-06T12:13:24Z</time>
      </trkpt>
      <trkpt lat="36.892340" lon="-3.575551">
        <ele>801.088</ele>
        <time>2022-12-06T12:13:26Z</time>
      </trkpt>
      <trkpt lat="36.892312" lon="-3.575633">
        <ele>802.225</ele>
        <time>2022-12-06T12:13:31Z</time>
      </trkpt>
      <trkpt lat="36.892249" lon="-3.575866">
        <ele>800.736</ele>
        <time>2022-12-06T12:13:44Z</time>
      </trkpt>
      <trkpt lat="36.892233" lon="-3.576045">
        <ele>799.721</ele>
        <time>2022-12-06T12:13:49Z</time>
      </trkpt>
      <trkpt lat="36.892243" lon="-3.576142">
        <ele>798.741</ele>
        <time>2022-12-06T12:13:52Z</time>
      </trkpt>
      <trkpt lat="36.892297" lon="-3.576293">
        <ele>797.505</ele>
        <time>2022-12-06T12:13:57Z</time>
      </trkpt>
      <trkpt lat="36.892383" lon="-3.576384">
        <ele>796.709</ele>
        <time>2022-12-06T12:14:01Z</time>
      </trkpt>
      <trkpt lat="36.892407" lon="-3.576404">
        <ele>796.533</ele>
        <time>2022-12-06T12:14:02Z</time>
      </trkpt>
      <trkpt lat="36.892550" lon="-3.576553">
        <ele>795.544</ele>
        <time>2022-12-06T12:14:09Z</time>
      </trkpt>
      <trkpt lat="36.892619" lon="-3.576660">
        <ele>795.272</ele>
        <time>2022-12-06T12:14:14Z</time>
      </trkpt>
      <trkpt lat="36.892506" lon="-3.576849">
        <ele>796.089</ele>
        <time>2022-12-06T12:14:21Z</time>
      </trkpt>
      <trkpt lat="36.892432" lon="-3.577080">
        <ele>795.487</ele>
        <time>2022-12-06T12:14:29Z</time>
      </trkpt>
      <trkpt lat="36.892429" lon="-3.577330">
        <ele>794.551</ele>
        <time>2022-12-06T12:14:37Z</time>
      </trkpt>
      <trkpt lat="36.892446" lon="-3.577427">
        <ele>794.422</ele>
        <time>2022-12-06T12:14:40Z</time>
      </trkpt>
      <trkpt lat="36.892453" lon="-3.577665">
        <ele>793.579</ele>
        <time>2022-12-06T12:14:48Z</time>
      </trkpt>
      <trkpt lat="36.892419" lon="-3.577854">
        <ele>793.450</ele>
        <time>2022-12-06T12:14:55Z</time>
      </trkpt>
      <trkpt lat="36.892400" lon="-3.578108">
        <ele>793.012</ele>
        <time>2022-12-06T12:15:04Z</time>
      </trkpt>
      <trkpt lat="36.892459" lon="-3.578322">
        <ele>792.732</ele>
        <time>2022-12-06T12:15:10Z</time>
      </trkpt>
      <trkpt lat="36.892541" lon="-3.578541">
        <ele>793.205</ele>
        <time>2022-12-06T12:15:17Z</time>
      </trkpt>
      <trkpt lat="36.892541" lon="-3.578647">
        <ele>794.409</ele>
        <time>2022-12-06T12:15:23Z</time>
      </trkpt>
      <trkpt lat="36.892602" lon="-3.578859">
        <ele>795.012</ele>
        <time>2022-12-06T12:15:35Z</time>
      </trkpt>
      <trkpt lat="36.892642" lon="-3.579088">
        <ele>794.243</ele>
        <time>2022-12-06T12:15:49Z</time>
      </trkpt>
      <trkpt lat="36.892675" lon="-3.579320">
        <ele>794.571</ele>
        <time>2022-12-06T12:16:01Z</time>
      </trkpt>
      <trkpt lat="36.892683" lon="-3.579352">
        <ele>794.528</ele>
        <time>2022-12-06T12:16:03Z</time>
      </trkpt>
      <trkpt lat="36.892700" lon="-3.579407">
        <ele>794.586</ele>
        <time>2022-12-06T12:16:06Z</time>
      </trkpt>
      <trkpt lat="36.892739" lon="-3.579493">
        <ele>794.760</ele>
        <time>2022-12-06T12:16:11Z</time>
      </trkpt>
      <trkpt lat="36.892896" lon="-3.579649">
        <ele>793.531</ele>
        <time>2022-12-06T12:16:24Z</time>
      </trkpt>
      <trkpt lat="36.892903" lon="-3.579661">
        <ele>793.598</ele>
        <time>2022-12-06T12:16:25Z</time>
      </trkpt>
      <trkpt lat="36.892907" lon="-3.579680">
        <ele>793.419</ele>
        <time>2022-12-06T12:16:26Z</time>
      </trkpt>
      <trkpt lat="36.892904" lon="-3.579728">
        <ele>793.263</ele>
        <time>2022-12-06T12:16:29Z</time>
      </trkpt>
      <trkpt lat="36.892801" lon="-3.579722">
        <ele>794.044</ele>
        <time>2022-12-06T12:16:40Z</time>
      </trkpt>
      <trkpt lat="36.892725" lon="-3.579670">
        <ele>794.218</ele>
        <time>2022-12-06T12:16:47Z</time>
      </trkpt>
      <trkpt lat="36.892641" lon="-3.579610">
        <ele>794.509</ele>
        <time>2022-12-06T12:16:53Z</time>
      </trkpt>
      <trkpt lat="36.892472" lon="-3.579486">
        <ele>794.727</ele>
        <time>2022-12-06T12:17:05Z</time>
      </trkpt>
      <trkpt lat="36.892407" lon="-3.579446">
        <ele>795.558</ele>
        <time>2022-12-06T12:17:10Z</time>
      </trkpt>
      <trkpt lat="36.892244" lon="-3.579332">
        <ele>796.296</ele>
        <time>2022-12-06T12:17:24Z</time>
      </trkpt>
      <trkpt lat="36.892072" lon="-3.579262">
        <ele>796.013</ele>
        <time>2022-12-06T12:17:36Z</time>
      </trkpt>
      <trkpt lat="36.891886" lon="-3.579347">
        <ele>796.211</ele>
        <time>2022-12-06T12:17:49Z</time>
      </trkpt>
      <trkpt lat="36.891791" lon="-3.579441">
        <ele>796.765</ele>
        <time>2022-12-06T12:17:56Z</time>
      </trkpt>
      <trkpt lat="36.891675" lon="-3.579619">
        <ele>797.476</ele>
        <time>2022-12-06T12:18:07Z</time>
      </trkpt>
      <trkpt lat="36.891587" lon="-3.579824">
        <ele>797.533</ele>
        <time>2022-12-06T12:18:18Z</time>
      </trkpt>
      <trkpt lat="36.891523" lon="-3.580039">
        <ele>797.564</ele>
        <time>2022-12-06T12:18:32Z</time>
      </trkpt>
      <trkpt lat="36.891519" lon="-3.580047">
        <ele>797.571</ele>
        <time>2022-12-06T12:18:33Z</time>
      </trkpt>
      <trkpt lat="36.891517" lon="-3.580056">
        <ele>797.741</ele>
        <time>2022-12-06T12:18:34Z</time>
      </trkpt>
      <trkpt lat="36.891515" lon="-3.580092">
        <ele>798.015</ele>
        <time>2022-12-06T12:18:37Z</time>
      </trkpt>
      <trkpt lat="36.891529" lon="-3.580205">
        <ele>798.409</ele>
        <time>2022-12-06T12:18:42Z</time>
      </trkpt>
      <trkpt lat="36.891549" lon="-3.580273">
        <ele>798.748</ele>
        <time>2022-12-06T12:18:45Z</time>
      </trkpt>
      <trkpt lat="36.891671" lon="-3.580452">
        <ele>799.059</ele>
        <time>2022-12-06T12:18:56Z</time>
      </trkpt>
      <trkpt lat="36.891698" lon="-3.580676">
        <ele>799.767</ele>
        <time>2022-12-06T12:19:09Z</time>
      </trkpt>
      <trkpt lat="36.891668" lon="-3.580719">
        <ele>801.224</ele>
        <time>2022-12-06T12:19:13Z</time>
      </trkpt>
      <trkpt lat="36.891644" lon="-3.580766">
        <ele>802.262</ele>
        <time>2022-12-06T12:19:18Z</time>
      </trkpt>
      <trkpt lat="36.891626" lon="-3.580808">
        <ele>803.296</ele>
        <time>2022-12-06T12:19:21Z</time>
      </trkpt>
      <trkpt lat="36.891621" lon="-3.580869">
        <ele>804.277</ele>
        <time>2022-12-06T12:19:26Z</time>
      </trkpt>
      <trkpt lat="36.891596" lon="-3.580959">
        <ele>805.484</ele>
        <time>2022-12-06T12:19:34Z</time>
      </trkpt>
      <trkpt lat="36.891531" lon="-3.581126">
        <ele>805.485</ele>
        <time>2022-12-06T12:19:46Z</time>
      </trkpt>
      <trkpt lat="36.891525" lon="-3.581149">
        <ele>805.534</ele>
        <time>2022-12-06T12:19:48Z</time>
      </trkpt>
      <trkpt lat="36.891502" lon="-3.581159">
        <ele>806.555</ele>
        <time>2022-12-06T12:19:52Z</time>
      </trkpt>
      <trkpt lat="36.891494" lon="-3.581154">
        <ele>806.710</ele>
        <time>2022-12-06T12:19:53Z</time>
      </trkpt>
      <trkpt lat="36.891454" lon="-3.581133">
        <ele>807.509</ele>
        <time>2022-12-06T12:19:57Z</time>
      </trkpt>
      <trkpt lat="36.891433" lon="-3.581121">
        <ele>808.274</ele>
        <time>2022-12-06T12:20:00Z</time>
      </trkpt>
      <trkpt lat="36.891403" lon="-3.581092">
        <ele>808.715</ele>
        <time>2022-12-06T12:20:04Z</time>
      </trkpt>
      <trkpt lat="36.891397" lon="-3.581079">
        <ele>808.793</ele>
        <time>2022-12-06T12:20:05Z</time>
      </trkpt>
      <trkpt lat="36.891388" lon="-3.581051">
        <ele>809.560</ele>
        <time>2022-12-06T12:20:09Z</time>
      </trkpt>
      <trkpt lat="36.891384" lon="-3.581042">
        <ele>809.748</ele>
        <time>2022-12-06T12:20:10Z</time>
      </trkpt>
      <trkpt lat="36.891380" lon="-3.581022">
        <ele>810.412</ele>
        <time>2022-12-06T12:20:12Z</time>
      </trkpt>
      <trkpt lat="36.891363" lon="-3.580989">
        <ele>810.773</ele>
        <time>2022-12-06T12:20:15Z</time>
      </trkpt>
      <trkpt lat="36.891324" lon="-3.580930">
        <ele>811.790</ele>
        <time>2022-12-06T12:20:20Z</time>
      </trkpt>
      <trkpt lat="36.891273" lon="-3.580868">
        <ele>813.071</ele>
        <time>2022-12-06T12:20:26Z</time>
      </trkpt>
      <trkpt lat="36.891199" lon="-3.580806">
        <ele>814.297</ele>
        <time>2022-12-06T12:20:32Z</time>
      </trkpt>
      <trkpt lat="36.891105" lon="-3.580664">
        <ele>815.223</ele>
        <time>2022-12-06T12:20:44Z</time>
      </trkpt>
      <trkpt lat="36.891053" lon="-3.580583">
        <ele>816.425</ele>
        <time>2022-12-06T12:20:50Z</time>
      </trkpt>
      <trkpt lat="36.891021" lon="-3.580521">
        <ele>817.409</ele>
        <time>2022-12-06T12:20:55Z</time>
      </trkpt>
      <trkpt lat="36.890981" lon="-3.580464">
        <ele>818.430</ele>
        <time>2022-12-06T12:21:01Z</time>
      </trkpt>
      <trkpt lat="36.890974" lon="-3.580408">
        <ele>819.581</ele>
        <time>2022-12-06T12:21:07Z</time>
      </trkpt>
      <trkpt lat="36.890965" lon="-3.580389">
        <ele>819.759</ele>
        <time>2022-12-06T12:21:09Z</time>
      </trkpt>
      <trkpt lat="36.890927" lon="-3.580336">
        <ele>820.576</ele>
        <time>2022-12-06T12:21:16Z</time>
      </trkpt>
      <trkpt lat="36.890898" lon="-3.580275">
        <ele>821.584</ele>
        <time>2022-12-06T12:21:21Z</time>
      </trkpt>
      <trkpt lat="36.890821" lon="-3.580168">
        <ele>822.748</ele>
        <time>2022-12-06T12:21:28Z</time>
      </trkpt>
      <trkpt lat="36.890735" lon="-3.580124">
        <ele>823.719</ele>
        <time>2022-12-06T12:21:35Z</time>
      </trkpt>
      <trkpt lat="36.890662" lon="-3.580100">
        <ele>824.796</ele>
        <time>2022-12-06T12:21:41Z</time>
      </trkpt>
      <trkpt lat="36.890575" lon="-3.580081">
        <ele>826.017</ele>
        <time>2022-12-06T12:21:48Z</time>
      </trkpt>
      <trkpt lat="36.890550" lon="-3.580081">
        <ele>826.419</ele>
        <time>2022-12-06T12:21:50Z</time>
      </trkpt>
      <trkpt lat="36.890528" lon="-3.580088">
        <ele>826.709</ele>
        <time>2022-12-06T12:21:52Z</time>
      </trkpt>
      <trkpt lat="36.890509" lon="-3.580075">
        <ele>827.019</ele>
        <time>2022-12-06T12:21:53Z</time>
      </trkpt>
      <trkpt lat="36.890404" lon="-3.580059">
        <ele>828.009</ele>
        <time>2022-12-06T12:22:00Z</time>
      </trkpt>
      <trkpt lat="36.890371" lon="-3.580044">
        <ele>829.062</ele>
        <time>2022-12-06T12:22:05Z</time>
      </trkpt>
      <trkpt lat="36.890364" lon="-3.580034">
        <ele>829.233</ele>
        <time>2022-12-06T12:22:06Z</time>
      </trkpt>
      <trkpt lat="36.890355" lon="-3.580018">
        <ele>829.541</ele>
        <time>2022-12-06T12:22:08Z</time>
      </trkpt>
      <trkpt lat="36.890345" lon="-3.579978">
        <ele>829.718</ele>
        <time>2022-12-06T12:22:10Z</time>
      </trkpt>
      <trkpt lat="36.890331" lon="-3.579947">
        <ele>830.076</ele>
        <time>2022-12-06T12:22:12Z</time>
      </trkpt>
      <trkpt lat="36.890293" lon="-3.579883">
        <ele>830.420</ele>
        <time>2022-12-06T12:22:17Z</time>
      </trkpt>
      <trkpt lat="36.890290" lon="-3.579819">
        <ele>831.451</ele>
        <time>2022-12-06T12:22:24Z</time>
      </trkpt>
      <trkpt lat="36.890293" lon="-3.579760">
        <ele>832.578</ele>
        <time>2022-12-06T12:22:29Z</time>
      </trkpt>
      <trkpt lat="36.890296" lon="-3.579735">
        <ele>833.049</ele>
        <time>2022-12-06T12:22:31Z</time>
      </trkpt>
      <trkpt lat="36.890295" lon="-3.579716">
        <ele>833.437</ele>
        <time>2022-12-06T12:22:33Z</time>
      </trkpt>
      <trkpt lat="36.890298" lon="-3.579698">
        <ele>833.549</ele>
        <time>2022-12-06T12:22:35Z</time>
      </trkpt>
      <trkpt lat="36.890349" lon="-3.579596">
        <ele>834.713</ele>
        <time>2022-12-06T12:22:46Z</time>
      </trkpt>
      <trkpt lat="36.890401" lon="-3.579503">
        <ele>835.709</ele>
        <time>2022-12-06T12:22:54Z</time>
      </trkpt>
      <trkpt lat="36.890422" lon="-3.579451">
        <ele>836.494</ele>
        <time>2022-12-06T12:22:58Z</time>
      </trkpt>
      <trkpt lat="36.890432" lon="-3.579390">
        <ele>837.055</ele>
        <time>2022-12-06T12:23:02Z</time>
      </trkpt>
      <trkpt lat="36.890434" lon="-3.579283">
        <ele>838.073</ele>
        <time>2022-12-06T12:23:09Z</time>
      </trkpt>
      <trkpt lat="36.890428" lon="-3.579277">
        <ele>838.220</ele>
        <time>2022-12-06T12:23:11Z</time>
      </trkpt>
      <trkpt lat="36.890433" lon="-3.579289">
        <ele>838.478</ele>
        <time>2022-12-06T12:23:13Z</time>
      </trkpt>
      <trkpt lat="36.890452" lon="-3.579286">
        <ele>838.232</ele>
        <time>2022-12-06T12:23:15Z</time>
      </trkpt>
      <trkpt lat="36.890494" lon="-3.579112">
        <ele>836.763</ele>
        <time>2022-12-06T12:23:25Z</time>
      </trkpt>
      <trkpt lat="36.890528" lon="-3.578987">
        <ele>835.510</ele>
        <time>2022-12-06T12:23:32Z</time>
      </trkpt>
      <trkpt lat="36.890532" lon="-3.578949">
        <ele>835.461</ele>
        <time>2022-12-06T12:23:34Z</time>
      </trkpt>
      <trkpt lat="36.890575" lon="-3.578770">
        <ele>834.545</ele>
        <time>2022-12-06T12:23:40Z</time>
      </trkpt>
      <trkpt lat="36.890581" lon="-3.578739">
        <ele>834.247</ele>
        <time>2022-12-06T12:23:41Z</time>
      </trkpt>
      <trkpt lat="36.890590" lon="-3.578635">
        <ele>833.011</ele>
        <time>2022-12-06T12:23:44Z</time>
      </trkpt>
      <trkpt lat="36.890541" lon="-3.578400">
        <ele>832.209</ele>
        <time>2022-12-06T12:23:51Z</time>
      </trkpt>
      <trkpt lat="36.890511" lon="-3.578308">
        <ele>832.035</ele>
        <time>2022-12-06T12:23:54Z</time>
      </trkpt>
      <trkpt lat="36.890370" lon="-3.578212">
        <ele>832.516</ele>
        <time>2022-12-06T12:24:02Z</time>
      </trkpt>
      <trkpt lat="36.890286" lon="-3.578247">
        <ele>833.034</ele>
        <time>2022-12-06T12:24:05Z</time>
      </trkpt>
      <trkpt lat="36.890099" lon="-3.578278">
        <ele>832.751</ele>
        <time>2022-12-06T12:24:13Z</time>
      </trkpt>
      <trkpt lat="36.889938" lon="-3.578111">
        <ele>832.549</ele>
        <time>2022-12-06T12:24:21Z</time>
      </trkpt>
      <trkpt lat="36.889850" lon="-3.577942">
        <ele>832.513</ele>
        <time>2022-12-06T12:24:30Z</time>
      </trkpt>
      <trkpt lat="36.889683" lon="-3.578022">
        <ele>832.424</ele>
        <time>2022-12-06T12:24:40Z</time>
      </trkpt>
      <trkpt lat="36.889540" lon="-3.578118">
        <ele>832.561</ele>
        <time>2022-12-06T12:24:52Z</time>
      </trkpt>
      <trkpt lat="36.889366" lon="-3.578061">
        <ele>833.562</ele>
        <time>2022-12-06T12:25:04Z</time>
      </trkpt>
      <trkpt lat="36.889358" lon="-3.578075">
        <ele>833.741</ele>
        <time>2022-12-06T12:25:05Z</time>
      </trkpt>
      <trkpt lat="36.889340" lon="-3.578106">
        <ele>834.281</ele>
        <time>2022-12-06T12:25:07Z</time>
      </trkpt>
      <trkpt lat="36.889307" lon="-3.578290">
        <ele>835.409</ele>
        <time>2022-12-06T12:25:17Z</time>
      </trkpt>
      <trkpt lat="36.889291" lon="-3.578412">
        <ele>836.409</ele>
        <time>2022-12-06T12:25:25Z</time>
      </trkpt>
      <trkpt lat="36.889271" lon="-3.578548">
        <ele>837.425</ele>
        <time>2022-12-06T12:25:34Z</time>
      </trkpt>
      <trkpt lat="36.889216" lon="-3.578647">
        <ele>838.456</ele>
        <time>2022-12-06T12:25:42Z</time>
      </trkpt>
      <trkpt lat="36.889195" lon="-3.578667">
        <ele>838.574</ele>
        <time>2022-12-06T12:25:44Z</time>
      </trkpt>
      <trkpt lat="36.889049" lon="-3.578808">
        <ele>839.421</ele>
        <time>2022-12-06T12:25:58Z</time>
      </trkpt>
      <trkpt lat="36.889030" lon="-3.578818">
        <ele>839.579</ele>
        <time>2022-12-06T12:26:00Z</time>
      </trkpt>
      <trkpt lat="36.888886" lon="-3.578797">
        <ele>840.553</ele>
        <time>2022-12-06T12:26:11Z</time>
      </trkpt>
      <trkpt lat="36.888780" lon="-3.578828">
        <ele>841.554</ele>
        <time>2022-12-06T12:26:20Z</time>
      </trkpt>
      <trkpt lat="36.888600" lon="-3.578869">
        <ele>841.731</ele>
        <time>2022-12-06T12:26:33Z</time>
      </trkpt>
      <trkpt lat="36.888539" lon="-3.578915">
        <ele>842.212</ele>
        <time>2022-12-06T12:26:38Z</time>
      </trkpt>
      <trkpt lat="36.888446" lon="-3.579118">
        <ele>842.512</ele>
        <time>2022-12-06T12:26:51Z</time>
      </trkpt>
      <trkpt lat="36.888429" lon="-3.579174">
        <ele>842.532</ele>
        <time>2022-12-06T12:26:54Z</time>
      </trkpt>
      <trkpt lat="36.888398" lon="-3.579421">
        <ele>842.205</ele>
        <time>2022-12-06T12:27:03Z</time>
      </trkpt>
      <trkpt lat="36.888354" lon="-3.579643">
        <ele>841.509</ele>
        <time>2022-12-06T12:27:10Z</time>
      </trkpt>
      <trkpt lat="36.888240" lon="-3.579673">
        <ele>840.572</ele>
        <time>2022-12-06T12:27:15Z</time>
      </trkpt>
      <trkpt lat="36.888199" lon="-3.579636">
        <ele>840.413</ele>
        <time>2022-12-06T12:27:17Z</time>
      </trkpt>
      <trkpt lat="36.888071" lon="-3.579481">
        <ele>840.781</ele>
        <time>2022-12-06T12:27:25Z</time>
      </trkpt>
      <trkpt lat="36.888039" lon="-3.579454">
        <ele>840.558</ele>
        <time>2022-12-06T12:27:27Z</time>
      </trkpt>
      <trkpt lat="36.888047" lon="-3.579242">
        <ele>840.586</ele>
        <time>2022-12-06T12:27:36Z</time>
      </trkpt>
      <trkpt lat="36.888035" lon="-3.578999">
        <ele>840.430</ele>
        <time>2022-12-06T12:27:44Z</time>
      </trkpt>
      <trkpt lat="36.887952" lon="-3.578797">
        <ele>840.441</ele>
        <time>2022-12-06T12:27:52Z</time>
      </trkpt>
      <trkpt lat="36.887850" lon="-3.578661">
        <ele>841.518</ele>
        <time>2022-12-06T12:27:58Z</time>
      </trkpt>
      <trkpt lat="36.887700" lon="-3.578525">
        <ele>842.499</ele>
        <time>2022-12-06T12:28:06Z</time>
      </trkpt>
      <trkpt lat="36.887574" lon="-3.578421">
        <ele>842.555</ele>
        <time>2022-12-06T12:28:17Z</time>
      </trkpt>
      <trkpt lat="36.887506" lon="-3.578313">
        <ele>843.507</ele>
        <time>2022-12-06T12:28:25Z</time>
      </trkpt>
      <trkpt lat="36.887458" lon="-3.578269">
        <ele>844.717</ele>
        <time>2022-12-06T12:28:30Z</time>
      </trkpt>
      <trkpt lat="36.887290" lon="-3.578183">
        <ele>844.709</ele>
        <time>2022-12-06T12:28:43Z</time>
      </trkpt>
      <trkpt lat="36.887124" lon="-3.578119">
        <ele>844.576</ele>
        <time>2022-12-06T12:28:51Z</time>
      </trkpt>
      <trkpt lat="36.887009" lon="-3.577929">
        <ele>844.227</ele>
        <time>2022-12-06T12:28:59Z</time>
      </trkpt>
      <trkpt lat="36.886935" lon="-3.577722">
        <ele>844.285</ele>
        <time>2022-12-06T12:29:06Z</time>
      </trkpt>
      <trkpt lat="36.886812" lon="-3.577561">
        <ele>844.452</ele>
        <time>2022-12-06T12:29:13Z</time>
      </trkpt>
      <trkpt lat="36.886623" lon="-3.577583">
        <ele>844.710</ele>
        <time>2022-12-06T12:29:21Z</time>
      </trkpt>
      <trkpt lat="36.886451" lon="-3.577655">
        <ele>845.564</ele>
        <time>2022-12-06T12:29:30Z</time>
      </trkpt>
      <trkpt lat="36.886441" lon="-3.577653">
        <ele>845.775</ele>
        <time>2022-12-06T12:29:31Z</time>
      </trkpt>
      <trkpt lat="36.886295" lon="-3.577604">
        <ele>847.072</ele>
        <time>2022-12-06T12:29:42Z</time>
      </trkpt>
      <trkpt lat="36.886209" lon="-3.577584">
        <ele>848.083</ele>
        <time>2022-12-06T12:29:49Z</time>
      </trkpt>
      <trkpt lat="36.886076" lon="-3.577623">
        <ele>849.017</ele>
        <time>2022-12-06T12:29:59Z</time>
      </trkpt>
      <trkpt lat="36.886001" lon="-3.577688">
        <ele>850.287</ele>
        <time>2022-12-06T12:30:06Z</time>
      </trkpt>
      <trkpt lat="36.885923" lon="-3.577748">
        <ele>851.415</ele>
        <time>2022-12-06T12:30:13Z</time>
      </trkpt>
      <trkpt lat="36.885751" lon="-3.577853">
        <ele>852.209</ele>
        <time>2022-12-06T12:30:28Z</time>
      </trkpt>
      <trkpt lat="36.885636" lon="-3.578049">
        <ele>851.722</ele>
        <time>2022-12-06T12:30:40Z</time>
      </trkpt>
      <trkpt lat="36.885556" lon="-3.578251">
        <ele>851.243</ele>
        <time>2022-12-06T12:30:46Z</time>
      </trkpt>
      <trkpt lat="36.885538" lon="-3.578432">
        <ele>850.291</ele>
        <time>2022-12-06T12:30:51Z</time>
      </trkpt>
      <trkpt lat="36.885469" lon="-3.578559">
        <ele>849.038</ele>
        <time>2022-12-06T12:30:56Z</time>
      </trkpt>
      <trkpt lat="36.885300" lon="-3.578650">
        <ele>848.746</ele>
        <time>2022-12-06T12:31:03Z</time>
      </trkpt>
      <trkpt lat="36.885226" lon="-3.578864">
        <ele>849.270</ele>
        <time>2022-12-06T12:31:10Z</time>
      </trkpt>
      <trkpt lat="36.885170" lon="-3.579088">
        <ele>849.741</ele>
        <time>2022-12-06T12:31:18Z</time>
      </trkpt>
      <trkpt lat="36.885048" lon="-3.579172">
        <ele>849.018</ele>
        <time>2022-12-06T12:31:25Z</time>
      </trkpt>
      <trkpt lat="36.884875" lon="-3.579029">
        <ele>849.049</ele>
        <time>2022-12-06T12:31:33Z</time>
      </trkpt>
      <trkpt lat="36.884701" lon="-3.579049">
        <ele>848.726</ele>
        <time>2022-12-06T12:31:41Z</time>
      </trkpt>
      <trkpt lat="36.884570" lon="-3.579227">
        <ele>849.547</ele>
        <time>2022-12-06T12:31:55Z</time>
      </trkpt>
      <trkpt lat="36.884538" lon="-3.579271">
        <ele>850.011</ele>
        <time>2022-12-06T12:31:58Z</time>
      </trkpt>
      <trkpt lat="36.884526" lon="-3.579280">
        <ele>850.009</ele>
        <time>2022-12-06T12:31:59Z</time>
      </trkpt>
      <trkpt lat="36.884374" lon="-3.579419">
        <ele>851.023</ele>
        <time>2022-12-06T12:32:12Z</time>
      </trkpt>
      <trkpt lat="36.884363" lon="-3.579432">
        <ele>851.014</ele>
        <time>2022-12-06T12:32:13Z</time>
      </trkpt>
      <trkpt lat="36.884349" lon="-3.579440">
        <ele>851.242</ele>
        <time>2022-12-06T12:32:14Z</time>
      </trkpt>
      <trkpt lat="36.884165" lon="-3.579453">
        <ele>852.089</ele>
        <time>2022-12-06T12:32:27Z</time>
      </trkpt>
      <trkpt lat="36.884122" lon="-3.579430">
        <ele>852.217</ele>
        <time>2022-12-06T12:32:29Z</time>
      </trkpt>
      <trkpt lat="36.883956" lon="-3.579525">
        <ele>852.771</ele>
        <time>2022-12-06T12:32:42Z</time>
      </trkpt>
      <trkpt lat="36.883921" lon="-3.579774">
        <ele>853.272</ele>
        <time>2022-12-06T12:32:52Z</time>
      </trkpt>
      <trkpt lat="36.883988" lon="-3.579980">
        <ele>852.529</ele>
        <time>2022-12-06T12:33:02Z</time>
      </trkpt>
      <trkpt lat="36.884024" lon="-3.580118">
        <ele>852.490</ele>
        <time>2022-12-06T12:33:10Z</time>
      </trkpt>
      <trkpt lat="36.884015" lon="-3.580142">
        <ele>852.299</ele>
        <time>2022-12-06T12:33:13Z</time>
      </trkpt>
      <trkpt lat="36.883934" lon="-3.580132">
        <ele>852.507</ele>
        <time>2022-12-06T12:33:26Z</time>
      </trkpt>
      <trkpt lat="36.883821" lon="-3.580091">
        <ele>853.427</ele>
        <time>2022-12-06T12:33:35Z</time>
      </trkpt>
      <trkpt lat="36.883709" lon="-3.580115">
        <ele>854.409</ele>
        <time>2022-12-06T12:33:44Z</time>
      </trkpt>
      <trkpt lat="36.883636" lon="-3.580256">
        <ele>855.440</ele>
        <time>2022-12-06T12:33:53Z</time>
      </trkpt>
      <trkpt lat="36.883615" lon="-3.580407">
        <ele>856.541</ele>
        <time>2022-12-06T12:34:01Z</time>
      </trkpt>
      <trkpt lat="36.883611" lon="-3.580593">
        <ele>857.579</ele>
        <time>2022-12-06T12:34:11Z</time>
      </trkpt>
      <trkpt lat="36.883602" lon="-3.580724">
        <ele>858.716</ele>
        <time>2022-12-06T12:34:20Z</time>
      </trkpt>
      <trkpt lat="36.883579" lon="-3.580791">
        <ele>859.794</ele>
        <time>2022-12-06T12:34:27Z</time>
      </trkpt>
      <trkpt lat="36.883542" lon="-3.580851">
        <ele>861.048</ele>
        <time>2022-12-06T12:34:33Z</time>
      </trkpt>
      <trkpt lat="36.883510" lon="-3.580917">
        <ele>862.219</ele>
        <time>2022-12-06T12:34:39Z</time>
      </trkpt>
      <trkpt lat="36.883485" lon="-3.580988">
        <ele>863.236</ele>
        <time>2022-12-06T12:34:45Z</time>
      </trkpt>
      <trkpt lat="36.883446" lon="-3.581059">
        <ele>864.227</ele>
        <time>2022-12-06T12:34:51Z</time>
      </trkpt>
      <trkpt lat="36.883407" lon="-3.581109">
        <ele>865.486</ele>
        <time>2022-12-06T12:34:56Z</time>
      </trkpt>
      <trkpt lat="36.883324" lon="-3.581131">
        <ele>866.560</ele>
        <time>2022-12-06T12:35:05Z</time>
      </trkpt>
      <trkpt lat="36.883271" lon="-3.581159">
        <ele>867.526</ele>
        <time>2022-12-06T12:35:11Z</time>
      </trkpt>
      <trkpt lat="36.883214" lon="-3.581178">
        <ele>868.709</ele>
        <time>2022-12-06T12:35:17Z</time>
      </trkpt>
      <trkpt lat="36.883204" lon="-3.581186">
        <ele>869.089</ele>
        <time>2022-12-06T12:35:18Z</time>
      </trkpt>
      <trkpt lat="36.883100" lon="-3.581192">
        <ele>869.780</ele>
        <time>2022-12-06T12:35:26Z</time>
      </trkpt>
      <trkpt lat="36.883034" lon="-3.581230">
        <ele>870.718</ele>
        <time>2022-12-06T12:35:32Z</time>
      </trkpt>
      <trkpt lat="36.883021" lon="-3.581236">
        <ele>871.045</ele>
        <time>2022-12-06T12:35:33Z</time>
      </trkpt>
      <trkpt lat="36.882946" lon="-3.581291">
        <ele>872.063</ele>
        <time>2022-12-06T12:35:39Z</time>
      </trkpt>
      <trkpt lat="36.882930" lon="-3.581329">
        <ele>872.297</ele>
        <time>2022-12-06T12:35:42Z</time>
      </trkpt>
      <trkpt lat="36.882900" lon="-3.581395">
        <ele>873.068</ele>
        <time>2022-12-06T12:35:47Z</time>
      </trkpt>
      <trkpt lat="36.882866" lon="-3.581411">
        <ele>873.555</ele>
        <time>2022-12-06T12:35:50Z</time>
      </trkpt>
      <trkpt lat="36.882826" lon="-3.581436">
        <ele>874.256</ele>
        <time>2022-12-06T12:35:54Z</time>
      </trkpt>
      <trkpt lat="36.882801" lon="-3.581504">
        <ele>875.228</ele>
        <time>2022-12-06T12:36:00Z</time>
      </trkpt>
      <trkpt lat="36.882799" lon="-3.581521">
        <ele>875.489</ele>
        <time>2022-12-06T12:36:01Z</time>
      </trkpt>
      <trkpt lat="36.882784" lon="-3.581552">
        <ele>876.217</ele>
        <time>2022-12-06T12:36:04Z</time>
      </trkpt>
      <trkpt lat="36.882785" lon="-3.581566">
        <ele>876.209</ele>
        <time>2022-12-06T12:36:05Z</time>
      </trkpt>
      <trkpt lat="36.882779" lon="-3.581577">
        <ele>876.453</ele>
        <time>2022-12-06T12:36:06Z</time>
      </trkpt>
      <trkpt lat="36.882763" lon="-3.581586">
        <ele>877.054</ele>
        <time>2022-12-06T12:36:08Z</time>
      </trkpt>
      <trkpt lat="36.882749" lon="-3.581602">
        <ele>877.462</ele>
        <time>2022-12-06T12:36:10Z</time>
      </trkpt>
      <trkpt lat="36.882736" lon="-3.581626">
        <ele>877.739</ele>
        <time>2022-12-06T12:36:12Z</time>
      </trkpt>
      <trkpt lat="36.882724" lon="-3.581666">
        <ele>878.457</ele>
        <time>2022-12-06T12:36:15Z</time>
      </trkpt>
      <trkpt lat="36.882710" lon="-3.581700">
        <ele>878.781</ele>
        <time>2022-12-06T12:36:18Z</time>
      </trkpt>
      <trkpt lat="36.882684" lon="-3.581714">
        <ele>879.562</ele>
        <time>2022-12-06T12:36:22Z</time>
      </trkpt>
      <trkpt lat="36.882672" lon="-3.581711">
        <ele>879.739</ele>
        <time>2022-12-06T12:36:23Z</time>
      </trkpt>
      <trkpt lat="36.882616" lon="-3.581715">
        <ele>880.780</ele>
        <time>2022-12-06T12:36:28Z</time>
      </trkpt>
      <trkpt lat="36.882588" lon="-3.581742">
        <ele>881.583</ele>
        <time>2022-12-06T12:36:32Z</time>
      </trkpt>
      <trkpt lat="36.882583" lon="-3.581746">
        <ele>881.725</ele>
        <time>2022-12-06T12:36:33Z</time>
      </trkpt>
      <trkpt lat="36.882574" lon="-3.581754">
        <ele>882.417</ele>
        <time>2022-12-06T12:36:35Z</time>
      </trkpt>
      <trkpt lat="36.882559" lon="-3.581753">
        <ele>883.009</ele>
        <time>2022-12-06T12:36:37Z</time>
      </trkpt>
      <trkpt lat="36.882548" lon="-3.581767">
        <ele>883.499</ele>
        <time>2022-12-06T12:36:39Z</time>
      </trkpt>
      <trkpt lat="36.882522" lon="-3.581806">
        <ele>884.010</ele>
        <time>2022-12-06T12:36:43Z</time>
      </trkpt>
      <trkpt lat="36.882509" lon="-3.581826">
        <ele>884.468</ele>
        <time>2022-12-06T12:36:45Z</time>
      </trkpt>
      <trkpt lat="36.882483" lon="-3.581846">
        <ele>885.235</ele>
        <time>2022-12-06T12:36:48Z</time>
      </trkpt>
      <trkpt lat="36.882438" lon="-3.581886">
        <ele>886.263</ele>
        <time>2022-12-06T12:36:53Z</time>
      </trkpt>
      <trkpt lat="36.882421" lon="-3.581942">
        <ele>887.257</ele>
        <time>2022-12-06T12:36:57Z</time>
      </trkpt>
      <trkpt lat="36.882424" lon="-3.582041">
        <ele>888.428</ele>
        <time>2022-12-06T12:37:01Z</time>
      </trkpt>
      <trkpt lat="36.882419" lon="-3.582113">
        <ele>889.055</ele>
        <time>2022-12-06T12:37:04Z</time>
      </trkpt>
      <trkpt lat="36.882418" lon="-3.582152">
        <ele>889.426</ele>
        <time>2022-12-06T12:37:06Z</time>
      </trkpt>
      <trkpt lat="36.882425" lon="-3.582265">
        <ele>890.497</ele>
        <time>2022-12-06T12:37:11Z</time>
      </trkpt>
      <trkpt lat="36.882423" lon="-3.582286">
        <ele>890.523</ele>
        <time>2022-12-06T12:37:12Z</time>
      </trkpt>
      <trkpt lat="36.882444" lon="-3.582441">
        <ele>891.525</ele>
        <time>2022-12-06T12:37:21Z</time>
      </trkpt>
      <trkpt lat="36.882458" lon="-3.582568">
        <ele>892.709</ele>
        <time>2022-12-06T12:37:28Z</time>
      </trkpt>
      <trkpt lat="36.882480" lon="-3.582638">
        <ele>893.770</ele>
        <time>2022-12-06T12:37:33Z</time>
      </trkpt>
      <trkpt lat="36.882515" lon="-3.582758">
        <ele>895.061</ele>
        <time>2022-12-06T12:37:40Z</time>
      </trkpt>
      <trkpt lat="36.882552" lon="-3.582839">
        <ele>896.059</ele>
        <time>2022-12-06T12:37:46Z</time>
      </trkpt>
      <trkpt lat="36.882603" lon="-3.582955">
        <ele>897.036</ele>
        <time>2022-12-06T12:37:55Z</time>
      </trkpt>
      <trkpt lat="36.882627" lon="-3.583021">
        <ele>898.284</ele>
        <time>2022-12-06T12:38:02Z</time>
      </trkpt>
      <trkpt lat="36.882630" lon="-3.583067">
        <ele>899.418</ele>
        <time>2022-12-06T12:38:07Z</time>
      </trkpt>
      <trkpt lat="36.882636" lon="-3.583134">
        <ele>900.449</ele>
        <time>2022-12-06T12:38:13Z</time>
      </trkpt>
      <trkpt lat="36.882652" lon="-3.583203">
        <ele>901.516</ele>
        <time>2022-12-06T12:38:19Z</time>
      </trkpt>
      <trkpt lat="36.882657" lon="-3.583269">
        <ele>902.797</ele>
        <time>2022-12-06T12:38:24Z</time>
      </trkpt>
      <trkpt lat="36.882665" lon="-3.583325">
        <ele>903.744</ele>
        <time>2022-12-06T12:38:28Z</time>
      </trkpt>
      <trkpt lat="36.882677" lon="-3.583391">
        <ele>905.005</ele>
        <time>2022-12-06T12:38:34Z</time>
      </trkpt>
      <trkpt lat="36.882688" lon="-3.583435">
        <ele>906.215</ele>
        <time>2022-12-06T12:38:39Z</time>
      </trkpt>
      <trkpt lat="36.882682" lon="-3.583451">
        <ele>906.509</ele>
        <time>2022-12-06T12:38:41Z</time>
      </trkpt>
      <trkpt lat="36.882679" lon="-3.583486">
        <ele>907.215</ele>
        <time>2022-12-06T12:38:44Z</time>
      </trkpt>
      <trkpt lat="36.882682" lon="-3.583499">
        <ele>907.416</ele>
        <time>2022-12-06T12:38:45Z</time>
      </trkpt>
      <trkpt lat="36.882684" lon="-3.583531">
        <ele>907.774</ele>
        <time>2022-12-06T12:38:48Z</time>
      </trkpt>
      <trkpt lat="36.882684" lon="-3.583555">
        <ele>908.421</ele>
        <time>2022-12-06T12:38:50Z</time>
      </trkpt>
      <trkpt lat="36.882690" lon="-3.583627">
        <ele>909.499</ele>
        <time>2022-12-06T12:38:56Z</time>
      </trkpt>
      <trkpt lat="36.882691" lon="-3.583635">
        <ele>909.473</ele>
        <time>2022-12-06T12:38:57Z</time>
      </trkpt>
      <trkpt lat="36.882690" lon="-3.583682">
        <ele>910.094</ele>
        <time>2022-12-06T12:39:01Z</time>
      </trkpt>
      <trkpt lat="36.882690" lon="-3.583700">
        <ele>910.591</ele>
        <time>2022-12-06T12:39:03Z</time>
      </trkpt>
      <trkpt lat="36.882695" lon="-3.583737">
        <ele>911.252</ele>
        <time>2022-12-06T12:39:06Z</time>
      </trkpt>
      <trkpt lat="36.882704" lon="-3.583763">
        <ele>911.518</ele>
        <time>2022-12-06T12:39:08Z</time>
      </trkpt>
      <trkpt lat="36.882714" lon="-3.583808">
        <ele>912.598</ele>
        <time>2022-12-06T12:39:12Z</time>
      </trkpt>
      <trkpt lat="36.882744" lon="-3.583864">
        <ele>913.717</ele>
        <time>2022-12-06T12:39:17Z</time>
      </trkpt>
      <trkpt lat="36.882786" lon="-3.583941">
        <ele>914.709</ele>
        <time>2022-12-06T12:39:24Z</time>
      </trkpt>
      <trkpt lat="36.882823" lon="-3.583987">
        <ele>915.522</ele>
        <time>2022-12-06T12:39:30Z</time>
      </trkpt>
      <trkpt lat="36.882830" lon="-3.583999">
        <ele>916.013</ele>
        <time>2022-12-06T12:39:31Z</time>
      </trkpt>
      <trkpt lat="36.882844" lon="-3.584019">
        <ele>916.411</ele>
        <time>2022-12-06T12:39:33Z</time>
      </trkpt>
      <trkpt lat="36.882871" lon="-3.584073">
        <ele>917.088</ele>
        <time>2022-12-06T12:39:38Z</time>
      </trkpt>
      <trkpt lat="36.882876" lon="-3.584099">
        <ele>917.446</ele>
        <time>2022-12-06T12:39:41Z</time>
      </trkpt>
      <trkpt lat="36.882889" lon="-3.584143">
        <ele>917.770</ele>
        <time>2022-12-06T12:39:45Z</time>
      </trkpt>
      <trkpt lat="36.882888" lon="-3.584162">
        <ele>918.031</ele>
        <time>2022-12-06T12:39:47Z</time>
      </trkpt>
      <trkpt lat="36.882896" lon="-3.584211">
        <ele>918.778</ele>
        <time>2022-12-06T12:39:52Z</time>
      </trkpt>
      <trkpt lat="36.882902" lon="-3.584231">
        <ele>919.229</ele>
        <time>2022-12-06T12:39:54Z</time>
      </trkpt>
      <trkpt lat="36.882900" lon="-3.584277">
        <ele>919.722</ele>
        <time>2022-12-06T12:39:58Z</time>
      </trkpt>
      <trkpt lat="36.882892" lon="-3.584303">
        <ele>920.462</ele>
        <time>2022-12-06T12:40:01Z</time>
      </trkpt>
      <trkpt lat="36.882880" lon="-3.584357">
        <ele>921.208</ele>
        <time>2022-12-06T12:40:06Z</time>
      </trkpt>
      <trkpt lat="36.882872" lon="-3.584367">
        <ele>921.409</ele>
        <time>2022-12-06T12:40:07Z</time>
      </trkpt>
      <trkpt lat="36.882866" lon="-3.584386">
        <ele>921.523</ele>
        <time>2022-12-06T12:40:09Z</time>
      </trkpt>
      <trkpt lat="36.882857" lon="-3.584441">
        <ele>922.534</ele>
        <time>2022-12-06T12:40:14Z</time>
      </trkpt>
      <trkpt lat="36.882835" lon="-3.584476">
        <ele>923.432</ele>
        <time>2022-12-06T12:40:18Z</time>
      </trkpt>
      <trkpt lat="36.882811" lon="-3.584482">
        <ele>923.589</ele>
        <time>2022-12-06T12:40:20Z</time>
      </trkpt>
      <trkpt lat="36.882755" lon="-3.584432">
        <ele>923.597</ele>
        <time>2022-12-06T12:40:25Z</time>
      </trkpt>
      <trkpt lat="36.882750" lon="-3.584418">
        <ele>923.591</ele>
        <time>2022-12-06T12:40:26Z</time>
      </trkpt>
      <trkpt lat="36.882740" lon="-3.584302">
        <ele>924.552</ele>
        <time>2022-12-06T12:40:34Z</time>
      </trkpt>
      <trkpt lat="36.882715" lon="-3.584153">
        <ele>925.779</ele>
        <time>2022-12-06T12:40:45Z</time>
      </trkpt>
      <trkpt lat="36.882646" lon="-3.584019">
        <ele>926.740</ele>
        <time>2022-12-06T12:40:56Z</time>
      </trkpt>
      <trkpt lat="36.882524" lon="-3.583913">
        <ele>927.755</ele>
        <time>2022-12-06T12:41:07Z</time>
      </trkpt>
      <trkpt lat="36.882456" lon="-3.583812">
        <ele>928.707</ele>
        <time>2022-12-06T12:41:15Z</time>
      </trkpt>
      <trkpt lat="36.882398" lon="-3.583716">
        <ele>929.717</ele>
        <time>2022-12-06T12:41:22Z</time>
      </trkpt>
      <trkpt lat="36.882327" lon="-3.583655">
        <ele>930.709</ele>
        <time>2022-12-06T12:41:29Z</time>
      </trkpt>
      <trkpt lat="36.882269" lon="-3.583609">
        <ele>931.796</ele>
        <time>2022-12-06T12:41:35Z</time>
      </trkpt>
      <trkpt lat="36.882170" lon="-3.583517">
        <ele>933.097</ele>
        <time>2022-12-06T12:41:44Z</time>
      </trkpt>
      <trkpt lat="36.882091" lon="-3.583431">
        <ele>934.035</ele>
        <time>2022-12-06T12:41:54Z</time>
      </trkpt>
      <trkpt lat="36.882032" lon="-3.583366">
        <ele>935.052</ele>
        <time>2022-12-06T12:42:02Z</time>
      </trkpt>
      <trkpt lat="36.881907" lon="-3.583342">
        <ele>936.010</ele>
        <time>2022-12-06T12:42:13Z</time>
      </trkpt>
      <trkpt lat="36.881780" lon="-3.583354">
        <ele>937.054</ele>
        <time>2022-12-06T12:42:24Z</time>
      </trkpt>
      <trkpt lat="36.881654" lon="-3.583349">
        <ele>938.245</ele>
        <time>2022-12-06T12:42:36Z</time>
      </trkpt>
      <trkpt lat="36.881585" lon="-3.583372">
        <ele>939.272</ele>
        <time>2022-12-06T12:42:42Z</time>
      </trkpt>
      <trkpt lat="36.881503" lon="-3.583400">
        <ele>940.423</ele>
        <time>2022-12-06T12:42:49Z</time>
      </trkpt>
      <trkpt lat="36.881411" lon="-3.583497">
        <ele>941.436</ele>
        <time>2022-12-06T12:42:58Z</time>
      </trkpt>
      <trkpt lat="36.881351" lon="-3.583566">
        <ele>942.417</ele>
        <time>2022-12-06T12:43:05Z</time>
      </trkpt>
      <trkpt lat="36.881325" lon="-3.583593">
        <ele>943.018</ele>
        <time>2022-12-06T12:43:08Z</time>
      </trkpt>
      <trkpt lat="36.881292" lon="-3.583627">
        <ele>943.409</ele>
        <time>2022-12-06T12:43:12Z</time>
      </trkpt>
      <trkpt lat="36.881239" lon="-3.583723">
        <ele>944.584</ele>
        <time>2022-12-06T12:43:19Z</time>
      </trkpt>
      <trkpt lat="36.881164" lon="-3.583854">
        <ele>945.515</ele>
        <time>2022-12-06T12:43:28Z</time>
      </trkpt>
      <trkpt lat="36.881087" lon="-3.584067">
        <ele>946.533</ele>
        <time>2022-12-06T12:43:43Z</time>
      </trkpt>
      <trkpt lat="36.881072" lon="-3.584082">
        <ele>946.710</ele>
        <time>2022-12-06T12:43:45Z</time>
      </trkpt>
      <trkpt lat="36.880933" lon="-3.584241">
        <ele>947.498</ele>
        <time>2022-12-06T12:44:03Z</time>
      </trkpt>
      <trkpt lat="36.880826" lon="-3.584321">
        <ele>947.752</ele>
        <time>2022-12-06T12:44:13Z</time>
      </trkpt>
      <trkpt lat="36.880738" lon="-3.584401">
        <ele>948.733</ele>
        <time>2022-12-06T12:44:22Z</time>
      </trkpt>
      <trkpt lat="36.880699" lon="-3.584470">
        <ele>950.030</ele>
        <time>2022-12-06T12:44:28Z</time>
      </trkpt>
      <trkpt lat="36.880665" lon="-3.584523">
        <ele>950.591</ele>
        <time>2022-12-06T12:44:33Z</time>
      </trkpt>
      <trkpt lat="36.880633" lon="-3.584543">
        <ele>951.067</ele>
        <time>2022-12-06T12:44:36Z</time>
      </trkpt>
      <trkpt lat="36.880577" lon="-3.584576">
        <ele>952.281</ele>
        <time>2022-12-06T12:44:42Z</time>
      </trkpt>
      <trkpt lat="36.880546" lon="-3.584585">
        <ele>952.419</ele>
        <time>2022-12-06T12:44:45Z</time>
      </trkpt>
      <trkpt lat="36.880417" lon="-3.584619">
        <ele>953.209</ele>
        <time>2022-12-06T12:44:55Z</time>
      </trkpt>
      <trkpt lat="36.880409" lon="-3.584630">
        <ele>953.487</ele>
        <time>2022-12-06T12:44:56Z</time>
      </trkpt>
      <trkpt lat="36.880381" lon="-3.584687">
        <ele>954.288</ele>
        <time>2022-12-06T12:45:01Z</time>
      </trkpt>
      <trkpt lat="36.880376" lon="-3.584700">
        <ele>954.246</ele>
        <time>2022-12-06T12:45:02Z</time>
      </trkpt>
      <trkpt lat="36.880366" lon="-3.584712">
        <ele>954.433</ele>
        <time>2022-12-06T12:45:03Z</time>
      </trkpt>
      <trkpt lat="36.880332" lon="-3.584740">
        <ele>954.561</ele>
        <time>2022-12-06T12:45:06Z</time>
      </trkpt>
      <trkpt lat="36.880293" lon="-3.584776">
        <ele>955.065</ele>
        <time>2022-12-06T12:45:10Z</time>
      </trkpt>
      <trkpt lat="36.880279" lon="-3.584784">
        <ele>955.076</ele>
        <time>2022-12-06T12:45:11Z</time>
      </trkpt>
      <trkpt lat="36.880252" lon="-3.584797">
        <ele>955.483</ele>
        <time>2022-12-06T12:45:13Z</time>
      </trkpt>
      <trkpt lat="36.880249" lon="-3.584808">
        <ele>955.474</ele>
        <time>2022-12-06T12:45:14Z</time>
      </trkpt>
      <trkpt lat="36.880229" lon="-3.584840">
        <ele>955.741</ele>
        <time>2022-12-06T12:45:17Z</time>
      </trkpt>
      <trkpt lat="36.880208" lon="-3.584849">
        <ele>956.281</ele>
        <time>2022-12-06T12:45:20Z</time>
      </trkpt>
      <trkpt lat="36.880199" lon="-3.584845">
        <ele>956.409</ele>
        <time>2022-12-06T12:45:21Z</time>
      </trkpt>
      <trkpt lat="36.880168" lon="-3.584785">
        <ele>957.409</ele>
        <time>2022-12-06T12:45:29Z</time>
      </trkpt>
      <trkpt lat="36.880237" lon="-3.584680">
        <ele>958.475</ele>
        <time>2022-12-06T12:45:38Z</time>
      </trkpt>
      <trkpt lat="36.880273" lon="-3.584645">
        <ele>959.216</ele>
        <time>2022-12-06T12:45:42Z</time>
      </trkpt>
      <trkpt lat="36.880283" lon="-3.584629">
        <ele>959.414</ele>
        <time>2022-12-06T12:45:44Z</time>
      </trkpt>
      <trkpt lat="36.880289" lon="-3.584618">
        <ele>959.571</ele>
        <time>2022-12-06T12:45:45Z</time>
      </trkpt>
      <trkpt lat="36.880309" lon="-3.584533">
        <ele>960.589</ele>
        <time>2022-12-06T12:45:53Z</time>
      </trkpt>
      <trkpt lat="36.880326" lon="-3.584460">
        <ele>961.573</ele>
        <time>2022-12-06T12:46:00Z</time>
      </trkpt>
      <trkpt lat="36.880321" lon="-3.584380">
        <ele>962.744</ele>
        <time>2022-12-06T12:46:07Z</time>
      </trkpt>
      <trkpt lat="36.880327" lon="-3.584373">
        <ele>963.051</ele>
        <time>2022-12-06T12:46:09Z</time>
      </trkpt>
      <trkpt lat="36.880358" lon="-3.584311">
        <ele>964.042</ele>
        <time>2022-12-06T12:46:14Z</time>
      </trkpt>
      <trkpt lat="36.880388" lon="-3.584235">
        <ele>964.723</ele>
        <time>2022-12-06T12:46:20Z</time>
      </trkpt>
      <trkpt lat="36.880390" lon="-3.584221">
        <ele>965.083</ele>
        <time>2022-12-06T12:46:21Z</time>
      </trkpt>
      <trkpt lat="36.880379" lon="-3.584087">
        <ele>966.011</ele>
        <time>2022-12-06T12:46:28Z</time>
      </trkpt>
      <trkpt lat="36.880348" lon="-3.584000">
        <ele>967.409</ele>
        <time>2022-12-06T12:46:33Z</time>
      </trkpt>
      <trkpt lat="36.880316" lon="-3.583967">
        <ele>967.763</ele>
        <time>2022-12-06T12:46:36Z</time>
      </trkpt>
      <trkpt lat="36.880297" lon="-3.583969">
        <ele>968.464</ele>
        <time>2022-12-06T12:46:38Z</time>
      </trkpt>
      <trkpt lat="36.880289" lon="-3.583972">
        <ele>968.532</ele>
        <time>2022-12-06T12:46:39Z</time>
      </trkpt>
      <trkpt lat="36.880237" lon="-3.583995">
        <ele>969.559</ele>
        <time>2022-12-06T12:46:43Z</time>
      </trkpt>
      <trkpt lat="36.880200" lon="-3.584038">
        <ele>970.597</ele>
        <time>2022-12-06T12:46:47Z</time>
      </trkpt>
      <trkpt lat="36.880156" lon="-3.584088">
        <ele>971.571</ele>
        <time>2022-12-06T12:46:52Z</time>
      </trkpt>
      <trkpt lat="36.880150" lon="-3.584095">
        <ele>972.092</ele>
        <time>2022-12-06T12:46:53Z</time>
      </trkpt>
      <trkpt lat="36.880149" lon="-3.584123">
        <ele>972.299</ele>
        <time>2022-12-06T12:46:56Z</time>
      </trkpt>
      <trkpt lat="36.880157" lon="-3.584135">
        <ele>972.510</ele>
        <time>2022-12-06T12:47:01Z</time>
      </trkpt>
      <trkpt lat="36.880152" lon="-3.584201">
        <ele>972.563</ele>
        <time>2022-12-06T12:47:40Z</time>
      </trkpt>
      <trkpt lat="36.880100" lon="-3.584226">
        <ele>973.744</ele>
        <time>2022-12-06T12:47:48Z</time>
      </trkpt>
      <trkpt lat="36.880062" lon="-3.584253">
        <ele>974.418</ele>
        <time>2022-12-06T12:47:53Z</time>
      </trkpt>
      <trkpt lat="36.880034" lon="-3.584279">
        <ele>974.709</ele>
        <time>2022-12-06T12:47:57Z</time>
      </trkpt>
      <trkpt lat="36.879998" lon="-3.584315">
        <ele>975.297</ele>
        <time>2022-12-06T12:48:02Z</time>
      </trkpt>
      <trkpt lat="36.879985" lon="-3.584347">
        <ele>976.098</ele>
        <time>2022-12-06T12:48:05Z</time>
      </trkpt>
      <trkpt lat="36.879960" lon="-3.584395">
        <ele>977.296</ele>
        <time>2022-12-06T12:48:09Z</time>
      </trkpt>
      <trkpt lat="36.879905" lon="-3.584453">
        <ele>978.243</ele>
        <time>2022-12-06T12:48:16Z</time>
      </trkpt>
      <trkpt lat="36.879859" lon="-3.584504">
        <ele>978.751</ele>
        <time>2022-12-06T12:48:23Z</time>
      </trkpt>
      <trkpt lat="36.879847" lon="-3.584521">
        <ele>979.275</ele>
        <time>2022-12-06T12:48:25Z</time>
      </trkpt>
      <trkpt lat="36.879841" lon="-3.584529">
        <ele>979.436</ele>
        <time>2022-12-06T12:48:26Z</time>
      </trkpt>
      <trkpt lat="36.879820" lon="-3.584562">
        <ele>979.733</ele>
        <time>2022-12-06T12:48:29Z</time>
      </trkpt>
      <trkpt lat="36.879803" lon="-3.584577">
        <ele>980.464</ele>
        <time>2022-12-06T12:48:31Z</time>
      </trkpt>
      <trkpt lat="36.879710" lon="-3.584622">
        <ele>981.458</ele>
        <time>2022-12-06T12:48:40Z</time>
      </trkpt>
      <trkpt lat="36.879651" lon="-3.584679">
        <ele>982.452</ele>
        <time>2022-12-06T12:48:47Z</time>
      </trkpt>
      <trkpt lat="36.879585" lon="-3.584694">
        <ele>983.517</ele>
        <time>2022-12-06T12:48:53Z</time>
      </trkpt>
      <trkpt lat="36.879533" lon="-3.584695">
        <ele>984.509</ele>
        <time>2022-12-06T12:48:58Z</time>
      </trkpt>
      <trkpt lat="36.879496" lon="-3.584706">
        <ele>985.096</ele>
        <time>2022-12-06T12:49:02Z</time>
      </trkpt>
      <trkpt lat="36.879423" lon="-3.584754">
        <ele>985.717</ele>
        <time>2022-12-06T12:49:09Z</time>
      </trkpt>
      <trkpt lat="36.879403" lon="-3.584774">
        <ele>986.035</ele>
        <time>2022-12-06T12:49:11Z</time>
      </trkpt>
      <trkpt lat="36.879380" lon="-3.584808">
        <ele>986.762</ele>
        <time>2022-12-06T12:49:14Z</time>
      </trkpt>
      <trkpt lat="36.879375" lon="-3.584819">
        <ele>987.020</ele>
        <time>2022-12-06T12:49:15Z</time>
      </trkpt>
      <trkpt lat="36.879363" lon="-3.584862">
        <ele>987.554</ele>
        <time>2022-12-06T12:49:18Z</time>
      </trkpt>
      <trkpt lat="36.879363" lon="-3.584876">
        <ele>987.775</ele>
        <time>2022-12-06T12:49:19Z</time>
      </trkpt>
      <trkpt lat="36.879360" lon="-3.584888">
        <ele>988.042</ele>
        <time>2022-12-06T12:49:20Z</time>
      </trkpt>
      <trkpt lat="36.879339" lon="-3.584936">
        <ele>988.713</ele>
        <time>2022-12-06T12:49:24Z</time>
      </trkpt>
      <trkpt lat="36.879324" lon="-3.584996">
        <ele>989.583</ele>
        <time>2022-12-06T12:49:28Z</time>
      </trkpt>
      <trkpt lat="36.879319" lon="-3.585021">
        <ele>989.725</ele>
        <time>2022-12-06T12:49:30Z</time>
      </trkpt>
      <trkpt lat="36.879316" lon="-3.585035">
        <ele>989.717</ele>
        <time>2022-12-06T12:49:31Z</time>
      </trkpt>
      <trkpt lat="36.879319" lon="-3.585052">
        <ele>990.009</ele>
        <time>2022-12-06T12:49:32Z</time>
      </trkpt>
      <trkpt lat="36.879348" lon="-3.585241">
        <ele>989.439</ele>
        <time>2022-12-06T12:49:43Z</time>
      </trkpt>
      <trkpt lat="36.879339" lon="-3.585349">
        <ele>989.470</ele>
        <time>2022-12-06T12:49:51Z</time>
      </trkpt>
      <trkpt lat="36.879282" lon="-3.585430">
        <ele>989.448</ele>
        <time>2022-12-06T12:50:01Z</time>
      </trkpt>
      <trkpt lat="36.879271" lon="-3.585445">
        <ele>989.485</ele>
        <time>2022-12-06T12:50:03Z</time>
      </trkpt>
      <trkpt lat="36.879259" lon="-3.585473">
        <ele>989.543</ele>
        <time>2022-12-06T12:50:06Z</time>
      </trkpt>
      <trkpt lat="36.879287" lon="-3.585535">
        <ele>990.057</ele>
        <time>2022-12-06T12:50:11Z</time>
      </trkpt>
      <trkpt lat="36.879453" lon="-3.585635">
        <ele>989.448</ele>
        <time>2022-12-06T12:50:22Z</time>
      </trkpt>
      <trkpt lat="36.879635" lon="-3.585667">
        <ele>990.265</ele>
        <time>2022-12-06T12:50:37Z</time>
      </trkpt>
      <trkpt lat="36.879777" lon="-3.585794">
        <ele>990.536</ele>
        <time>2022-12-06T12:50:54Z</time>
      </trkpt>
      <trkpt lat="36.879795" lon="-3.585812">
        <ele>990.561</ele>
        <time>2022-12-06T12:50:57Z</time>
      </trkpt>
      <trkpt lat="36.879807" lon="-3.585905">
        <ele>990.521</ele>
        <time>2022-12-06T12:51:05Z</time>
      </trkpt>
      <trkpt lat="36.879808" lon="-3.585985">
        <ele>990.413</ele>
        <time>2022-12-06T12:51:11Z</time>
      </trkpt>
      <trkpt lat="36.879808" lon="-3.586009">
        <ele>990.509</ele>
        <time>2022-12-06T12:51:13Z</time>
      </trkpt>
      <trkpt lat="36.879808" lon="-3.586064">
        <ele>990.717</ele>
        <time>2022-12-06T12:51:18Z</time>
      </trkpt>
      <trkpt lat="36.879812" lon="-3.586078">
        <ele>990.748</ele>
        <time>2022-12-06T12:51:19Z</time>
      </trkpt>
      <trkpt lat="36.879817" lon="-3.586097">
        <ele>991.086</ele>
        <time>2022-12-06T12:51:20Z</time>
      </trkpt>
      <trkpt lat="36.879835" lon="-3.586140">
        <ele>991.293</ele>
        <time>2022-12-06T12:51:22Z</time>
      </trkpt>
      <trkpt lat="36.879865" lon="-3.586173">
        <ele>991.711</ele>
        <time>2022-12-06T12:51:25Z</time>
      </trkpt>
      <trkpt lat="36.879888" lon="-3.586208">
        <ele>992.715</ele>
        <time>2022-12-06T12:51:29Z</time>
      </trkpt>
      <trkpt lat="36.879892" lon="-3.586217">
        <ele>993.076</ele>
        <time>2022-12-06T12:51:30Z</time>
      </trkpt>
      <trkpt lat="36.879935" lon="-3.586260">
        <ele>994.213</ele>
        <time>2022-12-06T12:51:35Z</time>
      </trkpt>
      <trkpt lat="36.879986" lon="-3.586289">
        <ele>995.064</ele>
        <time>2022-12-06T12:51:40Z</time>
      </trkpt>
      <trkpt lat="36.879996" lon="-3.586291">
        <ele>995.211</ele>
        <time>2022-12-06T12:51:41Z</time>
      </trkpt>
      <trkpt lat="36.880047" lon="-3.586316">
        <ele>996.021</ele>
        <time>2022-12-06T12:51:45Z</time>
      </trkpt>
      <trkpt lat="36.880073" lon="-3.586328">
        <ele>996.403</ele>
        <time>2022-12-06T12:51:47Z</time>
      </trkpt>
      <trkpt lat="36.880125" lon="-3.586352">
        <ele>997.409</ele>
        <time>2022-12-06T12:51:52Z</time>
      </trkpt>
      <trkpt lat="36.880163" lon="-3.586350">
        <ele>998.522</ele>
        <time>2022-12-06T12:51:57Z</time>
      </trkpt>
      <trkpt lat="36.880210" lon="-3.586364">
        <ele>999.543</ele>
        <time>2022-12-06T12:52:02Z</time>
      </trkpt>
      <trkpt lat="36.880263" lon="-3.586367">
        <ele>1000.771</ele>
        <time>2022-12-06T12:52:07Z</time>
      </trkpt>
      <trkpt lat="36.880288" lon="-3.586381">
        <ele>1001.528</ele>
        <time>2022-12-06T12:52:10Z</time>
      </trkpt>
      <trkpt lat="36.880299" lon="-3.586386">
        <ele>1001.796</ele>
        <time>2022-12-06T12:52:11Z</time>
      </trkpt>
      <trkpt lat="36.880307" lon="-3.586392">
        <ele>1002.060</ele>
        <time>2022-12-06T12:52:12Z</time>
      </trkpt>
      <trkpt lat="36.880316" lon="-3.586427">
        <ele>1002.741</ele>
        <time>2022-12-06T12:52:16Z</time>
      </trkpt>
      <trkpt lat="36.880311" lon="-3.586439">
        <ele>1003.268</ele>
        <time>2022-12-06T12:52:18Z</time>
      </trkpt>
      <trkpt lat="36.880298" lon="-3.586455">
        <ele>1003.749</ele>
        <time>2022-12-06T12:52:21Z</time>
      </trkpt>
      <trkpt lat="36.880293" lon="-3.586458">
        <ele>1004.077</ele>
        <time>2022-12-06T12:52:22Z</time>
      </trkpt>
      <trkpt lat="36.880279" lon="-3.586477">
        <ele>1004.461</ele>
        <time>2022-12-06T12:52:25Z</time>
      </trkpt>
      <trkpt lat="36.880239" lon="-3.586460">
        <ele>1005.027</ele>
        <time>2022-12-06T12:53:10Z</time>
      </trkpt>
      <trkpt lat="36.880227" lon="-3.586458">
        <ele>1005.209</ele>
        <time>2022-12-06T12:53:11Z</time>
      </trkpt>
      <trkpt lat="36.880174" lon="-3.586447">
        <ele>1006.028</ele>
        <time>2022-12-06T12:53:15Z</time>
      </trkpt>
      <trkpt lat="36.880159" lon="-3.586446">
        <ele>1006.039</ele>
        <time>2022-12-06T12:53:16Z</time>
      </trkpt>
      <trkpt lat="36.880091" lon="-3.586429">
        <ele>1007.297</ele>
        <time>2022-12-06T12:53:21Z</time>
      </trkpt>
      <trkpt lat="36.879989" lon="-3.586423">
        <ele>1008.244</ele>
        <time>2022-12-06T12:53:28Z</time>
      </trkpt>
      <trkpt lat="36.879904" lon="-3.586440">
        <ele>1009.292</ele>
        <time>2022-12-06T12:53:35Z</time>
      </trkpt>
      <trkpt lat="36.879865" lon="-3.586475">
        <ele>1010.476</ele>
        <time>2022-12-06T12:53:40Z</time>
      </trkpt>
      <trkpt lat="36.879813" lon="-3.586488">
        <ele>1011.567</ele>
        <time>2022-12-06T12:53:45Z</time>
      </trkpt>
      <trkpt lat="36.879801" lon="-3.586500">
        <ele>1011.794</ele>
        <time>2022-12-06T12:53:47Z</time>
      </trkpt>
      <trkpt lat="36.879770" lon="-3.586549">
        <ele>1012.545</ele>
        <time>2022-12-06T12:53:52Z</time>
      </trkpt>
      <trkpt lat="36.879751" lon="-3.586564">
        <ele>1013.081</ele>
        <time>2022-12-06T12:53:54Z</time>
      </trkpt>
      <trkpt lat="36.879693" lon="-3.586603">
        <ele>1013.761</ele>
        <time>2022-12-06T12:54:00Z</time>
      </trkpt>
      <trkpt lat="36.879631" lon="-3.586667">
        <ele>1014.717</ele>
        <time>2022-12-06T12:54:06Z</time>
      </trkpt>
      <trkpt lat="36.879611" lon="-3.586688">
        <ele>1015.209</ele>
        <time>2022-12-06T12:54:08Z</time>
      </trkpt>
      <trkpt lat="36.879550" lon="-3.586739">
        <ele>1016.029</ele>
        <time>2022-12-06T12:54:14Z</time>
      </trkpt>
      <trkpt lat="36.879542" lon="-3.586749">
        <ele>1016.290</ele>
        <time>2022-12-06T12:54:15Z</time>
      </trkpt>
      <trkpt lat="36.879497" lon="-3.586778">
        <ele>1017.288</ele>
        <time>2022-12-06T12:54:20Z</time>
      </trkpt>
      <trkpt lat="36.879432" lon="-3.586811">
        <ele>1018.245</ele>
        <time>2022-12-06T12:54:27Z</time>
      </trkpt>
      <trkpt lat="36.879382" lon="-3.586766">
        <ele>1019.213</ele>
        <time>2022-12-06T12:54:35Z</time>
      </trkpt>
      <trkpt lat="36.879361" lon="-3.586629">
        <ele>1020.087</ele>
        <time>2022-12-06T12:54:46Z</time>
      </trkpt>
      <trkpt lat="36.879371" lon="-3.586598">
        <ele>1020.418</ele>
        <time>2022-12-06T12:54:49Z</time>
      </trkpt>
      <trkpt lat="36.879323" lon="-3.586418">
        <ele>1021.465</ele>
        <time>2022-12-06T12:55:04Z</time>
      </trkpt>
      <trkpt lat="36.879197" lon="-3.586247">
        <ele>1022.286</ele>
        <time>2022-12-06T12:55:20Z</time>
      </trkpt>
      <trkpt lat="36.879116" lon="-3.586233">
        <ele>1022.486</ele>
        <time>2022-12-06T12:55:27Z</time>
      </trkpt>
      <trkpt lat="36.878941" lon="-3.586243">
        <ele>1023.560</ele>
        <time>2022-12-06T12:55:38Z</time>
      </trkpt>
      <trkpt lat="36.878765" lon="-3.586173">
        <ele>1024.526</ele>
        <time>2022-12-06T12:55:52Z</time>
      </trkpt>
      <trkpt lat="36.878755" lon="-3.586172">
        <ele>1024.509</ele>
        <time>2022-12-06T12:55:53Z</time>
      </trkpt>
      <trkpt lat="36.878654" lon="-3.586164">
        <ele>1025.599</ele>
        <time>2022-12-06T12:56:01Z</time>
      </trkpt>
      <trkpt lat="36.878565" lon="-3.586129">
        <ele>1026.540</ele>
        <time>2022-12-06T12:56:08Z</time>
      </trkpt>
      <trkpt lat="36.878515" lon="-3.586109">
        <ele>1027.868</ele>
        <time>2022-12-06T12:56:14Z</time>
      </trkpt>
      <trkpt lat="36.878479" lon="-3.586095">
        <ele>1028.875</ele>
        <time>2022-12-06T12:56:19Z</time>
      </trkpt>
      <trkpt lat="36.878473" lon="-3.586094">
        <ele>1029.013</ele>
        <time>2022-12-06T12:56:20Z</time>
      </trkpt>
      <trkpt lat="36.878440" lon="-3.586080">
        <ele>1029.597</ele>
        <time>2022-12-06T12:56:25Z</time>
      </trkpt>
      <trkpt lat="36.878414" lon="-3.586069">
        <ele>1029.858</ele>
        <time>2022-12-06T12:56:29Z</time>
      </trkpt>
      <trkpt lat="36.878363" lon="-3.586045">
        <ele>1030.845</ele>
        <time>2022-12-06T12:56:35Z</time>
      </trkpt>
      <trkpt lat="36.878359" lon="-3.586045">
        <ele>1031.046</ele>
        <time>2022-12-06T12:56:36Z</time>
      </trkpt>
      <trkpt lat="36.878298" lon="-3.586003">
        <ele>1031.874</ele>
        <time>2022-12-06T12:56:42Z</time>
      </trkpt>
      <trkpt lat="36.878283" lon="-3.585983">
        <ele>1032.056</ele>
        <time>2022-12-06T12:56:44Z</time>
      </trkpt>
      <trkpt lat="36.878259" lon="-3.585948">
        <ele>1032.421</ele>
        <time>2022-12-06T12:56:48Z</time>
      </trkpt>
      <trkpt lat="36.878255" lon="-3.585912">
        <ele>1033.009</ele>
        <time>2022-12-06T12:56:52Z</time>
      </trkpt>
      <trkpt lat="36.878257" lon="-3.585886">
        <ele>1034.188</ele>
        <time>2022-12-06T12:56:56Z</time>
      </trkpt>
      <trkpt lat="36.878258" lon="-3.585861">
        <ele>1035.149</ele>
        <time>2022-12-06T12:57:01Z</time>
      </trkpt>
      <trkpt lat="36.878294" lon="-3.585801">
        <ele>1035.147</ele>
        <time>2022-12-06T12:57:09Z</time>
      </trkpt>
      <trkpt lat="36.878296" lon="-3.585758">
        <ele>1035.874</ele>
        <time>2022-12-06T12:57:13Z</time>
      </trkpt>
      <trkpt lat="36.878301" lon="-3.585713">
        <ele>1036.132</ele>
        <time>2022-12-06T12:57:17Z</time>
      </trkpt>
      <trkpt lat="36.878356" lon="-3.585603">
        <ele>1037.196</ele>
        <time>2022-12-06T12:57:26Z</time>
      </trkpt>
      <trkpt lat="36.878357" lon="-3.585589">
        <ele>1037.417</ele>
        <time>2022-12-06T12:57:27Z</time>
      </trkpt>
      <trkpt lat="36.878354" lon="-3.585424">
        <ele>1038.444</ele>
        <time>2022-12-06T12:57:39Z</time>
      </trkpt>
      <trkpt lat="36.878406" lon="-3.585335">
        <ele>1039.455</ele>
        <time>2022-12-06T12:57:48Z</time>
      </trkpt>
      <trkpt lat="36.878474" lon="-3.585242">
        <ele>1040.565</ele>
        <time>2022-12-06T12:57:57Z</time>
      </trkpt>
      <trkpt lat="36.878501" lon="-3.585163">
        <ele>1041.568</ele>
        <time>2022-12-06T12:58:03Z</time>
      </trkpt>
      <trkpt lat="36.878519" lon="-3.585013">
        <ele>1042.514</ele>
        <time>2022-12-06T12:58:13Z</time>
      </trkpt>
      <trkpt lat="36.878496" lon="-3.584952">
        <ele>1043.409</ele>
        <time>2022-12-06T12:58:18Z</time>
      </trkpt>
      <trkpt lat="36.878471" lon="-3.584945">
        <ele>1043.847</ele>
        <time>2022-12-06T12:58:20Z</time>
      </trkpt>
      <trkpt lat="36.878457" lon="-3.584947">
        <ele>1044.058</ele>
        <time>2022-12-06T12:58:21Z</time>
      </trkpt>
      <trkpt lat="36.878431" lon="-3.584949">
        <ele>1044.426</ele>
        <time>2022-12-06T12:58:23Z</time>
      </trkpt>
      <trkpt lat="36.878409" lon="-3.584965">
        <ele>1044.863</ele>
        <time>2022-12-06T12:58:25Z</time>
      </trkpt>
      <trkpt lat="36.878362" lon="-3.585003">
        <ele>1045.871</ele>
        <time>2022-12-06T12:58:29Z</time>
      </trkpt>
      <trkpt lat="36.878269" lon="-3.585167">
        <ele>1046.845</ele>
        <time>2022-12-06T12:58:41Z</time>
      </trkpt>
      <trkpt lat="36.878173" lon="-3.585233">
        <ele>1047.826</ele>
        <time>2022-12-06T12:58:50Z</time>
      </trkpt>
      <trkpt lat="36.878107" lon="-3.585270">
        <ele>1049.013</ele>
        <time>2022-12-06T12:58:56Z</time>
      </trkpt>
      <trkpt lat="36.878086" lon="-3.585293">
        <ele>1049.134</ele>
        <time>2022-12-06T12:58:58Z</time>
      </trkpt>
      <trkpt lat="36.878058" lon="-3.585353">
        <ele>1050.044</ele>
        <time>2022-12-06T12:59:03Z</time>
      </trkpt>
      <trkpt lat="36.878051" lon="-3.585367">
        <ele>1050.105</ele>
        <time>2022-12-06T12:59:04Z</time>
      </trkpt>
      <trkpt lat="36.878029" lon="-3.585426">
        <ele>1051.115</ele>
        <time>2022-12-06T12:59:09Z</time>
      </trkpt>
      <trkpt lat="36.878012" lon="-3.585485">
        <ele>1052.109</ele>
        <time>2022-12-06T12:59:14Z</time>
      </trkpt>
      <trkpt lat="36.877998" lon="-3.585519">
        <ele>1052.415</ele>
        <time>2022-12-06T12:59:17Z</time>
      </trkpt>
      <trkpt lat="36.877921" lon="-3.585637">
        <ele>1053.476</ele>
        <time>2022-12-06T12:59:26Z</time>
      </trkpt>
      <trkpt lat="36.877851" lon="-3.585740">
        <ele>1054.444</ele>
        <time>2022-12-06T12:59:36Z</time>
      </trkpt>
      <trkpt lat="36.877800" lon="-3.585812">
        <ele>1055.431</ele>
        <time>2022-12-06T12:59:43Z</time>
      </trkpt>
      <trkpt lat="36.877771" lon="-3.585867">
        <ele>1056.529</ele>
        <time>2022-12-06T12:59:49Z</time>
      </trkpt>
      <trkpt lat="36.877751" lon="-3.585910">
        <ele>1057.553</ele>
        <time>2022-12-06T12:59:53Z</time>
      </trkpt>
      <trkpt lat="36.877719" lon="-3.585953">
        <ele>1058.434</ele>
        <time>2022-12-06T12:59:58Z</time>
      </trkpt>
      <trkpt lat="36.877714" lon="-3.585967">
        <ele>1058.531</ele>
        <time>2022-12-06T12:59:59Z</time>
      </trkpt>
      <trkpt lat="36.877695" lon="-3.586025">
        <ele>1059.842</ele>
        <time>2022-12-06T13:00:04Z</time>
      </trkpt>
      <trkpt lat="36.877678" lon="-3.586089">
        <ele>1060.864</ele>
        <time>2022-12-06T13:00:09Z</time>
      </trkpt>
      <trkpt lat="36.877664" lon="-3.586150">
        <ele>1061.506</ele>
        <time>2022-12-06T13:00:13Z</time>
      </trkpt>
      <trkpt lat="36.877659" lon="-3.586163">
        <ele>1061.816</ele>
        <time>2022-12-06T13:00:14Z</time>
      </trkpt>
      <trkpt lat="36.877646" lon="-3.586225">
        <ele>1062.409</ele>
        <time>2022-12-06T13:00:18Z</time>
      </trkpt>
      <trkpt lat="36.877645" lon="-3.586240">
        <ele>1062.477</ele>
        <time>2022-12-06T13:00:19Z</time>
      </trkpt>
      <trkpt lat="36.877646" lon="-3.586309">
        <ele>1062.838</ele>
        <time>2022-12-06T13:00:24Z</time>
      </trkpt>
      <trkpt lat="36.877652" lon="-3.586472">
        <ele>1063.416</ele>
        <time>2022-12-06T13:00:36Z</time>
      </trkpt>
      <trkpt lat="36.877653" lon="-3.586475">
        <ele>1063.453</ele>
        <time>2022-12-06T13:00:38Z</time>
      </trkpt>
      <trkpt lat="36.877674" lon="-3.586447">
        <ele>1064.091</ele>
        <time>2022-12-06T13:01:32Z</time>
      </trkpt>
      <trkpt lat="36.877650" lon="-3.586436">
        <ele>1063.575</ele>
        <time>2022-12-06T13:03:45Z</time>
      </trkpt>
      <trkpt lat="36.877623" lon="-3.586342">
        <ele>1063.596</ele>
        <time>2022-12-06T13:05:29Z</time>
      </trkpt>
      <trkpt lat="36.877610" lon="-3.586336">
        <ele>1065.183</ele>
        <time>2022-12-06T13:05:31Z</time>
      </trkpt>
      <trkpt lat="36.877602" lon="-3.586335">
        <ele>1066.434</ele>
        <time>2022-12-06T13:05:32Z</time>
      </trkpt>
      <trkpt lat="36.877587" lon="-3.586331">
        <ele>1067.493</ele>
        <time>2022-12-06T13:05:35Z</time>
      </trkpt>
      <trkpt lat="36.877537" lon="-3.586331">
        <ele>1068.565</ele>
        <time>2022-12-06T13:05:43Z</time>
      </trkpt>
      <trkpt lat="36.877509" lon="-3.586324">
        <ele>1069.121</ele>
        <time>2022-12-06T13:05:46Z</time>
      </trkpt>
      <trkpt lat="36.877489" lon="-3.586305">
        <ele>1069.509</ele>
        <time>2022-12-06T13:05:49Z</time>
      </trkpt>
      <trkpt lat="36.877485" lon="-3.586303">
        <ele>1069.560</ele>
        <time>2022-12-06T13:05:50Z</time>
      </trkpt>
      <trkpt lat="36.877479" lon="-3.586260">
        <ele>1070.871</ele>
        <time>2022-12-06T13:05:58Z</time>
      </trkpt>
      <trkpt lat="36.877478" lon="-3.586231">
        <ele>1072.049</ele>
        <time>2022-12-06T13:06:06Z</time>
      </trkpt>
      <trkpt lat="36.877463" lon="-3.586192">
        <ele>1073.036</ele>
        <time>2022-12-06T13:06:11Z</time>
      </trkpt>
      <trkpt lat="36.877458" lon="-3.586183">
        <ele>1073.154</ele>
        <time>2022-12-06T13:06:12Z</time>
      </trkpt>
      <trkpt lat="36.877421" lon="-3.586158">
        <ele>1074.028</ele>
        <time>2022-12-06T13:06:19Z</time>
      </trkpt>
      <trkpt lat="36.877396" lon="-3.586144">
        <ele>1075.039</ele>
        <time>2022-12-06T13:06:25Z</time>
      </trkpt>
      <trkpt lat="36.877369" lon="-3.586138">
        <ele>1076.026</ele>
        <time>2022-12-06T13:06:34Z</time>
      </trkpt>
      <trkpt lat="36.877334" lon="-3.586098">
        <ele>1076.537</ele>
        <time>2022-12-06T13:06:40Z</time>
      </trkpt>
      <trkpt lat="36.877324" lon="-3.586086">
        <ele>1077.016</ele>
        <time>2022-12-06T13:06:42Z</time>
      </trkpt>
      <trkpt lat="36.877303" lon="-3.586068">
        <ele>1078.176</ele>
        <time>2022-12-06T13:06:46Z</time>
      </trkpt>
      <trkpt lat="36.877297" lon="-3.586063">
        <ele>1078.413</ele>
        <time>2022-12-06T13:06:47Z</time>
      </trkpt>
      <trkpt lat="36.877280" lon="-3.586049">
        <ele>1079.009</ele>
        <time>2022-12-06T13:06:50Z</time>
      </trkpt>
      <trkpt lat="36.877275" lon="-3.586045">
        <ele>1079.132</ele>
        <time>2022-12-06T13:06:51Z</time>
      </trkpt>
      <trkpt lat="36.877252" lon="-3.586020">
        <ele>1080.463</ele>
        <time>2022-12-06T13:06:56Z</time>
      </trkpt>
      <trkpt lat="36.877249" lon="-3.586016">
        <ele>1080.531</ele>
        <time>2022-12-06T13:06:57Z</time>
      </trkpt>
      <trkpt lat="36.877227" lon="-3.585996">
        <ele>1081.518</ele>
        <time>2022-12-06T13:07:02Z</time>
      </trkpt>
      <trkpt lat="36.877214" lon="-3.585988">
        <ele>1082.546</ele>
        <time>2022-12-06T13:07:07Z</time>
      </trkpt>
      <trkpt lat="36.877172" lon="-3.585975">
        <ele>1083.880</ele>
        <time>2022-12-06T13:07:24Z</time>
      </trkpt>
      <trkpt lat="36.877123" lon="-3.585981">
        <ele>1084.841</ele>
        <time>2022-12-06T13:07:31Z</time>
      </trkpt>
      <trkpt lat="36.877083" lon="-3.586000">
        <ele>1085.418</ele>
        <time>2022-12-06T13:07:35Z</time>
      </trkpt>
      <trkpt lat="36.876909" lon="-3.586050">
        <ele>1085.589</ele>
        <time>2022-12-06T13:07:54Z</time>
      </trkpt>
      <trkpt lat="36.876868" lon="-3.586079">
        <ele>1085.538</ele>
        <time>2022-12-06T13:08:00Z</time>
      </trkpt>
      <trkpt lat="36.876836" lon="-3.586108">
        <ele>1085.470</ele>
        <time>2022-12-06T13:08:05Z</time>
      </trkpt>
      <trkpt lat="36.876797" lon="-3.586116">
        <ele>1085.017</ele>
        <time>2022-12-06T13:08:10Z</time>
      </trkpt>
      <trkpt lat="36.876777" lon="-3.586124">
        <ele>1085.109</ele>
        <time>2022-12-06T13:08:14Z</time>
      </trkpt>
      <trkpt lat="36.876764" lon="-3.586186">
        <ele>1083.844</ele>
        <time>2022-12-06T13:08:24Z</time>
      </trkpt>
      <trkpt lat="36.876780" lon="-3.586266">
        <ele>1082.545</ele>
        <time>2022-12-06T13:08:34Z</time>
      </trkpt>
      <trkpt lat="36.876769" lon="-3.586292">
        <ele>1081.553</ele>
        <time>2022-12-06T13:08:38Z</time>
      </trkpt>
      <trkpt lat="36.876654" lon="-3.586296">
        <ele>1081.450</ele>
        <time>2022-12-06T13:09:05Z</time>
      </trkpt>
      <trkpt lat="36.876446" lon="-3.586160">
        <ele>1081.878</ele>
        <time>2022-12-06T13:09:42Z</time>
      </trkpt>
      <trkpt lat="36.876419" lon="-3.586174">
        <ele>1080.552</ele>
        <time>2022-12-06T13:09:53Z</time>
      </trkpt>
      <trkpt lat="36.876334" lon="-3.586168">
        <ele>1079.453</ele>
        <time>2022-12-06T13:10:10Z</time>
      </trkpt>
      <trkpt lat="36.876257" lon="-3.586202">
        <ele>1078.550</ele>
        <time>2022-12-06T13:10:20Z</time>
      </trkpt>
      <trkpt lat="36.876237" lon="-3.586212">
        <ele>1078.481</ele>
        <time>2022-12-06T13:10:22Z</time>
      </trkpt>
      <trkpt lat="36.876215" lon="-3.586208">
        <ele>1077.884</ele>
        <time>2022-12-06T13:10:25Z</time>
      </trkpt>
      <trkpt lat="36.876165" lon="-3.586206">
        <ele>1077.107</ele>
        <time>2022-12-06T13:10:32Z</time>
      </trkpt>
      <trkpt lat="36.876095" lon="-3.586202">
        <ele>1076.017</ele>
        <time>2022-12-06T13:10:46Z</time>
      </trkpt>
      <trkpt lat="36.876074" lon="-3.586209">
        <ele>1075.009</ele>
        <time>2022-12-06T13:10:51Z</time>
      </trkpt>
      <trkpt lat="36.875925" lon="-3.586233">
        <ele>1074.019</ele>
        <time>2022-12-06T13:11:16Z</time>
      </trkpt>
      <trkpt lat="36.875851" lon="-3.586217">
        <ele>1072.820</ele>
        <time>2022-12-06T13:11:35Z</time>
      </trkpt>
      <trkpt lat="36.875836" lon="-3.586232">
        <ele>1071.528</ele>
        <time>2022-12-06T13:11:39Z</time>
      </trkpt>
      <trkpt lat="36.875823" lon="-3.586256">
        <ele>1070.565</ele>
        <time>2022-12-06T13:11:43Z</time>
      </trkpt>
      <trkpt lat="36.875820" lon="-3.586294">
        <ele>1069.543</ele>
        <time>2022-12-06T13:11:47Z</time>
      </trkpt>
      <trkpt lat="36.875819" lon="-3.586325">
        <ele>1068.437</ele>
        <time>2022-12-06T13:11:53Z</time>
      </trkpt>
      <trkpt lat="36.875800" lon="-3.586394">
        <ele>1067.488</ele>
        <time>2022-12-06T13:12:04Z</time>
      </trkpt>
      <trkpt lat="36.875788" lon="-3.586419">
        <ele>1066.165</ele>
        <time>2022-12-06T13:12:08Z</time>
      </trkpt>
      <trkpt lat="36.875800" lon="-3.586431">
        <ele>1065.036</ele>
        <time>2022-12-06T13:12:12Z</time>
      </trkpt>
      <trkpt lat="36.875906" lon="-3.586477">
        <ele>1065.046</ele>
        <time>2022-12-06T13:12:25Z</time>
      </trkpt>
      <trkpt lat="36.875923" lon="-3.586532">
        <ele>1063.888</ele>
        <time>2022-12-06T13:12:35Z</time>
      </trkpt>
      <trkpt lat="36.875899" lon="-3.586551">
        <ele>1062.816</ele>
        <time>2022-12-06T13:12:39Z</time>
      </trkpt>
      <trkpt lat="36.875885" lon="-3.586561">
        <ele>1061.809</ele>
        <time>2022-12-06T13:12:44Z</time>
      </trkpt>
      <trkpt lat="36.875817" lon="-3.586580">
        <ele>1061.415</ele>
        <time>2022-12-06T13:12:53Z</time>
      </trkpt>
      <trkpt lat="36.875771" lon="-3.586531">
        <ele>1061.096</ele>
        <time>2022-12-06T13:13:00Z</time>
      </trkpt>
      <trkpt lat="36.875747" lon="-3.586534">
        <ele>1060.514</ele>
        <time>2022-12-06T13:13:06Z</time>
      </trkpt>
      <trkpt lat="36.875681" lon="-3.586579">
        <ele>1059.591</ele>
        <time>2022-12-06T13:13:17Z</time>
      </trkpt>
      <trkpt lat="36.875643" lon="-3.586607">
        <ele>1058.489</ele>
        <time>2022-12-06T13:13:22Z</time>
      </trkpt>
      <trkpt lat="36.875608" lon="-3.586626">
        <ele>1057.413</ele>
        <time>2022-12-06T13:13:31Z</time>
      </trkpt>
      <trkpt lat="36.875519" lon="-3.586680">
        <ele>1056.494</ele>
        <time>2022-12-06T13:13:48Z</time>
      </trkpt>
      <trkpt lat="36.875520" lon="-3.586689">
        <ele>1055.491</ele>
        <time>2022-12-06T13:13:53Z</time>
      </trkpt>
      <trkpt lat="36.875535" lon="-3.586725">
        <ele>1054.122</ele>
        <time>2022-12-06T13:13:59Z</time>
      </trkpt>
      <trkpt lat="36.875587" lon="-3.586749">
        <ele>1053.025</ele>
        <time>2022-12-06T13:14:08Z</time>
      </trkpt>
      <trkpt lat="36.875598" lon="-3.586788">
        <ele>1052.026</ele>
        <time>2022-12-06T13:14:15Z</time>
      </trkpt>
      <trkpt lat="36.875617" lon="-3.586828">
        <ele>1050.808</ele>
        <time>2022-12-06T13:14:25Z</time>
      </trkpt>
      <trkpt lat="36.875622" lon="-3.586847">
        <ele>1049.509</ele>
        <time>2022-12-06T13:14:29Z</time>
      </trkpt>
      <trkpt lat="36.875624" lon="-3.586886">
        <ele>1048.463</ele>
        <time>2022-12-06T13:14:34Z</time>
      </trkpt>
      <trkpt lat="36.875614" lon="-3.586909">
        <ele>1047.124</ele>
        <time>2022-12-06T13:14:38Z</time>
      </trkpt>
      <trkpt lat="36.875597" lon="-3.586934">
        <ele>1046.062</ele>
        <time>2022-12-06T13:14:43Z</time>
      </trkpt>
      <trkpt lat="36.875579" lon="-3.586955">
        <ele>1044.879</ele>
        <time>2022-12-06T13:14:47Z</time>
      </trkpt>
      <trkpt lat="36.875599" lon="-3.586970">
        <ele>1043.897</ele>
        <time>2022-12-06T13:14:55Z</time>
      </trkpt>
      <trkpt lat="36.875613" lon="-3.587037">
        <ele>1042.491</ele>
        <time>2022-12-06T13:15:03Z</time>
      </trkpt>
      <trkpt lat="36.875611" lon="-3.587055">
        <ele>1041.482</ele>
        <time>2022-12-06T13:15:11Z</time>
      </trkpt>
      <trkpt lat="36.875615" lon="-3.587129">
        <ele>1040.139</ele>
        <time>2022-12-06T13:15:22Z</time>
      </trkpt>
      <trkpt lat="36.875567" lon="-3.587114">
        <ele>1039.110</ele>
        <time>2022-12-06T13:15:38Z</time>
      </trkpt>
      <trkpt lat="36.875560" lon="-3.587124">
        <ele>1039.042</ele>
        <time>2022-12-06T13:15:39Z</time>
      </trkpt>
      <trkpt lat="36.875545" lon="-3.587156">
        <ele>1038.122</ele>
        <time>2022-12-06T13:15:42Z</time>
      </trkpt>
      <trkpt lat="36.875541" lon="-3.587165">
        <ele>1038.014</ele>
        <time>2022-12-06T13:15:43Z</time>
      </trkpt>
      <trkpt lat="36.875538" lon="-3.587180">
        <ele>1037.509</ele>
        <time>2022-12-06T13:15:44Z</time>
      </trkpt>
      <trkpt lat="36.875531" lon="-3.587200">
        <ele>1037.125</ele>
        <time>2022-12-06T13:15:46Z</time>
      </trkpt>
      <trkpt lat="36.875526" lon="-3.587202">
        <ele>1036.836</ele>
        <time>2022-12-06T13:15:47Z</time>
      </trkpt>
      <trkpt lat="36.875498" lon="-3.587220">
        <ele>1035.514</ele>
        <time>2022-12-06T13:15:53Z</time>
      </trkpt>
      <trkpt lat="36.875463" lon="-3.587234">
        <ele>1034.551</ele>
        <time>2022-12-06T13:15:58Z</time>
      </trkpt>
      <trkpt lat="36.875434" lon="-3.587285">
        <ele>1033.419</ele>
        <time>2022-12-06T13:16:05Z</time>
      </trkpt>
      <trkpt lat="36.875417" lon="-3.587301">
        <ele>1032.173</ele>
        <time>2022-12-06T13:16:08Z</time>
      </trkpt>
      <trkpt lat="36.875379" lon="-3.587328">
        <ele>1031.134</ele>
        <time>2022-12-06T13:16:14Z</time>
      </trkpt>
      <trkpt lat="36.875380" lon="-3.587361">
        <ele>1030.061</ele>
        <time>2022-12-06T13:16:18Z</time>
      </trkpt>
      <trkpt lat="36.875379" lon="-3.587377">
        <ele>1028.892</ele>
        <time>2022-12-06T13:16:21Z</time>
      </trkpt>
      <trkpt lat="36.875364" lon="-3.587397">
        <ele>1027.817</ele>
        <time>2022-12-06T13:16:24Z</time>
      </trkpt>
      <trkpt lat="36.875362" lon="-3.587482">
        <ele>1026.587</ele>
        <time>2022-12-06T13:16:33Z</time>
      </trkpt>
      <trkpt lat="36.875351" lon="-3.587506">
        <ele>1026.415</ele>
        <time>2022-12-06T13:16:35Z</time>
      </trkpt>
      <trkpt lat="36.875326" lon="-3.587545">
        <ele>1025.409</ele>
        <time>2022-12-06T13:16:39Z</time>
      </trkpt>
      <trkpt lat="36.875324" lon="-3.587554">
        <ele>1025.092</ele>
        <time>2022-12-06T13:16:40Z</time>
      </trkpt>
      <trkpt lat="36.875329" lon="-3.587565">
        <ele>1024.083</ele>
        <time>2022-12-06T13:16:42Z</time>
      </trkpt>
      <trkpt lat="36.875347" lon="-3.587597">
        <ele>1022.731</ele>
        <time>2022-12-06T13:16:48Z</time>
      </trkpt>
      <trkpt lat="36.875363" lon="-3.587635">
        <ele>1021.798</ele>
        <time>2022-12-06T13:16:52Z</time>
      </trkpt>
      <trkpt lat="36.875373" lon="-3.587651">
        <ele>1020.786</ele>
        <time>2022-12-06T13:16:55Z</time>
      </trkpt>
      <trkpt lat="36.875369" lon="-3.587714">
        <ele>1019.570</ele>
        <time>2022-12-06T13:17:05Z</time>
      </trkpt>
      <trkpt lat="36.875372" lon="-3.587744">
        <ele>1018.421</ele>
        <time>2022-12-06T13:17:11Z</time>
      </trkpt>
      <trkpt lat="36.875356" lon="-3.587781">
        <ele>1017.288</ele>
        <time>2022-12-06T13:17:17Z</time>
      </trkpt>
      <trkpt lat="36.875371" lon="-3.587803">
        <ele>1016.229</ele>
        <time>2022-12-06T13:17:20Z</time>
      </trkpt>
      <trkpt lat="36.875403" lon="-3.587897">
        <ele>1015.489</ele>
        <time>2022-12-06T13:17:28Z</time>
      </trkpt>
      <trkpt lat="36.875405" lon="-3.587910">
        <ele>1015.206</ele>
        <time>2022-12-06T13:17:29Z</time>
      </trkpt>
      <trkpt lat="36.875410" lon="-3.587921">
        <ele>1015.026</ele>
        <time>2022-12-06T13:17:30Z</time>
      </trkpt>
      <trkpt lat="36.875423" lon="-3.587961">
        <ele>1014.009</ele>
        <time>2022-12-06T13:17:34Z</time>
      </trkpt>
      <trkpt lat="36.875424" lon="-3.587968">
        <ele>1013.759</ele>
        <time>2022-12-06T13:17:35Z</time>
      </trkpt>
      <trkpt lat="36.875431" lon="-3.587990">
        <ele>1013.090</ele>
        <time>2022-12-06T13:17:38Z</time>
      </trkpt>
      <trkpt lat="36.875447" lon="-3.588003">
        <ele>1012.488</ele>
        <time>2022-12-06T13:17:40Z</time>
      </trkpt>
      <trkpt lat="36.875461" lon="-3.588026">
        <ele>1012.295</ele>
        <time>2022-12-06T13:17:43Z</time>
      </trkpt>
      <trkpt lat="36.875461" lon="-3.588067">
        <ele>1011.763</ele>
        <time>2022-12-06T13:17:47Z</time>
      </trkpt>
      <trkpt lat="36.875457" lon="-3.588078">
        <ele>1011.557</ele>
        <time>2022-12-06T13:17:48Z</time>
      </trkpt>
      <trkpt lat="36.875455" lon="-3.588094">
        <ele>1011.458</ele>
        <time>2022-12-06T13:17:50Z</time>
      </trkpt>
      <trkpt lat="36.875466" lon="-3.588143">
        <ele>1010.735</ele>
        <time>2022-12-06T13:17:54Z</time>
      </trkpt>
      <trkpt lat="36.875474" lon="-3.588160">
        <ele>1010.486</ele>
        <time>2022-12-06T13:17:56Z</time>
      </trkpt>
      <trkpt lat="36.875487" lon="-3.588223">
        <ele>1009.748</ele>
        <time>2022-12-06T13:18:03Z</time>
      </trkpt>
      <trkpt lat="36.875512" lon="-3.588293">
        <ele>1008.561</ele>
        <time>2022-12-06T13:18:13Z</time>
      </trkpt>
      <trkpt lat="36.875519" lon="-3.588354">
        <ele>1007.417</ele>
        <time>2022-12-06T13:18:34Z</time>
      </trkpt>
      <trkpt lat="36.875488" lon="-3.588388">
        <ele>1006.209</ele>
        <time>2022-12-06T13:18:39Z</time>
      </trkpt>
      <trkpt lat="36.875491" lon="-3.588412">
        <ele>1005.755</ele>
        <time>2022-12-06T13:18:42Z</time>
      </trkpt>
      <trkpt lat="36.875505" lon="-3.588445">
        <ele>1005.056</ele>
        <time>2022-12-06T13:18:49Z</time>
      </trkpt>
      <trkpt lat="36.875455" lon="-3.588453">
        <ele>1003.734</ele>
        <time>2022-12-06T13:19:01Z</time>
      </trkpt>
      <trkpt lat="36.875441" lon="-3.588418">
        <ele>1003.561</ele>
        <time>2022-12-06T13:19:04Z</time>
      </trkpt>
      <trkpt lat="36.875359" lon="-3.588396">
        <ele>1002.749</ele>
        <time>2022-12-06T13:19:14Z</time>
      </trkpt>
      <trkpt lat="36.875323" lon="-3.588376">
        <ele>1001.793</ele>
        <time>2022-12-06T13:19:18Z</time>
      </trkpt>
      <trkpt lat="36.875315" lon="-3.588364">
        <ele>1001.534</ele>
        <time>2022-12-06T13:19:19Z</time>
      </trkpt>
      <trkpt lat="36.875298" lon="-3.588324">
        <ele>1001.061</ele>
        <time>2022-12-06T13:19:23Z</time>
      </trkpt>
      <trkpt lat="36.875223" lon="-3.588286">
        <ele>1001.062</ele>
        <time>2022-12-06T13:19:32Z</time>
      </trkpt>
      <trkpt lat="36.875203" lon="-3.588276">
        <ele>1000.542</ele>
        <time>2022-12-06T13:19:34Z</time>
      </trkpt>
      <trkpt lat="36.875189" lon="-3.588252">
        <ele>1000.422</ele>
        <time>2022-12-06T13:19:36Z</time>
      </trkpt>
      <trkpt lat="36.875175" lon="-3.588234">
        <ele>1000.214</ele>
        <time>2022-12-06T13:19:38Z</time>
      </trkpt>
      <trkpt lat="36.875158" lon="-3.588224">
        <ele>999.709</ele>
        <time>2022-12-06T13:19:41Z</time>
      </trkpt>
      <trkpt lat="36.875144" lon="-3.588220">
        <ele>999.455</ele>
        <time>2022-12-06T13:19:44Z</time>
      </trkpt>
      <trkpt lat="36.875134" lon="-3.588217">
        <ele>999.496</ele>
        <time>2022-12-06T13:19:45Z</time>
      </trkpt>
      <trkpt lat="36.875102" lon="-3.588223">
        <ele>999.094</ele>
        <time>2022-12-06T13:19:49Z</time>
      </trkpt>
      <trkpt lat="36.875093" lon="-3.588221">
        <ele>998.721</ele>
        <time>2022-12-06T13:19:50Z</time>
      </trkpt>
      <trkpt lat="36.875074" lon="-3.588224">
        <ele>998.229</ele>
        <time>2022-12-06T13:19:52Z</time>
      </trkpt>
      <trkpt lat="36.875065" lon="-3.588228">
        <ele>998.093</ele>
        <time>2022-12-06T13:19:53Z</time>
      </trkpt>
      <trkpt lat="36.875050" lon="-3.588238">
        <ele>997.454</ele>
        <time>2022-12-06T13:19:55Z</time>
      </trkpt>
      <trkpt lat="36.875041" lon="-3.588242">
        <ele>997.221</ele>
        <time>2022-12-06T13:19:56Z</time>
      </trkpt>
      <trkpt lat="36.875000" lon="-3.588243">
        <ele>996.252</ele>
        <time>2022-12-06T13:20:00Z</time>
      </trkpt>
      <trkpt lat="36.874988" lon="-3.588247">
        <ele>996.228</ele>
        <time>2022-12-06T13:20:01Z</time>
      </trkpt>
      <trkpt lat="36.874977" lon="-3.588252">
        <ele>996.089</ele>
        <time>2022-12-06T13:20:02Z</time>
      </trkpt>
      <trkpt lat="36.874959" lon="-3.588338">
        <ele>995.217</ele>
        <time>2022-12-06T13:20:08Z</time>
      </trkpt>
      <trkpt lat="36.874948" lon="-3.588384">
        <ele>994.209</ele>
        <time>2022-12-06T13:20:11Z</time>
      </trkpt>
      <trkpt lat="36.874942" lon="-3.588431">
        <ele>993.443</ele>
        <time>2022-12-06T13:20:14Z</time>
      </trkpt>
      <trkpt lat="36.874934" lon="-3.588460">
        <ele>992.794</ele>
        <time>2022-12-06T13:20:16Z</time>
      </trkpt>
      <trkpt lat="36.874919" lon="-3.588502">
        <ele>991.522</ele>
        <time>2022-12-06T13:20:19Z</time>
      </trkpt>
      <trkpt lat="36.874890" lon="-3.588578">
        <ele>990.459</ele>
        <time>2022-12-06T13:20:25Z</time>
      </trkpt>
      <trkpt lat="36.874889" lon="-3.588606">
        <ele>990.297</ele>
        <time>2022-12-06T13:20:28Z</time>
      </trkpt>
      <trkpt lat="36.874883" lon="-3.588620">
        <ele>989.461</ele>
        <time>2022-12-06T13:20:30Z</time>
      </trkpt>
      <trkpt lat="36.874883" lon="-3.588624">
        <ele>989.242</ele>
        <time>2022-12-06T13:20:31Z</time>
      </trkpt>
      <trkpt lat="36.874878" lon="-3.588683">
        <ele>988.059</ele>
        <time>2022-12-06T13:20:39Z</time>
      </trkpt>
      <trkpt lat="36.874918" lon="-3.588768">
        <ele>987.010</ele>
        <time>2022-12-06T13:20:48Z</time>
      </trkpt>
      <trkpt lat="36.874907" lon="-3.588825">
        <ele>986.448</ele>
        <time>2022-12-06T13:20:52Z</time>
      </trkpt>
      <trkpt lat="36.874895" lon="-3.588851">
        <ele>986.061</ele>
        <time>2022-12-06T13:20:54Z</time>
      </trkpt>
      <trkpt lat="36.874846" lon="-3.588886">
        <ele>985.017</ele>
        <time>2022-12-06T13:21:00Z</time>
      </trkpt>
      <trkpt lat="36.874838" lon="-3.588890">
        <ele>984.709</ele>
        <time>2022-12-06T13:21:01Z</time>
      </trkpt>
      <trkpt lat="36.874833" lon="-3.588894">
        <ele>984.445</ele>
        <time>2022-12-06T13:21:02Z</time>
      </trkpt>
      <trkpt lat="36.874809" lon="-3.588925">
        <ele>983.726</ele>
        <time>2022-12-06T13:21:06Z</time>
      </trkpt>
      <trkpt lat="36.874801" lon="-3.588934">
        <ele>983.514</ele>
        <time>2022-12-06T13:21:07Z</time>
      </trkpt>
      <trkpt lat="36.874797" lon="-3.588945">
        <ele>983.491</ele>
        <time>2022-12-06T13:21:08Z</time>
      </trkpt>
      <trkpt lat="36.874777" lon="-3.588969">
        <ele>982.529</ele>
        <time>2022-12-06T13:21:11Z</time>
      </trkpt>
      <trkpt lat="36.874757" lon="-3.589038">
        <ele>981.483</ele>
        <time>2022-12-06T13:21:22Z</time>
      </trkpt>
      <trkpt lat="36.874792" lon="-3.589056">
        <ele>980.474</ele>
        <time>2022-12-06T13:21:28Z</time>
      </trkpt>
      <trkpt lat="36.874836" lon="-3.589110">
        <ele>980.521</ele>
        <time>2022-12-06T13:21:39Z</time>
      </trkpt>
      <trkpt lat="36.874846" lon="-3.589181">
        <ele>979.462</ele>
        <time>2022-12-06T13:21:45Z</time>
      </trkpt>
      <trkpt lat="36.874850" lon="-3.589194">
        <ele>979.422</ele>
        <time>2022-12-06T13:21:46Z</time>
      </trkpt>
      <trkpt lat="36.874874" lon="-3.589229">
        <ele>978.262</ele>
        <time>2022-12-06T13:21:50Z</time>
      </trkpt>
      <trkpt lat="36.874876" lon="-3.589255">
        <ele>978.008</ele>
        <time>2022-12-06T13:21:52Z</time>
      </trkpt>
      <trkpt lat="36.874881" lon="-3.589270">
        <ele>977.709</ele>
        <time>2022-12-06T13:21:54Z</time>
      </trkpt>
      <trkpt lat="36.874881" lon="-3.589272">
        <ele>977.063</ele>
        <time>2022-12-06T13:21:57Z</time>
      </trkpt>
      <trkpt lat="36.874855" lon="-3.589248">
        <ele>977.274</ele>
        <time>2022-12-06T13:22:10Z</time>
      </trkpt>
      <trkpt lat="36.874821" lon="-3.589228">
        <ele>977.422</ele>
        <time>2022-12-06T13:22:14Z</time>
      </trkpt>
      <trkpt lat="36.874665" lon="-3.589144">
        <ele>977.529</ele>
        <time>2022-12-06T13:22:32Z</time>
      </trkpt>
      <trkpt lat="36.874646" lon="-3.589128">
        <ele>978.087</ele>
        <time>2022-12-06T13:22:35Z</time>
      </trkpt>
      <trkpt lat="36.874639" lon="-3.589130">
        <ele>978.071</ele>
        <time>2022-12-06T13:22:36Z</time>
      </trkpt>
      <trkpt lat="36.874530" lon="-3.589218">
        <ele>977.022</ele>
        <time>2022-12-06T13:22:51Z</time>
      </trkpt>
      <trkpt lat="36.874522" lon="-3.589226">
        <ele>977.039</ele>
        <time>2022-12-06T13:22:52Z</time>
      </trkpt>
      <trkpt lat="36.874498" lon="-3.589235">
        <ele>976.720</ele>
        <time>2022-12-06T13:22:55Z</time>
      </trkpt>
      <trkpt lat="36.874484" lon="-3.589230">
        <ele>976.792</ele>
        <time>2022-12-06T13:22:58Z</time>
      </trkpt>
      <trkpt lat="36.874362" lon="-3.589221">
        <ele>976.273</ele>
        <time>2022-12-06T13:23:14Z</time>
      </trkpt>
      <trkpt lat="36.874336" lon="-3.589217">
        <ele>976.020</ele>
        <time>2022-12-06T13:23:16Z</time>
      </trkpt>
      <trkpt lat="36.874266" lon="-3.589213">
        <ele>975.009</ele>
        <time>2022-12-06T13:23:23Z</time>
      </trkpt>
      <trkpt lat="36.874258" lon="-3.589204">
        <ele>975.040</ele>
        <time>2022-12-06T13:23:25Z</time>
      </trkpt>
      <trkpt lat="36.874233" lon="-3.589200">
        <ele>974.771</ele>
        <time>2022-12-06T13:23:33Z</time>
      </trkpt>
      <trkpt lat="36.874226" lon="-3.589191">
        <ele>974.719</ele>
        <time>2022-12-06T13:23:34Z</time>
      </trkpt>
      <trkpt lat="36.874211" lon="-3.589159">
        <ele>974.536</ele>
        <time>2022-12-06T13:23:37Z</time>
      </trkpt>
      <trkpt lat="36.874125" lon="-3.589085">
        <ele>974.284</ele>
        <time>2022-12-06T13:23:49Z</time>
      </trkpt>
      <trkpt lat="36.874083" lon="-3.589069">
        <ele>973.758</ele>
        <time>2022-12-06T13:23:54Z</time>
      </trkpt>
      <trkpt lat="36.874037" lon="-3.589080">
        <ele>973.249</ele>
        <time>2022-12-06T13:23:58Z</time>
      </trkpt>
      <trkpt lat="36.874008" lon="-3.589098">
        <ele>972.776</ele>
        <time>2022-12-06T13:24:01Z</time>
      </trkpt>
      <trkpt lat="36.873939" lon="-3.589138">
        <ele>972.297</ele>
        <time>2022-12-06T13:24:06Z</time>
      </trkpt>
      <trkpt lat="36.873931" lon="-3.589152">
        <ele>972.067</ele>
        <time>2022-12-06T13:24:07Z</time>
      </trkpt>
      <trkpt lat="36.873919" lon="-3.589180">
        <ele>971.581</ele>
        <time>2022-12-06T13:24:09Z</time>
      </trkpt>
      <trkpt lat="36.873893" lon="-3.589290">
        <ele>971.419</ele>
        <time>2022-12-06T13:24:17Z</time>
      </trkpt>
      <trkpt lat="36.873885" lon="-3.589309">
        <ele>971.409</ele>
        <time>2022-12-06T13:24:19Z</time>
      </trkpt>
      <trkpt lat="36.873885" lon="-3.589353">
        <ele>971.487</ele>
        <time>2022-12-06T13:24:22Z</time>
      </trkpt>
      <trkpt lat="36.873875" lon="-3.589395">
        <ele>971.528</ele>
        <time>2022-12-06T13:24:26Z</time>
      </trkpt>
      <trkpt lat="36.873846" lon="-3.589450">
        <ele>971.566</ele>
        <time>2022-12-06T13:24:30Z</time>
      </trkpt>
      <trkpt lat="36.873793" lon="-3.589493">
        <ele>971.063</ele>
        <time>2022-12-06T13:24:37Z</time>
      </trkpt>
      <trkpt lat="36.873773" lon="-3.589489">
        <ele>970.751</ele>
        <time>2022-12-06T13:24:39Z</time>
      </trkpt>
      <trkpt lat="36.873741" lon="-3.589456">
        <ele>970.585</ele>
        <time>2022-12-06T13:24:43Z</time>
      </trkpt>
      <trkpt lat="36.873710" lon="-3.589478">
        <ele>970.546</ele>
        <time>2022-12-06T13:24:47Z</time>
      </trkpt>
      <trkpt lat="36.873637" lon="-3.589547">
        <ele>969.273</ele>
        <time>2022-12-06T13:24:55Z</time>
      </trkpt>
      <trkpt lat="36.873605" lon="-3.589591">
        <ele>968.214</ele>
        <time>2022-12-06T13:24:59Z</time>
      </trkpt>
      <trkpt lat="36.873575" lon="-3.589631">
        <ele>967.418</ele>
        <time>2022-12-06T13:25:04Z</time>
      </trkpt>
      <trkpt lat="36.873563" lon="-3.589630">
        <ele>967.098</ele>
        <time>2022-12-06T13:25:07Z</time>
      </trkpt>
      <trkpt lat="36.873536" lon="-3.589641">
        <ele>966.517</ele>
        <time>2022-12-06T13:25:10Z</time>
      </trkpt>
      <trkpt lat="36.873512" lon="-3.589658">
        <ele>966.009</ele>
        <time>2022-12-06T13:25:14Z</time>
      </trkpt>
      <trkpt lat="36.873471" lon="-3.589712">
        <ele>965.212</ele>
        <time>2022-12-06T13:25:20Z</time>
      </trkpt>
      <trkpt lat="36.873474" lon="-3.589727">
        <ele>965.033</ele>
        <time>2022-12-06T13:25:21Z</time>
      </trkpt>
      <trkpt lat="36.873482" lon="-3.589760">
        <ele>964.551</ele>
        <time>2022-12-06T13:25:24Z</time>
      </trkpt>
      <trkpt lat="36.873476" lon="-3.589778">
        <ele>964.238</ele>
        <time>2022-12-06T13:25:26Z</time>
      </trkpt>
      <trkpt lat="36.873465" lon="-3.589796">
        <ele>963.746</ele>
        <time>2022-12-06T13:25:28Z</time>
      </trkpt>
      <trkpt lat="36.873457" lon="-3.589809">
        <ele>963.560</ele>
        <time>2022-12-06T13:25:30Z</time>
      </trkpt>
      <trkpt lat="36.873426" lon="-3.589827">
        <ele>962.761</ele>
        <time>2022-12-06T13:25:35Z</time>
      </trkpt>
      <trkpt lat="36.873407" lon="-3.589829">
        <ele>961.728</ele>
        <time>2022-12-06T13:25:39Z</time>
      </trkpt>
      <trkpt lat="36.873386" lon="-3.589846">
        <ele>960.559</ele>
        <time>2022-12-06T13:25:44Z</time>
      </trkpt>
      <trkpt lat="36.873350" lon="-3.589858">
        <ele>959.723</ele>
        <time>2022-12-06T13:25:52Z</time>
      </trkpt>
      <trkpt lat="36.873336" lon="-3.589855">
        <ele>959.283</ele>
        <time>2022-12-06T13:25:54Z</time>
      </trkpt>
      <trkpt lat="36.873315" lon="-3.589844">
        <ele>958.511</ele>
        <time>2022-12-06T13:25:56Z</time>
      </trkpt>
      <trkpt lat="36.873309" lon="-3.589846">
        <ele>958.009</ele>
        <time>2022-12-06T13:25:58Z</time>
      </trkpt>
      <trkpt lat="36.873359" lon="-3.589854">
        <ele>958.053</ele>
        <time>2022-12-06T13:27:28Z</time>
      </trkpt>
      <trkpt lat="36.873371" lon="-3.589855">
        <ele>958.434</ele>
        <time>2022-12-06T13:27:29Z</time>
      </trkpt>
      <trkpt lat="36.873394" lon="-3.589858">
        <ele>959.412</ele>
        <time>2022-12-06T13:27:32Z</time>
      </trkpt>
      <trkpt lat="36.873425" lon="-3.589847">
        <ele>960.419</ele>
        <time>2022-12-06T13:27:39Z</time>
      </trkpt>
      <trkpt lat="36.873445" lon="-3.589826">
        <ele>961.297</ele>
        <time>2022-12-06T13:27:43Z</time>
      </trkpt>
      <trkpt lat="36.873448" lon="-3.589820">
        <ele>961.491</ele>
        <time>2022-12-06T13:27:44Z</time>
      </trkpt>
      <trkpt lat="36.873474" lon="-3.589801">
        <ele>962.592</ele>
        <time>2022-12-06T13:27:49Z</time>
      </trkpt>
      <trkpt lat="36.873496" lon="-3.589781">
        <ele>963.579</ele>
        <time>2022-12-06T13:27:53Z</time>
      </trkpt>
      <trkpt lat="36.873531" lon="-3.589756">
        <ele>964.510</ele>
        <time>2022-12-06T13:27:58Z</time>
      </trkpt>
      <trkpt lat="36.873575" lon="-3.589732">
        <ele>965.548</ele>
        <time>2022-12-06T13:28:04Z</time>
      </trkpt>
      <trkpt lat="36.873583" lon="-3.589727">
        <ele>965.761</ele>
        <time>2022-12-06T13:28:05Z</time>
      </trkpt>
      <trkpt lat="36.873607" lon="-3.589707">
        <ele>966.417</ele>
        <time>2022-12-06T13:28:09Z</time>
      </trkpt>
      <trkpt lat="36.873630" lon="-3.589700">
        <ele>967.009</ele>
        <time>2022-12-06T13:28:13Z</time>
      </trkpt>
      <trkpt lat="36.873689" lon="-3.589661">
        <ele>968.045</ele>
        <time>2022-12-06T13:28:20Z</time>
      </trkpt>
      <trkpt lat="36.873695" lon="-3.589650">
        <ele>968.036</ele>
        <time>2022-12-06T13:28:21Z</time>
      </trkpt>
      <trkpt lat="36.873742" lon="-3.589603">
        <ele>969.044</ele>
        <time>2022-12-06T13:28:29Z</time>
      </trkpt>
      <trkpt lat="36.873766" lon="-3.589585">
        <ele>970.281</ele>
        <time>2022-12-06T13:28:34Z</time>
      </trkpt>
      <trkpt lat="36.873805" lon="-3.589577">
        <ele>971.219</ele>
        <time>2022-12-06T13:28:40Z</time>
      </trkpt>
      <trkpt lat="36.873908" lon="-3.589543">
        <ele>972.263</ele>
        <time>2022-12-06T13:28:54Z</time>
      </trkpt>
      <trkpt lat="36.873921" lon="-3.589529">
        <ele>972.284</ele>
        <time>2022-12-06T13:28:56Z</time>
      </trkpt>
      <trkpt lat="36.873965" lon="-3.589539">
        <ele>972.591</ele>
        <time>2022-12-06T13:29:01Z</time>
      </trkpt>
      <trkpt lat="36.874026" lon="-3.589521">
        <ele>973.232</ele>
        <time>2022-12-06T13:29:08Z</time>
      </trkpt>
      <trkpt lat="36.874036" lon="-3.589523">
        <ele>973.464</ele>
        <time>2022-12-06T13:29:09Z</time>
      </trkpt>
      <trkpt lat="36.874097" lon="-3.589496">
        <ele>973.706</ele>
        <time>2022-12-06T13:29:16Z</time>
      </trkpt>
      <trkpt lat="36.874188" lon="-3.589455">
        <ele>974.216</ele>
        <time>2022-12-06T13:29:25Z</time>
      </trkpt>
      <trkpt lat="36.874206" lon="-3.589424">
        <ele>974.409</ele>
        <time>2022-12-06T13:29:28Z</time>
      </trkpt>
      <trkpt lat="36.874243" lon="-3.589371">
        <ele>974.757</ele>
        <time>2022-12-06T13:29:33Z</time>
      </trkpt>
      <trkpt lat="36.874260" lon="-3.589347">
        <ele>974.758</ele>
        <time>2022-12-06T13:29:35Z</time>
      </trkpt>
      <trkpt lat="36.874292" lon="-3.589314">
        <ele>975.466</ele>
        <time>2022-12-06T13:29:39Z</time>
      </trkpt>
      <trkpt lat="36.874298" lon="-3.589310">
        <ele>975.513</ele>
        <time>2022-12-06T13:29:40Z</time>
      </trkpt>
      <trkpt lat="36.874351" lon="-3.589259">
        <ele>976.021</ele>
        <time>2022-12-06T13:29:46Z</time>
      </trkpt>
      <trkpt lat="36.874384" lon="-3.589194">
        <ele>976.435</ele>
        <time>2022-12-06T13:29:52Z</time>
      </trkpt>
      <trkpt lat="36.874405" lon="-3.589152">
        <ele>976.786</ele>
        <time>2022-12-06T13:29:56Z</time>
      </trkpt>
      <trkpt lat="36.874444" lon="-3.589108">
        <ele>977.533</ele>
        <time>2022-12-06T13:30:01Z</time>
      </trkpt>
      <trkpt lat="36.874497" lon="-3.589082">
        <ele>978.254</ele>
        <time>2022-12-06T13:30:07Z</time>
      </trkpt>
      <trkpt lat="36.874527" lon="-3.589088">
        <ele>978.593</ele>
        <time>2022-12-06T13:30:10Z</time>
      </trkpt>
      <trkpt lat="36.874661" lon="-3.589181">
        <ele>979.065</ele>
        <time>2022-12-06T13:30:27Z</time>
      </trkpt>
      <trkpt lat="36.874698" lon="-3.589215">
        <ele>978.721</ele>
        <time>2022-12-06T13:30:32Z</time>
      </trkpt>
      <trkpt lat="36.874746" lon="-3.589246">
        <ele>978.709</ele>
        <time>2022-12-06T13:30:39Z</time>
      </trkpt>
      <trkpt lat="36.874749" lon="-3.589245">
        <ele>977.440</ele>
        <time>2022-12-06T13:30:42Z</time>
      </trkpt>
      <trkpt lat="36.874771" lon="-3.589324">
        <ele>977.411</ele>
        <time>2022-12-06T13:31:39Z</time>
      </trkpt>
      <trkpt lat="36.874784" lon="-3.589346">
        <ele>977.469</ele>
        <time>2022-12-06T13:31:49Z</time>
      </trkpt>
      <trkpt lat="36.874823" lon="-3.589394">
        <ele>976.466</ele>
        <time>2022-12-06T13:32:19Z</time>
      </trkpt>
      <trkpt lat="36.874786" lon="-3.589306">
        <ele>976.524</ele>
        <time>2022-12-06T13:32:40Z</time>
      </trkpt>
      <trkpt lat="36.874761" lon="-3.589255">
        <ele>977.458</ele>
        <time>2022-12-06T13:32:45Z</time>
      </trkpt>
      <trkpt lat="36.874739" lon="-3.589187">
        <ele>978.529</ele>
        <time>2022-12-06T13:32:52Z</time>
      </trkpt>
      <trkpt lat="36.874709" lon="-3.589125">
        <ele>979.576</ele>
        <time>2022-12-06T13:33:01Z</time>
      </trkpt>
      <trkpt lat="36.874594" lon="-3.589109">
        <ele>979.287</ele>
        <time>2022-12-06T13:33:14Z</time>
      </trkpt>
      <trkpt lat="36.874544" lon="-3.589082">
        <ele>978.775</ele>
        <time>2022-12-06T13:33:19Z</time>
      </trkpt>
      <trkpt lat="36.874444" lon="-3.588983">
        <ele>978.528</ele>
        <time>2022-12-06T13:33:31Z</time>
      </trkpt>
      <trkpt lat="36.874364" lon="-3.588998">
        <ele>978.020</ele>
        <time>2022-12-06T13:33:39Z</time>
      </trkpt>
      <trkpt lat="36.874334" lon="-3.589013">
        <ele>977.509</ele>
        <time>2022-12-06T13:33:42Z</time>
      </trkpt>
      <trkpt lat="36.874228" lon="-3.589048">
        <ele>976.558</ele>
        <time>2022-12-06T13:33:53Z</time>
      </trkpt>
      <trkpt lat="36.874199" lon="-3.589021">
        <ele>976.219</ele>
        <time>2022-12-06T13:33:57Z</time>
      </trkpt>
      <trkpt lat="36.874145" lon="-3.589013">
        <ele>975.527</ele>
        <time>2022-12-06T13:34:05Z</time>
      </trkpt>
      <trkpt lat="36.874124" lon="-3.589023">
        <ele>975.444</ele>
        <time>2022-12-06T13:34:08Z</time>
      </trkpt>
      <trkpt lat="36.874113" lon="-3.589037">
        <ele>975.232</ele>
        <time>2022-12-06T13:34:10Z</time>
      </trkpt>
      <trkpt lat="36.874101" lon="-3.589030">
        <ele>975.016</ele>
        <time>2022-12-06T13:34:14Z</time>
      </trkpt>
      <trkpt lat="36.874090" lon="-3.589035">
        <ele>975.027</ele>
        <time>2022-12-06T13:34:18Z</time>
      </trkpt>
      <trkpt lat="36.874058" lon="-3.589042">
        <ele>975.024</ele>
        <time>2022-12-06T13:34:21Z</time>
      </trkpt>
      <trkpt lat="36.874035" lon="-3.589053">
        <ele>974.775</ele>
        <time>2022-12-06T13:34:24Z</time>
      </trkpt>
      <trkpt lat="36.874021" lon="-3.589065">
        <ele>974.454</ele>
        <time>2022-12-06T13:34:26Z</time>
      </trkpt>
      <trkpt lat="36.874013" lon="-3.589067">
        <ele>974.456</ele>
        <time>2022-12-06T13:34:27Z</time>
      </trkpt>
      <trkpt lat="36.873955" lon="-3.589066">
        <ele>973.411</ele>
        <time>2022-12-06T13:34:34Z</time>
      </trkpt>
      <trkpt lat="36.873942" lon="-3.588969">
        <ele>973.009</ele>
        <time>2022-12-06T13:34:42Z</time>
      </trkpt>
      <trkpt lat="36.873930" lon="-3.588910">
        <ele>974.076</ele>
        <time>2022-12-06T13:34:47Z</time>
      </trkpt>
      <trkpt lat="36.873921" lon="-3.588881">
        <ele>974.477</ele>
        <time>2022-12-06T13:34:50Z</time>
      </trkpt>
      <trkpt lat="36.873918" lon="-3.588839">
        <ele>974.745</ele>
        <time>2022-12-06T13:34:54Z</time>
      </trkpt>
      <trkpt lat="36.873910" lon="-3.588817">
        <ele>974.752</ele>
        <time>2022-12-06T13:34:56Z</time>
      </trkpt>
      <trkpt lat="36.873899" lon="-3.588738">
        <ele>974.770</ele>
        <time>2022-12-06T13:35:01Z</time>
      </trkpt>
      <trkpt lat="36.873912" lon="-3.588689">
        <ele>975.024</ele>
        <time>2022-12-06T13:35:05Z</time>
      </trkpt>
      <trkpt lat="36.873801" lon="-3.588533">
        <ele>974.475</ele>
        <time>2022-12-06T13:35:22Z</time>
      </trkpt>
      <trkpt lat="36.873796" lon="-3.588526">
        <ele>974.482</ele>
        <time>2022-12-06T13:35:23Z</time>
      </trkpt>
      <trkpt lat="36.873787" lon="-3.588505">
        <ele>974.243</ele>
        <time>2022-12-06T13:35:25Z</time>
      </trkpt>
      <trkpt lat="36.873789" lon="-3.588486">
        <ele>974.255</ele>
        <time>2022-12-06T13:35:27Z</time>
      </trkpt>
      <trkpt lat="36.873751" lon="-3.588439">
        <ele>974.207</ele>
        <time>2022-12-06T13:35:33Z</time>
      </trkpt>
      <trkpt lat="36.873725" lon="-3.588398">
        <ele>974.017</ele>
        <time>2022-12-06T13:35:36Z</time>
      </trkpt>
      <trkpt lat="36.873687" lon="-3.588353">
        <ele>973.709</ele>
        <time>2022-12-06T13:35:40Z</time>
      </trkpt>
      <trkpt lat="36.873681" lon="-3.588346">
        <ele>974.066</ele>
        <time>2022-12-06T13:35:42Z</time>
      </trkpt>
      <trkpt lat="36.873718" lon="-3.588355">
        <ele>974.247</ele>
        <time>2022-12-06T13:35:45Z</time>
      </trkpt>
      <trkpt lat="36.873820" lon="-3.588506">
        <ele>975.415</ele>
        <time>2022-12-06T13:35:57Z</time>
      </trkpt>
      <trkpt lat="36.873927" lon="-3.588553">
        <ele>976.292</ele>
        <time>2022-12-06T13:36:09Z</time>
      </trkpt>
      <trkpt lat="36.873957" lon="-3.588563">
        <ele>976.560</ele>
        <time>2022-12-06T13:36:12Z</time>
      </trkpt>
      <trkpt lat="36.874006" lon="-3.588583">
        <ele>977.034</ele>
        <time>2022-12-06T13:36:17Z</time>
      </trkpt>
      <trkpt lat="36.874035" lon="-3.588641">
        <ele>977.045</ele>
        <time>2022-12-06T13:36:22Z</time>
      </trkpt>
      <trkpt lat="36.874120" lon="-3.588735">
        <ele>977.562</ele>
        <time>2022-12-06T13:36:32Z</time>
      </trkpt>
      <trkpt lat="36.874136" lon="-3.588788">
        <ele>977.563</ele>
        <time>2022-12-06T13:36:35Z</time>
      </trkpt>
      <trkpt lat="36.874259" lon="-3.588958">
        <ele>977.724</ele>
        <time>2022-12-06T13:36:51Z</time>
      </trkpt>
      <trkpt lat="36.874357" lon="-3.589075">
        <ele>978.404</ele>
        <time>2022-12-06T13:37:05Z</time>
      </trkpt>
      <trkpt lat="36.874412" lon="-3.589176">
        <ele>978.214</ele>
        <time>2022-12-06T13:37:15Z</time>
      </trkpt>
      <trkpt lat="36.874444" lon="-3.589194">
        <ele>978.209</ele>
        <time>2022-12-06T13:37:19Z</time>
      </trkpt>
      <trkpt lat="36.874467" lon="-3.589264">
        <ele>978.543</ele>
        <time>2022-12-06T13:37:26Z</time>
      </trkpt>
      <trkpt lat="36.874450" lon="-3.589325">
        <ele>978.754</ele>
        <time>2022-12-06T13:37:30Z</time>
      </trkpt>
      <trkpt lat="36.874450" lon="-3.589344">
        <ele>978.512</ele>
        <time>2022-12-06T13:37:32Z</time>
      </trkpt>
      <trkpt lat="36.874422" lon="-3.589411">
        <ele>977.779</ele>
        <time>2022-12-06T13:37:38Z</time>
      </trkpt>
      <trkpt lat="36.874360" lon="-3.589474">
        <ele>977.587</ele>
        <time>2022-12-06T13:37:46Z</time>
      </trkpt>
      <trkpt lat="36.874361" lon="-3.589476">
        <ele>977.561</ele>
        <time>2022-12-06T13:37:47Z</time>
      </trkpt>
      <trkpt lat="36.874363" lon="-3.589482">
        <ele>977.452</ele>
        <time>2022-12-06T13:37:49Z</time>
      </trkpt>
      <trkpt lat="36.874283" lon="-3.589571">
        <ele>976.589</ele>
        <time>2022-12-06T13:38:03Z</time>
      </trkpt>
      <trkpt lat="36.874279" lon="-3.589600">
        <ele>976.240</ele>
        <time>2022-12-06T13:38:06Z</time>
      </trkpt>
      <trkpt lat="36.874307" lon="-3.589627">
        <ele>976.296</ele>
        <time>2022-12-06T13:38:09Z</time>
      </trkpt>
      <trkpt lat="36.874435" lon="-3.589673">
        <ele>976.431</ele>
        <time>2022-12-06T13:38:20Z</time>
      </trkpt>
      <trkpt lat="36.874468" lon="-3.589692">
        <ele>976.724</ele>
        <time>2022-12-06T13:38:25Z</time>
      </trkpt>
      <trkpt lat="36.874532" lon="-3.589780">
        <ele>975.509</ele>
        <time>2022-12-06T13:38:44Z</time>
      </trkpt>
      <trkpt lat="36.874560" lon="-3.589815">
        <ele>974.460</ele>
        <time>2022-12-06T13:38:50Z</time>
      </trkpt>
      <trkpt lat="36.874581" lon="-3.589825">
        <ele>973.431</ele>
        <time>2022-12-06T13:38:55Z</time>
      </trkpt>
      <trkpt lat="36.874626" lon="-3.589834">
        <ele>972.219</ele>
        <time>2022-12-06T13:39:00Z</time>
      </trkpt>
      <trkpt lat="36.874654" lon="-3.589827">
        <ele>971.036</ele>
        <time>2022-12-06T13:39:04Z</time>
      </trkpt>
      <trkpt lat="36.874676" lon="-3.589841">
        <ele>970.054</ele>
        <time>2022-12-06T13:39:07Z</time>
      </trkpt>
      <trkpt lat="36.874687" lon="-3.589863">
        <ele>968.598</ele>
        <time>2022-12-06T13:39:09Z</time>
      </trkpt>
      <trkpt lat="36.874710" lon="-3.589871">
        <ele>967.439</ele>
        <time>2022-12-06T13:39:12Z</time>
      </trkpt>
      <trkpt lat="36.874727" lon="-3.589872">
        <ele>966.716</ele>
        <time>2022-12-06T13:39:14Z</time>
      </trkpt>
      <trkpt lat="36.874744" lon="-3.589877">
        <ele>966.277</ele>
        <time>2022-12-06T13:39:17Z</time>
      </trkpt>
      <trkpt lat="36.874788" lon="-3.589898">
        <ele>965.525</ele>
        <time>2022-12-06T13:39:21Z</time>
      </trkpt>
      <trkpt lat="36.874814" lon="-3.589910">
        <ele>965.226</ele>
        <time>2022-12-06T13:39:23Z</time>
      </trkpt>
      <trkpt lat="36.874884" lon="-3.589926">
        <ele>964.008</ele>
        <time>2022-12-06T13:39:29Z</time>
      </trkpt>
      <trkpt lat="36.874890" lon="-3.589932">
        <ele>964.009</ele>
        <time>2022-12-06T13:39:30Z</time>
      </trkpt>
      <trkpt lat="36.874895" lon="-3.589938">
        <ele>963.733</ele>
        <time>2022-12-06T13:39:32Z</time>
      </trkpt>
      <trkpt lat="36.874868" lon="-3.589982">
        <ele>963.444</ele>
        <time>2022-12-06T13:39:37Z</time>
      </trkpt>
      <trkpt lat="36.874851" lon="-3.590000">
        <ele>963.032</ele>
        <time>2022-12-06T13:39:39Z</time>
      </trkpt>
      <trkpt lat="36.874829" lon="-3.590023">
        <ele>961.549</ele>
        <time>2022-12-06T13:39:42Z</time>
      </trkpt>
      <trkpt lat="36.874825" lon="-3.590046">
        <ele>960.557</ele>
        <time>2022-12-06T13:39:46Z</time>
      </trkpt>
      <trkpt lat="36.874797" lon="-3.590119">
        <ele>960.221</ele>
        <time>2022-12-06T13:39:50Z</time>
      </trkpt>
      <trkpt lat="36.874754" lon="-3.590180">
        <ele>959.492</ele>
        <time>2022-12-06T13:39:53Z</time>
      </trkpt>
      <trkpt lat="36.874704" lon="-3.590282">
        <ele>958.799</ele>
        <time>2022-12-06T13:40:00Z</time>
      </trkpt>
      <trkpt lat="36.874686" lon="-3.590287">
        <ele>958.460</ele>
        <time>2022-12-06T13:40:02Z</time>
      </trkpt>
      <trkpt lat="36.874670" lon="-3.590309">
        <ele>958.216</ele>
        <time>2022-12-06T13:40:04Z</time>
      </trkpt>
      <trkpt lat="36.874641" lon="-3.590437">
        <ele>957.076</ele>
        <time>2022-12-06T13:40:12Z</time>
      </trkpt>
      <trkpt lat="36.874620" lon="-3.590508">
        <ele>956.713</ele>
        <time>2022-12-06T13:40:17Z</time>
      </trkpt>
      <trkpt lat="36.874588" lon="-3.590689">
        <ele>956.009</ele>
        <time>2022-12-06T13:40:28Z</time>
      </trkpt>
      <trkpt lat="36.874553" lon="-3.590773">
        <ele>955.022</ele>
        <time>2022-12-06T13:40:34Z</time>
      </trkpt>
      <trkpt lat="36.874537" lon="-3.590892">
        <ele>954.293</ele>
        <time>2022-12-06T13:40:42Z</time>
      </trkpt>
      <trkpt lat="36.874554" lon="-3.590934">
        <ele>953.531</ele>
        <time>2022-12-06T13:40:45Z</time>
      </trkpt>
      <trkpt lat="36.874560" lon="-3.590981">
        <ele>952.578</ele>
        <time>2022-12-06T13:40:48Z</time>
      </trkpt>
      <trkpt lat="36.874564" lon="-3.590995">
        <ele>952.256</ele>
        <time>2022-12-06T13:40:49Z</time>
      </trkpt>
      <trkpt lat="36.874576" lon="-3.591030">
        <ele>951.460</ele>
        <time>2022-12-06T13:40:52Z</time>
      </trkpt>
      <trkpt lat="36.874575" lon="-3.591042">
        <ele>951.091</ele>
        <time>2022-12-06T13:40:53Z</time>
      </trkpt>
      <trkpt lat="36.874575" lon="-3.591059">
        <ele>950.468</ele>
        <time>2022-12-06T13:40:55Z</time>
      </trkpt>
      <trkpt lat="36.874585" lon="-3.591066">
        <ele>950.469</ele>
        <time>2022-12-06T13:40:56Z</time>
      </trkpt>
      <trkpt lat="36.874601" lon="-3.591079">
        <ele>950.228</ele>
        <time>2022-12-06T13:40:58Z</time>
      </trkpt>
      <trkpt lat="36.874611" lon="-3.591134">
        <ele>950.089</ele>
        <time>2022-12-06T13:41:03Z</time>
      </trkpt>
      <trkpt lat="36.874632" lon="-3.591171">
        <ele>949.017</ele>
        <time>2022-12-06T13:41:10Z</time>
      </trkpt>
      <trkpt lat="36.874666" lon="-3.591205">
        <ele>947.709</ele>
        <time>2022-12-06T13:41:15Z</time>
      </trkpt>
      <trkpt lat="36.874694" lon="-3.591244">
        <ele>946.593</ele>
        <time>2022-12-06T13:41:19Z</time>
      </trkpt>
      <trkpt lat="36.874711" lon="-3.591270">
        <ele>945.454</ele>
        <time>2022-12-06T13:41:22Z</time>
      </trkpt>
      <trkpt lat="36.874718" lon="-3.591288">
        <ele>945.072</ele>
        <time>2022-12-06T13:41:24Z</time>
      </trkpt>
      <trkpt lat="36.874722" lon="-3.591316">
        <ele>944.499</ele>
        <time>2022-12-06T13:41:27Z</time>
      </trkpt>
      <trkpt lat="36.874723" lon="-3.591324">
        <ele>944.087</ele>
        <time>2022-12-06T13:41:28Z</time>
      </trkpt>
      <trkpt lat="36.874722" lon="-3.591341">
        <ele>943.261</ele>
        <time>2022-12-06T13:41:30Z</time>
      </trkpt>
      <trkpt lat="36.874705" lon="-3.591354">
        <ele>942.062</ele>
        <time>2022-12-06T13:41:33Z</time>
      </trkpt>
      <trkpt lat="36.874687" lon="-3.591338">
        <ele>941.019</ele>
        <time>2022-12-06T13:41:47Z</time>
      </trkpt>
      <trkpt lat="36.874644" lon="-3.591310">
        <ele>941.470</ele>
        <time>2022-12-06T13:42:03Z</time>
      </trkpt>
      <trkpt lat="36.874604" lon="-3.591236">
        <ele>940.045</ele>
        <time>2022-12-06T13:42:33Z</time>
      </trkpt>
      <trkpt lat="36.874642" lon="-3.591232">
        <ele>940.247</ele>
        <time>2022-12-06T13:42:52Z</time>
      </trkpt>
      <trkpt lat="36.874655" lon="-3.591255">
        <ele>940.511</ele>
        <time>2022-12-06T13:42:55Z</time>
      </trkpt>
      <trkpt lat="36.874663" lon="-3.591271">
        <ele>941.009</ele>
        <time>2022-12-06T13:42:57Z</time>
      </trkpt>
      <trkpt lat="36.874668" lon="-3.591279">
        <ele>941.025</ele>
        <time>2022-12-06T13:42:58Z</time>
      </trkpt>
      <trkpt lat="36.874662" lon="-3.591322">
        <ele>940.536</ele>
        <time>2022-12-06T13:43:02Z</time>
      </trkpt>
      <trkpt lat="36.874661" lon="-3.591325">
        <ele>940.484</ele>
        <time>2022-12-06T13:43:04Z</time>
      </trkpt>
      <trkpt lat="36.874653" lon="-3.591340">
        <ele>940.291</ele>
        <time>2022-12-06T13:43:07Z</time>
      </trkpt>
      <trkpt lat="36.874664" lon="-3.591351">
        <ele>939.789</ele>
        <time>2022-12-06T13:43:11Z</time>
      </trkpt>
      <trkpt lat="36.874702" lon="-3.591349">
        <ele>940.493</ele>
        <time>2022-12-06T13:43:17Z</time>
      </trkpt>
      <trkpt lat="36.874703" lon="-3.591374">
        <ele>940.754</ele>
        <time>2022-12-06T13:43:21Z</time>
      </trkpt>
      <trkpt lat="36.874678" lon="-3.591397">
        <ele>939.521</ele>
        <time>2022-12-06T13:43:29Z</time>
      </trkpt>
      <trkpt lat="36.874647" lon="-3.591371">
        <ele>938.522</ele>
        <time>2022-12-06T13:43:34Z</time>
      </trkpt>
      <trkpt lat="36.874621" lon="-3.591363">
        <ele>937.534</ele>
        <time>2022-12-06T13:43:39Z</time>
      </trkpt>
      <trkpt lat="36.874602" lon="-3.591354">
        <ele>936.555</ele>
        <time>2022-12-06T13:43:45Z</time>
      </trkpt>
      <trkpt lat="36.874575" lon="-3.591341">
        <ele>935.410</ele>
        <time>2022-12-06T13:43:50Z</time>
      </trkpt>
      <trkpt lat="36.874559" lon="-3.591328">
        <ele>934.209</ele>
        <time>2022-12-06T13:43:55Z</time>
      </trkpt>
      <trkpt lat="36.874586" lon="-3.591349">
        <ele>933.044</ele>
        <time>2022-12-06T13:44:00Z</time>
      </trkpt>
      <trkpt lat="36.874599" lon="-3.591369">
        <ele>932.595</ele>
        <time>2022-12-06T13:44:03Z</time>
      </trkpt>
      <trkpt lat="36.874611" lon="-3.591378">
        <ele>932.273</ele>
        <time>2022-12-06T13:44:05Z</time>
      </trkpt>
      <trkpt lat="36.874616" lon="-3.591394">
        <ele>932.050</ele>
        <time>2022-12-06T13:44:06Z</time>
      </trkpt>
      <trkpt lat="36.874620" lon="-3.591420">
        <ele>931.568</ele>
        <time>2022-12-06T13:44:08Z</time>
      </trkpt>
      <trkpt lat="36.874619" lon="-3.591439">
        <ele>931.212</ele>
        <time>2022-12-06T13:44:10Z</time>
      </trkpt>
      <trkpt lat="36.874616" lon="-3.591449">
        <ele>930.773</ele>
        <time>2022-12-06T13:44:11Z</time>
      </trkpt>
      <trkpt lat="36.874603" lon="-3.591489">
        <ele>930.450</ele>
        <time>2022-12-06T13:44:14Z</time>
      </trkpt>
      <trkpt lat="36.874597" lon="-3.591508">
        <ele>930.081</ele>
        <time>2022-12-06T13:44:16Z</time>
      </trkpt>
      <trkpt lat="36.874599" lon="-3.591515">
        <ele>929.537</ele>
        <time>2022-12-06T13:44:17Z</time>
      </trkpt>
      <trkpt lat="36.874601" lon="-3.591523">
        <ele>929.249</ele>
        <time>2022-12-06T13:44:18Z</time>
      </trkpt>
      <trkpt lat="36.874619" lon="-3.591538">
        <ele>928.513</ele>
        <time>2022-12-06T13:44:20Z</time>
      </trkpt>
      <trkpt lat="36.874638" lon="-3.591549">
        <ele>927.409</ele>
        <time>2022-12-06T13:44:23Z</time>
      </trkpt>
      <trkpt lat="36.874644" lon="-3.591564">
        <ele>926.734</ele>
        <time>2022-12-06T13:44:25Z</time>
      </trkpt>
      <trkpt lat="36.874641" lon="-3.591584">
        <ele>926.415</ele>
        <time>2022-12-06T13:44:27Z</time>
      </trkpt>
      <trkpt lat="36.874647" lon="-3.591598">
        <ele>925.783</ele>
        <time>2022-12-06T13:44:29Z</time>
      </trkpt>
      <trkpt lat="36.874660" lon="-3.591593">
        <ele>925.210</ele>
        <time>2022-12-06T13:44:32Z</time>
      </trkpt>
      <trkpt lat="36.874731" lon="-3.591584">
        <ele>924.718</ele>
        <time>2022-12-06T13:44:41Z</time>
      </trkpt>
      <trkpt lat="36.874731" lon="-3.591606">
        <ele>924.282</ele>
        <time>2022-12-06T13:44:44Z</time>
      </trkpt>
      <trkpt lat="36.874729" lon="-3.591618">
        <ele>924.083</ele>
        <time>2022-12-06T13:44:45Z</time>
      </trkpt>
      <trkpt lat="36.874712" lon="-3.591644">
        <ele>923.020</ele>
        <time>2022-12-06T13:44:48Z</time>
      </trkpt>
      <trkpt lat="36.874699" lon="-3.591653">
        <ele>922.521</ele>
        <time>2022-12-06T13:44:49Z</time>
      </trkpt>
      <trkpt lat="36.874658" lon="-3.591682">
        <ele>921.744</ele>
        <time>2022-12-06T13:44:52Z</time>
      </trkpt>
      <trkpt lat="36.874601" lon="-3.591697">
        <ele>921.405</ele>
        <time>2022-12-06T13:44:57Z</time>
      </trkpt>
      <trkpt lat="36.874582" lon="-3.591697">
        <ele>921.015</ele>
        <time>2022-12-06T13:45:00Z</time>
      </trkpt>
      <trkpt lat="36.874556" lon="-3.591706">
        <ele>921.009</ele>
        <time>2022-12-06T13:45:02Z</time>
      </trkpt>
      <trkpt lat="36.874527" lon="-3.591706">
        <ele>920.715</ele>
        <time>2022-12-06T13:45:04Z</time>
      </trkpt>
      <trkpt lat="36.874485" lon="-3.591720">
        <ele>920.056</ele>
        <time>2022-12-06T13:45:07Z</time>
      </trkpt>
      <trkpt lat="36.874473" lon="-3.591711">
        <ele>919.564</ele>
        <time>2022-12-06T13:45:08Z</time>
      </trkpt>
      <trkpt lat="36.874464" lon="-3.591702">
        <ele>919.041</ele>
        <time>2022-12-06T13:45:10Z</time>
      </trkpt>
      <trkpt lat="36.874449" lon="-3.591711">
        <ele>918.549</ele>
        <time>2022-12-06T13:45:12Z</time>
      </trkpt>
      <trkpt lat="36.874437" lon="-3.591714">
        <ele>918.513</ele>
        <time>2022-12-06T13:45:13Z</time>
      </trkpt>
      <trkpt lat="36.874296" lon="-3.591725">
        <ele>917.424</ele>
        <time>2022-12-06T13:45:20Z</time>
      </trkpt>
      <trkpt lat="36.874227" lon="-3.591765">
        <ele>916.421</ele>
        <time>2022-12-06T13:45:23Z</time>
      </trkpt>
      <trkpt lat="36.874206" lon="-3.591781">
        <ele>916.062</ele>
        <time>2022-12-06T13:45:24Z</time>
      </trkpt>
      <trkpt lat="36.874124" lon="-3.591868">
        <ele>915.441</ele>
        <time>2022-12-06T13:45:28Z</time>
      </trkpt>
      <trkpt lat="36.874043" lon="-3.591918">
        <ele>914.281</ele>
        <time>2022-12-06T13:45:32Z</time>
      </trkpt>
      <trkpt lat="36.873886" lon="-3.591957">
        <ele>913.509</ele>
        <time>2022-12-06T13:45:40Z</time>
      </trkpt>
      <trkpt lat="36.873828" lon="-3.591993">
        <ele>913.009</ele>
        <time>2022-12-06T13:45:43Z</time>
      </trkpt>
      <trkpt lat="36.873812" lon="-3.592003">
        <ele>912.755</ele>
        <time>2022-12-06T13:45:44Z</time>
      </trkpt>
      <trkpt lat="36.873794" lon="-3.592069">
        <ele>911.726</ele>
        <time>2022-12-06T13:45:47Z</time>
      </trkpt>
      <trkpt lat="36.873687" lon="-3.592123">
        <ele>911.424</ele>
        <time>2022-12-06T13:45:53Z</time>
      </trkpt>
      <trkpt lat="36.873657" lon="-3.592183">
        <ele>910.571</ele>
        <time>2022-12-06T13:45:58Z</time>
      </trkpt>
      <trkpt lat="36.873634" lon="-3.592220">
        <ele>910.249</ele>
        <time>2022-12-06T13:46:01Z</time>
      </trkpt>
      <trkpt lat="36.873626" lon="-3.592258">
        <ele>909.413</ele>
        <time>2022-12-06T13:46:04Z</time>
      </trkpt>
      <trkpt lat="36.873625" lon="-3.592265">
        <ele>909.214</ele>
        <time>2022-12-06T13:46:05Z</time>
      </trkpt>
      <trkpt lat="36.873632" lon="-3.592302">
        <ele>908.581</ele>
        <time>2022-12-06T13:46:08Z</time>
      </trkpt>
      <trkpt lat="36.873630" lon="-3.592333">
        <ele>908.452</ele>
        <time>2022-12-06T13:46:10Z</time>
      </trkpt>
      <trkpt lat="36.873622" lon="-3.592355">
        <ele>908.032</ele>
        <time>2022-12-06T13:46:12Z</time>
      </trkpt>
      <trkpt lat="36.873580" lon="-3.592368">
        <ele>907.292</ele>
        <time>2022-12-06T13:46:16Z</time>
      </trkpt>
      <trkpt lat="36.873526" lon="-3.592379">
        <ele>906.211</ele>
        <time>2022-12-06T13:46:20Z</time>
      </trkpt>
      <trkpt lat="36.873493" lon="-3.592400">
        <ele>905.209</ele>
        <time>2022-12-06T13:46:23Z</time>
      </trkpt>
      <trkpt lat="36.873449" lon="-3.592431">
        <ele>904.084</ele>
        <time>2022-12-06T13:46:27Z</time>
      </trkpt>
      <trkpt lat="36.873419" lon="-3.592453">
        <ele>903.465</ele>
        <time>2022-12-06T13:46:30Z</time>
      </trkpt>
      <trkpt lat="36.873399" lon="-3.592471">
        <ele>902.743</ele>
        <time>2022-12-06T13:46:32Z</time>
      </trkpt>
      <trkpt lat="36.873377" lon="-3.592488">
        <ele>902.280</ele>
        <time>2022-12-06T13:46:34Z</time>
      </trkpt>
      <trkpt lat="36.873346" lon="-3.592502">
        <ele>901.768</ele>
        <time>2022-12-06T13:46:36Z</time>
      </trkpt>
      <trkpt lat="36.873301" lon="-3.592544">
        <ele>900.532</ele>
        <time>2022-12-06T13:46:39Z</time>
      </trkpt>
      <trkpt lat="36.873292" lon="-3.592555">
        <ele>900.433</ele>
        <time>2022-12-06T13:46:40Z</time>
      </trkpt>
      <trkpt lat="36.873256" lon="-3.592583">
        <ele>899.580</ele>
        <time>2022-12-06T13:46:43Z</time>
      </trkpt>
      <trkpt lat="36.873197" lon="-3.592652">
        <ele>898.251</ele>
        <time>2022-12-06T13:46:48Z</time>
      </trkpt>
      <trkpt lat="36.873188" lon="-3.592659">
        <ele>897.727</ele>
        <time>2022-12-06T13:46:49Z</time>
      </trkpt>
      <trkpt lat="36.873163" lon="-3.592679">
        <ele>897.268</ele>
        <time>2022-12-06T13:46:51Z</time>
      </trkpt>
      <trkpt lat="36.873127" lon="-3.592725">
        <ele>896.414</ele>
        <time>2022-12-06T13:46:55Z</time>
      </trkpt>
      <trkpt lat="36.873117" lon="-3.592733">
        <ele>896.009</ele>
        <time>2022-12-06T13:46:56Z</time>
      </trkpt>
      <trkpt lat="36.873096" lon="-3.592741">
        <ele>894.743</ele>
        <time>2022-12-06T13:46:58Z</time>
      </trkpt>
      <trkpt lat="36.873044" lon="-3.592741">
        <ele>893.564</ele>
        <time>2022-12-06T13:47:02Z</time>
      </trkpt>
      <trkpt lat="36.873021" lon="-3.592772">
        <ele>892.512</ele>
        <time>2022-12-06T13:47:05Z</time>
      </trkpt>
      <trkpt lat="36.873007" lon="-3.592781">
        <ele>892.269</ele>
        <time>2022-12-06T13:47:07Z</time>
      </trkpt>
      <trkpt lat="36.872938" lon="-3.592750">
        <ele>891.437</ele>
        <time>2022-12-06T13:47:13Z</time>
      </trkpt>
      <trkpt lat="36.872907" lon="-3.592753">
        <ele>891.091</ele>
        <time>2022-12-06T13:47:15Z</time>
      </trkpt>
      <trkpt lat="36.872873" lon="-3.592774">
        <ele>890.492</ele>
        <time>2022-12-06T13:47:17Z</time>
      </trkpt>
      <trkpt lat="36.872749" lon="-3.592819">
        <ele>889.539</ele>
        <time>2022-12-06T13:47:24Z</time>
      </trkpt>
      <trkpt lat="36.872706" lon="-3.592844">
        <ele>889.280</ele>
        <time>2022-12-06T13:47:27Z</time>
      </trkpt>
      <trkpt lat="36.872692" lon="-3.592860">
        <ele>888.722</ele>
        <time>2022-12-06T13:47:29Z</time>
      </trkpt>
      <trkpt lat="36.872654" lon="-3.592846">
        <ele>888.262</ele>
        <time>2022-12-06T13:47:32Z</time>
      </trkpt>
      <trkpt lat="36.872639" lon="-3.592836">
        <ele>887.708</ele>
        <time>2022-12-06T13:47:34Z</time>
      </trkpt>
      <trkpt lat="36.872619" lon="-3.592822">
        <ele>887.209</ele>
        <time>2022-12-06T13:47:38Z</time>
      </trkpt>
      <trkpt lat="36.872603" lon="-3.592808">
        <ele>887.043</ele>
        <time>2022-12-06T13:47:40Z</time>
      </trkpt>
      <trkpt lat="36.872593" lon="-3.592793">
        <ele>886.524</ele>
        <time>2022-12-06T13:47:42Z</time>
      </trkpt>
      <trkpt lat="36.872576" lon="-3.592772">
        <ele>885.712</ele>
        <time>2022-12-06T13:47:44Z</time>
      </trkpt>
      <trkpt lat="36.872570" lon="-3.592765">
        <ele>885.579</ele>
        <time>2022-12-06T13:47:45Z</time>
      </trkpt>
      <trkpt lat="36.872541" lon="-3.592798">
        <ele>884.747</ele>
        <time>2022-12-06T13:47:48Z</time>
      </trkpt>
      <trkpt lat="36.872517" lon="-3.592817">
        <ele>883.721</ele>
        <time>2022-12-06T13:47:50Z</time>
      </trkpt>
      <trkpt lat="36.872502" lon="-3.592811">
        <ele>883.442</ele>
        <time>2022-12-06T13:47:51Z</time>
      </trkpt>
      <trkpt lat="36.872480" lon="-3.592779">
        <ele>882.439</ele>
        <time>2022-12-06T13:47:53Z</time>
      </trkpt>
      <trkpt lat="36.872472" lon="-3.592770">
        <ele>881.750</ele>
        <time>2022-12-06T13:47:54Z</time>
      </trkpt>
      <trkpt lat="36.872456" lon="-3.592783">
        <ele>881.091</ele>
        <time>2022-12-06T13:47:56Z</time>
      </trkpt>
      <trkpt lat="36.872441" lon="-3.592806">
        <ele>880.781</ele>
        <time>2022-12-06T13:47:58Z</time>
      </trkpt>
      <trkpt lat="36.872419" lon="-3.592837">
        <ele>880.419</ele>
        <time>2022-12-06T13:48:00Z</time>
      </trkpt>
      <trkpt lat="36.872409" lon="-3.592843">
        <ele>879.709</ele>
        <time>2022-12-06T13:48:01Z</time>
      </trkpt>
      <trkpt lat="36.872401" lon="-3.592842">
        <ele>879.450</ele>
        <time>2022-12-06T13:48:02Z</time>
      </trkpt>
      <trkpt lat="36.872386" lon="-3.592818">
        <ele>878.461</ele>
        <time>2022-12-06T13:48:04Z</time>
      </trkpt>
      <trkpt lat="36.872380" lon="-3.592799">
        <ele>878.079</ele>
        <time>2022-12-06T13:48:05Z</time>
      </trkpt>
      <trkpt lat="36.872360" lon="-3.592756">
        <ele>877.426</ele>
        <time>2022-12-06T13:48:07Z</time>
      </trkpt>
      <trkpt lat="36.872341" lon="-3.592665">
        <ele>876.264</ele>
        <time>2022-12-06T13:48:11Z</time>
      </trkpt>
      <trkpt lat="36.872333" lon="-3.592654">
        <ele>875.798</ele>
        <time>2022-12-06T13:48:12Z</time>
      </trkpt>
      <trkpt lat="36.872321" lon="-3.592655">
        <ele>875.039</ele>
        <time>2022-12-06T13:48:13Z</time>
      </trkpt>
      <trkpt lat="36.872276" lon="-3.592699">
        <ele>873.726</ele>
        <time>2022-12-06T13:48:16Z</time>
      </trkpt>
      <trkpt lat="36.872245" lon="-3.592721">
        <ele>872.777</ele>
        <time>2022-12-06T13:48:19Z</time>
      </trkpt>
      <trkpt lat="36.872230" lon="-3.592694">
        <ele>871.485</ele>
        <time>2022-12-06T13:48:21Z</time>
      </trkpt>
      <trkpt lat="36.872199" lon="-3.592624">
        <ele>870.489</ele>
        <time>2022-12-06T13:48:24Z</time>
      </trkpt>
      <trkpt lat="36.872151" lon="-3.592574">
        <ele>868.717</ele>
        <time>2022-12-06T13:48:27Z</time>
      </trkpt>
      <trkpt lat="36.872124" lon="-3.592567">
        <ele>867.709</ele>
        <time>2022-12-06T13:48:29Z</time>
      </trkpt>
      <trkpt lat="36.872106" lon="-3.592566">
        <ele>866.719</ele>
        <time>2022-12-06T13:48:31Z</time>
      </trkpt>
      <trkpt lat="36.872092" lon="-3.592573">
        <ele>865.570</ele>
        <time>2022-12-06T13:48:34Z</time>
      </trkpt>
      <trkpt lat="36.872050" lon="-3.592631">
        <ele>865.288</ele>
        <time>2022-12-06T13:48:40Z</time>
      </trkpt>
      <trkpt lat="36.872012" lon="-3.592678">
        <ele>864.765</ele>
        <time>2022-12-06T13:48:43Z</time>
      </trkpt>
      <trkpt lat="36.872004" lon="-3.592699">
        <ele>864.523</ele>
        <time>2022-12-06T13:48:44Z</time>
      </trkpt>
      <trkpt lat="36.871954" lon="-3.592757">
        <ele>863.447</ele>
        <time>2022-12-06T13:48:48Z</time>
      </trkpt>
      <trkpt lat="36.871894" lon="-3.592842">
        <ele>862.418</ele>
        <time>2022-12-06T13:48:53Z</time>
      </trkpt>
      <trkpt lat="36.871854" lon="-3.592912">
        <ele>861.435</ele>
        <time>2022-12-06T13:48:57Z</time>
      </trkpt>
      <trkpt lat="36.871841" lon="-3.592914">
        <ele>859.746</ele>
        <time>2022-12-06T13:49:00Z</time>
      </trkpt>
      <trkpt lat="36.871817" lon="-3.592898">
        <ele>858.763</ele>
        <time>2022-12-06T13:49:03Z</time>
      </trkpt>
      <trkpt lat="36.871795" lon="-3.592832">
        <ele>857.744</ele>
        <time>2022-12-06T13:49:07Z</time>
      </trkpt>
      <trkpt lat="36.871782" lon="-3.592810">
        <ele>857.518</ele>
        <time>2022-12-06T13:49:09Z</time>
      </trkpt>
      <trkpt lat="36.871763" lon="-3.592804">
        <ele>857.009</ele>
        <time>2022-12-06T13:49:11Z</time>
      </trkpt>
      <trkpt lat="36.871740" lon="-3.592815">
        <ele>856.457</ele>
        <time>2022-12-06T13:49:13Z</time>
      </trkpt>
      <trkpt lat="36.871713" lon="-3.592858">
        <ele>855.298</ele>
        <time>2022-12-06T13:49:16Z</time>
      </trkpt>
      <trkpt lat="36.871667" lon="-3.592882">
        <ele>853.766</ele>
        <time>2022-12-06T13:49:19Z</time>
      </trkpt>
      <trkpt lat="36.871627" lon="-3.592885">
        <ele>852.593</ele>
        <time>2022-12-06T13:49:22Z</time>
      </trkpt>
      <trkpt lat="36.871616" lon="-3.592890">
        <ele>852.031</ele>
        <time>2022-12-06T13:49:23Z</time>
      </trkpt>
      <trkpt lat="36.871608" lon="-3.592900">
        <ele>851.495</ele>
        <time>2022-12-06T13:49:24Z</time>
      </trkpt>
      <trkpt lat="36.871596" lon="-3.592909">
        <ele>850.446</ele>
        <time>2022-12-06T13:49:26Z</time>
      </trkpt>
      <trkpt lat="36.871591" lon="-3.592913">
        <ele>850.283</ele>
        <time>2022-12-06T13:49:27Z</time>
      </trkpt>
      <trkpt lat="36.871575" lon="-3.592940">
        <ele>849.744</ele>
        <time>2022-12-06T13:49:30Z</time>
      </trkpt>
      <trkpt lat="36.871561" lon="-3.592965">
        <ele>849.491</ele>
        <time>2022-12-06T13:49:33Z</time>
      </trkpt>
      <trkpt lat="36.871547" lon="-3.592963">
        <ele>849.081</ele>
        <time>2022-12-06T13:49:35Z</time>
      </trkpt>
      <trkpt lat="36.871504" lon="-3.592954">
        <ele>847.719</ele>
        <time>2022-12-06T13:49:38Z</time>
      </trkpt>
      <trkpt lat="36.871470" lon="-3.592948">
        <ele>846.709</ele>
        <time>2022-12-06T13:49:40Z</time>
      </trkpt>
      <trkpt lat="36.871440" lon="-3.592936">
        <ele>845.750</ele>
        <time>2022-12-06T13:49:42Z</time>
      </trkpt>
      <trkpt lat="36.871429" lon="-3.592930">
        <ele>845.431</ele>
        <time>2022-12-06T13:49:43Z</time>
      </trkpt>
      <trkpt lat="36.871394" lon="-3.592945">
        <ele>844.529</ele>
        <time>2022-12-06T13:49:45Z</time>
      </trkpt>
      <trkpt lat="36.871343" lon="-3.592962">
        <ele>843.226</ele>
        <time>2022-12-06T13:49:48Z</time>
      </trkpt>
      <trkpt lat="36.871298" lon="-3.592974">
        <ele>842.224</ele>
        <time>2022-12-06T13:49:51Z</time>
      </trkpt>
      <trkpt lat="36.871266" lon="-3.592988">
        <ele>841.228</ele>
        <time>2022-12-06T13:49:53Z</time>
      </trkpt>
      <trkpt lat="36.871231" lon="-3.592999">
        <ele>840.049</ele>
        <time>2022-12-06T13:49:55Z</time>
      </trkpt>
      <trkpt lat="36.871179" lon="-3.593016">
        <ele>838.786</ele>
        <time>2022-12-06T13:49:58Z</time>
      </trkpt>
      <trkpt lat="36.871120" lon="-3.593007">
        <ele>837.527</ele>
        <time>2022-12-06T13:50:01Z</time>
      </trkpt>
      <trkpt lat="36.871103" lon="-3.593013">
        <ele>837.041</ele>
        <time>2022-12-06T13:50:02Z</time>
      </trkpt>
      <trkpt lat="36.871065" lon="-3.593027">
        <ele>836.081</ele>
        <time>2022-12-06T13:50:04Z</time>
      </trkpt>
      <trkpt lat="36.871042" lon="-3.593028">
        <ele>835.209</ele>
        <time>2022-12-06T13:50:06Z</time>
      </trkpt>
      <trkpt lat="36.871034" lon="-3.593029">
        <ele>835.009</ele>
        <time>2022-12-06T13:50:07Z</time>
      </trkpt>
      <trkpt lat="36.871022" lon="-3.593025">
        <ele>834.735</ele>
        <time>2022-12-06T13:50:08Z</time>
      </trkpt>
      <trkpt lat="36.871003" lon="-3.592996">
        <ele>834.066</ele>
        <time>2022-12-06T13:50:11Z</time>
      </trkpt>
      <trkpt lat="36.870994" lon="-3.592989">
        <ele>833.734</ele>
        <time>2022-12-06T13:50:12Z</time>
      </trkpt>
      <trkpt lat="36.870985" lon="-3.592982">
        <ele>833.461</ele>
        <time>2022-12-06T13:50:13Z</time>
      </trkpt>
      <trkpt lat="36.870955" lon="-3.592967">
        <ele>832.749</ele>
        <time>2022-12-06T13:50:15Z</time>
      </trkpt>
      <trkpt lat="36.870872" lon="-3.592958">
        <ele>831.733</ele>
        <time>2022-12-06T13:50:19Z</time>
      </trkpt>
      <trkpt lat="36.870847" lon="-3.592963">
        <ele>831.494</ele>
        <time>2022-12-06T13:50:20Z</time>
      </trkpt>
      <trkpt lat="36.870785" lon="-3.593006">
        <ele>830.451</ele>
        <time>2022-12-06T13:50:23Z</time>
      </trkpt>
      <trkpt lat="36.870746" lon="-3.593066">
        <ele>829.482</ele>
        <time>2022-12-06T13:50:27Z</time>
      </trkpt>
      <trkpt lat="36.870737" lon="-3.593079">
        <ele>829.442</ele>
        <time>2022-12-06T13:50:28Z</time>
      </trkpt>
      <trkpt lat="36.870720" lon="-3.593093">
        <ele>828.722</ele>
        <time>2022-12-06T13:50:30Z</time>
      </trkpt>
      <trkpt lat="36.870698" lon="-3.593075">
        <ele>828.214</ele>
        <time>2022-12-06T13:50:32Z</time>
      </trkpt>
      <trkpt lat="36.870693" lon="-3.593060">
        <ele>828.009</ele>
        <time>2022-12-06T13:50:33Z</time>
      </trkpt>
      <trkpt lat="36.870683" lon="-3.593033">
        <ele>827.765</ele>
        <time>2022-12-06T13:50:35Z</time>
      </trkpt>
      <trkpt lat="36.870665" lon="-3.593008">
        <ele>827.586</ele>
        <time>2022-12-06T13:50:38Z</time>
      </trkpt>
      <trkpt lat="36.870656" lon="-3.592988">
        <ele>827.554</ele>
        <time>2022-12-06T13:50:41Z</time>
      </trkpt>
      <trkpt lat="36.870652" lon="-3.592960">
        <ele>827.471</ele>
        <time>2022-12-06T13:50:43Z</time>
      </trkpt>
      <trkpt lat="36.870651" lon="-3.592936">
        <ele>827.439</ele>
        <time>2022-12-06T13:50:45Z</time>
      </trkpt>
      <trkpt lat="36.870635" lon="-3.592913">
        <ele>827.483</ele>
        <time>2022-12-06T13:50:47Z</time>
      </trkpt>
      <trkpt lat="36.870612" lon="-3.592897">
        <ele>827.034</ele>
        <time>2022-12-06T13:50:49Z</time>
      </trkpt>
      <trkpt lat="36.870584" lon="-3.592873">
        <ele>826.551</ele>
        <time>2022-12-06T13:50:51Z</time>
      </trkpt>
      <trkpt lat="36.870545" lon="-3.592820">
        <ele>825.712</ele>
        <time>2022-12-06T13:50:54Z</time>
      </trkpt>
      <trkpt lat="36.870485" lon="-3.592779">
        <ele>824.493</ele>
        <time>2022-12-06T13:50:58Z</time>
      </trkpt>
      <trkpt lat="36.870465" lon="-3.592791">
        <ele>823.765</ele>
        <time>2022-12-06T13:51:00Z</time>
      </trkpt>
      <trkpt lat="36.870431" lon="-3.592818">
        <ele>823.421</ele>
        <time>2022-12-06T13:51:03Z</time>
      </trkpt>
      <trkpt lat="36.870427" lon="-3.592840">
        <ele>823.209</ele>
        <time>2022-12-06T13:51:04Z</time>
      </trkpt>
      <trkpt lat="36.870425" lon="-3.592885">
        <ele>822.710</ele>
        <time>2022-12-06T13:51:06Z</time>
      </trkpt>
      <trkpt lat="36.870408" lon="-3.592928">
        <ele>822.061</ele>
        <time>2022-12-06T13:51:08Z</time>
      </trkpt>
      <trkpt lat="36.870406" lon="-3.592981">
        <ele>821.459</ele>
        <time>2022-12-06T13:51:10Z</time>
      </trkpt>
      <trkpt lat="36.870414" lon="-3.593004">
        <ele>820.756</ele>
        <time>2022-12-06T13:51:11Z</time>
      </trkpt>
      <trkpt lat="36.870412" lon="-3.593054">
        <ele>819.764</ele>
        <time>2022-12-06T13:51:14Z</time>
      </trkpt>
      <trkpt lat="36.870410" lon="-3.593069">
        <ele>819.528</ele>
        <time>2022-12-06T13:51:15Z</time>
      </trkpt>
      <trkpt lat="36.870394" lon="-3.593107">
        <ele>818.749</ele>
        <time>2022-12-06T13:51:18Z</time>
      </trkpt>
      <trkpt lat="36.870384" lon="-3.593114">
        <ele>818.516</ele>
        <time>2022-12-06T13:51:19Z</time>
      </trkpt>
      <trkpt lat="36.870373" lon="-3.593116">
        <ele>818.497</ele>
        <time>2022-12-06T13:51:20Z</time>
      </trkpt>
      <trkpt lat="36.870341" lon="-3.593101">
        <ele>817.546</ele>
        <time>2022-12-06T13:51:23Z</time>
      </trkpt>
      <trkpt lat="36.870309" lon="-3.593056">
        <ele>816.488</ele>
        <time>2022-12-06T13:51:27Z</time>
      </trkpt>
      <trkpt lat="36.870286" lon="-3.593026">
        <ele>815.416</ele>
        <time>2022-12-06T13:51:30Z</time>
      </trkpt>
      <trkpt lat="36.870254" lon="-3.592992">
        <ele>814.009</ele>
        <time>2022-12-06T13:51:34Z</time>
      </trkpt>
      <trkpt lat="36.870219" lon="-3.592958">
        <ele>812.785</ele>
        <time>2022-12-06T13:51:36Z</time>
      </trkpt>
      <trkpt lat="36.870190" lon="-3.592944">
        <ele>811.526</ele>
        <time>2022-12-06T13:51:38Z</time>
      </trkpt>
      <trkpt lat="36.870154" lon="-3.592928">
        <ele>810.564</ele>
        <time>2022-12-06T13:51:40Z</time>
      </trkpt>
      <trkpt lat="36.870078" lon="-3.592869">
        <ele>809.451</ele>
        <time>2022-12-06T13:51:44Z</time>
      </trkpt>
      <trkpt lat="36.870008" lon="-3.592833">
        <ele>808.499</ele>
        <time>2022-12-06T13:51:47Z</time>
      </trkpt>
      <trkpt lat="36.869980" lon="-3.592829">
        <ele>808.273</ele>
        <time>2022-12-06T13:51:48Z</time>
      </trkpt>
      <trkpt lat="36.869901" lon="-3.592816">
        <ele>807.084</ele>
        <time>2022-12-06T13:51:51Z</time>
      </trkpt>
      <trkpt lat="36.869858" lon="-3.592822">
        <ele>805.511</ele>
        <time>2022-12-06T13:51:53Z</time>
      </trkpt>
      <trkpt lat="36.869847" lon="-3.592826">
        <ele>805.222</ele>
        <time>2022-12-06T13:51:54Z</time>
      </trkpt>
      <trkpt lat="36.869841" lon="-3.592835">
        <ele>804.475</ele>
        <time>2022-12-06T13:51:56Z</time>
      </trkpt>
      <trkpt lat="36.869853" lon="-3.592869">
        <ele>804.028</ele>
        <time>2022-12-06T13:52:02Z</time>
      </trkpt>
      <trkpt lat="36.869824" lon="-3.592929">
        <ele>803.220</ele>
        <time>2022-12-06T13:52:06Z</time>
      </trkpt>
      <trkpt lat="36.869806" lon="-3.592936">
        <ele>803.009</ele>
        <time>2022-12-06T13:52:07Z</time>
      </trkpt>
      <trkpt lat="36.869760" lon="-3.592919">
        <ele>801.738</ele>
        <time>2022-12-06T13:52:09Z</time>
      </trkpt>
      <trkpt lat="36.869691" lon="-3.592862">
        <ele>800.599</ele>
        <time>2022-12-06T13:52:13Z</time>
      </trkpt>
      <trkpt lat="36.869546" lon="-3.592780">
        <ele>799.467</ele>
        <time>2022-12-06T13:52:22Z</time>
      </trkpt>
      <trkpt lat="36.869486" lon="-3.592778">
        <ele>798.464</ele>
        <time>2022-12-06T13:52:25Z</time>
      </trkpt>
      <trkpt lat="36.869486" lon="-3.592831">
        <ele>797.422</ele>
        <time>2022-12-06T13:52:29Z</time>
      </trkpt>
      <trkpt lat="36.869438" lon="-3.592842">
        <ele>796.016</ele>
        <time>2022-12-06T13:52:34Z</time>
      </trkpt>
      <trkpt lat="36.869418" lon="-3.592843">
        <ele>794.727</ele>
        <time>2022-12-06T13:52:36Z</time>
      </trkpt>
      <trkpt lat="36.869404" lon="-3.592840">
        <ele>794.234</ele>
        <time>2022-12-06T13:52:37Z</time>
      </trkpt>
      <trkpt lat="36.869366" lon="-3.592825">
        <ele>793.585</ele>
        <time>2022-12-06T13:52:39Z</time>
      </trkpt>
      <trkpt lat="36.869311" lon="-3.592792">
        <ele>792.562</ele>
        <time>2022-12-06T13:52:42Z</time>
      </trkpt>
      <trkpt lat="36.869191" lon="-3.592783">
        <ele>791.483</ele>
        <time>2022-12-06T13:52:47Z</time>
      </trkpt>
      <trkpt lat="36.869139" lon="-3.592785">
        <ele>790.211</ele>
        <time>2022-12-06T13:52:50Z</time>
      </trkpt>
      <trkpt lat="36.869056" lon="-3.592797">
        <ele>788.709</ele>
        <time>2022-12-06T13:52:54Z</time>
      </trkpt>
      <trkpt lat="36.869033" lon="-3.592799">
        <ele>788.477</ele>
        <time>2022-12-06T13:52:55Z</time>
      </trkpt>
      <trkpt lat="36.868996" lon="-3.592793">
        <ele>787.468</ele>
        <time>2022-12-06T13:52:57Z</time>
      </trkpt>
      <trkpt lat="36.868925" lon="-3.592796">
        <ele>786.266</ele>
        <time>2022-12-06T13:53:01Z</time>
      </trkpt>
      <trkpt lat="36.868873" lon="-3.592785">
        <ele>784.783</ele>
        <time>2022-12-06T13:53:04Z</time>
      </trkpt>
      <trkpt lat="36.868828" lon="-3.592774">
        <ele>783.491</ele>
        <time>2022-12-06T13:53:07Z</time>
      </trkpt>
      <trkpt lat="36.868798" lon="-3.592786">
        <ele>782.425</ele>
        <time>2022-12-06T13:53:09Z</time>
      </trkpt>
      <trkpt lat="36.868764" lon="-3.592779">
        <ele>781.296</ele>
        <time>2022-12-06T13:53:11Z</time>
      </trkpt>
      <trkpt lat="36.868744" lon="-3.592780">
        <ele>780.773</ele>
        <time>2022-12-06T13:53:12Z</time>
      </trkpt>
      <trkpt lat="36.868747" lon="-3.592800">
        <ele>780.264</ele>
        <time>2022-12-06T13:53:14Z</time>
      </trkpt>
      <trkpt lat="36.868798" lon="-3.592862">
        <ele>779.273</ele>
        <time>2022-12-06T13:53:18Z</time>
      </trkpt>
      <trkpt lat="36.868807" lon="-3.592879">
        <ele>778.585</ele>
        <time>2022-12-06T13:53:19Z</time>
      </trkpt>
      <trkpt lat="36.868811" lon="-3.592918">
        <ele>777.413</ele>
        <time>2022-12-06T13:53:21Z</time>
      </trkpt>
      <trkpt lat="36.868797" lon="-3.592939">
        <ele>776.509</ele>
        <time>2022-12-06T13:53:23Z</time>
      </trkpt>
      <trkpt lat="36.868784" lon="-3.592937">
        <ele>776.268</ele>
        <time>2022-12-06T13:53:24Z</time>
      </trkpt>
      <trkpt lat="36.868767" lon="-3.592940">
        <ele>775.799</ele>
        <time>2022-12-06T13:53:25Z</time>
      </trkpt>
      <trkpt lat="36.868749" lon="-3.592959">
        <ele>774.727</ele>
        <time>2022-12-06T13:53:27Z</time>
      </trkpt>
      <trkpt lat="36.868747" lon="-3.592959">
        <ele>774.224</ele>
        <time>2022-12-06T13:53:28Z</time>
      </trkpt>
      <trkpt lat="36.868750" lon="-3.592959">
        <ele>773.462</ele>
        <time>2022-12-06T13:53:30Z</time>
      </trkpt>
      <trkpt lat="36.868768" lon="-3.593035">
        <ele>772.786</ele>
        <time>2022-12-06T13:53:44Z</time>
      </trkpt>
      <trkpt lat="36.868730" lon="-3.593032">
        <ele>772.277</ele>
        <time>2022-12-06T13:53:46Z</time>
      </trkpt>
      <trkpt lat="36.868706" lon="-3.593052">
        <ele>771.464</ele>
        <time>2022-12-06T13:53:48Z</time>
      </trkpt>
      <trkpt lat="36.868707" lon="-3.593066">
        <ele>771.085</ele>
        <time>2022-12-06T13:53:49Z</time>
      </trkpt>
      <trkpt lat="36.868700" lon="-3.593084">
        <ele>770.555</ele>
        <time>2022-12-06T13:53:50Z</time>
      </trkpt>
      <trkpt lat="36.868670" lon="-3.593105">
        <ele>770.007</ele>
        <time>2022-12-06T13:53:52Z</time>
      </trkpt>
      <trkpt lat="36.868595" lon="-3.593090">
        <ele>768.717</ele>
        <time>2022-12-06T13:53:57Z</time>
      </trkpt>
      <trkpt lat="36.868582" lon="-3.593057">
        <ele>767.709</ele>
        <time>2022-12-06T13:53:59Z</time>
      </trkpt>
      <trkpt lat="36.868542" lon="-3.593000">
        <ele>766.516</ele>
        <time>2022-12-06T13:54:02Z</time>
      </trkpt>
      <trkpt lat="36.868495" lon="-3.593004">
        <ele>765.587</ele>
        <time>2022-12-06T13:54:04Z</time>
      </trkpt>
      <trkpt lat="36.868448" lon="-3.593034">
        <ele>764.465</ele>
        <time>2022-12-06T13:54:06Z</time>
      </trkpt>
      <trkpt lat="36.868389" lon="-3.593052">
        <ele>763.212</ele>
        <time>2022-12-06T13:54:09Z</time>
      </trkpt>
      <trkpt lat="36.868365" lon="-3.593065">
        <ele>762.420</ele>
        <time>2022-12-06T13:54:11Z</time>
      </trkpt>
      <trkpt lat="36.868338" lon="-3.593068">
        <ele>762.274</ele>
        <time>2022-12-06T13:54:14Z</time>
      </trkpt>
      <trkpt lat="36.868323" lon="-3.593066">
        <ele>762.055</ele>
        <time>2022-12-06T13:54:15Z</time>
      </trkpt>
      <trkpt lat="36.868298" lon="-3.593073">
        <ele>761.722</ele>
        <time>2022-12-06T13:54:16Z</time>
      </trkpt>
      <trkpt lat="36.868236" lon="-3.593113">
        <ele>760.513</ele>
        <time>2022-12-06T13:54:20Z</time>
      </trkpt>
      <trkpt lat="36.868229" lon="-3.593112">
        <ele>760.495</ele>
        <time>2022-12-06T13:54:21Z</time>
      </trkpt>
      <trkpt lat="36.868194" lon="-3.593075">
        <ele>759.749</ele>
        <time>2022-12-06T13:54:24Z</time>
      </trkpt>
      <trkpt lat="36.868182" lon="-3.593073">
        <ele>759.423</ele>
        <time>2022-12-06T13:54:25Z</time>
      </trkpt>
      <trkpt lat="36.868164" lon="-3.593066">
        <ele>759.009</ele>
        <time>2022-12-06T13:54:26Z</time>
      </trkpt>
      <trkpt lat="36.868110" lon="-3.593043">
        <ele>758.220</ele>
        <time>2022-12-06T13:54:29Z</time>
      </trkpt>
      <trkpt lat="36.868082" lon="-3.593047">
        <ele>757.031</ele>
        <time>2022-12-06T13:54:31Z</time>
      </trkpt>
      <trkpt lat="36.868053" lon="-3.593054">
        <ele>756.289</ele>
        <time>2022-12-06T13:54:33Z</time>
      </trkpt>
      <trkpt lat="36.868038" lon="-3.593063">
        <ele>755.756</ele>
        <time>2022-12-06T13:54:34Z</time>
      </trkpt>
      <trkpt lat="36.867982" lon="-3.593058">
        <ele>754.724</ele>
        <time>2022-12-06T13:54:37Z</time>
      </trkpt>
      <trkpt lat="36.867925" lon="-3.593055">
        <ele>753.748</ele>
        <time>2022-12-06T13:54:40Z</time>
      </trkpt>
      <trkpt lat="36.867874" lon="-3.593070">
        <ele>752.289</ele>
        <time>2022-12-06T13:54:43Z</time>
      </trkpt>
      <trkpt lat="36.867810" lon="-3.593072">
        <ele>751.036</ele>
        <time>2022-12-06T13:54:46Z</time>
      </trkpt>
      <trkpt lat="36.867782" lon="-3.593107">
        <ele>749.797</ele>
        <time>2022-12-06T13:54:49Z</time>
      </trkpt>
      <trkpt lat="36.867732" lon="-3.593159">
        <ele>748.489</ele>
        <time>2022-12-06T13:54:53Z</time>
      </trkpt>
      <trkpt lat="36.867700" lon="-3.593183">
        <ele>747.406</ele>
        <time>2022-12-06T13:54:55Z</time>
      </trkpt>
      <trkpt lat="36.867688" lon="-3.593191">
        <ele>746.726</ele>
        <time>2022-12-06T13:54:56Z</time>
      </trkpt>
      <trkpt lat="36.867677" lon="-3.593194">
        <ele>746.409</ele>
        <time>2022-12-06T13:54:57Z</time>
      </trkpt>
      <trkpt lat="36.867660" lon="-3.593192">
        <ele>745.529</ele>
        <time>2022-12-06T13:54:59Z</time>
      </trkpt>
      <trkpt lat="36.867646" lon="-3.593184">
        <ele>745.090</ele>
        <time>2022-12-06T13:55:01Z</time>
      </trkpt>
      <trkpt lat="36.867618" lon="-3.593151">
        <ele>744.568</ele>
        <time>2022-12-06T13:55:03Z</time>
      </trkpt>
      <trkpt lat="36.867600" lon="-3.593121">
        <ele>744.095</ele>
        <time>2022-12-06T13:55:05Z</time>
      </trkpt>
      <trkpt lat="36.867591" lon="-3.593109">
        <ele>743.553</ele>
        <time>2022-12-06T13:55:06Z</time>
      </trkpt>
      <trkpt lat="36.867572" lon="-3.593092">
        <ele>742.557</ele>
        <time>2022-12-06T13:55:08Z</time>
      </trkpt>
      <trkpt lat="36.867560" lon="-3.593091">
        <ele>742.468</ele>
        <time>2022-12-06T13:55:09Z</time>
      </trkpt>
      <trkpt lat="36.867513" lon="-3.593087">
        <ele>741.535</ele>
        <time>2022-12-06T13:55:12Z</time>
      </trkpt>
      <trkpt lat="36.867497" lon="-3.593077">
        <ele>741.076</ele>
        <time>2022-12-06T13:55:13Z</time>
      </trkpt>
      <trkpt lat="36.867447" lon="-3.593062">
        <ele>740.027</ele>
        <time>2022-12-06T13:55:16Z</time>
      </trkpt>
      <trkpt lat="36.867417" lon="-3.593060">
        <ele>739.268</ele>
        <time>2022-12-06T13:55:18Z</time>
      </trkpt>
      <trkpt lat="36.867401" lon="-3.593063">
        <ele>738.714</ele>
        <time>2022-12-06T13:55:19Z</time>
      </trkpt>
      <trkpt lat="36.867384" lon="-3.593062">
        <ele>738.209</ele>
        <time>2022-12-06T13:55:20Z</time>
      </trkpt>
      <trkpt lat="36.867349" lon="-3.593050">
        <ele>737.513</ele>
        <time>2022-12-06T13:55:22Z</time>
      </trkpt>
      <trkpt lat="36.867321" lon="-3.593044">
        <ele>737.084</ele>
        <time>2022-12-06T13:55:24Z</time>
      </trkpt>
      <trkpt lat="36.867311" lon="-3.593042">
        <ele>736.432</ele>
        <time>2022-12-06T13:55:25Z</time>
      </trkpt>
      <trkpt lat="36.867276" lon="-3.593031">
        <ele>735.229</ele>
        <time>2022-12-06T13:55:27Z</time>
      </trkpt>
      <trkpt lat="36.867261" lon="-3.593034">
        <ele>734.777</ele>
        <time>2022-12-06T13:55:28Z</time>
      </trkpt>
      <trkpt lat="36.867263" lon="-3.593091">
        <ele>734.021</ele>
        <time>2022-12-06T13:55:32Z</time>
      </trkpt>
      <trkpt lat="36.867247" lon="-3.593129">
        <ele>733.042</ele>
        <time>2022-12-06T13:55:34Z</time>
      </trkpt>
      <trkpt lat="36.867236" lon="-3.593160">
        <ele>732.289</ele>
        <time>2022-12-06T13:55:36Z</time>
      </trkpt>
      <trkpt lat="36.867222" lon="-3.593169">
        <ele>731.730</ele>
        <time>2022-12-06T13:55:37Z</time>
      </trkpt>
      <trkpt lat="36.867179" lon="-3.593205">
        <ele>730.418</ele>
        <time>2022-12-06T13:55:40Z</time>
      </trkpt>
      <trkpt lat="36.867116" lon="-3.593257">
        <ele>729.298</ele>
        <time>2022-12-06T13:55:44Z</time>
      </trkpt>
      <trkpt lat="36.867067" lon="-3.593269">
        <ele>727.717</ele>
        <time>2022-12-06T13:55:47Z</time>
      </trkpt>
      <trkpt lat="36.867056" lon="-3.593261">
        <ele>726.709</ele>
        <time>2022-12-06T13:55:48Z</time>
      </trkpt>
      <trkpt lat="36.867043" lon="-3.593249">
        <ele>726.252</ele>
        <time>2022-12-06T13:55:49Z</time>
      </trkpt>
      <trkpt lat="36.867023" lon="-3.593221">
        <ele>725.033</ele>
        <time>2022-12-06T13:55:52Z</time>
      </trkpt>
      <trkpt lat="36.866986" lon="-3.593176">
        <ele>724.781</ele>
        <time>2022-12-06T13:55:57Z</time>
      </trkpt>
      <trkpt lat="36.866946" lon="-3.593204">
        <ele>724.488</ele>
        <time>2022-12-06T13:56:00Z</time>
      </trkpt>
      <trkpt lat="36.866925" lon="-3.593231">
        <ele>724.056</ele>
        <time>2022-12-06T13:56:02Z</time>
      </trkpt>
      <trkpt lat="36.866883" lon="-3.593261">
        <ele>722.410</ele>
        <time>2022-12-06T13:56:05Z</time>
      </trkpt>
      <trkpt lat="36.866852" lon="-3.593273">
        <ele>721.561</ele>
        <time>2022-12-06T13:56:07Z</time>
      </trkpt>
      <trkpt lat="36.866838" lon="-3.593272">
        <ele>721.298</ele>
        <time>2022-12-06T13:56:08Z</time>
      </trkpt>
      <trkpt lat="36.866794" lon="-3.593268">
        <ele>720.059</ele>
        <time>2022-12-06T13:56:11Z</time>
      </trkpt>
      <trkpt lat="36.866783" lon="-3.593276">
        <ele>719.586</ele>
        <time>2022-12-06T13:56:12Z</time>
      </trkpt>
      <trkpt lat="36.866761" lon="-3.593285">
        <ele>718.760</ele>
        <time>2022-12-06T13:56:14Z</time>
      </trkpt>
      <trkpt lat="36.866724" lon="-3.593262">
        <ele>717.726</ele>
        <time>2022-12-06T13:56:17Z</time>
      </trkpt>
      <trkpt lat="36.866693" lon="-3.593175">
        <ele>716.509</ele>
        <time>2022-12-06T13:56:21Z</time>
      </trkpt>
      <trkpt lat="36.866634" lon="-3.593103">
        <ele>715.479</ele>
        <time>2022-12-06T13:56:25Z</time>
      </trkpt>
      <trkpt lat="36.866610" lon="-3.593082">
        <ele>714.710</ele>
        <time>2022-12-06T13:56:27Z</time>
      </trkpt>
      <trkpt lat="36.866591" lon="-3.593093">
        <ele>714.048</ele>
        <time>2022-12-06T13:56:29Z</time>
      </trkpt>
      <trkpt lat="36.866580" lon="-3.593098">
        <ele>713.425</ele>
        <time>2022-12-06T13:56:31Z</time>
      </trkpt>
      <trkpt lat="36.866577" lon="-3.593096">
        <ele>713.013</ele>
        <time>2022-12-06T13:56:32Z</time>
      </trkpt>
      <trkpt lat="36.866570" lon="-3.593095">
        <ele>711.757</ele>
        <time>2022-12-06T13:56:36Z</time>
      </trkpt>
      <trkpt lat="36.866525" lon="-3.593071">
        <ele>711.238</ele>
        <time>2022-12-06T13:56:42Z</time>
      </trkpt>
      <trkpt lat="36.866515" lon="-3.593066">
        <ele>710.765</ele>
        <time>2022-12-06T13:56:43Z</time>
      </trkpt>
      <trkpt lat="36.866454" lon="-3.593050">
        <ele>709.556</ele>
        <time>2022-12-06T13:56:47Z</time>
      </trkpt>
      <trkpt lat="36.866428" lon="-3.593085">
        <ele>708.564</ele>
        <time>2022-12-06T13:56:50Z</time>
      </trkpt>
      <trkpt lat="36.866425" lon="-3.593087">
        <ele>708.206</ele>
        <time>2022-12-06T13:56:51Z</time>
      </trkpt>
      <trkpt lat="36.866418" lon="-3.593088">
        <ele>707.416</ele>
        <time>2022-12-06T13:56:54Z</time>
      </trkpt>
      <trkpt lat="36.866406" lon="-3.593111">
        <ele>707.009</ele>
        <time>2022-12-06T13:56:58Z</time>
      </trkpt>
      <trkpt lat="36.866406" lon="-3.593159">
        <ele>706.797</ele>
        <time>2022-12-06T13:57:00Z</time>
      </trkpt>
      <trkpt lat="36.866407" lon="-3.593228">
        <ele>706.548</ele>
        <time>2022-12-06T13:57:03Z</time>
      </trkpt>
      <trkpt lat="36.866392" lon="-3.593261">
        <ele>706.246</ele>
        <time>2022-12-06T13:57:05Z</time>
      </trkpt>
      <trkpt lat="36.866361" lon="-3.593292">
        <ele>705.473</ele>
        <time>2022-12-06T13:57:08Z</time>
      </trkpt>
      <trkpt lat="36.866361" lon="-3.593306">
        <ele>705.281</ele>
        <time>2022-12-06T13:57:09Z</time>
      </trkpt>
      <trkpt lat="36.866385" lon="-3.593350">
        <ele>704.245</ele>
        <time>2022-12-06T13:57:13Z</time>
      </trkpt>
      <trkpt lat="36.866382" lon="-3.593351">
        <ele>704.016</ele>
        <time>2022-12-06T13:57:14Z</time>
      </trkpt>
      <trkpt lat="36.866362" lon="-3.593348">
        <ele>703.493</ele>
        <time>2022-12-06T13:57:16Z</time>
      </trkpt>
      <trkpt lat="36.866353" lon="-3.593356">
        <ele>702.524</ele>
        <time>2022-12-06T13:57:18Z</time>
      </trkpt>
      <trkpt lat="36.866355" lon="-3.593367">
        <ele>702.256</ele>
        <time>2022-12-06T13:57:19Z</time>
      </trkpt>
      <trkpt lat="36.866366" lon="-3.593403">
        <ele>701.459</ele>
        <time>2022-12-06T13:57:21Z</time>
      </trkpt>
      <trkpt lat="36.866375" lon="-3.593435">
        <ele>700.714</ele>
        <time>2022-12-06T13:57:23Z</time>
      </trkpt>
      <trkpt lat="36.866376" lon="-3.593453">
        <ele>700.409</ele>
        <time>2022-12-06T13:57:24Z</time>
      </trkpt>
      <trkpt lat="36.866381" lon="-3.593523">
        <ele>699.016</ele>
        <time>2022-12-06T13:57:28Z</time>
      </trkpt>
      <trkpt lat="36.866383" lon="-3.593536">
        <ele>698.587</ele>
        <time>2022-12-06T13:57:29Z</time>
      </trkpt>
      <trkpt lat="36.866377" lon="-3.593542">
        <ele>698.085</ele>
        <time>2022-12-06T13:57:30Z</time>
      </trkpt>
      <trkpt lat="36.866353" lon="-3.593528">
        <ele>697.472</ele>
        <time>2022-12-06T13:57:32Z</time>
      </trkpt>
      <trkpt lat="36.866319" lon="-3.593505">
        <ele>696.740</ele>
        <time>2022-12-06T13:57:34Z</time>
      </trkpt>
      <trkpt lat="36.866299" lon="-3.593490">
        <ele>696.464</ele>
        <time>2022-12-06T13:57:35Z</time>
      </trkpt>
      <trkpt lat="36.866256" lon="-3.593456">
        <ele>695.455</ele>
        <time>2022-12-06T13:57:37Z</time>
      </trkpt>
      <trkpt lat="36.866242" lon="-3.593439">
        <ele>694.772</ele>
        <time>2022-12-06T13:57:38Z</time>
      </trkpt>
      <trkpt lat="36.866214" lon="-3.593401">
        <ele>694.213</ele>
        <time>2022-12-06T13:57:40Z</time>
      </trkpt>
      <trkpt lat="36.866179" lon="-3.593362">
        <ele>693.095</ele>
        <time>2022-12-06T13:57:44Z</time>
      </trkpt>
      <trkpt lat="36.866172" lon="-3.593354">
        <ele>692.449</ele>
        <time>2022-12-06T13:57:45Z</time>
      </trkpt>
      <trkpt lat="36.866162" lon="-3.593347">
        <ele>691.723</ele>
        <time>2022-12-06T13:57:46Z</time>
      </trkpt>
      <trkpt lat="36.866129" lon="-3.593328">
        <ele>691.009</ele>
        <time>2022-12-06T13:57:49Z</time>
      </trkpt>
      <trkpt lat="36.866105" lon="-3.593316">
        <ele>690.560</ele>
        <time>2022-12-06T13:57:51Z</time>
      </trkpt>
      <trkpt lat="36.866098" lon="-3.593307">
        <ele>690.241</ele>
        <time>2022-12-06T13:57:52Z</time>
      </trkpt>
      <trkpt lat="36.866074" lon="-3.593291">
        <ele>689.729</ele>
        <time>2022-12-06T13:57:54Z</time>
      </trkpt>
      <trkpt lat="36.866060" lon="-3.593296">
        <ele>689.486</ele>
        <time>2022-12-06T13:57:55Z</time>
      </trkpt>
      <trkpt lat="36.866035" lon="-3.593351">
        <ele>688.254</ele>
        <time>2022-12-06T13:57:58Z</time>
      </trkpt>
      <trkpt lat="36.866025" lon="-3.593404">
        <ele>687.018</ele>
        <time>2022-12-06T13:58:01Z</time>
      </trkpt>
      <trkpt lat="36.866016" lon="-3.593460">
        <ele>686.279</ele>
        <time>2022-12-06T13:58:04Z</time>
      </trkpt>
      <trkpt lat="36.865999" lon="-3.593464">
        <ele>685.596</ele>
        <time>2022-12-06T13:58:06Z</time>
      </trkpt>
      <trkpt lat="36.865971" lon="-3.593445">
        <ele>684.447</ele>
        <time>2022-12-06T13:58:09Z</time>
      </trkpt>
      <trkpt lat="36.865931" lon="-3.593409">
        <ele>683.595</ele>
        <time>2022-12-06T13:58:12Z</time>
      </trkpt>
      <trkpt lat="36.865920" lon="-3.593392">
        <ele>683.249</ele>
        <time>2022-12-06T13:58:13Z</time>
      </trkpt>
      <trkpt lat="36.865892" lon="-3.593346">
        <ele>682.223</ele>
        <time>2022-12-06T13:58:16Z</time>
      </trkpt>
      <trkpt lat="36.865883" lon="-3.593328">
        <ele>682.009</ele>
        <time>2022-12-06T13:58:17Z</time>
      </trkpt>
      <trkpt lat="36.865851" lon="-3.593282">
        <ele>680.570</ele>
        <time>2022-12-06T13:58:20Z</time>
      </trkpt>
      <trkpt lat="36.865808" lon="-3.593282">
        <ele>679.451</ele>
        <time>2022-12-06T13:58:24Z</time>
      </trkpt>
      <trkpt lat="36.865793" lon="-3.593288">
        <ele>678.519</ele>
        <time>2022-12-06T13:58:26Z</time>
      </trkpt>
      <trkpt lat="36.865791" lon="-3.593291">
        <ele>678.236</ele>
        <time>2022-12-06T13:58:27Z</time>
      </trkpt>
      <trkpt lat="36.865763" lon="-3.593246">
        <ele>677.584</ele>
        <time>2022-12-06T13:58:38Z</time>
      </trkpt>
      <trkpt lat="36.865743" lon="-3.593227">
        <ele>677.018</ele>
        <time>2022-12-06T13:58:40Z</time>
      </trkpt>
      <trkpt lat="36.865721" lon="-3.593183">
        <ele>675.789</ele>
        <time>2022-12-06T13:58:43Z</time>
      </trkpt>
      <trkpt lat="36.865718" lon="-3.593175">
        <ele>675.486</ele>
        <time>2022-12-06T13:58:44Z</time>
      </trkpt>
      <trkpt lat="36.865717" lon="-3.593159">
        <ele>674.727</ele>
        <time>2022-12-06T13:58:46Z</time>
      </trkpt>
      <trkpt lat="36.865716" lon="-3.593138">
        <ele>674.534</ele>
        <time>2022-12-06T13:58:47Z</time>
      </trkpt>
      <trkpt lat="36.865700" lon="-3.593127">
        <ele>674.455</ele>
        <time>2022-12-06T13:58:49Z</time>
      </trkpt>
      <trkpt lat="36.865638" lon="-3.593145">
        <ele>673.510</ele>
        <time>2022-12-06T13:58:53Z</time>
      </trkpt>
      <trkpt lat="36.865621" lon="-3.593148">
        <ele>673.509</ele>
        <time>2022-12-06T13:58:54Z</time>
      </trkpt>
      <trkpt lat="36.865610" lon="-3.593140">
        <ele>673.274</ele>
        <time>2022-12-06T13:58:55Z</time>
      </trkpt>
      <trkpt lat="36.865599" lon="-3.593117">
        <ele>672.575</ele>
        <time>2022-12-06T13:58:57Z</time>
      </trkpt>
      <trkpt lat="36.865582" lon="-3.593074">
        <ele>671.453</ele>
        <time>2022-12-06T13:59:00Z</time>
      </trkpt>
      <trkpt lat="36.865572" lon="-3.593053">
        <ele>670.210</ele>
        <time>2022-12-06T13:59:02Z</time>
      </trkpt>
      <trkpt lat="36.865559" lon="-3.593024">
        <ele>669.228</ele>
        <time>2022-12-06T13:59:04Z</time>
      </trkpt>
      <trkpt lat="36.865548" lon="-3.593018">
        <ele>668.542</ele>
        <time>2022-12-06T13:59:05Z</time>
      </trkpt>
      <trkpt lat="36.865524" lon="-3.592993">
        <ele>667.773</ele>
        <time>2022-12-06T13:59:07Z</time>
      </trkpt>
      <trkpt lat="36.865519" lon="-3.592977">
        <ele>667.440</ele>
        <time>2022-12-06T13:59:08Z</time>
      </trkpt>
      <trkpt lat="36.865517" lon="-3.592937">
        <ele>666.291</ele>
        <time>2022-12-06T13:59:10Z</time>
      </trkpt>
      <trkpt lat="36.865533" lon="-3.592877">
        <ele>665.099</ele>
        <time>2022-12-06T13:59:13Z</time>
      </trkpt>
      <trkpt lat="36.865555" lon="-3.592847">
        <ele>663.707</ele>
        <time>2022-12-06T13:59:15Z</time>
      </trkpt>
      <trkpt lat="36.865572" lon="-3.592820">
        <ele>662.427</ele>
        <time>2022-12-06T13:59:17Z</time>
      </trkpt>
      <trkpt lat="36.865610" lon="-3.592806">
        <ele>661.209</ele>
        <time>2022-12-06T13:59:19Z</time>
      </trkpt>
      <trkpt lat="36.865635" lon="-3.592767">
        <ele>660.280</ele>
        <time>2022-12-06T13:59:21Z</time>
      </trkpt>
      <trkpt lat="36.865649" lon="-3.592719">
        <ele>659.041</ele>
        <time>2022-12-06T13:59:23Z</time>
      </trkpt>
      <trkpt lat="36.865673" lon="-3.592664">
        <ele>657.739</ele>
        <time>2022-12-06T13:59:25Z</time>
      </trkpt>
      <trkpt lat="36.865683" lon="-3.592628">
        <ele>656.436</ele>
        <time>2022-12-06T13:59:27Z</time>
      </trkpt>
      <trkpt lat="36.865696" lon="-3.592591">
        <ele>655.414</ele>
        <time>2022-12-06T13:59:29Z</time>
      </trkpt>
      <trkpt lat="36.865719" lon="-3.592467">
        <ele>654.248</ele>
        <time>2022-12-06T13:59:34Z</time>
      </trkpt>
      <trkpt lat="36.865721" lon="-3.592415">
        <ele>653.299</ele>
        <time>2022-12-06T13:59:36Z</time>
      </trkpt>
      <trkpt lat="36.865721" lon="-3.592332">
        <ele>651.586</ele>
        <time>2022-12-06T13:59:39Z</time>
      </trkpt>
      <trkpt lat="36.865710" lon="-3.592209">
        <ele>650.277</ele>
        <time>2022-12-06T13:59:43Z</time>
      </trkpt>
      <trkpt lat="36.865701" lon="-3.592154">
        <ele>648.731</ele>
        <time>2022-12-06T13:59:45Z</time>
      </trkpt>
      <trkpt lat="36.865686" lon="-3.592110">
        <ele>647.561</ele>
        <time>2022-12-06T13:59:47Z</time>
      </trkpt>
      <trkpt lat="36.865697" lon="-3.592088">
        <ele>646.407</ele>
        <time>2022-12-06T13:59:49Z</time>
      </trkpt>
      <trkpt lat="36.865714" lon="-3.592084">
        <ele>646.009</ele>
        <time>2022-12-06T13:59:50Z</time>
      </trkpt>
      <trkpt lat="36.865741" lon="-3.592098">
        <ele>645.414</ele>
        <time>2022-12-06T14:00:08Z</time>
      </trkpt>
      <trkpt lat="36.865734" lon="-3.592062">
        <ele>645.295</ele>
        <time>2022-12-06T14:00:22Z</time>
      </trkpt>
      <trkpt lat="36.865706" lon="-3.592016">
        <ele>645.063</ele>
        <time>2022-12-06T14:00:25Z</time>
      </trkpt>
      <trkpt lat="36.865707" lon="-3.591973">
        <ele>644.230</ele>
        <time>2022-12-06T14:00:28Z</time>
      </trkpt>
      <trkpt lat="36.865691" lon="-3.591910">
        <ele>643.448</ele>
        <time>2022-12-06T14:00:32Z</time>
      </trkpt>
      <trkpt lat="36.865686" lon="-3.591895">
        <ele>643.232</ele>
        <time>2022-12-06T14:00:33Z</time>
      </trkpt>
      <trkpt lat="36.865676" lon="-3.591878">
        <ele>642.713</ele>
        <time>2022-12-06T14:00:34Z</time>
      </trkpt>
      <trkpt lat="36.865648" lon="-3.591808">
        <ele>642.020</ele>
        <time>2022-12-06T14:00:37Z</time>
      </trkpt>
      <trkpt lat="36.865650" lon="-3.591705">
        <ele>640.751</ele>
        <time>2022-12-06T14:00:43Z</time>
      </trkpt>
      <trkpt lat="36.865645" lon="-3.591686">
        <ele>640.417</ele>
        <time>2022-12-06T14:00:44Z</time>
      </trkpt>
      <trkpt lat="36.865615" lon="-3.591668">
        <ele>639.287</ele>
        <time>2022-12-06T14:00:46Z</time>
      </trkpt>
      <trkpt lat="36.865594" lon="-3.591676">
        <ele>638.715</ele>
        <time>2022-12-06T14:00:47Z</time>
      </trkpt>
      <trkpt lat="36.865506" lon="-3.591715">
        <ele>638.209</ele>
        <time>2022-12-06T14:00:52Z</time>
      </trkpt>
      <trkpt lat="36.865453" lon="-3.591726">
        <ele>638.252</ele>
        <time>2022-12-06T14:00:55Z</time>
      </trkpt>
      <trkpt lat="36.865366" lon="-3.591802">
        <ele>638.223</ele>
        <time>2022-12-06T14:01:01Z</time>
      </trkpt>
      <trkpt lat="36.865295" lon="-3.591848">
        <ele>637.021</ele>
        <time>2022-12-06T14:01:04Z</time>
      </trkpt>
      <trkpt lat="36.865255" lon="-3.591872">
        <ele>635.738</ele>
        <time>2022-12-06T14:01:06Z</time>
      </trkpt>
      <trkpt lat="36.865191" lon="-3.591909">
        <ele>634.756</ele>
        <time>2022-12-06T14:01:09Z</time>
      </trkpt>
      <trkpt lat="36.865128" lon="-3.591950">
        <ele>633.510</ele>
        <time>2022-12-06T14:01:12Z</time>
      </trkpt>
      <trkpt lat="36.865052" lon="-3.592000">
        <ele>632.461</ele>
        <time>2022-12-06T14:01:15Z</time>
      </trkpt>
      <trkpt lat="36.864981" lon="-3.592035">
        <ele>631.048</ele>
        <time>2022-12-06T14:01:18Z</time>
      </trkpt>
      <trkpt lat="36.864900" lon="-3.592034">
        <ele>630.069</ele>
        <time>2022-12-06T14:01:21Z</time>
      </trkpt>
      <trkpt lat="36.864846" lon="-3.592025">
        <ele>628.736</ele>
        <time>2022-12-06T14:01:25Z</time>
      </trkpt>
      <trkpt lat="36.864841" lon="-3.592024">
        <ele>628.517</ele>
        <time>2022-12-06T14:01:26Z</time>
      </trkpt>
      <trkpt lat="36.864835" lon="-3.592032">
        <ele>627.518</ele>
        <time>2022-12-06T14:01:32Z</time>
      </trkpt>
      <trkpt lat="36.864664" lon="-3.592037">
        <ele>627.709</ele>
        <time>2022-12-06T14:01:44Z</time>
      </trkpt>
      <trkpt lat="36.864564" lon="-3.592095">
        <ele>626.494</ele>
        <time>2022-12-06T14:01:48Z</time>
      </trkpt>
      <trkpt lat="36.864459" lon="-3.592181">
        <ele>625.085</ele>
        <time>2022-12-06T14:01:52Z</time>
      </trkpt>
      <trkpt lat="36.864395" lon="-3.592225">
        <ele>623.463</ele>
        <time>2022-12-06T14:01:54Z</time>
      </trkpt>
      <trkpt lat="36.864334" lon="-3.592241">
        <ele>621.740</ele>
        <time>2022-12-06T14:01:56Z</time>
      </trkpt>
      <trkpt lat="36.864279" lon="-3.592253">
        <ele>620.758</ele>
        <time>2022-12-06T14:01:58Z</time>
      </trkpt>
      <trkpt lat="36.864203" lon="-3.592273">
        <ele>619.592</ele>
        <time>2022-12-06T14:02:01Z</time>
      </trkpt>
      <trkpt lat="36.864145" lon="-3.592304">
        <ele>618.433</ele>
        <time>2022-12-06T14:02:04Z</time>
      </trkpt>
      <trkpt lat="36.864074" lon="-3.592341">
        <ele>617.040</ele>
        <time>2022-12-06T14:02:07Z</time>
      </trkpt>
      <trkpt lat="36.864026" lon="-3.592364">
        <ele>615.571</ele>
        <time>2022-12-06T14:02:10Z</time>
      </trkpt>
      <trkpt lat="36.863996" lon="-3.592382">
        <ele>614.062</ele>
        <time>2022-12-06T14:02:12Z</time>
      </trkpt>
      <trkpt lat="36.863928" lon="-3.592399">
        <ele>612.783</ele>
        <time>2022-12-06T14:02:15Z</time>
      </trkpt>
      <trkpt lat="36.863855" lon="-3.592405">
        <ele>611.211</ele>
        <time>2022-12-06T14:02:19Z</time>
      </trkpt>
      <trkpt lat="36.863828" lon="-3.592415">
        <ele>609.009</ele>
        <time>2022-12-06T14:02:21Z</time>
      </trkpt>
      <trkpt lat="36.863783" lon="-3.592410">
        <ele>607.597</ele>
        <time>2022-12-06T14:02:23Z</time>
      </trkpt>
      <trkpt lat="36.863747" lon="-3.592404">
        <ele>606.498</ele>
        <time>2022-12-06T14:02:25Z</time>
      </trkpt>
      <trkpt lat="36.863707" lon="-3.592408">
        <ele>604.766</ele>
        <time>2022-12-06T14:02:27Z</time>
      </trkpt>
      <trkpt lat="36.863661" lon="-3.592413">
        <ele>603.783</ele>
        <time>2022-12-06T14:02:29Z</time>
      </trkpt>
      <trkpt lat="36.863617" lon="-3.592420">
        <ele>602.291</ele>
        <time>2022-12-06T14:02:31Z</time>
      </trkpt>
      <trkpt lat="36.863570" lon="-3.592416">
        <ele>601.075</ele>
        <time>2022-12-06T14:02:33Z</time>
      </trkpt>
      <trkpt lat="36.863527" lon="-3.592374">
        <ele>599.536</ele>
        <time>2022-12-06T14:02:35Z</time>
      </trkpt>
      <trkpt lat="36.863502" lon="-3.592320">
        <ele>598.413</ele>
        <time>2022-12-06T14:02:37Z</time>
      </trkpt>
      <trkpt lat="36.863506" lon="-3.592259">
        <ele>597.044</ele>
        <time>2022-12-06T14:02:40Z</time>
      </trkpt>
      <trkpt lat="36.863494" lon="-3.592268">
        <ele>595.777</ele>
        <time>2022-12-06T14:02:42Z</time>
      </trkpt>
      <trkpt lat="36.863485" lon="-3.592279">
        <ele>595.461</ele>
        <time>2022-12-06T14:02:43Z</time>
      </trkpt>
      <trkpt lat="36.863459" lon="-3.592288">
        <ele>594.727</ele>
        <time>2022-12-06T14:02:45Z</time>
      </trkpt>
      <trkpt lat="36.863425" lon="-3.592333">
        <ele>593.709</ele>
        <time>2022-12-06T14:02:48Z</time>
      </trkpt>
      <trkpt lat="36.863409" lon="-3.592298">
        <ele>592.528</ele>
        <time>2022-12-06T14:02:52Z</time>
      </trkpt>
      <trkpt lat="36.863419" lon="-3.592229">
        <ele>591.529</ele>
        <time>2022-12-06T14:02:55Z</time>
      </trkpt>
      <trkpt lat="36.863397" lon="-3.592108">
        <ele>590.087</ele>
        <time>2022-12-06T14:02:58Z</time>
      </trkpt>
      <trkpt lat="36.863386" lon="-3.592028">
        <ele>588.754</ele>
        <time>2022-12-06T14:03:00Z</time>
      </trkpt>
      <trkpt lat="36.863371" lon="-3.591908">
        <ele>587.562</ele>
        <time>2022-12-06T14:03:03Z</time>
      </trkpt>
      <trkpt lat="36.863365" lon="-3.591874">
        <ele>587.256</ele>
        <time>2022-12-06T14:03:04Z</time>
      </trkpt>
      <trkpt lat="36.863333" lon="-3.591769">
        <ele>586.557</ele>
        <time>2022-12-06T14:03:07Z</time>
      </trkpt>
      <trkpt lat="36.863268" lon="-3.591682">
        <ele>585.084</ele>
        <time>2022-12-06T14:03:10Z</time>
      </trkpt>
      <trkpt lat="36.863197" lon="-3.591638">
        <ele>584.015</ele>
        <time>2022-12-06T14:03:13Z</time>
      </trkpt>
      <trkpt lat="36.863123" lon="-3.591604">
        <ele>582.736</ele>
        <time>2022-12-06T14:03:16Z</time>
      </trkpt>
      <trkpt lat="36.863021" lon="-3.591571">
        <ele>581.417</ele>
        <time>2022-12-06T14:03:20Z</time>
      </trkpt>
      <trkpt lat="36.862892" lon="-3.591560">
        <ele>580.218</ele>
        <time>2022-12-06T14:03:24Z</time>
      </trkpt>
      <trkpt lat="36.862864" lon="-3.591560">
        <ele>579.209</ele>
        <time>2022-12-06T14:03:26Z</time>
      </trkpt>
      <trkpt lat="36.862810" lon="-3.591585">
        <ele>577.554</ele>
        <time>2022-12-06T14:03:29Z</time>
      </trkpt>
      <trkpt lat="36.862745" lon="-3.591591">
        <ele>576.095</ele>
        <time>2022-12-06T14:03:32Z</time>
      </trkpt>
      <trkpt lat="36.862699" lon="-3.591584">
        <ele>574.523</ele>
        <time>2022-12-06T14:03:34Z</time>
      </trkpt>
      <trkpt lat="36.862656" lon="-3.591558">
        <ele>573.220</ele>
        <time>2022-12-06T14:03:36Z</time>
      </trkpt>
      <trkpt lat="36.862610" lon="-3.591530">
        <ele>571.568</ele>
        <time>2022-12-06T14:03:38Z</time>
      </trkpt>
      <trkpt lat="36.862571" lon="-3.591498">
        <ele>570.422</ele>
        <time>2022-12-06T14:03:40Z</time>
      </trkpt>
      <trkpt lat="36.862538" lon="-3.591456">
        <ele>569.073</ele>
        <time>2022-12-06T14:03:42Z</time>
      </trkpt>
      <trkpt lat="36.862499" lon="-3.591407">
        <ele>567.450</ele>
        <time>2022-12-06T14:03:44Z</time>
      </trkpt>
      <trkpt lat="36.862456" lon="-3.591372">
        <ele>566.221</ele>
        <time>2022-12-06T14:03:46Z</time>
      </trkpt>
      <trkpt lat="36.862399" lon="-3.591322">
        <ele>564.741</ele>
        <time>2022-12-06T14:03:49Z</time>
      </trkpt>
      <trkpt lat="36.862348" lon="-3.591298">
        <ele>563.781</ele>
        <time>2022-12-06T14:03:52Z</time>
      </trkpt>
      <trkpt lat="36.862288" lon="-3.591290">
        <ele>562.409</ele>
        <time>2022-12-06T14:03:54Z</time>
      </trkpt>
      <trkpt lat="36.862241" lon="-3.591271">
        <ele>561.209</ele>
        <time>2022-12-06T14:03:56Z</time>
      </trkpt>
      <trkpt lat="36.862182" lon="-3.591210">
        <ele>559.785</ele>
        <time>2022-12-06T14:03:59Z</time>
      </trkpt>
      <trkpt lat="36.862120" lon="-3.591149">
        <ele>558.526</ele>
        <time>2022-12-06T14:04:02Z</time>
      </trkpt>
      <trkpt lat="36.862055" lon="-3.591121">
        <ele>557.574</ele>
        <time>2022-12-06T14:04:05Z</time>
      </trkpt>
      <trkpt lat="36.861976" lon="-3.591061">
        <ele>556.451</ele>
        <time>2022-12-06T14:04:08Z</time>
      </trkpt>
      <trkpt lat="36.861879" lon="-3.590989">
        <ele>555.239</ele>
        <time>2022-12-06T14:04:13Z</time>
      </trkpt>
      <trkpt lat="36.861798" lon="-3.590997">
        <ele>554.063</ele>
        <time>2022-12-06T14:04:16Z</time>
      </trkpt>
      <trkpt lat="36.861709" lon="-3.591016">
        <ele>552.524</ele>
        <time>2022-12-06T14:04:19Z</time>
      </trkpt>
      <trkpt lat="36.861680" lon="-3.591029">
        <ele>552.081</ele>
        <time>2022-12-06T14:04:20Z</time>
      </trkpt>
      <trkpt lat="36.861658" lon="-3.591043">
        <ele>551.562</ele>
        <time>2022-12-06T14:04:21Z</time>
      </trkpt>
      <trkpt lat="36.861579" lon="-3.591111">
        <ele>550.433</ele>
        <time>2022-12-06T14:04:24Z</time>
      </trkpt>
      <trkpt lat="36.861501" lon="-3.591184">
        <ele>549.223</ele>
        <time>2022-12-06T14:04:27Z</time>
      </trkpt>
      <trkpt lat="36.861412" lon="-3.591220">
        <ele>548.215</ele>
        <time>2022-12-06T14:04:30Z</time>
      </trkpt>
      <trkpt lat="36.861360" lon="-3.591276">
        <ele>547.009</ele>
        <time>2022-12-06T14:04:33Z</time>
      </trkpt>
      <trkpt lat="36.861319" lon="-3.591314">
        <ele>546.084</ele>
        <time>2022-12-06T14:04:36Z</time>
      </trkpt>
      <trkpt lat="36.861314" lon="-3.591307">
        <ele>545.755</ele>
        <time>2022-12-06T14:04:37Z</time>
      </trkpt>
      <trkpt lat="36.861184" lon="-3.591114">
        <ele>545.753</ele>
        <time>2022-12-06T14:04:48Z</time>
      </trkpt>
      <trkpt lat="36.861189" lon="-3.591030">
        <ele>545.450</ele>
        <time>2022-12-06T14:04:51Z</time>
      </trkpt>
      <trkpt lat="36.861194" lon="-3.590964">
        <ele>544.798</ele>
        <time>2022-12-06T14:04:55Z</time>
      </trkpt>
      <trkpt lat="36.861189" lon="-3.590954">
        <ele>545.072</ele>
        <time>2022-12-06T14:04:56Z</time>
      </trkpt>
      <trkpt lat="36.861184" lon="-3.590943">
        <ele>545.083</ele>
        <time>2022-12-06T14:04:58Z</time>
      </trkpt>
      <trkpt lat="36.861161" lon="-3.590907">
        <ele>545.070</ele>
        <time>2022-12-06T14:05:03Z</time>
      </trkpt>
      <trkpt lat="36.861148" lon="-3.590838">
        <ele>545.221</ele>
        <time>2022-12-06T14:05:08Z</time>
      </trkpt>
      <trkpt lat="36.861119" lon="-3.590849">
        <ele>546.053</ele>
        <time>2022-12-06T14:05:11Z</time>
      </trkpt>
      <trkpt lat="36.860948" lon="-3.590934">
        <ele>545.704</ele>
        <time>2022-12-06T14:05:23Z</time>
      </trkpt>
      <trkpt lat="36.860930" lon="-3.590944">
        <ele>545.714</ele>
        <time>2022-12-06T14:05:25Z</time>
      </trkpt>
      <trkpt lat="36.860775" lon="-3.590922">
        <ele>547.009</ele>
        <time>2022-12-06T14:05:37Z</time>
      </trkpt>
      <trkpt lat="36.860624" lon="-3.590910">
        <ele>548.066</ele>
        <time>2022-12-06T14:05:46Z</time>
      </trkpt>
      <trkpt lat="36.860568" lon="-3.590909">
        <ele>548.777</ele>
        <time>2022-12-06T14:05:50Z</time>
      </trkpt>
      <trkpt lat="36.860552" lon="-3.590912">
        <ele>549.235</ele>
        <time>2022-12-06T14:05:51Z</time>
      </trkpt>
      <trkpt lat="36.860447" lon="-3.590966">
        <ele>550.282</ele>
        <time>2022-12-06T14:05:58Z</time>
      </trkpt>
      <trkpt lat="36.860359" lon="-3.591023">
        <ele>551.280</ele>
        <time>2022-12-06T14:06:05Z</time>
      </trkpt>
      <trkpt lat="36.860298" lon="-3.591068">
        <ele>552.444</ele>
        <time>2022-12-06T14:06:11Z</time>
      </trkpt>
      <trkpt lat="36.860245" lon="-3.591113">
        <ele>553.585</ele>
        <time>2022-12-06T14:06:16Z</time>
      </trkpt>
      <trkpt lat="36.860208" lon="-3.591159">
        <ele>554.782</ele>
        <time>2022-12-06T14:06:21Z</time>
      </trkpt>
      <trkpt lat="36.860181" lon="-3.591216">
        <ele>555.713</ele>
        <time>2022-12-06T14:06:27Z</time>
      </trkpt>
      <trkpt lat="36.860027" lon="-3.591325">
        <ele>556.524</ele>
        <time>2022-12-06T14:06:41Z</time>
      </trkpt>
      <trkpt lat="36.859989" lon="-3.591339">
        <ele>556.704</ele>
        <time>2022-12-06T14:06:44Z</time>
      </trkpt>
      <trkpt lat="36.859885" lon="-3.591384">
        <ele>558.014</ele>
        <time>2022-12-06T14:06:52Z</time>
      </trkpt>
      <trkpt lat="36.859820" lon="-3.591395">
        <ele>559.009</ele>
        <time>2022-12-06T14:06:57Z</time>
      </trkpt>
      <trkpt lat="36.859738" lon="-3.591396">
        <ele>560.293</ele>
        <time>2022-12-06T14:07:04Z</time>
      </trkpt>
      <trkpt lat="36.859656" lon="-3.591368">
        <ele>561.224</ele>
        <time>2022-12-06T14:07:11Z</time>
      </trkpt>
      <trkpt lat="36.859593" lon="-3.591318">
        <ele>562.412</ele>
        <time>2022-12-06T14:07:18Z</time>
      </trkpt>
      <trkpt lat="36.859550" lon="-3.591291">
        <ele>563.459</ele>
        <time>2022-12-06T14:07:23Z</time>
      </trkpt>
      <trkpt lat="36.859522" lon="-3.591291">
        <ele>563.727</ele>
        <time>2022-12-06T14:07:25Z</time>
      </trkpt>
      <trkpt lat="36.859467" lon="-3.591301">
        <ele>564.461</ele>
        <time>2022-12-06T14:07:29Z</time>
      </trkpt>
      <trkpt lat="36.859319" lon="-3.591352">
        <ele>565.532</ele>
        <time>2022-12-06T14:07:40Z</time>
      </trkpt>
      <trkpt lat="36.859134" lon="-3.591406">
        <ele>566.279</ele>
        <time>2022-12-06T14:07:53Z</time>
      </trkpt>
      <trkpt lat="36.859077" lon="-3.591407">
        <ele>566.530</ele>
        <time>2022-12-06T14:07:57Z</time>
      </trkpt>
      <trkpt lat="36.858892" lon="-3.591352">
        <ele>567.537</ele>
        <time>2022-12-06T14:08:11Z</time>
      </trkpt>
      <trkpt lat="36.858870" lon="-3.591345">
        <ele>567.549</ele>
        <time>2022-12-06T14:08:13Z</time>
      </trkpt>
      <trkpt lat="36.858787" lon="-3.591278">
        <ele>568.713</ele>
        <time>2022-12-06T14:08:20Z</time>
      </trkpt>
      <trkpt lat="36.858727" lon="-3.591237">
        <ele>569.709</ele>
        <time>2022-12-06T14:08:25Z</time>
      </trkpt>
      <trkpt lat="36.858631" lon="-3.591162">
        <ele>571.044</ele>
        <time>2022-12-06T14:08:32Z</time>
      </trkpt>
      <trkpt lat="36.858564" lon="-3.591093">
        <ele>572.075</ele>
        <time>2022-12-06T14:08:39Z</time>
      </trkpt>
      <trkpt lat="36.858493" lon="-3.591039">
        <ele>573.033</ele>
        <time>2022-12-06T14:08:45Z</time>
      </trkpt>
      <trkpt lat="36.858345" lon="-3.590903">
        <ele>573.020</ele>
        <time>2022-12-06T14:08:55Z</time>
      </trkpt>
      <trkpt lat="36.858239" lon="-3.590936">
        <ele>571.748</ele>
        <time>2022-12-06T14:08:59Z</time>
      </trkpt>
      <trkpt lat="36.858157" lon="-3.590964">
        <ele>570.472</ele>
        <time>2022-12-06T14:09:02Z</time>
      </trkpt>
      <trkpt lat="36.858011" lon="-3.591035">
        <ele>569.433</ele>
        <time>2022-12-06T14:09:08Z</time>
      </trkpt>
      <trkpt lat="36.857900" lon="-3.591066">
        <ele>568.480</ele>
        <time>2022-12-06T14:09:12Z</time>
      </trkpt>
      <trkpt lat="36.857698" lon="-3.591076">
        <ele>567.531</ele>
        <time>2022-12-06T14:09:20Z</time>
      </trkpt>
      <trkpt lat="36.857655" lon="-3.591089">
        <ele>567.032</ele>
        <time>2022-12-06T14:09:22Z</time>
      </trkpt>
      <trkpt lat="36.857576" lon="-3.591060">
        <ele>565.792</ele>
        <time>2022-12-06T14:09:28Z</time>
      </trkpt>
      <trkpt lat="36.857537" lon="-3.591022">
        <ele>564.511</ele>
        <time>2022-12-06T14:09:31Z</time>
      </trkpt>
      <trkpt lat="36.857507" lon="-3.590964">
        <ele>563.509</ele>
        <time>2022-12-06T14:09:34Z</time>
      </trkpt>
      <trkpt lat="36.857426" lon="-3.590849">
        <ele>562.474</ele>
        <time>2022-12-06T14:09:40Z</time>
      </trkpt>
      <trkpt lat="36.857384" lon="-3.590796">
        <ele>561.295</ele>
        <time>2022-12-06T14:09:44Z</time>
      </trkpt>
      <trkpt lat="36.857357" lon="-3.590601">
        <ele>560.453</ele>
        <time>2022-12-06T14:09:54Z</time>
      </trkpt>
      <trkpt lat="36.857354" lon="-3.590605">
        <ele>560.220</ele>
        <time>2022-12-06T14:09:55Z</time>
      </trkpt>
      <trkpt lat="36.857328" lon="-3.590620">
        <ele>559.258</ele>
        <time>2022-12-06T14:09:58Z</time>
      </trkpt>
      <trkpt lat="36.857291" lon="-3.590617">
        <ele>558.252</ele>
        <time>2022-12-06T14:10:01Z</time>
      </trkpt>
      <trkpt lat="36.857279" lon="-3.590591">
        <ele>556.723</ele>
        <time>2022-12-06T14:10:04Z</time>
      </trkpt>
      <trkpt lat="36.857269" lon="-3.590577">
        <ele>556.470</ele>
        <time>2022-12-06T14:10:05Z</time>
      </trkpt>
      <trkpt lat="36.857244" lon="-3.590554">
        <ele>555.591</ele>
        <time>2022-12-06T14:10:07Z</time>
      </trkpt>
      <trkpt lat="36.857167" lon="-3.590515">
        <ele>554.569</ele>
        <time>2022-12-06T14:10:10Z</time>
      </trkpt>
      <trkpt lat="36.857059" lon="-3.590540">
        <ele>553.004</ele>
        <time>2022-12-06T14:10:14Z</time>
      </trkpt>
      <trkpt lat="36.856961" lon="-3.590644">
        <ele>551.724</ele>
        <time>2022-12-06T14:10:18Z</time>
      </trkpt>
      <trkpt lat="36.856829" lon="-3.590781">
        <ele>550.509</ele>
        <time>2022-12-06T14:10:26Z</time>
      </trkpt>
      <trkpt lat="36.856757" lon="-3.590847">
        <ele>549.237</ele>
        <time>2022-12-06T14:10:31Z</time>
      </trkpt>
      <trkpt lat="36.856688" lon="-3.590824">
        <ele>548.598</ele>
        <time>2022-12-06T14:10:35Z</time>
      </trkpt>
      <trkpt lat="36.856602" lon="-3.590725">
        <ele>548.276</ele>
        <time>2022-12-06T14:10:40Z</time>
      </trkpt>
      <trkpt lat="36.856563" lon="-3.590637">
        <ele>547.213</ele>
        <time>2022-12-06T14:10:44Z</time>
      </trkpt>
      <trkpt lat="36.856540" lon="-3.590549">
        <ele>546.561</ele>
        <time>2022-12-06T14:10:49Z</time>
      </trkpt>
      <trkpt lat="36.856446" lon="-3.590413">
        <ele>546.265</ele>
        <time>2022-12-06T14:10:55Z</time>
      </trkpt>
      <trkpt lat="36.856395" lon="-3.590333">
        <ele>545.096</ele>
        <time>2022-12-06T14:10:59Z</time>
      </trkpt>
      <trkpt lat="36.856411" lon="-3.590267">
        <ele>544.213</ele>
        <time>2022-12-06T14:11:03Z</time>
      </trkpt>
      <trkpt lat="36.856402" lon="-3.590263">
        <ele>544.044</ele>
        <time>2022-12-06T14:11:04Z</time>
      </trkpt>
      <trkpt lat="36.856335" lon="-3.590255">
        <ele>542.783</ele>
        <time>2022-12-06T14:11:08Z</time>
      </trkpt>
      <trkpt lat="36.856327" lon="-3.590247">
        <ele>542.525</ele>
        <time>2022-12-06T14:11:09Z</time>
      </trkpt>
      <trkpt lat="36.856284" lon="-3.590234">
        <ele>541.417</ele>
        <time>2022-12-06T14:11:12Z</time>
      </trkpt>
      <trkpt lat="36.856186" lon="-3.590218">
        <ele>540.409</ele>
        <time>2022-12-06T14:11:16Z</time>
      </trkpt>
      <trkpt lat="36.856006" lon="-3.590224">
        <ele>539.429</ele>
        <time>2022-12-06T14:11:23Z</time>
      </trkpt>
      <trkpt lat="36.855980" lon="-3.590230">
        <ele>539.260</ele>
        <time>2022-12-06T14:11:24Z</time>
      </trkpt>
      <trkpt lat="36.855951" lon="-3.590237">
        <ele>539.098</ele>
        <time>2022-12-06T14:11:25Z</time>
      </trkpt>
      <trkpt lat="36.855812" lon="-3.590252">
        <ele>538.045</ele>
        <time>2022-12-06T14:11:30Z</time>
      </trkpt>
      <trkpt lat="36.855626" lon="-3.590198">
        <ele>537.083</ele>
        <time>2022-12-06T14:11:40Z</time>
      </trkpt>
      <trkpt lat="36.855435" lon="-3.590185">
        <ele>536.767</ele>
        <time>2022-12-06T14:11:49Z</time>
      </trkpt>
      <trkpt lat="36.855402" lon="-3.590174">
        <ele>537.448</ele>
        <time>2022-12-06T14:11:52Z</time>
      </trkpt>
      <trkpt lat="36.855287" lon="-3.589994">
        <ele>537.215</ele>
        <time>2022-12-06T14:12:01Z</time>
      </trkpt>
      <trkpt lat="36.855220" lon="-3.589851">
        <ele>535.726</ele>
        <time>2022-12-06T14:12:06Z</time>
      </trkpt>
      <trkpt lat="36.855216" lon="-3.589802">
        <ele>534.579</ele>
        <time>2022-12-06T14:12:08Z</time>
      </trkpt>
      <trkpt lat="36.855213" lon="-3.589754">
        <ele>534.405</ele>
        <time>2022-12-06T14:12:10Z</time>
      </trkpt>
      <trkpt lat="36.855220" lon="-3.589591">
        <ele>533.425</ele>
        <time>2022-12-06T14:12:17Z</time>
      </trkpt>
      <trkpt lat="36.855224" lon="-3.589569">
        <ele>533.209</ele>
        <time>2022-12-06T14:12:18Z</time>
      </trkpt>
      <trkpt lat="36.855237" lon="-3.589539">
        <ele>532.248</ele>
        <time>2022-12-06T14:12:20Z</time>
      </trkpt>
      <trkpt lat="36.855237" lon="-3.589411">
        <ele>531.079</ele>
        <time>2022-12-06T14:12:26Z</time>
      </trkpt>
      <trkpt lat="36.855236" lon="-3.589388">
        <ele>529.787</ele>
        <time>2022-12-06T14:12:28Z</time>
      </trkpt>
      <trkpt lat="36.855225" lon="-3.589406">
        <ele>528.744</ele>
        <time>2022-12-06T14:12:30Z</time>
      </trkpt>
      <trkpt lat="36.855203" lon="-3.589393">
        <ele>527.542</ele>
        <time>2022-12-06T14:12:33Z</time>
      </trkpt>
      <trkpt lat="36.855197" lon="-3.589383">
        <ele>527.476</ele>
        <time>2022-12-06T14:12:34Z</time>
      </trkpt>
      <trkpt lat="36.855192" lon="-3.589362">
        <ele>526.717</ele>
        <time>2022-12-06T14:12:36Z</time>
      </trkpt>
      <trkpt lat="36.855193" lon="-3.589347">
        <ele>526.494</ele>
        <time>2022-12-06T14:12:37Z</time>
      </trkpt>
      <trkpt lat="36.855187" lon="-3.589328">
        <ele>526.245</ele>
        <time>2022-12-06T14:12:38Z</time>
      </trkpt>
      <trkpt lat="36.855184" lon="-3.589287">
        <ele>525.222</ele>
        <time>2022-12-06T14:12:41Z</time>
      </trkpt>
      <trkpt lat="36.855182" lon="-3.589262">
        <ele>524.262</ele>
        <time>2022-12-06T14:12:43Z</time>
      </trkpt>
      <trkpt lat="36.855183" lon="-3.589251">
        <ele>523.508</ele>
        <time>2022-12-06T14:12:44Z</time>
      </trkpt>
      <trkpt lat="36.855164" lon="-3.589279">
        <ele>522.509</ele>
        <time>2022-12-06T14:12:47Z</time>
      </trkpt>
      <trkpt lat="36.855129" lon="-3.589273">
        <ele>521.293</ele>
        <time>2022-12-06T14:12:50Z</time>
      </trkpt>
      <trkpt lat="36.855120" lon="-3.589260">
        <ele>520.494</ele>
        <time>2022-12-06T14:12:51Z</time>
      </trkpt>
      <trkpt lat="36.855118" lon="-3.589252">
        <ele>519.712</ele>
        <time>2022-12-06T14:12:52Z</time>
      </trkpt>
      <trkpt lat="36.855104" lon="-3.589226">
        <ele>519.059</ele>
        <time>2022-12-06T14:12:54Z</time>
      </trkpt>
      <trkpt lat="36.855102" lon="-3.589209">
        <ele>518.737</ele>
        <time>2022-12-06T14:12:55Z</time>
      </trkpt>
      <trkpt lat="36.855135" lon="-3.589139">
        <ele>518.081</ele>
        <time>2022-12-06T14:12:59Z</time>
      </trkpt>
      <trkpt lat="36.855140" lon="-3.589122">
        <ele>517.542</ele>
        <time>2022-12-06T14:13:00Z</time>
      </trkpt>
      <trkpt lat="36.855183" lon="-3.589053">
        <ele>516.249</ele>
        <time>2022-12-06T14:13:04Z</time>
      </trkpt>
      <trkpt lat="36.855186" lon="-3.589012">
        <ele>515.010</ele>
        <time>2022-12-06T14:13:06Z</time>
      </trkpt>
      <trkpt lat="36.855185" lon="-3.588991">
        <ele>514.045</ele>
        <time>2022-12-06T14:13:08Z</time>
      </trkpt>
      <trkpt lat="36.855171" lon="-3.589002">
        <ele>513.447</ele>
        <time>2022-12-06T14:13:09Z</time>
      </trkpt>
      <trkpt lat="36.855138" lon="-3.589052">
        <ele>512.411</ele>
        <time>2022-12-06T14:13:12Z</time>
      </trkpt>
      <trkpt lat="36.855081" lon="-3.589097">
        <ele>511.009</ele>
        <time>2022-12-06T14:13:17Z</time>
      </trkpt>
      <trkpt lat="36.855073" lon="-3.589096">
        <ele>510.695</ele>
        <time>2022-12-06T14:13:18Z</time>
      </trkpt>
      <trkpt lat="36.855059" lon="-3.589091">
        <ele>510.076</ele>
        <time>2022-12-06T14:13:20Z</time>
      </trkpt>
      <trkpt lat="36.855044" lon="-3.589065">
        <ele>509.664</ele>
        <time>2022-12-06T14:13:22Z</time>
      </trkpt>
      <trkpt lat="36.855042" lon="-3.589041">
        <ele>509.231</ele>
        <time>2022-12-06T14:13:24Z</time>
      </trkpt>
      <trkpt lat="36.855041" lon="-3.589029">
        <ele>508.739</ele>
        <time>2022-12-06T14:13:25Z</time>
      </trkpt>
      <trkpt lat="36.855026" lon="-3.589008">
        <ele>508.293</ele>
        <time>2022-12-06T14:13:27Z</time>
      </trkpt>
      <trkpt lat="36.855028" lon="-3.588986">
        <ele>507.334</ele>
        <time>2022-12-06T14:13:29Z</time>
      </trkpt>
      <trkpt lat="36.855048" lon="-3.588948">
        <ele>506.661</ele>
        <time>2022-12-06T14:13:31Z</time>
      </trkpt>
      <trkpt lat="36.855049" lon="-3.588943">
        <ele>506.262</ele>
        <time>2022-12-06T14:13:32Z</time>
      </trkpt>
      <trkpt lat="36.855019" lon="-3.588986">
        <ele>504.731</ele>
        <time>2022-12-06T14:13:36Z</time>
      </trkpt>
      <trkpt lat="36.854995" lon="-3.589016">
        <ele>503.761</ele>
        <time>2022-12-06T14:13:40Z</time>
      </trkpt>
      <trkpt lat="36.854955" lon="-3.589020">
        <ele>502.607</ele>
        <time>2022-12-06T14:13:44Z</time>
      </trkpt>
      <trkpt lat="36.854929" lon="-3.588973">
        <ele>501.309</ele>
        <time>2022-12-06T14:13:47Z</time>
      </trkpt>
      <trkpt lat="36.854916" lon="-3.588941">
        <ele>500.754</ele>
        <time>2022-12-06T14:13:49Z</time>
      </trkpt>
      <trkpt lat="36.854915" lon="-3.588916">
        <ele>500.225</ele>
        <time>2022-12-06T14:13:51Z</time>
      </trkpt>
      <trkpt lat="36.854907" lon="-3.588900">
        <ele>500.043</ele>
        <time>2022-12-06T14:13:52Z</time>
      </trkpt>
      <trkpt lat="36.854887" lon="-3.588891">
        <ele>499.080</ele>
        <time>2022-12-06T14:13:55Z</time>
      </trkpt>
      <trkpt lat="36.854874" lon="-3.588920">
        <ele>498.698</ele>
        <time>2022-12-06T14:13:57Z</time>
      </trkpt>
      <trkpt lat="36.854859" lon="-3.588945">
        <ele>498.232</ele>
        <time>2022-12-06T14:13:59Z</time>
      </trkpt>
      <trkpt lat="36.854858" lon="-3.588947">
        <ele>498.023</ele>
        <time>2022-12-06T14:14:00Z</time>
      </trkpt>
      <trkpt lat="36.854837" lon="-3.588925">
        <ele>497.640</ele>
        <time>2022-12-06T14:14:02Z</time>
      </trkpt>
      <trkpt lat="36.854814" lon="-3.588909">
        <ele>497.071</ele>
        <time>2022-12-06T14:14:04Z</time>
      </trkpt>
      <trkpt lat="36.854802" lon="-3.588911">
        <ele>496.339</ele>
        <time>2022-12-06T14:14:05Z</time>
      </trkpt>
      <trkpt lat="36.854771" lon="-3.588928">
        <ele>495.601</ele>
        <time>2022-12-06T14:14:07Z</time>
      </trkpt>
      <trkpt lat="36.854775" lon="-3.588946">
        <ele>495.221</ele>
        <time>2022-12-06T14:14:08Z</time>
      </trkpt>
      <trkpt lat="36.854790" lon="-3.588961">
        <ele>494.609</ele>
        <time>2022-12-06T14:14:10Z</time>
      </trkpt>
      <trkpt lat="36.854771" lon="-3.588973">
        <ele>493.794</ele>
        <time>2022-12-06T14:14:12Z</time>
      </trkpt>
      <trkpt lat="36.854743" lon="-3.589009">
        <ele>492.625</ele>
        <time>2022-12-06T14:14:15Z</time>
      </trkpt>
      <trkpt lat="36.854742" lon="-3.589032">
        <ele>492.343</ele>
        <time>2022-12-06T14:14:16Z</time>
      </trkpt>
      <trkpt lat="36.854744" lon="-3.589052">
        <ele>492.080</ele>
        <time>2022-12-06T14:14:17Z</time>
      </trkpt>
      <trkpt lat="36.854740" lon="-3.589072">
        <ele>491.628</ele>
        <time>2022-12-06T14:14:18Z</time>
      </trkpt>
      <trkpt lat="36.854734" lon="-3.589086">
        <ele>490.392</ele>
        <time>2022-12-06T14:14:20Z</time>
      </trkpt>
      <trkpt lat="36.854715" lon="-3.589065">
        <ele>489.363</ele>
        <time>2022-12-06T14:14:23Z</time>
      </trkpt>
      <trkpt lat="36.854691" lon="-3.589042">
        <ele>488.750</ele>
        <time>2022-12-06T14:14:26Z</time>
      </trkpt>
      <trkpt lat="36.854686" lon="-3.589053">
        <ele>488.641</ele>
        <time>2022-12-06T14:14:27Z</time>
      </trkpt>
      <trkpt lat="36.854685" lon="-3.589063">
        <ele>488.389</ele>
        <time>2022-12-06T14:14:28Z</time>
      </trkpt>
      <trkpt lat="36.854670" lon="-3.589099">
        <ele>487.206</ele>
        <time>2022-12-06T14:14:32Z</time>
      </trkpt>
      <trkpt lat="36.854667" lon="-3.589095">
        <ele>486.626</ele>
        <time>2022-12-06T14:14:33Z</time>
      </trkpt>
      <trkpt lat="36.854665" lon="-3.589069">
        <ele>486.009</ele>
        <time>2022-12-06T14:14:35Z</time>
      </trkpt>
      <trkpt lat="36.854646" lon="-3.589097">
        <ele>485.069</ele>
        <time>2022-12-06T14:14:38Z</time>
      </trkpt>
      <trkpt lat="36.854641" lon="-3.589107">
        <ele>484.750</ele>
        <time>2022-12-06T14:14:39Z</time>
      </trkpt>
      <trkpt lat="36.854612" lon="-3.589117">
        <ele>483.788</ele>
        <time>2022-12-06T14:14:42Z</time>
      </trkpt>
      <trkpt lat="36.854607" lon="-3.589119">
        <ele>483.325</ele>
        <time>2022-12-06T14:14:43Z</time>
      </trkpt>
      <trkpt lat="36.854567" lon="-3.589098">
        <ele>482.633</ele>
        <time>2022-12-06T14:14:46Z</time>
      </trkpt>
      <trkpt lat="36.854554" lon="-3.589099">
        <ele>482.077</ele>
        <time>2022-12-06T14:14:47Z</time>
      </trkpt>
      <trkpt lat="36.854542" lon="-3.589105">
        <ele>481.698</ele>
        <time>2022-12-06T14:14:48Z</time>
      </trkpt>
      <trkpt lat="36.854529" lon="-3.589135">
        <ele>480.785</ele>
        <time>2022-12-06T14:14:50Z</time>
      </trkpt>
      <trkpt lat="36.854533" lon="-3.589146">
        <ele>480.396</ele>
        <time>2022-12-06T14:14:51Z</time>
      </trkpt>
      <trkpt lat="36.854541" lon="-3.589172">
        <ele>479.652</ele>
        <time>2022-12-06T14:14:54Z</time>
      </trkpt>
      <trkpt lat="36.854502" lon="-3.589164">
        <ele>478.353</ele>
        <time>2022-12-06T14:14:59Z</time>
      </trkpt>
      <trkpt lat="36.854462" lon="-3.589177">
        <ele>477.308</ele>
        <time>2022-12-06T14:15:02Z</time>
      </trkpt>
      <trkpt lat="36.854456" lon="-3.589181">
        <ele>477.009</ele>
        <time>2022-12-06T14:15:03Z</time>
      </trkpt>
      <trkpt lat="36.854415" lon="-3.589189">
        <ele>476.016</ele>
        <time>2022-12-06T14:15:06Z</time>
      </trkpt>
      <trkpt lat="36.854368" lon="-3.589200">
        <ele>474.797</ele>
        <time>2022-12-06T14:15:10Z</time>
      </trkpt>
      <trkpt lat="36.854360" lon="-3.589198">
        <ele>474.685</ele>
        <time>2022-12-06T14:15:11Z</time>
      </trkpt>
      <trkpt lat="36.854318" lon="-3.589192">
        <ele>473.652</ele>
        <time>2022-12-06T14:15:14Z</time>
      </trkpt>
      <trkpt lat="36.854261" lon="-3.589213">
        <ele>472.610</ele>
        <time>2022-12-06T14:15:18Z</time>
      </trkpt>
      <trkpt lat="36.854250" lon="-3.589211">
        <ele>472.314</ele>
        <time>2022-12-06T14:15:19Z</time>
      </trkpt>
      <trkpt lat="36.854215" lon="-3.589192">
        <ele>471.235</ele>
        <time>2022-12-06T14:15:22Z</time>
      </trkpt>
      <trkpt lat="36.854201" lon="-3.589189">
        <ele>470.742</ele>
        <time>2022-12-06T14:15:23Z</time>
      </trkpt>
      <trkpt lat="36.854184" lon="-3.589215">
        <ele>470.233</ele>
        <time>2022-12-06T14:15:26Z</time>
      </trkpt>
      <trkpt lat="36.854208" lon="-3.589272">
        <ele>469.061</ele>
        <time>2022-12-06T14:15:31Z</time>
      </trkpt>
      <trkpt lat="36.854179" lon="-3.589259">
        <ele>468.321</ele>
        <time>2022-12-06T14:15:34Z</time>
      </trkpt>
      <trkpt lat="36.854156" lon="-3.589254">
        <ele>467.713</ele>
        <time>2022-12-06T14:15:36Z</time>
      </trkpt>
      <trkpt lat="36.854112" lon="-3.589218">
        <ele>466.709</ele>
        <time>2022-12-06T14:15:40Z</time>
      </trkpt>
      <trkpt lat="36.854098" lon="-3.589213">
        <ele>466.687</ele>
        <time>2022-12-06T14:15:41Z</time>
      </trkpt>
      <trkpt lat="36.854022" lon="-3.589188">
        <ele>465.658</ele>
        <time>2022-12-06T14:15:47Z</time>
      </trkpt>
      <trkpt lat="36.853992" lon="-3.589164">
        <ele>464.336</ele>
        <time>2022-12-06T14:15:50Z</time>
      </trkpt>
      <trkpt lat="36.853958" lon="-3.589132">
        <ele>463.353</ele>
        <time>2022-12-06T14:15:53Z</time>
      </trkpt>
      <trkpt lat="36.853913" lon="-3.589082">
        <ele>462.321</ele>
        <time>2022-12-06T14:15:57Z</time>
      </trkpt>
      <trkpt lat="36.853847" lon="-3.589020">
        <ele>461.275</ele>
        <time>2022-12-06T14:16:02Z</time>
      </trkpt>
      <trkpt lat="36.853812" lon="-3.588987">
        <ele>459.726</ele>
        <time>2022-12-06T14:16:05Z</time>
      </trkpt>
      <trkpt lat="36.853785" lon="-3.588965">
        <ele>458.693</ele>
        <time>2022-12-06T14:16:07Z</time>
      </trkpt>
      <trkpt lat="36.853750" lon="-3.588941">
        <ele>457.374</ele>
        <time>2022-12-06T14:16:10Z</time>
      </trkpt>
      <trkpt lat="36.853731" lon="-3.588928">
        <ele>457.093</ele>
        <time>2022-12-06T14:16:12Z</time>
      </trkpt>
      <trkpt lat="36.853708" lon="-3.588910">
        <ele>456.365</ele>
        <time>2022-12-06T14:16:14Z</time>
      </trkpt>
      <trkpt lat="36.853680" lon="-3.588900">
        <ele>455.321</ele>
        <time>2022-12-06T14:16:16Z</time>
      </trkpt>
      <trkpt lat="36.853674" lon="-3.588895">
        <ele>455.009</ele>
        <time>2022-12-06T14:16:17Z</time>
      </trkpt>
      <trkpt lat="36.853627" lon="-3.588871">
        <ele>453.640</ele>
        <time>2022-12-06T14:16:21Z</time>
      </trkpt>
      <trkpt lat="36.853565" lon="-3.588848">
        <ele>452.691</ele>
        <time>2022-12-06T14:16:24Z</time>
      </trkpt>
      <trkpt lat="36.853521" lon="-3.588814">
        <ele>451.339</ele>
        <time>2022-12-06T14:16:27Z</time>
      </trkpt>
      <trkpt lat="36.853418" lon="-3.588718">
        <ele>450.286</ele>
        <time>2022-12-06T14:16:33Z</time>
      </trkpt>
      <trkpt lat="36.853350" lon="-3.588568">
        <ele>449.234</ele>
        <time>2022-12-06T14:16:40Z</time>
      </trkpt>
      <trkpt lat="36.853339" lon="-3.588563">
        <ele>448.728</ele>
        <time>2022-12-06T14:16:41Z</time>
      </trkpt>
      <trkpt lat="36.853326" lon="-3.588626">
        <ele>448.099</ele>
        <time>2022-12-06T14:16:44Z</time>
      </trkpt>
      <trkpt lat="36.853322" lon="-3.588695">
        <ele>446.696</ele>
        <time>2022-12-06T14:16:47Z</time>
      </trkpt>
      <trkpt lat="36.853325" lon="-3.588717">
        <ele>446.367</ele>
        <time>2022-12-06T14:16:48Z</time>
      </trkpt>
      <trkpt lat="36.853346" lon="-3.588787">
        <ele>445.651</ele>
        <time>2022-12-06T14:16:52Z</time>
      </trkpt>
      <trkpt lat="36.853289" lon="-3.588770">
        <ele>444.601</ele>
        <time>2022-12-06T14:16:56Z</time>
      </trkpt>
      <trkpt lat="36.853273" lon="-3.588761">
        <ele>444.311</ele>
        <time>2022-12-06T14:16:57Z</time>
      </trkpt>
      <trkpt lat="36.853227" lon="-3.588705">
        <ele>443.209</ele>
        <time>2022-12-06T14:17:01Z</time>
      </trkpt>
      <trkpt lat="36.853213" lon="-3.588692">
        <ele>443.036</ele>
        <time>2022-12-06T14:17:02Z</time>
      </trkpt>
      <trkpt lat="36.853188" lon="-3.588690">
        <ele>442.297</ele>
        <time>2022-12-06T14:17:04Z</time>
      </trkpt>
      <trkpt lat="36.853175" lon="-3.588684">
        <ele>441.735</ele>
        <time>2022-12-06T14:17:05Z</time>
      </trkpt>
      <trkpt lat="36.853157" lon="-3.588659">
        <ele>441.252</ele>
        <time>2022-12-06T14:17:07Z</time>
      </trkpt>
      <trkpt lat="36.853141" lon="-3.588637">
        <ele>440.060</ele>
        <time>2022-12-06T14:17:09Z</time>
      </trkpt>
      <trkpt lat="36.853128" lon="-3.588584">
        <ele>438.744</ele>
        <time>2022-12-06T14:17:12Z</time>
      </trkpt>
      <trkpt lat="36.853135" lon="-3.588476">
        <ele>437.335</ele>
        <time>2022-12-06T14:17:17Z</time>
      </trkpt>
      <trkpt lat="36.853103" lon="-3.588358">
        <ele>436.632</ele>
        <time>2022-12-06T14:17:22Z</time>
      </trkpt>
      <trkpt lat="36.853088" lon="-3.588343">
        <ele>436.273</ele>
        <time>2022-12-06T14:17:23Z</time>
      </trkpt>
      <trkpt lat="36.853020" lon="-3.588348">
        <ele>435.227</ele>
        <time>2022-12-06T14:17:27Z</time>
      </trkpt>
      <trkpt lat="36.852982" lon="-3.588351">
        <ele>434.368</ele>
        <time>2022-12-06T14:17:31Z</time>
      </trkpt>
      <trkpt lat="36.852981" lon="-3.588364">
        <ele>433.314</ele>
        <time>2022-12-06T14:17:32Z</time>
      </trkpt>
      <trkpt lat="36.852975" lon="-3.588395">
        <ele>431.609</ele>
        <time>2022-12-06T14:17:34Z</time>
      </trkpt>
      <trkpt lat="36.852977" lon="-3.588401">
        <ele>431.053</ele>
        <time>2022-12-06T14:17:35Z</time>
      </trkpt>
      <trkpt lat="36.852972" lon="-3.588400">
        <ele>430.614</ele>
        <time>2022-12-06T14:17:36Z</time>
      </trkpt>
      <trkpt lat="36.852966" lon="-3.588394">
        <ele>430.222</ele>
        <time>2022-12-06T14:17:37Z</time>
      </trkpt>
      <trkpt lat="36.852916" lon="-3.588387">
        <ele>429.359</ele>
        <time>2022-12-06T14:17:40Z</time>
      </trkpt>
      <trkpt lat="36.852848" lon="-3.588356">
        <ele>428.347</ele>
        <time>2022-12-06T14:17:43Z</time>
      </trkpt>
      <trkpt lat="36.852787" lon="-3.588328">
        <ele>427.791</ele>
        <time>2022-12-06T14:17:46Z</time>
      </trkpt>
      <trkpt lat="36.852772" lon="-3.588359">
        <ele>427.072</ele>
        <time>2022-12-06T14:17:48Z</time>
      </trkpt>
      <trkpt lat="36.852775" lon="-3.588388">
        <ele>426.279</ele>
        <time>2022-12-06T14:17:50Z</time>
      </trkpt>
      <trkpt lat="36.852762" lon="-3.588389">
        <ele>425.750</ele>
        <time>2022-12-06T14:17:51Z</time>
      </trkpt>
      <trkpt lat="36.852724" lon="-3.588361">
        <ele>424.748</ele>
        <time>2022-12-06T14:17:55Z</time>
      </trkpt>
      <trkpt lat="36.852667" lon="-3.588329">
        <ele>423.661</ele>
        <time>2022-12-06T14:17:59Z</time>
      </trkpt>
      <trkpt lat="36.852651" lon="-3.588331">
        <ele>423.017</ele>
        <time>2022-12-06T14:18:00Z</time>
      </trkpt>
      <trkpt lat="36.852626" lon="-3.588361">
        <ele>422.209</ele>
        <time>2022-12-06T14:18:02Z</time>
      </trkpt>
      <trkpt lat="36.852618" lon="-3.588369">
        <ele>421.725</ele>
        <time>2022-12-06T14:18:03Z</time>
      </trkpt>
      <trkpt lat="36.852599" lon="-3.588337">
        <ele>421.226</ele>
        <time>2022-12-06T14:18:05Z</time>
      </trkpt>
      <trkpt lat="36.852584" lon="-3.588250">
        <ele>419.754</ele>
        <time>2022-12-06T14:18:08Z</time>
      </trkpt>
      <trkpt lat="36.852581" lon="-3.588194">
        <ele>418.781</ele>
        <time>2022-12-06T14:18:10Z</time>
      </trkpt>
      <trkpt lat="36.852555" lon="-3.588110">
        <ele>417.759</ele>
        <time>2022-12-06T14:18:13Z</time>
      </trkpt>
      <trkpt lat="36.852517" lon="-3.588078">
        <ele>417.613</ele>
        <time>2022-12-06T14:18:15Z</time>
      </trkpt>
      <trkpt lat="36.852408" lon="-3.587971">
        <ele>416.654</ele>
        <time>2022-12-06T14:18:21Z</time>
      </trkpt>
      <trkpt lat="36.852330" lon="-3.587814">
        <ele>415.331</ele>
        <time>2022-12-06T14:18:28Z</time>
      </trkpt>
      <trkpt lat="36.852195" lon="-3.587648">
        <ele>414.312</ele>
        <time>2022-12-06T14:18:36Z</time>
      </trkpt>
      <trkpt lat="36.852110" lon="-3.587545">
        <ele>413.344</ele>
        <time>2022-12-06T14:18:40Z</time>
      </trkpt>
      <trkpt lat="36.851978" lon="-3.587384">
        <ele>412.205</ele>
        <time>2022-12-06T14:18:47Z</time>
      </trkpt>
      <trkpt lat="36.851879" lon="-3.587235">
        <ele>411.215</ele>
        <time>2022-12-06T14:18:53Z</time>
      </trkpt>
      <trkpt lat="36.851714" lon="-3.587172">
        <ele>410.009</ele>
        <time>2022-12-06T14:19:00Z</time>
      </trkpt>
      <trkpt lat="36.851590" lon="-3.587138">
        <ele>408.735</ele>
        <time>2022-12-06T14:19:06Z</time>
      </trkpt>
      <trkpt lat="36.851566" lon="-3.587097">
        <ele>407.666</ele>
        <time>2022-12-06T14:19:08Z</time>
      </trkpt>
      <trkpt lat="36.851567" lon="-3.587073">
        <ele>407.224</ele>
        <time>2022-12-06T14:19:09Z</time>
      </trkpt>
      <trkpt lat="36.851578" lon="-3.587022">
        <ele>406.271</ele>
        <time>2022-12-06T14:19:11Z</time>
      </trkpt>
      <trkpt lat="36.851602" lon="-3.586945">
        <ele>404.749</ele>
        <time>2022-12-06T14:19:14Z</time>
      </trkpt>
      <trkpt lat="36.851637" lon="-3.586856">
        <ele>403.373</ele>
        <time>2022-12-06T14:19:17Z</time>
      </trkpt>
      <trkpt lat="36.851692" lon="-3.586742">
        <ele>402.234</ele>
        <time>2022-12-06T14:19:21Z</time>
      </trkpt>
      <trkpt lat="36.851712" lon="-3.586657">
        <ele>401.781</ele>
        <time>2022-12-06T14:19:24Z</time>
      </trkpt>
      <trkpt lat="36.851647" lon="-3.586553">
        <ele>401.242</ele>
        <time>2022-12-06T14:19:28Z</time>
      </trkpt>
      <trkpt lat="36.851542" lon="-3.586556">
        <ele>400.053</ele>
        <time>2022-12-06T14:19:32Z</time>
      </trkpt>
      <trkpt lat="36.851415" lon="-3.586637">
        <ele>399.004</ele>
        <time>2022-12-06T14:19:38Z</time>
      </trkpt>
      <trkpt lat="36.851318" lon="-3.586676">
        <ele>397.614</ele>
        <time>2022-12-06T14:19:42Z</time>
      </trkpt>
      <trkpt lat="36.851269" lon="-3.586690">
        <ele>396.309</ele>
        <time>2022-12-06T14:19:44Z</time>
      </trkpt>
      <trkpt lat="36.851219" lon="-3.586698">
        <ele>395.216</ele>
        <time>2022-12-06T14:19:46Z</time>
      </trkpt>
      <trkpt lat="36.851135" lon="-3.586693">
        <ele>393.797</ele>
        <time>2022-12-06T14:19:49Z</time>
      </trkpt>
      <trkpt lat="36.851051" lon="-3.586681">
        <ele>392.385</ele>
        <time>2022-12-06T14:19:52Z</time>
      </trkpt>
      <trkpt lat="36.850972" lon="-3.586662">
        <ele>390.792</ele>
        <time>2022-12-06T14:19:55Z</time>
      </trkpt>
      <trkpt lat="36.850912" lon="-3.586645">
        <ele>389.320</ele>
        <time>2022-12-06T14:19:57Z</time>
      </trkpt>
      <trkpt lat="36.850822" lon="-3.586610">
        <ele>388.034</ele>
        <time>2022-12-06T14:20:00Z</time>
      </trkpt>
      <trkpt lat="36.850748" lon="-3.586584">
        <ele>386.765</ele>
        <time>2022-12-06T14:20:03Z</time>
      </trkpt>
      <trkpt lat="36.850688" lon="-3.586563">
        <ele>385.742</ele>
        <time>2022-12-06T14:20:05Z</time>
      </trkpt>
      <trkpt lat="36.850612" lon="-3.586526">
        <ele>384.783</ele>
        <time>2022-12-06T14:20:08Z</time>
      </trkpt>
      <trkpt lat="36.850544" lon="-3.586478">
        <ele>383.669</ele>
        <time>2022-12-06T14:20:11Z</time>
      </trkpt>
      <trkpt lat="36.850477" lon="-3.586419">
        <ele>382.304</ele>
        <time>2022-12-06T14:20:14Z</time>
      </trkpt>
      <trkpt lat="36.850388" lon="-3.586327">
        <ele>381.024</ele>
        <time>2022-12-06T14:20:18Z</time>
      </trkpt>
      <trkpt lat="36.850315" lon="-3.586271">
        <ele>379.709</ele>
        <time>2022-12-06T14:20:21Z</time>
      </trkpt>
      <trkpt lat="36.850211" lon="-3.586192">
        <ele>378.697</ele>
        <time>2022-12-06T14:20:25Z</time>
      </trkpt>
      <trkpt lat="36.850161" lon="-3.586153">
        <ele>377.328</ele>
        <time>2022-12-06T14:20:27Z</time>
      </trkpt>
      <trkpt lat="36.850095" lon="-3.586077">
        <ele>376.326</ele>
        <time>2022-12-06T14:20:30Z</time>
      </trkpt>
      <trkpt lat="36.850038" lon="-3.585952">
        <ele>375.233</ele>
        <time>2022-12-06T14:20:34Z</time>
      </trkpt>
      <trkpt lat="36.849973" lon="-3.585811">
        <ele>374.011</ele>
        <time>2022-12-06T14:20:39Z</time>
      </trkpt>
      <trkpt lat="36.849797" lon="-3.585717">
        <ele>372.735</ele>
        <time>2022-12-06T14:20:47Z</time>
      </trkpt>
      <trkpt lat="36.849666" lon="-3.585559">
        <ele>372.286</ele>
        <time>2022-12-06T14:20:56Z</time>
      </trkpt>
      <trkpt lat="36.849652" lon="-3.585518">
        <ele>371.753</ele>
        <time>2022-12-06T14:20:57Z</time>
      </trkpt>
      <trkpt lat="36.849612" lon="-3.585448">
        <ele>371.034</ele>
        <time>2022-12-06T14:20:59Z</time>
      </trkpt>
      <trkpt lat="36.849593" lon="-3.585430">
        <ele>370.347</ele>
        <time>2022-12-06T14:21:00Z</time>
      </trkpt>
      <trkpt lat="36.849576" lon="-3.585430">
        <ele>369.729</ele>
        <time>2022-12-06T14:21:01Z</time>
      </trkpt>
      <trkpt lat="36.849536" lon="-3.585463">
        <ele>369.321</ele>
        <time>2022-12-06T14:21:03Z</time>
      </trkpt>
      <trkpt lat="36.849367" lon="-3.585547">
        <ele>370.309</ele>
        <time>2022-12-06T14:21:14Z</time>
      </trkpt>
      <trkpt lat="36.849323" lon="-3.585611">
        <ele>371.765</ele>
        <time>2022-12-06T14:21:19Z</time>
      </trkpt>
      <trkpt lat="36.849240" lon="-3.585737">
        <ele>372.746</ele>
        <time>2022-12-06T14:21:27Z</time>
      </trkpt>
      <trkpt lat="36.849075" lon="-3.585836">
        <ele>373.264</ele>
        <time>2022-12-06T14:21:40Z</time>
      </trkpt>
      <trkpt lat="36.849049" lon="-3.585840">
        <ele>373.751</ele>
        <time>2022-12-06T14:21:42Z</time>
      </trkpt>
      <trkpt lat="36.848860" lon="-3.585834">
        <ele>374.649</ele>
        <time>2022-12-06T14:21:57Z</time>
      </trkpt>
      <trkpt lat="36.848809" lon="-3.585834">
        <ele>374.763</ele>
        <time>2022-12-06T14:22:00Z</time>
      </trkpt>
      <trkpt lat="36.848630" lon="-3.585761">
        <ele>375.774</ele>
        <time>2022-12-06T14:22:13Z</time>
      </trkpt>
      <trkpt lat="36.848604" lon="-3.585752">
        <ele>375.731</ele>
        <time>2022-12-06T14:22:15Z</time>
      </trkpt>
      <trkpt lat="36.848422" lon="-3.585720">
        <ele>376.652</ele>
        <time>2022-12-06T14:22:28Z</time>
      </trkpt>
      <trkpt lat="36.848399" lon="-3.585717">
        <ele>376.721</ele>
        <time>2022-12-06T14:22:30Z</time>
      </trkpt>
      <trkpt lat="36.848287" lon="-3.585678">
        <ele>378.041</ele>
        <time>2022-12-06T14:22:40Z</time>
      </trkpt>
      <trkpt lat="36.848127" lon="-3.585616">
        <ele>377.705</ele>
        <time>2022-12-06T14:22:48Z</time>
      </trkpt>
      <trkpt lat="36.848039" lon="-3.585565">
        <ele>376.709</ele>
        <time>2022-12-06T14:22:51Z</time>
      </trkpt>
      <trkpt lat="36.847971" lon="-3.585514">
        <ele>375.723</ele>
        <time>2022-12-06T14:22:54Z</time>
      </trkpt>
      <trkpt lat="36.847853" lon="-3.585491">
        <ele>374.644</ele>
        <time>2022-12-06T14:22:59Z</time>
      </trkpt>
      <trkpt lat="36.847719" lon="-3.585523">
        <ele>373.232</ele>
        <time>2022-12-06T14:23:05Z</time>
      </trkpt>
      <trkpt lat="36.847640" lon="-3.585575">
        <ele>372.349</ele>
        <time>2022-12-06T14:23:09Z</time>
      </trkpt>
      <trkpt lat="36.847614" lon="-3.585568">
        <ele>372.267</ele>
        <time>2022-12-06T14:23:10Z</time>
      </trkpt>
      <trkpt lat="36.847459" lon="-3.585483">
        <ele>371.071</ele>
        <time>2022-12-06T14:23:16Z</time>
      </trkpt>
      <trkpt lat="36.847410" lon="-3.585448">
        <ele>369.752</ele>
        <time>2022-12-06T14:23:18Z</time>
      </trkpt>
      <trkpt lat="36.847346" lon="-3.585406">
        <ele>368.369</ele>
        <time>2022-12-06T14:23:20Z</time>
      </trkpt>
      <trkpt lat="36.847263" lon="-3.585333">
        <ele>367.040</ele>
        <time>2022-12-06T14:23:23Z</time>
      </trkpt>
      <trkpt lat="36.847206" lon="-3.585262">
        <ele>366.035</ele>
        <time>2022-12-06T14:23:26Z</time>
      </trkpt>
      <trkpt lat="36.847175" lon="-3.585138">
        <ele>365.086</ele>
        <time>2022-12-06T14:23:30Z</time>
      </trkpt>
      <trkpt lat="36.847127" lon="-3.584977">
        <ele>363.714</ele>
        <time>2022-12-06T14:23:35Z</time>
      </trkpt>
      <trkpt lat="36.847020" lon="-3.584865">
        <ele>362.209</ele>
        <time>2022-12-06T14:23:40Z</time>
      </trkpt>
      <trkpt lat="36.846964" lon="-3.584839">
        <ele>361.064</ele>
        <time>2022-12-06T14:23:42Z</time>
      </trkpt>
      <trkpt lat="36.846903" lon="-3.584808">
        <ele>360.015</ele>
        <time>2022-12-06T14:23:44Z</time>
      </trkpt>
      <trkpt lat="36.846823" lon="-3.584772">
        <ele>358.683</ele>
        <time>2022-12-06T14:23:47Z</time>
      </trkpt>
      <trkpt lat="36.846766" lon="-3.584741">
        <ele>357.240</ele>
        <time>2022-12-06T14:23:49Z</time>
      </trkpt>
      <trkpt lat="36.846758" lon="-3.584714">
        <ele>356.628</ele>
        <time>2022-12-06T14:23:50Z</time>
      </trkpt>
      <trkpt lat="36.846760" lon="-3.584683">
        <ele>356.012</ele>
        <time>2022-12-06T14:23:51Z</time>
      </trkpt>
      <trkpt lat="36.846777" lon="-3.584623">
        <ele>355.673</ele>
        <time>2022-12-06T14:23:53Z</time>
      </trkpt>
      <trkpt lat="36.846888" lon="-3.584414">
        <ele>355.040</ele>
        <time>2022-12-06T14:24:01Z</time>
      </trkpt>
      <trkpt lat="36.846905" lon="-3.584345">
        <ele>355.041</ele>
        <time>2022-12-06T14:24:04Z</time>
      </trkpt>
      <trkpt lat="36.846780" lon="-3.584362">
        <ele>354.061</ele>
        <time>2022-12-06T14:24:10Z</time>
      </trkpt>
      <trkpt lat="36.846739" lon="-3.584384">
        <ele>352.621</ele>
        <time>2022-12-06T14:24:12Z</time>
      </trkpt>
      <trkpt lat="36.846641" lon="-3.584430">
        <ele>351.013</ele>
        <time>2022-12-06T14:24:16Z</time>
      </trkpt>
      <trkpt lat="36.846600" lon="-3.584432">
        <ele>349.209</ele>
        <time>2022-12-06T14:24:18Z</time>
      </trkpt>
      <trkpt lat="36.846587" lon="-3.584421">
        <ele>348.377</ele>
        <time>2022-12-06T14:24:19Z</time>
      </trkpt>
      <trkpt lat="36.846585" lon="-3.584411">
        <ele>347.728</ele>
        <time>2022-12-06T14:24:20Z</time>
      </trkpt>
      <trkpt lat="36.846628" lon="-3.584374">
        <ele>346.616</ele>
        <time>2022-12-06T14:24:23Z</time>
      </trkpt>
      <trkpt lat="36.846674" lon="-3.584313">
        <ele>345.643</ele>
        <time>2022-12-06T14:24:26Z</time>
      </trkpt>
      <trkpt lat="36.846726" lon="-3.584247">
        <ele>344.721</ele>
        <time>2022-12-06T14:24:31Z</time>
      </trkpt>
      <trkpt lat="36.846744" lon="-3.584245">
        <ele>345.015</ele>
        <time>2022-12-06T14:24:33Z</time>
      </trkpt>
      <trkpt lat="36.846801" lon="-3.584204">
        <ele>345.326</ele>
        <time>2022-12-06T14:24:41Z</time>
      </trkpt>
      <trkpt lat="36.846844" lon="-3.584180">
        <ele>346.053</ele>
        <time>2022-12-06T14:24:45Z</time>
      </trkpt>
      <trkpt lat="36.846872" lon="-3.584191">
        <ele>346.054</ele>
        <time>2022-12-06T14:24:47Z</time>
      </trkpt>
      <trkpt lat="36.846894" lon="-3.584195">
        <ele>346.251</ele>
        <time>2022-12-06T14:24:49Z</time>
      </trkpt>
      <trkpt lat="36.846945" lon="-3.584150">
        <ele>346.301</ele>
        <time>2022-12-06T14:24:55Z</time>
      </trkpt>
      <trkpt lat="36.846998" lon="-3.584127">
        <ele>346.611</ele>
        <time>2022-12-06T14:25:00Z</time>
      </trkpt>
      <trkpt lat="36.847002" lon="-3.584119">
        <ele>346.609</ele>
        <time>2022-12-06T14:25:01Z</time>
      </trkpt>
      <trkpt lat="36.847009" lon="-3.584093">
        <ele>346.766</ele>
        <time>2022-12-06T14:25:04Z</time>
      </trkpt>
      <trkpt lat="36.846992" lon="-3.584088">
        <ele>347.057</ele>
        <time>2022-12-06T14:25:08Z</time>
      </trkpt>
      <trkpt lat="36.846989" lon="-3.584100">
        <ele>347.095</ele>
        <time>2022-12-06T14:25:10Z</time>
      </trkpt>
      <trkpt lat="36.846966" lon="-3.584110">
        <ele>346.782</ele>
        <time>2022-12-06T14:25:13Z</time>
      </trkpt>
      <trkpt lat="36.846932" lon="-3.584088">
        <ele>346.630</ele>
        <time>2022-12-06T14:25:17Z</time>
      </trkpt>
      <trkpt lat="36.846930" lon="-3.584077">
        <ele>346.254</ele>
        <time>2022-12-06T14:25:19Z</time>
      </trkpt>
      <trkpt lat="36.846946" lon="-3.584048">
        <ele>346.025</ele>
        <time>2022-12-06T14:25:21Z</time>
      </trkpt>
      <trkpt lat="36.846984" lon="-3.584019">
        <ele>346.042</ele>
        <time>2022-12-06T14:25:23Z</time>
      </trkpt>
      <trkpt lat="36.847039" lon="-3.583984">
        <ele>345.273</ele>
        <time>2022-12-06T14:25:26Z</time>
      </trkpt>
      <trkpt lat="36.847053" lon="-3.583975">
        <ele>344.693</ele>
        <time>2022-12-06T14:25:28Z</time>
      </trkpt>
      <trkpt lat="36.846995" lon="-3.584015">
        <ele>344.265</ele>
        <time>2022-12-06T14:25:35Z</time>
      </trkpt>
      <trkpt lat="36.846964" lon="-3.584020">
        <ele>344.221</ele>
        <time>2022-12-06T14:25:37Z</time>
      </trkpt>
      <trkpt lat="36.846951" lon="-3.584028">
        <ele>344.209</ele>
        <time>2022-12-06T14:25:39Z</time>
      </trkpt>
      <trkpt lat="36.846940" lon="-3.584033">
        <ele>344.240</ele>
        <time>2022-12-06T14:25:41Z</time>
      </trkpt>
      <trkpt lat="36.846915" lon="-3.584037">
        <ele>344.061</ele>
        <time>2022-12-06T14:25:44Z</time>
      </trkpt>
      <trkpt lat="36.846889" lon="-3.584096">
        <ele>345.239</ele>
        <time>2022-12-06T14:25:50Z</time>
      </trkpt>
      <trkpt lat="36.846879" lon="-3.584121">
        <ele>345.616</ele>
        <time>2022-12-06T14:25:52Z</time>
      </trkpt>
      <trkpt lat="36.846839" lon="-3.584163">
        <ele>346.024</ele>
        <time>2022-12-06T14:25:57Z</time>
      </trkpt>
      <trkpt lat="36.846779" lon="-3.584185">
        <ele>345.768</ele>
        <time>2022-12-06T14:26:02Z</time>
      </trkpt>
      <trkpt lat="36.846703" lon="-3.584210">
        <ele>344.749</ele>
        <time>2022-12-06T14:26:08Z</time>
      </trkpt>
      <trkpt lat="36.846647" lon="-3.584218">
        <ele>344.366</ele>
        <time>2022-12-06T14:26:12Z</time>
      </trkpt>
      <trkpt lat="36.846627" lon="-3.584213">
        <ele>344.247</ele>
        <time>2022-12-06T14:26:14Z</time>
      </trkpt>
      <trkpt lat="36.846577" lon="-3.584227">
        <ele>343.639</ele>
        <time>2022-12-06T14:26:19Z</time>
      </trkpt>
      <trkpt lat="36.846603" lon="-3.584244">
        <ele>343.001</ele>
        <time>2022-12-06T14:26:22Z</time>
      </trkpt>
      <trkpt lat="36.846629" lon="-3.584317">
        <ele>343.221</ele>
        <time>2022-12-06T14:26:27Z</time>
      </trkpt>
      <trkpt lat="36.846611" lon="-3.584353">
        <ele>344.009</ele>
        <time>2022-12-06T14:26:30Z</time>
      </trkpt>
      <trkpt lat="36.846601" lon="-3.584364">
        <ele>344.234</ele>
        <time>2022-12-06T14:26:31Z</time>
      </trkpt>
      <trkpt lat="36.846573" lon="-3.584404">
        <ele>344.765</ele>
        <time>2022-12-06T14:26:34Z</time>
      </trkpt>
      <trkpt lat="36.846558" lon="-3.584435">
        <ele>345.263</ele>
        <time>2022-12-06T14:26:36Z</time>
      </trkpt>
      <trkpt lat="36.846495" lon="-3.584498">
        <ele>345.250</ele>
        <time>2022-12-06T14:26:41Z</time>
      </trkpt>
      <trkpt lat="36.846472" lon="-3.584469">
        <ele>344.378</ele>
        <time>2022-12-06T14:26:43Z</time>
      </trkpt>
      <trkpt lat="36.846474" lon="-3.584447">
        <ele>344.092</ele>
        <time>2022-12-06T14:26:44Z</time>
      </trkpt>
      <trkpt lat="36.846514" lon="-3.584361">
        <ele>342.793</ele>
        <time>2022-12-06T14:26:48Z</time>
      </trkpt>
      <trkpt lat="36.846523" lon="-3.584326">
        <ele>342.040</ele>
        <time>2022-12-06T14:26:50Z</time>
      </trkpt>
      <trkpt lat="36.846524" lon="-3.584314">
        <ele>341.731</ele>
        <time>2022-12-06T14:26:51Z</time>
      </trkpt>
      <trkpt lat="36.846522" lon="-3.584294">
        <ele>341.098</ele>
        <time>2022-12-06T14:26:53Z</time>
      </trkpt>
      <trkpt lat="36.846519" lon="-3.584284">
        <ele>340.615</ele>
        <time>2022-12-06T14:26:54Z</time>
      </trkpt>
      <trkpt lat="36.846506" lon="-3.584249">
        <ele>339.226</ele>
        <time>2022-12-06T14:26:57Z</time>
      </trkpt>
      <trkpt lat="36.846450" lon="-3.584229">
        <ele>338.009</ele>
        <time>2022-12-06T14:27:01Z</time>
      </trkpt>
      <trkpt lat="36.846346" lon="-3.584267">
        <ele>337.070</ele>
        <time>2022-12-06T14:27:05Z</time>
      </trkpt>
      <trkpt lat="36.846162" lon="-3.584245">
        <ele>336.681</ele>
        <time>2022-12-06T14:27:13Z</time>
      </trkpt>
      <trkpt lat="36.845998" lon="-3.584323">
        <ele>337.069</ele>
        <time>2022-12-06T14:27:21Z</time>
      </trkpt>
      <trkpt lat="36.845892" lon="-3.584521">
        <ele>337.316</ele>
        <time>2022-12-06T14:27:28Z</time>
      </trkpt>
      <trkpt lat="36.845855" lon="-3.584756">
        <ele>337.034</ele>
        <time>2022-12-06T14:27:35Z</time>
      </trkpt>
      <trkpt lat="36.845807" lon="-3.584838">
        <ele>336.698</ele>
        <time>2022-12-06T14:27:40Z</time>
      </trkpt>
      <trkpt lat="36.845755" lon="-3.584836">
        <ele>336.059</ele>
        <time>2022-12-06T14:27:42Z</time>
      </trkpt>
      <trkpt lat="36.845623" lon="-3.584846">
        <ele>334.716</ele>
        <time>2022-12-06T14:27:47Z</time>
      </trkpt>
      <trkpt lat="36.845501" lon="-3.584844">
        <ele>333.637</ele>
        <time>2022-12-06T14:27:52Z</time>
      </trkpt>
      <trkpt lat="36.845312" lon="-3.584848">
        <ele>332.645</ele>
        <time>2022-12-06T14:27:59Z</time>
      </trkpt>
      <trkpt lat="36.845208" lon="-3.584851">
        <ele>331.247</ele>
        <time>2022-12-06T14:28:03Z</time>
      </trkpt>
      <trkpt lat="36.845125" lon="-3.584867">
        <ele>330.011</ele>
        <time>2022-12-06T14:28:06Z</time>
      </trkpt>
      <trkpt lat="36.844999" lon="-3.584929">
        <ele>328.709</ele>
        <time>2022-12-06T14:28:10Z</time>
      </trkpt>
      <trkpt lat="36.844901" lon="-3.585008">
        <ele>327.365</ele>
        <time>2022-12-06T14:28:13Z</time>
      </trkpt>
      <trkpt lat="36.844810" lon="-3.585071">
        <ele>326.016</ele>
        <time>2022-12-06T14:28:16Z</time>
      </trkpt>
      <trkpt lat="36.844700" lon="-3.585155">
        <ele>324.754</ele>
        <time>2022-12-06T14:28:20Z</time>
      </trkpt>
      <trkpt lat="36.844565" lon="-3.585234">
        <ele>323.651</ele>
        <time>2022-12-06T14:28:25Z</time>
      </trkpt>
      <trkpt lat="36.844489" lon="-3.585294">
        <ele>322.659</ele>
        <time>2022-12-06T14:28:29Z</time>
      </trkpt>
      <trkpt lat="36.844464" lon="-3.585422">
        <ele>321.363</ele>
        <time>2022-12-06T14:28:34Z</time>
      </trkpt>
      <trkpt lat="36.844460" lon="-3.585452">
        <ele>320.734</ele>
        <time>2022-12-06T14:28:35Z</time>
      </trkpt>
      <trkpt lat="36.844418" lon="-3.585490">
        <ele>320.051</ele>
        <time>2022-12-06T14:28:37Z</time>
      </trkpt>
      <trkpt lat="36.844357" lon="-3.585502">
        <ele>318.762</ele>
        <time>2022-12-06T14:28:39Z</time>
      </trkpt>
      <trkpt lat="36.844264" lon="-3.585517">
        <ele>317.771</ele>
        <time>2022-12-06T14:28:42Z</time>
      </trkpt>
      <trkpt lat="36.844073" lon="-3.585450">
        <ele>317.041</ele>
        <time>2022-12-06T14:28:48Z</time>
      </trkpt>
      <trkpt lat="36.844017" lon="-3.585417">
        <ele>316.615</ele>
        <time>2022-12-06T14:28:50Z</time>
      </trkpt>
      <trkpt lat="36.843904" lon="-3.585363">
        <ele>315.609</ele>
        <time>2022-12-06T14:28:54Z</time>
      </trkpt>
      <trkpt lat="36.843715" lon="-3.585289">
        <ele>314.318</ele>
        <time>2022-12-06T14:29:01Z</time>
      </trkpt>
      <trkpt lat="36.843645" lon="-3.585221">
        <ele>313.259</ele>
        <time>2022-12-06T14:29:04Z</time>
      </trkpt>
      <trkpt lat="36.843552" lon="-3.585079">
        <ele>312.017</ele>
        <time>2022-12-06T14:29:09Z</time>
      </trkpt>
      <trkpt lat="36.843510" lon="-3.585069">
        <ele>311.774</ele>
        <time>2022-12-06T14:29:11Z</time>
      </trkpt>
      <trkpt lat="36.843461" lon="-3.585113">
        <ele>311.052</ele>
        <time>2022-12-06T14:29:13Z</time>
      </trkpt>
      <trkpt lat="36.843416" lon="-3.585178">
        <ele>309.786</ele>
        <time>2022-12-06T14:29:15Z</time>
      </trkpt>
      <trkpt lat="36.843377" lon="-3.585240">
        <ele>308.667</ele>
        <time>2022-12-06T14:29:17Z</time>
      </trkpt>
      <trkpt lat="36.843332" lon="-3.585332">
        <ele>307.284</ele>
        <time>2022-12-06T14:29:20Z</time>
      </trkpt>
      <trkpt lat="36.843273" lon="-3.585455">
        <ele>306.235</ele>
        <time>2022-12-06T14:29:24Z</time>
      </trkpt>
      <trkpt lat="36.843210" lon="-3.585533">
        <ele>305.073</ele>
        <time>2022-12-06T14:29:27Z</time>
      </trkpt>
      <trkpt lat="36.843116" lon="-3.585643">
        <ele>303.785</ele>
        <time>2022-12-06T14:29:31Z</time>
      </trkpt>
      <trkpt lat="36.843060" lon="-3.585736">
        <ele>302.613</ele>
        <time>2022-12-06T14:29:34Z</time>
      </trkpt>
      <trkpt lat="36.843026" lon="-3.585783">
        <ele>301.609</ele>
        <time>2022-12-06T14:29:36Z</time>
      </trkpt>
      <trkpt lat="36.842986" lon="-3.585818">
        <ele>300.358</ele>
        <time>2022-12-06T14:29:38Z</time>
      </trkpt>
      <trkpt lat="36.842948" lon="-3.585859">
        <ele>299.069</ele>
        <time>2022-12-06T14:29:40Z</time>
      </trkpt>
      <trkpt lat="36.842900" lon="-3.585900">
        <ele>297.727</ele>
        <time>2022-12-06T14:29:42Z</time>
      </trkpt>
      <trkpt lat="36.842839" lon="-3.585986">
        <ele>296.344</ele>
        <time>2022-12-06T14:29:45Z</time>
      </trkpt>
      <trkpt lat="36.842769" lon="-3.586064">
        <ele>294.722</ele>
        <time>2022-12-06T14:29:48Z</time>
      </trkpt>
      <trkpt lat="36.842747" lon="-3.586089">
        <ele>294.226</ele>
        <time>2022-12-06T14:29:49Z</time>
      </trkpt>
      <trkpt lat="36.842723" lon="-3.586113">
        <ele>293.657</ele>
        <time>2022-12-06T14:29:50Z</time>
      </trkpt>
      <trkpt lat="36.842643" lon="-3.586160">
        <ele>292.044</ele>
        <time>2022-12-06T14:29:53Z</time>
      </trkpt>
      <trkpt lat="36.842560" lon="-3.586133">
        <ele>290.625</ele>
        <time>2022-12-06T14:29:56Z</time>
      </trkpt>
      <trkpt lat="36.842505" lon="-3.586117">
        <ele>289.621</ele>
        <time>2022-12-06T14:29:58Z</time>
      </trkpt>
      <trkpt lat="36.842438" lon="-3.586115">
        <ele>288.241</ele>
        <time>2022-12-06T14:30:00Z</time>
      </trkpt>
      <trkpt lat="36.842414" lon="-3.586122">
        <ele>287.005</ele>
        <time>2022-12-06T14:30:03Z</time>
      </trkpt>
      <trkpt lat="36.842404" lon="-3.586121">
        <ele>286.709</ele>
        <time>2022-12-06T14:30:04Z</time>
      </trkpt>
      <trkpt lat="36.842479" lon="-3.585929">
        <ele>316.938</ele>
        <time>2022-12-10T06:56:57Z</time>
      </trkpt>
      <trkpt lat="36.842437" lon="-3.585902">
        <ele>317.370</ele>
        <time>2022-12-10T06:56:59Z</time>
      </trkpt>
      <trkpt lat="36.842418" lon="-3.585897">
        <ele>317.417</ele>
        <time>2022-12-10T06:57:01Z</time>
      </trkpt>
      <trkpt lat="36.842403" lon="-3.585903">
        <ele>317.209</ele>
        <time>2022-12-10T06:57:03Z</time>
      </trkpt>
      <trkpt lat="36.842370" lon="-3.585914">
        <ele>316.964</ele>
        <time>2022-12-10T06:57:10Z</time>
      </trkpt>
      <trkpt lat="36.842356" lon="-3.585926">
        <ele>316.735</ele>
        <time>2022-12-10T06:57:12Z</time>
      </trkpt>
      <trkpt lat="36.842307" lon="-3.585972">
        <ele>315.734</ele>
        <time>2022-12-10T06:57:21Z</time>
      </trkpt>
      <trkpt lat="36.842175" lon="-3.586125">
        <ele>312.663</ele>
        <time>2022-12-10T06:57:30Z</time>
      </trkpt>
      <trkpt lat="36.842147" lon="-3.586184">
        <ele>311.095</ele>
        <time>2022-12-10T06:57:33Z</time>
      </trkpt>
      <trkpt lat="36.842093" lon="-3.586234">
        <ele>309.951</ele>
        <time>2022-12-10T06:57:36Z</time>
      </trkpt>
      <trkpt lat="36.842029" lon="-3.586266">
        <ele>309.382</ele>
        <time>2022-12-10T06:57:39Z</time>
      </trkpt>
      <trkpt lat="36.841938" lon="-3.586300">
        <ele>308.995</ele>
        <time>2022-12-10T06:57:43Z</time>
      </trkpt>
      <trkpt lat="36.841804" lon="-3.586256">
        <ele>309.655</ele>
        <time>2022-12-10T06:57:51Z</time>
      </trkpt>
      <trkpt lat="36.841744" lon="-3.586284">
        <ele>309.074</ele>
        <time>2022-12-10T06:57:55Z</time>
      </trkpt>
      <trkpt lat="36.841656" lon="-3.586256">
        <ele>309.156</ele>
        <time>2022-12-10T06:58:00Z</time>
      </trkpt>
      <trkpt lat="36.841620" lon="-3.586234">
        <ele>308.421</ele>
        <time>2022-12-10T06:58:02Z</time>
      </trkpt>
      <trkpt lat="36.841577" lon="-3.586225">
        <ele>307.209</ele>
        <time>2022-12-10T06:58:04Z</time>
      </trkpt>
      <trkpt lat="36.841563" lon="-3.586215">
        <ele>306.938</ele>
        <time>2022-12-10T06:58:05Z</time>
      </trkpt>
      <trkpt lat="36.841549" lon="-3.586202">
        <ele>306.789</ele>
        <time>2022-12-10T06:58:06Z</time>
      </trkpt>
      <trkpt lat="36.841511" lon="-3.586143">
        <ele>306.468</ele>
        <time>2022-12-10T06:58:09Z</time>
      </trkpt>
      <trkpt lat="36.841471" lon="-3.586068">
        <ele>306.097</ele>
        <time>2022-12-10T06:58:12Z</time>
      </trkpt>
      <trkpt lat="36.841434" lon="-3.586016">
        <ele>305.159</ele>
        <time>2022-12-10T06:58:15Z</time>
      </trkpt>
      <trkpt lat="36.841419" lon="-3.585940">
        <ele>305.275</ele>
        <time>2022-12-10T06:58:18Z</time>
      </trkpt>
      <trkpt lat="36.841377" lon="-3.585746">
        <ele>304.846</ele>
        <time>2022-12-10T06:58:26Z</time>
      </trkpt>
      <trkpt lat="36.841357" lon="-3.585680">
        <ele>304.269</ele>
        <time>2022-12-10T06:58:29Z</time>
      </trkpt>
      <trkpt lat="36.841316" lon="-3.585570">
        <ele>303.019</ele>
        <time>2022-12-10T06:58:33Z</time>
      </trkpt>
      <trkpt lat="36.841297" lon="-3.585529">
        <ele>302.633</ele>
        <time>2022-12-10T06:58:35Z</time>
      </trkpt>
      <trkpt lat="36.841285" lon="-3.585508">
        <ele>302.223</ele>
        <time>2022-12-10T06:58:37Z</time>
      </trkpt>
      <trkpt lat="36.841277" lon="-3.585507">
        <ele>301.915</ele>
        <time>2022-12-10T06:58:38Z</time>
      </trkpt>
      <trkpt lat="36.841246" lon="-3.585512">
        <ele>300.709</ele>
        <time>2022-12-10T06:58:40Z</time>
      </trkpt>
      <trkpt lat="36.841212" lon="-3.585533">
        <ele>299.254</ele>
        <time>2022-12-10T06:58:43Z</time>
      </trkpt>
      <trkpt lat="36.841191" lon="-3.585538">
        <ele>298.375</ele>
        <time>2022-12-10T06:58:46Z</time>
      </trkpt>
      <trkpt lat="36.841188" lon="-3.585556">
        <ele>298.024</ele>
        <time>2022-12-10T06:58:48Z</time>
      </trkpt>
      <trkpt lat="36.841188" lon="-3.585574">
        <ele>297.933</ele>
        <time>2022-12-10T06:58:49Z</time>
      </trkpt>
      <trkpt lat="36.841160" lon="-3.585607">
        <ele>296.685</ele>
        <time>2022-12-10T06:58:52Z</time>
      </trkpt>
      <trkpt lat="36.841123" lon="-3.585621">
        <ele>295.061</ele>
        <time>2022-12-10T06:58:54Z</time>
      </trkpt>
      <trkpt lat="36.841080" lon="-3.585632">
        <ele>293.772</ele>
        <time>2022-12-10T06:58:56Z</time>
      </trkpt>
      <trkpt lat="36.841015" lon="-3.585650">
        <ele>291.985</ele>
        <time>2022-12-10T06:58:59Z</time>
      </trkpt>
      <trkpt lat="36.840943" lon="-3.585689">
        <ele>289.865</ele>
        <time>2022-12-10T06:59:03Z</time>
      </trkpt>
      <trkpt lat="36.840915" lon="-3.585692">
        <ele>289.144</ele>
        <time>2022-12-10T06:59:05Z</time>
      </trkpt>
      <trkpt lat="36.840900" lon="-3.585693">
        <ele>288.705</ele>
        <time>2022-12-10T06:59:06Z</time>
      </trkpt>
      <trkpt lat="36.840889" lon="-3.585696">
        <ele>288.415</ele>
        <time>2022-12-10T06:59:07Z</time>
      </trkpt>
      <trkpt lat="36.840888" lon="-3.585675">
        <ele>288.509</ele>
        <time>2022-12-10T06:59:12Z</time>
      </trkpt>
      <trkpt lat="36.840888" lon="-3.585664">
        <ele>288.625</ele>
        <time>2022-12-10T06:59:17Z</time>
      </trkpt>
      <trkpt lat="36.840709" lon="-3.585568">
        <ele>285.236</ele>
        <time>2022-12-10T07:00:59Z</time>
      </trkpt>
      <trkpt lat="36.840700" lon="-3.585573">
        <ele>285.055</ele>
        <time>2022-12-10T07:01:00Z</time>
      </trkpt>
      <trkpt lat="36.840694" lon="-3.585550">
        <ele>285.014</ele>
        <time>2022-12-10T07:01:32Z</time>
      </trkpt>
      <trkpt lat="36.840674" lon="-3.585537">
        <ele>284.776</ele>
        <time>2022-12-10T07:01:39Z</time>
      </trkpt>
      <trkpt lat="36.840591" lon="-3.585481">
        <ele>283.352</ele>
        <time>2022-12-10T07:02:13Z</time>
      </trkpt>
      <trkpt lat="36.840554" lon="-3.585532">
        <ele>282.123</ele>
        <time>2022-12-10T07:02:18Z</time>
      </trkpt>
      <trkpt lat="36.840547" lon="-3.585537">
        <ele>281.966</ele>
        <time>2022-12-10T07:02:19Z</time>
      </trkpt>
      <trkpt lat="36.840525" lon="-3.585533">
        <ele>281.576</ele>
        <time>2022-12-10T07:02:22Z</time>
      </trkpt>
      <trkpt lat="36.840519" lon="-3.585505">
        <ele>281.695</ele>
        <time>2022-12-10T07:02:26Z</time>
      </trkpt>
      <trkpt lat="36.840509" lon="-3.585498">
        <ele>281.449</ele>
        <time>2022-12-10T07:02:27Z</time>
      </trkpt>
      <trkpt lat="36.840429" lon="-3.585524">
        <ele>279.523</ele>
        <time>2022-12-10T07:02:31Z</time>
      </trkpt>
      <trkpt lat="36.840380" lon="-3.585531">
        <ele>278.409</ele>
        <time>2022-12-10T07:02:36Z</time>
      </trkpt>
      <trkpt lat="36.840374" lon="-3.585551">
        <ele>278.180</ele>
        <time>2022-12-10T07:02:39Z</time>
      </trkpt>
      <trkpt lat="36.840358" lon="-3.585591">
        <ele>277.451</ele>
        <time>2022-12-10T07:02:41Z</time>
      </trkpt>
      <trkpt lat="36.840327" lon="-3.585621">
        <ele>276.610</ele>
        <time>2022-12-10T07:02:43Z</time>
      </trkpt>
      <trkpt lat="36.840312" lon="-3.585638">
        <ele>276.169</ele>
        <time>2022-12-10T07:02:45Z</time>
      </trkpt>
      <trkpt lat="36.840276" lon="-3.585606">
        <ele>275.661</ele>
        <time>2022-12-10T07:02:47Z</time>
      </trkpt>
      <trkpt lat="36.840168" lon="-3.585519">
        <ele>273.857</ele>
        <time>2022-12-10T07:02:51Z</time>
      </trkpt>
      <trkpt lat="36.840158" lon="-3.585502">
        <ele>273.638</ele>
        <time>2022-12-10T07:02:52Z</time>
      </trkpt>
      <trkpt lat="36.840080" lon="-3.585430">
        <ele>272.011</ele>
        <time>2022-12-10T07:02:54Z</time>
      </trkpt>
      <trkpt lat="36.840020" lon="-3.585369">
        <ele>270.561</ele>
        <time>2022-12-10T07:02:57Z</time>
      </trkpt>
      <trkpt lat="36.839983" lon="-3.585390">
        <ele>269.288</ele>
        <time>2022-12-10T07:03:00Z</time>
      </trkpt>
      <trkpt lat="36.839884" lon="-3.585462">
        <ele>264.224</ele>
        <time>2022-12-10T07:03:08Z</time>
      </trkpt>
      <trkpt lat="36.839839" lon="-3.585524">
        <ele>261.526</ele>
        <time>2022-12-10T07:03:13Z</time>
      </trkpt>
      <trkpt lat="36.839799" lon="-3.585578">
        <ele>258.909</ele>
        <time>2022-12-10T07:03:17Z</time>
      </trkpt>
      <trkpt lat="36.839760" lon="-3.585644">
        <ele>256.159</ele>
        <time>2022-12-10T07:03:22Z</time>
      </trkpt>
      <trkpt lat="36.839775" lon="-3.585739">
        <ele>255.920</ele>
        <time>2022-12-10T07:03:27Z</time>
      </trkpt>
      <trkpt lat="36.839774" lon="-3.585801">
        <ele>255.149</ele>
        <time>2022-12-10T07:03:31Z</time>
      </trkpt>
      <trkpt lat="36.839780" lon="-3.585816">
        <ele>255.388</ele>
        <time>2022-12-10T07:03:32Z</time>
      </trkpt>
      <trkpt lat="36.839785" lon="-3.585829">
        <ele>255.460</ele>
        <time>2022-12-10T07:03:33Z</time>
      </trkpt>
      <trkpt lat="36.839789" lon="-3.585858">
        <ele>255.426</ele>
        <time>2022-12-10T07:03:35Z</time>
      </trkpt>
      <trkpt lat="36.839772" lon="-3.585875">
        <ele>254.487</ele>
        <time>2022-12-10T07:03:36Z</time>
      </trkpt>
      <trkpt lat="36.839743" lon="-3.585915">
        <ele>252.570</ele>
        <time>2022-12-10T07:03:38Z</time>
      </trkpt>
      <trkpt lat="36.839721" lon="-3.585954">
        <ele>251.120</ele>
        <time>2022-12-10T07:03:40Z</time>
      </trkpt>
      <trkpt lat="36.839717" lon="-3.586046">
        <ele>250.399</ele>
        <time>2022-12-10T07:03:43Z</time>
      </trkpt>
      <trkpt lat="36.839692" lon="-3.586168">
        <ele>248.807</ele>
        <time>2022-12-10T07:03:48Z</time>
      </trkpt>
      <trkpt lat="36.839666" lon="-3.586211">
        <ele>247.827</ele>
        <time>2022-12-10T07:03:50Z</time>
      </trkpt>
      <trkpt lat="36.839627" lon="-3.586275">
        <ele>246.609</ele>
        <time>2022-12-10T07:03:53Z</time>
      </trkpt>
      <trkpt lat="36.839612" lon="-3.586324">
        <ele>246.280</ele>
        <time>2022-12-10T07:03:55Z</time>
      </trkpt>
      <trkpt lat="36.839594" lon="-3.586373">
        <ele>245.711</ele>
        <time>2022-12-10T07:03:57Z</time>
      </trkpt>
      <trkpt lat="36.839591" lon="-3.586423">
        <ele>245.620</ele>
        <time>2022-12-10T07:03:59Z</time>
      </trkpt>
      <trkpt lat="36.839591" lon="-3.586521">
        <ele>245.299</ele>
        <time>2022-12-10T07:04:03Z</time>
      </trkpt>
      <trkpt lat="36.839569" lon="-3.586550">
        <ele>244.791</ele>
        <time>2022-12-10T07:04:06Z</time>
      </trkpt>
      <trkpt lat="36.839557" lon="-3.586558">
        <ele>244.587</ele>
        <time>2022-12-10T07:04:08Z</time>
      </trkpt>
      <trkpt lat="36.839551" lon="-3.586557">
        <ele>244.438</ele>
        <time>2022-12-10T07:04:09Z</time>
      </trkpt>
      <trkpt lat="36.839547" lon="-3.586552">
        <ele>244.381</ele>
        <time>2022-12-10T07:04:11Z</time>
      </trkpt>
      <trkpt lat="36.839530" lon="-3.586525">
        <ele>244.011</ele>
        <time>2022-12-10T07:04:16Z</time>
      </trkpt>
      <trkpt lat="36.839523" lon="-3.586524">
        <ele>243.964</ele>
        <time>2022-12-10T07:04:17Z</time>
      </trkpt>
      <trkpt lat="36.839501" lon="-3.586482">
        <ele>243.506</ele>
        <time>2022-12-10T07:04:22Z</time>
      </trkpt>
      <trkpt lat="36.839496" lon="-3.586475">
        <ele>243.416</ele>
        <time>2022-12-10T07:04:23Z</time>
      </trkpt>
      <trkpt lat="36.839477" lon="-3.586444">
        <ele>242.909</ele>
        <time>2022-12-10T07:04:26Z</time>
      </trkpt>
      <trkpt lat="36.839453" lon="-3.586419">
        <ele>242.317</ele>
        <time>2022-12-10T07:04:29Z</time>
      </trkpt>
      <trkpt lat="36.839446" lon="-3.586411">
        <ele>242.188</ele>
        <time>2022-12-10T07:04:30Z</time>
      </trkpt>
      <trkpt lat="36.839431" lon="-3.586386">
        <ele>242.187</ele>
        <time>2022-12-10T07:04:33Z</time>
      </trkpt>
      <trkpt lat="36.839429" lon="-3.586377">
        <ele>242.086</ele>
        <time>2022-12-10T07:04:35Z</time>
      </trkpt>
      <trkpt lat="36.839412" lon="-3.586376">
        <ele>242.268</ele>
        <time>2022-12-10T07:04:37Z</time>
      </trkpt>
      <trkpt lat="36.839394" lon="-3.586363">
        <ele>242.274</ele>
        <time>2022-12-10T07:04:39Z</time>
      </trkpt>
      <trkpt lat="36.839379" lon="-3.586346">
        <ele>242.275</ele>
        <time>2022-12-10T07:04:42Z</time>
      </trkpt>
      <trkpt lat="36.839374" lon="-3.586346">
        <ele>242.388</ele>
        <time>2022-12-10T07:04:46Z</time>
      </trkpt>
      <trkpt lat="36.839364" lon="-3.586347">
        <ele>242.498</ele>
        <time>2022-12-10T07:04:48Z</time>
      </trkpt>
      <trkpt lat="36.839209" lon="-3.586286">
        <ele>243.654</ele>
        <time>2022-12-10T07:05:22Z</time>
      </trkpt>
      <trkpt lat="36.839212" lon="-3.586247">
        <ele>243.556</ele>
        <time>2022-12-10T07:05:26Z</time>
      </trkpt>
      <trkpt lat="36.839252" lon="-3.586195">
        <ele>243.011</ele>
        <time>2022-12-10T07:05:30Z</time>
      </trkpt>
      <trkpt lat="36.839259" lon="-3.586147">
        <ele>242.809</ele>
        <time>2022-12-10T07:05:33Z</time>
      </trkpt>
      <trkpt lat="36.839374" lon="-3.586083">
        <ele>241.096</ele>
        <time>2022-12-10T07:05:36Z</time>
      </trkpt>
      <trkpt lat="36.839401" lon="-3.586045">
        <ele>240.647</ele>
        <time>2022-12-10T07:05:38Z</time>
      </trkpt>
      <trkpt lat="36.839421" lon="-3.586013">
        <ele>240.326</ele>
        <time>2022-12-10T07:05:40Z</time>
      </trkpt>
      <trkpt lat="36.839450" lon="-3.585991">
        <ele>240.285</ele>
        <time>2022-12-10T07:05:41Z</time>
      </trkpt>
      <trkpt lat="36.839380" lon="-3.585928">
        <ele>240.867</ele>
        <time>2022-12-10T07:05:50Z</time>
      </trkpt>
      <trkpt lat="36.839378" lon="-3.585922">
        <ele>240.893</ele>
        <time>2022-12-10T07:05:51Z</time>
      </trkpt>
      <trkpt lat="36.839373" lon="-3.585915">
        <ele>240.864</ele>
        <time>2022-12-10T07:05:53Z</time>
      </trkpt>
      <trkpt lat="36.839370" lon="-3.585893">
        <ele>240.977</ele>
        <time>2022-12-10T07:05:56Z</time>
      </trkpt>
      <trkpt lat="36.839361" lon="-3.585886">
        <ele>241.047</ele>
        <time>2022-12-10T07:05:58Z</time>
      </trkpt>
      <trkpt lat="36.839348" lon="-3.585866">
        <ele>241.179</ele>
        <time>2022-12-10T07:06:00Z</time>
      </trkpt>
      <trkpt lat="36.839302" lon="-3.585820">
        <ele>241.605</ele>
        <time>2022-12-10T07:06:05Z</time>
      </trkpt>
      <trkpt lat="36.839249" lon="-3.585749">
        <ele>242.425</ele>
        <time>2022-12-10T07:06:11Z</time>
      </trkpt>
      <trkpt lat="36.839187" lon="-3.585714">
        <ele>242.909</ele>
        <time>2022-12-10T07:06:16Z</time>
      </trkpt>
      <trkpt lat="36.839146" lon="-3.585685">
        <ele>243.818</ele>
        <time>2022-12-10T07:06:19Z</time>
      </trkpt>
      <trkpt lat="36.839094" lon="-3.585644">
        <ele>245.989</ele>
        <time>2022-12-10T07:06:22Z</time>
      </trkpt>
      <trkpt lat="36.839051" lon="-3.585595">
        <ele>247.368</ele>
        <time>2022-12-10T07:06:26Z</time>
      </trkpt>
      <trkpt lat="36.839006" lon="-3.585567">
        <ele>248.967</ele>
        <time>2022-12-10T07:06:30Z</time>
      </trkpt>
      <trkpt lat="36.838983" lon="-3.585562">
        <ele>249.779</ele>
        <time>2022-12-10T07:06:32Z</time>
      </trkpt>
      <trkpt lat="36.838968" lon="-3.585566">
        <ele>250.245</ele>
        <time>2022-12-10T07:06:33Z</time>
      </trkpt>
      <trkpt lat="36.838949" lon="-3.585576">
        <ele>251.056</ele>
        <time>2022-12-10T07:06:35Z</time>
      </trkpt>
      <trkpt lat="36.838943" lon="-3.585593">
        <ele>251.449</ele>
        <time>2022-12-10T07:06:37Z</time>
      </trkpt>
      <trkpt lat="36.838914" lon="-3.585601">
        <ele>252.529</ele>
        <time>2022-12-10T07:06:41Z</time>
      </trkpt>
      <trkpt lat="36.838886" lon="-3.585624">
        <ele>253.871</ele>
        <time>2022-12-10T07:06:46Z</time>
      </trkpt>
      <trkpt lat="36.838844" lon="-3.585644">
        <ele>255.441</ele>
        <time>2022-12-10T07:06:51Z</time>
      </trkpt>
      <trkpt lat="36.838821" lon="-3.585646">
        <ele>256.215</ele>
        <time>2022-12-10T07:06:56Z</time>
      </trkpt>
      <trkpt lat="36.838782" lon="-3.585613">
        <ele>256.909</ele>
        <time>2022-12-10T07:07:01Z</time>
      </trkpt>
      <trkpt lat="36.838754" lon="-3.585585">
        <ele>257.468</ele>
        <time>2022-12-10T07:07:04Z</time>
      </trkpt>
      <trkpt lat="36.838684" lon="-3.585530">
        <ele>258.249</ele>
        <time>2022-12-10T07:07:12Z</time>
      </trkpt>
      <trkpt lat="36.838574" lon="-3.585481">
        <ele>259.918</ele>
        <time>2022-12-10T07:07:23Z</time>
      </trkpt>
      <trkpt lat="36.838557" lon="-3.585480">
        <ele>260.427</ele>
        <time>2022-12-10T07:07:25Z</time>
      </trkpt>
      <trkpt lat="36.838551" lon="-3.585495">
        <ele>261.049</ele>
        <time>2022-12-10T07:07:28Z</time>
      </trkpt>
      <trkpt lat="36.838543" lon="-3.585503">
        <ele>261.495</ele>
        <time>2022-12-10T07:07:29Z</time>
      </trkpt>
      <trkpt lat="36.838539" lon="-3.585522">
        <ele>262.146</ele>
        <time>2022-12-10T07:07:31Z</time>
      </trkpt>
      <trkpt lat="36.838540" lon="-3.585561">
        <ele>263.289</ele>
        <time>2022-12-10T07:07:35Z</time>
      </trkpt>
      <trkpt lat="36.838532" lon="-3.585580">
        <ele>263.859</ele>
        <time>2022-12-10T07:07:39Z</time>
      </trkpt>
      <trkpt lat="36.838521" lon="-3.585592">
        <ele>264.374</ele>
        <time>2022-12-10T07:07:43Z</time>
      </trkpt>
      <trkpt lat="36.838506" lon="-3.585620">
        <ele>265.356</ele>
        <time>2022-12-10T07:07:47Z</time>
      </trkpt>
      <trkpt lat="36.838491" lon="-3.585676">
        <ele>266.921</ele>
        <time>2022-12-10T07:07:51Z</time>
      </trkpt>
      <trkpt lat="36.838478" lon="-3.585763">
        <ele>269.009</ele>
        <time>2022-12-10T07:07:59Z</time>
      </trkpt>
      <trkpt lat="36.838497" lon="-3.585788">
        <ele>269.098</ele>
        <time>2022-12-10T07:08:01Z</time>
      </trkpt>
      <trkpt lat="36.838526" lon="-3.585836">
        <ele>269.269</ele>
        <time>2022-12-10T07:08:04Z</time>
      </trkpt>
      <trkpt lat="36.838575" lon="-3.585897">
        <ele>268.638</ele>
        <time>2022-12-10T07:08:10Z</time>
      </trkpt>
      <trkpt lat="36.838586" lon="-3.585921">
        <ele>268.627</ele>
        <time>2022-12-10T07:08:12Z</time>
      </trkpt>
      <trkpt lat="36.838546" lon="-3.585990">
        <ele>270.269</ele>
        <time>2022-12-10T07:08:19Z</time>
      </trkpt>
      <trkpt lat="36.838523" lon="-3.586023">
        <ele>271.135</ele>
        <time>2022-12-10T07:08:22Z</time>
      </trkpt>
      <trkpt lat="36.838505" lon="-3.586076">
        <ele>272.086</ele>
        <time>2022-12-10T07:08:26Z</time>
      </trkpt>
      <trkpt lat="36.838471" lon="-3.586090">
        <ele>272.899</ele>
        <time>2022-12-10T07:08:29Z</time>
      </trkpt>
      <trkpt lat="36.838469" lon="-3.586093">
        <ele>272.949</ele>
        <time>2022-12-10T07:08:30Z</time>
      </trkpt>
      <trkpt lat="36.838428" lon="-3.586045">
        <ele>273.424</ele>
        <time>2022-12-10T07:08:35Z</time>
      </trkpt>
      <trkpt lat="36.838410" lon="-3.586022">
        <ele>273.604</ele>
        <time>2022-12-10T07:08:37Z</time>
      </trkpt>
      <trkpt lat="36.838379" lon="-3.585979">
        <ele>274.014</ele>
        <time>2022-12-10T07:08:42Z</time>
      </trkpt>
      <trkpt lat="36.838388" lon="-3.585944">
        <ele>273.509</ele>
        <time>2022-12-10T07:08:45Z</time>
      </trkpt>
      <trkpt lat="36.838386" lon="-3.585943">
        <ele>273.583</ele>
        <time>2022-12-10T07:08:49Z</time>
      </trkpt>
      <trkpt lat="36.838383" lon="-3.585952">
        <ele>273.764</ele>
        <time>2022-12-10T07:08:51Z</time>
      </trkpt>
      <trkpt lat="36.838381" lon="-3.585956">
        <ele>273.833</ele>
        <time>2022-12-10T07:08:52Z</time>
      </trkpt>
      <trkpt lat="36.838377" lon="-3.585960">
        <ele>273.912</ele>
        <time>2022-12-10T07:08:54Z</time>
      </trkpt>
      <trkpt lat="36.838360" lon="-3.585958">
        <ele>274.364</ele>
        <time>2022-12-10T07:08:57Z</time>
      </trkpt>
      <trkpt lat="36.838309" lon="-3.585932">
        <ele>275.480</ele>
        <time>2022-12-10T07:09:02Z</time>
      </trkpt>
      <trkpt lat="36.838257" lon="-3.585941">
        <ele>276.921</ele>
        <time>2022-12-10T07:09:06Z</time>
      </trkpt>
      <trkpt lat="36.838246" lon="-3.585947">
        <ele>277.364</ele>
        <time>2022-12-10T07:09:07Z</time>
      </trkpt>
      <trkpt lat="36.838219" lon="-3.586080">
        <ele>279.414</ele>
        <time>2022-12-10T07:09:17Z</time>
      </trkpt>
      <trkpt lat="36.838264" lon="-3.586298">
        <ele>279.443</ele>
        <time>2022-12-10T07:09:32Z</time>
      </trkpt>
      <trkpt lat="36.838263" lon="-3.586309">
        <ele>279.564</ele>
        <time>2022-12-10T07:09:33Z</time>
      </trkpt>
      <trkpt lat="36.838257" lon="-3.586349">
        <ele>280.010</ele>
        <time>2022-12-10T07:09:36Z</time>
      </trkpt>
      <trkpt lat="36.838254" lon="-3.586364">
        <ele>280.109</ele>
        <time>2022-12-10T07:09:37Z</time>
      </trkpt>
      <trkpt lat="36.838242" lon="-3.586423">
        <ele>280.815</ele>
        <time>2022-12-10T07:09:42Z</time>
      </trkpt>
      <trkpt lat="36.838234" lon="-3.586466">
        <ele>281.316</ele>
        <time>2022-12-10T07:09:47Z</time>
      </trkpt>
      <trkpt lat="36.838245" lon="-3.586512">
        <ele>281.395</ele>
        <time>2022-12-10T07:09:50Z</time>
      </trkpt>
      <trkpt lat="36.838245" lon="-3.586532">
        <ele>281.454</ele>
        <time>2022-12-10T07:09:52Z</time>
      </trkpt>
      <trkpt lat="36.838280" lon="-3.586615">
        <ele>280.766</ele>
        <time>2022-12-10T07:10:00Z</time>
      </trkpt>
      <trkpt lat="36.838286" lon="-3.586627">
        <ele>280.552</ele>
        <time>2022-12-10T07:10:02Z</time>
      </trkpt>
      <trkpt lat="36.838291" lon="-3.586657">
        <ele>280.583</ele>
        <time>2022-12-10T07:10:07Z</time>
      </trkpt>
      <trkpt lat="36.838286" lon="-3.586660">
        <ele>280.746</ele>
        <time>2022-12-10T07:10:09Z</time>
      </trkpt>
      <trkpt lat="36.838283" lon="-3.586758">
        <ele>281.016</ele>
        <time>2022-12-10T07:10:17Z</time>
      </trkpt>
      <trkpt lat="36.838296" lon="-3.586963">
        <ele>281.177</ele>
        <time>2022-12-10T07:10:32Z</time>
      </trkpt>
      <trkpt lat="36.838240" lon="-3.587000">
        <ele>283.061</ele>
        <time>2022-12-10T07:10:38Z</time>
      </trkpt>
      <trkpt lat="36.838216" lon="-3.587007">
        <ele>283.827</ele>
        <time>2022-12-10T07:10:41Z</time>
      </trkpt>
      <trkpt lat="36.838193" lon="-3.587037">
        <ele>284.709</ele>
        <time>2022-12-10T07:10:46Z</time>
      </trkpt>
      <trkpt lat="36.838185" lon="-3.587047">
        <ele>285.178</ele>
        <time>2022-12-10T07:10:48Z</time>
      </trkpt>
      <trkpt lat="36.838178" lon="-3.587069">
        <ele>285.569</ele>
        <time>2022-12-10T07:10:51Z</time>
      </trkpt>
      <trkpt lat="36.838172" lon="-3.587091">
        <ele>285.918</ele>
        <time>2022-12-10T07:10:54Z</time>
      </trkpt>
      <trkpt lat="36.838168" lon="-3.587093">
        <ele>286.087</ele>
        <time>2022-12-10T07:10:55Z</time>
      </trkpt>
      <trkpt lat="36.838157" lon="-3.587095">
        <ele>286.519</ele>
        <time>2022-12-10T07:11:00Z</time>
      </trkpt>
      <trkpt lat="36.838127" lon="-3.587104">
        <ele>287.675</ele>
        <time>2022-12-10T07:11:06Z</time>
      </trkpt>
      <trkpt lat="36.838099" lon="-3.587115">
        <ele>288.896</ele>
        <time>2022-12-10T07:11:11Z</time>
      </trkpt>
      <trkpt lat="36.838066" lon="-3.587104">
        <ele>289.929</ele>
        <time>2022-12-10T07:11:15Z</time>
      </trkpt>
      <trkpt lat="36.838054" lon="-3.587106">
        <ele>290.479</ele>
        <time>2022-12-10T07:11:16Z</time>
      </trkpt>
      <trkpt lat="36.838046" lon="-3.587111">
        <ele>290.795</ele>
        <time>2022-12-10T07:11:17Z</time>
      </trkpt>
      <trkpt lat="36.838022" lon="-3.587149">
        <ele>291.849</ele>
        <time>2022-12-10T07:11:21Z</time>
      </trkpt>
      <trkpt lat="36.838006" lon="-3.587176">
        <ele>292.623</ele>
        <time>2022-12-10T07:11:24Z</time>
      </trkpt>
      <trkpt lat="36.837990" lon="-3.587184">
        <ele>293.109</ele>
        <time>2022-12-10T07:11:26Z</time>
      </trkpt>
      <trkpt lat="36.837965" lon="-3.587194">
        <ele>293.940</ele>
        <time>2022-12-10T07:11:30Z</time>
      </trkpt>
      <trkpt lat="36.837959" lon="-3.587206">
        <ele>294.261</ele>
        <time>2022-12-10T07:11:32Z</time>
      </trkpt>
      <trkpt lat="36.837940" lon="-3.587224">
        <ele>294.920</ele>
        <time>2022-12-10T07:11:37Z</time>
      </trkpt>
      <trkpt lat="36.837897" lon="-3.587256">
        <ele>296.439</ele>
        <time>2022-12-10T07:11:42Z</time>
      </trkpt>
      <trkpt lat="36.837876" lon="-3.587289">
        <ele>297.391</ele>
        <time>2022-12-10T07:11:47Z</time>
      </trkpt>
      <trkpt lat="36.837837" lon="-3.587263">
        <ele>298.037</ele>
        <time>2022-12-10T07:11:53Z</time>
      </trkpt>
      <trkpt lat="36.837813" lon="-3.587262">
        <ele>298.658</ele>
        <time>2022-12-10T07:11:59Z</time>
      </trkpt>
      <trkpt lat="36.837810" lon="-3.587325">
        <ele>299.641</ele>
        <time>2022-12-10T07:12:03Z</time>
      </trkpt>
      <trkpt lat="36.837810" lon="-3.587345">
        <ele>299.981</ele>
        <time>2022-12-10T07:12:04Z</time>
      </trkpt>
      <trkpt lat="36.837811" lon="-3.587401">
        <ele>300.642</ele>
        <time>2022-12-10T07:12:08Z</time>
      </trkpt>
      <trkpt lat="36.837796" lon="-3.587430">
        <ele>301.422</ele>
        <time>2022-12-10T07:12:11Z</time>
      </trkpt>
      <trkpt lat="36.837772" lon="-3.587464">
        <ele>302.614</ele>
        <time>2022-12-10T07:12:15Z</time>
      </trkpt>
      <trkpt lat="36.837756" lon="-3.587507">
        <ele>303.409</ele>
        <time>2022-12-10T07:12:20Z</time>
      </trkpt>
      <trkpt lat="36.837746" lon="-3.587510">
        <ele>303.635</ele>
        <time>2022-12-10T07:12:21Z</time>
      </trkpt>
      <trkpt lat="36.837731" lon="-3.587527">
        <ele>303.966</ele>
        <time>2022-12-10T07:12:24Z</time>
      </trkpt>
      <trkpt lat="36.837720" lon="-3.587555">
        <ele>304.225</ele>
        <time>2022-12-10T07:12:28Z</time>
      </trkpt>
      <trkpt lat="36.837668" lon="-3.587543">
        <ele>305.174</ele>
        <time>2022-12-10T07:12:36Z</time>
      </trkpt>
      <trkpt lat="36.837632" lon="-3.587526">
        <ele>305.726</ele>
        <time>2022-12-10T07:12:42Z</time>
      </trkpt>
      <trkpt lat="36.837562" lon="-3.587530">
        <ele>307.012</ele>
        <time>2022-12-10T07:12:49Z</time>
      </trkpt>
      <trkpt lat="36.837497" lon="-3.587614">
        <ele>308.553</ele>
        <time>2022-12-10T07:12:56Z</time>
      </trkpt>
      <trkpt lat="36.837477" lon="-3.587631">
        <ele>308.966</ele>
        <time>2022-12-10T07:12:58Z</time>
      </trkpt>
      <trkpt lat="36.837440" lon="-3.587650">
        <ele>309.766</ele>
        <time>2022-12-10T07:13:01Z</time>
      </trkpt>
      <trkpt lat="36.837406" lon="-3.587682">
        <ele>310.676</ele>
        <time>2022-12-10T07:13:06Z</time>
      </trkpt>
      <trkpt lat="36.837350" lon="-3.587716">
        <ele>311.990</ele>
        <time>2022-12-10T07:13:12Z</time>
      </trkpt>
      <trkpt lat="36.837306" lon="-3.587747">
        <ele>313.019</ele>
        <time>2022-12-10T07:13:18Z</time>
      </trkpt>
      <trkpt lat="36.837297" lon="-3.587748">
        <ele>313.209</ele>
        <time>2022-12-10T07:13:19Z</time>
      </trkpt>
      <trkpt lat="36.837262" lon="-3.587772">
        <ele>314.178</ele>
        <time>2022-12-10T07:13:24Z</time>
      </trkpt>
      <trkpt lat="36.837245" lon="-3.587783">
        <ele>314.549</ele>
        <time>2022-12-10T07:13:26Z</time>
      </trkpt>
      <trkpt lat="36.837228" lon="-3.587811">
        <ele>314.998</ele>
        <time>2022-12-10T07:13:29Z</time>
      </trkpt>
      <trkpt lat="36.837190" lon="-3.587852">
        <ele>316.027</ele>
        <time>2022-12-10T07:13:34Z</time>
      </trkpt>
      <trkpt lat="36.837144" lon="-3.587882">
        <ele>317.469</ele>
        <time>2022-12-10T07:13:40Z</time>
      </trkpt>
      <trkpt lat="36.837113" lon="-3.587894">
        <ele>318.365</ele>
        <time>2022-12-10T07:13:44Z</time>
      </trkpt>
      <trkpt lat="36.837104" lon="-3.587903">
        <ele>318.626</ele>
        <time>2022-12-10T07:13:46Z</time>
      </trkpt>
      <trkpt lat="36.837078" lon="-3.587913">
        <ele>319.429</ele>
        <time>2022-12-10T07:13:51Z</time>
      </trkpt>
      <trkpt lat="36.837048" lon="-3.587923">
        <ele>320.329</ele>
        <time>2022-12-10T07:13:56Z</time>
      </trkpt>
      <trkpt lat="36.837022" lon="-3.587925">
        <ele>321.181</ele>
        <time>2022-12-10T07:14:02Z</time>
      </trkpt>
      <trkpt lat="36.837014" lon="-3.587956">
        <ele>321.561</ele>
        <time>2022-12-10T07:14:08Z</time>
      </trkpt>
      <trkpt lat="36.836935" lon="-3.587914">
        <ele>324.017</ele>
        <time>2022-12-10T07:14:15Z</time>
      </trkpt>
      <trkpt lat="36.836925" lon="-3.587870">
        <ele>324.309</ele>
        <time>2022-12-10T07:14:20Z</time>
      </trkpt>
      <trkpt lat="36.836887" lon="-3.587844">
        <ele>326.229</ele>
        <time>2022-12-10T07:14:26Z</time>
      </trkpt>
      <trkpt lat="36.836841" lon="-3.587881">
        <ele>328.710</ele>
        <time>2022-12-10T07:14:32Z</time>
      </trkpt>
      <trkpt lat="36.836814" lon="-3.587851">
        <ele>330.039</ele>
        <time>2022-12-10T07:14:37Z</time>
      </trkpt>
      <trkpt lat="36.836813" lon="-3.587850">
        <ele>330.068</ele>
        <time>2022-12-10T07:14:38Z</time>
      </trkpt>
      <trkpt lat="36.836790" lon="-3.587906">
        <ele>331.570</ele>
        <time>2022-12-10T07:14:43Z</time>
      </trkpt>
      <trkpt lat="36.836765" lon="-3.587951">
        <ele>333.126</ele>
        <time>2022-12-10T07:14:48Z</time>
      </trkpt>
      <trkpt lat="36.836754" lon="-3.587971">
        <ele>333.857</ele>
        <time>2022-12-10T07:14:51Z</time>
      </trkpt>
      <trkpt lat="36.836749" lon="-3.587979">
        <ele>334.180</ele>
        <time>2022-12-10T07:14:53Z</time>
      </trkpt>
      <trkpt lat="36.836731" lon="-3.587964">
        <ele>334.990</ele>
        <time>2022-12-10T07:14:54Z</time>
      </trkpt>
      <trkpt lat="36.836736" lon="-3.587922">
        <ele>334.448</ele>
        <time>2022-12-10T07:14:59Z</time>
      </trkpt>
      <trkpt lat="36.836706" lon="-3.587948">
        <ele>336.261</ele>
        <time>2022-12-10T07:15:05Z</time>
      </trkpt>
      <trkpt lat="36.836674" lon="-3.587956">
        <ele>337.917</ele>
        <time>2022-12-10T07:15:11Z</time>
      </trkpt>
      <trkpt lat="36.836648" lon="-3.587981">
        <ele>339.509</ele>
        <time>2022-12-10T07:15:15Z</time>
      </trkpt>
      <trkpt lat="36.836642" lon="-3.587986">
        <ele>339.865</ele>
        <time>2022-12-10T07:15:16Z</time>
      </trkpt>
      <trkpt lat="36.836617" lon="-3.587987">
        <ele>341.126</ele>
        <time>2022-12-10T07:15:21Z</time>
      </trkpt>
      <trkpt lat="36.836601" lon="-3.588029">
        <ele>342.355</ele>
        <time>2022-12-10T07:15:27Z</time>
      </trkpt>
      <trkpt lat="36.836578" lon="-3.588065">
        <ele>343.934</ele>
        <time>2022-12-10T07:15:32Z</time>
      </trkpt>
      <trkpt lat="36.836546" lon="-3.588104">
        <ele>345.866</ele>
        <time>2022-12-10T07:15:38Z</time>
      </trkpt>
      <trkpt lat="36.836517" lon="-3.588122">
        <ele>347.412</ele>
        <time>2022-12-10T07:15:42Z</time>
      </trkpt>
      <trkpt lat="36.836509" lon="-3.588128">
        <ele>347.863</ele>
        <time>2022-12-10T07:15:44Z</time>
      </trkpt>
      <trkpt lat="36.836479" lon="-3.588154">
        <ele>349.446</ele>
        <time>2022-12-10T07:15:50Z</time>
      </trkpt>
      <trkpt lat="36.836457" lon="-3.588199">
        <ele>350.476</ele>
        <time>2022-12-10T07:15:55Z</time>
      </trkpt>
      <trkpt lat="36.836433" lon="-3.588181">
        <ele>351.573</ele>
        <time>2022-12-10T07:16:01Z</time>
      </trkpt>
      <trkpt lat="36.836425" lon="-3.588132">
        <ele>352.085</ele>
        <time>2022-12-10T07:16:06Z</time>
      </trkpt>
      <trkpt lat="36.836426" lon="-3.588090">
        <ele>352.013</ele>
        <time>2022-12-10T07:16:11Z</time>
      </trkpt>
      <trkpt lat="36.836425" lon="-3.588123">
        <ele>352.009</ele>
        <time>2022-12-10T07:16:17Z</time>
      </trkpt>
      <trkpt lat="36.836392" lon="-3.588151">
        <ele>353.598</ele>
        <time>2022-12-10T07:16:21Z</time>
      </trkpt>
      <trkpt lat="36.836374" lon="-3.588189">
        <ele>354.289</ele>
        <time>2022-12-10T07:16:25Z</time>
      </trkpt>
      <trkpt lat="36.836354" lon="-3.588203">
        <ele>355.038</ele>
        <time>2022-12-10T07:16:30Z</time>
      </trkpt>
      <trkpt lat="36.836322" lon="-3.588218">
        <ele>356.397</ele>
        <time>2022-12-10T07:16:35Z</time>
      </trkpt>
      <trkpt lat="36.836286" lon="-3.588220">
        <ele>357.899</ele>
        <time>2022-12-10T07:16:40Z</time>
      </trkpt>
      <trkpt lat="36.836269" lon="-3.588248">
        <ele>358.325</ele>
        <time>2022-12-10T07:16:45Z</time>
      </trkpt>
      <trkpt lat="36.836246" lon="-3.588273">
        <ele>359.186</ele>
        <time>2022-12-10T07:16:50Z</time>
      </trkpt>
      <trkpt lat="36.836224" lon="-3.588280">
        <ele>359.939</ele>
        <time>2022-12-10T07:16:56Z</time>
      </trkpt>
      <trkpt lat="36.836188" lon="-3.588296">
        <ele>361.389</ele>
        <time>2022-12-10T07:17:00Z</time>
      </trkpt>
      <trkpt lat="36.836156" lon="-3.588304">
        <ele>362.557</ele>
        <time>2022-12-10T07:17:04Z</time>
      </trkpt>
      <trkpt lat="36.836104" lon="-3.588346">
        <ele>364.100</ele>
        <time>2022-12-10T07:17:10Z</time>
      </trkpt>
      <trkpt lat="36.836015" lon="-3.588417">
        <ele>366.920</ele>
        <time>2022-12-10T07:17:19Z</time>
      </trkpt>
      <trkpt lat="36.836002" lon="-3.588427">
        <ele>367.309</ele>
        <time>2022-12-10T07:17:21Z</time>
      </trkpt>
      <trkpt lat="36.835991" lon="-3.588479">
        <ele>367.016</ele>
        <time>2022-12-10T07:17:26Z</time>
      </trkpt>
      <trkpt lat="36.835994" lon="-3.588490">
        <ele>366.777</ele>
        <time>2022-12-10T07:17:27Z</time>
      </trkpt>
      <trkpt lat="36.836009" lon="-3.588538">
        <ele>365.336</ele>
        <time>2022-12-10T07:17:31Z</time>
      </trkpt>
      <trkpt lat="36.836013" lon="-3.588564">
        <ele>364.755</ele>
        <time>2022-12-10T07:17:33Z</time>
      </trkpt>
      <trkpt lat="36.836022" lon="-3.588618">
        <ele>363.527</ele>
        <time>2022-12-10T07:17:38Z</time>
      </trkpt>
      <trkpt lat="36.836019" lon="-3.588684">
        <ele>364.063</ele>
        <time>2022-12-10T07:17:44Z</time>
      </trkpt>
      <trkpt lat="36.836031" lon="-3.588719">
        <ele>363.624</ele>
        <time>2022-12-10T07:17:48Z</time>
      </trkpt>
      <trkpt lat="36.836030" lon="-3.588724">
        <ele>363.757</ele>
        <time>2022-12-10T07:17:49Z</time>
      </trkpt>
      <trkpt lat="36.836026" lon="-3.588741">
        <ele>363.987</ele>
        <time>2022-12-10T07:17:51Z</time>
      </trkpt>
      <trkpt lat="36.836012" lon="-3.588773">
        <ele>364.788</ele>
        <time>2022-12-10T07:17:55Z</time>
      </trkpt>
      <trkpt lat="36.835997" lon="-3.588824">
        <ele>365.724</ele>
        <time>2022-12-10T07:17:59Z</time>
      </trkpt>
      <trkpt lat="36.835988" lon="-3.588834">
        <ele>366.126</ele>
        <time>2022-12-10T07:18:00Z</time>
      </trkpt>
      <trkpt lat="36.835955" lon="-3.588892">
        <ele>367.809</ele>
        <time>2022-12-10T07:18:06Z</time>
      </trkpt>
      <trkpt lat="36.835953" lon="-3.588900">
        <ele>367.939</ele>
        <time>2022-12-10T07:18:07Z</time>
      </trkpt>
      <trkpt lat="36.835925" lon="-3.588951">
        <ele>369.540</ele>
        <time>2022-12-10T07:18:13Z</time>
      </trkpt>
      <trkpt lat="36.835913" lon="-3.588960">
        <ele>370.199</ele>
        <time>2022-12-10T07:18:15Z</time>
      </trkpt>
      <trkpt lat="36.835900" lon="-3.588974">
        <ele>370.758</ele>
        <time>2022-12-10T07:18:17Z</time>
      </trkpt>
      <trkpt lat="36.835821" lon="-3.588998">
        <ele>374.170</ele>
        <time>2022-12-10T07:18:25Z</time>
      </trkpt>
      <trkpt lat="36.835784" lon="-3.589022">
        <ele>375.196</ele>
        <time>2022-12-10T07:18:31Z</time>
      </trkpt>
      <trkpt lat="36.835763" lon="-3.589051">
        <ele>375.847</ele>
        <time>2022-12-10T07:18:36Z</time>
      </trkpt>
      <trkpt lat="36.835729" lon="-3.589082">
        <ele>376.890</ele>
        <time>2022-12-10T07:18:42Z</time>
      </trkpt>
      <trkpt lat="36.835718" lon="-3.589116">
        <ele>377.250</ele>
        <time>2022-12-10T07:18:46Z</time>
      </trkpt>
      <trkpt lat="36.835738" lon="-3.589244">
        <ele>377.643</ele>
        <time>2022-12-10T07:18:54Z</time>
      </trkpt>
      <trkpt lat="36.835748" lon="-3.589273">
        <ele>377.664</ele>
        <time>2022-12-10T07:18:57Z</time>
      </trkpt>
      <trkpt lat="36.835758" lon="-3.589306">
        <ele>377.510</ele>
        <time>2022-12-10T07:19:01Z</time>
      </trkpt>
      <trkpt lat="36.835758" lon="-3.589338">
        <ele>377.709</ele>
        <time>2022-12-10T07:19:06Z</time>
      </trkpt>
      <trkpt lat="36.835748" lon="-3.589374">
        <ele>378.365</ele>
        <time>2022-12-10T07:19:14Z</time>
      </trkpt>
      <trkpt lat="36.835739" lon="-3.589419">
        <ele>378.926</ele>
        <time>2022-12-10T07:19:20Z</time>
      </trkpt>
      <trkpt lat="36.835736" lon="-3.589424">
        <ele>379.055</ele>
        <time>2022-12-10T07:19:26Z</time>
      </trkpt>
      <trkpt lat="36.835735" lon="-3.589501">
        <ele>379.864</ele>
        <time>2022-12-10T07:20:44Z</time>
      </trkpt>
      <trkpt lat="36.835677" lon="-3.589476">
        <ele>381.496</ele>
        <time>2022-12-10T07:21:14Z</time>
      </trkpt>
      <trkpt lat="36.835645" lon="-3.589516">
        <ele>382.992</ele>
        <time>2022-12-10T07:22:38Z</time>
      </trkpt>
      <trkpt lat="36.835624" lon="-3.589543">
        <ele>383.883</ele>
        <time>2022-12-10T07:22:41Z</time>
      </trkpt>
      <trkpt lat="36.835601" lon="-3.589559">
        <ele>384.836</ele>
        <time>2022-12-10T07:22:45Z</time>
      </trkpt>
      <trkpt lat="36.835557" lon="-3.589561">
        <ele>386.286</ele>
        <time>2022-12-10T07:22:50Z</time>
      </trkpt>
      <trkpt lat="36.835532" lon="-3.589611">
        <ele>386.343</ele>
        <time>2022-12-10T07:23:11Z</time>
      </trkpt>
      <trkpt lat="36.835517" lon="-3.589631">
        <ele>386.364</ele>
        <time>2022-12-10T07:23:18Z</time>
      </trkpt>
      <trkpt lat="36.835581" lon="-3.589588">
        <ele>385.710</ele>
        <time>2022-12-10T07:23:35Z</time>
      </trkpt>
      <trkpt lat="36.835584" lon="-3.589548">
        <ele>385.209</ele>
        <time>2022-12-10T07:23:40Z</time>
      </trkpt>
      <trkpt lat="36.835596" lon="-3.589497">
        <ele>384.335</ele>
        <time>2022-12-10T07:24:01Z</time>
      </trkpt>
      <trkpt lat="36.835473" lon="-3.589666">
        <ele>385.886</ele>
        <time>2022-12-10T07:24:27Z</time>
      </trkpt>
      <trkpt lat="36.835469" lon="-3.589675">
        <ele>385.995</ele>
        <time>2022-12-10T07:24:28Z</time>
      </trkpt>
      <trkpt lat="36.835457" lon="-3.589738">
        <ele>386.454</ele>
        <time>2022-12-10T07:24:34Z</time>
      </trkpt>
      <trkpt lat="36.835442" lon="-3.589802">
        <ele>386.836</ele>
        <time>2022-12-10T07:24:41Z</time>
      </trkpt>
      <trkpt lat="36.835437" lon="-3.589862">
        <ele>387.422</ele>
        <time>2022-12-10T07:24:47Z</time>
      </trkpt>
      <trkpt lat="36.835422" lon="-3.589889">
        <ele>387.463</ele>
        <time>2022-12-10T07:24:52Z</time>
      </trkpt>
      <trkpt lat="36.835456" lon="-3.589746">
        <ele>386.526</ele>
        <time>2022-12-10T07:25:09Z</time>
      </trkpt>
      <trkpt lat="36.835480" lon="-3.589699">
        <ele>386.466</ele>
        <time>2022-12-10T07:25:13Z</time>
      </trkpt>
      <trkpt lat="36.835495" lon="-3.589670">
        <ele>386.366</ele>
        <time>2022-12-10T07:25:16Z</time>
      </trkpt>
      <trkpt lat="36.835520" lon="-3.589658">
        <ele>386.629</ele>
        <time>2022-12-10T07:25:19Z</time>
      </trkpt>
      <trkpt lat="36.835552" lon="-3.589629">
        <ele>386.921</ele>
        <time>2022-12-10T07:25:23Z</time>
      </trkpt>
      <trkpt lat="36.835563" lon="-3.589608">
        <ele>386.509</ele>
        <time>2022-12-10T07:25:25Z</time>
      </trkpt>
      <trkpt lat="36.835575" lon="-3.589603">
        <ele>386.147</ele>
        <time>2022-12-10T07:25:27Z</time>
      </trkpt>
      <trkpt lat="36.835618" lon="-3.589449">
        <ele>383.078</ele>
        <time>2022-12-10T07:25:49Z</time>
      </trkpt>
      <trkpt lat="36.835584" lon="-3.589341">
        <ele>382.717</ele>
        <time>2022-12-10T07:26:01Z</time>
      </trkpt>
      <trkpt lat="36.835578" lon="-3.589254">
        <ele>381.726</ele>
        <time>2022-12-10T07:26:12Z</time>
      </trkpt>
      <trkpt lat="36.835551" lon="-3.589259">
        <ele>382.288</ele>
        <time>2022-12-10T07:26:29Z</time>
      </trkpt>
      <trkpt lat="36.835508" lon="-3.589139">
        <ele>380.034</ele>
        <time>2022-12-10T07:26:59Z</time>
      </trkpt>
      <trkpt lat="36.835496" lon="-3.589116">
        <ele>379.795</ele>
        <time>2022-12-10T07:27:02Z</time>
      </trkpt>
      <trkpt lat="36.835482" lon="-3.589122">
        <ele>379.538</ele>
        <time>2022-12-10T07:27:17Z</time>
      </trkpt>
      <trkpt lat="36.835489" lon="-3.589186">
        <ele>380.158</ele>
        <time>2022-12-10T07:31:38Z</time>
      </trkpt>
      <trkpt lat="36.835487" lon="-3.589306">
        <ele>381.617</ele>
        <time>2022-12-10T07:31:45Z</time>
      </trkpt>
      <trkpt lat="36.835496" lon="-3.589415">
        <ele>383.387</ele>
        <time>2022-12-10T07:31:53Z</time>
      </trkpt>
      <trkpt lat="36.835483" lon="-3.589461">
        <ele>383.615</ele>
        <time>2022-12-10T07:31:57Z</time>
      </trkpt>
      <trkpt lat="36.835439" lon="-3.589536">
        <ele>383.609</ele>
        <time>2022-12-10T07:32:03Z</time>
      </trkpt>
      <trkpt lat="36.835390" lon="-3.589643">
        <ele>384.022</ele>
        <time>2022-12-10T07:32:10Z</time>
      </trkpt>
      <trkpt lat="36.835335" lon="-3.589806">
        <ele>384.963</ele>
        <time>2022-12-10T07:32:21Z</time>
      </trkpt>
      <trkpt lat="36.835312" lon="-3.589939">
        <ele>386.072</ele>
        <time>2022-12-10T07:32:29Z</time>
      </trkpt>
      <trkpt lat="36.835330" lon="-3.590031">
        <ele>387.731</ele>
        <time>2022-12-10T07:32:35Z</time>
      </trkpt>
      <trkpt lat="36.835336" lon="-3.590048">
        <ele>388.273</ele>
        <time>2022-12-10T07:32:37Z</time>
      </trkpt>
      <trkpt lat="36.835370" lon="-3.590100">
        <ele>390.129</ele>
        <time>2022-12-10T07:32:52Z</time>
      </trkpt>
      <trkpt lat="36.835521" lon="-3.590238">
        <ele>395.650</ele>
        <time>2022-12-10T07:33:06Z</time>
      </trkpt>
      <trkpt lat="36.835677" lon="-3.590359">
        <ele>398.613</ele>
        <time>2022-12-10T07:33:21Z</time>
      </trkpt>
      <trkpt lat="36.835818" lon="-3.590498">
        <ele>402.043</ele>
        <time>2022-12-10T07:33:34Z</time>
      </trkpt>
      <trkpt lat="36.835979" lon="-3.590620">
        <ele>400.454</ele>
        <time>2022-12-10T07:33:48Z</time>
      </trkpt>
      <trkpt lat="36.836046" lon="-3.590670">
        <ele>399.056</ele>
        <time>2022-12-10T07:33:54Z</time>
      </trkpt>
      <trkpt lat="36.836041" lon="-3.590674">
        <ele>399.211</ele>
        <time>2022-12-10T07:33:55Z</time>
      </trkpt>
      <trkpt lat="36.835993" lon="-3.590719">
        <ele>401.709</ele>
        <time>2022-12-10T07:34:01Z</time>
      </trkpt>
      <trkpt lat="36.835966" lon="-3.590751">
        <ele>403.376</ele>
        <time>2022-12-10T07:34:05Z</time>
      </trkpt>
      <trkpt lat="36.835925" lon="-3.590789">
        <ele>405.567</ele>
        <time>2022-12-10T07:34:11Z</time>
      </trkpt>
      <trkpt lat="36.835921" lon="-3.590791">
        <ele>405.766</ele>
        <time>2022-12-10T07:34:12Z</time>
      </trkpt>
      <trkpt lat="36.835900" lon="-3.590818">
        <ele>407.175</ele>
        <time>2022-12-10T07:34:16Z</time>
      </trkpt>
      <trkpt lat="36.835885" lon="-3.590852">
        <ele>408.327</ele>
        <time>2022-12-10T07:34:20Z</time>
      </trkpt>
      <trkpt lat="36.835883" lon="-3.590860">
        <ele>408.513</ele>
        <time>2022-12-10T07:34:21Z</time>
      </trkpt>
      <trkpt lat="36.835862" lon="-3.590871">
        <ele>409.644</ele>
        <time>2022-12-10T07:34:25Z</time>
      </trkpt>
      <trkpt lat="36.835829" lon="-3.590905">
        <ele>411.627</ele>
        <time>2022-12-10T07:34:30Z</time>
      </trkpt>
      <trkpt lat="36.835815" lon="-3.590928">
        <ele>412.467</ele>
        <time>2022-12-10T07:34:32Z</time>
      </trkpt>
      <trkpt lat="36.835807" lon="-3.590952">
        <ele>413.067</ele>
        <time>2022-12-10T07:34:34Z</time>
      </trkpt>
      <trkpt lat="36.835802" lon="-3.590992">
        <ele>414.081</ele>
        <time>2022-12-10T07:34:39Z</time>
      </trkpt>
      <trkpt lat="36.835785" lon="-3.591018">
        <ele>414.919</ele>
        <time>2022-12-10T07:34:43Z</time>
      </trkpt>
      <trkpt lat="36.835757" lon="-3.591062">
        <ele>416.309</ele>
        <time>2022-12-10T07:34:48Z</time>
      </trkpt>
      <trkpt lat="36.835744" lon="-3.591134">
        <ele>417.937</ele>
        <time>2022-12-10T07:34:53Z</time>
      </trkpt>
      <trkpt lat="36.835724" lon="-3.591192">
        <ele>418.818</ele>
        <time>2022-12-10T07:34:58Z</time>
      </trkpt>
      <trkpt lat="36.835714" lon="-3.591245">
        <ele>419.667</ele>
        <time>2022-12-10T07:35:03Z</time>
      </trkpt>
      <trkpt lat="36.835712" lon="-3.591249">
        <ele>419.736</ele>
        <time>2022-12-10T07:35:04Z</time>
      </trkpt>
      <trkpt lat="36.835710" lon="-3.591289">
        <ele>420.138</ele>
        <time>2022-12-10T07:35:08Z</time>
      </trkpt>
      <trkpt lat="36.835710" lon="-3.591316">
        <ele>420.424</ele>
        <time>2022-12-10T07:35:10Z</time>
      </trkpt>
      <trkpt lat="36.835695" lon="-3.591341">
        <ele>421.045</ele>
        <time>2022-12-10T07:35:13Z</time>
      </trkpt>
      <trkpt lat="36.835683" lon="-3.591384">
        <ele>421.748</ele>
        <time>2022-12-10T07:35:18Z</time>
      </trkpt>
      <trkpt lat="36.835671" lon="-3.591425">
        <ele>421.838</ele>
        <time>2022-12-10T07:35:22Z</time>
      </trkpt>
      <trkpt lat="36.835663" lon="-3.591438">
        <ele>421.975</ele>
        <time>2022-12-10T07:35:24Z</time>
      </trkpt>
      <trkpt lat="36.835636" lon="-3.591444">
        <ele>422.428</ele>
        <time>2022-12-10T07:35:27Z</time>
      </trkpt>
      <trkpt lat="36.835620" lon="-3.591454">
        <ele>422.720</ele>
        <time>2022-12-10T07:35:29Z</time>
      </trkpt>
      <trkpt lat="36.835603" lon="-3.591464">
        <ele>423.009</ele>
        <time>2022-12-10T07:35:31Z</time>
      </trkpt>
      <trkpt lat="36.835594" lon="-3.591470">
        <ele>423.288</ele>
        <time>2022-12-10T07:35:32Z</time>
      </trkpt>
      <trkpt lat="36.835586" lon="-3.591478">
        <ele>423.359</ele>
        <time>2022-12-10T07:35:33Z</time>
      </trkpt>
      <trkpt lat="36.835519" lon="-3.591520">
        <ele>423.528</ele>
        <time>2022-12-10T07:35:39Z</time>
      </trkpt>
      <trkpt lat="36.835390" lon="-3.591592">
        <ele>422.187</ele>
        <time>2022-12-10T07:35:49Z</time>
      </trkpt>
      <trkpt lat="36.835328" lon="-3.591623">
        <ele>421.479</ele>
        <time>2022-12-10T07:35:55Z</time>
      </trkpt>
      <trkpt lat="36.835295" lon="-3.591703">
        <ele>421.415</ele>
        <time>2022-12-10T07:36:01Z</time>
      </trkpt>
      <trkpt lat="36.835269" lon="-3.591760">
        <ele>421.566</ele>
        <time>2022-12-10T07:36:06Z</time>
      </trkpt>
      <trkpt lat="36.835237" lon="-3.591801">
        <ele>421.329</ele>
        <time>2022-12-10T07:36:11Z</time>
      </trkpt>
      <trkpt lat="36.835207" lon="-3.591854">
        <ele>421.489</ele>
        <time>2022-12-10T07:36:16Z</time>
      </trkpt>
      <trkpt lat="36.835191" lon="-3.591910">
        <ele>421.961</ele>
        <time>2022-12-10T07:36:21Z</time>
      </trkpt>
      <trkpt lat="36.835179" lon="-3.591972">
        <ele>422.721</ele>
        <time>2022-12-10T07:36:26Z</time>
      </trkpt>
      <trkpt lat="36.835179" lon="-3.592053">
        <ele>424.013</ele>
        <time>2022-12-10T07:36:32Z</time>
      </trkpt>
      <trkpt lat="36.835158" lon="-3.592123">
        <ele>425.209</ele>
        <time>2022-12-10T07:36:38Z</time>
      </trkpt>
      <trkpt lat="36.835138" lon="-3.592152">
        <ele>425.757</ele>
        <time>2022-12-10T07:36:41Z</time>
      </trkpt>
      <trkpt lat="36.835106" lon="-3.592219">
        <ele>427.258</ele>
        <time>2022-12-10T07:36:45Z</time>
      </trkpt>
      <trkpt lat="36.835038" lon="-3.592459">
        <ele>434.177</ele>
        <time>2022-12-10T07:36:59Z</time>
      </trkpt>
      <trkpt lat="36.835033" lon="-3.592486">
        <ele>434.976</ele>
        <time>2022-12-10T07:37:00Z</time>
      </trkpt>
      <trkpt lat="36.835015" lon="-3.592572">
        <ele>436.578</ele>
        <time>2022-12-10T07:37:05Z</time>
      </trkpt>
      <trkpt lat="36.834944" lon="-3.592569">
        <ele>435.544</ele>
        <time>2022-12-10T07:37:09Z</time>
      </trkpt>
      <trkpt lat="36.834891" lon="-3.592591">
        <ele>434.695</ele>
        <time>2022-12-10T07:37:12Z</time>
      </trkpt>
      <trkpt lat="36.834822" lon="-3.592584">
        <ele>433.098</ele>
        <time>2022-12-10T07:37:15Z</time>
      </trkpt>
      <trkpt lat="36.834757" lon="-3.592588">
        <ele>431.768</ele>
        <time>2022-12-10T07:37:18Z</time>
      </trkpt>
      <trkpt lat="36.834742" lon="-3.592590">
        <ele>431.467</ele>
        <time>2022-12-10T07:37:19Z</time>
      </trkpt>
      <trkpt lat="36.834666" lon="-3.592578">
        <ele>428.881</ele>
        <time>2022-12-10T07:37:23Z</time>
      </trkpt>
      <trkpt lat="36.834637" lon="-3.592569">
        <ele>427.619</ele>
        <time>2022-12-10T07:37:25Z</time>
      </trkpt>
      <trkpt lat="36.834595" lon="-3.592558">
        <ele>425.909</ele>
        <time>2022-12-10T07:37:27Z</time>
      </trkpt>
      <trkpt lat="36.834519" lon="-3.592547">
        <ele>422.947</ele>
        <time>2022-12-10T07:37:31Z</time>
      </trkpt>
      <trkpt lat="36.834443" lon="-3.592563">
        <ele>420.898</ele>
        <time>2022-12-10T07:37:35Z</time>
      </trkpt>
      <trkpt lat="36.834416" lon="-3.592562">
        <ele>419.717</ele>
        <time>2022-12-10T07:37:37Z</time>
      </trkpt>
      <trkpt lat="36.834397" lon="-3.592563">
        <ele>419.016</ele>
        <time>2022-12-10T07:37:38Z</time>
      </trkpt>
      <trkpt lat="36.834323" lon="-3.592582">
        <ele>416.778</ele>
        <time>2022-12-10T07:37:42Z</time>
      </trkpt>
      <trkpt lat="36.834268" lon="-3.592614">
        <ele>415.494</ele>
        <time>2022-12-10T07:37:45Z</time>
      </trkpt>
      <trkpt lat="36.834158" lon="-3.592667">
        <ele>412.235</ele>
        <time>2022-12-10T07:37:51Z</time>
      </trkpt>
      <trkpt lat="36.834152" lon="-3.592741">
        <ele>413.458</ele>
        <time>2022-12-10T07:37:54Z</time>
      </trkpt>
      <trkpt lat="36.834141" lon="-3.592795">
        <ele>413.818</ele>
        <time>2022-12-10T07:37:57Z</time>
      </trkpt>
      <trkpt lat="36.834136" lon="-3.592824">
        <ele>413.823</ele>
        <time>2022-12-10T07:38:01Z</time>
      </trkpt>
      <trkpt lat="36.834144" lon="-3.592838">
        <ele>414.483</ele>
        <time>2022-12-10T07:38:05Z</time>
      </trkpt>
      <trkpt lat="36.834158" lon="-3.592927">
        <ele>416.111</ele>
        <time>2022-12-10T07:38:18Z</time>
      </trkpt>
      <trkpt lat="36.834130" lon="-3.593153">
        <ele>417.309</ele>
        <time>2022-12-10T07:38:33Z</time>
      </trkpt>
      <trkpt lat="36.834137" lon="-3.593163">
        <ele>418.043</ele>
        <time>2022-12-10T07:38:34Z</time>
      </trkpt>
      <trkpt lat="36.834153" lon="-3.593320">
        <ele>421.824</ele>
        <time>2022-12-10T07:38:43Z</time>
      </trkpt>
      <trkpt lat="36.834304" lon="-3.593461">
        <ele>430.823</ele>
        <time>2022-12-10T07:38:54Z</time>
      </trkpt>
      <trkpt lat="36.834345" lon="-3.593535">
        <ele>433.212</ele>
        <time>2022-12-10T07:38:59Z</time>
      </trkpt>
      <trkpt lat="36.834359" lon="-3.593568">
        <ele>434.164</ele>
        <time>2022-12-10T07:39:01Z</time>
      </trkpt>
      <trkpt lat="36.834328" lon="-3.593736">
        <ele>435.340</ele>
        <time>2022-12-10T07:39:10Z</time>
      </trkpt>
      <trkpt lat="36.834278" lon="-3.593812">
        <ele>434.381</ele>
        <time>2022-12-10T07:39:15Z</time>
      </trkpt>
      <trkpt lat="36.834153" lon="-3.593868">
        <ele>429.164</ele>
        <time>2022-12-10T07:39:25Z</time>
      </trkpt>
      <trkpt lat="36.834128" lon="-3.593880">
        <ele>428.384</ele>
        <time>2022-12-10T07:39:27Z</time>
      </trkpt>
      <trkpt lat="36.833948" lon="-3.593829">
        <ele>419.824</ele>
        <time>2022-12-10T07:39:38Z</time>
      </trkpt>
      <trkpt lat="36.833906" lon="-3.593846">
        <ele>418.504</ele>
        <time>2022-12-10T07:39:42Z</time>
      </trkpt>
      <trkpt lat="36.833886" lon="-3.593851">
        <ele>417.814</ele>
        <time>2022-12-10T07:39:44Z</time>
      </trkpt>
      <trkpt lat="36.833795" lon="-3.593863">
        <ele>415.209</ele>
        <time>2022-12-10T07:39:50Z</time>
      </trkpt>
      <trkpt lat="36.833759" lon="-3.594032">
        <ele>416.053</ele>
        <time>2022-12-10T07:39:58Z</time>
      </trkpt>
      <trkpt lat="36.833773" lon="-3.594079">
        <ele>416.874</ele>
        <time>2022-12-10T07:40:01Z</time>
      </trkpt>
      <trkpt lat="36.833784" lon="-3.594154">
        <ele>417.613</ele>
        <time>2022-12-10T07:40:07Z</time>
      </trkpt>
      <trkpt lat="36.833850" lon="-3.594299">
        <ele>421.982</ele>
        <time>2022-12-10T07:40:15Z</time>
      </trkpt>
      <trkpt lat="36.833888" lon="-3.594373">
        <ele>424.494</ele>
        <time>2022-12-10T07:40:18Z</time>
      </trkpt>
      <trkpt lat="36.833995" lon="-3.594572">
        <ele>432.640</ele>
        <time>2022-12-10T07:40:30Z</time>
      </trkpt>
      <trkpt lat="36.834007" lon="-3.594603">
        <ele>433.791</ele>
        <time>2022-12-10T07:40:32Z</time>
      </trkpt>
      <trkpt lat="36.834042" lon="-3.594710">
        <ele>437.254</ele>
        <time>2022-12-10T07:40:38Z</time>
      </trkpt>
      <trkpt lat="36.834046" lon="-3.594731">
        <ele>437.974</ele>
        <time>2022-12-10T07:40:40Z</time>
      </trkpt>
      <trkpt lat="36.834032" lon="-3.594742">
        <ele>437.836</ele>
        <time>2022-12-10T07:40:42Z</time>
      </trkpt>
      <trkpt lat="36.833844" lon="-3.594669">
        <ele>430.217</ele>
        <time>2022-12-10T07:40:54Z</time>
      </trkpt>
      <trkpt lat="36.833815" lon="-3.594667">
        <ele>429.718</ele>
        <time>2022-12-10T07:40:56Z</time>
      </trkpt>
      <trkpt lat="36.833766" lon="-3.594670">
        <ele>429.109</ele>
        <time>2022-12-10T07:41:00Z</time>
      </trkpt>
      <trkpt lat="36.833727" lon="-3.594714">
        <ele>430.014</ele>
        <time>2022-12-10T07:41:04Z</time>
      </trkpt>
      <trkpt lat="36.833720" lon="-3.594721">
        <ele>430.135</ele>
        <time>2022-12-10T07:41:05Z</time>
      </trkpt>
      <trkpt lat="36.833665" lon="-3.594731">
        <ele>429.954</ele>
        <time>2022-12-10T07:41:10Z</time>
      </trkpt>
      <trkpt lat="36.833632" lon="-3.594737">
        <ele>429.743</ele>
        <time>2022-12-10T07:41:13Z</time>
      </trkpt>
      <trkpt lat="36.833628" lon="-3.594752">
        <ele>430.125</ele>
        <time>2022-12-10T07:41:14Z</time>
      </trkpt>
      <trkpt lat="36.833622" lon="-3.594760">
        <ele>430.331</ele>
        <time>2022-12-10T07:41:15Z</time>
      </trkpt>
      <trkpt lat="36.833609" lon="-3.594776">
        <ele>430.732</ele>
        <time>2022-12-10T07:41:18Z</time>
      </trkpt>
      <trkpt lat="36.833601" lon="-3.594790">
        <ele>431.065</ele>
        <time>2022-12-10T07:41:20Z</time>
      </trkpt>
      <trkpt lat="36.833586" lon="-3.594812">
        <ele>431.555</ele>
        <time>2022-12-10T07:41:23Z</time>
      </trkpt>
      <trkpt lat="36.833581" lon="-3.594818">
        <ele>431.684</ele>
        <time>2022-12-10T07:41:24Z</time>
      </trkpt>
      <trkpt lat="36.833558" lon="-3.594849">
        <ele>432.307</ele>
        <time>2022-12-10T07:41:29Z</time>
      </trkpt>
      <trkpt lat="36.833558" lon="-3.594904">
        <ele>434.217</ele>
        <time>2022-12-10T07:41:31Z</time>
      </trkpt>
      <trkpt lat="36.833548" lon="-3.594942">
        <ele>435.309</ele>
        <time>2022-12-10T07:41:34Z</time>
      </trkpt>
      <trkpt lat="36.833539" lon="-3.594985">
        <ele>436.739</ele>
        <time>2022-12-10T07:41:38Z</time>
      </trkpt>
      <trkpt lat="36.833510" lon="-3.595024">
        <ele>437.580</ele>
        <time>2022-12-10T07:41:42Z</time>
      </trkpt>
      <trkpt lat="36.833502" lon="-3.595030">
        <ele>437.569</ele>
        <time>2022-12-10T07:41:43Z</time>
      </trkpt>
      <trkpt lat="36.833461" lon="-3.595078">
        <ele>438.218</ele>
        <time>2022-12-10T07:41:47Z</time>
      </trkpt>
      <trkpt lat="36.833436" lon="-3.595183">
        <ele>440.310</ele>
        <time>2022-12-10T07:41:54Z</time>
      </trkpt>
      <trkpt lat="36.833425" lon="-3.595262">
        <ele>442.086</ele>
        <time>2022-12-10T07:42:00Z</time>
      </trkpt>
      <trkpt lat="36.833415" lon="-3.595335">
        <ele>442.897</ele>
        <time>2022-12-10T07:42:06Z</time>
      </trkpt>
      <trkpt lat="36.833421" lon="-3.595359">
        <ele>443.280</ele>
        <time>2022-12-10T07:42:09Z</time>
      </trkpt>
      <trkpt lat="36.833412" lon="-3.595390">
        <ele>443.490</ele>
        <time>2022-12-10T07:42:12Z</time>
      </trkpt>
      <trkpt lat="36.833402" lon="-3.595411">
        <ele>443.485</ele>
        <time>2022-12-10T07:42:14Z</time>
      </trkpt>
      <trkpt lat="36.833405" lon="-3.595432">
        <ele>443.789</ele>
        <time>2022-12-10T07:42:16Z</time>
      </trkpt>
      <trkpt lat="36.833403" lon="-3.595443">
        <ele>443.817</ele>
        <time>2022-12-10T07:42:17Z</time>
      </trkpt>
      <trkpt lat="36.833412" lon="-3.595491">
        <ele>444.509</ele>
        <time>2022-12-10T07:42:21Z</time>
      </trkpt>
      <trkpt lat="36.833436" lon="-3.595525">
        <ele>445.629</ele>
        <time>2022-12-10T07:42:23Z</time>
      </trkpt>
      <trkpt lat="36.833486" lon="-3.595595">
        <ele>448.040</ele>
        <time>2022-12-10T07:42:29Z</time>
      </trkpt>
      <trkpt lat="36.833475" lon="-3.595612">
        <ele>448.019</ele>
        <time>2022-12-10T07:42:31Z</time>
      </trkpt>
      <trkpt lat="36.833479" lon="-3.595629">
        <ele>448.468</ele>
        <time>2022-12-10T07:42:35Z</time>
      </trkpt>
      <trkpt lat="36.833469" lon="-3.595633">
        <ele>448.230</ele>
        <time>2022-12-10T07:42:36Z</time>
      </trkpt>
      <trkpt lat="36.833445" lon="-3.595628">
        <ele>447.466</ele>
        <time>2022-12-10T07:42:40Z</time>
      </trkpt>
      <trkpt lat="36.833399" lon="-3.595596">
        <ele>445.617</ele>
        <time>2022-12-10T07:42:46Z</time>
      </trkpt>
      <trkpt lat="36.833383" lon="-3.595590">
        <ele>445.010</ele>
        <time>2022-12-10T07:42:48Z</time>
      </trkpt>
      <trkpt lat="36.833379" lon="-3.595522">
        <ele>444.050</ele>
        <time>2022-12-10T07:42:57Z</time>
      </trkpt>
      <trkpt lat="36.833362" lon="-3.595517">
        <ele>443.549</ele>
        <time>2022-12-10T07:42:59Z</time>
      </trkpt>
      <trkpt lat="36.833337" lon="-3.595476">
        <ele>442.502</ele>
        <time>2022-12-10T07:43:05Z</time>
      </trkpt>
      <trkpt lat="36.833354" lon="-3.595544">
        <ele>443.522</ele>
        <time>2022-12-10T07:44:21Z</time>
      </trkpt>
      <trkpt lat="36.833376" lon="-3.595549">
        <ele>444.209</ele>
        <time>2022-12-10T07:45:14Z</time>
      </trkpt>
      <trkpt lat="36.833346" lon="-3.595524">
        <ele>443.115</ele>
        <time>2022-12-10T07:46:18Z</time>
      </trkpt>
      <trkpt lat="36.833294" lon="-3.595532">
        <ele>442.476</ele>
        <time>2022-12-10T07:46:59Z</time>
      </trkpt>
      <trkpt lat="36.833312" lon="-3.595485">
        <ele>442.265</ele>
        <time>2022-12-10T07:47:45Z</time>
      </trkpt>
      <trkpt lat="36.833311" lon="-3.595503">
        <ele>442.454</ele>
        <time>2022-12-10T07:48:09Z</time>
      </trkpt>
      <trkpt lat="36.833374" lon="-3.595507">
        <ele>443.766</ele>
        <time>2022-12-10T07:49:21Z</time>
      </trkpt>
      <trkpt lat="36.833379" lon="-3.595529">
        <ele>444.132</ele>
        <time>2022-12-10T07:49:24Z</time>
      </trkpt>
      <trkpt lat="36.833400" lon="-3.595572">
        <ele>445.223</ele>
        <time>2022-12-10T07:49:29Z</time>
      </trkpt>
      <trkpt lat="36.833392" lon="-3.595607">
        <ele>445.636</ele>
        <time>2022-12-10T07:49:32Z</time>
      </trkpt>
      <trkpt lat="36.833333" lon="-3.595607">
        <ele>443.956</ele>
        <time>2022-12-10T07:49:36Z</time>
      </trkpt>
      <trkpt lat="36.833269" lon="-3.595579">
        <ele>442.788</ele>
        <time>2022-12-10T07:49:41Z</time>
      </trkpt>
      <trkpt lat="36.833222" lon="-3.595547">
        <ele>441.724</ele>
        <time>2022-12-10T07:49:45Z</time>
      </trkpt>
      <trkpt lat="36.833187" lon="-3.595519">
        <ele>441.026</ele>
        <time>2022-12-10T07:49:49Z</time>
      </trkpt>
      <trkpt lat="36.833147" lon="-3.595478">
        <ele>440.109</ele>
        <time>2022-12-10T07:49:54Z</time>
      </trkpt>
      <trkpt lat="36.833139" lon="-3.595474">
        <ele>439.969</ele>
        <time>2022-12-10T07:49:55Z</time>
      </trkpt>
      <trkpt lat="36.833092" lon="-3.595418">
        <ele>438.590</ele>
        <time>2022-12-10T07:50:00Z</time>
      </trkpt>
      <trkpt lat="36.833070" lon="-3.595372">
        <ele>437.689</ele>
        <time>2022-12-10T07:50:05Z</time>
      </trkpt>
      <trkpt lat="36.833064" lon="-3.595362">
        <ele>437.388</ele>
        <time>2022-12-10T07:50:06Z</time>
      </trkpt>
      <trkpt lat="36.833040" lon="-3.595322">
        <ele>436.390</ele>
        <time>2022-12-10T07:50:10Z</time>
      </trkpt>
      <trkpt lat="36.833008" lon="-3.595272">
        <ele>434.966</ele>
        <time>2022-12-10T07:50:14Z</time>
      </trkpt>
      <trkpt lat="36.832990" lon="-3.595236">
        <ele>433.897</ele>
        <time>2022-12-10T07:50:17Z</time>
      </trkpt>
      <trkpt lat="36.832983" lon="-3.595228">
        <ele>433.460</ele>
        <time>2022-12-10T07:50:18Z</time>
      </trkpt>
      <trkpt lat="36.832914" lon="-3.595151">
        <ele>430.270</ele>
        <time>2022-12-10T07:50:24Z</time>
      </trkpt>
      <trkpt lat="36.832868" lon="-3.595127">
        <ele>428.599</ele>
        <time>2022-12-10T07:50:27Z</time>
      </trkpt>
      <trkpt lat="36.832800" lon="-3.595177">
        <ele>428.007</ele>
        <time>2022-12-10T07:50:32Z</time>
      </trkpt>
      <trkpt lat="36.832760" lon="-3.595210">
        <ele>427.827</ele>
        <time>2022-12-10T07:50:35Z</time>
      </trkpt>
      <trkpt lat="36.832727" lon="-3.595229">
        <ele>427.509</ele>
        <time>2022-12-10T07:50:37Z</time>
      </trkpt>
      <trkpt lat="36.832667" lon="-3.595261">
        <ele>426.830</ele>
        <time>2022-12-10T07:50:40Z</time>
      </trkpt>
      <trkpt lat="36.832567" lon="-3.595393">
        <ele>427.111</ele>
        <time>2022-12-10T07:50:46Z</time>
      </trkpt>
      <trkpt lat="36.832547" lon="-3.595404">
        <ele>426.860</ele>
        <time>2022-12-10T07:50:47Z</time>
      </trkpt>
      <trkpt lat="36.832428" lon="-3.595467">
        <ele>425.599</ele>
        <time>2022-12-10T07:50:52Z</time>
      </trkpt>
      <trkpt lat="36.832239" lon="-3.595466">
        <ele>421.411</ele>
        <time>2022-12-10T07:51:01Z</time>
      </trkpt>
      <trkpt lat="36.832117" lon="-3.595511">
        <ele>420.217</ele>
        <time>2022-12-10T07:51:08Z</time>
      </trkpt>
      <trkpt lat="36.832080" lon="-3.595651">
        <ele>421.378</ele>
        <time>2022-12-10T07:51:13Z</time>
      </trkpt>
      <trkpt lat="36.832055" lon="-3.595715">
        <ele>421.261</ele>
        <time>2022-12-10T07:51:15Z</time>
      </trkpt>
      <trkpt lat="36.832027" lon="-3.595767">
        <ele>420.931</ele>
        <time>2022-12-10T07:51:17Z</time>
      </trkpt>
      <trkpt lat="36.831976" lon="-3.595882">
        <ele>420.125</ele>
        <time>2022-12-10T07:51:21Z</time>
      </trkpt>
      <trkpt lat="36.831955" lon="-3.596064">
        <ele>420.226</ele>
        <time>2022-12-10T07:51:28Z</time>
      </trkpt>
      <trkpt lat="36.831934" lon="-3.596175">
        <ele>421.008</ele>
        <time>2022-12-10T07:51:33Z</time>
      </trkpt>
      <trkpt lat="36.831911" lon="-3.596219">
        <ele>421.709</ele>
        <time>2022-12-10T07:51:36Z</time>
      </trkpt>
      <trkpt lat="36.831899" lon="-3.596228">
        <ele>421.823</ele>
        <time>2022-12-10T07:51:38Z</time>
      </trkpt>
      <trkpt lat="36.831894" lon="-3.596226">
        <ele>421.844</ele>
        <time>2022-12-10T07:51:39Z</time>
      </trkpt>
      <trkpt lat="36.831845" lon="-3.596225">
        <ele>422.043</ele>
        <time>2022-12-10T07:51:46Z</time>
      </trkpt>
      <trkpt lat="36.831830" lon="-3.596209">
        <ele>421.832</ele>
        <time>2022-12-10T07:51:48Z</time>
      </trkpt>
      <trkpt lat="36.831818" lon="-3.596128">
        <ele>420.734</ele>
        <time>2022-12-10T07:51:59Z</time>
      </trkpt>
      <trkpt lat="36.831808" lon="-3.596089">
        <ele>420.430</ele>
        <time>2022-12-10T07:52:02Z</time>
      </trkpt>
      <trkpt lat="36.831795" lon="-3.596025">
        <ele>420.221</ele>
        <time>2022-12-10T07:52:07Z</time>
      </trkpt>
      <trkpt lat="36.831761" lon="-3.595918">
        <ele>420.074</ele>
        <time>2022-12-10T07:52:14Z</time>
      </trkpt>
      <trkpt lat="36.831706" lon="-3.595776">
        <ele>419.724</ele>
        <time>2022-12-10T07:52:22Z</time>
      </trkpt>
      <trkpt lat="36.831698" lon="-3.595753">
        <ele>419.686</ele>
        <time>2022-12-10T07:52:24Z</time>
      </trkpt>
      <trkpt lat="36.831651" lon="-3.595520">
        <ele>419.460</ele>
        <time>2022-12-10T07:52:39Z</time>
      </trkpt>
      <trkpt lat="36.831652" lon="-3.595506">
        <ele>419.426</ele>
        <time>2022-12-10T07:52:40Z</time>
      </trkpt>
      <trkpt lat="36.831649" lon="-3.595449">
        <ele>419.309</ele>
        <time>2022-12-10T07:52:44Z</time>
      </trkpt>
      <trkpt lat="36.831638" lon="-3.595428">
        <ele>419.649</ele>
        <time>2022-12-10T07:52:46Z</time>
      </trkpt>
      <trkpt lat="36.831611" lon="-3.595328">
        <ele>420.330</ele>
        <time>2022-12-10T07:52:54Z</time>
      </trkpt>
      <trkpt lat="36.831621" lon="-3.595322">
        <ele>419.929</ele>
        <time>2022-12-10T07:52:55Z</time>
      </trkpt>
      <trkpt lat="36.831621" lon="-3.595309">
        <ele>419.918</ele>
        <time>2022-12-10T07:52:56Z</time>
      </trkpt>
      <trkpt lat="36.831612" lon="-3.595266">
        <ele>420.120</ele>
        <time>2022-12-10T07:52:59Z</time>
      </trkpt>
      <trkpt lat="36.831581" lon="-3.595197">
        <ele>420.796</ele>
        <time>2022-12-10T07:53:05Z</time>
      </trkpt>
      <trkpt lat="36.831551" lon="-3.595137">
        <ele>421.467</ele>
        <time>2022-12-10T07:53:10Z</time>
      </trkpt>
      <trkpt lat="36.831524" lon="-3.595054">
        <ele>421.610</ele>
        <time>2022-12-10T07:53:17Z</time>
      </trkpt>
      <trkpt lat="36.831519" lon="-3.595018">
        <ele>421.590</ele>
        <time>2022-12-10T07:53:20Z</time>
      </trkpt>
      <trkpt lat="36.831510" lon="-3.594991">
        <ele>421.673</ele>
        <time>2022-12-10T07:53:22Z</time>
      </trkpt>
      <trkpt lat="36.831468" lon="-3.594898">
        <ele>422.485</ele>
        <time>2022-12-10T07:53:29Z</time>
      </trkpt>
      <trkpt lat="36.831461" lon="-3.594884">
        <ele>422.613</ele>
        <time>2022-12-10T07:53:30Z</time>
      </trkpt>
      <trkpt lat="36.831430" lon="-3.594838">
        <ele>423.409</ele>
        <time>2022-12-10T07:53:34Z</time>
      </trkpt>
      <trkpt lat="36.831433" lon="-3.594816">
        <ele>423.128</ele>
        <time>2022-12-10T07:53:36Z</time>
      </trkpt>
      <trkpt lat="36.831425" lon="-3.594793">
        <ele>423.269</ele>
        <time>2022-12-10T07:53:38Z</time>
      </trkpt>
      <trkpt lat="36.831399" lon="-3.594746">
        <ele>423.858</ele>
        <time>2022-12-10T07:53:42Z</time>
      </trkpt>
      <trkpt lat="36.831386" lon="-3.594691">
        <ele>424.077</ele>
        <time>2022-12-10T07:53:46Z</time>
      </trkpt>
      <trkpt lat="36.831368" lon="-3.594645">
        <ele>424.549</ele>
        <time>2022-12-10T07:53:49Z</time>
      </trkpt>
      <trkpt lat="36.831358" lon="-3.594615">
        <ele>424.835</ele>
        <time>2022-12-10T07:53:51Z</time>
      </trkpt>
      <trkpt lat="36.831302" lon="-3.594550">
        <ele>426.466</ele>
        <time>2022-12-10T07:53:57Z</time>
      </trkpt>
      <trkpt lat="36.831292" lon="-3.594549">
        <ele>426.899</ele>
        <time>2022-12-10T07:53:58Z</time>
      </trkpt>
      <trkpt lat="36.831270" lon="-3.594555">
        <ele>427.699</ele>
        <time>2022-12-10T07:54:00Z</time>
      </trkpt>
      <trkpt lat="36.831246" lon="-3.594577">
        <ele>428.648</ele>
        <time>2022-12-10T07:54:04Z</time>
      </trkpt>
      <trkpt lat="36.831224" lon="-3.594606">
        <ele>429.661</ele>
        <time>2022-12-10T07:54:08Z</time>
      </trkpt>
      <trkpt lat="36.831215" lon="-3.594631">
        <ele>430.117</ele>
        <time>2022-12-10T07:54:10Z</time>
      </trkpt>
      <trkpt lat="36.831199" lon="-3.594682">
        <ele>431.209</ele>
        <time>2022-12-10T07:54:14Z</time>
      </trkpt>
      <trkpt lat="36.831194" lon="-3.594759">
        <ele>432.055</ele>
        <time>2022-12-10T07:54:19Z</time>
      </trkpt>
      <trkpt lat="36.831183" lon="-3.594799">
        <ele>432.716</ele>
        <time>2022-12-10T07:54:22Z</time>
      </trkpt>
      <trkpt lat="36.831164" lon="-3.594842">
        <ele>433.895</ele>
        <time>2022-12-10T07:54:26Z</time>
      </trkpt>
      <trkpt lat="36.831138" lon="-3.594874">
        <ele>435.084</ele>
        <time>2022-12-10T07:54:29Z</time>
      </trkpt>
      <trkpt lat="36.831130" lon="-3.594883">
        <ele>435.476</ele>
        <time>2022-12-10T07:54:30Z</time>
      </trkpt>
      <trkpt lat="36.831100" lon="-3.594952">
        <ele>437.182</ele>
        <time>2022-12-10T07:54:35Z</time>
      </trkpt>
      <trkpt lat="36.831092" lon="-3.594967">
        <ele>437.483</ele>
        <time>2022-12-10T07:54:36Z</time>
      </trkpt>
      <trkpt lat="36.831051" lon="-3.595018">
        <ele>439.136</ele>
        <time>2022-12-10T07:54:40Z</time>
      </trkpt>
      <trkpt lat="36.831025" lon="-3.595069">
        <ele>439.996</ele>
        <time>2022-12-10T07:54:44Z</time>
      </trkpt>
      <trkpt lat="36.831026" lon="-3.595090">
        <ele>439.856</ele>
        <time>2022-12-10T07:54:46Z</time>
      </trkpt>
      <trkpt lat="36.831041" lon="-3.595114">
        <ele>439.259</ele>
        <time>2022-12-10T07:54:48Z</time>
      </trkpt>
      <trkpt lat="36.831071" lon="-3.595218">
        <ele>437.814</ele>
        <time>2022-12-10T07:54:54Z</time>
      </trkpt>
      <trkpt lat="36.831095" lon="-3.595379">
        <ele>437.009</ele>
        <time>2022-12-10T07:55:04Z</time>
      </trkpt>
      <trkpt lat="36.831107" lon="-3.595478">
        <ele>436.916</ele>
        <time>2022-12-10T07:55:10Z</time>
      </trkpt>
      <trkpt lat="36.831105" lon="-3.595509">
        <ele>437.187</ele>
        <time>2022-12-10T07:55:12Z</time>
      </trkpt>
      <trkpt lat="36.831099" lon="-3.595547">
        <ele>437.476</ele>
        <time>2022-12-10T07:55:14Z</time>
      </trkpt>
      <trkpt lat="36.831071" lon="-3.595589">
        <ele>438.415</ele>
        <time>2022-12-10T07:55:18Z</time>
      </trkpt>
      <trkpt lat="36.831027" lon="-3.595607">
        <ele>440.117</ele>
        <time>2022-12-10T07:55:22Z</time>
      </trkpt>
      <trkpt lat="36.830991" lon="-3.595623">
        <ele>441.593</ele>
        <time>2022-12-10T07:55:26Z</time>
      </trkpt>
      <trkpt lat="36.830949" lon="-3.595635">
        <ele>443.214</ele>
        <time>2022-12-10T07:55:30Z</time>
      </trkpt>
      <trkpt lat="36.830902" lon="-3.595647">
        <ele>445.277</ele>
        <time>2022-12-10T07:55:35Z</time>
      </trkpt>
      <trkpt lat="36.830870" lon="-3.595646">
        <ele>446.557</ele>
        <time>2022-12-10T07:55:38Z</time>
      </trkpt>
      <trkpt lat="36.830819" lon="-3.595617">
        <ele>448.442</ele>
        <time>2022-12-10T07:55:42Z</time>
      </trkpt>
      <trkpt lat="36.830785" lon="-3.595559">
        <ele>449.322</ele>
        <time>2022-12-10T07:55:46Z</time>
      </trkpt>
      <trkpt lat="36.830778" lon="-3.595490">
        <ele>449.514</ele>
        <time>2022-12-10T07:55:51Z</time>
      </trkpt>
      <trkpt lat="36.830775" lon="-3.595480">
        <ele>449.609</ele>
        <time>2022-12-10T07:55:52Z</time>
      </trkpt>
      <trkpt lat="36.830761" lon="-3.595432">
        <ele>450.245</ele>
        <time>2022-12-10T07:55:56Z</time>
      </trkpt>
      <trkpt lat="36.830740" lon="-3.595390">
        <ele>451.026</ele>
        <time>2022-12-10T07:56:00Z</time>
      </trkpt>
      <trkpt lat="36.830723" lon="-3.595341">
        <ele>451.635</ele>
        <time>2022-12-10T07:56:04Z</time>
      </trkpt>
      <trkpt lat="36.830699" lon="-3.595303">
        <ele>452.484</ele>
        <time>2022-12-10T07:56:09Z</time>
      </trkpt>
      <trkpt lat="36.830664" lon="-3.595213">
        <ele>453.326</ele>
        <time>2022-12-10T07:56:19Z</time>
      </trkpt>
      <trkpt lat="36.830551" lon="-3.595214">
        <ele>457.512</ele>
        <time>2022-12-10T07:56:27Z</time>
      </trkpt>
      <trkpt lat="36.830477" lon="-3.595203">
        <ele>460.543</ele>
        <time>2022-12-10T07:56:32Z</time>
      </trkpt>
      <trkpt lat="36.830417" lon="-3.595207">
        <ele>463.166</ele>
        <time>2022-12-10T07:56:37Z</time>
      </trkpt>
      <trkpt lat="36.830381" lon="-3.595222">
        <ele>464.826</ele>
        <time>2022-12-10T07:56:41Z</time>
      </trkpt>
      <trkpt lat="36.830355" lon="-3.595230">
        <ele>466.014</ele>
        <time>2022-12-10T07:56:44Z</time>
      </trkpt>
      <trkpt lat="36.830342" lon="-3.595230">
        <ele>466.654</ele>
        <time>2022-12-10T07:56:46Z</time>
      </trkpt>
      <trkpt lat="36.830324" lon="-3.595213">
        <ele>467.109</ele>
        <time>2022-12-10T07:56:48Z</time>
      </trkpt>
      <trkpt lat="36.830306" lon="-3.595205">
        <ele>467.809</ele>
        <time>2022-12-10T07:56:50Z</time>
      </trkpt>
      <trkpt lat="36.830286" lon="-3.595193">
        <ele>468.412</ele>
        <time>2022-12-10T07:56:53Z</time>
      </trkpt>
      <trkpt lat="36.830281" lon="-3.595192">
        <ele>468.623</ele>
        <time>2022-12-10T07:56:54Z</time>
      </trkpt>
      <trkpt lat="36.830251" lon="-3.595188">
        <ele>469.842</ele>
        <time>2022-12-10T07:56:57Z</time>
      </trkpt>
      <trkpt lat="36.830222" lon="-3.595190">
        <ele>471.011</ele>
        <time>2022-12-10T07:57:00Z</time>
      </trkpt>
      <trkpt lat="36.830212" lon="-3.595191">
        <ele>471.483</ele>
        <time>2022-12-10T07:57:01Z</time>
      </trkpt>
      <trkpt lat="36.830192" lon="-3.595195">
        <ele>472.359</ele>
        <time>2022-12-10T07:57:04Z</time>
      </trkpt>
      <trkpt lat="36.830188" lon="-3.595198">
        <ele>472.550</ele>
        <time>2022-12-10T07:57:05Z</time>
      </trkpt>
      <trkpt lat="36.830165" lon="-3.595198">
        <ele>473.583</ele>
        <time>2022-12-10T07:57:07Z</time>
      </trkpt>
      <trkpt lat="36.830157" lon="-3.595198">
        <ele>473.873</ele>
        <time>2022-12-10T07:57:08Z</time>
      </trkpt>
      <trkpt lat="36.830117" lon="-3.595203">
        <ele>475.617</ele>
        <time>2022-12-10T07:57:12Z</time>
      </trkpt>
      <trkpt lat="36.830096" lon="-3.595182">
        <ele>476.087</ele>
        <time>2022-12-10T07:57:14Z</time>
      </trkpt>
      <trkpt lat="36.830077" lon="-3.595154">
        <ele>476.215</ele>
        <time>2022-12-10T07:57:16Z</time>
      </trkpt>
      <trkpt lat="36.830057" lon="-3.595094">
        <ele>475.809</ele>
        <time>2022-12-10T07:57:20Z</time>
      </trkpt>
      <trkpt lat="36.830058" lon="-3.595069">
        <ele>475.352</ele>
        <time>2022-12-10T07:57:22Z</time>
      </trkpt>
      <trkpt lat="36.830067" lon="-3.595046">
        <ele>474.523</ele>
        <time>2022-12-10T07:57:24Z</time>
      </trkpt>
      <trkpt lat="36.830069" lon="-3.595033">
        <ele>474.232</ele>
        <time>2022-12-10T07:57:25Z</time>
      </trkpt>
      <trkpt lat="36.830068" lon="-3.594981">
        <ele>473.331</ele>
        <time>2022-12-10T07:57:29Z</time>
      </trkpt>
      <trkpt lat="36.830052" lon="-3.594934">
        <ele>473.473</ele>
        <time>2022-12-10T07:57:33Z</time>
      </trkpt>
      <trkpt lat="36.830014" lon="-3.594870">
        <ele>474.129</ele>
        <time>2022-12-10T07:57:38Z</time>
      </trkpt>
      <trkpt lat="36.829904" lon="-3.594766">
        <ele>477.330</ele>
        <time>2022-12-10T07:57:48Z</time>
      </trkpt>
      <trkpt lat="36.829837" lon="-3.594743">
        <ele>479.733</ele>
        <time>2022-12-10T07:57:53Z</time>
      </trkpt>
      <trkpt lat="36.829815" lon="-3.594724">
        <ele>480.363</ele>
        <time>2022-12-10T07:57:55Z</time>
      </trkpt>
      <trkpt lat="36.829745" lon="-3.594675">
        <ele>482.629</ele>
        <time>2022-12-10T07:58:01Z</time>
      </trkpt>
      <trkpt lat="36.829610" lon="-3.594552">
        <ele>485.900</ele>
        <time>2022-12-10T07:58:14Z</time>
      </trkpt>
      <trkpt lat="36.829602" lon="-3.594540">
        <ele>485.920</ele>
        <time>2022-12-10T07:58:15Z</time>
      </trkpt>
      <trkpt lat="36.829568" lon="-3.594467">
        <ele>485.809</ele>
        <time>2022-12-10T07:58:20Z</time>
      </trkpt>
      <trkpt lat="36.829528" lon="-3.594397">
        <ele>486.073</ele>
        <time>2022-12-10T07:58:25Z</time>
      </trkpt>
      <trkpt lat="36.829518" lon="-3.594391">
        <ele>486.284</ele>
        <time>2022-12-10T07:58:26Z</time>
      </trkpt>
      <trkpt lat="36.829506" lon="-3.594377">
        <ele>486.423</ele>
        <time>2022-12-10T07:58:28Z</time>
      </trkpt>
      <trkpt lat="36.829499" lon="-3.594345">
        <ele>486.112</ele>
        <time>2022-12-10T07:58:32Z</time>
      </trkpt>
      <trkpt lat="36.829536" lon="-3.594253">
        <ele>484.124</ele>
        <time>2022-12-10T07:58:38Z</time>
      </trkpt>
      <trkpt lat="36.829613" lon="-3.594054">
        <ele>480.650</ele>
        <time>2022-12-10T07:58:48Z</time>
      </trkpt>
      <trkpt lat="36.829587" lon="-3.594022">
        <ele>480.951</ele>
        <time>2022-12-10T07:58:50Z</time>
      </trkpt>
      <trkpt lat="36.829512" lon="-3.593980">
        <ele>481.984</ele>
        <time>2022-12-10T07:58:54Z</time>
      </trkpt>
      <trkpt lat="36.829331" lon="-3.593885">
        <ele>483.254</ele>
        <time>2022-12-10T07:59:02Z</time>
      </trkpt>
      <trkpt lat="36.829141" lon="-3.593808">
        <ele>483.711</ele>
        <time>2022-12-10T07:59:10Z</time>
      </trkpt>
      <trkpt lat="36.829051" lon="-3.593797">
        <ele>483.921</ele>
        <time>2022-12-10T07:59:13Z</time>
      </trkpt>
      <trkpt lat="36.828869" lon="-3.593816">
        <ele>485.303</ele>
        <time>2022-12-10T07:59:20Z</time>
      </trkpt>
      <trkpt lat="36.828753" lon="-3.593810">
        <ele>486.109</ele>
        <time>2022-12-10T07:59:24Z</time>
      </trkpt>
      <trkpt lat="36.828709" lon="-3.593819">
        <ele>486.782</ele>
        <time>2022-12-10T07:59:26Z</time>
      </trkpt>
      <trkpt lat="36.828554" lon="-3.593808">
        <ele>488.473</ele>
        <time>2022-12-10T07:59:34Z</time>
      </trkpt>
      <trkpt lat="36.828380" lon="-3.593728">
        <ele>490.082</ele>
        <time>2022-12-10T07:59:42Z</time>
      </trkpt>
      <trkpt lat="36.828191" lon="-3.593712">
        <ele>494.361</ele>
        <time>2022-12-10T07:59:50Z</time>
      </trkpt>
      <trkpt lat="36.828075" lon="-3.593689">
        <ele>496.913</ele>
        <time>2022-12-10T07:59:56Z</time>
      </trkpt>
      <trkpt lat="36.828065" lon="-3.593694">
        <ele>497.239</ele>
        <time>2022-12-10T08:00:09Z</time>
      </trkpt>
      <trkpt lat="36.828151" lon="-3.593698">
        <ele>495.040</ele>
        <time>2022-12-10T08:00:51Z</time>
      </trkpt>
      <trkpt lat="36.828173" lon="-3.593721">
        <ele>494.923</ele>
        <time>2022-12-10T08:00:53Z</time>
      </trkpt>
      <trkpt lat="36.828202" lon="-3.593744">
        <ele>494.713</ele>
        <time>2022-12-10T08:00:55Z</time>
      </trkpt>
      <trkpt lat="36.828237" lon="-3.593792">
        <ele>494.993</ele>
        <time>2022-12-10T08:00:59Z</time>
      </trkpt>
      <trkpt lat="36.828251" lon="-3.593831">
        <ele>495.465</ele>
        <time>2022-12-10T08:01:02Z</time>
      </trkpt>
      <trkpt lat="36.828288" lon="-3.593891">
        <ele>496.121</ele>
        <time>2022-12-10T08:01:07Z</time>
      </trkpt>
      <trkpt lat="36.828309" lon="-3.593943">
        <ele>497.609</ele>
        <time>2022-12-10T08:01:12Z</time>
      </trkpt>
      <trkpt lat="36.828334" lon="-3.594012">
        <ele>499.920</ele>
        <time>2022-12-10T08:01:18Z</time>
      </trkpt>
      <trkpt lat="36.828350" lon="-3.594042">
        <ele>500.731</ele>
        <time>2022-12-10T08:01:21Z</time>
      </trkpt>
      <trkpt lat="36.828362" lon="-3.594061">
        <ele>501.240</ele>
        <time>2022-12-10T08:01:23Z</time>
      </trkpt>
      <trkpt lat="36.828391" lon="-3.594092">
        <ele>501.829</ele>
        <time>2022-12-10T08:01:27Z</time>
      </trkpt>
      <trkpt lat="36.828421" lon="-3.594118">
        <ele>502.241</ele>
        <time>2022-12-10T08:01:31Z</time>
      </trkpt>
      <trkpt lat="36.828444" lon="-3.594159">
        <ele>503.387</ele>
        <time>2022-12-10T08:01:35Z</time>
      </trkpt>
      <trkpt lat="36.828470" lon="-3.594192">
        <ele>504.158</ele>
        <time>2022-12-10T08:01:40Z</time>
      </trkpt>
      <trkpt lat="36.828499" lon="-3.594206">
        <ele>504.141</ele>
        <time>2022-12-10T08:01:44Z</time>
      </trkpt>
      <trkpt lat="36.828515" lon="-3.594073">
        <ele>498.461</ele>
        <time>2022-12-10T08:02:20Z</time>
      </trkpt>
      <trkpt lat="36.828513" lon="-3.594048">
        <ele>497.486</ele>
        <time>2022-12-10T08:02:21Z</time>
      </trkpt>
      <trkpt lat="36.828526" lon="-3.594090">
        <ele>498.860</ele>
        <time>2022-12-10T08:02:23Z</time>
      </trkpt>
      <trkpt lat="36.828521" lon="-3.594094">
        <ele>499.126</ele>
        <time>2022-12-10T08:02:27Z</time>
      </trkpt>
      <trkpt lat="36.828499" lon="-3.594174">
        <ele>502.709</ele>
        <time>2022-12-10T08:03:50Z</time>
      </trkpt>
      <trkpt lat="36.828493" lon="-3.594155">
        <ele>502.149</ele>
        <time>2022-12-10T08:05:27Z</time>
      </trkpt>
      <trkpt lat="36.828426" lon="-3.594122">
        <ele>502.280</ele>
        <time>2022-12-10T08:05:37Z</time>
      </trkpt>
      <trkpt lat="36.828416" lon="-3.594096">
        <ele>501.459</ele>
        <time>2022-12-10T08:05:39Z</time>
      </trkpt>
      <trkpt lat="36.828404" lon="-3.594095">
        <ele>501.668</ele>
        <time>2022-12-10T08:05:41Z</time>
      </trkpt>
      <trkpt lat="36.828392" lon="-3.594094">
        <ele>501.990</ele>
        <time>2022-12-10T08:05:43Z</time>
      </trkpt>
      <trkpt lat="36.828372" lon="-3.594108">
        <ele>502.816</ele>
        <time>2022-12-10T08:05:46Z</time>
      </trkpt>
      <trkpt lat="36.828353" lon="-3.594139">
        <ele>504.587</ele>
        <time>2022-12-10T08:05:50Z</time>
      </trkpt>
      <trkpt lat="36.828344" lon="-3.594150">
        <ele>505.140</ele>
        <time>2022-12-10T08:05:51Z</time>
      </trkpt>
      <trkpt lat="36.828318" lon="-3.594173">
        <ele>506.560</ele>
        <time>2022-12-10T08:05:54Z</time>
      </trkpt>
      <trkpt lat="36.828276" lon="-3.594152">
        <ele>506.373</ele>
        <time>2022-12-10T08:05:58Z</time>
      </trkpt>
      <trkpt lat="36.828268" lon="-3.594142">
        <ele>506.085</ele>
        <time>2022-12-10T08:05:59Z</time>
      </trkpt>
      <trkpt lat="36.828246" lon="-3.594142">
        <ele>506.313</ele>
        <time>2022-12-10T08:06:01Z</time>
      </trkpt>
      <trkpt lat="36.828224" lon="-3.594153">
        <ele>507.109</ele>
        <time>2022-12-10T08:06:03Z</time>
      </trkpt>
      <trkpt lat="36.828229" lon="-3.594179">
        <ele>508.068</ele>
        <time>2022-12-10T08:06:04Z</time>
      </trkpt>
      <trkpt lat="36.828242" lon="-3.594210">
        <ele>509.199</ele>
        <time>2022-12-10T08:06:06Z</time>
      </trkpt>
      <trkpt lat="36.828250" lon="-3.594232">
        <ele>509.928</ele>
        <time>2022-12-10T08:06:08Z</time>
      </trkpt>
      <trkpt lat="36.828287" lon="-3.594318">
        <ele>512.877</ele>
        <time>2022-12-10T08:06:15Z</time>
      </trkpt>
      <trkpt lat="36.828311" lon="-3.594354">
        <ele>513.819</ele>
        <time>2022-12-10T08:06:20Z</time>
      </trkpt>
      <trkpt lat="36.828319" lon="-3.594358">
        <ele>513.855</ele>
        <time>2022-12-10T08:06:23Z</time>
      </trkpt>
      <trkpt lat="36.828314" lon="-3.594369">
        <ele>514.316</ele>
        <time>2022-12-10T08:06:24Z</time>
      </trkpt>
      <trkpt lat="36.828305" lon="-3.594377">
        <ele>514.859</ele>
        <time>2022-12-10T08:06:26Z</time>
      </trkpt>
      <trkpt lat="36.828307" lon="-3.594369">
        <ele>514.559</ele>
        <time>2022-12-10T08:06:28Z</time>
      </trkpt>
      <trkpt lat="36.828309" lon="-3.594366">
        <ele>514.344</ele>
        <time>2022-12-10T08:06:29Z</time>
      </trkpt>
      <trkpt lat="36.828271" lon="-3.594389">
        <ele>515.905</ele>
        <time>2022-12-10T08:06:38Z</time>
      </trkpt>
      <trkpt lat="36.828292" lon="-3.594431">
        <ele>517.215</ele>
        <time>2022-12-10T08:06:43Z</time>
      </trkpt>
      <trkpt lat="36.828298" lon="-3.594436">
        <ele>517.309</ele>
        <time>2022-12-10T08:06:44Z</time>
      </trkpt>
      <trkpt lat="36.828335" lon="-3.594452">
        <ele>517.395</ele>
        <time>2022-12-10T08:06:48Z</time>
      </trkpt>
      <trkpt lat="36.828348" lon="-3.594456">
        <ele>517.296</ele>
        <time>2022-12-10T08:06:49Z</time>
      </trkpt>
      <trkpt lat="36.828356" lon="-3.594459">
        <ele>517.245</ele>
        <time>2022-12-10T08:06:50Z</time>
      </trkpt>
      <trkpt lat="36.828381" lon="-3.594460">
        <ele>516.814</ele>
        <time>2022-12-10T08:06:54Z</time>
      </trkpt>
      <trkpt lat="36.828385" lon="-3.594472">
        <ele>517.286</ele>
        <time>2022-12-10T08:06:56Z</time>
      </trkpt>
      <trkpt lat="36.828393" lon="-3.594492">
        <ele>517.962</ele>
        <time>2022-12-10T08:06:59Z</time>
      </trkpt>
      <trkpt lat="36.828390" lon="-3.594513">
        <ele>518.933</ele>
        <time>2022-12-10T08:07:01Z</time>
      </trkpt>
      <trkpt lat="36.828361" lon="-3.594525">
        <ele>520.096</ele>
        <time>2022-12-10T08:07:05Z</time>
      </trkpt>
      <trkpt lat="36.828346" lon="-3.594516">
        <ele>519.986</ele>
        <time>2022-12-10T08:07:07Z</time>
      </trkpt>
      <trkpt lat="36.828329" lon="-3.594504">
        <ele>519.769</ele>
        <time>2022-12-10T08:07:09Z</time>
      </trkpt>
      <trkpt lat="36.828324" lon="-3.594502">
        <ele>519.704</ele>
        <time>2022-12-10T08:07:10Z</time>
      </trkpt>
      <trkpt lat="36.828320" lon="-3.594497">
        <ele>519.524</ele>
        <time>2022-12-10T08:07:12Z</time>
      </trkpt>
      <trkpt lat="36.828348" lon="-3.594523">
        <ele>520.109</ele>
        <time>2022-12-10T08:07:16Z</time>
      </trkpt>
      <trkpt lat="36.828352" lon="-3.594546">
        <ele>521.067</ele>
        <time>2022-12-10T08:07:20Z</time>
      </trkpt>
      <trkpt lat="36.828344" lon="-3.594559">
        <ele>521.748</ele>
        <time>2022-12-10T08:07:22Z</time>
      </trkpt>
      <trkpt lat="36.828345" lon="-3.594573">
        <ele>522.317</ele>
        <time>2022-12-10T08:07:23Z</time>
      </trkpt>
      <trkpt lat="36.828373" lon="-3.594606">
        <ele>523.256</ele>
        <time>2022-12-10T08:07:27Z</time>
      </trkpt>
      <trkpt lat="36.828404" lon="-3.594623">
        <ele>523.358</ele>
        <time>2022-12-10T08:07:32Z</time>
      </trkpt>
      <trkpt lat="36.828408" lon="-3.594628">
        <ele>523.484</ele>
        <time>2022-12-10T08:07:33Z</time>
      </trkpt>
      <trkpt lat="36.828411" lon="-3.594637">
        <ele>523.715</ele>
        <time>2022-12-10T08:07:34Z</time>
      </trkpt>
      <trkpt lat="36.828423" lon="-3.594659">
        <ele>524.458</ele>
        <time>2022-12-10T08:07:37Z</time>
      </trkpt>
      <trkpt lat="36.828426" lon="-3.594668">
        <ele>524.718</ele>
        <time>2022-12-10T08:07:38Z</time>
      </trkpt>
      <trkpt lat="36.828439" lon="-3.594678">
        <ele>524.989</ele>
        <time>2022-12-10T08:07:40Z</time>
      </trkpt>
      <trkpt lat="36.828452" lon="-3.594687">
        <ele>525.006</ele>
        <time>2022-12-10T08:07:42Z</time>
      </trkpt>
      <trkpt lat="36.828482" lon="-3.594715">
        <ele>525.526</ele>
        <time>2022-12-10T08:07:47Z</time>
      </trkpt>
      <trkpt lat="36.828466" lon="-3.594737">
        <ele>526.809</ele>
        <time>2022-12-10T08:07:51Z</time>
      </trkpt>
      <trkpt lat="36.828427" lon="-3.594732">
        <ele>527.469</ele>
        <time>2022-12-10T08:07:57Z</time>
      </trkpt>
      <trkpt lat="36.828405" lon="-3.594743">
        <ele>528.420</ele>
        <time>2022-12-10T08:08:02Z</time>
      </trkpt>
      <trkpt lat="36.828421" lon="-3.594772">
        <ele>529.379</ele>
        <time>2022-12-10T08:08:07Z</time>
      </trkpt>
      <trkpt lat="36.828471" lon="-3.594897">
        <ele>533.398</ele>
        <time>2022-12-10T08:08:13Z</time>
      </trkpt>
      <trkpt lat="36.828529" lon="-3.594901">
        <ele>531.520</ele>
        <time>2022-12-10T08:08:18Z</time>
      </trkpt>
      <trkpt lat="36.828517" lon="-3.594929">
        <ele>533.076</ele>
        <time>2022-12-10T08:08:24Z</time>
      </trkpt>
      <trkpt lat="36.828539" lon="-3.594947">
        <ele>532.917</ele>
        <time>2022-12-10T08:08:29Z</time>
      </trkpt>
      <trkpt lat="36.828532" lon="-3.594957">
        <ele>533.550</ele>
        <time>2022-12-10T08:08:33Z</time>
      </trkpt>
      <trkpt lat="36.828515" lon="-3.594996">
        <ele>535.770</ele>
        <time>2022-12-10T08:08:37Z</time>
      </trkpt>
      <trkpt lat="36.828490" lon="-3.595029">
        <ele>537.796</ele>
        <time>2022-12-10T08:08:40Z</time>
      </trkpt>
      <trkpt lat="36.828480" lon="-3.595048">
        <ele>538.731</ele>
        <time>2022-12-10T08:08:42Z</time>
      </trkpt>
      <trkpt lat="36.828479" lon="-3.595053">
        <ele>538.924</ele>
        <time>2022-12-10T08:08:43Z</time>
      </trkpt>
      <trkpt lat="36.828504" lon="-3.595112">
        <ele>539.809</ele>
        <time>2022-12-10T08:08:56Z</time>
      </trkpt>
      <trkpt lat="36.828540" lon="-3.595237">
        <ele>542.190</ele>
        <time>2022-12-10T08:09:12Z</time>
      </trkpt>
      <trkpt lat="36.828513" lon="-3.595279">
        <ele>544.671</ele>
        <time>2022-12-10T08:09:22Z</time>
      </trkpt>
      <trkpt lat="36.828521" lon="-3.595322">
        <ele>545.520</ele>
        <time>2022-12-10T08:09:27Z</time>
      </trkpt>
      <trkpt lat="36.828534" lon="-3.595409">
        <ele>547.469</ele>
        <time>2022-12-10T08:09:34Z</time>
      </trkpt>
      <trkpt lat="36.828527" lon="-3.595477">
        <ele>549.781</ele>
        <time>2022-12-10T08:09:40Z</time>
      </trkpt>
      <trkpt lat="36.828520" lon="-3.595540">
        <ele>551.877</ele>
        <time>2022-12-10T08:09:48Z</time>
      </trkpt>
      <trkpt lat="36.828509" lon="-3.595599">
        <ele>554.088</ele>
        <time>2022-12-10T08:09:52Z</time>
      </trkpt>
      <trkpt lat="36.828514" lon="-3.595615">
        <ele>554.211</ele>
        <time>2022-12-10T08:09:53Z</time>
      </trkpt>
      <trkpt lat="36.828522" lon="-3.595640">
        <ele>554.631</ele>
        <time>2022-12-10T08:09:55Z</time>
      </trkpt>
      <trkpt lat="36.828517" lon="-3.595661">
        <ele>555.436</ele>
        <time>2022-12-10T08:09:57Z</time>
      </trkpt>
      <trkpt lat="36.828524" lon="-3.595710">
        <ele>556.617</ele>
        <time>2022-12-10T08:10:02Z</time>
      </trkpt>
      <trkpt lat="36.828535" lon="-3.595767">
        <ele>557.818</ele>
        <time>2022-12-10T08:10:07Z</time>
      </trkpt>
      <trkpt lat="36.828537" lon="-3.595783">
        <ele>558.209</ele>
        <time>2022-12-10T08:10:08Z</time>
      </trkpt>
      <trkpt lat="36.828541" lon="-3.595806">
        <ele>558.794</ele>
        <time>2022-12-10T08:10:10Z</time>
      </trkpt>
      <trkpt lat="36.828539" lon="-3.595819">
        <ele>559.215</ele>
        <time>2022-12-10T08:10:12Z</time>
      </trkpt>
      <trkpt lat="36.828586" lon="-3.595889">
        <ele>559.794</ele>
        <time>2022-12-10T08:10:22Z</time>
      </trkpt>
      <trkpt lat="36.828607" lon="-3.595924">
        <ele>560.193</ele>
        <time>2022-12-10T08:10:27Z</time>
      </trkpt>
      <trkpt lat="36.828630" lon="-3.595946">
        <ele>559.725</ele>
        <time>2022-12-10T08:10:30Z</time>
      </trkpt>
      <trkpt lat="36.828635" lon="-3.595956">
        <ele>559.851</ele>
        <time>2022-12-10T08:10:31Z</time>
      </trkpt>
      <trkpt lat="36.828647" lon="-3.595991">
        <ele>560.572</ele>
        <time>2022-12-10T08:10:34Z</time>
      </trkpt>
      <trkpt lat="36.828667" lon="-3.596005">
        <ele>560.065</ele>
        <time>2022-12-10T08:10:37Z</time>
      </trkpt>
      <trkpt lat="36.828683" lon="-3.596028">
        <ele>560.225</ele>
        <time>2022-12-10T08:10:41Z</time>
      </trkpt>
      <trkpt lat="36.828674" lon="-3.596039">
        <ele>560.973</ele>
        <time>2022-12-10T08:10:44Z</time>
      </trkpt>
      <trkpt lat="36.828669" lon="-3.596036">
        <ele>561.085</ele>
        <time>2022-12-10T08:10:45Z</time>
      </trkpt>
      <trkpt lat="36.828622" lon="-3.596057">
        <ele>563.813</ele>
        <time>2022-12-10T08:10:51Z</time>
      </trkpt>
      <trkpt lat="36.828630" lon="-3.596117">
        <ele>565.509</ele>
        <time>2022-12-10T08:10:57Z</time>
      </trkpt>
      <trkpt lat="36.828633" lon="-3.596128">
        <ele>565.868</ele>
        <time>2022-12-10T08:10:58Z</time>
      </trkpt>
      <trkpt lat="36.828629" lon="-3.596072">
        <ele>564.059</ele>
        <time>2022-12-10T08:11:38Z</time>
      </trkpt>
      <trkpt lat="36.828670" lon="-3.596085">
        <ele>562.778</ele>
        <time>2022-12-10T08:11:43Z</time>
      </trkpt>
      <trkpt lat="36.828676" lon="-3.596085">
        <ele>562.567</ele>
        <time>2022-12-10T08:11:45Z</time>
      </trkpt>
      <trkpt lat="36.828602" lon="-3.596035">
        <ele>563.889</ele>
        <time>2022-12-10T08:12:05Z</time>
      </trkpt>
      <trkpt lat="36.828629" lon="-3.596134">
        <ele>566.295</ele>
        <time>2022-12-10T08:12:13Z</time>
      </trkpt>
      <trkpt lat="36.828687" lon="-3.596217">
        <ele>567.086</ele>
        <time>2022-12-10T08:12:19Z</time>
      </trkpt>
      <trkpt lat="36.828776" lon="-3.596301">
        <ele>566.279</ele>
        <time>2022-12-10T08:12:28Z</time>
      </trkpt>
      <trkpt lat="36.828809" lon="-3.596335">
        <ele>565.939</ele>
        <time>2022-12-10T08:12:32Z</time>
      </trkpt>
      <trkpt lat="36.828820" lon="-3.596355">
        <ele>566.167</ele>
        <time>2022-12-10T08:12:34Z</time>
      </trkpt>
      <trkpt lat="36.828869" lon="-3.596387">
        <ele>564.981</ele>
        <time>2022-12-10T08:12:38Z</time>
      </trkpt>
      <trkpt lat="36.828880" lon="-3.596411">
        <ele>565.019</ele>
        <time>2022-12-10T08:12:40Z</time>
      </trkpt>
      <trkpt lat="36.828907" lon="-3.596459">
        <ele>564.809</ele>
        <time>2022-12-10T08:12:44Z</time>
      </trkpt>
      <trkpt lat="36.828919" lon="-3.596486">
        <ele>564.827</ele>
        <time>2022-12-10T08:12:46Z</time>
      </trkpt>
      <trkpt lat="36.828938" lon="-3.596524">
        <ele>564.838</ele>
        <time>2022-12-10T08:12:49Z</time>
      </trkpt>
      <trkpt lat="36.828973" lon="-3.596584">
        <ele>564.417</ele>
        <time>2022-12-10T08:12:54Z</time>
      </trkpt>
      <trkpt lat="36.829027" lon="-3.596647">
        <ele>563.096</ele>
        <time>2022-12-10T08:13:00Z</time>
      </trkpt>
      <trkpt lat="36.829033" lon="-3.596724">
        <ele>564.128</ele>
        <time>2022-12-10T08:13:05Z</time>
      </trkpt>
      <trkpt lat="36.829027" lon="-3.596730">
        <ele>564.654</ele>
        <time>2022-12-10T08:13:09Z</time>
      </trkpt>
      <trkpt lat="36.829007" lon="-3.596802">
        <ele>566.975</ele>
        <time>2022-12-10T08:13:59Z</time>
      </trkpt>
      <trkpt lat="36.829003" lon="-3.596818">
        <ele>567.358</ele>
        <time>2022-12-10T08:14:01Z</time>
      </trkpt>
      <trkpt lat="36.829007" lon="-3.596829">
        <ele>567.358</ele>
        <time>2022-12-10T08:14:02Z</time>
      </trkpt>
      <trkpt lat="36.829009" lon="-3.596835">
        <ele>567.378</ele>
        <time>2022-12-10T08:14:03Z</time>
      </trkpt>
      <trkpt lat="36.829011" lon="-3.596850">
        <ele>567.433</ele>
        <time>2022-12-10T08:14:05Z</time>
      </trkpt>
      <trkpt lat="36.829004" lon="-3.596888">
        <ele>568.426</ele>
        <time>2022-12-10T08:14:08Z</time>
      </trkpt>
      <trkpt lat="36.828989" lon="-3.596896">
        <ele>569.409</ele>
        <time>2022-12-10T08:14:09Z</time>
      </trkpt>
      <trkpt lat="36.828973" lon="-3.596948">
        <ele>571.228</ele>
        <time>2022-12-10T08:14:14Z</time>
      </trkpt>
      <trkpt lat="36.828962" lon="-3.596978">
        <ele>572.399</ele>
        <time>2022-12-10T08:14:18Z</time>
      </trkpt>
      <trkpt lat="36.828960" lon="-3.596984">
        <ele>572.588</ele>
        <time>2022-12-10T08:14:19Z</time>
      </trkpt>
      <trkpt lat="36.828942" lon="-3.597027">
        <ele>574.237</ele>
        <time>2022-12-10T08:14:23Z</time>
      </trkpt>
      <trkpt lat="36.828938" lon="-3.597032">
        <ele>574.539</ele>
        <time>2022-12-10T08:14:24Z</time>
      </trkpt>
      <trkpt lat="36.828935" lon="-3.597063">
        <ele>575.145</ele>
        <time>2022-12-10T08:14:28Z</time>
      </trkpt>
      <trkpt lat="36.828907" lon="-3.597081">
        <ele>577.066</ele>
        <time>2022-12-10T08:14:33Z</time>
      </trkpt>
      <trkpt lat="36.828891" lon="-3.597105">
        <ele>578.249</ele>
        <time>2022-12-10T08:14:38Z</time>
      </trkpt>
      <trkpt lat="36.828874" lon="-3.597155">
        <ele>580.099</ele>
        <time>2022-12-10T08:14:43Z</time>
      </trkpt>
      <trkpt lat="36.828842" lon="-3.597243">
        <ele>583.355</ele>
        <time>2022-12-10T08:14:51Z</time>
      </trkpt>
      <trkpt lat="36.828843" lon="-3.597408">
        <ele>584.407</ele>
        <time>2022-12-10T08:15:15Z</time>
      </trkpt>
      <trkpt lat="36.828814" lon="-3.597461">
        <ele>586.617</ele>
        <time>2022-12-10T08:15:21Z</time>
      </trkpt>
      <trkpt lat="36.828806" lon="-3.597474">
        <ele>587.209</ele>
        <time>2022-12-10T08:15:23Z</time>
      </trkpt>
      <trkpt lat="36.828764" lon="-3.597498">
        <ele>590.186</ele>
        <time>2022-12-10T08:15:25Z</time>
      </trkpt>
      <trkpt lat="36.828732" lon="-3.597528">
        <ele>592.377</ele>
        <time>2022-12-10T08:15:28Z</time>
      </trkpt>
      <trkpt lat="36.828733" lon="-3.597543">
        <ele>592.236</ele>
        <time>2022-12-10T08:15:29Z</time>
      </trkpt>
      <trkpt lat="36.828738" lon="-3.597595">
        <ele>592.185</ele>
        <time>2022-12-10T08:15:33Z</time>
      </trkpt>
      <trkpt lat="36.828695" lon="-3.597817">
        <ele>595.567</ele>
        <time>2022-12-10T08:15:46Z</time>
      </trkpt>
      <trkpt lat="36.828668" lon="-3.597874">
        <ele>597.443</ele>
        <time>2022-12-10T08:15:52Z</time>
      </trkpt>
      <trkpt lat="36.828639" lon="-3.597934">
        <ele>599.214</ele>
        <time>2022-12-10T08:16:02Z</time>
      </trkpt>
      <trkpt lat="36.828634" lon="-3.597944">
        <ele>599.597</ele>
        <time>2022-12-10T08:16:03Z</time>
      </trkpt>
      <trkpt lat="36.828591" lon="-3.598012">
        <ele>601.777</ele>
        <time>2022-12-10T08:16:11Z</time>
      </trkpt>
      <trkpt lat="36.828601" lon="-3.598145">
        <ele>602.364</ele>
        <time>2022-12-10T08:16:19Z</time>
      </trkpt>
      <trkpt lat="36.828591" lon="-3.598160">
        <ele>602.806</ele>
        <time>2022-12-10T08:16:22Z</time>
      </trkpt>
      <trkpt lat="36.828576" lon="-3.598214">
        <ele>603.916</ele>
        <time>2022-12-10T08:16:29Z</time>
      </trkpt>
      <trkpt lat="36.828608" lon="-3.598238">
        <ele>603.109</ele>
        <time>2022-12-10T08:16:31Z</time>
      </trkpt>
      <trkpt lat="36.828649" lon="-3.598263">
        <ele>602.157</ele>
        <time>2022-12-10T08:16:33Z</time>
      </trkpt>
      <trkpt lat="36.828671" lon="-3.598273">
        <ele>601.768</ele>
        <time>2022-12-10T08:16:36Z</time>
      </trkpt>
      <trkpt lat="36.828645" lon="-3.598169">
        <ele>601.167</ele>
        <time>2022-12-10T08:16:49Z</time>
      </trkpt>
      <trkpt lat="36.828612" lon="-3.598154">
        <ele>602.056</ele>
        <time>2022-12-10T08:16:55Z</time>
      </trkpt>
      <trkpt lat="36.828581" lon="-3.598184">
        <ele>603.428</ele>
        <time>2022-12-10T08:17:00Z</time>
      </trkpt>
      <trkpt lat="36.828574" lon="-3.598203">
        <ele>603.874</ele>
        <time>2022-12-10T08:17:02Z</time>
      </trkpt>
      <trkpt lat="36.828563" lon="-3.598221">
        <ele>604.465</ele>
        <time>2022-12-10T08:17:04Z</time>
      </trkpt>
      <trkpt lat="36.828549" lon="-3.598251">
        <ele>605.118</ele>
        <time>2022-12-10T08:17:06Z</time>
      </trkpt>
      <trkpt lat="36.828534" lon="-3.598262">
        <ele>605.798</ele>
        <time>2022-12-10T08:17:09Z</time>
      </trkpt>
      <trkpt lat="36.828472" lon="-3.598293">
        <ele>607.829</ele>
        <time>2022-12-10T08:17:16Z</time>
      </trkpt>
      <trkpt lat="36.828420" lon="-3.598317">
        <ele>609.400</ele>
        <time>2022-12-10T08:17:22Z</time>
      </trkpt>
      <trkpt lat="36.828393" lon="-3.598344">
        <ele>610.520</ele>
        <time>2022-12-10T08:17:26Z</time>
      </trkpt>
      <trkpt lat="36.828369" lon="-3.598376">
        <ele>611.809</ele>
        <time>2022-12-10T08:17:30Z</time>
      </trkpt>
      <trkpt lat="36.828333" lon="-3.598408">
        <ele>613.433</ele>
        <time>2022-12-10T08:17:36Z</time>
      </trkpt>
      <trkpt lat="36.828330" lon="-3.598410">
        <ele>613.524</ele>
        <time>2022-12-10T08:17:37Z</time>
      </trkpt>
      <trkpt lat="36.828321" lon="-3.598384">
        <ele>613.563</ele>
        <time>2022-12-10T08:17:40Z</time>
      </trkpt>
      <trkpt lat="36.828321" lon="-3.598470">
        <ele>615.062</ele>
        <time>2022-12-10T08:17:49Z</time>
      </trkpt>
      <trkpt lat="36.828363" lon="-3.598480">
        <ele>614.064</ele>
        <time>2022-12-10T08:17:53Z</time>
      </trkpt>
      <trkpt lat="36.828362" lon="-3.598488">
        <ele>614.140</ele>
        <time>2022-12-10T08:17:54Z</time>
      </trkpt>
      <trkpt lat="36.828368" lon="-3.598490">
        <ele>614.021</ele>
        <time>2022-12-10T08:17:55Z</time>
      </trkpt>
      <trkpt lat="36.828371" lon="-3.598496">
        <ele>614.144</ele>
        <time>2022-12-10T08:17:58Z</time>
      </trkpt>
      <trkpt lat="36.828356" lon="-3.598570">
        <ele>615.834</ele>
        <time>2022-12-10T08:18:02Z</time>
      </trkpt>
      <trkpt lat="36.828360" lon="-3.598615">
        <ele>616.656</ele>
        <time>2022-12-10T08:18:05Z</time>
      </trkpt>
      <trkpt lat="36.828370" lon="-3.598632">
        <ele>617.059</ele>
        <time>2022-12-10T08:18:07Z</time>
      </trkpt>
      <trkpt lat="36.828367" lon="-3.598648">
        <ele>617.514</ele>
        <time>2022-12-10T08:18:08Z</time>
      </trkpt>
      <trkpt lat="36.828358" lon="-3.598677">
        <ele>618.609</ele>
        <time>2022-12-10T08:18:11Z</time>
      </trkpt>
      <trkpt lat="36.828336" lon="-3.598659">
        <ele>618.316</ele>
        <time>2022-12-10T08:18:14Z</time>
      </trkpt>
      <trkpt lat="36.828331" lon="-3.598659">
        <ele>618.487</ele>
        <time>2022-12-10T08:18:15Z</time>
      </trkpt>
      <trkpt lat="36.828325" lon="-3.598667">
        <ele>618.876</ele>
        <time>2022-12-10T08:18:16Z</time>
      </trkpt>
      <trkpt lat="36.828304" lon="-3.598654">
        <ele>619.125</ele>
        <time>2022-12-10T08:18:18Z</time>
      </trkpt>
      <trkpt lat="36.828280" lon="-3.598612">
        <ele>618.747</ele>
        <time>2022-12-10T08:18:20Z</time>
      </trkpt>
      <trkpt lat="36.828259" lon="-3.598551">
        <ele>618.693</ele>
        <time>2022-12-10T08:18:22Z</time>
      </trkpt>
      <trkpt lat="36.828247" lon="-3.598567">
        <ele>619.224</ele>
        <time>2022-12-10T08:18:24Z</time>
      </trkpt>
      <trkpt lat="36.828206" lon="-3.598598">
        <ele>621.067</ele>
        <time>2022-12-10T08:18:29Z</time>
      </trkpt>
      <trkpt lat="36.828201" lon="-3.598617">
        <ele>621.487</ele>
        <time>2022-12-10T08:18:31Z</time>
      </trkpt>
      <trkpt lat="36.828203" lon="-3.598638">
        <ele>621.619</ele>
        <time>2022-12-10T08:18:34Z</time>
      </trkpt>
      <trkpt lat="36.828216" lon="-3.598674">
        <ele>621.809</ele>
        <time>2022-12-10T08:18:39Z</time>
      </trkpt>
      <trkpt lat="36.828205" lon="-3.598710">
        <ele>622.719</ele>
        <time>2022-12-10T08:18:43Z</time>
      </trkpt>
      <trkpt lat="36.828195" lon="-3.598757">
        <ele>623.609</ele>
        <time>2022-12-10T08:18:48Z</time>
      </trkpt>
      <trkpt lat="36.828186" lon="-3.598793">
        <ele>624.212</ele>
        <time>2022-12-10T08:18:50Z</time>
      </trkpt>
      <trkpt lat="36.828176" lon="-3.598828">
        <ele>624.853</ele>
        <time>2022-12-10T08:18:53Z</time>
      </trkpt>
      <trkpt lat="36.828179" lon="-3.598853">
        <ele>625.142</ele>
        <time>2022-12-10T08:18:55Z</time>
      </trkpt>
      <trkpt lat="36.828168" lon="-3.598874">
        <ele>625.481</ele>
        <time>2022-12-10T08:18:58Z</time>
      </trkpt>
      <trkpt lat="36.828160" lon="-3.598875">
        <ele>625.553</ele>
        <time>2022-12-10T08:18:59Z</time>
      </trkpt>
      <trkpt lat="36.828145" lon="-3.598889">
        <ele>625.779</ele>
        <time>2022-12-10T08:19:02Z</time>
      </trkpt>
      <trkpt lat="36.828145" lon="-3.598930">
        <ele>627.160</ele>
        <time>2022-12-10T08:19:07Z</time>
      </trkpt>
      <trkpt lat="36.828154" lon="-3.598955">
        <ele>628.033</ele>
        <time>2022-12-10T08:19:10Z</time>
      </trkpt>
      <trkpt lat="36.828178" lon="-3.598966">
        <ele>628.333</ele>
        <time>2022-12-10T08:19:12Z</time>
      </trkpt>
      <trkpt lat="36.828230" lon="-3.598997">
        <ele>629.486</ele>
        <time>2022-12-10T08:19:16Z</time>
      </trkpt>
      <trkpt lat="36.828231" lon="-3.599008">
        <ele>629.860</ele>
        <time>2022-12-10T08:19:17Z</time>
      </trkpt>
      <trkpt lat="36.828242" lon="-3.599050">
        <ele>631.326</ele>
        <time>2022-12-10T08:19:21Z</time>
      </trkpt>
      <trkpt lat="36.828244" lon="-3.599062">
        <ele>631.809</ele>
        <time>2022-12-10T08:19:22Z</time>
      </trkpt>
      <trkpt lat="36.828255" lon="-3.599084">
        <ele>632.639</ele>
        <time>2022-12-10T08:19:24Z</time>
      </trkpt>
      <trkpt lat="36.828262" lon="-3.599079">
        <ele>632.440</ele>
        <time>2022-12-10T08:19:27Z</time>
      </trkpt>
      <trkpt lat="36.828273" lon="-3.599135">
        <ele>634.659</ele>
        <time>2022-12-10T08:19:32Z</time>
      </trkpt>
      <trkpt lat="36.828313" lon="-3.599125">
        <ele>634.378</ele>
        <time>2022-12-10T08:19:37Z</time>
      </trkpt>
      <trkpt lat="36.828362" lon="-3.599125">
        <ele>634.630</ele>
        <time>2022-12-10T08:19:41Z</time>
      </trkpt>
      <trkpt lat="36.828432" lon="-3.599136">
        <ele>635.796</ele>
        <time>2022-12-10T08:19:47Z</time>
      </trkpt>
      <trkpt lat="36.828459" lon="-3.599152">
        <ele>636.767</ele>
        <time>2022-12-10T08:19:52Z</time>
      </trkpt>
      <trkpt lat="36.828487" lon="-3.599177">
        <ele>638.110</ele>
        <time>2022-12-10T08:19:56Z</time>
      </trkpt>
      <trkpt lat="36.828522" lon="-3.599201">
        <ele>639.430</ele>
        <time>2022-12-10T08:20:01Z</time>
      </trkpt>
      <trkpt lat="36.828563" lon="-3.599215">
        <ele>640.371</ele>
        <time>2022-12-10T08:20:06Z</time>
      </trkpt>
      <trkpt lat="36.828583" lon="-3.599200">
        <ele>639.941</ele>
        <time>2022-12-10T08:20:10Z</time>
      </trkpt>
      <trkpt lat="36.828603" lon="-3.599099">
        <ele>635.515</ele>
        <time>2022-12-10T08:20:14Z</time>
      </trkpt>
      <trkpt lat="36.828646" lon="-3.599071">
        <ele>633.909</ele>
        <time>2022-12-10T08:20:18Z</time>
      </trkpt>
      <trkpt lat="36.828671" lon="-3.599068">
        <ele>633.668</ele>
        <time>2022-12-10T08:20:20Z</time>
      </trkpt>
      <trkpt lat="36.828691" lon="-3.599068">
        <ele>633.449</ele>
        <time>2022-12-10T08:20:22Z</time>
      </trkpt>
      <trkpt lat="36.828787" lon="-3.599106">
        <ele>634.948</ele>
        <time>2022-12-10T08:20:31Z</time>
      </trkpt>
      <trkpt lat="36.828795" lon="-3.599108">
        <ele>635.017</ele>
        <time>2022-12-10T08:20:32Z</time>
      </trkpt>
      <trkpt lat="36.828805" lon="-3.599109">
        <ele>635.029</ele>
        <time>2022-12-10T08:20:33Z</time>
      </trkpt>
      <trkpt lat="36.828839" lon="-3.599115">
        <ele>635.195</ele>
        <time>2022-12-10T08:20:37Z</time>
      </trkpt>
      <trkpt lat="36.828844" lon="-3.599116">
        <ele>635.126</ele>
        <time>2022-12-10T08:20:38Z</time>
      </trkpt>
      <trkpt lat="36.828866" lon="-3.599122">
        <ele>635.499</ele>
        <time>2022-12-10T08:20:40Z</time>
      </trkpt>
      <trkpt lat="36.828880" lon="-3.599126">
        <ele>635.659</ele>
        <time>2022-12-10T08:20:42Z</time>
      </trkpt>
      <trkpt lat="36.828885" lon="-3.599131">
        <ele>635.878</ele>
        <time>2022-12-10T08:20:44Z</time>
      </trkpt>
      <trkpt lat="36.828867" lon="-3.599134">
        <ele>636.133</ele>
        <time>2022-12-10T08:20:49Z</time>
      </trkpt>
      <trkpt lat="36.828864" lon="-3.599161">
        <ele>637.726</ele>
        <time>2022-12-10T08:20:54Z</time>
      </trkpt>
      <trkpt lat="36.828912" lon="-3.599193">
        <ele>637.909</ele>
        <time>2022-12-10T08:21:00Z</time>
      </trkpt>
      <trkpt lat="36.828928" lon="-3.599244">
        <ele>638.988</ele>
        <time>2022-12-10T08:21:06Z</time>
      </trkpt>
      <trkpt lat="36.828925" lon="-3.599293">
        <ele>640.459</ele>
        <time>2022-12-10T08:21:10Z</time>
      </trkpt>
      <trkpt lat="36.828943" lon="-3.599341">
        <ele>641.278</ele>
        <time>2022-12-10T08:21:15Z</time>
      </trkpt>
      <trkpt lat="36.828962" lon="-3.599349">
        <ele>640.877</ele>
        <time>2022-12-10T08:21:17Z</time>
      </trkpt>
      <trkpt lat="36.828963" lon="-3.599357">
        <ele>641.029</ele>
        <time>2022-12-10T08:21:18Z</time>
      </trkpt>
      <trkpt lat="36.828950" lon="-3.599384">
        <ele>642.285</ele>
        <time>2022-12-10T08:21:22Z</time>
      </trkpt>
      <trkpt lat="36.828919" lon="-3.599405">
        <ele>643.926</ele>
        <time>2022-12-10T08:21:26Z</time>
      </trkpt>
      <trkpt lat="36.828913" lon="-3.599414">
        <ele>644.349</ele>
        <time>2022-12-10T08:21:27Z</time>
      </trkpt>
      <trkpt lat="36.828898" lon="-3.599429">
        <ele>645.379</ele>
        <time>2022-12-10T08:21:30Z</time>
      </trkpt>
      <trkpt lat="36.828891" lon="-3.599433">
        <ele>645.647</ele>
        <time>2022-12-10T08:21:32Z</time>
      </trkpt>
      <trkpt lat="36.828861" lon="-3.599377">
        <ele>644.329</ele>
        <time>2022-12-10T08:21:38Z</time>
      </trkpt>
      <trkpt lat="36.828819" lon="-3.599357">
        <ele>644.121</ele>
        <time>2022-12-10T08:22:03Z</time>
      </trkpt>
      <trkpt lat="36.828766" lon="-3.599409">
        <ele>646.209</ele>
        <time>2022-12-10T08:22:15Z</time>
      </trkpt>
      <trkpt lat="36.828746" lon="-3.599412">
        <ele>646.585</ele>
        <time>2022-12-10T08:22:17Z</time>
      </trkpt>
      <trkpt lat="36.828725" lon="-3.599421">
        <ele>647.046</ele>
        <time>2022-12-10T08:22:19Z</time>
      </trkpt>
      <trkpt lat="36.828710" lon="-3.599431">
        <ele>647.555</ele>
        <time>2022-12-10T08:22:21Z</time>
      </trkpt>
      <trkpt lat="36.828693" lon="-3.599469">
        <ele>648.664</ele>
        <time>2022-12-10T08:22:25Z</time>
      </trkpt>
      <trkpt lat="36.828695" lon="-3.599479">
        <ele>648.866</ele>
        <time>2022-12-10T08:22:26Z</time>
      </trkpt>
      <trkpt lat="36.828699" lon="-3.599532">
        <ele>649.842</ele>
        <time>2022-12-10T08:22:31Z</time>
      </trkpt>
      <trkpt lat="36.828693" lon="-3.599548">
        <ele>650.283</ele>
        <time>2022-12-10T08:22:33Z</time>
      </trkpt>
      <trkpt lat="36.828690" lon="-3.599584">
        <ele>651.016</ele>
        <time>2022-12-10T08:22:36Z</time>
      </trkpt>
      <trkpt lat="36.828688" lon="-3.599611">
        <ele>651.666</ele>
        <time>2022-12-10T08:22:38Z</time>
      </trkpt>
      <trkpt lat="36.828684" lon="-3.599652">
        <ele>652.564</ele>
        <time>2022-12-10T08:22:41Z</time>
      </trkpt>
      <trkpt lat="36.828679" lon="-3.599710">
        <ele>653.806</ele>
        <time>2022-12-10T08:22:46Z</time>
      </trkpt>
      <trkpt lat="36.828655" lon="-3.599757">
        <ele>655.216</ele>
        <time>2022-12-10T08:22:51Z</time>
      </trkpt>
      <trkpt lat="36.828637" lon="-3.599815">
        <ele>656.909</ele>
        <time>2022-12-10T08:22:55Z</time>
      </trkpt>
      <trkpt lat="36.828632" lon="-3.599839">
        <ele>657.657</ele>
        <time>2022-12-10T08:22:59Z</time>
      </trkpt>
      <trkpt lat="36.828627" lon="-3.599851">
        <ele>658.018</ele>
        <time>2022-12-10T08:23:00Z</time>
      </trkpt>
      <trkpt lat="36.828621" lon="-3.599862">
        <ele>658.317</ele>
        <time>2022-12-10T08:23:01Z</time>
      </trkpt>
      <trkpt lat="36.828607" lon="-3.599881">
        <ele>659.166</ele>
        <time>2022-12-10T08:23:04Z</time>
      </trkpt>
      <trkpt lat="36.828592" lon="-3.599921">
        <ele>660.348</ele>
        <time>2022-12-10T08:23:07Z</time>
      </trkpt>
      <trkpt lat="36.828590" lon="-3.599940">
        <ele>660.854</ele>
        <time>2022-12-10T08:23:11Z</time>
      </trkpt>
      <trkpt lat="36.828585" lon="-3.599970">
        <ele>661.655</ele>
        <time>2022-12-10T08:23:15Z</time>
      </trkpt>
      <trkpt lat="36.828598" lon="-3.600029">
        <ele>663.158</ele>
        <time>2022-12-10T08:23:20Z</time>
      </trkpt>
      <trkpt lat="36.828603" lon="-3.600094">
        <ele>665.298</ele>
        <time>2022-12-10T08:23:25Z</time>
      </trkpt>
      <trkpt lat="36.828604" lon="-3.600152">
        <ele>667.126</ele>
        <time>2022-12-10T08:23:29Z</time>
      </trkpt>
      <trkpt lat="36.828607" lon="-3.600184">
        <ele>668.047</ele>
        <time>2022-12-10T08:23:31Z</time>
      </trkpt>
      <trkpt lat="36.828608" lon="-3.600212">
        <ele>668.911</ele>
        <time>2022-12-10T08:23:33Z</time>
      </trkpt>
      <trkpt lat="36.828612" lon="-3.600236">
        <ele>669.609</ele>
        <time>2022-12-10T08:23:35Z</time>
      </trkpt>
      <trkpt lat="36.828616" lon="-3.600249">
        <ele>669.923</ele>
        <time>2022-12-10T08:23:36Z</time>
      </trkpt>
      <trkpt lat="36.828619" lon="-3.600302">
        <ele>671.234</ele>
        <time>2022-12-10T08:23:39Z</time>
      </trkpt>
      <trkpt lat="36.828623" lon="-3.600338">
        <ele>671.863</ele>
        <time>2022-12-10T08:23:41Z</time>
      </trkpt>
      <trkpt lat="36.828619" lon="-3.600405">
        <ele>673.152</ele>
        <time>2022-12-10T08:23:45Z</time>
      </trkpt>
      <trkpt lat="36.828622" lon="-3.600426">
        <ele>673.464</ele>
        <time>2022-12-10T08:23:47Z</time>
      </trkpt>
      <trkpt lat="36.828636" lon="-3.600468">
        <ele>673.770</ele>
        <time>2022-12-10T08:23:50Z</time>
      </trkpt>
      <trkpt lat="36.828643" lon="-3.600478">
        <ele>673.661</ele>
        <time>2022-12-10T08:23:51Z</time>
      </trkpt>
      <trkpt lat="36.828648" lon="-3.600514">
        <ele>674.164</ele>
        <time>2022-12-10T08:23:55Z</time>
      </trkpt>
      <trkpt lat="36.828650" lon="-3.600520">
        <ele>674.134</ele>
        <time>2022-12-10T08:23:56Z</time>
      </trkpt>
      <trkpt lat="36.828658" lon="-3.600536">
        <ele>674.212</ele>
        <time>2022-12-10T08:23:58Z</time>
      </trkpt>
      <trkpt lat="36.828669" lon="-3.600567">
        <ele>674.132</ele>
        <time>2022-12-10T08:24:01Z</time>
      </trkpt>
      <trkpt lat="36.828664" lon="-3.600609">
        <ele>674.305</ele>
        <time>2022-12-10T08:24:06Z</time>
      </trkpt>
      <trkpt lat="36.828659" lon="-3.600616">
        <ele>674.509</ele>
        <time>2022-12-10T08:24:08Z</time>
      </trkpt>
      <trkpt lat="36.828655" lon="-3.600614">
        <ele>674.792</ele>
        <time>2022-12-10T08:24:10Z</time>
      </trkpt>
      <trkpt lat="36.828642" lon="-3.600622">
        <ele>675.163</ele>
        <time>2022-12-10T08:24:14Z</time>
      </trkpt>
      <trkpt lat="36.828614" lon="-3.600632">
        <ele>676.292</ele>
        <time>2022-12-10T08:24:18Z</time>
      </trkpt>
      <trkpt lat="36.828629" lon="-3.600649">
        <ele>675.731</ele>
        <time>2022-12-10T08:24:40Z</time>
      </trkpt>
      <trkpt lat="36.828642" lon="-3.600730">
        <ele>675.363</ele>
        <time>2022-12-10T08:25:36Z</time>
      </trkpt>
      <trkpt lat="36.828610" lon="-3.600805">
        <ele>677.019</ele>
        <time>2022-12-10T08:25:42Z</time>
      </trkpt>
      <trkpt lat="36.828599" lon="-3.600815">
        <ele>677.680</ele>
        <time>2022-12-10T08:25:43Z</time>
      </trkpt>
      <trkpt lat="36.828528" lon="-3.600998">
        <ele>679.513</ele>
        <time>2022-12-10T08:25:57Z</time>
      </trkpt>
      <trkpt lat="36.828421" lon="-3.601188">
        <ele>683.153</ele>
        <time>2022-12-10T08:26:11Z</time>
      </trkpt>
      <trkpt lat="36.828384" lon="-3.601245">
        <ele>684.183</ele>
        <time>2022-12-10T08:26:15Z</time>
      </trkpt>
      <trkpt lat="36.828269" lon="-3.601364">
        <ele>687.825</ele>
        <time>2022-12-10T08:26:25Z</time>
      </trkpt>
      <trkpt lat="36.828181" lon="-3.601411">
        <ele>691.417</ele>
        <time>2022-12-10T08:26:32Z</time>
      </trkpt>
      <trkpt lat="36.828118" lon="-3.601496">
        <ele>693.409</ele>
        <time>2022-12-10T08:26:40Z</time>
      </trkpt>
      <trkpt lat="36.828133" lon="-3.601552">
        <ele>691.929</ele>
        <time>2022-12-10T08:26:43Z</time>
      </trkpt>
      <trkpt lat="36.828150" lon="-3.601614">
        <ele>690.370</ele>
        <time>2022-12-10T08:26:47Z</time>
      </trkpt>
      <trkpt lat="36.828163" lon="-3.601646">
        <ele>689.249</ele>
        <time>2022-12-10T08:26:49Z</time>
      </trkpt>
      <trkpt lat="36.828168" lon="-3.601684">
        <ele>688.778</ele>
        <time>2022-12-10T08:26:51Z</time>
      </trkpt>
      <trkpt lat="36.828189" lon="-3.601785">
        <ele>687.590</ele>
        <time>2022-12-10T08:26:56Z</time>
      </trkpt>
      <trkpt lat="36.828222" lon="-3.601849">
        <ele>685.876</ele>
        <time>2022-12-10T08:27:00Z</time>
      </trkpt>
      <trkpt lat="36.828240" lon="-3.601929">
        <ele>684.757</ele>
        <time>2022-12-10T08:27:05Z</time>
      </trkpt>
      <trkpt lat="36.828252" lon="-3.602057">
        <ele>686.790</ele>
        <time>2022-12-10T08:27:13Z</time>
      </trkpt>
      <trkpt lat="36.828250" lon="-3.602073">
        <ele>687.250</ele>
        <time>2022-12-10T08:27:14Z</time>
      </trkpt>
      <trkpt lat="36.828255" lon="-3.602144">
        <ele>688.683</ele>
        <time>2022-12-10T08:27:18Z</time>
      </trkpt>
      <trkpt lat="36.828291" lon="-3.602192">
        <ele>688.125</ele>
        <time>2022-12-10T08:27:22Z</time>
      </trkpt>
      <trkpt lat="36.828346" lon="-3.602249">
        <ele>687.317</ele>
        <time>2022-12-10T08:27:27Z</time>
      </trkpt>
      <trkpt lat="36.828384" lon="-3.602296">
        <ele>687.209</ele>
        <time>2022-12-10T08:27:32Z</time>
      </trkpt>
      <trkpt lat="36.828383" lon="-3.602299">
        <ele>687.379</ele>
        <time>2022-12-10T08:27:33Z</time>
      </trkpt>
      <trkpt lat="36.828386" lon="-3.602301">
        <ele>687.220</ele>
        <time>2022-12-10T08:27:36Z</time>
      </trkpt>
      <trkpt lat="36.828386" lon="-3.602295">
        <ele>687.079</ele>
        <time>2022-12-10T08:27:40Z</time>
      </trkpt>
      <trkpt lat="36.828388" lon="-3.602295">
        <ele>686.968</ele>
        <time>2022-12-10T08:27:42Z</time>
      </trkpt>
      <trkpt lat="36.828466" lon="-3.602373">
        <ele>685.920</ele>
        <time>2022-12-10T08:28:38Z</time>
      </trkpt>
      <trkpt lat="36.828503" lon="-3.602445">
        <ele>686.496</ele>
        <time>2022-12-10T08:28:44Z</time>
      </trkpt>
      <trkpt lat="36.828511" lon="-3.602506">
        <ele>687.827</ele>
        <time>2022-12-10T08:28:48Z</time>
      </trkpt>
      <trkpt lat="36.828489" lon="-3.602691">
        <ele>693.560</ele>
        <time>2022-12-10T08:29:00Z</time>
      </trkpt>
      <trkpt lat="36.828469" lon="-3.602756">
        <ele>696.110</ele>
        <time>2022-12-10T08:29:04Z</time>
      </trkpt>
      <trkpt lat="36.828468" lon="-3.602771">
        <ele>696.547</ele>
        <time>2022-12-10T08:29:05Z</time>
      </trkpt>
      <trkpt lat="36.828465" lon="-3.602837">
        <ele>698.429</ele>
        <time>2022-12-10T08:29:09Z</time>
      </trkpt>
      <trkpt lat="36.828470" lon="-3.602871">
        <ele>699.121</ele>
        <time>2022-12-10T08:29:11Z</time>
      </trkpt>
      <trkpt lat="36.828477" lon="-3.602912">
        <ele>699.909</ele>
        <time>2022-12-10T08:29:14Z</time>
      </trkpt>
      <trkpt lat="36.828474" lon="-3.602932">
        <ele>700.645</ele>
        <time>2022-12-10T08:29:16Z</time>
      </trkpt>
      <trkpt lat="36.828461" lon="-3.602974">
        <ele>702.436</ele>
        <time>2022-12-10T08:29:19Z</time>
      </trkpt>
      <trkpt lat="36.828458" lon="-3.603031">
        <ele>704.085</ele>
        <time>2022-12-10T08:29:22Z</time>
      </trkpt>
      <trkpt lat="36.828441" lon="-3.603127">
        <ele>707.694</ele>
        <time>2022-12-10T08:29:28Z</time>
      </trkpt>
      <trkpt lat="36.828428" lon="-3.603202">
        <ele>710.396</ele>
        <time>2022-12-10T08:29:33Z</time>
      </trkpt>
      <trkpt lat="36.828434" lon="-3.603222">
        <ele>710.682</ele>
        <time>2022-12-10T08:29:36Z</time>
      </trkpt>
      <trkpt lat="36.828447" lon="-3.603248">
        <ele>710.793</ele>
        <time>2022-12-10T08:29:38Z</time>
      </trkpt>
      <trkpt lat="36.828506" lon="-3.603307">
        <ele>709.846</ele>
        <time>2022-12-10T08:29:44Z</time>
      </trkpt>
      <trkpt lat="36.828515" lon="-3.603314">
        <ele>709.656</ele>
        <time>2022-12-10T08:29:45Z</time>
      </trkpt>
      <trkpt lat="36.828556" lon="-3.603367">
        <ele>709.618</ele>
        <time>2022-12-10T08:29:50Z</time>
      </trkpt>
      <trkpt lat="36.828568" lon="-3.603418">
        <ele>711.098</ele>
        <time>2022-12-10T08:29:53Z</time>
      </trkpt>
      <trkpt lat="36.828572" lon="-3.603424">
        <ele>711.017</ele>
        <time>2022-12-10T08:29:54Z</time>
      </trkpt>
      <trkpt lat="36.828599" lon="-3.603451">
        <ele>710.809</ele>
        <time>2022-12-10T08:29:57Z</time>
      </trkpt>
      <trkpt lat="36.828611" lon="-3.603451">
        <ele>710.262</ele>
        <time>2022-12-10T08:29:58Z</time>
      </trkpt>
      <trkpt lat="36.828666" lon="-3.603479">
        <ele>710.413</ele>
        <time>2022-12-10T08:30:02Z</time>
      </trkpt>
      <trkpt lat="36.828717" lon="-3.603517">
        <ele>711.042</ele>
        <time>2022-12-10T08:30:07Z</time>
      </trkpt>
      <trkpt lat="36.828731" lon="-3.603524">
        <ele>711.041</ele>
        <time>2022-12-10T08:30:08Z</time>
      </trkpt>
      <trkpt lat="36.828772" lon="-3.603530">
        <ele>710.673</ele>
        <time>2022-12-10T08:30:11Z</time>
      </trkpt>
      <trkpt lat="36.828790" lon="-3.603535">
        <ele>710.589</ele>
        <time>2022-12-10T08:30:13Z</time>
      </trkpt>
      <trkpt lat="36.828801" lon="-3.603549">
        <ele>710.940</ele>
        <time>2022-12-10T08:30:15Z</time>
      </trkpt>
      <trkpt lat="36.828806" lon="-3.603555">
        <ele>711.093</ele>
        <time>2022-12-10T08:30:16Z</time>
      </trkpt>
      <trkpt lat="36.828818" lon="-3.603571">
        <ele>711.513</ele>
        <time>2022-12-10T08:30:18Z</time>
      </trkpt>
      <trkpt lat="36.828821" lon="-3.603573">
        <ele>711.531</ele>
        <time>2022-12-10T08:30:19Z</time>
      </trkpt>
      <trkpt lat="36.828847" lon="-3.603572">
        <ele>711.161</ele>
        <time>2022-12-10T08:30:24Z</time>
      </trkpt>
      <trkpt lat="36.828867" lon="-3.603577">
        <ele>711.007</ele>
        <time>2022-12-10T08:30:26Z</time>
      </trkpt>
      <trkpt lat="36.828880" lon="-3.603578">
        <ele>710.809</ele>
        <time>2022-12-10T08:30:28Z</time>
      </trkpt>
      <trkpt lat="36.828888" lon="-3.603583">
        <ele>710.934</ele>
        <time>2022-12-10T08:30:29Z</time>
      </trkpt>
      <trkpt lat="36.828917" lon="-3.603620">
        <ele>712.235</ele>
        <time>2022-12-10T08:30:32Z</time>
      </trkpt>
      <trkpt lat="36.828945" lon="-3.603636">
        <ele>712.624</ele>
        <time>2022-12-10T08:30:36Z</time>
      </trkpt>
      <trkpt lat="36.828946" lon="-3.603637">
        <ele>712.613</ele>
        <time>2022-12-10T08:30:37Z</time>
      </trkpt>
      <trkpt lat="36.828951" lon="-3.603632">
        <ele>712.575</ele>
        <time>2022-12-10T08:30:39Z</time>
      </trkpt>
      <trkpt lat="36.828961" lon="-3.603675">
        <ele>713.851</ele>
        <time>2022-12-10T08:30:41Z</time>
      </trkpt>
      <trkpt lat="36.828978" lon="-3.603696">
        <ele>714.372</ele>
        <time>2022-12-10T08:30:43Z</time>
      </trkpt>
      <trkpt lat="36.829004" lon="-3.603708">
        <ele>714.595</ele>
        <time>2022-12-10T08:30:46Z</time>
      </trkpt>
      <trkpt lat="36.829038" lon="-3.603739">
        <ele>715.115</ele>
        <time>2022-12-10T08:30:50Z</time>
      </trkpt>
      <trkpt lat="36.829048" lon="-3.603747">
        <ele>715.223</ele>
        <time>2022-12-10T08:30:51Z</time>
      </trkpt>
      <trkpt lat="36.829083" lon="-3.603767">
        <ele>715.383</ele>
        <time>2022-12-10T08:30:55Z</time>
      </trkpt>
      <trkpt lat="36.829112" lon="-3.603789">
        <ele>715.511</ele>
        <time>2022-12-10T08:30:59Z</time>
      </trkpt>
      <trkpt lat="36.829122" lon="-3.603789">
        <ele>715.409</ele>
        <time>2022-12-10T08:31:00Z</time>
      </trkpt>
      <trkpt lat="36.829125" lon="-3.603827">
        <ele>716.343</ele>
        <time>2022-12-10T08:31:04Z</time>
      </trkpt>
      <trkpt lat="36.829107" lon="-3.603851">
        <ele>717.114</ele>
        <time>2022-12-10T08:31:07Z</time>
      </trkpt>
      <trkpt lat="36.829099" lon="-3.603864">
        <ele>717.643</ele>
        <time>2022-12-10T08:31:09Z</time>
      </trkpt>
      <trkpt lat="36.829093" lon="-3.603871">
        <ele>717.932</ele>
        <time>2022-12-10T08:31:10Z</time>
      </trkpt>
      <trkpt lat="36.829074" lon="-3.603887">
        <ele>718.644</ele>
        <time>2022-12-10T08:31:13Z</time>
      </trkpt>
      <trkpt lat="36.829071" lon="-3.603898">
        <ele>718.830</ele>
        <time>2022-12-10T08:31:14Z</time>
      </trkpt>
      <trkpt lat="36.829067" lon="-3.603938">
        <ele>719.311</ele>
        <time>2022-12-10T08:31:17Z</time>
      </trkpt>
      <trkpt lat="36.829049" lon="-3.603997">
        <ele>720.354</ele>
        <time>2022-12-10T08:31:21Z</time>
      </trkpt>
      <trkpt lat="36.829029" lon="-3.604037">
        <ele>721.324</ele>
        <time>2022-12-10T08:31:24Z</time>
      </trkpt>
      <trkpt lat="36.829048" lon="-3.604269">
        <ele>721.539</ele>
        <time>2022-12-10T08:31:37Z</time>
      </trkpt>
      <trkpt lat="36.829051" lon="-3.604299">
        <ele>721.101</ele>
        <time>2022-12-10T08:31:39Z</time>
      </trkpt>
      <trkpt lat="36.829051" lon="-3.604353">
        <ele>720.721</ele>
        <time>2022-12-10T08:31:42Z</time>
      </trkpt>
      <trkpt lat="36.829055" lon="-3.604372">
        <ele>720.409</ele>
        <time>2022-12-10T08:31:43Z</time>
      </trkpt>
      <trkpt lat="36.829063" lon="-3.604400">
        <ele>719.894</ele>
        <time>2022-12-10T08:31:45Z</time>
      </trkpt>
      <trkpt lat="36.829054" lon="-3.604426">
        <ele>720.045</ele>
        <time>2022-12-10T08:31:47Z</time>
      </trkpt>
      <trkpt lat="36.829014" lon="-3.604520">
        <ele>719.694</ele>
        <time>2022-12-10T08:31:53Z</time>
      </trkpt>
      <trkpt lat="36.828876" lon="-3.604672">
        <ele>722.693</ele>
        <time>2022-12-10T08:32:06Z</time>
      </trkpt>
      <trkpt lat="36.828810" lon="-3.604757">
        <ele>723.535</ele>
        <time>2022-12-10T08:32:15Z</time>
      </trkpt>
      <trkpt lat="36.828785" lon="-3.604785">
        <ele>723.891</ele>
        <time>2022-12-10T08:32:18Z</time>
      </trkpt>
      <trkpt lat="36.828762" lon="-3.604798">
        <ele>724.512</ele>
        <time>2022-12-10T08:32:20Z</time>
      </trkpt>
      <trkpt lat="36.828625" lon="-3.604949">
        <ele>727.485</ele>
        <time>2022-12-10T08:32:30Z</time>
      </trkpt>
      <trkpt lat="36.828587" lon="-3.605009">
        <ele>727.785</ele>
        <time>2022-12-10T08:32:34Z</time>
      </trkpt>
      <trkpt lat="36.828470" lon="-3.605084">
        <ele>730.359</ele>
        <time>2022-12-10T08:32:43Z</time>
      </trkpt>
      <trkpt lat="36.828425" lon="-3.605105">
        <ele>731.603</ele>
        <time>2022-12-10T08:32:46Z</time>
      </trkpt>
      <trkpt lat="36.828386" lon="-3.605319">
        <ele>727.423</ele>
        <time>2022-12-10T08:32:57Z</time>
      </trkpt>
      <trkpt lat="36.828374" lon="-3.605328">
        <ele>727.609</ele>
        <time>2022-12-10T08:32:58Z</time>
      </trkpt>
      <trkpt lat="36.828309" lon="-3.605347">
        <ele>730.016</ele>
        <time>2022-12-10T08:33:02Z</time>
      </trkpt>
      <trkpt lat="36.828139" lon="-3.605374">
        <ele>737.767</ele>
        <time>2022-12-10T08:33:13Z</time>
      </trkpt>
      <trkpt lat="36.828060" lon="-3.605488">
        <ele>738.016</ele>
        <time>2022-12-10T08:33:23Z</time>
      </trkpt>
      <trkpt lat="36.828056" lon="-3.605646">
        <ele>735.035</ele>
        <time>2022-12-10T08:33:33Z</time>
      </trkpt>
      <trkpt lat="36.827926" lon="-3.605785">
        <ele>739.797</ele>
        <time>2022-12-10T08:33:43Z</time>
      </trkpt>
      <trkpt lat="36.827898" lon="-3.605828">
        <ele>740.593</ele>
        <time>2022-12-10T08:33:47Z</time>
      </trkpt>
      <trkpt lat="36.827911" lon="-3.605894">
        <ele>740.374</ele>
        <time>2022-12-10T08:33:50Z</time>
      </trkpt>
      <trkpt lat="36.827926" lon="-3.605926">
        <ele>739.967</ele>
        <time>2022-12-10T08:33:52Z</time>
      </trkpt>
      <trkpt lat="36.827956" lon="-3.605946">
        <ele>738.797</ele>
        <time>2022-12-10T08:33:55Z</time>
      </trkpt>
      <trkpt lat="36.828011" lon="-3.606053">
        <ele>737.366</ele>
        <time>2022-12-10T08:34:03Z</time>
      </trkpt>
      <trkpt lat="36.828026" lon="-3.606117">
        <ele>737.329</ele>
        <time>2022-12-10T08:34:08Z</time>
      </trkpt>
      <trkpt lat="36.828021" lon="-3.606169">
        <ele>737.721</ele>
        <time>2022-12-10T08:34:13Z</time>
      </trkpt>
      <trkpt lat="36.828034" lon="-3.606196">
        <ele>737.209</ele>
        <time>2022-12-10T08:34:16Z</time>
      </trkpt>
      <trkpt lat="36.828041" lon="-3.606207">
        <ele>737.017</ele>
        <time>2022-12-10T08:34:17Z</time>
      </trkpt>
      <trkpt lat="36.828053" lon="-3.606224">
        <ele>736.568</ele>
        <time>2022-12-10T08:34:19Z</time>
      </trkpt>
      <trkpt lat="36.828052" lon="-3.606250">
        <ele>736.717</ele>
        <time>2022-12-10T08:34:21Z</time>
      </trkpt>
      <trkpt lat="36.828053" lon="-3.606259">
        <ele>736.656</ele>
        <time>2022-12-10T08:34:22Z</time>
      </trkpt>
      <trkpt lat="36.828056" lon="-3.606283">
        <ele>736.618</ele>
        <time>2022-12-10T08:34:25Z</time>
      </trkpt>
      <trkpt lat="36.828058" lon="-3.606293">
        <ele>736.654</ele>
        <time>2022-12-10T08:34:26Z</time>
      </trkpt>
      <trkpt lat="36.828074" lon="-3.606343">
        <ele>736.175</ele>
        <time>2022-12-10T08:34:30Z</time>
      </trkpt>
      <trkpt lat="36.828071" lon="-3.606404">
        <ele>736.638</ele>
        <time>2022-12-10T08:34:35Z</time>
      </trkpt>
      <trkpt lat="36.828066" lon="-3.606413">
        <ele>736.818</ele>
        <time>2022-12-10T08:34:36Z</time>
      </trkpt>
      <trkpt lat="36.828040" lon="-3.606445">
        <ele>738.185</ele>
        <time>2022-12-10T08:34:40Z</time>
      </trkpt>
      <trkpt lat="36.828034" lon="-3.606498">
        <ele>738.789</ele>
        <time>2022-12-10T08:34:45Z</time>
      </trkpt>
      <trkpt lat="36.828034" lon="-3.606508">
        <ele>738.817</ele>
        <time>2022-12-10T08:34:46Z</time>
      </trkpt>
      <trkpt lat="36.828036" lon="-3.606527">
        <ele>738.909</ele>
        <time>2022-12-10T08:34:48Z</time>
      </trkpt>
      <trkpt lat="36.828042" lon="-3.606541">
        <ele>738.779</ele>
        <time>2022-12-10T08:34:50Z</time>
      </trkpt>
      <trkpt lat="36.828039" lon="-3.606598">
        <ele>739.310</ele>
        <time>2022-12-10T08:34:56Z</time>
      </trkpt>
      <trkpt lat="36.828036" lon="-3.606619">
        <ele>739.679</ele>
        <time>2022-12-10T08:34:58Z</time>
      </trkpt>
      <trkpt lat="36.828039" lon="-3.606632">
        <ele>739.528</ele>
        <time>2022-12-10T08:35:00Z</time>
      </trkpt>
      <trkpt lat="36.828043" lon="-3.606640">
        <ele>739.470</ele>
        <time>2022-12-10T08:35:01Z</time>
      </trkpt>
      <trkpt lat="36.828033" lon="-3.606702">
        <ele>739.746</ele>
        <time>2022-12-10T08:35:06Z</time>
      </trkpt>
      <trkpt lat="36.828057" lon="-3.606746">
        <ele>738.117</ele>
        <time>2022-12-10T08:35:12Z</time>
      </trkpt>
      <trkpt lat="36.828066" lon="-3.606788">
        <ele>737.340</ele>
        <time>2022-12-10T08:35:16Z</time>
      </trkpt>
      <trkpt lat="36.828067" lon="-3.606799">
        <ele>737.230</ele>
        <time>2022-12-10T08:35:17Z</time>
      </trkpt>
      <trkpt lat="36.828088" lon="-3.606845">
        <ele>735.987</ele>
        <time>2022-12-10T08:35:21Z</time>
      </trkpt>
      <trkpt lat="36.828084" lon="-3.606862">
        <ele>735.942</ele>
        <time>2022-12-10T08:35:22Z</time>
      </trkpt>
      <trkpt lat="36.828077" lon="-3.606874">
        <ele>736.026</ele>
        <time>2022-12-10T08:35:23Z</time>
      </trkpt>
      <trkpt lat="36.828042" lon="-3.606881">
        <ele>737.309</ele>
        <time>2022-12-10T08:35:27Z</time>
      </trkpt>
      <trkpt lat="36.828023" lon="-3.606879">
        <ele>738.239</ele>
        <time>2022-12-10T08:35:29Z</time>
      </trkpt>
      <trkpt lat="36.827982" lon="-3.606895">
        <ele>740.070</ele>
        <time>2022-12-10T08:35:34Z</time>
      </trkpt>
      <trkpt lat="36.827963" lon="-3.606892">
        <ele>740.999</ele>
        <time>2022-12-10T08:35:38Z</time>
      </trkpt>
      <trkpt lat="36.827954" lon="-3.606882">
        <ele>741.498</ele>
        <time>2022-12-10T08:35:40Z</time>
      </trkpt>
      <trkpt lat="36.827949" lon="-3.606824">
        <ele>742.360</ele>
        <time>2022-12-10T08:35:44Z</time>
      </trkpt>
      <trkpt lat="36.827941" lon="-3.606812">
        <ele>742.816</ele>
        <time>2022-12-10T08:35:45Z</time>
      </trkpt>
      <trkpt lat="36.827933" lon="-3.606801">
        <ele>743.367</ele>
        <time>2022-12-10T08:35:46Z</time>
      </trkpt>
      <trkpt lat="36.827914" lon="-3.606795">
        <ele>744.290</ele>
        <time>2022-12-10T08:35:48Z</time>
      </trkpt>
      <trkpt lat="36.827907" lon="-3.606798">
        <ele>744.590</ele>
        <time>2022-12-10T08:35:49Z</time>
      </trkpt>
      <trkpt lat="36.827886" lon="-3.606818">
        <ele>745.324</ele>
        <time>2022-12-10T08:35:52Z</time>
      </trkpt>
      <trkpt lat="36.827872" lon="-3.606817">
        <ele>746.004</ele>
        <time>2022-12-10T08:35:54Z</time>
      </trkpt>
      <trkpt lat="36.827871" lon="-3.606809">
        <ele>746.114</ele>
        <time>2022-12-10T08:35:55Z</time>
      </trkpt>
      <trkpt lat="36.827857" lon="-3.606772">
        <ele>747.209</ele>
        <time>2022-12-10T08:35:59Z</time>
      </trkpt>
      <trkpt lat="36.827851" lon="-3.606766">
        <ele>747.533</ele>
        <time>2022-12-10T08:36:00Z</time>
      </trkpt>
      <trkpt lat="36.827845" lon="-3.606760">
        <ele>747.844</ele>
        <time>2022-12-10T08:36:01Z</time>
      </trkpt>
      <trkpt lat="36.827832" lon="-3.606725">
        <ele>748.893</ele>
        <time>2022-12-10T08:36:04Z</time>
      </trkpt>
      <trkpt lat="36.827832" lon="-3.606705">
        <ele>749.032</ele>
        <time>2022-12-10T08:36:06Z</time>
      </trkpt>
      <trkpt lat="36.827824" lon="-3.606663">
        <ele>749.874</ele>
        <time>2022-12-10T08:36:11Z</time>
      </trkpt>
      <trkpt lat="36.827820" lon="-3.606660">
        <ele>750.070</ele>
        <time>2022-12-10T08:36:12Z</time>
      </trkpt>
      <trkpt lat="36.827786" lon="-3.606657">
        <ele>751.521</ele>
        <time>2022-12-10T08:36:19Z</time>
      </trkpt>
      <trkpt lat="36.827771" lon="-3.606687">
        <ele>752.114</ele>
        <time>2022-12-10T08:36:24Z</time>
      </trkpt>
      <trkpt lat="36.827751" lon="-3.606728">
        <ele>752.784</ele>
        <time>2022-12-10T08:36:29Z</time>
      </trkpt>
      <trkpt lat="36.827736" lon="-3.606733">
        <ele>753.446</ele>
        <time>2022-12-10T08:36:41Z</time>
      </trkpt>
      <trkpt lat="36.827678" lon="-3.606800">
        <ele>755.488</ele>
        <time>2022-12-10T08:36:54Z</time>
      </trkpt>
      <trkpt lat="36.827668" lon="-3.606803">
        <ele>755.916</ele>
        <time>2022-12-10T08:36:56Z</time>
      </trkpt>
      <trkpt lat="36.827664" lon="-3.606789">
        <ele>756.209</ele>
        <time>2022-12-10T08:36:59Z</time>
      </trkpt>
      <trkpt lat="36.827672" lon="-3.606743">
        <ele>756.425</ele>
        <time>2022-12-10T08:37:04Z</time>
      </trkpt>
      <trkpt lat="36.827685" lon="-3.606679">
        <ele>756.536</ele>
        <time>2022-12-10T08:37:11Z</time>
      </trkpt>
      <trkpt lat="36.827685" lon="-3.606617">
        <ele>756.225</ele>
        <time>2022-12-10T08:37:16Z</time>
      </trkpt>
      <trkpt lat="36.827659" lon="-3.606564">
        <ele>757.054</ele>
        <time>2022-12-10T08:37:21Z</time>
      </trkpt>
      <trkpt lat="36.827606" lon="-3.606524">
        <ele>759.436</ele>
        <time>2022-12-10T08:37:26Z</time>
      </trkpt>
      <trkpt lat="36.827583" lon="-3.606515">
        <ele>760.622</ele>
        <time>2022-12-10T08:37:29Z</time>
      </trkpt>
      <trkpt lat="36.827575" lon="-3.606523">
        <ele>761.043</ele>
        <time>2022-12-10T08:37:31Z</time>
      </trkpt>
      <trkpt lat="36.827546" lon="-3.606588">
        <ele>763.166</ele>
        <time>2022-12-10T08:37:35Z</time>
      </trkpt>
      <trkpt lat="36.827542" lon="-3.606599">
        <ele>763.456</ele>
        <time>2022-12-10T08:37:36Z</time>
      </trkpt>
      <trkpt lat="36.827526" lon="-3.606627">
        <ele>764.439</ele>
        <time>2022-12-10T08:37:39Z</time>
      </trkpt>
      <trkpt lat="36.827519" lon="-3.606636">
        <ele>764.801</ele>
        <time>2022-12-10T08:37:40Z</time>
      </trkpt>
      <trkpt lat="36.827503" lon="-3.606654">
        <ele>765.821</ele>
        <time>2022-12-10T08:37:42Z</time>
      </trkpt>
      <trkpt lat="36.827497" lon="-3.606675">
        <ele>766.009</ele>
        <time>2022-12-10T08:37:44Z</time>
      </trkpt>
      <trkpt lat="36.827488" lon="-3.606713">
        <ele>765.954</ele>
        <time>2022-12-10T08:37:47Z</time>
      </trkpt>
      <trkpt lat="36.827486" lon="-3.606718">
        <ele>766.045</ele>
        <time>2022-12-10T08:37:49Z</time>
      </trkpt>
      <trkpt lat="36.827433" lon="-3.606775">
        <ele>767.734</ele>
        <time>2022-12-10T08:38:02Z</time>
      </trkpt>
      <trkpt lat="36.827427" lon="-3.606771">
        <ele>768.123</ele>
        <time>2022-12-10T08:38:03Z</time>
      </trkpt>
      <trkpt lat="36.827433" lon="-3.606743">
        <ele>768.255</ele>
        <time>2022-12-10T08:38:06Z</time>
      </trkpt>
      <trkpt lat="36.827439" lon="-3.606733">
        <ele>768.171</ele>
        <time>2022-12-10T08:38:07Z</time>
      </trkpt>
      <trkpt lat="36.827448" lon="-3.606713">
        <ele>767.962</ele>
        <time>2022-12-10T08:38:09Z</time>
      </trkpt>
      <trkpt lat="36.827445" lon="-3.606657">
        <ele>768.725</ele>
        <time>2022-12-10T08:38:14Z</time>
      </trkpt>
      <trkpt lat="36.827419" lon="-3.606615">
        <ele>769.845</ele>
        <time>2022-12-10T08:38:19Z</time>
      </trkpt>
      <trkpt lat="36.827416" lon="-3.606616">
        <ele>770.094</ele>
        <time>2022-12-10T08:38:20Z</time>
      </trkpt>
      <trkpt lat="36.827415" lon="-3.606617">
        <ele>770.057</ele>
        <time>2022-12-10T08:38:21Z</time>
      </trkpt>
      <trkpt lat="36.827407" lon="-3.606644">
        <ele>770.622</ele>
        <time>2022-12-10T08:38:25Z</time>
      </trkpt>
      <trkpt lat="36.827373" lon="-3.606698">
        <ele>771.909</ele>
        <time>2022-12-10T08:38:30Z</time>
      </trkpt>
      <trkpt lat="36.827351" lon="-3.606705">
        <ele>772.940</ele>
        <time>2022-12-10T08:38:32Z</time>
      </trkpt>
      <trkpt lat="36.827330" lon="-3.606707">
        <ele>773.951</ele>
        <time>2022-12-10T08:38:34Z</time>
      </trkpt>
      <trkpt lat="36.827323" lon="-3.606687">
        <ele>774.660</ele>
        <time>2022-12-10T08:38:36Z</time>
      </trkpt>
      <trkpt lat="36.827332" lon="-3.606648">
        <ele>774.439</ele>
        <time>2022-12-10T08:38:39Z</time>
      </trkpt>
      <trkpt lat="36.827319" lon="-3.606599">
        <ele>775.021</ele>
        <time>2022-12-10T08:38:44Z</time>
      </trkpt>
      <trkpt lat="36.827282" lon="-3.606627">
        <ele>776.937</ele>
        <time>2022-12-10T08:38:49Z</time>
      </trkpt>
      <trkpt lat="36.827297" lon="-3.606640">
        <ele>776.248</ele>
        <time>2022-12-10T08:38:51Z</time>
      </trkpt>
      <trkpt lat="36.827279" lon="-3.606653">
        <ele>777.111</ele>
        <time>2022-12-10T08:38:54Z</time>
      </trkpt>
      <trkpt lat="36.827270" lon="-3.606653">
        <ele>777.681</ele>
        <time>2022-12-10T08:38:55Z</time>
      </trkpt>
      <trkpt lat="36.827261" lon="-3.606648">
        <ele>778.093</ele>
        <time>2022-12-10T08:38:56Z</time>
      </trkpt>
      <trkpt lat="36.827244" lon="-3.606631">
        <ele>778.965</ele>
        <time>2022-12-10T08:38:58Z</time>
      </trkpt>
      <trkpt lat="36.827236" lon="-3.606600">
        <ele>779.321</ele>
        <time>2022-12-10T08:39:00Z</time>
      </trkpt>
      <trkpt lat="36.827212" lon="-3.606557">
        <ele>780.609</ele>
        <time>2022-12-10T08:39:05Z</time>
      </trkpt>
      <trkpt lat="36.827183" lon="-3.606534">
        <ele>782.370</ele>
        <time>2022-12-10T08:39:09Z</time>
      </trkpt>
      <trkpt lat="36.827174" lon="-3.606530">
        <ele>782.871</ele>
        <time>2022-12-10T08:39:10Z</time>
      </trkpt>
      <trkpt lat="36.827154" lon="-3.606527">
        <ele>783.920</ele>
        <time>2022-12-10T08:39:12Z</time>
      </trkpt>
      <trkpt lat="36.827140" lon="-3.606535">
        <ele>784.759</ele>
        <time>2022-12-10T08:39:14Z</time>
      </trkpt>
      <trkpt lat="36.827137" lon="-3.606542">
        <ele>784.981</ele>
        <time>2022-12-10T08:39:15Z</time>
      </trkpt>
      <trkpt lat="36.827137" lon="-3.606563">
        <ele>784.937</ele>
        <time>2022-12-10T08:39:17Z</time>
      </trkpt>
      <trkpt lat="36.827148" lon="-3.606591">
        <ele>784.348</ele>
        <time>2022-12-10T08:39:19Z</time>
      </trkpt>
      <trkpt lat="36.827159" lon="-3.606600">
        <ele>783.611</ele>
        <time>2022-12-10T08:39:20Z</time>
      </trkpt>
      <trkpt lat="36.827165" lon="-3.606607">
        <ele>783.361</ele>
        <time>2022-12-10T08:39:21Z</time>
      </trkpt>
      <trkpt lat="36.827164" lon="-3.606623">
        <ele>783.494</ele>
        <time>2022-12-10T08:39:23Z</time>
      </trkpt>
      <trkpt lat="36.827150" lon="-3.606641">
        <ele>784.257</ele>
        <time>2022-12-10T08:39:25Z</time>
      </trkpt>
      <trkpt lat="36.827140" lon="-3.606648">
        <ele>784.722</ele>
        <time>2022-12-10T08:39:26Z</time>
      </trkpt>
      <trkpt lat="36.827102" lon="-3.606661">
        <ele>786.909</ele>
        <time>2022-12-10T08:39:30Z</time>
      </trkpt>
      <trkpt lat="36.827093" lon="-3.606660">
        <ele>787.490</ele>
        <time>2022-12-10T08:39:31Z</time>
      </trkpt>
      <trkpt lat="36.827066" lon="-3.606665">
        <ele>789.061</ele>
        <time>2022-12-10T08:39:34Z</time>
      </trkpt>
      <trkpt lat="36.827047" lon="-3.606673">
        <ele>790.080</ele>
        <time>2022-12-10T08:39:36Z</time>
      </trkpt>
      <trkpt lat="36.827002" lon="-3.606685">
        <ele>792.549</ele>
        <time>2022-12-10T08:39:41Z</time>
      </trkpt>
      <trkpt lat="36.826965" lon="-3.606714">
        <ele>794.361</ele>
        <time>2022-12-10T08:39:46Z</time>
      </trkpt>
      <trkpt lat="36.826956" lon="-3.606722">
        <ele>794.737</ele>
        <time>2022-12-10T08:39:47Z</time>
      </trkpt>
      <trkpt lat="36.826935" lon="-3.606742">
        <ele>795.838</ele>
        <time>2022-12-10T08:39:50Z</time>
      </trkpt>
      <trkpt lat="36.826928" lon="-3.606750">
        <ele>796.131</ele>
        <time>2022-12-10T08:39:51Z</time>
      </trkpt>
      <trkpt lat="36.826889" lon="-3.606786">
        <ele>798.081</ele>
        <time>2022-12-10T08:39:56Z</time>
      </trkpt>
      <trkpt lat="36.826870" lon="-3.606798">
        <ele>799.059</ele>
        <time>2022-12-10T08:39:59Z</time>
      </trkpt>
      <trkpt lat="36.826864" lon="-3.606810">
        <ele>799.203</ele>
        <time>2022-12-10T08:40:00Z</time>
      </trkpt>
      <trkpt lat="36.826856" lon="-3.606835">
        <ele>799.423</ele>
        <time>2022-12-10T08:40:02Z</time>
      </trkpt>
      <trkpt lat="36.826822" lon="-3.606896">
        <ele>800.709</ele>
        <time>2022-12-10T08:40:06Z</time>
      </trkpt>
      <trkpt lat="36.826718" lon="-3.607003">
        <ele>805.046</ele>
        <time>2022-12-10T08:40:20Z</time>
      </trkpt>
      <trkpt lat="36.826708" lon="-3.607018">
        <ele>805.397</ele>
        <time>2022-12-10T08:40:22Z</time>
      </trkpt>
      <trkpt lat="36.826686" lon="-3.607026">
        <ele>806.486</ele>
        <time>2022-12-10T08:40:26Z</time>
      </trkpt>
      <trkpt lat="36.826651" lon="-3.607038">
        <ele>808.045</ele>
        <time>2022-12-10T08:40:30Z</time>
      </trkpt>
      <trkpt lat="36.826639" lon="-3.607049">
        <ele>808.327</ele>
        <time>2022-12-10T08:40:32Z</time>
      </trkpt>
      <trkpt lat="36.826611" lon="-3.607076">
        <ele>808.933</ele>
        <time>2022-12-10T08:40:36Z</time>
      </trkpt>
      <trkpt lat="36.826578" lon="-3.607105">
        <ele>809.844</ele>
        <time>2022-12-10T08:40:40Z</time>
      </trkpt>
      <trkpt lat="36.826546" lon="-3.607143">
        <ele>810.597</ele>
        <time>2022-12-10T08:40:45Z</time>
      </trkpt>
      <trkpt lat="36.826532" lon="-3.607154">
        <ele>810.957</ele>
        <time>2022-12-10T08:40:47Z</time>
      </trkpt>
      <trkpt lat="36.826511" lon="-3.607164">
        <ele>811.752</ele>
        <time>2022-12-10T08:40:50Z</time>
      </trkpt>
      <trkpt lat="36.826478" lon="-3.607164">
        <ele>813.153</ele>
        <time>2022-12-10T08:40:54Z</time>
      </trkpt>
      <trkpt lat="36.826465" lon="-3.607164">
        <ele>813.608</ele>
        <time>2022-12-10T08:40:56Z</time>
      </trkpt>
      <trkpt lat="36.826415" lon="-3.607175">
        <ele>815.609</ele>
        <time>2022-12-10T08:41:02Z</time>
      </trkpt>
      <trkpt lat="36.826365" lon="-3.607185">
        <ele>817.966</ele>
        <time>2022-12-10T08:41:07Z</time>
      </trkpt>
      <trkpt lat="36.826354" lon="-3.607164">
        <ele>818.977</ele>
        <time>2022-12-10T08:41:13Z</time>
      </trkpt>
      <trkpt lat="36.826400" lon="-3.607125">
        <ele>816.986</ele>
        <time>2022-12-10T08:41:25Z</time>
      </trkpt>
      <trkpt lat="36.826442" lon="-3.607109">
        <ele>815.445</ele>
        <time>2022-12-10T08:41:29Z</time>
      </trkpt>
      <trkpt lat="36.826461" lon="-3.607085">
        <ele>815.027</ele>
        <time>2022-12-10T08:41:32Z</time>
      </trkpt>
      <trkpt lat="36.826458" lon="-3.607073">
        <ele>815.393</ele>
        <time>2022-12-10T08:41:34Z</time>
      </trkpt>
      <trkpt lat="36.826444" lon="-3.607068">
        <ele>816.074</ele>
        <time>2022-12-10T08:41:36Z</time>
      </trkpt>
      <trkpt lat="36.826439" lon="-3.607033">
        <ele>816.757</ele>
        <time>2022-12-10T08:41:44Z</time>
      </trkpt>
      <trkpt lat="36.826357" lon="-3.607033">
        <ele>820.817</ele>
        <time>2022-12-10T08:41:51Z</time>
      </trkpt>
      <trkpt lat="36.826332" lon="-3.607036">
        <ele>822.496</ele>
        <time>2022-12-10T08:41:53Z</time>
      </trkpt>
      <trkpt lat="36.826279" lon="-3.607030">
        <ele>826.131</ele>
        <time>2022-12-10T08:41:58Z</time>
      </trkpt>
      <trkpt lat="36.826271" lon="-3.607022">
        <ele>826.824</ele>
        <time>2022-12-10T08:41:59Z</time>
      </trkpt>
      <trkpt lat="36.826260" lon="-3.607018">
        <ele>827.609</ele>
        <time>2022-12-10T08:42:01Z</time>
      </trkpt>
      <trkpt lat="36.826259" lon="-3.607008">
        <ele>827.970</ele>
        <time>2022-12-10T08:42:03Z</time>
      </trkpt>
      <trkpt lat="36.826267" lon="-3.606979">
        <ele>828.081</ele>
        <time>2022-12-10T08:42:07Z</time>
      </trkpt>
      <trkpt lat="36.826295" lon="-3.606947">
        <ele>826.770</ele>
        <time>2022-12-10T08:42:12Z</time>
      </trkpt>
      <trkpt lat="36.826313" lon="-3.606910">
        <ele>826.689</ele>
        <time>2022-12-10T08:42:17Z</time>
      </trkpt>
      <trkpt lat="36.826345" lon="-3.606881">
        <ele>825.341</ele>
        <time>2022-12-10T08:42:23Z</time>
      </trkpt>
      <trkpt lat="36.826401" lon="-3.606870">
        <ele>822.187</ele>
        <time>2022-12-10T08:42:28Z</time>
      </trkpt>
      <trkpt lat="36.826426" lon="-3.606844">
        <ele>821.988</ele>
        <time>2022-12-10T08:42:32Z</time>
      </trkpt>
      <trkpt lat="36.826432" lon="-3.606839">
        <ele>821.761</ele>
        <time>2022-12-10T08:42:33Z</time>
      </trkpt>
      <trkpt lat="36.826394" lon="-3.606811">
        <ele>824.541</ele>
        <time>2022-12-10T08:42:48Z</time>
      </trkpt>
      <trkpt lat="36.826458" lon="-3.606780">
        <ele>822.399</ele>
        <time>2022-12-10T08:42:56Z</time>
      </trkpt>
      <trkpt lat="36.826487" lon="-3.606756">
        <ele>821.507</ele>
        <time>2022-12-10T08:43:00Z</time>
      </trkpt>
      <trkpt lat="36.826512" lon="-3.606732">
        <ele>820.727</ele>
        <time>2022-12-10T08:43:04Z</time>
      </trkpt>
      <trkpt lat="36.826515" lon="-3.606726">
        <ele>820.709</ele>
        <time>2022-12-10T08:43:05Z</time>
      </trkpt>
      <trkpt lat="36.826514" lon="-3.606703">
        <ele>821.470</ele>
        <time>2022-12-10T08:43:09Z</time>
      </trkpt>
      <trkpt lat="36.826463" lon="-3.606690">
        <ele>824.891</ele>
        <time>2022-12-10T08:43:15Z</time>
      </trkpt>
      <trkpt lat="36.826454" lon="-3.606690">
        <ele>825.380</ele>
        <time>2022-12-10T08:43:16Z</time>
      </trkpt>
      <trkpt lat="36.826427" lon="-3.606682">
        <ele>827.239</ele>
        <time>2022-12-10T08:43:19Z</time>
      </trkpt>
      <trkpt lat="36.826422" lon="-3.606681">
        <ele>827.561</ele>
        <time>2022-12-10T08:43:21Z</time>
      </trkpt>
      <trkpt lat="36.826397" lon="-3.606668">
        <ele>829.517</ele>
        <time>2022-12-10T08:43:30Z</time>
      </trkpt>
      <trkpt lat="36.826440" lon="-3.606632">
        <ele>827.138</ele>
        <time>2022-12-10T08:43:36Z</time>
      </trkpt>
      <trkpt lat="36.826461" lon="-3.606592">
        <ele>826.121</ele>
        <time>2022-12-10T08:43:40Z</time>
      </trkpt>
      <trkpt lat="36.826468" lon="-3.606584">
        <ele>825.851</ele>
        <time>2022-12-10T08:43:41Z</time>
      </trkpt>
      <trkpt lat="36.826474" lon="-3.606576">
        <ele>825.471</ele>
        <time>2022-12-10T08:43:42Z</time>
      </trkpt>
      <trkpt lat="36.826485" lon="-3.606557">
        <ele>824.941</ele>
        <time>2022-12-10T08:43:45Z</time>
      </trkpt>
      <trkpt lat="36.826452" lon="-3.606498">
        <ele>827.415</ele>
        <time>2022-12-10T08:43:58Z</time>
      </trkpt>
      <trkpt lat="36.826438" lon="-3.606432">
        <ele>828.709</ele>
        <time>2022-12-10T08:44:06Z</time>
      </trkpt>
      <trkpt lat="36.826426" lon="-3.606387">
        <ele>829.888</ele>
        <time>2022-12-10T08:44:11Z</time>
      </trkpt>
      <trkpt lat="36.826398" lon="-3.606352">
        <ele>832.079</ele>
        <time>2022-12-10T08:44:16Z</time>
      </trkpt>
      <trkpt lat="36.826384" lon="-3.606331">
        <ele>833.218</ele>
        <time>2022-12-10T08:44:22Z</time>
      </trkpt>
      <trkpt lat="36.826328" lon="-3.606312">
        <ele>837.287</ele>
        <time>2022-12-10T08:44:30Z</time>
      </trkpt>
      <trkpt lat="36.826312" lon="-3.606332">
        <ele>838.049</ele>
        <time>2022-12-10T08:44:34Z</time>
      </trkpt>
      <trkpt lat="36.826291" lon="-3.606350">
        <ele>839.225</ele>
        <time>2022-12-10T08:44:38Z</time>
      </trkpt>
      <trkpt lat="36.826263" lon="-3.606381">
        <ele>840.716</ele>
        <time>2022-12-10T08:44:43Z</time>
      </trkpt>
      <trkpt lat="36.826232" lon="-3.606403">
        <ele>842.619</ele>
        <time>2022-12-10T08:44:48Z</time>
      </trkpt>
      <trkpt lat="36.826203" lon="-3.606418">
        <ele>844.469</ele>
        <time>2022-12-10T08:44:53Z</time>
      </trkpt>
      <trkpt lat="36.826167" lon="-3.606451">
        <ele>846.435</ele>
        <time>2022-12-10T08:44:58Z</time>
      </trkpt>
      <trkpt lat="36.826158" lon="-3.606547">
        <ele>845.786</ele>
        <time>2022-12-10T08:45:30Z</time>
      </trkpt>
      <trkpt lat="36.826167" lon="-3.606546">
        <ele>845.114</ele>
        <time>2022-12-10T08:45:33Z</time>
      </trkpt>
      <trkpt lat="36.826089" lon="-3.606581">
        <ele>849.209</ele>
        <time>2022-12-10T08:45:54Z</time>
      </trkpt>
      <trkpt lat="36.826031" lon="-3.606608">
        <ele>851.334</ele>
        <time>2022-12-10T08:46:00Z</time>
      </trkpt>
      <trkpt lat="36.825955" lon="-3.606658">
        <ele>853.965</ele>
        <time>2022-12-10T08:46:08Z</time>
      </trkpt>
      <trkpt lat="36.825890" lon="-3.606695">
        <ele>855.954</ele>
        <time>2022-12-10T08:46:14Z</time>
      </trkpt>
      <trkpt lat="36.825825" lon="-3.606726">
        <ele>858.093</ele>
        <time>2022-12-10T08:46:20Z</time>
      </trkpt>
      <trkpt lat="36.825771" lon="-3.606755">
        <ele>859.325</ele>
        <time>2022-12-10T08:46:25Z</time>
      </trkpt>
      <trkpt lat="36.825700" lon="-3.606790">
        <ele>861.181</ele>
        <time>2022-12-10T08:46:31Z</time>
      </trkpt>
      <trkpt lat="36.825673" lon="-3.606808">
        <ele>861.722</ele>
        <time>2022-12-10T08:46:34Z</time>
      </trkpt>
      <trkpt lat="36.825646" lon="-3.606813">
        <ele>862.655</ele>
        <time>2022-12-10T08:46:37Z</time>
      </trkpt>
      <trkpt lat="36.825637" lon="-3.606818">
        <ele>862.915</ele>
        <time>2022-12-10T08:46:38Z</time>
      </trkpt>
      <trkpt lat="36.825629" lon="-3.606815">
        <ele>863.292</ele>
        <time>2022-12-10T08:46:39Z</time>
      </trkpt>
      <trkpt lat="36.825588" lon="-3.606791">
        <ele>865.173</ele>
        <time>2022-12-10T08:46:43Z</time>
      </trkpt>
      <trkpt lat="36.825532" lon="-3.606754">
        <ele>867.820</ele>
        <time>2022-12-10T08:46:49Z</time>
      </trkpt>
      <trkpt lat="36.825500" lon="-3.606730">
        <ele>869.709</ele>
        <time>2022-12-10T08:46:53Z</time>
      </trkpt>
      <trkpt lat="36.825495" lon="-3.606722">
        <ele>870.060</ele>
        <time>2022-12-10T08:46:54Z</time>
      </trkpt>
      <trkpt lat="36.825492" lon="-3.606718">
        <ele>870.291</ele>
        <time>2022-12-10T08:46:55Z</time>
      </trkpt>
      <trkpt lat="36.825486" lon="-3.606707">
        <ele>870.760</ele>
        <time>2022-12-10T08:46:57Z</time>
      </trkpt>
      <trkpt lat="36.825489" lon="-3.606698">
        <ele>870.779</ele>
        <time>2022-12-10T08:46:59Z</time>
      </trkpt>
      <trkpt lat="36.825505" lon="-3.606711">
        <ele>869.781</ele>
        <time>2022-12-10T08:47:03Z</time>
      </trkpt>
      <trkpt lat="36.825617" lon="-3.606744">
        <ele>864.897</ele>
        <time>2022-12-10T08:47:40Z</time>
      </trkpt>
      <trkpt lat="36.825652" lon="-3.606714">
        <ele>864.128</ele>
        <time>2022-12-10T08:47:43Z</time>
      </trkpt>
      <trkpt lat="36.825726" lon="-3.606607">
        <ele>863.341</ele>
        <time>2022-12-10T08:47:51Z</time>
      </trkpt>
      <trkpt lat="36.825744" lon="-3.606579">
        <ele>863.251</ele>
        <time>2022-12-10T08:47:53Z</time>
      </trkpt>
      <trkpt lat="36.825771" lon="-3.606541">
        <ele>862.866</ele>
        <time>2022-12-10T08:47:56Z</time>
      </trkpt>
      <trkpt lat="36.825825" lon="-3.606389">
        <ele>863.329</ele>
        <time>2022-12-10T08:48:05Z</time>
      </trkpt>
      <trkpt lat="36.825827" lon="-3.606212">
        <ele>865.821</ele>
        <time>2022-12-10T08:48:16Z</time>
      </trkpt>
      <trkpt lat="36.825780" lon="-3.606079">
        <ele>869.309</ele>
        <time>2022-12-10T08:48:24Z</time>
      </trkpt>
      <trkpt lat="36.825817" lon="-3.605991">
        <ele>869.767</ele>
        <time>2022-12-10T08:48:30Z</time>
      </trkpt>
      <trkpt lat="36.825917" lon="-3.605791">
        <ele>869.128</ele>
        <time>2022-12-10T08:48:43Z</time>
      </trkpt>
      <trkpt lat="36.825972" lon="-3.605574">
        <ele>870.277</ele>
        <time>2022-12-10T08:48:56Z</time>
      </trkpt>
      <trkpt lat="36.825978" lon="-3.605556">
        <ele>870.266</ele>
        <time>2022-12-10T08:48:57Z</time>
      </trkpt>
      <trkpt lat="36.825994" lon="-3.605448">
        <ele>870.968</ele>
        <time>2022-12-10T08:49:03Z</time>
      </trkpt>
      <trkpt lat="36.826001" lon="-3.605414">
        <ele>871.014</ele>
        <time>2022-12-10T08:49:05Z</time>
      </trkpt>
      <trkpt lat="36.826023" lon="-3.605250">
        <ele>871.785</ele>
        <time>2022-12-10T08:49:14Z</time>
      </trkpt>
      <trkpt lat="36.826052" lon="-3.605181">
        <ele>870.498</ele>
        <time>2022-12-10T08:49:18Z</time>
      </trkpt>
      <trkpt lat="36.826082" lon="-3.605126">
        <ele>869.138</ele>
        <time>2022-12-10T08:49:21Z</time>
      </trkpt>
      <trkpt lat="36.826088" lon="-3.604966">
        <ele>868.898</ele>
        <time>2022-12-10T08:49:30Z</time>
      </trkpt>
      <trkpt lat="36.825961" lon="-3.604801">
        <ele>872.215</ele>
        <time>2022-12-10T08:49:41Z</time>
      </trkpt>
      <trkpt lat="36.825789" lon="-3.604692">
        <ele>875.926</ele>
        <time>2022-12-10T08:49:53Z</time>
      </trkpt>
      <trkpt lat="36.825743" lon="-3.604664">
        <ele>876.809</ele>
        <time>2022-12-10T08:49:57Z</time>
      </trkpt>
      <trkpt lat="36.825647" lon="-3.604609">
        <ele>878.610</ele>
        <time>2022-12-10T08:50:04Z</time>
      </trkpt>
      <trkpt lat="36.825615" lon="-3.604589">
        <ele>879.181</ele>
        <time>2022-12-10T08:50:06Z</time>
      </trkpt>
      <trkpt lat="36.825493" lon="-3.604516">
        <ele>881.670</ele>
        <time>2022-12-10T08:50:16Z</time>
      </trkpt>
      <trkpt lat="36.825471" lon="-3.604506">
        <ele>882.229</ele>
        <time>2022-12-10T08:50:18Z</time>
      </trkpt>
      <trkpt lat="36.825436" lon="-3.604490">
        <ele>883.241</ele>
        <time>2022-12-10T08:50:21Z</time>
      </trkpt>
      <trkpt lat="36.825355" lon="-3.604423">
        <ele>884.957</ele>
        <time>2022-12-10T08:50:28Z</time>
      </trkpt>
      <trkpt lat="36.825322" lon="-3.604269">
        <ele>883.588</ele>
        <time>2022-12-10T08:50:39Z</time>
      </trkpt>
      <trkpt lat="36.825298" lon="-3.604129">
        <ele>882.061</ele>
        <time>2022-12-10T08:50:47Z</time>
      </trkpt>
      <trkpt lat="36.825228" lon="-3.604001">
        <ele>883.471</ele>
        <time>2022-12-10T08:50:56Z</time>
      </trkpt>
      <trkpt lat="36.825187" lon="-3.603927">
        <ele>884.416</ele>
        <time>2022-12-10T08:51:01Z</time>
      </trkpt>
      <trkpt lat="36.825164" lon="-3.603849">
        <ele>884.776</ele>
        <time>2022-12-10T08:51:06Z</time>
      </trkpt>
      <trkpt lat="36.825126" lon="-3.603761">
        <ele>885.613</ele>
        <time>2022-12-10T08:51:12Z</time>
      </trkpt>
      <trkpt lat="36.825089" lon="-3.603690">
        <ele>886.509</ele>
        <time>2022-12-10T08:51:17Z</time>
      </trkpt>
      <trkpt lat="36.825035" lon="-3.603596">
        <ele>887.532</ele>
        <time>2022-12-10T08:51:24Z</time>
      </trkpt>
      <trkpt lat="36.824991" lon="-3.603529">
        <ele>888.163</ele>
        <time>2022-12-10T08:51:30Z</time>
      </trkpt>
      <trkpt lat="36.824966" lon="-3.603489">
        <ele>888.322</ele>
        <time>2022-12-10T08:51:34Z</time>
      </trkpt>
      <trkpt lat="36.824930" lon="-3.603454">
        <ele>888.851</ele>
        <time>2022-12-10T08:51:38Z</time>
      </trkpt>
      <trkpt lat="36.824894" lon="-3.603434">
        <ele>889.443</ele>
        <time>2022-12-10T08:51:42Z</time>
      </trkpt>
      <trkpt lat="36.824879" lon="-3.603417">
        <ele>889.569</ele>
        <time>2022-12-10T08:51:44Z</time>
      </trkpt>
      <trkpt lat="36.824858" lon="-3.603409">
        <ele>889.920</ele>
        <time>2022-12-10T08:51:46Z</time>
      </trkpt>
      <trkpt lat="36.824801" lon="-3.603384">
        <ele>890.783</ele>
        <time>2022-12-10T08:51:51Z</time>
      </trkpt>
      <trkpt lat="36.824747" lon="-3.603394">
        <ele>892.373</ele>
        <time>2022-12-10T08:51:56Z</time>
      </trkpt>
      <trkpt lat="36.824727" lon="-3.603415">
        <ele>893.598</ele>
        <time>2022-12-10T08:51:59Z</time>
      </trkpt>
      <trkpt lat="36.824716" lon="-3.603450">
        <ele>895.015</ele>
        <time>2022-12-10T08:52:02Z</time>
      </trkpt>
      <trkpt lat="36.824719" lon="-3.603466">
        <ele>895.426</ele>
        <time>2022-12-10T08:52:03Z</time>
      </trkpt>
      <trkpt lat="36.824724" lon="-3.603532">
        <ele>897.409</ele>
        <time>2022-12-10T08:52:07Z</time>
      </trkpt>
      <trkpt lat="36.824727" lon="-3.603597">
        <ele>899.440</ele>
        <time>2022-12-10T08:52:11Z</time>
      </trkpt>
      <trkpt lat="36.824737" lon="-3.603632">
        <ele>899.871</ele>
        <time>2022-12-10T08:52:14Z</time>
      </trkpt>
      <trkpt lat="36.824759" lon="-3.603677">
        <ele>899.760</ele>
        <time>2022-12-10T08:52:18Z</time>
      </trkpt>
      <trkpt lat="36.824787" lon="-3.603748">
        <ele>899.729</ele>
        <time>2022-12-10T08:52:23Z</time>
      </trkpt>
      <trkpt lat="36.824792" lon="-3.603797">
        <ele>900.271</ele>
        <time>2022-12-10T08:52:27Z</time>
      </trkpt>
      <trkpt lat="36.824787" lon="-3.603809">
        <ele>900.797</ele>
        <time>2022-12-10T08:52:28Z</time>
      </trkpt>
      <trkpt lat="36.824783" lon="-3.603856">
        <ele>901.688</ele>
        <time>2022-12-10T08:52:32Z</time>
      </trkpt>
      <trkpt lat="36.824792" lon="-3.603896">
        <ele>901.871</ele>
        <time>2022-12-10T08:52:35Z</time>
      </trkpt>
      <trkpt lat="36.824790" lon="-3.603930">
        <ele>902.481</ele>
        <time>2022-12-10T08:52:37Z</time>
      </trkpt>
      <trkpt lat="36.824794" lon="-3.603997">
        <ele>903.242</ele>
        <time>2022-12-10T08:52:42Z</time>
      </trkpt>
      <trkpt lat="36.824783" lon="-3.604052">
        <ele>904.522</ele>
        <time>2022-12-10T08:52:46Z</time>
      </trkpt>
      <trkpt lat="36.824773" lon="-3.604102">
        <ele>905.714</ele>
        <time>2022-12-10T08:52:50Z</time>
      </trkpt>
      <trkpt lat="36.824765" lon="-3.604116">
        <ele>906.309</ele>
        <time>2022-12-10T08:52:52Z</time>
      </trkpt>
      <trkpt lat="36.824757" lon="-3.604135">
        <ele>906.915</ele>
        <time>2022-12-10T08:52:54Z</time>
      </trkpt>
      <trkpt lat="36.824733" lon="-3.604168">
        <ele>908.546</ele>
        <time>2022-12-10T08:52:58Z</time>
      </trkpt>
      <trkpt lat="36.824725" lon="-3.604171">
        <ele>908.915</ele>
        <time>2022-12-10T08:52:59Z</time>
      </trkpt>
      <trkpt lat="36.824681" lon="-3.604167">
        <ele>910.664</ele>
        <time>2022-12-10T08:53:03Z</time>
      </trkpt>
      <trkpt lat="36.824644" lon="-3.604136">
        <ele>911.616</ele>
        <time>2022-12-10T08:53:07Z</time>
      </trkpt>
      <trkpt lat="36.824637" lon="-3.604129">
        <ele>911.822</ele>
        <time>2022-12-10T08:53:08Z</time>
      </trkpt>
      <trkpt lat="36.824629" lon="-3.604118">
        <ele>911.953</ele>
        <time>2022-12-10T08:53:09Z</time>
      </trkpt>
      <trkpt lat="36.824607" lon="-3.604089">
        <ele>912.386</ele>
        <time>2022-12-10T08:53:12Z</time>
      </trkpt>
      <trkpt lat="36.824570" lon="-3.604037">
        <ele>912.926</ele>
        <time>2022-12-10T08:53:17Z</time>
      </trkpt>
      <trkpt lat="36.824523" lon="-3.603978">
        <ele>913.744</ele>
        <time>2022-12-10T08:53:24Z</time>
      </trkpt>
      <trkpt lat="36.824465" lon="-3.603906">
        <ele>914.605</ele>
        <time>2022-12-10T08:53:31Z</time>
      </trkpt>
      <trkpt lat="36.824408" lon="-3.603858">
        <ele>914.915</ele>
        <time>2022-12-10T08:53:37Z</time>
      </trkpt>
      <trkpt lat="36.824393" lon="-3.603846">
        <ele>914.909</ele>
        <time>2022-12-10T08:53:39Z</time>
      </trkpt>
      <trkpt lat="36.824373" lon="-3.603830">
        <ele>914.965</ele>
        <time>2022-12-10T08:53:41Z</time>
      </trkpt>
      <trkpt lat="36.824312" lon="-3.603805">
        <ele>915.446</ele>
        <time>2022-12-10T08:53:46Z</time>
      </trkpt>
      <trkpt lat="36.824226" lon="-3.603809">
        <ele>916.935</ele>
        <time>2022-12-10T08:53:53Z</time>
      </trkpt>
      <trkpt lat="36.824218" lon="-3.603815">
        <ele>917.174</ele>
        <time>2022-12-10T08:53:54Z</time>
      </trkpt>
      <trkpt lat="36.824198" lon="-3.603855">
        <ele>918.026</ele>
        <time>2022-12-10T08:53:58Z</time>
      </trkpt>
      <trkpt lat="36.824198" lon="-3.603869">
        <ele>918.282</ele>
        <time>2022-12-10T08:53:59Z</time>
      </trkpt>
      <trkpt lat="36.824219" lon="-3.603926">
        <ele>919.053</ele>
        <time>2022-12-10T08:54:02Z</time>
      </trkpt>
      <trkpt lat="36.824227" lon="-3.603946">
        <ele>919.386</ele>
        <time>2022-12-10T08:54:03Z</time>
      </trkpt>
      <trkpt lat="36.824250" lon="-3.603990">
        <ele>919.926</ele>
        <time>2022-12-10T08:54:06Z</time>
      </trkpt>
      <trkpt lat="36.824259" lon="-3.604028">
        <ele>920.592</ele>
        <time>2022-12-10T08:54:08Z</time>
      </trkpt>
      <trkpt lat="36.824276" lon="-3.604086">
        <ele>921.473</ele>
        <time>2022-12-10T08:54:12Z</time>
      </trkpt>
      <trkpt lat="36.824289" lon="-3.604122">
        <ele>921.920</ele>
        <time>2022-12-10T08:54:15Z</time>
      </trkpt>
      <trkpt lat="36.824290" lon="-3.604151">
        <ele>922.509</ele>
        <time>2022-12-10T08:54:18Z</time>
      </trkpt>
      <trkpt lat="36.824286" lon="-3.604158">
        <ele>922.730</ele>
        <time>2022-12-10T08:54:19Z</time>
      </trkpt>
      <trkpt lat="36.824247" lon="-3.604187">
        <ele>923.951</ele>
        <time>2022-12-10T08:54:23Z</time>
      </trkpt>
      <trkpt lat="36.824198" lon="-3.604197">
        <ele>925.190</ele>
        <time>2022-12-10T08:54:27Z</time>
      </trkpt>
      <trkpt lat="36.824140" lon="-3.604177">
        <ele>925.959</ele>
        <time>2022-12-10T08:54:32Z</time>
      </trkpt>
      <trkpt lat="36.824096" lon="-3.604161">
        <ele>926.711</ele>
        <time>2022-12-10T08:54:36Z</time>
      </trkpt>
      <trkpt lat="36.824031" lon="-3.604172">
        <ele>928.587</ele>
        <time>2022-12-10T08:54:42Z</time>
      </trkpt>
      <trkpt lat="36.823931" lon="-3.604187">
        <ele>931.368</ele>
        <time>2022-12-10T08:54:51Z</time>
      </trkpt>
      <trkpt lat="36.823925" lon="-3.604185">
        <ele>931.411</ele>
        <time>2022-12-10T08:54:52Z</time>
      </trkpt>
      <trkpt lat="36.823898" lon="-3.604157">
        <ele>931.621</ele>
        <time>2022-12-10T08:54:56Z</time>
      </trkpt>
      <trkpt lat="36.823892" lon="-3.604152">
        <ele>931.655</ele>
        <time>2022-12-10T08:54:57Z</time>
      </trkpt>
      <trkpt lat="36.823882" lon="-3.604131">
        <ele>931.507</ele>
        <time>2022-12-10T08:54:59Z</time>
      </trkpt>
      <trkpt lat="36.823861" lon="-3.604097">
        <ele>931.617</ele>
        <time>2022-12-10T08:55:02Z</time>
      </trkpt>
      <trkpt lat="36.823797" lon="-3.604062">
        <ele>933.509</ele>
        <time>2022-12-10T08:55:08Z</time>
      </trkpt>
      <trkpt lat="36.823791" lon="-3.604057">
        <ele>933.666</ele>
        <time>2022-12-10T08:55:10Z</time>
      </trkpt>
      <trkpt lat="36.823796" lon="-3.604057">
        <ele>933.497</ele>
        <time>2022-12-10T08:55:11Z</time>
      </trkpt>
      <trkpt lat="36.823792" lon="-3.604043">
        <ele>933.226</ele>
        <time>2022-12-10T08:56:01Z</time>
      </trkpt>
      <trkpt lat="36.823653" lon="-3.603927">
        <ele>935.535</ele>
        <time>2022-12-10T08:56:12Z</time>
      </trkpt>
      <trkpt lat="36.823585" lon="-3.603869">
        <ele>936.297</ele>
        <time>2022-12-10T08:56:18Z</time>
      </trkpt>
      <trkpt lat="36.823505" lon="-3.603832">
        <ele>937.263</ele>
        <time>2022-12-10T08:56:24Z</time>
      </trkpt>
      <trkpt lat="36.823443" lon="-3.603807">
        <ele>938.244</ele>
        <time>2022-12-10T08:56:29Z</time>
      </trkpt>
      <trkpt lat="36.823269" lon="-3.603720">
        <ele>939.247</ele>
        <time>2022-12-10T08:56:42Z</time>
      </trkpt>
      <trkpt lat="36.823110" lon="-3.603587">
        <ele>938.047</ele>
        <time>2022-12-10T08:56:55Z</time>
      </trkpt>
      <trkpt lat="36.822929" lon="-3.603547">
        <ele>938.432</ele>
        <time>2022-12-10T08:57:07Z</time>
      </trkpt>
      <trkpt lat="36.822750" lon="-3.603510">
        <ele>938.392</ele>
        <time>2022-12-10T08:57:18Z</time>
      </trkpt>
      <trkpt lat="36.822734" lon="-3.603514">
        <ele>938.211</ele>
        <time>2022-12-10T08:57:19Z</time>
      </trkpt>
      <trkpt lat="36.822674" lon="-3.603562">
        <ele>937.909</ele>
        <time>2022-12-10T08:57:23Z</time>
      </trkpt>
      <trkpt lat="36.822601" lon="-3.603607">
        <ele>937.754</ele>
        <time>2022-12-10T08:57:29Z</time>
      </trkpt>
      <trkpt lat="36.822421" lon="-3.603657">
        <ele>937.795</ele>
        <time>2022-12-10T08:57:40Z</time>
      </trkpt>
      <trkpt lat="36.822405" lon="-3.603658">
        <ele>937.784</ele>
        <time>2022-12-10T08:57:41Z</time>
      </trkpt>
      <trkpt lat="36.822224" lon="-3.603607">
        <ele>935.993</ele>
        <time>2022-12-10T08:57:54Z</time>
      </trkpt>
      <trkpt lat="36.822136" lon="-3.603575">
        <ele>936.365</ele>
        <time>2022-12-10T08:58:00Z</time>
      </trkpt>
      <trkpt lat="36.821953" lon="-3.603510">
        <ele>937.161</ele>
        <time>2022-12-10T08:58:12Z</time>
      </trkpt>
      <trkpt lat="36.821866" lon="-3.603493">
        <ele>938.742</ele>
        <time>2022-12-10T08:58:18Z</time>
      </trkpt>
      <trkpt lat="36.821721" lon="-3.603367">
        <ele>940.155</ele>
        <time>2022-12-10T08:58:30Z</time>
      </trkpt>
      <trkpt lat="36.821701" lon="-3.603146">
        <ele>935.685</ele>
        <time>2022-12-10T08:58:44Z</time>
      </trkpt>
      <trkpt lat="36.821699" lon="-3.603129">
        <ele>935.248</ele>
        <time>2022-12-10T08:58:45Z</time>
      </trkpt>
      <trkpt lat="36.821699" lon="-3.603021">
        <ele>932.861</ele>
        <time>2022-12-10T08:58:50Z</time>
      </trkpt>
      <trkpt lat="36.821694" lon="-3.602946">
        <ele>931.617</ele>
        <time>2022-12-10T08:58:54Z</time>
      </trkpt>
      <trkpt lat="36.821674" lon="-3.602865">
        <ele>930.509</ele>
        <time>2022-12-10T08:58:58Z</time>
      </trkpt>
      <trkpt lat="36.821647" lon="-3.602754">
        <ele>929.245</ele>
        <time>2022-12-10T08:59:05Z</time>
      </trkpt>
      <trkpt lat="36.821643" lon="-3.602744">
        <ele>929.196</ele>
        <time>2022-12-10T08:59:06Z</time>
      </trkpt>
      <trkpt lat="36.821638" lon="-3.602712">
        <ele>928.915</ele>
        <time>2022-12-10T08:59:08Z</time>
      </trkpt>
      <trkpt lat="36.821623" lon="-3.602658">
        <ele>928.584</ele>
        <time>2022-12-10T08:59:11Z</time>
      </trkpt>
      <trkpt lat="36.821614" lon="-3.602638">
        <ele>928.476</ele>
        <time>2022-12-10T08:59:12Z</time>
      </trkpt>
      <trkpt lat="36.821503" lon="-3.602451">
        <ele>928.012</ele>
        <time>2022-12-10T08:59:23Z</time>
      </trkpt>
      <trkpt lat="36.821459" lon="-3.602379">
        <ele>928.123</ele>
        <time>2022-12-10T08:59:28Z</time>
      </trkpt>
      <trkpt lat="36.821356" lon="-3.602180">
        <ele>927.936</ele>
        <time>2022-12-10T08:59:42Z</time>
      </trkpt>
      <trkpt lat="36.821248" lon="-3.602019">
        <ele>928.146</ele>
        <time>2022-12-10T08:59:51Z</time>
      </trkpt>
      <trkpt lat="36.821176" lon="-3.601906">
        <ele>928.114</ele>
        <time>2022-12-10T08:59:55Z</time>
      </trkpt>
      <trkpt lat="36.821072" lon="-3.601703">
        <ele>926.554</ele>
        <time>2022-12-10T09:00:01Z</time>
      </trkpt>
      <trkpt lat="36.821050" lon="-3.601674">
        <ele>926.409</ele>
        <time>2022-12-10T09:00:02Z</time>
      </trkpt>
      <trkpt lat="36.820955" lon="-3.601559">
        <ele>925.709</ele>
        <time>2022-12-10T09:00:06Z</time>
      </trkpt>
      <trkpt lat="36.820845" lon="-3.601485">
        <ele>926.892</ele>
        <time>2022-12-10T09:00:10Z</time>
      </trkpt>
      <trkpt lat="36.820826" lon="-3.601475">
        <ele>927.023</ele>
        <time>2022-12-10T09:00:11Z</time>
      </trkpt>
      <trkpt lat="36.820785" lon="-3.601258">
        <ele>922.652</ele>
        <time>2022-12-10T09:00:18Z</time>
      </trkpt>
      <trkpt lat="36.820704" lon="-3.601022">
        <ele>917.671</ele>
        <time>2022-12-10T09:00:25Z</time>
      </trkpt>
      <trkpt lat="36.820635" lon="-3.600942">
        <ele>916.883</ele>
        <time>2022-12-10T09:00:28Z</time>
      </trkpt>
      <trkpt lat="36.820507" lon="-3.600906">
        <ele>917.429</ele>
        <time>2022-12-10T09:00:32Z</time>
      </trkpt>
      <trkpt lat="36.820417" lon="-3.600895">
        <ele>916.290</ele>
        <time>2022-12-10T09:00:35Z</time>
      </trkpt>
      <trkpt lat="36.820323" lon="-3.600876">
        <ele>914.713</ele>
        <time>2022-12-10T09:00:38Z</time>
      </trkpt>
      <trkpt lat="36.820259" lon="-3.600866">
        <ele>913.743</ele>
        <time>2022-12-10T09:00:40Z</time>
      </trkpt>
      <trkpt lat="36.820197" lon="-3.600859">
        <ele>912.912</ele>
        <time>2022-12-10T09:00:42Z</time>
      </trkpt>
      <trkpt lat="36.820112" lon="-3.600870">
        <ele>912.332</ele>
        <time>2022-12-10T09:00:45Z</time>
      </trkpt>
      <trkpt lat="36.820069" lon="-3.600883">
        <ele>912.305</ele>
        <time>2022-12-10T09:00:47Z</time>
      </trkpt>
      <trkpt lat="36.820027" lon="-3.600861">
        <ele>911.209</ele>
        <time>2022-12-10T09:00:49Z</time>
      </trkpt>
      <trkpt lat="36.819983" lon="-3.600828">
        <ele>909.972</ele>
        <time>2022-12-10T09:00:53Z</time>
      </trkpt>
      <trkpt lat="36.819974" lon="-3.600851">
        <ele>910.743</ele>
        <time>2022-12-10T09:00:55Z</time>
      </trkpt>
      <trkpt lat="36.819968" lon="-3.600870">
        <ele>911.362</ele>
        <time>2022-12-10T09:00:57Z</time>
      </trkpt>
      <trkpt lat="36.819985" lon="-3.600915">
        <ele>912.751</ele>
        <time>2022-12-10T09:01:14Z</time>
      </trkpt>
      <trkpt lat="36.819981" lon="-3.600903">
        <ele>912.323</ele>
        <time>2022-12-10T09:03:11Z</time>
      </trkpt>
      <trkpt lat="36.819936" lon="-3.600863">
        <ele>911.289</ele>
        <time>2022-12-10T09:03:15Z</time>
      </trkpt>
      <trkpt lat="36.819914" lon="-3.600830">
        <ele>910.220</ele>
        <time>2022-12-10T09:03:18Z</time>
      </trkpt>
      <trkpt lat="36.819914" lon="-3.600819">
        <ele>909.863</ele>
        <time>2022-12-10T09:03:20Z</time>
      </trkpt>
      <trkpt lat="36.819915" lon="-3.600824">
        <ele>910.023</ele>
        <time>2022-12-10T09:03:21Z</time>
      </trkpt>
      <trkpt lat="36.819882" lon="-3.600810">
        <ele>909.633</ele>
        <time>2022-12-10T09:03:40Z</time>
      </trkpt>
      <trkpt lat="36.819926" lon="-3.600863">
        <ele>911.323</ele>
        <time>2022-12-10T09:03:47Z</time>
      </trkpt>
      <trkpt lat="36.819935" lon="-3.600875">
        <ele>911.615</ele>
        <time>2022-12-10T09:03:49Z</time>
      </trkpt>
      <trkpt lat="36.819965" lon="-3.600913">
        <ele>912.709</ele>
        <time>2022-12-10T09:04:40Z</time>
      </trkpt>
      <trkpt lat="36.819937" lon="-3.600873">
        <ele>911.584</ele>
        <time>2022-12-10T09:05:56Z</time>
      </trkpt>
      <trkpt lat="36.819889" lon="-3.600829">
        <ele>910.275</ele>
        <time>2022-12-10T09:06:08Z</time>
      </trkpt>
      <trkpt lat="36.819828" lon="-3.600705">
        <ele>905.534</ele>
        <time>2022-12-10T09:06:17Z</time>
      </trkpt>
      <trkpt lat="36.819816" lon="-3.600690">
        <ele>904.823</ele>
        <time>2022-12-10T09:06:18Z</time>
      </trkpt>
      <trkpt lat="36.819756" lon="-3.600636">
        <ele>902.185</ele>
        <time>2022-12-10T09:06:23Z</time>
      </trkpt>
      <trkpt lat="36.819670" lon="-3.600523">
        <ele>895.951</ele>
        <time>2022-12-10T09:06:32Z</time>
      </trkpt>
      <trkpt lat="36.819631" lon="-3.600512">
        <ele>895.012</ele>
        <time>2022-12-10T09:06:35Z</time>
      </trkpt>
      <trkpt lat="36.819558" lon="-3.600487">
        <ele>893.315</ele>
        <time>2022-12-10T09:06:40Z</time>
      </trkpt>
      <trkpt lat="36.819493" lon="-3.600476">
        <ele>892.355</ele>
        <time>2022-12-10T09:06:44Z</time>
      </trkpt>
      <trkpt lat="36.819420" lon="-3.600471">
        <ele>891.381</ele>
        <time>2022-12-10T09:06:49Z</time>
      </trkpt>
      <trkpt lat="36.819351" lon="-3.600468">
        <ele>889.861</ele>
        <time>2022-12-10T09:06:54Z</time>
      </trkpt>
      <trkpt lat="36.819337" lon="-3.600473">
        <ele>889.717</ele>
        <time>2022-12-10T09:06:55Z</time>
      </trkpt>
      <trkpt lat="36.819275" lon="-3.600470">
        <ele>888.409</ele>
        <time>2022-12-10T09:06:59Z</time>
      </trkpt>
      <trkpt lat="36.819234" lon="-3.600466">
        <ele>887.439</ele>
        <time>2022-12-10T09:07:03Z</time>
      </trkpt>
      <trkpt lat="36.819231" lon="-3.600476">
        <ele>887.820</ele>
        <time>2022-12-10T09:07:05Z</time>
      </trkpt>
      <trkpt lat="36.819239" lon="-3.600477">
        <ele>888.099</ele>
        <time>2022-12-10T09:07:11Z</time>
      </trkpt>
      <trkpt lat="36.819191" lon="-3.600440">
        <ele>885.578</ele>
        <time>2022-12-10T09:07:24Z</time>
      </trkpt>
      <trkpt lat="36.819223" lon="-3.600483">
        <ele>888.060</ele>
        <time>2022-12-10T09:07:29Z</time>
      </trkpt>
      <trkpt lat="36.819253" lon="-3.600491">
        <ele>888.916</ele>
        <time>2022-12-10T09:07:32Z</time>
      </trkpt>
      <trkpt lat="36.819269" lon="-3.600495">
        <ele>889.417</ele>
        <time>2022-12-10T09:07:35Z</time>
      </trkpt>
      <trkpt lat="36.819256" lon="-3.600483">
        <ele>888.620</ele>
        <time>2022-12-10T09:07:38Z</time>
      </trkpt>
      <trkpt lat="36.819236" lon="-3.600529">
        <ele>890.370</ele>
        <time>2022-12-10T09:07:43Z</time>
      </trkpt>
      <trkpt lat="36.819242" lon="-3.600597">
        <ele>893.571</ele>
        <time>2022-12-10T09:07:49Z</time>
      </trkpt>
      <trkpt lat="36.819245" lon="-3.600624">
        <ele>894.841</ele>
        <time>2022-12-10T09:07:53Z</time>
      </trkpt>
      <trkpt lat="36.819239" lon="-3.600640">
        <ele>895.415</ele>
        <time>2022-12-10T09:07:56Z</time>
      </trkpt>
      <trkpt lat="36.819236" lon="-3.600652">
        <ele>895.809</ele>
        <time>2022-12-10T09:07:58Z</time>
      </trkpt>
      <trkpt lat="36.819249" lon="-3.600655">
        <ele>896.298</ele>
        <time>2022-12-10T09:08:00Z</time>
      </trkpt>
      <trkpt lat="36.819271" lon="-3.600669">
        <ele>897.349</ele>
        <time>2022-12-10T09:08:02Z</time>
      </trkpt>
      <trkpt lat="36.819297" lon="-3.600651">
        <ele>897.038</ele>
        <time>2022-12-10T09:08:05Z</time>
      </trkpt>
      <trkpt lat="36.819328" lon="-3.600617">
        <ele>896.177</ele>
        <time>2022-12-10T09:08:09Z</time>
      </trkpt>
      <trkpt lat="36.819353" lon="-3.600598">
        <ele>895.899</ele>
        <time>2022-12-10T09:08:13Z</time>
      </trkpt>
      <trkpt lat="36.819359" lon="-3.600597">
        <ele>895.945</ele>
        <time>2022-12-10T09:08:14Z</time>
      </trkpt>
      <trkpt lat="36.819392" lon="-3.600609">
        <ele>897.126</ele>
        <time>2022-12-10T09:08:18Z</time>
      </trkpt>
      <trkpt lat="36.819418" lon="-3.600642">
        <ele>898.919</ele>
        <time>2022-12-10T09:08:22Z</time>
      </trkpt>
      <trkpt lat="36.819422" lon="-3.600650">
        <ele>899.389</ele>
        <time>2022-12-10T09:08:23Z</time>
      </trkpt>
      <trkpt lat="36.819431" lon="-3.600681">
        <ele>900.753</ele>
        <time>2022-12-10T09:08:26Z</time>
      </trkpt>
      <trkpt lat="36.819435" lon="-3.600708">
        <ele>901.904</ele>
        <time>2022-12-10T09:08:28Z</time>
      </trkpt>
      <trkpt lat="36.819444" lon="-3.600743">
        <ele>903.414</ele>
        <time>2022-12-10T09:08:32Z</time>
      </trkpt>
      <trkpt lat="36.819422" lon="-3.600757">
        <ele>903.609</ele>
        <time>2022-12-10T09:08:36Z</time>
      </trkpt>
      <trkpt lat="36.819403" lon="-3.600774">
        <ele>904.066</ele>
        <time>2022-12-10T09:08:40Z</time>
      </trkpt>
      <trkpt lat="36.819393" lon="-3.600782">
        <ele>904.277</ele>
        <time>2022-12-10T09:08:43Z</time>
      </trkpt>
      <trkpt lat="36.819391" lon="-3.600799">
        <ele>904.856</ele>
        <time>2022-12-10T09:08:45Z</time>
      </trkpt>
      <trkpt lat="36.819399" lon="-3.600825">
        <ele>906.095</ele>
        <time>2022-12-10T09:08:49Z</time>
      </trkpt>
      <trkpt lat="36.819384" lon="-3.600870">
        <ele>908.227</ele>
        <time>2022-12-10T09:08:53Z</time>
      </trkpt>
      <trkpt lat="36.819382" lon="-3.600877">
        <ele>908.693</ele>
        <time>2022-12-10T09:08:55Z</time>
      </trkpt>
      <trkpt lat="36.819381" lon="-3.600908">
        <ele>910.314</ele>
        <time>2022-12-10T09:08:59Z</time>
      </trkpt>
      <trkpt lat="36.819369" lon="-3.600939">
        <ele>911.957</ele>
        <time>2022-12-10T09:09:03Z</time>
      </trkpt>
      <trkpt lat="36.819336" lon="-3.600952">
        <ele>912.367</ele>
        <time>2022-12-10T09:09:07Z</time>
      </trkpt>
      <trkpt lat="36.819316" lon="-3.600980">
        <ele>913.892</ele>
        <time>2022-12-10T09:09:11Z</time>
      </trkpt>
      <trkpt lat="36.819290" lon="-3.600999">
        <ele>914.773</ele>
        <time>2022-12-10T09:09:15Z</time>
      </trkpt>
      <trkpt lat="36.819267" lon="-3.601026">
        <ele>916.220</ele>
        <time>2022-12-10T09:09:19Z</time>
      </trkpt>
      <trkpt lat="36.819268" lon="-3.601070">
        <ele>918.909</ele>
        <time>2022-12-10T09:09:23Z</time>
      </trkpt>
      <trkpt lat="36.819264" lon="-3.601081">
        <ele>919.510</ele>
        <time>2022-12-10T09:09:24Z</time>
      </trkpt>
      <trkpt lat="36.819256" lon="-3.601090">
        <ele>920.011</ele>
        <time>2022-12-10T09:09:25Z</time>
      </trkpt>
      <trkpt lat="36.819250" lon="-3.601110">
        <ele>921.290</ele>
        <time>2022-12-10T09:09:27Z</time>
      </trkpt>
      <trkpt lat="36.819244" lon="-3.601139">
        <ele>922.799</ele>
        <time>2022-12-10T09:09:30Z</time>
      </trkpt>
      <trkpt lat="36.819231" lon="-3.601173">
        <ele>924.331</ele>
        <time>2022-12-10T09:09:32Z</time>
      </trkpt>
      <trkpt lat="36.819229" lon="-3.601192">
        <ele>925.277</ele>
        <time>2022-12-10T09:09:33Z</time>
      </trkpt>
      <trkpt lat="36.819184" lon="-3.601263">
        <ele>928.758</ele>
        <time>2022-12-10T09:09:38Z</time>
      </trkpt>
      <trkpt lat="36.819138" lon="-3.601271">
        <ele>928.561</ele>
        <time>2022-12-10T09:09:42Z</time>
      </trkpt>
      <trkpt lat="36.819081" lon="-3.601283">
        <ele>928.111</ele>
        <time>2022-12-10T09:09:46Z</time>
      </trkpt>
      <trkpt lat="36.819035" lon="-3.601281">
        <ele>927.282</ele>
        <time>2022-12-10T09:09:50Z</time>
      </trkpt>
      <trkpt lat="36.818929" lon="-3.601315">
        <ele>927.043</ele>
        <time>2022-12-10T09:09:58Z</time>
      </trkpt>
      <trkpt lat="36.818826" lon="-3.601371">
        <ele>928.017</ele>
        <time>2022-12-10T09:10:04Z</time>
      </trkpt>
      <trkpt lat="36.818768" lon="-3.601450">
        <ele>930.309</ele>
        <time>2022-12-10T09:10:08Z</time>
      </trkpt>
      <trkpt lat="36.818695" lon="-3.601499">
        <ele>931.159</ele>
        <time>2022-12-10T09:10:12Z</time>
      </trkpt>
      <trkpt lat="36.818612" lon="-3.601509">
        <ele>930.280</ele>
        <time>2022-12-10T09:10:15Z</time>
      </trkpt>
      <trkpt lat="36.818536" lon="-3.601522">
        <ele>931.099</ele>
        <time>2022-12-10T09:10:18Z</time>
      </trkpt>
      <trkpt lat="36.818418" lon="-3.601529">
        <ele>931.738</ele>
        <time>2022-12-10T09:10:24Z</time>
      </trkpt>
      <trkpt lat="36.818232" lon="-3.601466">
        <ele>934.010</ele>
        <time>2022-12-10T09:10:35Z</time>
      </trkpt>
      <trkpt lat="36.818128" lon="-3.601382">
        <ele>935.296</ele>
        <time>2022-12-10T09:10:43Z</time>
      </trkpt>
      <trkpt lat="36.818116" lon="-3.601361">
        <ele>934.787</ele>
        <time>2022-12-10T09:10:44Z</time>
      </trkpt>
      <trkpt lat="36.818009" lon="-3.601161">
        <ele>929.080</ele>
        <time>2022-12-10T09:10:52Z</time>
      </trkpt>
      <trkpt lat="36.817946" lon="-3.601079">
        <ele>928.630</ele>
        <time>2022-12-10T09:10:59Z</time>
      </trkpt>
      <trkpt lat="36.817890" lon="-3.601032">
        <ele>930.099</ele>
        <time>2022-12-10T09:11:04Z</time>
      </trkpt>
      <trkpt lat="36.817885" lon="-3.601014">
        <ele>929.707</ele>
        <time>2022-12-10T09:11:05Z</time>
      </trkpt>
      <trkpt lat="36.817777" lon="-3.600801">
        <ele>927.927</ele>
        <time>2022-12-10T09:11:14Z</time>
      </trkpt>
      <trkpt lat="36.817705" lon="-3.600674">
        <ele>924.809</ele>
        <time>2022-12-10T09:11:19Z</time>
      </trkpt>
      <trkpt lat="36.817537" lon="-3.600556">
        <ele>922.560</ele>
        <time>2022-12-10T09:11:28Z</time>
      </trkpt>
      <trkpt lat="36.817361" lon="-3.600434">
        <ele>918.871</ele>
        <time>2022-12-10T09:11:35Z</time>
      </trkpt>
      <trkpt lat="36.817308" lon="-3.600403">
        <ele>917.790</ele>
        <time>2022-12-10T09:11:37Z</time>
      </trkpt>
      <trkpt lat="36.817161" lon="-3.600393">
        <ele>917.969</ele>
        <time>2022-12-10T09:11:43Z</time>
      </trkpt>
      <trkpt lat="36.816960" lon="-3.600377">
        <ele>917.171</ele>
        <time>2022-12-10T09:11:51Z</time>
      </trkpt>
      <trkpt lat="36.816893" lon="-3.600365">
        <ele>916.627</ele>
        <time>2022-12-10T09:11:55Z</time>
      </trkpt>
      <trkpt lat="36.816886" lon="-3.600362">
        <ele>916.428</ele>
        <time>2022-12-10T09:11:56Z</time>
      </trkpt>
      <trkpt lat="36.816848" lon="-3.600355">
        <ele>916.211</ele>
        <time>2022-12-10T09:11:59Z</time>
      </trkpt>
      <trkpt lat="36.816738" lon="-3.600361">
        <ele>917.141</ele>
        <time>2022-12-10T09:12:04Z</time>
      </trkpt>
      <trkpt lat="36.816619" lon="-3.600348">
        <ele>917.889</ele>
        <time>2022-12-10T09:12:08Z</time>
      </trkpt>
      <trkpt lat="36.816581" lon="-3.600364">
        <ele>919.506</ele>
        <time>2022-12-10T09:12:10Z</time>
      </trkpt>
      <trkpt lat="36.816572" lon="-3.600378">
        <ele>920.526</ele>
        <time>2022-12-10T09:12:11Z</time>
      </trkpt>
      <trkpt lat="36.816553" lon="-3.600406">
        <ele>922.409</ele>
        <time>2022-12-10T09:12:13Z</time>
      </trkpt>
      <trkpt lat="36.816371" lon="-3.600391">
        <ele>925.289</ele>
        <time>2022-12-10T09:12:20Z</time>
      </trkpt>
      <trkpt lat="36.816177" lon="-3.600321">
        <ele>923.130</ele>
        <time>2022-12-10T09:12:28Z</time>
      </trkpt>
      <trkpt lat="36.816149" lon="-3.600318">
        <ele>923.389</ele>
        <time>2022-12-10T09:12:30Z</time>
      </trkpt>
      <trkpt lat="36.816103" lon="-3.600321">
        <ele>923.848</ele>
        <time>2022-12-10T09:12:34Z</time>
      </trkpt>
      <trkpt lat="36.816061" lon="-3.600325">
        <ele>924.590</ele>
        <time>2022-12-10T09:12:38Z</time>
      </trkpt>
      <trkpt lat="36.816050" lon="-3.600322">
        <ele>924.546</ele>
        <time>2022-12-10T09:12:39Z</time>
      </trkpt>
      <trkpt lat="36.816028" lon="-3.600305">
        <ele>924.277</ele>
        <time>2022-12-10T09:12:41Z</time>
      </trkpt>
      <trkpt lat="36.816016" lon="-3.600293">
        <ele>923.950</ele>
        <time>2022-12-10T09:12:42Z</time>
      </trkpt>
      <trkpt lat="36.815850" lon="-3.600251">
        <ele>925.160</ele>
        <time>2022-12-10T09:12:54Z</time>
      </trkpt>
      <trkpt lat="36.815826" lon="-3.600242">
        <ele>925.175</ele>
        <time>2022-12-10T09:12:56Z</time>
      </trkpt>
      <trkpt lat="36.815804" lon="-3.600221">
        <ele>924.628</ele>
        <time>2022-12-10T09:12:58Z</time>
      </trkpt>
      <trkpt lat="36.815763" lon="-3.600165">
        <ele>923.520</ele>
        <time>2022-12-10T09:13:03Z</time>
      </trkpt>
      <trkpt lat="36.815757" lon="-3.600148">
        <ele>923.109</ele>
        <time>2022-12-10T09:13:04Z</time>
      </trkpt>
      <trkpt lat="36.815663" lon="-3.600017">
        <ele>921.278</ele>
        <time>2022-12-10T09:13:13Z</time>
      </trkpt>
      <trkpt lat="36.815550" lon="-3.600008">
        <ele>922.189</ele>
        <time>2022-12-10T09:13:22Z</time>
      </trkpt>
      <trkpt lat="36.815527" lon="-3.600018">
        <ele>922.038</ele>
        <time>2022-12-10T09:13:24Z</time>
      </trkpt>
      <trkpt lat="36.815477" lon="-3.600067">
        <ele>922.337</ele>
        <time>2022-12-10T09:13:29Z</time>
      </trkpt>
      <trkpt lat="36.815457" lon="-3.600099">
        <ele>922.589</ele>
        <time>2022-12-10T09:13:32Z</time>
      </trkpt>
      <trkpt lat="36.815446" lon="-3.600103">
        <ele>922.415</ele>
        <time>2022-12-10T09:13:33Z</time>
      </trkpt>
      <trkpt lat="36.815419" lon="-3.600111">
        <ele>922.256</ele>
        <time>2022-12-10T09:13:35Z</time>
      </trkpt>
      <trkpt lat="36.815400" lon="-3.600101">
        <ele>921.989</ele>
        <time>2022-12-10T09:13:37Z</time>
      </trkpt>
      <trkpt lat="36.815396" lon="-3.600101">
        <ele>921.949</ele>
        <time>2022-12-10T09:13:38Z</time>
      </trkpt>
      <trkpt lat="36.815392" lon="-3.600115">
        <ele>922.019</ele>
        <time>2022-12-10T09:13:41Z</time>
      </trkpt>
      <trkpt lat="36.815358" lon="-3.600067">
        <ele>921.209</ele>
        <time>2022-12-10T09:13:51Z</time>
      </trkpt>
      <trkpt lat="36.815344" lon="-3.600040">
        <ele>920.819</ele>
        <time>2022-12-10T09:13:53Z</time>
      </trkpt>
      <trkpt lat="36.815315" lon="-3.600013">
        <ele>920.409</ele>
        <time>2022-12-10T09:13:56Z</time>
      </trkpt>
      <trkpt lat="36.815243" lon="-3.599886">
        <ele>919.282</ele>
        <time>2022-12-10T09:14:06Z</time>
      </trkpt>
      <trkpt lat="36.815207" lon="-3.599764">
        <ele>919.123</ele>
        <time>2022-12-10T09:14:14Z</time>
      </trkpt>
      <trkpt lat="36.815185" lon="-3.599666">
        <ele>919.922</ele>
        <time>2022-12-10T09:14:21Z</time>
      </trkpt>
      <trkpt lat="36.815113" lon="-3.599531">
        <ele>922.471</ele>
        <time>2022-12-10T09:14:30Z</time>
      </trkpt>
      <trkpt lat="36.815091" lon="-3.599504">
        <ele>923.013</ele>
        <time>2022-12-10T09:14:33Z</time>
      </trkpt>
      <trkpt lat="36.815072" lon="-3.599462">
        <ele>923.859</ele>
        <time>2022-12-10T09:14:37Z</time>
      </trkpt>
      <trkpt lat="36.815061" lon="-3.599449">
        <ele>924.110</ele>
        <time>2022-12-10T09:14:38Z</time>
      </trkpt>
      <trkpt lat="36.815019" lon="-3.599425">
        <ele>925.323</ele>
        <time>2022-12-10T09:14:42Z</time>
      </trkpt>
      <trkpt lat="36.814954" lon="-3.599386">
        <ele>926.783</ele>
        <time>2022-12-10T09:14:46Z</time>
      </trkpt>
      <trkpt lat="36.814834" lon="-3.599274">
        <ele>929.611</ele>
        <time>2022-12-10T09:14:56Z</time>
      </trkpt>
      <trkpt lat="36.814831" lon="-3.599264">
        <ele>929.821</ele>
        <time>2022-12-10T09:14:59Z</time>
      </trkpt>
      <trkpt lat="36.814830" lon="-3.599268">
        <ele>929.703</ele>
        <time>2022-12-10T09:15:01Z</time>
      </trkpt>
      <trkpt lat="36.814811" lon="-3.599229">
        <ele>930.809</ele>
        <time>2022-12-10T09:16:01Z</time>
      </trkpt>
      <trkpt lat="36.814812" lon="-3.599218">
        <ele>931.122</ele>
        <time>2022-12-10T09:16:22Z</time>
      </trkpt>
      <trkpt lat="36.814818" lon="-3.599226">
        <ele>930.993</ele>
        <time>2022-12-10T09:16:26Z</time>
      </trkpt>
      <trkpt lat="36.814797" lon="-3.599199">
        <ele>931.632</ele>
        <time>2022-12-10T09:16:44Z</time>
      </trkpt>
      <trkpt lat="36.814775" lon="-3.599127">
        <ele>933.591</ele>
        <time>2022-12-10T09:16:56Z</time>
      </trkpt>
      <trkpt lat="36.814749" lon="-3.599068">
        <ele>935.093</ele>
        <time>2022-12-10T09:17:00Z</time>
      </trkpt>
      <trkpt lat="36.814741" lon="-3.599036">
        <ele>935.929</ele>
        <time>2022-12-10T09:17:02Z</time>
      </trkpt>
      <trkpt lat="36.814702" lon="-3.598957">
        <ele>937.380</ele>
        <time>2022-12-10T09:17:07Z</time>
      </trkpt>
      <trkpt lat="36.814667" lon="-3.598898">
        <ele>937.723</ele>
        <time>2022-12-10T09:17:11Z</time>
      </trkpt>
      <trkpt lat="36.814654" lon="-3.598874">
        <ele>937.863</ele>
        <time>2022-12-10T09:17:13Z</time>
      </trkpt>
      <trkpt lat="36.814560" lon="-3.598730">
        <ele>937.847</ele>
        <time>2022-12-10T09:17:23Z</time>
      </trkpt>
      <trkpt lat="36.814484" lon="-3.598574">
        <ele>939.929</ele>
        <time>2022-12-10T09:17:32Z</time>
      </trkpt>
      <trkpt lat="36.814399" lon="-3.598426">
        <ele>942.521</ele>
        <time>2022-12-10T09:17:42Z</time>
      </trkpt>
      <trkpt lat="36.814347" lon="-3.598301">
        <ele>944.809</ele>
        <time>2022-12-10T09:17:50Z</time>
      </trkpt>
      <trkpt lat="36.814311" lon="-3.598221">
        <ele>945.565</ele>
        <time>2022-12-10T09:17:55Z</time>
      </trkpt>
      <trkpt lat="36.814307" lon="-3.598212">
        <ele>945.636</ele>
        <time>2022-12-10T09:17:56Z</time>
      </trkpt>
      <trkpt lat="36.814276" lon="-3.598139">
        <ele>946.835</ele>
        <time>2022-12-10T09:18:00Z</time>
      </trkpt>
      <trkpt lat="36.814165" lon="-3.597952">
        <ele>948.724</ele>
        <time>2022-12-10T09:18:12Z</time>
      </trkpt>
      <trkpt lat="36.814096" lon="-3.597767">
        <ele>948.636</ele>
        <time>2022-12-10T09:18:21Z</time>
      </trkpt>
      <trkpt lat="36.814070" lon="-3.597700">
        <ele>948.882</ele>
        <time>2022-12-10T09:18:25Z</time>
      </trkpt>
      <trkpt lat="36.814046" lon="-3.597642">
        <ele>949.193</ele>
        <time>2022-12-10T09:18:28Z</time>
      </trkpt>
      <trkpt lat="36.814017" lon="-3.597602">
        <ele>949.096</ele>
        <time>2022-12-10T09:18:31Z</time>
      </trkpt>
      <trkpt lat="36.813988" lon="-3.597582">
        <ele>948.776</ele>
        <time>2022-12-10T09:18:33Z</time>
      </trkpt>
      <trkpt lat="36.813858" lon="-3.597440">
        <ele>948.512</ele>
        <time>2022-12-10T09:18:44Z</time>
      </trkpt>
      <trkpt lat="36.813820" lon="-3.597359">
        <ele>949.232</ele>
        <time>2022-12-10T09:18:49Z</time>
      </trkpt>
      <trkpt lat="36.813783" lon="-3.597305">
        <ele>949.305</ele>
        <time>2022-12-10T09:18:53Z</time>
      </trkpt>
      <trkpt lat="36.813708" lon="-3.597182">
        <ele>949.509</ele>
        <time>2022-12-10T09:19:01Z</time>
      </trkpt>
      <trkpt lat="36.813667" lon="-3.597123">
        <ele>949.392</ele>
        <time>2022-12-10T09:19:05Z</time>
      </trkpt>
      <trkpt lat="36.813610" lon="-3.597057">
        <ele>949.073</ele>
        <time>2022-12-10T09:19:10Z</time>
      </trkpt>
      <trkpt lat="36.813591" lon="-3.597031">
        <ele>949.222</ele>
        <time>2022-12-10T09:19:12Z</time>
      </trkpt>
      <trkpt lat="36.813562" lon="-3.596984">
        <ele>949.771</ele>
        <time>2022-12-10T09:19:16Z</time>
      </trkpt>
      <trkpt lat="36.813485" lon="-3.596889">
        <ele>951.213</ele>
        <time>2022-12-10T09:19:23Z</time>
      </trkpt>
      <trkpt lat="36.813303" lon="-3.596857">
        <ele>951.199</ele>
        <time>2022-12-10T09:19:35Z</time>
      </trkpt>
      <trkpt lat="36.813235" lon="-3.596827">
        <ele>952.890</ele>
        <time>2022-12-10T09:19:40Z</time>
      </trkpt>
      <trkpt lat="36.813193" lon="-3.596816">
        <ele>953.653</ele>
        <time>2022-12-10T09:19:43Z</time>
      </trkpt>
      <trkpt lat="36.813044" lon="-3.596831">
        <ele>954.543</ele>
        <time>2022-12-10T09:19:54Z</time>
      </trkpt>
      <trkpt lat="36.813028" lon="-3.596826">
        <ele>954.662</ele>
        <time>2022-12-10T09:19:55Z</time>
      </trkpt>
      <trkpt lat="36.812919" lon="-3.596840">
        <ele>954.083</ele>
        <time>2022-12-10T09:20:02Z</time>
      </trkpt>
      <trkpt lat="36.812890" lon="-3.596832">
        <ele>954.211</ele>
        <time>2022-12-10T09:20:04Z</time>
      </trkpt>
      <trkpt lat="36.812872" lon="-3.596828">
        <ele>954.309</ele>
        <time>2022-12-10T09:20:05Z</time>
      </trkpt>
      <trkpt lat="36.812807" lon="-3.596778">
        <ele>956.177</ele>
        <time>2022-12-10T09:20:09Z</time>
      </trkpt>
      <trkpt lat="36.812714" lon="-3.596717">
        <ele>956.448</ele>
        <time>2022-12-10T09:20:16Z</time>
      </trkpt>
      <trkpt lat="36.812705" lon="-3.596706">
        <ele>956.537</ele>
        <time>2022-12-10T09:20:17Z</time>
      </trkpt>
      <trkpt lat="36.812593" lon="-3.596624">
        <ele>956.226</ele>
        <time>2022-12-10T09:20:27Z</time>
      </trkpt>
      <trkpt lat="36.812502" lon="-3.596502">
        <ele>958.028</ele>
        <time>2022-12-10T09:20:36Z</time>
      </trkpt>
      <trkpt lat="36.812467" lon="-3.596481">
        <ele>957.924</ele>
        <time>2022-12-10T09:20:39Z</time>
      </trkpt>
      <trkpt lat="36.812459" lon="-3.596467">
        <ele>958.225</ele>
        <time>2022-12-10T09:20:40Z</time>
      </trkpt>
      <trkpt lat="36.812427" lon="-3.596402">
        <ele>959.748</ele>
        <time>2022-12-10T09:20:44Z</time>
      </trkpt>
      <trkpt lat="36.812404" lon="-3.596370">
        <ele>960.328</ele>
        <time>2022-12-10T09:20:47Z</time>
      </trkpt>
      <trkpt lat="36.812398" lon="-3.596340">
        <ele>961.328</ele>
        <time>2022-12-10T09:20:49Z</time>
      </trkpt>
      <trkpt lat="36.812329" lon="-3.596218">
        <ele>964.289</ele>
        <time>2022-12-10T09:20:57Z</time>
      </trkpt>
      <trkpt lat="36.812240" lon="-3.596110">
        <ele>966.417</ele>
        <time>2022-12-10T09:21:06Z</time>
      </trkpt>
      <trkpt lat="36.812184" lon="-3.596074">
        <ele>965.409</ele>
        <time>2022-12-10T09:21:10Z</time>
      </trkpt>
      <trkpt lat="36.812090" lon="-3.596037">
        <ele>962.923</ele>
        <time>2022-12-10T09:21:17Z</time>
      </trkpt>
      <trkpt lat="36.812072" lon="-3.596018">
        <ele>962.624</ele>
        <time>2022-12-10T09:21:19Z</time>
      </trkpt>
      <trkpt lat="36.812011" lon="-3.595972">
        <ele>961.353</ele>
        <time>2022-12-10T09:21:24Z</time>
      </trkpt>
      <trkpt lat="36.811947" lon="-3.595923">
        <ele>959.812</ele>
        <time>2022-12-10T09:21:31Z</time>
      </trkpt>
      <trkpt lat="36.811947" lon="-3.595914">
        <ele>959.964</ele>
        <time>2022-12-10T09:21:32Z</time>
      </trkpt>
      <trkpt lat="36.811945" lon="-3.595911">
        <ele>959.940</ele>
        <time>2022-12-10T09:21:33Z</time>
      </trkpt>
      <trkpt lat="36.811946" lon="-3.595917">
        <ele>959.961</ele>
        <time>2022-12-10T09:21:35Z</time>
      </trkpt>
      <trkpt lat="36.811949" lon="-3.595944">
        <ele>959.664</ele>
        <time>2022-12-10T09:21:38Z</time>
      </trkpt>
      <trkpt lat="36.811944" lon="-3.595925">
        <ele>959.774</ele>
        <time>2022-12-10T09:21:48Z</time>
      </trkpt>
      <trkpt lat="36.811952" lon="-3.595869">
        <ele>960.881</ele>
        <time>2022-12-10T09:22:35Z</time>
      </trkpt>
      <trkpt lat="36.811953" lon="-3.595841">
        <ele>961.261</ele>
        <time>2022-12-10T09:22:37Z</time>
      </trkpt>
      <trkpt lat="36.811996" lon="-3.595719">
        <ele>962.417</ele>
        <time>2022-12-10T09:22:45Z</time>
      </trkpt>
      <trkpt lat="36.812026" lon="-3.595536">
        <ele>962.609</ele>
        <time>2022-12-10T09:22:54Z</time>
      </trkpt>
      <trkpt lat="36.812037" lon="-3.595471">
        <ele>962.739</ele>
        <time>2022-12-10T09:22:58Z</time>
      </trkpt>
      <trkpt lat="36.812044" lon="-3.595409">
        <ele>962.730</ele>
        <time>2022-12-10T09:23:03Z</time>
      </trkpt>
      <trkpt lat="36.812028" lon="-3.595346">
        <ele>961.949</ele>
        <time>2022-12-10T09:23:06Z</time>
      </trkpt>
      <trkpt lat="36.811974" lon="-3.595219">
        <ele>958.588</ele>
        <time>2022-12-10T09:23:13Z</time>
      </trkpt>
      <trkpt lat="36.811967" lon="-3.595198">
        <ele>957.980</ele>
        <time>2022-12-10T09:23:14Z</time>
      </trkpt>
      <trkpt lat="36.811946" lon="-3.595117">
        <ele>955.876</ele>
        <time>2022-12-10T09:23:17Z</time>
      </trkpt>
      <trkpt lat="36.811938" lon="-3.595058">
        <ele>954.377</ele>
        <time>2022-12-10T09:23:19Z</time>
      </trkpt>
      <trkpt lat="36.811955" lon="-3.594971">
        <ele>954.440</ele>
        <time>2022-12-10T09:23:22Z</time>
      </trkpt>
      <trkpt lat="36.811964" lon="-3.594925">
        <ele>954.610</ele>
        <time>2022-12-10T09:23:24Z</time>
      </trkpt>
      <trkpt lat="36.811973" lon="-3.594891">
        <ele>954.971</ele>
        <time>2022-12-10T09:23:26Z</time>
      </trkpt>
      <trkpt lat="36.811994" lon="-3.594794">
        <ele>955.341</ele>
        <time>2022-12-10T09:23:30Z</time>
      </trkpt>
      <trkpt lat="36.811993" lon="-3.594685">
        <ele>954.615</ele>
        <time>2022-12-10T09:23:34Z</time>
      </trkpt>
      <trkpt lat="36.811991" lon="-3.594600">
        <ele>954.409</ele>
        <time>2022-12-10T09:23:38Z</time>
      </trkpt>
      <trkpt lat="36.811984" lon="-3.594536">
        <ele>954.168</ele>
        <time>2022-12-10T09:23:41Z</time>
      </trkpt>
      <trkpt lat="36.811977" lon="-3.594515">
        <ele>953.979</ele>
        <time>2022-12-10T09:23:42Z</time>
      </trkpt>
      <trkpt lat="36.811953" lon="-3.594443">
        <ele>953.318</ele>
        <time>2022-12-10T09:23:46Z</time>
      </trkpt>
      <trkpt lat="36.811932" lon="-3.594404">
        <ele>952.987</ele>
        <time>2022-12-10T09:23:49Z</time>
      </trkpt>
      <trkpt lat="36.811908" lon="-3.594374">
        <ele>952.069</ele>
        <time>2022-12-10T09:23:52Z</time>
      </trkpt>
      <trkpt lat="36.811860" lon="-3.594350">
        <ele>949.655</ele>
        <time>2022-12-10T09:23:57Z</time>
      </trkpt>
      <trkpt lat="36.811759" lon="-3.594287">
        <ele>944.586</ele>
        <time>2022-12-10T09:24:04Z</time>
      </trkpt>
      <trkpt lat="36.811711" lon="-3.594204">
        <ele>942.469</ele>
        <time>2022-12-10T09:24:09Z</time>
      </trkpt>
      <trkpt lat="36.811704" lon="-3.594191">
        <ele>942.129</ele>
        <time>2022-12-10T09:24:10Z</time>
      </trkpt>
      <trkpt lat="36.811691" lon="-3.594162">
        <ele>941.599</ele>
        <time>2022-12-10T09:24:12Z</time>
      </trkpt>
      <trkpt lat="36.811673" lon="-3.594126">
        <ele>940.507</ele>
        <time>2022-12-10T09:24:14Z</time>
      </trkpt>
      <trkpt lat="36.811660" lon="-3.594108">
        <ele>939.727</ele>
        <time>2022-12-10T09:24:15Z</time>
      </trkpt>
      <trkpt lat="36.811634" lon="-3.594025">
        <ele>938.009</ele>
        <time>2022-12-10T09:24:19Z</time>
      </trkpt>
      <trkpt lat="36.811644" lon="-3.593951">
        <ele>939.040</ele>
        <time>2022-12-10T09:24:24Z</time>
      </trkpt>
      <trkpt lat="36.811654" lon="-3.593928">
        <ele>939.841</ele>
        <time>2022-12-10T09:24:26Z</time>
      </trkpt>
      <trkpt lat="36.811659" lon="-3.593914">
        <ele>940.340</ele>
        <time>2022-12-10T09:24:27Z</time>
      </trkpt>
      <trkpt lat="36.811671" lon="-3.593887">
        <ele>941.379</ele>
        <time>2022-12-10T09:24:29Z</time>
      </trkpt>
      <trkpt lat="36.811676" lon="-3.593877">
        <ele>941.771</ele>
        <time>2022-12-10T09:24:30Z</time>
      </trkpt>
      <trkpt lat="36.811700" lon="-3.593827">
        <ele>943.627</ele>
        <time>2022-12-10T09:24:34Z</time>
      </trkpt>
      <trkpt lat="36.811720" lon="-3.593786">
        <ele>945.218</ele>
        <time>2022-12-10T09:24:37Z</time>
      </trkpt>
      <trkpt lat="36.811728" lon="-3.593764">
        <ele>945.921</ele>
        <time>2022-12-10T09:24:39Z</time>
      </trkpt>
      <trkpt lat="36.811735" lon="-3.593721">
        <ele>946.691</ele>
        <time>2022-12-10T09:24:43Z</time>
      </trkpt>
      <trkpt lat="36.811729" lon="-3.593687">
        <ele>946.575</ele>
        <time>2022-12-10T09:24:45Z</time>
      </trkpt>
      <trkpt lat="36.811678" lon="-3.593603">
        <ele>943.828</ele>
        <time>2022-12-10T09:24:51Z</time>
      </trkpt>
      <trkpt lat="36.811627" lon="-3.593480">
        <ele>942.420</ele>
        <time>2022-12-10T09:24:58Z</time>
      </trkpt>
      <trkpt lat="36.811619" lon="-3.593469">
        <ele>942.109</ele>
        <time>2022-12-10T09:24:59Z</time>
      </trkpt>
      <trkpt lat="36.811605" lon="-3.593419">
        <ele>942.198</ele>
        <time>2022-12-10T09:25:02Z</time>
      </trkpt>
      <trkpt lat="36.811582" lon="-3.593373">
        <ele>941.619</ele>
        <time>2022-12-10T09:25:04Z</time>
      </trkpt>
      <trkpt lat="36.811539" lon="-3.593310">
        <ele>940.348</ele>
        <time>2022-12-10T09:25:07Z</time>
      </trkpt>
      <trkpt lat="36.811497" lon="-3.593260">
        <ele>938.547</ele>
        <time>2022-12-10T09:25:10Z</time>
      </trkpt>
      <trkpt lat="36.811397" lon="-3.593175">
        <ele>935.239</ele>
        <time>2022-12-10T09:25:15Z</time>
      </trkpt>
      <trkpt lat="36.811346" lon="-3.593145">
        <ele>933.285</ele>
        <time>2022-12-10T09:25:18Z</time>
      </trkpt>
      <trkpt lat="36.811248" lon="-3.593115">
        <ele>928.826</ele>
        <time>2022-12-10T09:25:23Z</time>
      </trkpt>
      <trkpt lat="36.811210" lon="-3.593118">
        <ele>926.969</ele>
        <time>2022-12-10T09:25:25Z</time>
      </trkpt>
      <trkpt lat="36.811153" lon="-3.593123">
        <ele>923.939</ele>
        <time>2022-12-10T09:25:28Z</time>
      </trkpt>
      <trkpt lat="36.811127" lon="-3.593108">
        <ele>922.941</ele>
        <time>2022-12-10T09:25:30Z</time>
      </trkpt>
      <trkpt lat="36.811015" lon="-3.593089">
        <ele>918.981</ele>
        <time>2022-12-10T09:25:35Z</time>
      </trkpt>
      <trkpt lat="36.810984" lon="-3.593072">
        <ele>918.109</ele>
        <time>2022-12-10T09:25:37Z</time>
      </trkpt>
      <trkpt lat="36.810970" lon="-3.593015">
        <ele>917.609</ele>
        <time>2022-12-10T09:25:39Z</time>
      </trkpt>
      <trkpt lat="36.810976" lon="-3.592952">
        <ele>917.435</ele>
        <time>2022-12-10T09:25:41Z</time>
      </trkpt>
      <trkpt lat="36.810972" lon="-3.592906">
        <ele>916.986</ele>
        <time>2022-12-10T09:25:43Z</time>
      </trkpt>
      <trkpt lat="36.810983" lon="-3.592883">
        <ele>917.175</ele>
        <time>2022-12-10T09:25:45Z</time>
      </trkpt>
      <trkpt lat="36.810980" lon="-3.592875">
        <ele>916.924</ele>
        <time>2022-12-10T09:25:47Z</time>
      </trkpt>
      <trkpt lat="36.810977" lon="-3.592888">
        <ele>916.916</ele>
        <time>2022-12-10T09:25:52Z</time>
      </trkpt>
      <trkpt lat="36.810965" lon="-3.592893">
        <ele>916.622</ele>
        <time>2022-12-10T09:26:14Z</time>
      </trkpt>
      <trkpt lat="36.810964" lon="-3.592892">
        <ele>916.613</ele>
        <time>2022-12-10T09:26:18Z</time>
      </trkpt>
      <trkpt lat="36.811009" lon="-3.592848">
        <ele>917.646</ele>
        <time>2022-12-10T09:26:30Z</time>
      </trkpt>
      <trkpt lat="36.811046" lon="-3.592812">
        <ele>918.466</ele>
        <time>2022-12-10T09:26:34Z</time>
      </trkpt>
      <trkpt lat="36.811056" lon="-3.592799">
        <ele>918.636</ele>
        <time>2022-12-10T09:26:35Z</time>
      </trkpt>
      <trkpt lat="36.811078" lon="-3.592772">
        <ele>918.917</ele>
        <time>2022-12-10T09:26:38Z</time>
      </trkpt>
      <trkpt lat="36.811097" lon="-3.592719">
        <ele>918.318</ele>
        <time>2022-12-10T09:26:42Z</time>
      </trkpt>
      <trkpt lat="36.811141" lon="-3.592655">
        <ele>918.709</ele>
        <time>2022-12-10T09:26:46Z</time>
      </trkpt>
      <trkpt lat="36.811179" lon="-3.592602">
        <ele>919.324</ele>
        <time>2022-12-10T09:26:50Z</time>
      </trkpt>
      <trkpt lat="36.811188" lon="-3.592572">
        <ele>919.135</ele>
        <time>2022-12-10T09:26:52Z</time>
      </trkpt>
      <trkpt lat="36.811204" lon="-3.592560">
        <ele>919.634</ele>
        <time>2022-12-10T09:26:53Z</time>
      </trkpt>
      <trkpt lat="36.811215" lon="-3.592549">
        <ele>919.943</ele>
        <time>2022-12-10T09:26:54Z</time>
      </trkpt>
      <trkpt lat="36.811229" lon="-3.592538">
        <ele>920.345</ele>
        <time>2022-12-10T09:26:55Z</time>
      </trkpt>
      <trkpt lat="36.811245" lon="-3.592524">
        <ele>920.791</ele>
        <time>2022-12-10T09:26:56Z</time>
      </trkpt>
      <trkpt lat="36.811253" lon="-3.592509">
        <ele>920.862</ele>
        <time>2022-12-10T09:26:57Z</time>
      </trkpt>
      <trkpt lat="36.811273" lon="-3.592465">
        <ele>920.045</ele>
        <time>2022-12-10T09:27:00Z</time>
      </trkpt>
      <trkpt lat="36.811301" lon="-3.592420">
        <ele>919.115</ele>
        <time>2022-12-10T09:27:04Z</time>
      </trkpt>
      <trkpt lat="36.811386" lon="-3.592218">
        <ele>912.799</ele>
        <time>2022-12-10T09:27:18Z</time>
      </trkpt>
      <trkpt lat="36.811388" lon="-3.592203">
        <ele>912.007</ele>
        <time>2022-12-10T09:27:19Z</time>
      </trkpt>
      <trkpt lat="36.811389" lon="-3.592011">
        <ele>902.427</ele>
        <time>2022-12-10T09:27:29Z</time>
      </trkpt>
      <trkpt lat="36.811387" lon="-3.591972">
        <ele>900.309</ele>
        <time>2022-12-10T09:27:31Z</time>
      </trkpt>
      <trkpt lat="36.811382" lon="-3.591914">
        <ele>897.910</ele>
        <time>2022-12-10T09:27:34Z</time>
      </trkpt>
      <trkpt lat="36.811371" lon="-3.591845">
        <ele>895.411</ele>
        <time>2022-12-10T09:27:38Z</time>
      </trkpt>
      <trkpt lat="36.811358" lon="-3.591781">
        <ele>893.220</ele>
        <time>2022-12-10T09:27:42Z</time>
      </trkpt>
      <trkpt lat="36.811328" lon="-3.591720">
        <ele>890.819</ele>
        <time>2022-12-10T09:27:45Z</time>
      </trkpt>
      <trkpt lat="36.811327" lon="-3.591669">
        <ele>889.211</ele>
        <time>2022-12-10T09:27:47Z</time>
      </trkpt>
      <trkpt lat="36.811330" lon="-3.591591">
        <ele>886.587</ele>
        <time>2022-12-10T09:27:50Z</time>
      </trkpt>
      <trkpt lat="36.811335" lon="-3.591541">
        <ele>884.848</ele>
        <time>2022-12-10T09:27:53Z</time>
      </trkpt>
      <trkpt lat="36.811332" lon="-3.591525">
        <ele>884.261</ele>
        <time>2022-12-10T09:27:54Z</time>
      </trkpt>
      <trkpt lat="36.811317" lon="-3.591464">
        <ele>882.131</ele>
        <time>2022-12-10T09:27:57Z</time>
      </trkpt>
      <trkpt lat="36.811302" lon="-3.591432">
        <ele>881.083</ele>
        <time>2022-12-10T09:27:59Z</time>
      </trkpt>
      <trkpt lat="36.811284" lon="-3.591391">
        <ele>879.825</ele>
        <time>2022-12-10T09:28:01Z</time>
      </trkpt>
      <trkpt lat="36.811253" lon="-3.591301">
        <ele>877.917</ele>
        <time>2022-12-10T09:28:04Z</time>
      </trkpt>
      <trkpt lat="36.811245" lon="-3.591242">
        <ele>876.609</ele>
        <time>2022-12-10T09:28:07Z</time>
      </trkpt>
      <trkpt lat="36.811226" lon="-3.591185">
        <ele>875.689</ele>
        <time>2022-12-10T09:28:10Z</time>
      </trkpt>
      <trkpt lat="36.811202" lon="-3.591112">
        <ele>874.460</ele>
        <time>2022-12-10T09:28:13Z</time>
      </trkpt>
      <trkpt lat="36.811181" lon="-3.591043">
        <ele>873.499</ele>
        <time>2022-12-10T09:28:16Z</time>
      </trkpt>
      <trkpt lat="36.811157" lon="-3.590992">
        <ele>873.038</ele>
        <time>2022-12-10T09:28:19Z</time>
      </trkpt>
      <trkpt lat="36.811135" lon="-3.590906">
        <ele>872.210</ele>
        <time>2022-12-10T09:28:22Z</time>
      </trkpt>
      <trkpt lat="36.811122" lon="-3.590895">
        <ele>872.536</ele>
        <time>2022-12-10T09:28:23Z</time>
      </trkpt>
      <trkpt lat="36.811108" lon="-3.590855">
        <ele>872.357</ele>
        <time>2022-12-10T09:28:25Z</time>
      </trkpt>
      <trkpt lat="36.811089" lon="-3.590806">
        <ele>871.070</ele>
        <time>2022-12-10T09:28:27Z</time>
      </trkpt>
      <trkpt lat="36.811052" lon="-3.590758">
        <ele>869.860</ele>
        <time>2022-12-10T09:28:29Z</time>
      </trkpt>
      <trkpt lat="36.810990" lon="-3.590687">
        <ele>869.288</ele>
        <time>2022-12-10T09:28:32Z</time>
      </trkpt>
      <trkpt lat="36.810896" lon="-3.590496">
        <ele>869.524</ele>
        <time>2022-12-10T09:28:40Z</time>
      </trkpt>
      <trkpt lat="36.810869" lon="-3.590471">
        <ele>870.426</ele>
        <time>2022-12-10T09:28:42Z</time>
      </trkpt>
      <trkpt lat="36.810832" lon="-3.590438">
        <ele>871.909</ele>
        <time>2022-12-10T09:28:45Z</time>
      </trkpt>
      <trkpt lat="36.810769" lon="-3.590361">
        <ele>869.949</ele>
        <time>2022-12-10T09:28:49Z</time>
      </trkpt>
      <trkpt lat="36.810742" lon="-3.590315">
        <ele>869.160</ele>
        <time>2022-12-10T09:28:51Z</time>
      </trkpt>
      <trkpt lat="36.810701" lon="-3.590234">
        <ele>866.949</ele>
        <time>2022-12-10T09:28:54Z</time>
      </trkpt>
      <trkpt lat="36.810665" lon="-3.590174">
        <ele>865.038</ele>
        <time>2022-12-10T09:28:56Z</time>
      </trkpt>
      <trkpt lat="36.810639" lon="-3.590150">
        <ele>864.470</ele>
        <time>2022-12-10T09:28:58Z</time>
      </trkpt>
      <trkpt lat="36.810625" lon="-3.590151">
        <ele>864.626</ele>
        <time>2022-12-10T09:29:00Z</time>
      </trkpt>
      <trkpt lat="36.810474" lon="-3.590087">
        <ele>864.327</ele>
        <time>2022-12-10T09:29:14Z</time>
      </trkpt>
      <trkpt lat="36.810331" lon="-3.589929">
        <ele>866.610</ele>
        <time>2022-12-10T09:29:25Z</time>
      </trkpt>
      <trkpt lat="36.810177" lon="-3.589781">
        <ele>870.140</ele>
        <time>2022-12-10T09:29:33Z</time>
      </trkpt>
      <trkpt lat="36.810144" lon="-3.589760">
        <ele>870.254</ele>
        <time>2022-12-10T09:29:35Z</time>
      </trkpt>
      <trkpt lat="36.809951" lon="-3.589672">
        <ele>869.556</ele>
        <time>2022-12-10T09:29:43Z</time>
      </trkpt>
      <trkpt lat="36.809808" lon="-3.589621">
        <ele>866.511</ele>
        <time>2022-12-10T09:29:49Z</time>
      </trkpt>
      <trkpt lat="36.809678" lon="-3.589498">
        <ele>867.609</ele>
        <time>2022-12-10T09:29:55Z</time>
      </trkpt>
      <trkpt lat="36.809629" lon="-3.589431">
        <ele>869.116</ele>
        <time>2022-12-10T09:29:58Z</time>
      </trkpt>
      <trkpt lat="36.809621" lon="-3.589400">
        <ele>869.847</ele>
        <time>2022-12-10T09:30:01Z</time>
      </trkpt>
      <trkpt lat="36.809614" lon="-3.589403">
        <ele>869.576</ele>
        <time>2022-12-10T09:30:06Z</time>
      </trkpt>
      <trkpt lat="36.809629" lon="-3.589390">
        <ele>870.345</ele>
        <time>2022-12-10T09:30:13Z</time>
      </trkpt>
      <trkpt lat="36.809625" lon="-3.589318">
        <ele>872.487</ele>
        <time>2022-12-10T09:30:17Z</time>
      </trkpt>
      <trkpt lat="36.809595" lon="-3.589236">
        <ele>874.163</ele>
        <time>2022-12-10T09:30:20Z</time>
      </trkpt>
      <trkpt lat="36.809511" lon="-3.589131">
        <ele>875.334</ele>
        <time>2022-12-10T09:30:25Z</time>
      </trkpt>
      <trkpt lat="36.809344" lon="-3.589016">
        <ele>873.247</ele>
        <time>2022-12-10T09:30:35Z</time>
      </trkpt>
      <trkpt lat="36.809230" lon="-3.588916">
        <ele>871.657</ele>
        <time>2022-12-10T09:30:43Z</time>
      </trkpt>
      <trkpt lat="36.809235" lon="-3.588911">
        <ele>871.963</ele>
        <time>2022-12-10T09:30:47Z</time>
      </trkpt>
      <trkpt lat="36.809230" lon="-3.588915">
        <ele>871.644</ele>
        <time>2022-12-10T09:30:52Z</time>
      </trkpt>
      <trkpt lat="36.809196" lon="-3.588881">
        <ele>871.318</ele>
        <time>2022-12-10T09:30:59Z</time>
      </trkpt>
      <trkpt lat="36.809186" lon="-3.588872">
        <ele>871.209</ele>
        <time>2022-12-10T09:31:00Z</time>
      </trkpt>
      <trkpt lat="36.809165" lon="-3.588863">
        <ele>870.797</ele>
        <time>2022-12-10T09:31:02Z</time>
      </trkpt>
      <trkpt lat="36.809153" lon="-3.588850">
        <ele>870.598</ele>
        <time>2022-12-10T09:31:04Z</time>
      </trkpt>
      <trkpt lat="36.809079" lon="-3.588794">
        <ele>868.727</ele>
        <time>2022-12-10T09:31:08Z</time>
      </trkpt>
      <trkpt lat="36.808904" lon="-3.588721">
        <ele>863.926</ele>
        <time>2022-12-10T09:31:15Z</time>
      </trkpt>
      <trkpt lat="36.808824" lon="-3.588711">
        <ele>861.918</ele>
        <time>2022-12-10T09:31:20Z</time>
      </trkpt>
      <trkpt lat="36.808814" lon="-3.588691">
        <ele>862.594</ele>
        <time>2022-12-10T09:31:25Z</time>
      </trkpt>
      <trkpt lat="36.808807" lon="-3.588680">
        <ele>862.835</ele>
        <time>2022-12-10T09:31:28Z</time>
      </trkpt>
      <trkpt lat="36.808787" lon="-3.588686">
        <ele>862.058</ele>
        <time>2022-12-10T09:31:33Z</time>
      </trkpt>
      <trkpt lat="36.808730" lon="-3.588668">
        <ele>861.368</ele>
        <time>2022-12-10T09:31:37Z</time>
      </trkpt>
      <trkpt lat="36.808562" lon="-3.588643">
        <ele>859.189</ele>
        <time>2022-12-10T09:31:46Z</time>
      </trkpt>
      <trkpt lat="36.808372" lon="-3.588660">
        <ele>857.306</ele>
        <time>2022-12-10T09:31:55Z</time>
      </trkpt>
      <trkpt lat="36.808263" lon="-3.588650">
        <ele>855.226</ele>
        <time>2022-12-10T09:31:59Z</time>
      </trkpt>
      <trkpt lat="36.808243" lon="-3.588643">
        <ele>854.709</ele>
        <time>2022-12-10T09:32:00Z</time>
      </trkpt>
      <trkpt lat="36.808209" lon="-3.588423">
        <ele>859.529</ele>
        <time>2022-12-10T09:32:08Z</time>
      </trkpt>
      <trkpt lat="36.808199" lon="-3.588299">
        <ele>861.320</ele>
        <time>2022-12-10T09:32:12Z</time>
      </trkpt>
      <trkpt lat="36.808154" lon="-3.588083">
        <ele>857.929</ele>
        <time>2022-12-10T09:32:24Z</time>
      </trkpt>
      <trkpt lat="36.808098" lon="-3.587856">
        <ele>840.828</ele>
        <time>2022-12-10T09:32:33Z</time>
      </trkpt>
      <trkpt lat="36.808119" lon="-3.587789">
        <ele>839.390</ele>
        <time>2022-12-10T09:32:36Z</time>
      </trkpt>
      <trkpt lat="36.808146" lon="-3.587772">
        <ele>842.136</ele>
        <time>2022-12-10T09:32:37Z</time>
      </trkpt>
      <trkpt lat="36.808331" lon="-3.587763">
        <ele>866.857</ele>
        <time>2022-12-10T09:32:46Z</time>
      </trkpt>
      <trkpt lat="36.808487" lon="-3.587638">
        <ele>869.170</ele>
        <time>2022-12-10T09:32:56Z</time>
      </trkpt>
      <trkpt lat="36.808504" lon="-3.587610">
        <ele>868.580</ele>
        <time>2022-12-10T09:32:57Z</time>
      </trkpt>
      <trkpt lat="36.808544" lon="-3.587572">
        <ele>868.863</ele>
        <time>2022-12-10T09:32:59Z</time>
      </trkpt>
      <trkpt lat="36.808703" lon="-3.587596">
        <ele>876.944</ele>
        <time>2022-12-10T09:33:05Z</time>
      </trkpt>
      <trkpt lat="36.808767" lon="-3.587559">
        <ele>877.218</ele>
        <time>2022-12-10T09:33:09Z</time>
      </trkpt>
      <trkpt lat="36.808808" lon="-3.587530">
        <ele>877.309</ele>
        <time>2022-12-10T09:33:11Z</time>
      </trkpt>
      <trkpt lat="36.808857" lon="-3.587521">
        <ele>878.737</ele>
        <time>2022-12-10T09:33:13Z</time>
      </trkpt>
      <trkpt lat="36.808929" lon="-3.587498">
        <ele>879.228</ele>
        <time>2022-12-10T09:33:16Z</time>
      </trkpt>
      <trkpt lat="36.808986" lon="-3.587492">
        <ele>879.457</ele>
        <time>2022-12-10T09:33:19Z</time>
      </trkpt>
      <trkpt lat="36.809011" lon="-3.587483">
        <ele>879.286</ele>
        <time>2022-12-10T09:33:21Z</time>
      </trkpt>
      <trkpt lat="36.809112" lon="-3.587293">
        <ele>874.848</ele>
        <time>2022-12-10T09:33:32Z</time>
      </trkpt>
      <trkpt lat="36.809160" lon="-3.587073">
        <ele>870.874</ele>
        <time>2022-12-10T09:33:40Z</time>
      </trkpt>
      <trkpt lat="36.809147" lon="-3.586873">
        <ele>863.865</ele>
        <time>2022-12-10T09:33:48Z</time>
      </trkpt>
      <trkpt lat="36.809189" lon="-3.586814">
        <ele>864.218</ele>
        <time>2022-12-10T09:33:53Z</time>
      </trkpt>
      <trkpt lat="36.809181" lon="-3.586839">
        <ele>864.888</ele>
        <time>2022-12-10T09:33:57Z</time>
      </trkpt>
      <trkpt lat="36.809172" lon="-3.586852">
        <ele>864.967</ele>
        <time>2022-12-10T09:33:58Z</time>
      </trkpt>
      <trkpt lat="36.809166" lon="-3.586865">
        <ele>865.181</ele>
        <time>2022-12-10T09:34:00Z</time>
      </trkpt>
      <trkpt lat="36.809170" lon="-3.586867">
        <ele>865.319</ele>
        <time>2022-12-10T09:34:01Z</time>
      </trkpt>
      <trkpt lat="36.809206" lon="-3.586819">
        <ele>865.109</ele>
        <time>2022-12-10T09:34:12Z</time>
      </trkpt>
      <trkpt lat="36.809233" lon="-3.586790">
        <ele>865.297</ele>
        <time>2022-12-10T09:34:15Z</time>
      </trkpt>
      <trkpt lat="36.809262" lon="-3.586781">
        <ele>866.258</ele>
        <time>2022-12-10T09:34:18Z</time>
      </trkpt>
      <trkpt lat="36.809271" lon="-3.586696">
        <ele>863.867</ele>
        <time>2022-12-10T09:34:25Z</time>
      </trkpt>
      <trkpt lat="36.809279" lon="-3.586479">
        <ele>858.356</ele>
        <time>2022-12-10T09:34:36Z</time>
      </trkpt>
      <trkpt lat="36.809276" lon="-3.586368">
        <ele>855.568</ele>
        <time>2022-12-10T09:34:44Z</time>
      </trkpt>
      <trkpt lat="36.809259" lon="-3.586300">
        <ele>853.924</ele>
        <time>2022-12-10T09:34:50Z</time>
      </trkpt>
      <trkpt lat="36.809171" lon="-3.586074">
        <ele>848.985</ele>
        <time>2022-12-10T09:35:03Z</time>
      </trkpt>
      <trkpt lat="36.809165" lon="-3.586046">
        <ele>848.418</ele>
        <time>2022-12-10T09:35:04Z</time>
      </trkpt>
      <trkpt lat="36.809220" lon="-3.585826">
        <ele>848.458</ele>
        <time>2022-12-10T09:35:14Z</time>
      </trkpt>
      <trkpt lat="36.809226" lon="-3.585801">
        <ele>848.224</ele>
        <time>2022-12-10T09:35:15Z</time>
      </trkpt>
      <trkpt lat="36.809230" lon="-3.585771">
        <ele>847.904</ele>
        <time>2022-12-10T09:35:17Z</time>
      </trkpt>
      <trkpt lat="36.809184" lon="-3.585612">
        <ele>845.414</ele>
        <time>2022-12-10T09:35:25Z</time>
      </trkpt>
      <trkpt lat="36.809161" lon="-3.585485">
        <ele>844.509</ele>
        <time>2022-12-10T09:35:29Z</time>
      </trkpt>
      <trkpt lat="36.809071" lon="-3.585261">
        <ele>842.063</ele>
        <time>2022-12-10T09:35:37Z</time>
      </trkpt>
      <trkpt lat="36.808991" lon="-3.585039">
        <ele>835.464</ele>
        <time>2022-12-10T09:35:45Z</time>
      </trkpt>
      <trkpt lat="36.808932" lon="-3.584968">
        <ele>834.983</ele>
        <time>2022-12-10T09:35:49Z</time>
      </trkpt>
      <trkpt lat="36.808884" lon="-3.584986">
        <ele>836.442</ele>
        <time>2022-12-10T09:35:51Z</time>
      </trkpt>
      <trkpt lat="36.808847" lon="-3.585029">
        <ele>835.464</ele>
        <time>2022-12-10T09:35:53Z</time>
      </trkpt>
      <trkpt lat="36.808798" lon="-3.585074">
        <ele>833.410</ele>
        <time>2022-12-10T09:35:56Z</time>
      </trkpt>
      <trkpt lat="36.808790" lon="-3.585062">
        <ele>833.051</ele>
        <time>2022-12-10T09:35:57Z</time>
      </trkpt>
      <trkpt lat="36.808801" lon="-3.585018">
        <ele>833.384</ele>
        <time>2022-12-10T09:35:59Z</time>
      </trkpt>
      <trkpt lat="36.808841" lon="-3.584939">
        <ele>833.344</ele>
        <time>2022-12-10T09:36:02Z</time>
      </trkpt>
      <trkpt lat="36.808853" lon="-3.584896">
        <ele>832.679</ele>
        <time>2022-12-10T09:36:04Z</time>
      </trkpt>
      <trkpt lat="36.808843" lon="-3.584885">
        <ele>832.005</ele>
        <time>2022-12-10T09:36:05Z</time>
      </trkpt>
      <trkpt lat="36.808804" lon="-3.584894">
        <ele>830.725</ele>
        <time>2022-12-10T09:36:07Z</time>
      </trkpt>
      <trkpt lat="36.808770" lon="-3.584936">
        <ele>830.409</ele>
        <time>2022-12-10T09:36:09Z</time>
      </trkpt>
      <trkpt lat="36.808735" lon="-3.584996">
        <ele>830.318</ele>
        <time>2022-12-10T09:36:12Z</time>
      </trkpt>
      <trkpt lat="36.808730" lon="-3.584990">
        <ele>829.919</ele>
        <time>2022-12-10T09:36:13Z</time>
      </trkpt>
      <trkpt lat="36.808732" lon="-3.584968">
        <ele>829.668</ele>
        <time>2022-12-10T09:36:14Z</time>
      </trkpt>
      <trkpt lat="36.808743" lon="-3.584896">
        <ele>828.547</ele>
        <time>2022-12-10T09:36:16Z</time>
      </trkpt>
      <trkpt lat="36.808753" lon="-3.584747">
        <ele>825.679</ele>
        <time>2022-12-10T09:36:20Z</time>
      </trkpt>
      <trkpt lat="36.808783" lon="-3.584616">
        <ele>824.245</ele>
        <time>2022-12-10T09:36:24Z</time>
      </trkpt>
      <trkpt lat="36.808789" lon="-3.584550">
        <ele>823.386</ele>
        <time>2022-12-10T09:36:26Z</time>
      </trkpt>
      <trkpt lat="36.808787" lon="-3.584447">
        <ele>821.689</ele>
        <time>2022-12-10T09:36:29Z</time>
      </trkpt>
      <trkpt lat="36.808782" lon="-3.584393">
        <ele>820.689</ele>
        <time>2022-12-10T09:36:31Z</time>
      </trkpt>
      <trkpt lat="36.808755" lon="-3.584434">
        <ele>820.978</ele>
        <time>2022-12-10T09:36:34Z</time>
      </trkpt>
      <trkpt lat="36.808690" lon="-3.584551">
        <ele>821.333</ele>
        <time>2022-12-10T09:36:39Z</time>
      </trkpt>
      <trkpt lat="36.808651" lon="-3.584611">
        <ele>821.126</ele>
        <time>2022-12-10T09:36:42Z</time>
      </trkpt>
      <trkpt lat="36.808608" lon="-3.584665">
        <ele>820.509</ele>
        <time>2022-12-10T09:36:45Z</time>
      </trkpt>
      <trkpt lat="36.808563" lon="-3.584728">
        <ele>819.768</ele>
        <time>2022-12-10T09:36:48Z</time>
      </trkpt>
      <trkpt lat="36.808518" lon="-3.584777">
        <ele>818.769</ele>
        <time>2022-12-10T09:36:51Z</time>
      </trkpt>
      <trkpt lat="36.808503" lon="-3.584769">
        <ele>818.278</ele>
        <time>2022-12-10T09:36:52Z</time>
      </trkpt>
      <trkpt lat="36.808521" lon="-3.584702">
        <ele>818.317</ele>
        <time>2022-12-10T09:36:55Z</time>
      </trkpt>
      <trkpt lat="36.808538" lon="-3.584660">
        <ele>818.529</ele>
        <time>2022-12-10T09:36:57Z</time>
      </trkpt>
      <trkpt lat="36.808550" lon="-3.584609">
        <ele>818.565</ele>
        <time>2022-12-10T09:37:00Z</time>
      </trkpt>
      <trkpt lat="36.808542" lon="-3.584569">
        <ele>818.096</ele>
        <time>2022-12-10T09:37:03Z</time>
      </trkpt>
      <trkpt lat="36.808548" lon="-3.584463">
        <ele>817.569</ele>
        <time>2022-12-10T09:37:07Z</time>
      </trkpt>
      <trkpt lat="36.808536" lon="-3.584381">
        <ele>816.559</ele>
        <time>2022-12-10T09:37:10Z</time>
      </trkpt>
      <trkpt lat="36.808515" lon="-3.584291">
        <ele>814.911</ele>
        <time>2022-12-10T09:37:13Z</time>
      </trkpt>
      <trkpt lat="36.808494" lon="-3.584168">
        <ele>812.821</ele>
        <time>2022-12-10T09:37:17Z</time>
      </trkpt>
      <trkpt lat="36.808445" lon="-3.584054">
        <ele>811.403</ele>
        <time>2022-12-10T09:37:21Z</time>
      </trkpt>
      <trkpt lat="36.808422" lon="-3.583970">
        <ele>810.909</ele>
        <time>2022-12-10T09:37:24Z</time>
      </trkpt>
      <trkpt lat="36.808402" lon="-3.583945">
        <ele>810.362</ele>
        <time>2022-12-10T09:37:26Z</time>
      </trkpt>
      <trkpt lat="36.808403" lon="-3.583993">
        <ele>810.183</ele>
        <time>2022-12-10T09:37:28Z</time>
      </trkpt>
      <trkpt lat="36.808402" lon="-3.584192">
        <ele>809.982</ele>
        <time>2022-12-10T09:37:34Z</time>
      </trkpt>
      <trkpt lat="36.808382" lon="-3.584328">
        <ele>811.431</ele>
        <time>2022-12-10T09:37:39Z</time>
      </trkpt>
      <trkpt lat="36.808365" lon="-3.584359">
        <ele>811.473</ele>
        <time>2022-12-10T09:37:41Z</time>
      </trkpt>
      <trkpt lat="36.808340" lon="-3.584420">
        <ele>811.779</ele>
        <time>2022-12-10T09:37:44Z</time>
      </trkpt>
      <trkpt lat="36.808318" lon="-3.584464">
        <ele>811.470</ele>
        <time>2022-12-10T09:37:46Z</time>
      </trkpt>
      <trkpt lat="36.808252" lon="-3.584526">
        <ele>808.663</ele>
        <time>2022-12-10T09:37:50Z</time>
      </trkpt>
      <trkpt lat="36.808199" lon="-3.584562">
        <ele>806.383</ele>
        <time>2022-12-10T09:37:53Z</time>
      </trkpt>
      <trkpt lat="36.808085" lon="-3.584595">
        <ele>801.411</ele>
        <time>2022-12-10T09:37:59Z</time>
      </trkpt>
      <trkpt lat="36.808040" lon="-3.584627">
        <ele>799.721</ele>
        <time>2022-12-10T09:38:02Z</time>
      </trkpt>
      <trkpt lat="36.807958" lon="-3.584636">
        <ele>796.203</ele>
        <time>2022-12-10T09:38:06Z</time>
      </trkpt>
      <trkpt lat="36.807870" lon="-3.584662">
        <ele>792.509</ele>
        <time>2022-12-10T09:38:10Z</time>
      </trkpt>
      <trkpt lat="36.807828" lon="-3.584685">
        <ele>790.532</ele>
        <time>2022-12-10T09:38:12Z</time>
      </trkpt>
      <trkpt lat="36.807788" lon="-3.584707">
        <ele>788.673</ele>
        <time>2022-12-10T09:38:14Z</time>
      </trkpt>
      <trkpt lat="36.807776" lon="-3.584720">
        <ele>787.932</ele>
        <time>2022-12-10T09:38:15Z</time>
      </trkpt>
      <trkpt lat="36.807772" lon="-3.584712">
        <ele>787.891</ele>
        <time>2022-12-10T09:38:18Z</time>
      </trkpt>
      <trkpt lat="36.807780" lon="-3.584701">
        <ele>788.343</ele>
        <time>2022-12-10T09:38:19Z</time>
      </trkpt>
      <trkpt lat="36.807806" lon="-3.584685">
        <ele>789.539</ele>
        <time>2022-12-10T09:38:21Z</time>
      </trkpt>
      <trkpt lat="36.807847" lon="-3.584636">
        <ele>791.680</ele>
        <time>2022-12-10T09:38:24Z</time>
      </trkpt>
      <trkpt lat="36.807896" lon="-3.584582">
        <ele>793.733</ele>
        <time>2022-12-10T09:38:27Z</time>
      </trkpt>
      <trkpt lat="36.807927" lon="-3.584555">
        <ele>794.933</ele>
        <time>2022-12-10T09:38:29Z</time>
      </trkpt>
      <trkpt lat="36.808022" lon="-3.584484">
        <ele>798.159</ele>
        <time>2022-12-10T09:38:34Z</time>
      </trkpt>
      <trkpt lat="36.808059" lon="-3.584442">
        <ele>799.103</ele>
        <time>2022-12-10T09:38:37Z</time>
      </trkpt>
      <trkpt lat="36.808099" lon="-3.584364">
        <ele>799.823</ele>
        <time>2022-12-10T09:38:41Z</time>
      </trkpt>
      <trkpt lat="36.808107" lon="-3.584289">
        <ele>799.109</ele>
        <time>2022-12-10T09:38:44Z</time>
      </trkpt>
      <trkpt lat="36.808091" lon="-3.584224">
        <ele>797.436</ele>
        <time>2022-12-10T09:38:47Z</time>
      </trkpt>
      <trkpt lat="36.808063" lon="-3.584107">
        <ele>794.987</ele>
        <time>2022-12-10T09:38:52Z</time>
      </trkpt>
      <trkpt lat="36.808053" lon="-3.584002">
        <ele>793.776</ele>
        <time>2022-12-10T09:38:56Z</time>
      </trkpt>
      <trkpt lat="36.808050" lon="-3.583990">
        <ele>793.525</ele>
        <time>2022-12-10T09:38:57Z</time>
      </trkpt>
      <trkpt lat="36.808026" lon="-3.583997">
        <ele>792.397</ele>
        <time>2022-12-10T09:38:59Z</time>
      </trkpt>
      <trkpt lat="36.807998" lon="-3.584084">
        <ele>791.953</ele>
        <time>2022-12-10T09:39:04Z</time>
      </trkpt>
      <trkpt lat="36.808001" lon="-3.584096">
        <ele>792.134</ele>
        <time>2022-12-10T09:39:05Z</time>
      </trkpt>
      <trkpt lat="36.808007" lon="-3.584118">
        <ele>792.637</ele>
        <time>2022-12-10T09:39:07Z</time>
      </trkpt>
      <trkpt lat="36.808010" lon="-3.584157">
        <ele>793.137</ele>
        <time>2022-12-10T09:39:10Z</time>
      </trkpt>
      <trkpt lat="36.808010" lon="-3.584164">
        <ele>793.248</ele>
        <time>2022-12-10T09:39:11Z</time>
      </trkpt>
      <trkpt lat="36.807975" lon="-3.584174">
        <ele>791.961</ele>
        <time>2022-12-10T09:39:30Z</time>
      </trkpt>
      <trkpt lat="36.807990" lon="-3.584190">
        <ele>792.817</ele>
        <time>2022-12-10T09:39:38Z</time>
      </trkpt>
      <trkpt lat="36.807978" lon="-3.584241">
        <ele>793.109</ele>
        <time>2022-12-10T09:40:18Z</time>
      </trkpt>
      <trkpt lat="36.807976" lon="-3.584241">
        <ele>793.115</ele>
        <time>2022-12-10T09:41:03Z</time>
      </trkpt>
      <trkpt lat="36.807942" lon="-3.584314">
        <ele>793.146</ele>
        <time>2022-12-10T09:41:13Z</time>
      </trkpt>
      <trkpt lat="36.807902" lon="-3.584300">
        <ele>791.465</ele>
        <time>2022-12-10T09:41:16Z</time>
      </trkpt>
      <trkpt lat="36.807817" lon="-3.584272">
        <ele>787.724</ele>
        <time>2022-12-10T09:41:22Z</time>
      </trkpt>
      <trkpt lat="36.807767" lon="-3.584287">
        <ele>785.946</ele>
        <time>2022-12-10T09:41:26Z</time>
      </trkpt>
      <trkpt lat="36.807728" lon="-3.584306">
        <ele>784.032</ele>
        <time>2022-12-10T09:41:30Z</time>
      </trkpt>
      <trkpt lat="36.807706" lon="-3.584311">
        <ele>782.813</ele>
        <time>2022-12-10T09:41:32Z</time>
      </trkpt>
      <trkpt lat="36.807672" lon="-3.584319">
        <ele>780.916</ele>
        <time>2022-12-10T09:41:35Z</time>
      </trkpt>
      <trkpt lat="36.807630" lon="-3.584325">
        <ele>778.666</ele>
        <time>2022-12-10T09:41:39Z</time>
      </trkpt>
      <trkpt lat="36.807622" lon="-3.584328">
        <ele>778.236</ele>
        <time>2022-12-10T09:41:41Z</time>
      </trkpt>
      <trkpt lat="36.807612" lon="-3.584312">
        <ele>777.117</ele>
        <time>2022-12-10T09:41:46Z</time>
      </trkpt>
      <trkpt lat="36.807555" lon="-3.584283">
        <ele>772.518</ele>
        <time>2022-12-10T09:41:56Z</time>
      </trkpt>
      <trkpt lat="36.807531" lon="-3.584299">
        <ele>771.609</ele>
        <time>2022-12-10T09:41:58Z</time>
      </trkpt>
      <trkpt lat="36.807460" lon="-3.584342">
        <ele>769.754</ele>
        <time>2022-12-10T09:42:03Z</time>
      </trkpt>
      <trkpt lat="36.807389" lon="-3.584385">
        <ele>768.585</ele>
        <time>2022-12-10T09:42:07Z</time>
      </trkpt>
      <trkpt lat="36.807355" lon="-3.584416">
        <ele>768.424</ele>
        <time>2022-12-10T09:42:10Z</time>
      </trkpt>
      <trkpt lat="36.807302" lon="-3.584458">
        <ele>767.543</ele>
        <time>2022-12-10T09:42:14Z</time>
      </trkpt>
      <trkpt lat="36.807274" lon="-3.584465">
        <ele>766.325</ele>
        <time>2022-12-10T09:42:16Z</time>
      </trkpt>
      <trkpt lat="36.807257" lon="-3.584483">
        <ele>765.621</ele>
        <time>2022-12-10T09:42:19Z</time>
      </trkpt>
      <trkpt lat="36.807273" lon="-3.584460">
        <ele>766.212</ele>
        <time>2022-12-10T09:42:21Z</time>
      </trkpt>
      <trkpt lat="36.807328" lon="-3.584389">
        <ele>765.965</ele>
        <time>2022-12-10T09:42:25Z</time>
      </trkpt>
      <trkpt lat="36.807357" lon="-3.584337">
        <ele>764.865</ele>
        <time>2022-12-10T09:42:28Z</time>
      </trkpt>
      <trkpt lat="36.807374" lon="-3.584322">
        <ele>764.936</ele>
        <time>2022-12-10T09:42:30Z</time>
      </trkpt>
      <trkpt lat="36.807442" lon="-3.584261">
        <ele>765.317</ele>
        <time>2022-12-10T09:42:34Z</time>
      </trkpt>
      <trkpt lat="36.807498" lon="-3.584209">
        <ele>765.718</ele>
        <time>2022-12-10T09:42:37Z</time>
      </trkpt>
      <trkpt lat="36.807541" lon="-3.584158">
        <ele>766.809</ele>
        <time>2022-12-10T09:42:40Z</time>
      </trkpt>
      <trkpt lat="36.807572" lon="-3.584136">
        <ele>768.724</ele>
        <time>2022-12-10T09:42:42Z</time>
      </trkpt>
      <trkpt lat="36.807582" lon="-3.584121">
        <ele>769.155</ele>
        <time>2022-12-10T09:42:43Z</time>
      </trkpt>
      <trkpt lat="36.807537" lon="-3.584124">
        <ele>766.044</ele>
        <time>2022-12-10T09:42:46Z</time>
      </trkpt>
      <trkpt lat="36.807493" lon="-3.584136">
        <ele>763.263</ele>
        <time>2022-12-10T09:42:48Z</time>
      </trkpt>
      <trkpt lat="36.807449" lon="-3.584159">
        <ele>761.395</ele>
        <time>2022-12-10T09:42:50Z</time>
      </trkpt>
      <trkpt lat="36.807333" lon="-3.584196">
        <ele>757.051</ele>
        <time>2022-12-10T09:42:55Z</time>
      </trkpt>
      <trkpt lat="36.807301" lon="-3.584201">
        <ele>755.612</ele>
        <time>2022-12-10T09:42:57Z</time>
      </trkpt>
      <trkpt lat="36.807290" lon="-3.584214">
        <ele>755.785</ele>
        <time>2022-12-10T09:42:58Z</time>
      </trkpt>
      <trkpt lat="36.807268" lon="-3.584253">
        <ele>756.695</ele>
        <time>2022-12-10T09:43:00Z</time>
      </trkpt>
      <trkpt lat="36.807219" lon="-3.584282">
        <ele>755.658</ele>
        <time>2022-12-10T09:43:04Z</time>
      </trkpt>
      <trkpt lat="36.807206" lon="-3.584287">
        <ele>755.252</ele>
        <time>2022-12-10T09:43:05Z</time>
      </trkpt>
      <trkpt lat="36.807170" lon="-3.584309">
        <ele>754.317</ele>
        <time>2022-12-10T09:43:08Z</time>
      </trkpt>
      <trkpt lat="36.807163" lon="-3.584315">
        <ele>754.209</ele>
        <time>2022-12-10T09:43:09Z</time>
      </trkpt>
      <trkpt lat="36.807170" lon="-3.584298">
        <ele>753.726</ele>
        <time>2022-12-10T09:43:13Z</time>
      </trkpt>
      <trkpt lat="36.807173" lon="-3.584295">
        <ele>753.747</ele>
        <time>2022-12-10T09:43:14Z</time>
      </trkpt>
      <trkpt lat="36.807178" lon="-3.584296">
        <ele>754.166</ele>
        <time>2022-12-10T09:43:15Z</time>
      </trkpt>
      <trkpt lat="36.807201" lon="-3.584246">
        <ele>752.885</ele>
        <time>2022-12-10T09:43:20Z</time>
      </trkpt>
      <trkpt lat="36.807218" lon="-3.584223">
        <ele>752.617</ele>
        <time>2022-12-10T09:43:23Z</time>
      </trkpt>
      <trkpt lat="36.807245" lon="-3.584180">
        <ele>751.833</ele>
        <time>2022-12-10T09:43:27Z</time>
      </trkpt>
      <trkpt lat="36.807278" lon="-3.584139">
        <ele>752.224</ele>
        <time>2022-12-10T09:43:29Z</time>
      </trkpt>
      <trkpt lat="36.807298" lon="-3.584122">
        <ele>752.857</ele>
        <time>2022-12-10T09:43:31Z</time>
      </trkpt>
      <trkpt lat="36.807309" lon="-3.584126">
        <ele>753.527</ele>
        <time>2022-12-10T09:43:33Z</time>
      </trkpt>
      <trkpt lat="36.807313" lon="-3.584101">
        <ele>753.248</ele>
        <time>2022-12-10T09:43:37Z</time>
      </trkpt>
      <trkpt lat="36.807279" lon="-3.584110">
        <ele>751.661</ele>
        <time>2022-12-10T09:43:39Z</time>
      </trkpt>
      <trkpt lat="36.807188" lon="-3.584171">
        <ele>748.417</ele>
        <time>2022-12-10T09:43:43Z</time>
      </trkpt>
      <trkpt lat="36.807141" lon="-3.584200">
        <ele>747.309</ele>
        <time>2022-12-10T09:43:45Z</time>
      </trkpt>
      <trkpt lat="36.807081" lon="-3.584249">
        <ele>746.445</ele>
        <time>2022-12-10T09:43:48Z</time>
      </trkpt>
      <trkpt lat="36.807014" lon="-3.584275">
        <ele>743.956</ele>
        <time>2022-12-10T09:43:52Z</time>
      </trkpt>
      <trkpt lat="36.806994" lon="-3.584267">
        <ele>742.415</ele>
        <time>2022-12-10T09:43:53Z</time>
      </trkpt>
      <trkpt lat="36.806956" lon="-3.584259">
        <ele>740.034</ele>
        <time>2022-12-10T09:43:55Z</time>
      </trkpt>
      <trkpt lat="36.806886" lon="-3.584263">
        <ele>736.376</ele>
        <time>2022-12-10T09:43:59Z</time>
      </trkpt>
      <trkpt lat="36.806842" lon="-3.584269">
        <ele>734.212</ele>
        <time>2022-12-10T09:44:02Z</time>
      </trkpt>
      <trkpt lat="36.806832" lon="-3.584269">
        <ele>733.753</ele>
        <time>2022-12-10T09:44:03Z</time>
      </trkpt>
      <trkpt lat="36.806824" lon="-3.584251">
        <ele>732.586</ele>
        <time>2022-12-10T09:44:06Z</time>
      </trkpt>
      <trkpt lat="36.806825" lon="-3.584264">
        <ele>733.126</ele>
        <time>2022-12-10T09:44:13Z</time>
      </trkpt>
      <trkpt lat="36.807006" lon="-3.584200">
        <ele>739.999</ele>
        <time>2022-12-10T09:45:00Z</time>
      </trkpt>
      <trkpt lat="36.806970" lon="-3.584202">
        <ele>738.007</ele>
        <time>2022-12-10T09:45:12Z</time>
      </trkpt>
      <trkpt lat="36.806948" lon="-3.584237">
        <ele>738.527</ele>
        <time>2022-12-10T09:45:17Z</time>
      </trkpt>
      <trkpt lat="36.806922" lon="-3.584224">
        <ele>736.509</ele>
        <time>2022-12-10T09:46:05Z</time>
      </trkpt>
      <trkpt lat="36.806976" lon="-3.584126">
        <ele>735.840</ele>
        <time>2022-12-10T09:47:04Z</time>
      </trkpt>
      <trkpt lat="36.806981" lon="-3.584100">
        <ele>735.581</ele>
        <time>2022-12-10T09:47:10Z</time>
      </trkpt>
      <trkpt lat="36.806977" lon="-3.584095">
        <ele>735.280</ele>
        <time>2022-12-10T09:47:11Z</time>
      </trkpt>
      <trkpt lat="36.806975" lon="-3.584076">
        <ele>734.789</ele>
        <time>2022-12-10T09:47:13Z</time>
      </trkpt>
      <trkpt lat="36.806986" lon="-3.584051">
        <ele>734.731</ele>
        <time>2022-12-10T09:47:16Z</time>
      </trkpt>
      <trkpt lat="36.806994" lon="-3.584032">
        <ele>734.777</ele>
        <time>2022-12-10T09:47:18Z</time>
      </trkpt>
      <trkpt lat="36.807008" lon="-3.584013">
        <ele>735.038</ele>
        <time>2022-12-10T09:47:21Z</time>
      </trkpt>
      <trkpt lat="36.807034" lon="-3.584007">
        <ele>736.221</ele>
        <time>2022-12-10T09:47:25Z</time>
      </trkpt>
      <trkpt lat="36.807071" lon="-3.583932">
        <ele>736.411</ele>
        <time>2022-12-10T09:47:31Z</time>
      </trkpt>
      <trkpt lat="36.807068" lon="-3.583929">
        <ele>736.269</ele>
        <time>2022-12-10T09:47:36Z</time>
      </trkpt>
      <trkpt lat="36.807061" lon="-3.583934">
        <ele>735.904</ele>
        <time>2022-12-10T09:47:37Z</time>
      </trkpt>
      <trkpt lat="36.807037" lon="-3.583963">
        <ele>735.424</ele>
        <time>2022-12-10T09:47:40Z</time>
      </trkpt>
      <trkpt lat="36.806987" lon="-3.584003">
        <ele>733.709</ele>
        <time>2022-12-10T09:47:44Z</time>
      </trkpt>
      <trkpt lat="36.806956" lon="-3.584018">
        <ele>732.497</ele>
        <time>2022-12-10T09:47:46Z</time>
      </trkpt>
      <trkpt lat="36.806900" lon="-3.584061">
        <ele>730.688</ele>
        <time>2022-12-10T09:47:50Z</time>
      </trkpt>
      <trkpt lat="36.806898" lon="-3.584037">
        <ele>730.097</ele>
        <time>2022-12-10T09:47:51Z</time>
      </trkpt>
      <trkpt lat="36.806930" lon="-3.583984">
        <ele>730.416</ele>
        <time>2022-12-10T09:47:53Z</time>
      </trkpt>
      <trkpt lat="36.806947" lon="-3.583916">
        <ele>729.788</ele>
        <time>2022-12-10T09:47:55Z</time>
      </trkpt>
      <trkpt lat="36.806938" lon="-3.583891">
        <ele>728.894</ele>
        <time>2022-12-10T09:47:56Z</time>
      </trkpt>
      <trkpt lat="36.806899" lon="-3.583852">
        <ele>727.145</ele>
        <time>2022-12-10T09:47:58Z</time>
      </trkpt>
      <trkpt lat="36.806865" lon="-3.583822">
        <ele>725.798</ele>
        <time>2022-12-10T09:48:00Z</time>
      </trkpt>
      <trkpt lat="36.806825" lon="-3.583772">
        <ele>724.128</ele>
        <time>2022-12-10T09:48:02Z</time>
      </trkpt>
      <trkpt lat="36.806754" lon="-3.583663">
        <ele>721.041</ele>
        <time>2022-12-10T09:48:06Z</time>
      </trkpt>
      <trkpt lat="36.806701" lon="-3.583649">
        <ele>718.681</ele>
        <time>2022-12-10T09:48:08Z</time>
      </trkpt>
      <trkpt lat="36.806656" lon="-3.583647">
        <ele>716.609</ele>
        <time>2022-12-10T09:48:10Z</time>
      </trkpt>
      <trkpt lat="36.806653" lon="-3.583660">
        <ele>716.509</ele>
        <time>2022-12-10T09:48:11Z</time>
      </trkpt>
      <trkpt lat="36.806695" lon="-3.583707">
        <ele>718.395</ele>
        <time>2022-12-10T09:48:14Z</time>
      </trkpt>
      <trkpt lat="36.806705" lon="-3.583731">
        <ele>718.796</ele>
        <time>2022-12-10T09:48:15Z</time>
      </trkpt>
      <trkpt lat="36.806700" lon="-3.583824">
        <ele>718.595</ele>
        <time>2022-12-10T09:48:17Z</time>
      </trkpt>
      <trkpt lat="36.806692" lon="-3.583917">
        <ele>718.564</ele>
        <time>2022-12-10T09:48:19Z</time>
      </trkpt>
      <trkpt lat="36.806694" lon="-3.583956">
        <ele>719.236</ele>
        <time>2022-12-10T09:48:20Z</time>
      </trkpt>
      <trkpt lat="36.806687" lon="-3.583995">
        <ele>719.572</ele>
        <time>2022-12-10T09:48:21Z</time>
      </trkpt>
      <trkpt lat="36.806665" lon="-3.584037">
        <ele>719.143</ele>
        <time>2022-12-10T09:48:23Z</time>
      </trkpt>
      <trkpt lat="36.806650" lon="-3.584042">
        <ele>718.546</ele>
        <time>2022-12-10T09:48:24Z</time>
      </trkpt>
      <trkpt lat="36.806626" lon="-3.584046">
        <ele>717.686</ele>
        <time>2022-12-10T09:48:25Z</time>
      </trkpt>
      <trkpt lat="36.806559" lon="-3.584035">
        <ele>714.614</ele>
        <time>2022-12-10T09:48:28Z</time>
      </trkpt>
      <trkpt lat="36.806508" lon="-3.584028">
        <ele>712.454</ele>
        <time>2022-12-10T09:48:30Z</time>
      </trkpt>
      <trkpt lat="36.806418" lon="-3.584034">
        <ele>708.809</ele>
        <time>2022-12-10T09:48:33Z</time>
      </trkpt>
      <trkpt lat="36.806336" lon="-3.584059">
        <ele>705.009</ele>
        <time>2022-12-10T09:48:36Z</time>
      </trkpt>
      <trkpt lat="36.806266" lon="-3.584088">
        <ele>701.842</ele>
        <time>2022-12-10T09:48:39Z</time>
      </trkpt>
      <trkpt lat="36.806245" lon="-3.584075">
        <ele>700.463</ele>
        <time>2022-12-10T09:48:40Z</time>
      </trkpt>
      <trkpt lat="36.806244" lon="-3.584059">
        <ele>700.092</ele>
        <time>2022-12-10T09:48:41Z</time>
      </trkpt>
      <trkpt lat="36.806284" lon="-3.584002">
        <ele>701.241</ele>
        <time>2022-12-10T09:48:44Z</time>
      </trkpt>
      <trkpt lat="36.806314" lon="-3.583955">
        <ele>702.273</ele>
        <time>2022-12-10T09:48:46Z</time>
      </trkpt>
      <trkpt lat="36.806366" lon="-3.583894">
        <ele>704.659</ele>
        <time>2022-12-10T09:48:49Z</time>
      </trkpt>
      <trkpt lat="36.806375" lon="-3.583872">
        <ele>705.280</ele>
        <time>2022-12-10T09:48:50Z</time>
      </trkpt>
      <trkpt lat="36.806352" lon="-3.583872">
        <ele>703.743</ele>
        <time>2022-12-10T09:48:52Z</time>
      </trkpt>
      <trkpt lat="36.806302" lon="-3.583903">
        <ele>700.623</ele>
        <time>2022-12-10T09:48:54Z</time>
      </trkpt>
      <trkpt lat="36.806210" lon="-3.583950">
        <ele>695.891</ele>
        <time>2022-12-10T09:48:58Z</time>
      </trkpt>
      <trkpt lat="36.806105" lon="-3.583993">
        <ele>690.781</ele>
        <time>2022-12-10T09:49:02Z</time>
      </trkpt>
      <trkpt lat="36.806032" lon="-3.584002">
        <ele>687.519</ele>
        <time>2022-12-10T09:49:05Z</time>
      </trkpt>
      <trkpt lat="36.805981" lon="-3.583999">
        <ele>685.009</ele>
        <time>2022-12-10T09:49:07Z</time>
      </trkpt>
      <trkpt lat="36.805923" lon="-3.583995">
        <ele>682.150</ele>
        <time>2022-12-10T09:49:09Z</time>
      </trkpt>
      <trkpt lat="36.805845" lon="-3.584000">
        <ele>678.671</ele>
        <time>2022-12-10T09:49:12Z</time>
      </trkpt>
      <trkpt lat="36.805810" lon="-3.583992">
        <ele>677.530</ele>
        <time>2022-12-10T09:49:14Z</time>
      </trkpt>
      <trkpt lat="36.805819" lon="-3.583980">
        <ele>677.279</ele>
        <time>2022-12-10T09:49:15Z</time>
      </trkpt>
      <trkpt lat="36.805912" lon="-3.583956">
        <ele>680.271</ele>
        <time>2022-12-10T09:49:19Z</time>
      </trkpt>
      <trkpt lat="36.805976" lon="-3.583943">
        <ele>682.967</ele>
        <time>2022-12-10T09:49:22Z</time>
      </trkpt>
      <trkpt lat="36.806050" lon="-3.583909">
        <ele>685.578</ele>
        <time>2022-12-10T09:49:25Z</time>
      </trkpt>
      <trkpt lat="36.806069" lon="-3.583878">
        <ele>686.091</ele>
        <time>2022-12-10T09:49:26Z</time>
      </trkpt>
      <trkpt lat="36.806069" lon="-3.583810">
        <ele>686.421</ele>
        <time>2022-12-10T09:49:28Z</time>
      </trkpt>
      <trkpt lat="36.806032" lon="-3.583714">
        <ele>685.132</ele>
        <time>2022-12-10T09:49:32Z</time>
      </trkpt>
      <trkpt lat="36.805971" lon="-3.583629">
        <ele>682.392</ele>
        <time>2022-12-10T09:49:36Z</time>
      </trkpt>
      <trkpt lat="36.805946" lon="-3.583541">
        <ele>682.511</ele>
        <time>2022-12-10T09:49:39Z</time>
      </trkpt>
      <trkpt lat="36.805930" lon="-3.583521">
        <ele>682.109</ele>
        <time>2022-12-10T09:49:40Z</time>
      </trkpt>
      <trkpt lat="36.805902" lon="-3.583507">
        <ele>680.994</ele>
        <time>2022-12-10T09:49:41Z</time>
      </trkpt>
      <trkpt lat="36.805848" lon="-3.583489">
        <ele>678.465</ele>
        <time>2022-12-10T09:49:43Z</time>
      </trkpt>
      <trkpt lat="36.805756" lon="-3.583432">
        <ele>676.014</ele>
        <time>2022-12-10T09:49:47Z</time>
      </trkpt>
      <trkpt lat="36.805682" lon="-3.583394">
        <ele>673.933</ele>
        <time>2022-12-10T09:49:50Z</time>
      </trkpt>
      <trkpt lat="36.805632" lon="-3.583363">
        <ele>672.595</ele>
        <time>2022-12-10T09:49:52Z</time>
      </trkpt>
      <trkpt lat="36.805571" lon="-3.583335">
        <ele>670.681</ele>
        <time>2022-12-10T09:49:54Z</time>
      </trkpt>
      <trkpt lat="36.805505" lon="-3.583336">
        <ele>668.012</ele>
        <time>2022-12-10T09:49:56Z</time>
      </trkpt>
      <trkpt lat="36.805416" lon="-3.583341">
        <ele>664.455</ele>
        <time>2022-12-10T09:49:59Z</time>
      </trkpt>
      <trkpt lat="36.805455" lon="-3.583381">
        <ele>665.415</ele>
        <time>2022-12-10T09:50:02Z</time>
      </trkpt>
      <trkpt lat="36.805515" lon="-3.583442">
        <ele>666.986</ele>
        <time>2022-12-10T09:50:05Z</time>
      </trkpt>
      <trkpt lat="36.805524" lon="-3.583473">
        <ele>666.860</ele>
        <time>2022-12-10T09:50:06Z</time>
      </trkpt>
      <trkpt lat="36.805552" lon="-3.583535">
        <ele>667.026</ele>
        <time>2022-12-10T09:50:08Z</time>
      </trkpt>
      <trkpt lat="36.805603" lon="-3.583621">
        <ele>667.709</ele>
        <time>2022-12-10T09:50:11Z</time>
      </trkpt>
      <trkpt lat="36.805604" lon="-3.583686">
        <ele>669.159</ele>
        <time>2022-12-10T09:50:13Z</time>
      </trkpt>
      <trkpt lat="36.805577" lon="-3.583710">
        <ele>669.060</ele>
        <time>2022-12-10T09:50:15Z</time>
      </trkpt>
      <trkpt lat="36.805469" lon="-3.583721">
        <ele>666.479</ele>
        <time>2022-12-10T09:50:19Z</time>
      </trkpt>
      <trkpt lat="36.805389" lon="-3.583749">
        <ele>665.398</ele>
        <time>2022-12-10T09:50:22Z</time>
      </trkpt>
      <trkpt lat="36.805328" lon="-3.583775">
        <ele>664.820</ele>
        <time>2022-12-10T09:50:24Z</time>
      </trkpt>
      <trkpt lat="36.805266" lon="-3.583785">
        <ele>663.696</ele>
        <time>2022-12-10T09:50:26Z</time>
      </trkpt>
      <trkpt lat="36.805197" lon="-3.583788">
        <ele>660.937</ele>
        <time>2022-12-10T09:50:28Z</time>
      </trkpt>
      <trkpt lat="36.805168" lon="-3.583780">
        <ele>659.370</ele>
        <time>2022-12-10T09:50:29Z</time>
      </trkpt>
      <trkpt lat="36.805116" lon="-3.583756">
        <ele>656.190</ele>
        <time>2022-12-10T09:50:31Z</time>
      </trkpt>
      <trkpt lat="36.805025" lon="-3.583710">
        <ele>650.336</ele>
        <time>2022-12-10T09:50:34Z</time>
      </trkpt>
      <trkpt lat="36.804927" lon="-3.583741">
        <ele>647.417</ele>
        <time>2022-12-10T09:50:37Z</time>
      </trkpt>
      <trkpt lat="36.804829" lon="-3.583739">
        <ele>642.918</ele>
        <time>2022-12-10T09:50:40Z</time>
      </trkpt>
      <trkpt lat="36.804799" lon="-3.583724">
        <ele>641.009</ele>
        <time>2022-12-10T09:50:41Z</time>
      </trkpt>
      <trkpt lat="36.804749" lon="-3.583683">
        <ele>637.574</ele>
        <time>2022-12-10T09:50:43Z</time>
      </trkpt>
      <trkpt lat="36.804718" lon="-3.583662">
        <ele>635.525</ele>
        <time>2022-12-10T09:50:45Z</time>
      </trkpt>
      <trkpt lat="36.804702" lon="-3.583660">
        <ele>634.734</ele>
        <time>2022-12-10T09:50:46Z</time>
      </trkpt>
      <trkpt lat="36.804681" lon="-3.583673">
        <ele>634.233</ele>
        <time>2022-12-10T09:50:48Z</time>
      </trkpt>
      <trkpt lat="36.804634" lon="-3.583690">
        <ele>632.735</ele>
        <time>2022-12-10T09:50:52Z</time>
      </trkpt>
      <trkpt lat="36.804573" lon="-3.583723">
        <ele>631.231</ele>
        <time>2022-12-10T09:50:57Z</time>
      </trkpt>
      <trkpt lat="36.804449" lon="-3.583797">
        <ele>628.232</ele>
        <time>2022-12-10T09:51:03Z</time>
      </trkpt>
      <trkpt lat="36.804273" lon="-3.583811">
        <ele>627.275</ele>
        <time>2022-12-10T09:51:11Z</time>
      </trkpt>
      <trkpt lat="36.804217" lon="-3.583765">
        <ele>624.795</ele>
        <time>2022-12-10T09:51:14Z</time>
      </trkpt>
      <trkpt lat="36.804198" lon="-3.583750">
        <ele>623.845</ele>
        <time>2022-12-10T09:51:15Z</time>
      </trkpt>
      <trkpt lat="36.804174" lon="-3.583737">
        <ele>623.047</ele>
        <time>2022-12-10T09:51:16Z</time>
      </trkpt>
      <trkpt lat="36.804132" lon="-3.583710">
        <ele>620.611</ele>
        <time>2022-12-10T09:51:18Z</time>
      </trkpt>
      <trkpt lat="36.804080" lon="-3.583699">
        <ele>618.509</ele>
        <time>2022-12-10T09:51:20Z</time>
      </trkpt>
      <trkpt lat="36.803992" lon="-3.583701">
        <ele>616.025</ele>
        <time>2022-12-10T09:51:23Z</time>
      </trkpt>
      <trkpt lat="36.803922" lon="-3.583679">
        <ele>612.716</ele>
        <time>2022-12-10T09:51:26Z</time>
      </trkpt>
      <trkpt lat="36.803876" lon="-3.583647">
        <ele>609.645</ele>
        <time>2022-12-10T09:51:28Z</time>
      </trkpt>
      <trkpt lat="36.803824" lon="-3.583610">
        <ele>606.334</ele>
        <time>2022-12-10T09:51:30Z</time>
      </trkpt>
      <trkpt lat="36.803690" lon="-3.583605">
        <ele>602.846</ele>
        <time>2022-12-10T09:51:35Z</time>
      </trkpt>
      <trkpt lat="36.803637" lon="-3.583679">
        <ele>605.522</ele>
        <time>2022-12-10T09:51:38Z</time>
      </trkpt>
      <trkpt lat="36.803585" lon="-3.583808">
        <ele>611.313</ele>
        <time>2022-12-10T09:51:42Z</time>
      </trkpt>
      <trkpt lat="36.803575" lon="-3.583843">
        <ele>612.826</ele>
        <time>2022-12-10T09:51:44Z</time>
      </trkpt>
      <trkpt lat="36.803543" lon="-3.583879">
        <ele>613.166</ele>
        <time>2022-12-10T09:51:56Z</time>
      </trkpt>
      <trkpt lat="36.803491" lon="-3.583996">
        <ele>611.936</ele>
        <time>2022-12-10T09:52:04Z</time>
      </trkpt>
      <trkpt lat="36.803475" lon="-3.584049">
        <ele>611.617</ele>
        <time>2022-12-10T09:52:07Z</time>
      </trkpt>
      <trkpt lat="36.803470" lon="-3.584066">
        <ele>611.518</ele>
        <time>2022-12-10T09:52:08Z</time>
      </trkpt>
      <trkpt lat="36.803459" lon="-3.584152">
        <ele>611.709</ele>
        <time>2022-12-10T09:52:12Z</time>
      </trkpt>
      <trkpt lat="36.803420" lon="-3.584367">
        <ele>608.154</ele>
        <time>2022-12-10T09:52:21Z</time>
      </trkpt>
      <trkpt lat="36.803432" lon="-3.584370">
        <ele>608.735</ele>
        <time>2022-12-10T09:52:26Z</time>
      </trkpt>
      <trkpt lat="36.803434" lon="-3.584611">
        <ele>605.484</ele>
        <time>2022-12-10T09:52:41Z</time>
      </trkpt>
      <trkpt lat="36.803439" lon="-3.584641">
        <ele>605.113</ele>
        <time>2022-12-10T09:52:42Z</time>
      </trkpt>
      <trkpt lat="36.803470" lon="-3.584806">
        <ele>603.185</ele>
        <time>2022-12-10T09:52:48Z</time>
      </trkpt>
      <trkpt lat="36.803473" lon="-3.584829">
        <ele>602.721</ele>
        <time>2022-12-10T09:52:51Z</time>
      </trkpt>
      <trkpt lat="36.803501" lon="-3.584872">
        <ele>602.942</ele>
        <time>2022-12-10T09:52:54Z</time>
      </trkpt>
      <trkpt lat="36.803575" lon="-3.584941">
        <ele>604.695</ele>
        <time>2022-12-10T09:52:58Z</time>
      </trkpt>
      <trkpt lat="36.803584" lon="-3.584954">
        <ele>604.745</ele>
        <time>2022-12-10T09:53:00Z</time>
      </trkpt>
      <trkpt lat="36.803583" lon="-3.584953">
        <ele>604.739</ele>
        <time>2022-12-10T09:53:01Z</time>
      </trkpt>
      <trkpt lat="36.803579" lon="-3.584969">
        <ele>604.201</ele>
        <time>2022-12-10T09:53:02Z</time>
      </trkpt>
      <trkpt lat="36.803604" lon="-3.584985">
        <ele>605.021</ele>
        <time>2022-12-10T09:53:09Z</time>
      </trkpt>
      <trkpt lat="36.803709" lon="-3.584972">
        <ele>608.809</ele>
        <time>2022-12-10T09:53:50Z</time>
      </trkpt>
      <trkpt lat="36.803721" lon="-3.584983">
        <ele>608.914</ele>
        <time>2022-12-10T09:53:59Z</time>
      </trkpt>
      <trkpt lat="36.803765" lon="-3.585020">
        <ele>609.455</ele>
        <time>2022-12-10T09:54:48Z</time>
      </trkpt>
      <trkpt lat="36.803808" lon="-3.585064">
        <ele>609.534</ele>
        <time>2022-12-10T09:54:52Z</time>
      </trkpt>
      <trkpt lat="36.803938" lon="-3.585189">
        <ele>610.173</ele>
        <time>2022-12-10T09:54:58Z</time>
      </trkpt>
      <trkpt lat="36.804063" lon="-3.585344">
        <ele>607.765</ele>
        <time>2022-12-10T09:55:03Z</time>
      </trkpt>
      <trkpt lat="36.804246" lon="-3.585430">
        <ele>609.231</ele>
        <time>2022-12-10T09:55:09Z</time>
      </trkpt>
      <trkpt lat="36.804300" lon="-3.585471">
        <ele>609.272</ele>
        <time>2022-12-10T09:55:11Z</time>
      </trkpt>
      <trkpt lat="36.804456" lon="-3.585567">
        <ele>611.035</ele>
        <time>2022-12-10T09:55:17Z</time>
      </trkpt>
      <trkpt lat="36.804568" lon="-3.585632">
        <ele>612.955</ele>
        <time>2022-12-10T09:55:21Z</time>
      </trkpt>
      <trkpt lat="36.804711" lon="-3.585785">
        <ele>616.843</ele>
        <time>2022-12-10T09:55:27Z</time>
      </trkpt>
      <trkpt lat="36.804732" lon="-3.585806">
        <ele>617.764</ele>
        <time>2022-12-10T09:55:28Z</time>
      </trkpt>
      <trkpt lat="36.804747" lon="-3.585832">
        <ele>618.210</ele>
        <time>2022-12-10T09:55:29Z</time>
      </trkpt>
      <trkpt lat="36.804749" lon="-3.585886">
        <ele>619.909</ele>
        <time>2022-12-10T09:55:31Z</time>
      </trkpt>
      <trkpt lat="36.804700" lon="-3.585933">
        <ele>619.095</ele>
        <time>2022-12-10T09:55:34Z</time>
      </trkpt>
      <trkpt lat="36.804580" lon="-3.585933">
        <ele>612.576</ele>
        <time>2022-12-10T09:55:38Z</time>
      </trkpt>
      <trkpt lat="36.804465" lon="-3.585961">
        <ele>607.265</ele>
        <time>2022-12-10T09:55:42Z</time>
      </trkpt>
      <trkpt lat="36.804387" lon="-3.586005">
        <ele>604.434</ele>
        <time>2022-12-10T09:55:45Z</time>
      </trkpt>
      <trkpt lat="36.804311" lon="-3.586035">
        <ele>601.016</ele>
        <time>2022-12-10T09:55:48Z</time>
      </trkpt>
      <trkpt lat="36.804204" lon="-3.586053">
        <ele>595.312</ele>
        <time>2022-12-10T09:55:52Z</time>
      </trkpt>
      <trkpt lat="36.804111" lon="-3.586072">
        <ele>591.573</ele>
        <time>2022-12-10T09:55:55Z</time>
      </trkpt>
      <trkpt lat="36.804019" lon="-3.586088">
        <ele>588.476</ele>
        <time>2022-12-10T09:55:58Z</time>
      </trkpt>
      <trkpt lat="36.803873" lon="-3.586100">
        <ele>583.626</ele>
        <time>2022-12-10T09:56:03Z</time>
      </trkpt>
      <trkpt lat="36.803779" lon="-3.586091">
        <ele>581.455</ele>
        <time>2022-12-10T09:56:06Z</time>
      </trkpt>
      <trkpt lat="36.803596" lon="-3.586121">
        <ele>577.707</ele>
        <time>2022-12-10T09:56:13Z</time>
      </trkpt>
      <trkpt lat="36.803480" lon="-3.586180">
        <ele>574.917</ele>
        <time>2022-12-10T09:56:17Z</time>
      </trkpt>
      <trkpt lat="36.803358" lon="-3.586210">
        <ele>570.909</ele>
        <time>2022-12-10T09:56:21Z</time>
      </trkpt>
      <trkpt lat="36.803271" lon="-3.586215">
        <ele>566.596</ele>
        <time>2022-12-10T09:56:24Z</time>
      </trkpt>
      <trkpt lat="36.803226" lon="-3.586235">
        <ele>563.947</ele>
        <time>2022-12-10T09:56:26Z</time>
      </trkpt>
      <trkpt lat="36.803213" lon="-3.586256">
        <ele>563.016</ele>
        <time>2022-12-10T09:56:27Z</time>
      </trkpt>
      <trkpt lat="36.803215" lon="-3.586397">
        <ele>562.625</ele>
        <time>2022-12-10T09:56:30Z</time>
      </trkpt>
      <trkpt lat="36.803264" lon="-3.586494">
        <ele>563.917</ele>
        <time>2022-12-10T09:56:34Z</time>
      </trkpt>
      <trkpt lat="36.803379" lon="-3.586546">
        <ele>568.933</ele>
        <time>2022-12-10T09:56:38Z</time>
      </trkpt>
      <trkpt lat="36.803456" lon="-3.586584">
        <ele>572.194</ele>
        <time>2022-12-10T09:56:41Z</time>
      </trkpt>
      <trkpt lat="36.803500" lon="-3.586640">
        <ele>573.587</ele>
        <time>2022-12-10T09:56:43Z</time>
      </trkpt>
      <trkpt lat="36.803543" lon="-3.586698">
        <ele>574.847</ele>
        <time>2022-12-10T09:56:46Z</time>
      </trkpt>
      <trkpt lat="36.803606" lon="-3.586765">
        <ele>577.338</ele>
        <time>2022-12-10T09:56:51Z</time>
      </trkpt>
      <trkpt lat="36.803687" lon="-3.586986">
        <ele>579.370</ele>
        <time>2022-12-10T09:56:57Z</time>
      </trkpt>
      <trkpt lat="36.803704" lon="-3.587054">
        <ele>580.117</ele>
        <time>2022-12-10T09:56:59Z</time>
      </trkpt>
      <trkpt lat="36.803649" lon="-3.587118">
        <ele>577.009</ele>
        <time>2022-12-10T09:57:02Z</time>
      </trkpt>
      <trkpt lat="36.803541" lon="-3.587161">
        <ele>571.644</ele>
        <time>2022-12-10T09:57:06Z</time>
      </trkpt>
      <trkpt lat="36.803433" lon="-3.587368">
        <ele>567.735</ele>
        <time>2022-12-10T09:57:13Z</time>
      </trkpt>
      <trkpt lat="36.803410" lon="-3.587385">
        <ele>566.844</ele>
        <time>2022-12-10T09:57:14Z</time>
      </trkpt>
      <trkpt lat="36.803357" lon="-3.587391">
        <ele>564.353</ele>
        <time>2022-12-10T09:57:16Z</time>
      </trkpt>
      <trkpt lat="36.803231" lon="-3.587495">
        <ele>559.945</ele>
        <time>2022-12-10T09:57:22Z</time>
      </trkpt>
      <trkpt lat="36.803178" lon="-3.587626">
        <ele>557.641</ele>
        <time>2022-12-10T09:57:26Z</time>
      </trkpt>
      <trkpt lat="36.803146" lon="-3.587689">
        <ele>556.162</ele>
        <time>2022-12-10T09:57:28Z</time>
      </trkpt>
      <trkpt lat="36.803108" lon="-3.587785">
        <ele>554.315</ele>
        <time>2022-12-10T09:57:31Z</time>
      </trkpt>
      <trkpt lat="36.803065" lon="-3.587870">
        <ele>552.465</ele>
        <time>2022-12-10T09:57:34Z</time>
      </trkpt>
      <trkpt lat="36.803035" lon="-3.587937">
        <ele>551.311</ele>
        <time>2022-12-10T09:57:36Z</time>
      </trkpt>
      <trkpt lat="36.802997" lon="-3.588042">
        <ele>549.921</ele>
        <time>2022-12-10T09:57:39Z</time>
      </trkpt>
      <trkpt lat="36.802975" lon="-3.588107">
        <ele>548.403</ele>
        <time>2022-12-10T09:57:41Z</time>
      </trkpt>
      <trkpt lat="36.802964" lon="-3.588127">
        <ele>547.809</ele>
        <time>2022-12-10T09:57:42Z</time>
      </trkpt>
      <trkpt lat="36.802951" lon="-3.588132">
        <ele>547.272</ele>
        <time>2022-12-10T09:57:43Z</time>
      </trkpt>
      <trkpt lat="36.802924" lon="-3.588066">
        <ele>547.123</ele>
        <time>2022-12-10T09:57:45Z</time>
      </trkpt>
      <trkpt lat="36.802895" lon="-3.587939">
        <ele>546.242</ele>
        <time>2022-12-10T09:57:48Z</time>
      </trkpt>
      <trkpt lat="36.802865" lon="-3.587781">
        <ele>545.141</ele>
        <time>2022-12-10T09:57:52Z</time>
      </trkpt>
      <trkpt lat="36.802849" lon="-3.587742">
        <ele>544.753</ele>
        <time>2022-12-10T09:57:54Z</time>
      </trkpt>
      <trkpt lat="36.802829" lon="-3.587786">
        <ele>543.839</ele>
        <time>2022-12-10T09:57:56Z</time>
      </trkpt>
      <trkpt lat="36.802818" lon="-3.587898">
        <ele>543.430</ele>
        <time>2022-12-10T09:57:59Z</time>
      </trkpt>
      <trkpt lat="36.802802" lon="-3.588009">
        <ele>542.933</ele>
        <time>2022-12-10T09:58:03Z</time>
      </trkpt>
      <trkpt lat="36.802791" lon="-3.587996">
        <ele>542.543</ele>
        <time>2022-12-10T09:58:05Z</time>
      </trkpt>
      <trkpt lat="36.802777" lon="-3.587914">
        <ele>542.025</ele>
        <time>2022-12-10T09:58:08Z</time>
      </trkpt>
      <trkpt lat="36.802742" lon="-3.587797">
        <ele>540.726</ele>
        <time>2022-12-10T09:58:12Z</time>
      </trkpt>
      <trkpt lat="36.802709" lon="-3.587689">
        <ele>539.708</ele>
        <time>2022-12-10T09:58:16Z</time>
      </trkpt>
      <trkpt lat="36.802691" lon="-3.587642">
        <ele>539.109</ele>
        <time>2022-12-10T09:58:18Z</time>
      </trkpt>
      <trkpt lat="36.802665" lon="-3.587595">
        <ele>538.143</ele>
        <time>2022-12-10T09:58:20Z</time>
      </trkpt>
      <trkpt lat="36.802649" lon="-3.587579">
        <ele>537.464</ele>
        <time>2022-12-10T09:58:21Z</time>
      </trkpt>
      <trkpt lat="36.802624" lon="-3.587602">
        <ele>536.433</ele>
        <time>2022-12-10T09:58:23Z</time>
      </trkpt>
      <trkpt lat="36.802620" lon="-3.587718">
        <ele>536.322</ele>
        <time>2022-12-10T09:58:27Z</time>
      </trkpt>
      <trkpt lat="36.802609" lon="-3.587814">
        <ele>535.724</ele>
        <time>2022-12-10T09:58:30Z</time>
      </trkpt>
      <trkpt lat="36.802588" lon="-3.587923">
        <ele>534.190</ele>
        <time>2022-12-10T09:58:33Z</time>
      </trkpt>
      <trkpt lat="36.802574" lon="-3.587986">
        <ele>533.091</ele>
        <time>2022-12-10T09:58:35Z</time>
      </trkpt>
      <trkpt lat="36.802558" lon="-3.588087">
        <ele>531.194</ele>
        <time>2022-12-10T09:58:38Z</time>
      </trkpt>
      <trkpt lat="36.802554" lon="-3.588189">
        <ele>528.764</ele>
        <time>2022-12-10T09:58:41Z</time>
      </trkpt>
      <trkpt lat="36.802558" lon="-3.588304">
        <ele>526.551</ele>
        <time>2022-12-10T09:58:44Z</time>
      </trkpt>
      <trkpt lat="36.802594" lon="-3.588425">
        <ele>526.201</ele>
        <time>2022-12-10T09:58:47Z</time>
      </trkpt>
      <trkpt lat="36.802612" lon="-3.588501">
        <ele>525.911</ele>
        <time>2022-12-10T09:58:49Z</time>
      </trkpt>
      <trkpt lat="36.802655" lon="-3.588646">
        <ele>526.009</ele>
        <time>2022-12-10T09:58:53Z</time>
      </trkpt>
      <trkpt lat="36.802693" lon="-3.588764">
        <ele>526.696</ele>
        <time>2022-12-10T09:58:56Z</time>
      </trkpt>
      <trkpt lat="36.802718" lon="-3.588834">
        <ele>526.977</ele>
        <time>2022-12-10T09:58:58Z</time>
      </trkpt>
      <trkpt lat="36.802725" lon="-3.588845">
        <ele>527.196</ele>
        <time>2022-12-10T09:58:59Z</time>
      </trkpt>
      <trkpt lat="36.802718" lon="-3.588842">
        <ele>526.815</ele>
        <time>2022-12-10T09:59:00Z</time>
      </trkpt>
      <trkpt lat="36.802693" lon="-3.588810">
        <ele>526.087</ele>
        <time>2022-12-10T09:59:02Z</time>
      </trkpt>
      <trkpt lat="36.802617" lon="-3.588737">
        <ele>523.013</ele>
        <time>2022-12-10T09:59:05Z</time>
      </trkpt>
      <trkpt lat="36.802608" lon="-3.588728">
        <ele>522.794</ele>
        <time>2022-12-10T09:59:06Z</time>
      </trkpt>
      <trkpt lat="36.802603" lon="-3.588719">
        <ele>522.577</ele>
        <time>2022-12-10T09:59:07Z</time>
      </trkpt>
      <trkpt lat="36.802599" lon="-3.588713">
        <ele>522.497</ele>
        <time>2022-12-10T09:59:08Z</time>
      </trkpt>
      <trkpt lat="36.802590" lon="-3.588697">
        <ele>522.063</ele>
        <time>2022-12-10T09:59:10Z</time>
      </trkpt>
      <trkpt lat="36.802576" lon="-3.588676">
        <ele>521.544</ele>
        <time>2022-12-10T09:59:12Z</time>
      </trkpt>
      <trkpt lat="36.802552" lon="-3.588646">
        <ele>520.518</ele>
        <time>2022-12-10T09:59:15Z</time>
      </trkpt>
      <trkpt lat="36.802497" lon="-3.588608">
        <ele>517.909</ele>
        <time>2022-12-10T09:59:20Z</time>
      </trkpt>
      <trkpt lat="36.802495" lon="-3.588606">
        <ele>517.887</ele>
        <time>2022-12-10T09:59:21Z</time>
      </trkpt>
      <trkpt lat="36.802478" lon="-3.588590">
        <ele>517.338</ele>
        <time>2022-12-10T09:59:23Z</time>
      </trkpt>
      <trkpt lat="36.802461" lon="-3.588580">
        <ele>516.627</ele>
        <time>2022-12-10T09:59:25Z</time>
      </trkpt>
      <trkpt lat="36.802448" lon="-3.588571">
        <ele>516.146</ele>
        <time>2022-12-10T09:59:27Z</time>
      </trkpt>
      <trkpt lat="36.802440" lon="-3.588563">
        <ele>515.888</ele>
        <time>2022-12-10T09:59:28Z</time>
      </trkpt>
      <trkpt lat="36.802422" lon="-3.588550">
        <ele>515.194</ele>
        <time>2022-12-10T09:59:31Z</time>
      </trkpt>
      <trkpt lat="36.802414" lon="-3.588542">
        <ele>514.865</ele>
        <time>2022-12-10T09:59:32Z</time>
      </trkpt>
      <trkpt lat="36.802387" lon="-3.588524">
        <ele>513.778</ele>
        <time>2022-12-10T09:59:34Z</time>
      </trkpt>
      <trkpt lat="36.802367" lon="-3.588502">
        <ele>513.118</ele>
        <time>2022-12-10T09:59:36Z</time>
      </trkpt>
      <trkpt lat="36.802298" lon="-3.588429">
        <ele>510.688</ele>
        <time>2022-12-10T09:59:44Z</time>
      </trkpt>
      <trkpt lat="36.802275" lon="-3.588413">
        <ele>509.624</ele>
        <time>2022-12-10T09:59:46Z</time>
      </trkpt>
      <trkpt lat="36.802238" lon="-3.588372">
        <ele>508.326</ele>
        <time>2022-12-10T09:59:50Z</time>
      </trkpt>
      <trkpt lat="36.802193" lon="-3.588335">
        <ele>506.809</ele>
        <time>2022-12-10T09:59:54Z</time>
      </trkpt>
      <trkpt lat="36.802161" lon="-3.588306">
        <ele>506.089</ele>
        <time>2022-12-10T09:59:57Z</time>
      </trkpt>
      <trkpt lat="36.802123" lon="-3.588286">
        <ele>504.910</ele>
        <time>2022-12-10T10:00:00Z</time>
      </trkpt>
      <trkpt lat="36.802080" lon="-3.588257">
        <ele>503.679</ele>
        <time>2022-12-10T10:00:03Z</time>
      </trkpt>
      <trkpt lat="36.802022" lon="-3.588224">
        <ele>501.878</ele>
        <time>2022-12-10T10:00:08Z</time>
      </trkpt>
      <trkpt lat="36.802000" lon="-3.588209">
        <ele>501.160</ele>
        <time>2022-12-10T10:00:11Z</time>
      </trkpt>
      <trkpt lat="36.801999" lon="-3.588203">
        <ele>501.156</ele>
        <time>2022-12-10T10:00:12Z</time>
      </trkpt>
      <trkpt lat="36.801998" lon="-3.588204">
        <ele>501.127</ele>
        <time>2022-12-10T10:00:14Z</time>
      </trkpt>
      <trkpt lat="36.802001" lon="-3.588220">
        <ele>501.090</ele>
        <time>2022-12-10T10:00:16Z</time>
      </trkpt>
      <trkpt lat="36.802008" lon="-3.588253">
        <ele>500.780</ele>
        <time>2022-12-10T10:00:18Z</time>
      </trkpt>
      <trkpt lat="36.802023" lon="-3.588285">
        <ele>500.942</ele>
        <time>2022-12-10T10:00:20Z</time>
      </trkpt>
      <trkpt lat="36.802124" lon="-3.588484">
        <ele>502.322</ele>
        <time>2022-12-10T10:00:34Z</time>
      </trkpt>
      <trkpt lat="36.802217" lon="-3.588678">
        <ele>503.314</ele>
        <time>2022-12-10T10:00:48Z</time>
      </trkpt>
      <trkpt lat="36.802317" lon="-3.588878">
        <ele>506.909</ele>
        <time>2022-12-10T10:01:02Z</time>
      </trkpt>
      <trkpt lat="36.802384" lon="-3.589087">
        <ele>507.615</ele>
        <time>2022-12-10T10:01:15Z</time>
      </trkpt>
      <trkpt lat="36.802424" lon="-3.589255">
        <ele>506.896</ele>
        <time>2022-12-10T10:01:26Z</time>
      </trkpt>
      <trkpt lat="36.802467" lon="-3.589486">
        <ele>504.555</ele>
        <time>2022-12-10T10:01:40Z</time>
      </trkpt>
      <trkpt lat="36.802449" lon="-3.589720">
        <ele>502.474</ele>
        <time>2022-12-10T10:01:53Z</time>
      </trkpt>
      <trkpt lat="36.802460" lon="-3.589954">
        <ele>502.076</ele>
        <time>2022-12-10T10:02:05Z</time>
      </trkpt>
      <trkpt lat="36.802482" lon="-3.590179">
        <ele>502.552</ele>
        <time>2022-12-10T10:02:17Z</time>
      </trkpt>
      <trkpt lat="36.802511" lon="-3.590414">
        <ele>503.033</ele>
        <time>2022-12-10T10:02:30Z</time>
      </trkpt>
      <trkpt lat="36.802519" lon="-3.590645">
        <ele>502.336</ele>
        <time>2022-12-10T10:02:43Z</time>
      </trkpt>
      <trkpt lat="36.802523" lon="-3.590873">
        <ele>501.676</ele>
        <time>2022-12-10T10:02:57Z</time>
      </trkpt>
      <trkpt lat="36.802501" lon="-3.590947">
        <ele>500.617</ele>
        <time>2022-12-10T10:03:01Z</time>
      </trkpt>
      <trkpt lat="36.802503" lon="-3.591165">
        <ele>500.187</ele>
        <time>2022-12-10T10:03:13Z</time>
      </trkpt>
      <trkpt lat="36.802515" lon="-3.591199">
        <ele>500.215</ele>
        <time>2022-12-10T10:03:15Z</time>
      </trkpt>
      <trkpt lat="36.802531" lon="-3.591246">
        <ele>500.409</ele>
        <time>2022-12-10T10:03:18Z</time>
      </trkpt>
      <trkpt lat="36.802580" lon="-3.591472">
        <ele>500.352</ele>
        <time>2022-12-10T10:03:31Z</time>
      </trkpt>
      <trkpt lat="36.802611" lon="-3.591524">
        <ele>500.223</ele>
        <time>2022-12-10T10:03:34Z</time>
      </trkpt>
      <trkpt lat="36.802620" lon="-3.591596">
        <ele>499.892</ele>
        <time>2022-12-10T10:03:38Z</time>
      </trkpt>
      <trkpt lat="36.802625" lon="-3.591672">
        <ele>499.331</ele>
        <time>2022-12-10T10:03:42Z</time>
      </trkpt>
      <trkpt lat="36.802637" lon="-3.591702">
        <ele>499.223</ele>
        <time>2022-12-10T10:03:44Z</time>
      </trkpt>
      <trkpt lat="36.802649" lon="-3.591729">
        <ele>499.229</ele>
        <time>2022-12-10T10:03:46Z</time>
      </trkpt>
      <trkpt lat="36.802657" lon="-3.591818">
        <ele>498.760</ele>
        <time>2022-12-10T10:03:51Z</time>
      </trkpt>
      <trkpt lat="36.802654" lon="-3.591964">
        <ele>497.833</ele>
        <time>2022-12-10T10:03:59Z</time>
      </trkpt>
      <trkpt lat="36.802648" lon="-3.592095">
        <ele>497.273</ele>
        <time>2022-12-10T10:04:06Z</time>
      </trkpt>
      <trkpt lat="36.802685" lon="-3.592184">
        <ele>497.849</ele>
        <time>2022-12-10T10:04:13Z</time>
      </trkpt>
      <trkpt lat="36.802716" lon="-3.592202">
        <ele>498.502</ele>
        <time>2022-12-10T10:04:16Z</time>
      </trkpt>
      <trkpt lat="36.802763" lon="-3.592220">
        <ele>499.622</ele>
        <time>2022-12-10T10:04:21Z</time>
      </trkpt>
      <trkpt lat="36.802783" lon="-3.592225">
        <ele>500.209</ele>
        <time>2022-12-10T10:04:23Z</time>
      </trkpt>
      <trkpt lat="36.802810" lon="-3.592221">
        <ele>500.895</ele>
        <time>2022-12-10T10:04:26Z</time>
      </trkpt>
      <trkpt lat="36.802816" lon="-3.592223">
        <ele>501.036</ele>
        <time>2022-12-10T10:04:27Z</time>
      </trkpt>
      <trkpt lat="36.802851" lon="-3.592265">
        <ele>502.275</ele>
        <time>2022-12-10T10:04:34Z</time>
      </trkpt>
      <trkpt lat="36.802816" lon="-3.592420">
        <ele>502.414</ele>
        <time>2022-12-10T10:05:40Z</time>
      </trkpt>
      <trkpt lat="36.802818" lon="-3.592455">
        <ele>502.736</ele>
        <time>2022-12-10T10:05:42Z</time>
      </trkpt>
      <trkpt lat="36.802826" lon="-3.592487">
        <ele>503.162</ele>
        <time>2022-12-10T10:05:44Z</time>
      </trkpt>
      <trkpt lat="36.802857" lon="-3.592641">
        <ele>504.493</ele>
        <time>2022-12-10T10:05:53Z</time>
      </trkpt>
      <trkpt lat="36.802911" lon="-3.592862">
        <ele>507.476</ele>
        <time>2022-12-10T10:06:05Z</time>
      </trkpt>
      <trkpt lat="36.802910" lon="-3.592951">
        <ele>508.096</ele>
        <time>2022-12-10T10:06:10Z</time>
      </trkpt>
      <trkpt lat="36.802809" lon="-3.593141">
        <ele>506.577</ele>
        <time>2022-12-10T10:06:22Z</time>
      </trkpt>
      <trkpt lat="36.802687" lon="-3.593310">
        <ele>503.461</ele>
        <time>2022-12-10T10:06:35Z</time>
      </trkpt>
      <trkpt lat="36.802656" lon="-3.593344">
        <ele>502.527</ele>
        <time>2022-12-10T10:06:38Z</time>
      </trkpt>
      <trkpt lat="36.802554" lon="-3.593540">
        <ele>500.009</ele>
        <time>2022-12-10T10:06:50Z</time>
      </trkpt>
      <trkpt lat="36.802546" lon="-3.593555">
        <ele>499.858</ele>
        <time>2022-12-10T10:06:51Z</time>
      </trkpt>
      <trkpt lat="36.802533" lon="-3.593781">
        <ele>499.899</ele>
        <time>2022-12-10T10:07:03Z</time>
      </trkpt>
      <trkpt lat="36.802512" lon="-3.593930">
        <ele>498.388</ele>
        <time>2022-12-10T10:07:11Z</time>
      </trkpt>
      <trkpt lat="36.802464" lon="-3.594157">
        <ele>494.347</ele>
        <time>2022-12-10T10:07:23Z</time>
      </trkpt>
      <trkpt lat="36.802549" lon="-3.594356">
        <ele>495.769</ele>
        <time>2022-12-10T10:07:35Z</time>
      </trkpt>
      <trkpt lat="36.802648" lon="-3.594539">
        <ele>496.965</ele>
        <time>2022-12-10T10:07:46Z</time>
      </trkpt>
      <trkpt lat="36.802743" lon="-3.594733">
        <ele>496.786</ele>
        <time>2022-12-10T10:07:58Z</time>
      </trkpt>
      <trkpt lat="36.802871" lon="-3.594915">
        <ele>495.569</ele>
        <time>2022-12-10T10:08:10Z</time>
      </trkpt>
      <trkpt lat="36.802992" lon="-3.595089">
        <ele>495.019</ele>
        <time>2022-12-10T10:08:23Z</time>
      </trkpt>
      <trkpt lat="36.803066" lon="-3.595299">
        <ele>491.186</ele>
        <time>2022-12-10T10:08:35Z</time>
      </trkpt>
      <trkpt lat="36.803087" lon="-3.595331">
        <ele>491.760</ele>
        <time>2022-12-10T10:08:37Z</time>
      </trkpt>
      <trkpt lat="36.803095" lon="-3.595351">
        <ele>491.626</ele>
        <time>2022-12-10T10:08:38Z</time>
      </trkpt>
      <trkpt lat="36.803105" lon="-3.595574">
        <ele>485.309</ele>
        <time>2022-12-10T10:08:50Z</time>
      </trkpt>
      <trkpt lat="36.803221" lon="-3.595752">
        <ele>485.819</ele>
        <time>2022-12-10T10:09:01Z</time>
      </trkpt>
      <trkpt lat="36.803284" lon="-3.595826">
        <ele>487.140</ele>
        <time>2022-12-10T10:09:07Z</time>
      </trkpt>
      <trkpt lat="36.803353" lon="-3.595873">
        <ele>489.899</ele>
        <time>2022-12-10T10:09:13Z</time>
      </trkpt>
      <trkpt lat="36.803355" lon="-3.595890">
        <ele>489.198</ele>
        <time>2022-12-10T10:09:14Z</time>
      </trkpt>
      <trkpt lat="36.803402" lon="-3.596038">
        <ele>485.970</ele>
        <time>2022-12-10T10:09:22Z</time>
      </trkpt>
      <trkpt lat="36.803454" lon="-3.596138">
        <ele>485.976</ele>
        <time>2022-12-10T10:09:29Z</time>
      </trkpt>
      <trkpt lat="36.803457" lon="-3.596165">
        <ele>485.587</ele>
        <time>2022-12-10T10:09:31Z</time>
      </trkpt>
      <trkpt lat="36.803526" lon="-3.596386">
        <ele>485.670</ele>
        <time>2022-12-10T10:09:44Z</time>
      </trkpt>
      <trkpt lat="36.803574" lon="-3.596460">
        <ele>487.330</ele>
        <time>2022-12-10T10:09:50Z</time>
      </trkpt>
      <trkpt lat="36.803731" lon="-3.596579">
        <ele>493.168</ele>
        <time>2022-12-10T10:10:02Z</time>
      </trkpt>
      <trkpt lat="36.803721" lon="-3.596785">
        <ele>486.242</ele>
        <time>2022-12-10T10:10:12Z</time>
      </trkpt>
      <trkpt lat="36.803728" lon="-3.596806">
        <ele>485.926</ele>
        <time>2022-12-10T10:10:13Z</time>
      </trkpt>
      <trkpt lat="36.803881" lon="-3.596925">
        <ele>489.309</ele>
        <time>2022-12-10T10:10:24Z</time>
      </trkpt>
      <trkpt lat="36.803943" lon="-3.597033">
        <ele>490.137</ele>
        <time>2022-12-10T10:10:30Z</time>
      </trkpt>
      <trkpt lat="36.804040" lon="-3.597104">
        <ele>494.058</ele>
        <time>2022-12-10T10:10:37Z</time>
      </trkpt>
      <trkpt lat="36.804169" lon="-3.597263">
        <ele>499.067</ele>
        <time>2022-12-10T10:10:48Z</time>
      </trkpt>
      <trkpt lat="36.804225" lon="-3.597342">
        <ele>502.326</ele>
        <time>2022-12-10T10:10:53Z</time>
      </trkpt>
      <trkpt lat="36.804189" lon="-3.597487">
        <ele>499.418</ele>
        <time>2022-12-10T10:11:02Z</time>
      </trkpt>
      <trkpt lat="36.804104" lon="-3.597699">
        <ele>494.654</ele>
        <time>2022-12-10T10:11:16Z</time>
      </trkpt>
      <trkpt lat="36.804091" lon="-3.597729">
        <ele>494.265</ele>
        <time>2022-12-10T10:11:18Z</time>
      </trkpt>
      <trkpt lat="36.804013" lon="-3.597806">
        <ele>491.638</ele>
        <time>2022-12-10T10:11:25Z</time>
      </trkpt>
      <trkpt lat="36.803959" lon="-3.597839">
        <ele>490.018</ele>
        <time>2022-12-10T10:11:30Z</time>
      </trkpt>
      <trkpt lat="36.803919" lon="-3.597906">
        <ele>489.392</ele>
        <time>2022-12-10T10:11:33Z</time>
      </trkpt>
      <trkpt lat="36.803916" lon="-3.597937">
        <ele>489.573</ele>
        <time>2022-12-10T10:11:35Z</time>
      </trkpt>
      <trkpt lat="36.803898" lon="-3.597971">
        <ele>489.320</ele>
        <time>2022-12-10T10:11:37Z</time>
      </trkpt>
      <trkpt lat="36.803880" lon="-3.597991">
        <ele>489.109</ele>
        <time>2022-12-10T10:11:38Z</time>
      </trkpt>
      <trkpt lat="36.803849" lon="-3.598004">
        <ele>488.790</ele>
        <time>2022-12-10T10:11:41Z</time>
      </trkpt>
      <trkpt lat="36.803838" lon="-3.597995">
        <ele>488.451</ele>
        <time>2022-12-10T10:11:43Z</time>
      </trkpt>
      <trkpt lat="36.803827" lon="-3.597965">
        <ele>487.910</ele>
        <time>2022-12-10T10:11:46Z</time>
      </trkpt>
      <trkpt lat="36.803816" lon="-3.597935">
        <ele>487.439</ele>
        <time>2022-12-10T10:11:48Z</time>
      </trkpt>
      <trkpt lat="36.803798" lon="-3.597912">
        <ele>486.891</ele>
        <time>2022-12-10T10:11:50Z</time>
      </trkpt>
      <trkpt lat="36.803721" lon="-3.597917">
        <ele>485.587</ele>
        <time>2022-12-10T10:11:56Z</time>
      </trkpt>
      <trkpt lat="36.803666" lon="-3.597959">
        <ele>484.998</ele>
        <time>2022-12-10T10:12:01Z</time>
      </trkpt>
      <trkpt lat="36.803548" lon="-3.597967">
        <ele>484.871</ele>
        <time>2022-12-10T10:12:09Z</time>
      </trkpt>
      <trkpt lat="36.803534" lon="-3.597968">
        <ele>485.011</ele>
        <time>2022-12-10T10:12:10Z</time>
      </trkpt>
      <trkpt lat="36.803518" lon="-3.597983">
        <ele>485.494</ele>
        <time>2022-12-10T10:12:12Z</time>
      </trkpt>
      <trkpt lat="36.803521" lon="-3.598008">
        <ele>485.757</ele>
        <time>2022-12-10T10:12:14Z</time>
      </trkpt>
      <trkpt lat="36.803485" lon="-3.598100">
        <ele>487.122</ele>
        <time>2022-12-10T10:12:21Z</time>
      </trkpt>
      <trkpt lat="36.803477" lon="-3.598135">
        <ele>487.409</ele>
        <time>2022-12-10T10:12:23Z</time>
      </trkpt>
      <trkpt lat="36.803451" lon="-3.598212">
        <ele>488.060</ele>
        <time>2022-12-10T10:12:27Z</time>
      </trkpt>
      <trkpt lat="36.803437" lon="-3.598246">
        <ele>488.381</ele>
        <time>2022-12-10T10:12:29Z</time>
      </trkpt>
      <trkpt lat="36.803430" lon="-3.598258">
        <ele>488.490</ele>
        <time>2022-12-10T10:12:30Z</time>
      </trkpt>
      <trkpt lat="36.803405" lon="-3.598275">
        <ele>488.669</ele>
        <time>2022-12-10T10:12:32Z</time>
      </trkpt>
      <trkpt lat="36.803368" lon="-3.598279">
        <ele>488.891</ele>
        <time>2022-12-10T10:12:34Z</time>
      </trkpt>
      <trkpt lat="36.803349" lon="-3.598268">
        <ele>488.947</ele>
        <time>2022-12-10T10:12:35Z</time>
      </trkpt>
      <trkpt lat="36.803333" lon="-3.598246">
        <ele>489.088</ele>
        <time>2022-12-10T10:12:37Z</time>
      </trkpt>
      <trkpt lat="36.803347" lon="-3.598101">
        <ele>488.861</ele>
        <time>2022-12-10T10:12:46Z</time>
      </trkpt>
      <trkpt lat="36.803352" lon="-3.598073">
        <ele>488.711</ele>
        <time>2022-12-10T10:12:48Z</time>
      </trkpt>
      <trkpt lat="36.803367" lon="-3.598022">
        <ele>487.957</ele>
        <time>2022-12-10T10:12:53Z</time>
      </trkpt>
      <trkpt lat="36.803394" lon="-3.597951">
        <ele>486.400</ele>
        <time>2022-12-10T10:12:58Z</time>
      </trkpt>
      <trkpt lat="36.803409" lon="-3.597885">
        <ele>485.220</ele>
        <time>2022-12-10T10:13:02Z</time>
      </trkpt>
      <trkpt lat="36.803429" lon="-3.597784">
        <ele>483.409</ele>
        <time>2022-12-10T10:13:08Z</time>
      </trkpt>
      <trkpt lat="36.803452" lon="-3.597750">
        <ele>482.086</ele>
        <time>2022-12-10T10:13:10Z</time>
      </trkpt>
      <trkpt lat="36.803467" lon="-3.597734">
        <ele>481.397</ele>
        <time>2022-12-10T10:13:11Z</time>
      </trkpt>
      <trkpt lat="36.803505" lon="-3.597703">
        <ele>479.986</ele>
        <time>2022-12-10T10:13:13Z</time>
      </trkpt>
      <trkpt lat="36.803451" lon="-3.597688">
        <ele>479.595</ele>
        <time>2022-12-10T10:13:14Z</time>
      </trkpt>
      <trkpt lat="36.803404" lon="-3.597678">
        <ele>479.277</ele>
        <time>2022-12-10T10:13:15Z</time>
      </trkpt>
      <trkpt lat="36.803216" lon="-3.597645">
        <ele>478.053</ele>
        <time>2022-12-10T10:13:23Z</time>
      </trkpt>
      <trkpt lat="36.803033" lon="-3.597592">
        <ele>475.414</ele>
        <time>2022-12-10T10:13:36Z</time>
      </trkpt>
      <trkpt lat="36.802922" lon="-3.597551">
        <ele>470.717</ele>
        <time>2022-12-10T10:13:44Z</time>
      </trkpt>
      <trkpt lat="36.802740" lon="-3.597545">
        <ele>467.027</ele>
        <time>2022-12-10T10:13:57Z</time>
      </trkpt>
      <trkpt lat="36.802672" lon="-3.597588">
        <ele>469.319</ele>
        <time>2022-12-10T10:14:03Z</time>
      </trkpt>
      <trkpt lat="36.802497" lon="-3.597685">
        <ele>474.709</ele>
        <time>2022-12-10T10:14:16Z</time>
      </trkpt>
      <trkpt lat="36.802384" lon="-3.597713">
        <ele>477.619</ele>
        <time>2022-12-10T10:14:24Z</time>
      </trkpt>
      <trkpt lat="36.802352" lon="-3.597705">
        <ele>477.809</ele>
        <time>2022-12-10T10:14:26Z</time>
      </trkpt>
      <trkpt lat="36.802216" lon="-3.597709">
        <ele>480.162</ele>
        <time>2022-12-10T10:14:35Z</time>
      </trkpt>
      <trkpt lat="36.802190" lon="-3.597695">
        <ele>479.693</ele>
        <time>2022-12-10T10:14:37Z</time>
      </trkpt>
      <trkpt lat="36.802175" lon="-3.597686">
        <ele>479.492</ele>
        <time>2022-12-10T10:14:38Z</time>
      </trkpt>
      <trkpt lat="36.802084" lon="-3.597682">
        <ele>479.951</ele>
        <time>2022-12-10T10:14:44Z</time>
      </trkpt>
      <trkpt lat="36.801973" lon="-3.597835">
        <ele>485.133</ele>
        <time>2022-12-10T10:14:56Z</time>
      </trkpt>
      <trkpt lat="36.801943" lon="-3.597870">
        <ele>485.629</ele>
        <time>2022-12-10T10:14:59Z</time>
      </trkpt>
      <trkpt lat="36.801852" lon="-3.598016">
        <ele>485.720</ele>
        <time>2022-12-10T10:15:08Z</time>
      </trkpt>
      <trkpt lat="36.801806" lon="-3.598171">
        <ele>487.313</ele>
        <time>2022-12-10T10:15:17Z</time>
      </trkpt>
      <trkpt lat="36.801713" lon="-3.598366">
        <ele>488.093</ele>
        <time>2022-12-10T10:15:28Z</time>
      </trkpt>
      <trkpt lat="36.801548" lon="-3.598474">
        <ele>486.439</ele>
        <time>2022-12-10T10:15:41Z</time>
      </trkpt>
      <trkpt lat="36.801516" lon="-3.598495">
        <ele>486.001</ele>
        <time>2022-12-10T10:15:43Z</time>
      </trkpt>
      <trkpt lat="36.801444" lon="-3.598531">
        <ele>484.521</ele>
        <time>2022-12-10T10:15:47Z</time>
      </trkpt>
      <trkpt lat="36.801406" lon="-3.598572">
        <ele>484.409</ele>
        <time>2022-12-10T10:15:51Z</time>
      </trkpt>
      <trkpt lat="36.801253" lon="-3.598698">
        <ele>483.784</ele>
        <time>2022-12-10T10:16:03Z</time>
      </trkpt>
      <trkpt lat="36.801080" lon="-3.598783">
        <ele>479.675</ele>
        <time>2022-12-10T10:16:15Z</time>
      </trkpt>
      <trkpt lat="36.801023" lon="-3.598871">
        <ele>478.994</ele>
        <time>2022-12-10T10:16:21Z</time>
      </trkpt>
      <trkpt lat="36.801019" lon="-3.598885">
        <ele>479.013</ele>
        <time>2022-12-10T10:16:23Z</time>
      </trkpt>
      <trkpt lat="36.801032" lon="-3.598904">
        <ele>479.875</ele>
        <time>2022-12-10T10:16:40Z</time>
      </trkpt>
      <trkpt lat="36.801041" lon="-3.598978">
        <ele>480.941</ele>
        <time>2022-12-10T10:16:53Z</time>
      </trkpt>
      <trkpt lat="36.801053" lon="-3.599046">
        <ele>482.072</ele>
        <time>2022-12-10T10:16:58Z</time>
      </trkpt>
      <trkpt lat="36.801070" lon="-3.599129">
        <ele>483.555</ele>
        <time>2022-12-10T10:17:03Z</time>
      </trkpt>
      <trkpt lat="36.801127" lon="-3.599341">
        <ele>486.885</ele>
        <time>2022-12-10T10:17:16Z</time>
      </trkpt>
      <trkpt lat="36.801150" lon="-3.599468">
        <ele>487.655</ele>
        <time>2022-12-10T10:17:24Z</time>
      </trkpt>
      <trkpt lat="36.801132" lon="-3.599687">
        <ele>486.107</ele>
        <time>2022-12-10T10:17:38Z</time>
      </trkpt>
      <trkpt lat="36.801101" lon="-3.599821">
        <ele>485.317</ele>
        <time>2022-12-10T10:17:48Z</time>
      </trkpt>
      <trkpt lat="36.801080" lon="-3.599852">
        <ele>484.809</ele>
        <time>2022-12-10T10:17:53Z</time>
      </trkpt>
      <trkpt lat="36.801075" lon="-3.599867">
        <ele>484.776</ele>
        <time>2022-12-10T10:17:54Z</time>
      </trkpt>
      <trkpt lat="36.801060" lon="-3.599918">
        <ele>484.577</ele>
        <time>2022-12-10T10:17:57Z</time>
      </trkpt>
      <trkpt lat="36.801032" lon="-3.600010">
        <ele>484.326</ele>
        <time>2022-12-10T10:18:03Z</time>
      </trkpt>
      <trkpt lat="36.801012" lon="-3.600044">
        <ele>484.155</ele>
        <time>2022-12-10T10:18:07Z</time>
      </trkpt>
      <trkpt lat="36.800985" lon="-3.600049">
        <ele>483.227</ele>
        <time>2022-12-10T10:18:09Z</time>
      </trkpt>
      <trkpt lat="36.800947" lon="-3.600044">
        <ele>481.863</ele>
        <time>2022-12-10T10:18:13Z</time>
      </trkpt>
      <trkpt lat="36.800944" lon="-3.600068">
        <ele>482.194</ele>
        <time>2022-12-10T10:18:16Z</time>
      </trkpt>
      <trkpt lat="36.800950" lon="-3.600093">
        <ele>482.747</ele>
        <time>2022-12-10T10:18:18Z</time>
      </trkpt>
      <trkpt lat="36.801012" lon="-3.600053">
        <ele>484.317</ele>
        <time>2022-12-10T10:19:09Z</time>
      </trkpt>
      <trkpt lat="36.801010" lon="-3.600045">
        <ele>484.112</ele>
        <time>2022-12-10T10:19:15Z</time>
      </trkpt>
      <trkpt lat="36.801006" lon="-3.600036">
        <ele>483.832</ele>
        <time>2022-12-10T10:19:18Z</time>
      </trkpt>
      <trkpt lat="36.800984" lon="-3.600119">
        <ele>484.305</ele>
        <time>2022-12-10T10:20:02Z</time>
      </trkpt>
      <trkpt lat="36.801028" lon="-3.600334">
        <ele>488.909</ele>
        <time>2022-12-10T10:20:18Z</time>
      </trkpt>
      <trkpt lat="36.801046" lon="-3.600387">
        <ele>490.012</ele>
        <time>2022-12-10T10:20:21Z</time>
      </trkpt>
      <trkpt lat="36.801085" lon="-3.600466">
        <ele>491.783</ele>
        <time>2022-12-10T10:20:26Z</time>
      </trkpt>
      <trkpt lat="36.801127" lon="-3.600565">
        <ele>493.852</ele>
        <time>2022-12-10T10:20:33Z</time>
      </trkpt>
      <trkpt lat="36.801127" lon="-3.600617">
        <ele>494.271</ele>
        <time>2022-12-10T10:20:36Z</time>
      </trkpt>
      <trkpt lat="36.801117" lon="-3.600639">
        <ele>494.163</ele>
        <time>2022-12-10T10:20:38Z</time>
      </trkpt>
      <trkpt lat="36.801077" lon="-3.600644">
        <ele>493.599</ele>
        <time>2022-12-10T10:20:42Z</time>
      </trkpt>
      <trkpt lat="36.801024" lon="-3.600583">
        <ele>491.630</ele>
        <time>2022-12-10T10:20:47Z</time>
      </trkpt>
      <trkpt lat="36.800904" lon="-3.600479">
        <ele>487.463</ele>
        <time>2022-12-10T10:20:52Z</time>
      </trkpt>
      <trkpt lat="36.800702" lon="-3.600449">
        <ele>486.083</ele>
        <time>2022-12-10T10:20:59Z</time>
      </trkpt>
      <trkpt lat="36.800628" lon="-3.600440">
        <ele>486.229</ele>
        <time>2022-12-10T10:21:02Z</time>
      </trkpt>
      <trkpt lat="36.800553" lon="-3.600406">
        <ele>485.800</ele>
        <time>2022-12-10T10:21:05Z</time>
      </trkpt>
      <trkpt lat="36.800463" lon="-3.600349">
        <ele>486.220</ele>
        <time>2022-12-10T10:21:09Z</time>
      </trkpt>
      <trkpt lat="36.800337" lon="-3.600280">
        <ele>486.009</ele>
        <time>2022-12-10T10:21:14Z</time>
      </trkpt>
      <trkpt lat="36.800159" lon="-3.600219">
        <ele>481.563</ele>
        <time>2022-12-10T10:21:20Z</time>
      </trkpt>
      <trkpt lat="36.800012" lon="-3.600281">
        <ele>482.494</ele>
        <time>2022-12-10T10:21:25Z</time>
      </trkpt>
      <trkpt lat="36.799904" lon="-3.600372">
        <ele>486.753</ele>
        <time>2022-12-10T10:21:30Z</time>
      </trkpt>
      <trkpt lat="36.799842" lon="-3.600425">
        <ele>489.382</ele>
        <time>2022-12-10T10:21:33Z</time>
      </trkpt>
      <trkpt lat="36.799777" lon="-3.600474">
        <ele>491.574</ele>
        <time>2022-12-10T10:21:36Z</time>
      </trkpt>
      <trkpt lat="36.799730" lon="-3.600517">
        <ele>493.690</ele>
        <time>2022-12-10T10:21:39Z</time>
      </trkpt>
      <trkpt lat="36.799662" lon="-3.600595">
        <ele>496.881</ele>
        <time>2022-12-10T10:21:45Z</time>
      </trkpt>
      <trkpt lat="36.799616" lon="-3.600671">
        <ele>499.624</ele>
        <time>2022-12-10T10:21:50Z</time>
      </trkpt>
      <trkpt lat="36.799578" lon="-3.600724">
        <ele>501.494</ele>
        <time>2022-12-10T10:21:54Z</time>
      </trkpt>
      <trkpt lat="36.799410" lon="-3.600834">
        <ele>501.561</ele>
        <time>2022-12-10T10:22:06Z</time>
      </trkpt>
      <trkpt lat="36.799274" lon="-3.601009">
        <ele>502.821</ele>
        <time>2022-12-10T10:22:19Z</time>
      </trkpt>
      <trkpt lat="36.799218" lon="-3.601082">
        <ele>503.213</ele>
        <time>2022-12-10T10:22:24Z</time>
      </trkpt>
      <trkpt lat="36.799162" lon="-3.601201">
        <ele>505.409</ele>
        <time>2022-12-10T10:22:31Z</time>
      </trkpt>
      <trkpt lat="36.799107" lon="-3.601313">
        <ele>507.747</ele>
        <time>2022-12-10T10:22:38Z</time>
      </trkpt>
      <trkpt lat="36.799090" lon="-3.601368">
        <ele>509.448</ele>
        <time>2022-12-10T10:22:41Z</time>
      </trkpt>
      <trkpt lat="36.799064" lon="-3.601433">
        <ele>511.317</ele>
        <time>2022-12-10T10:22:45Z</time>
      </trkpt>
      <trkpt lat="36.799037" lon="-3.601474">
        <ele>512.056</ele>
        <time>2022-12-10T10:22:48Z</time>
      </trkpt>
      <trkpt lat="36.799014" lon="-3.601520">
        <ele>513.118</ele>
        <time>2022-12-10T10:22:51Z</time>
      </trkpt>
      <trkpt lat="36.798993" lon="-3.601594">
        <ele>515.284</ele>
        <time>2022-12-10T10:22:56Z</time>
      </trkpt>
      <trkpt lat="36.798985" lon="-3.601626">
        <ele>516.275</ele>
        <time>2022-12-10T10:22:58Z</time>
      </trkpt>
      <trkpt lat="36.798957" lon="-3.601721">
        <ele>518.118</ele>
        <time>2022-12-10T10:23:04Z</time>
      </trkpt>
      <trkpt lat="36.798939" lon="-3.601763">
        <ele>518.578</ele>
        <time>2022-12-10T10:23:07Z</time>
      </trkpt>
      <trkpt lat="36.798903" lon="-3.601822">
        <ele>518.396</ele>
        <time>2022-12-10T10:23:12Z</time>
      </trkpt>
      <trkpt lat="36.798886" lon="-3.601850">
        <ele>518.131</ele>
        <time>2022-12-10T10:23:14Z</time>
      </trkpt>
      <trkpt lat="36.798795" lon="-3.602002">
        <ele>515.924</ele>
        <time>2022-12-10T10:23:25Z</time>
      </trkpt>
      <trkpt lat="36.798765" lon="-3.602234">
        <ele>517.209</ele>
        <time>2022-12-10T10:23:33Z</time>
      </trkpt>
      <trkpt lat="36.798799" lon="-3.602471">
        <ele>520.070</ele>
        <time>2022-12-10T10:23:40Z</time>
      </trkpt>
      <trkpt lat="36.798807" lon="-3.602545">
        <ele>520.821</ele>
        <time>2022-12-10T10:23:42Z</time>
      </trkpt>
      <trkpt lat="36.798898" lon="-3.602769">
        <ele>527.740</ele>
        <time>2022-12-10T10:23:49Z</time>
      </trkpt>
      <trkpt lat="36.798947" lon="-3.602976">
        <ele>529.699</ele>
        <time>2022-12-10T10:23:56Z</time>
      </trkpt>
      <trkpt lat="36.798944" lon="-3.603096">
        <ele>528.031</ele>
        <time>2022-12-10T10:24:03Z</time>
      </trkpt>
      <trkpt lat="36.798948" lon="-3.603247">
        <ele>526.937</ele>
        <time>2022-12-10T10:24:11Z</time>
      </trkpt>
      <trkpt lat="36.798983" lon="-3.603476">
        <ele>526.428</ele>
        <time>2022-12-10T10:24:24Z</time>
      </trkpt>
      <trkpt lat="36.799003" lon="-3.603541">
        <ele>526.861</ele>
        <time>2022-12-10T10:24:28Z</time>
      </trkpt>
      <trkpt lat="36.799105" lon="-3.603742">
        <ele>528.611</ele>
        <time>2022-12-10T10:24:42Z</time>
      </trkpt>
      <trkpt lat="36.799162" lon="-3.603859">
        <ele>527.881</ele>
        <time>2022-12-10T10:24:50Z</time>
      </trkpt>
      <trkpt lat="36.799176" lon="-3.603890">
        <ele>527.561</ele>
        <time>2022-12-10T10:24:52Z</time>
      </trkpt>
      <trkpt lat="36.799197" lon="-3.603939">
        <ele>527.117</ele>
        <time>2022-12-10T10:24:55Z</time>
      </trkpt>
      <trkpt lat="36.799236" lon="-3.604025">
        <ele>526.509</ele>
        <time>2022-12-10T10:25:01Z</time>
      </trkpt>
      <trkpt lat="36.799327" lon="-3.604228">
        <ele>524.449</ele>
        <time>2022-12-10T10:25:14Z</time>
      </trkpt>
      <trkpt lat="36.799335" lon="-3.604247">
        <ele>524.330</ele>
        <time>2022-12-10T10:25:15Z</time>
      </trkpt>
      <trkpt lat="36.799357" lon="-3.604298">
        <ele>523.919</ele>
        <time>2022-12-10T10:25:18Z</time>
      </trkpt>
      <trkpt lat="36.799499" lon="-3.604451">
        <ele>524.448</ele>
        <time>2022-12-10T10:25:31Z</time>
      </trkpt>
      <trkpt lat="36.799523" lon="-3.604476">
        <ele>524.310</ele>
        <time>2022-12-10T10:25:33Z</time>
      </trkpt>
      <trkpt lat="36.799690" lon="-3.604520">
        <ele>527.296</ele>
        <time>2022-12-10T10:25:46Z</time>
      </trkpt>
      <trkpt lat="36.799872" lon="-3.604535">
        <ele>531.027</ele>
        <time>2022-12-10T10:25:58Z</time>
      </trkpt>
      <trkpt lat="36.799883" lon="-3.604540">
        <ele>531.080</ele>
        <time>2022-12-10T10:25:59Z</time>
      </trkpt>
      <trkpt lat="36.800002" lon="-3.604579">
        <ele>531.850</ele>
        <time>2022-12-10T10:26:08Z</time>
      </trkpt>
      <trkpt lat="36.800087" lon="-3.604620">
        <ele>530.615</ele>
        <time>2022-12-10T10:26:14Z</time>
      </trkpt>
      <trkpt lat="36.800270" lon="-3.604660">
        <ele>530.265</ele>
        <time>2022-12-10T10:26:27Z</time>
      </trkpt>
      <trkpt lat="36.800424" lon="-3.604705">
        <ele>530.211</ele>
        <time>2022-12-10T10:26:38Z</time>
      </trkpt>
      <trkpt lat="36.800487" lon="-3.604732">
        <ele>529.909</ele>
        <time>2022-12-10T10:26:43Z</time>
      </trkpt>
      <trkpt lat="36.800500" lon="-3.604728">
        <ele>530.432</ele>
        <time>2022-12-10T10:26:44Z</time>
      </trkpt>
      <trkpt lat="36.800517" lon="-3.604685">
        <ele>533.113</ele>
        <time>2022-12-10T10:26:48Z</time>
      </trkpt>
      <trkpt lat="36.800529" lon="-3.604676">
        <ele>533.822</ele>
        <time>2022-12-10T10:26:49Z</time>
      </trkpt>
      <trkpt lat="36.800556" lon="-3.604670">
        <ele>534.631</ele>
        <time>2022-12-10T10:26:51Z</time>
      </trkpt>
      <trkpt lat="36.800604" lon="-3.604655">
        <ele>536.073</ele>
        <time>2022-12-10T10:26:56Z</time>
      </trkpt>
      <trkpt lat="36.800605" lon="-3.604657">
        <ele>535.969</ele>
        <time>2022-12-10T10:26:57Z</time>
      </trkpt>
      <trkpt lat="36.800624" lon="-3.604672">
        <ele>535.390</ele>
        <time>2022-12-10T10:27:00Z</time>
      </trkpt>
      <trkpt lat="36.800652" lon="-3.604686">
        <ele>534.963</ele>
        <time>2022-12-10T10:27:02Z</time>
      </trkpt>
      <trkpt lat="36.800667" lon="-3.604692">
        <ele>534.893</ele>
        <time>2022-12-10T10:27:03Z</time>
      </trkpt>
      <trkpt lat="36.800727" lon="-3.604726">
        <ele>533.778</ele>
        <time>2022-12-10T10:27:07Z</time>
      </trkpt>
      <trkpt lat="36.800916" lon="-3.604777">
        <ele>533.233</ele>
        <time>2022-12-10T10:27:20Z</time>
      </trkpt>
      <trkpt lat="36.800943" lon="-3.604784">
        <ele>533.126</ele>
        <time>2022-12-10T10:27:22Z</time>
      </trkpt>
      <trkpt lat="36.801086" lon="-3.604770">
        <ele>534.809</ele>
        <time>2022-12-10T10:27:35Z</time>
      </trkpt>
      <trkpt lat="36.801121" lon="-3.604774">
        <ele>534.668</ele>
        <time>2022-12-10T10:27:38Z</time>
      </trkpt>
      <trkpt lat="36.801260" lon="-3.604823">
        <ele>529.889</ele>
        <time>2022-12-10T10:27:48Z</time>
      </trkpt>
      <trkpt lat="36.801430" lon="-3.604825">
        <ele>526.698</ele>
        <time>2022-12-10T10:27:59Z</time>
      </trkpt>
      <trkpt lat="36.801490" lon="-3.604820">
        <ele>525.857</ele>
        <time>2022-12-10T10:28:03Z</time>
      </trkpt>
      <trkpt lat="36.801525" lon="-3.604779">
        <ele>526.849</ele>
        <time>2022-12-10T10:28:06Z</time>
      </trkpt>
      <trkpt lat="36.801558" lon="-3.604734">
        <ele>528.115</ele>
        <time>2022-12-10T10:28:09Z</time>
      </trkpt>
      <trkpt lat="36.801575" lon="-3.604701">
        <ele>529.346</ele>
        <time>2022-12-10T10:28:11Z</time>
      </trkpt>
      <trkpt lat="36.801646" lon="-3.604492">
        <ele>537.979</ele>
        <time>2022-12-10T10:28:23Z</time>
      </trkpt>
      <trkpt lat="36.801661" lon="-3.604445">
        <ele>540.059</ele>
        <time>2022-12-10T10:28:26Z</time>
      </trkpt>
      <trkpt lat="36.801681" lon="-3.604427">
        <ele>540.483</ele>
        <time>2022-12-10T10:28:28Z</time>
      </trkpt>
      <trkpt lat="36.801860" lon="-3.604474">
        <ele>534.725</ele>
        <time>2022-12-10T10:28:40Z</time>
      </trkpt>
      <trkpt lat="36.801921" lon="-3.604470">
        <ele>533.617</ele>
        <time>2022-12-10T10:28:45Z</time>
      </trkpt>
      <trkpt lat="36.801967" lon="-3.604411">
        <ele>535.209</ele>
        <time>2022-12-10T10:28:50Z</time>
      </trkpt>
      <trkpt lat="36.801997" lon="-3.604339">
        <ele>537.769</ele>
        <time>2022-12-10T10:28:54Z</time>
      </trkpt>
      <trkpt lat="36.802062" lon="-3.604222">
        <ele>541.330</ele>
        <time>2022-12-10T10:29:02Z</time>
      </trkpt>
      <trkpt lat="36.802248" lon="-3.604244">
        <ele>540.789</ele>
        <time>2022-12-10T10:29:16Z</time>
      </trkpt>
      <trkpt lat="36.802356" lon="-3.604241">
        <ele>544.948</ele>
        <time>2022-12-10T10:29:24Z</time>
      </trkpt>
      <trkpt lat="36.802371" lon="-3.604271">
        <ele>544.560</ele>
        <time>2022-12-10T10:29:26Z</time>
      </trkpt>
      <trkpt lat="36.802401" lon="-3.604508">
        <ele>538.486</ele>
        <time>2022-12-10T10:29:38Z</time>
      </trkpt>
      <trkpt lat="36.802409" lon="-3.604522">
        <ele>538.347</ele>
        <time>2022-12-10T10:29:39Z</time>
      </trkpt>
      <trkpt lat="36.802493" lon="-3.604638">
        <ele>537.910</ele>
        <time>2022-12-10T10:29:48Z</time>
      </trkpt>
      <trkpt lat="36.802527" lon="-3.604702">
        <ele>537.460</ele>
        <time>2022-12-10T10:29:53Z</time>
      </trkpt>
      <trkpt lat="36.802545" lon="-3.604756">
        <ele>536.537</ele>
        <time>2022-12-10T10:29:57Z</time>
      </trkpt>
      <trkpt lat="36.802559" lon="-3.604845">
        <ele>534.449</ele>
        <time>2022-12-10T10:30:02Z</time>
      </trkpt>
      <trkpt lat="36.802661" lon="-3.605028">
        <ele>531.013</ele>
        <time>2022-12-10T10:30:18Z</time>
      </trkpt>
      <trkpt lat="36.802698" lon="-3.605078">
        <ele>530.209</ele>
        <time>2022-12-10T10:30:22Z</time>
      </trkpt>
      <trkpt lat="36.802763" lon="-3.605138">
        <ele>529.734</ele>
        <time>2022-12-10T10:30:28Z</time>
      </trkpt>
      <trkpt lat="36.802908" lon="-3.605026">
        <ele>535.735</ele>
        <time>2022-12-10T10:30:38Z</time>
      </trkpt>
      <trkpt lat="36.803072" lon="-3.604916">
        <ele>541.824</ele>
        <time>2022-12-10T10:30:50Z</time>
      </trkpt>
      <trkpt lat="36.803232" lon="-3.604905">
        <ele>542.723</ele>
        <time>2022-12-10T10:31:01Z</time>
      </trkpt>
      <trkpt lat="36.803313" lon="-3.604892">
        <ele>543.355</ele>
        <time>2022-12-10T10:31:07Z</time>
      </trkpt>
      <trkpt lat="36.803343" lon="-3.604893">
        <ele>543.451</ele>
        <time>2022-12-10T10:31:09Z</time>
      </trkpt>
      <trkpt lat="36.803374" lon="-3.604887">
        <ele>543.982</ele>
        <time>2022-12-10T10:31:11Z</time>
      </trkpt>
      <trkpt lat="36.803541" lon="-3.605025">
        <ele>545.165</ele>
        <time>2022-12-10T10:31:23Z</time>
      </trkpt>
      <trkpt lat="36.803611" lon="-3.605059">
        <ele>547.165</ele>
        <time>2022-12-10T10:31:29Z</time>
      </trkpt>
      <trkpt lat="36.803614" lon="-3.605067">
        <ele>547.298</ele>
        <time>2022-12-10T10:31:30Z</time>
      </trkpt>
      <trkpt lat="36.803614" lon="-3.605073">
        <ele>547.415</ele>
        <time>2022-12-10T10:31:31Z</time>
      </trkpt>
      <trkpt lat="36.803589" lon="-3.605093">
        <ele>547.226</ele>
        <time>2022-12-10T10:31:35Z</time>
      </trkpt>
      <trkpt lat="36.803398" lon="-3.605089">
        <ele>543.009</ele>
        <time>2022-12-10T10:31:48Z</time>
      </trkpt>
      <trkpt lat="36.803267" lon="-3.605239">
        <ele>540.820</ele>
        <time>2022-12-10T10:31:59Z</time>
      </trkpt>
      <trkpt lat="36.803256" lon="-3.605281">
        <ele>540.511</ele>
        <time>2022-12-10T10:32:01Z</time>
      </trkpt>
      <trkpt lat="36.803243" lon="-3.605408">
        <ele>541.040</ele>
        <time>2022-12-10T10:32:07Z</time>
      </trkpt>
      <trkpt lat="36.803218" lon="-3.605647">
        <ele>540.849</ele>
        <time>2022-12-10T10:32:18Z</time>
      </trkpt>
      <trkpt lat="36.803217" lon="-3.605701">
        <ele>540.751</ele>
        <time>2022-12-10T10:32:21Z</time>
      </trkpt>
      <trkpt lat="36.803149" lon="-3.605904">
        <ele>538.157</ele>
        <time>2022-12-10T10:32:34Z</time>
      </trkpt>
      <trkpt lat="36.803071" lon="-3.606101">
        <ele>536.598</ele>
        <time>2022-12-10T10:32:46Z</time>
      </trkpt>
      <trkpt lat="36.803136" lon="-3.606233">
        <ele>542.591</ele>
        <time>2022-12-10T10:32:54Z</time>
      </trkpt>
      <trkpt lat="36.803067" lon="-3.606454">
        <ele>547.211</ele>
        <time>2022-12-10T10:33:07Z</time>
      </trkpt>
      <trkpt lat="36.803060" lon="-3.606467">
        <ele>547.446</ele>
        <time>2022-12-10T10:33:08Z</time>
      </trkpt>
      <trkpt lat="36.803010" lon="-3.606472">
        <ele>545.788</ele>
        <time>2022-12-10T10:33:12Z</time>
      </trkpt>
      <trkpt lat="36.802886" lon="-3.606362">
        <ele>537.516</ele>
        <time>2022-12-10T10:33:22Z</time>
      </trkpt>
      <trkpt lat="36.802689" lon="-3.606382">
        <ele>531.209</ele>
        <time>2022-12-10T10:33:36Z</time>
      </trkpt>
      <trkpt lat="36.802658" lon="-3.606391">
        <ele>530.625</ele>
        <time>2022-12-10T10:33:38Z</time>
      </trkpt>
      <trkpt lat="36.802626" lon="-3.606403">
        <ele>530.166</ele>
        <time>2022-12-10T10:33:40Z</time>
      </trkpt>
      <trkpt lat="36.802506" lon="-3.606427">
        <ele>527.335</ele>
        <time>2022-12-10T10:33:50Z</time>
      </trkpt>
      <trkpt lat="36.802456" lon="-3.606469">
        <ele>527.214</ele>
        <time>2022-12-10T10:34:01Z</time>
      </trkpt>
      <trkpt lat="36.802449" lon="-3.606477">
        <ele>527.296</ele>
        <time>2022-12-10T10:34:02Z</time>
      </trkpt>
      <trkpt lat="36.802304" lon="-3.606623">
        <ele>527.292</ele>
        <time>2022-12-10T10:34:19Z</time>
      </trkpt>
      <trkpt lat="36.802285" lon="-3.606662">
        <ele>527.793</ele>
        <time>2022-12-10T10:34:22Z</time>
      </trkpt>
      <trkpt lat="36.802182" lon="-3.606787">
        <ele>524.666</ele>
        <time>2022-12-10T10:34:33Z</time>
      </trkpt>
      <trkpt lat="36.802146" lon="-3.606840">
        <ele>522.926</ele>
        <time>2022-12-10T10:34:38Z</time>
      </trkpt>
      <trkpt lat="36.802120" lon="-3.606947">
        <ele>521.517</ele>
        <time>2022-12-10T10:34:45Z</time>
      </trkpt>
      <trkpt lat="36.802112" lon="-3.607145">
        <ele>523.287</ele>
        <time>2022-12-10T10:34:57Z</time>
      </trkpt>
      <trkpt lat="36.802111" lon="-3.607187">
        <ele>523.615</ele>
        <time>2022-12-10T10:35:00Z</time>
      </trkpt>
      <trkpt lat="36.802093" lon="-3.607247">
        <ele>523.809</ele>
        <time>2022-12-10T10:35:04Z</time>
      </trkpt>
      <trkpt lat="36.802082" lon="-3.607256">
        <ele>523.582</ele>
        <time>2022-12-10T10:35:05Z</time>
      </trkpt>
      <trkpt lat="36.802009" lon="-3.607360">
        <ele>521.853</ele>
        <time>2022-12-10T10:35:13Z</time>
      </trkpt>
      <trkpt lat="36.801967" lon="-3.607447">
        <ele>520.712</ele>
        <time>2022-12-10T10:35:18Z</time>
      </trkpt>
      <trkpt lat="36.801956" lon="-3.607468">
        <ele>520.391</ele>
        <time>2022-12-10T10:35:20Z</time>
      </trkpt>
      <trkpt lat="36.801937" lon="-3.607441">
        <ele>518.623</ele>
        <time>2022-12-10T10:35:24Z</time>
      </trkpt>
      <trkpt lat="36.801939" lon="-3.607412">
        <ele>518.269</ele>
        <time>2022-12-10T10:35:27Z</time>
      </trkpt>
      <trkpt lat="36.801942" lon="-3.607400">
        <ele>518.160</ele>
        <time>2022-12-10T10:35:28Z</time>
      </trkpt>
      <trkpt lat="36.801963" lon="-3.607370">
        <ele>518.913</ele>
        <time>2022-12-10T10:35:31Z</time>
      </trkpt>
      <trkpt lat="36.801983" lon="-3.607329">
        <ele>519.473</ele>
        <time>2022-12-10T10:35:34Z</time>
      </trkpt>
      <trkpt lat="36.801993" lon="-3.607316">
        <ele>519.798</ele>
        <time>2022-12-10T10:35:35Z</time>
      </trkpt>
      <trkpt lat="36.802013" lon="-3.607292">
        <ele>520.415</ele>
        <time>2022-12-10T10:35:37Z</time>
      </trkpt>
      <trkpt lat="36.802028" lon="-3.607262">
        <ele>520.526</ele>
        <time>2022-12-10T10:35:39Z</time>
      </trkpt>
      <trkpt lat="36.802027" lon="-3.607233">
        <ele>519.709</ele>
        <time>2022-12-10T10:35:41Z</time>
      </trkpt>
      <trkpt lat="36.802028" lon="-3.607219">
        <ele>519.550</ele>
        <time>2022-12-10T10:35:42Z</time>
      </trkpt>
      <trkpt lat="36.802029" lon="-3.607187">
        <ele>519.231</ele>
        <time>2022-12-10T10:35:44Z</time>
      </trkpt>
      <trkpt lat="36.802011" lon="-3.607130">
        <ele>517.640</ele>
        <time>2022-12-10T10:35:48Z</time>
      </trkpt>
      <trkpt lat="36.801975" lon="-3.607056">
        <ele>514.989</ele>
        <time>2022-12-10T10:35:53Z</time>
      </trkpt>
      <trkpt lat="36.801904" lon="-3.607179">
        <ele>513.171</ele>
        <time>2022-12-10T10:36:04Z</time>
      </trkpt>
      <trkpt lat="36.801890" lon="-3.607198">
        <ele>512.817</ele>
        <time>2022-12-10T10:36:06Z</time>
      </trkpt>
      <trkpt lat="36.801869" lon="-3.607228">
        <ele>512.488</ele>
        <time>2022-12-10T10:36:09Z</time>
      </trkpt>
      <trkpt lat="36.801836" lon="-3.607269">
        <ele>511.851</ele>
        <time>2022-12-10T10:36:13Z</time>
      </trkpt>
      <trkpt lat="36.801797" lon="-3.607318">
        <ele>511.161</ele>
        <time>2022-12-10T10:36:18Z</time>
      </trkpt>
      <trkpt lat="36.801768" lon="-3.607340">
        <ele>510.251</ele>
        <time>2022-12-10T10:36:21Z</time>
      </trkpt>
      <trkpt lat="36.801764" lon="-3.607364">
        <ele>510.401</ele>
        <time>2022-12-10T10:36:23Z</time>
      </trkpt>
      <trkpt lat="36.801754" lon="-3.607370">
        <ele>510.111</ele>
        <time>2022-12-10T10:36:25Z</time>
      </trkpt>
      <trkpt lat="36.801736" lon="-3.607388">
        <ele>509.609</ele>
        <time>2022-12-10T10:36:27Z</time>
      </trkpt>
      <trkpt lat="36.801724" lon="-3.607392">
        <ele>509.176</ele>
        <time>2022-12-10T10:36:28Z</time>
      </trkpt>
      <trkpt lat="36.801693" lon="-3.607434">
        <ele>508.437</ele>
        <time>2022-12-10T10:36:32Z</time>
      </trkpt>
      <trkpt lat="36.801667" lon="-3.607466">
        <ele>507.636</ele>
        <time>2022-12-10T10:36:36Z</time>
      </trkpt>
      <trkpt lat="36.801664" lon="-3.607477">
        <ele>507.795</ele>
        <time>2022-12-10T10:36:38Z</time>
      </trkpt>
      <trkpt lat="36.801652" lon="-3.607506">
        <ele>507.627</ele>
        <time>2022-12-10T10:36:40Z</time>
      </trkpt>
      <trkpt lat="36.801635" lon="-3.607538">
        <ele>507.543</ele>
        <time>2022-12-10T10:36:42Z</time>
      </trkpt>
      <trkpt lat="36.801617" lon="-3.607583">
        <ele>507.544</ele>
        <time>2022-12-10T10:36:45Z</time>
      </trkpt>
      <trkpt lat="36.801611" lon="-3.607598">
        <ele>507.597</ele>
        <time>2022-12-10T10:36:46Z</time>
      </trkpt>
      <trkpt lat="36.801591" lon="-3.607639">
        <ele>507.127</ele>
        <time>2022-12-10T10:36:49Z</time>
      </trkpt>
      <trkpt lat="36.801562" lon="-3.607747">
        <ele>506.741</ele>
        <time>2022-12-10T10:36:57Z</time>
      </trkpt>
      <trkpt lat="36.801548" lon="-3.607758">
        <ele>506.081</ele>
        <time>2022-12-10T10:36:59Z</time>
      </trkpt>
      <trkpt lat="36.801536" lon="-3.607731">
        <ele>505.209</ele>
        <time>2022-12-10T10:37:02Z</time>
      </trkpt>
      <trkpt lat="36.801553" lon="-3.607647">
        <ele>505.409</ele>
        <time>2022-12-10T10:37:07Z</time>
      </trkpt>
      <trkpt lat="36.801554" lon="-3.607601">
        <ele>505.185</ele>
        <time>2022-12-10T10:37:10Z</time>
      </trkpt>
      <trkpt lat="36.801559" lon="-3.607556">
        <ele>505.026</ele>
        <time>2022-12-10T10:37:14Z</time>
      </trkpt>
      <trkpt lat="36.801557" lon="-3.607543">
        <ele>504.885</ele>
        <time>2022-12-10T10:37:15Z</time>
      </trkpt>
      <trkpt lat="36.801543" lon="-3.607520">
        <ele>504.164</ele>
        <time>2022-12-10T10:37:17Z</time>
      </trkpt>
      <trkpt lat="36.801515" lon="-3.607541">
        <ele>503.386</ele>
        <time>2022-12-10T10:37:20Z</time>
      </trkpt>
      <trkpt lat="36.801496" lon="-3.607591">
        <ele>502.792</ele>
        <time>2022-12-10T10:37:24Z</time>
      </trkpt>
      <trkpt lat="36.801481" lon="-3.607622">
        <ele>502.143</ele>
        <time>2022-12-10T10:37:27Z</time>
      </trkpt>
      <trkpt lat="36.801466" lon="-3.607646">
        <ele>501.546</ele>
        <time>2022-12-10T10:37:29Z</time>
      </trkpt>
      <trkpt lat="36.801412" lon="-3.607730">
        <ele>498.676</ele>
        <time>2022-12-10T10:37:35Z</time>
      </trkpt>
      <trkpt lat="36.801373" lon="-3.607766">
        <ele>496.441</ele>
        <time>2022-12-10T10:37:39Z</time>
      </trkpt>
      <trkpt lat="36.801320" lon="-3.607843">
        <ele>495.081</ele>
        <time>2022-12-10T10:37:45Z</time>
      </trkpt>
      <trkpt lat="36.801298" lon="-3.607891">
        <ele>494.709</ele>
        <time>2022-12-10T10:37:48Z</time>
      </trkpt>
      <trkpt lat="36.801243" lon="-3.608041">
        <ele>493.909</ele>
        <time>2022-12-10T10:37:58Z</time>
      </trkpt>
      <trkpt lat="36.801239" lon="-3.608054">
        <ele>493.915</ele>
        <time>2022-12-10T10:37:59Z</time>
      </trkpt>
      <trkpt lat="36.801236" lon="-3.608073">
        <ele>493.926</ele>
        <time>2022-12-10T10:38:01Z</time>
      </trkpt>
      <trkpt lat="36.801236" lon="-3.608090">
        <ele>494.185</ele>
        <time>2022-12-10T10:38:08Z</time>
      </trkpt>
      <trkpt lat="36.801250" lon="-3.608055">
        <ele>494.524</ele>
        <time>2022-12-10T10:38:11Z</time>
      </trkpt>
      <trkpt lat="36.801268" lon="-3.607997">
        <ele>494.746</ele>
        <time>2022-12-10T10:38:15Z</time>
      </trkpt>
      <trkpt lat="36.801288" lon="-3.607938">
        <ele>494.922</ele>
        <time>2022-12-10T10:38:20Z</time>
      </trkpt>
      <trkpt lat="36.801288" lon="-3.607927">
        <ele>494.773</ele>
        <time>2022-12-10T10:38:21Z</time>
      </trkpt>
      <trkpt lat="36.801289" lon="-3.607914">
        <ele>494.646</ele>
        <time>2022-12-10T10:38:22Z</time>
      </trkpt>
      <trkpt lat="36.801288" lon="-3.607876">
        <ele>494.036</ele>
        <time>2022-12-10T10:38:24Z</time>
      </trkpt>
      <trkpt lat="36.801281" lon="-3.607836">
        <ele>493.194</ele>
        <time>2022-12-10T10:38:26Z</time>
      </trkpt>
      <trkpt lat="36.801277" lon="-3.607819">
        <ele>492.757</ele>
        <time>2022-12-10T10:38:27Z</time>
      </trkpt>
      <trkpt lat="36.801257" lon="-3.607759">
        <ele>491.422</ele>
        <time>2022-12-10T10:38:30Z</time>
      </trkpt>
      <trkpt lat="36.801248" lon="-3.607739">
        <ele>491.109</ele>
        <time>2022-12-10T10:38:31Z</time>
      </trkpt>
      <trkpt lat="36.801243" lon="-3.607722">
        <ele>490.990</ele>
        <time>2022-12-10T10:38:32Z</time>
      </trkpt>
      <trkpt lat="36.801227" lon="-3.607686">
        <ele>490.311</ele>
        <time>2022-12-10T10:38:35Z</time>
      </trkpt>
      <trkpt lat="36.801209" lon="-3.607659">
        <ele>489.560</ele>
        <time>2022-12-10T10:38:38Z</time>
      </trkpt>
      <trkpt lat="36.801199" lon="-3.607656">
        <ele>489.169</ele>
        <time>2022-12-10T10:38:40Z</time>
      </trkpt>
      <trkpt lat="36.801192" lon="-3.607651">
        <ele>488.821</ele>
        <time>2022-12-10T10:38:42Z</time>
      </trkpt>
      <trkpt lat="36.801166" lon="-3.607626">
        <ele>487.617</ele>
        <time>2022-12-10T10:38:46Z</time>
      </trkpt>
      <trkpt lat="36.801120" lon="-3.607620">
        <ele>485.428</ele>
        <time>2022-12-10T10:38:51Z</time>
      </trkpt>
      <trkpt lat="36.801092" lon="-3.607655">
        <ele>484.091</ele>
        <time>2022-12-10T10:38:54Z</time>
      </trkpt>
      <trkpt lat="36.801078" lon="-3.607676">
        <ele>483.291</ele>
        <time>2022-12-10T10:38:56Z</time>
      </trkpt>
      <trkpt lat="36.801039" lon="-3.607696">
        <ele>481.213</ele>
        <time>2022-12-10T10:39:00Z</time>
      </trkpt>
      <trkpt lat="36.801004" lon="-3.607712">
        <ele>479.443</ele>
        <time>2022-12-10T10:39:04Z</time>
      </trkpt>
      <trkpt lat="36.800994" lon="-3.607707">
        <ele>478.907</ele>
        <time>2022-12-10T10:39:05Z</time>
      </trkpt>
      <trkpt lat="36.800986" lon="-3.607704">
        <ele>478.509</ele>
        <time>2022-12-10T10:39:06Z</time>
      </trkpt>
      <trkpt lat="36.800965" lon="-3.607693">
        <ele>477.362</ele>
        <time>2022-12-10T10:39:08Z</time>
      </trkpt>
      <trkpt lat="36.800953" lon="-3.607684">
        <ele>476.643</ele>
        <time>2022-12-10T10:39:10Z</time>
      </trkpt>
      <trkpt lat="36.800932" lon="-3.607659">
        <ele>475.482</ele>
        <time>2022-12-10T10:39:14Z</time>
      </trkpt>
      <trkpt lat="36.800927" lon="-3.607647">
        <ele>475.111</ele>
        <time>2022-12-10T10:39:15Z</time>
      </trkpt>
      <trkpt lat="36.800919" lon="-3.607622">
        <ele>474.533</ele>
        <time>2022-12-10T10:39:17Z</time>
      </trkpt>
      <trkpt lat="36.800902" lon="-3.607608">
        <ele>473.519</ele>
        <time>2022-12-10T10:39:19Z</time>
      </trkpt>
      <trkpt lat="36.800885" lon="-3.607619">
        <ele>472.710</ele>
        <time>2022-12-10T10:39:21Z</time>
      </trkpt>
      <trkpt lat="36.800875" lon="-3.607638">
        <ele>472.273</ele>
        <time>2022-12-10T10:39:23Z</time>
      </trkpt>
      <trkpt lat="36.800865" lon="-3.607669">
        <ele>471.923</ele>
        <time>2022-12-10T10:39:26Z</time>
      </trkpt>
      <trkpt lat="36.800850" lon="-3.607694">
        <ele>471.379</ele>
        <time>2022-12-10T10:39:30Z</time>
      </trkpt>
      <trkpt lat="36.800846" lon="-3.607703">
        <ele>471.105</ele>
        <time>2022-12-10T10:39:31Z</time>
      </trkpt>
      <trkpt lat="36.800817" lon="-3.607752">
        <ele>470.125</ele>
        <time>2022-12-10T10:39:35Z</time>
      </trkpt>
      <trkpt lat="36.800810" lon="-3.607761">
        <ele>469.809</ele>
        <time>2022-12-10T10:39:36Z</time>
      </trkpt>
      <trkpt lat="36.800803" lon="-3.607772">
        <ele>469.588</ele>
        <time>2022-12-10T10:39:38Z</time>
      </trkpt>
      <trkpt lat="36.800796" lon="-3.607793">
        <ele>469.449</ele>
        <time>2022-12-10T10:39:40Z</time>
      </trkpt>
      <trkpt lat="36.800789" lon="-3.607810">
        <ele>469.338</ele>
        <time>2022-12-10T10:39:41Z</time>
      </trkpt>
      <trkpt lat="36.800752" lon="-3.607859">
        <ele>468.297</ele>
        <time>2022-12-10T10:39:45Z</time>
      </trkpt>
      <trkpt lat="36.800717" lon="-3.607873">
        <ele>466.959</ele>
        <time>2022-12-10T10:39:48Z</time>
      </trkpt>
      <trkpt lat="36.800700" lon="-3.607910">
        <ele>466.655</ele>
        <time>2022-12-10T10:39:51Z</time>
      </trkpt>
      <trkpt lat="36.800692" lon="-3.607918">
        <ele>466.486</ele>
        <time>2022-12-10T10:39:52Z</time>
      </trkpt>
      <trkpt lat="36.800663" lon="-3.607915">
        <ele>465.149</ele>
        <time>2022-12-10T10:39:55Z</time>
      </trkpt>
      <trkpt lat="36.800653" lon="-3.607907">
        <ele>464.649</ele>
        <time>2022-12-10T10:39:57Z</time>
      </trkpt>
      <trkpt lat="36.800650" lon="-3.607903">
        <ele>464.472</ele>
        <time>2022-12-10T10:39:58Z</time>
      </trkpt>
      <trkpt lat="36.800626" lon="-3.607859">
        <ele>462.613</ele>
        <time>2022-12-10T10:40:04Z</time>
      </trkpt>
      <trkpt lat="36.800607" lon="-3.607859">
        <ele>461.814</ele>
        <time>2022-12-10T10:40:06Z</time>
      </trkpt>
      <trkpt lat="36.800593" lon="-3.607874">
        <ele>461.409</ele>
        <time>2022-12-10T10:40:08Z</time>
      </trkpt>
      <trkpt lat="36.800555" lon="-3.607945">
        <ele>461.088</ele>
        <time>2022-12-10T10:40:14Z</time>
      </trkpt>
      <trkpt lat="36.800534" lon="-3.607972">
        <ele>460.719</ele>
        <time>2022-12-10T10:40:17Z</time>
      </trkpt>
      <trkpt lat="36.800531" lon="-3.607982">
        <ele>460.878</ele>
        <time>2022-12-10T10:40:18Z</time>
      </trkpt>
      <trkpt lat="36.800517" lon="-3.608007">
        <ele>460.797</ele>
        <time>2022-12-10T10:40:21Z</time>
      </trkpt>
      <trkpt lat="36.800500" lon="-3.608029">
        <ele>460.479</ele>
        <time>2022-12-10T10:40:23Z</time>
      </trkpt>
      <trkpt lat="36.800482" lon="-3.608035">
        <ele>459.865</ele>
        <time>2022-12-10T10:40:25Z</time>
      </trkpt>
      <trkpt lat="36.800469" lon="-3.608021">
        <ele>459.146</ele>
        <time>2022-12-10T10:40:28Z</time>
      </trkpt>
      <trkpt lat="36.800455" lon="-3.608003">
        <ele>458.379</ele>
        <time>2022-12-10T10:40:30Z</time>
      </trkpt>
      <trkpt lat="36.800433" lon="-3.607993">
        <ele>457.339</ele>
        <time>2022-12-10T10:40:32Z</time>
      </trkpt>
      <trkpt lat="36.800400" lon="-3.607988">
        <ele>456.094</ele>
        <time>2022-12-10T10:40:35Z</time>
      </trkpt>
      <trkpt lat="36.800375" lon="-3.607983">
        <ele>455.157</ele>
        <time>2022-12-10T10:40:38Z</time>
      </trkpt>
      <trkpt lat="36.800350" lon="-3.607976">
        <ele>454.122</ele>
        <time>2022-12-10T10:40:41Z</time>
      </trkpt>
      <trkpt lat="36.800336" lon="-3.607963">
        <ele>453.409</ele>
        <time>2022-12-10T10:40:43Z</time>
      </trkpt>
      <trkpt lat="36.800310" lon="-3.607937">
        <ele>452.340</ele>
        <time>2022-12-10T10:40:47Z</time>
      </trkpt>
      <trkpt lat="36.800303" lon="-3.607932">
        <ele>452.031</ele>
        <time>2022-12-10T10:40:48Z</time>
      </trkpt>
      <trkpt lat="36.800289" lon="-3.607910">
        <ele>451.310</ele>
        <time>2022-12-10T10:40:58Z</time>
      </trkpt>
      <trkpt lat="36.800288" lon="-3.607921">
        <ele>451.499</ele>
        <time>2022-12-10T10:41:08Z</time>
      </trkpt>
      <trkpt lat="36.800233" lon="-3.607854">
        <ele>448.931</ele>
        <time>2022-12-10T10:43:30Z</time>
      </trkpt>
      <trkpt lat="36.800196" lon="-3.607877">
        <ele>447.867</ele>
        <time>2022-12-10T10:43:34Z</time>
      </trkpt>
      <trkpt lat="36.800178" lon="-3.607905">
        <ele>447.558</ele>
        <time>2022-12-10T10:43:37Z</time>
      </trkpt>
      <trkpt lat="36.800161" lon="-3.607910">
        <ele>446.921</ele>
        <time>2022-12-10T10:43:39Z</time>
      </trkpt>
      <trkpt lat="36.800118" lon="-3.607863">
        <ele>444.811</ele>
        <time>2022-12-10T10:43:46Z</time>
      </trkpt>
      <trkpt lat="36.800097" lon="-3.607855">
        <ele>443.981</ele>
        <time>2022-12-10T10:43:48Z</time>
      </trkpt>
      <trkpt lat="36.800078" lon="-3.607868">
        <ele>443.461</ele>
        <time>2022-12-10T10:43:50Z</time>
      </trkpt>
      <trkpt lat="36.800065" lon="-3.607873">
        <ele>443.017</ele>
        <time>2022-12-10T10:43:51Z</time>
      </trkpt>
      <trkpt lat="36.800043" lon="-3.607883">
        <ele>442.409</ele>
        <time>2022-12-10T10:43:53Z</time>
      </trkpt>
      <trkpt lat="36.799985" lon="-3.607945">
        <ele>441.559</ele>
        <time>2022-12-10T10:43:59Z</time>
      </trkpt>
      <trkpt lat="36.799951" lon="-3.607993">
        <ele>441.280</ele>
        <time>2022-12-10T10:44:03Z</time>
      </trkpt>
      <trkpt lat="36.799905" lon="-3.608046">
        <ele>440.799</ele>
        <time>2022-12-10T10:44:08Z</time>
      </trkpt>
      <trkpt lat="36.799870" lon="-3.608082">
        <ele>440.188</ele>
        <time>2022-12-10T10:44:11Z</time>
      </trkpt>
      <trkpt lat="36.799837" lon="-3.608146">
        <ele>439.740</ele>
        <time>2022-12-10T10:44:15Z</time>
      </trkpt>
      <trkpt lat="36.799821" lon="-3.608210">
        <ele>439.986</ele>
        <time>2022-12-10T10:44:19Z</time>
      </trkpt>
      <trkpt lat="36.799819" lon="-3.608236">
        <ele>440.137</ele>
        <time>2022-12-10T10:44:21Z</time>
      </trkpt>
      <trkpt lat="36.799821" lon="-3.608303">
        <ele>440.970</ele>
        <time>2022-12-10T10:44:25Z</time>
      </trkpt>
      <trkpt lat="36.799803" lon="-3.608439">
        <ele>441.930</ele>
        <time>2022-12-10T10:44:33Z</time>
      </trkpt>
      <trkpt lat="36.799772" lon="-3.608462">
        <ele>441.162</ele>
        <time>2022-12-10T10:44:36Z</time>
      </trkpt>
      <trkpt lat="36.799751" lon="-3.608466">
        <ele>440.483</ele>
        <time>2022-12-10T10:44:39Z</time>
      </trkpt>
      <trkpt lat="36.799745" lon="-3.608467">
        <ele>440.211</ele>
        <time>2022-12-10T10:44:40Z</time>
      </trkpt>
      <trkpt lat="36.799737" lon="-3.608467">
        <ele>439.909</ele>
        <time>2022-12-10T10:44:42Z</time>
      </trkpt>
      <trkpt lat="36.799727" lon="-3.608459">
        <ele>439.587</ele>
        <time>2022-12-10T10:44:44Z</time>
      </trkpt>
      <trkpt lat="36.799699" lon="-3.608456">
        <ele>438.728</ele>
        <time>2022-12-10T10:44:47Z</time>
      </trkpt>
      <trkpt lat="36.799681" lon="-3.608458">
        <ele>438.217</ele>
        <time>2022-12-10T10:44:49Z</time>
      </trkpt>
      <trkpt lat="36.799656" lon="-3.608445">
        <ele>437.366</ele>
        <time>2022-12-10T10:44:52Z</time>
      </trkpt>
      <trkpt lat="36.799635" lon="-3.608442">
        <ele>436.798</ele>
        <time>2022-12-10T10:44:54Z</time>
      </trkpt>
      <trkpt lat="36.799596" lon="-3.608452">
        <ele>435.624</ele>
        <time>2022-12-10T10:44:57Z</time>
      </trkpt>
      <trkpt lat="36.799536" lon="-3.608451">
        <ele>433.975</ele>
        <time>2022-12-10T10:45:00Z</time>
      </trkpt>
      <trkpt lat="36.799469" lon="-3.608432">
        <ele>431.838</ele>
        <time>2022-12-10T10:45:05Z</time>
      </trkpt>
      <trkpt lat="36.799385" lon="-3.608378">
        <ele>428.928</ele>
        <time>2022-12-10T10:45:12Z</time>
      </trkpt>
      <trkpt lat="36.799356" lon="-3.608388">
        <ele>428.373</ele>
        <time>2022-12-10T10:45:14Z</time>
      </trkpt>
      <trkpt lat="36.799332" lon="-3.608391">
        <ele>427.785</ele>
        <time>2022-12-10T10:45:16Z</time>
      </trkpt>
      <trkpt lat="36.799298" lon="-3.608426">
        <ele>427.113</ele>
        <time>2022-12-10T10:45:19Z</time>
      </trkpt>
      <trkpt lat="36.799284" lon="-3.608442">
        <ele>426.909</ele>
        <time>2022-12-10T10:45:21Z</time>
      </trkpt>
      <trkpt lat="36.799259" lon="-3.608455">
        <ele>426.358</ele>
        <time>2022-12-10T10:45:23Z</time>
      </trkpt>
      <trkpt lat="36.799252" lon="-3.608459">
        <ele>426.259</ele>
        <time>2022-12-10T10:45:24Z</time>
      </trkpt>
      <trkpt lat="36.799228" lon="-3.608474">
        <ele>425.778</ele>
        <time>2022-12-10T10:45:26Z</time>
      </trkpt>
      <trkpt lat="36.799205" lon="-3.608503">
        <ele>425.397</ele>
        <time>2022-12-10T10:45:28Z</time>
      </trkpt>
      <trkpt lat="36.799182" lon="-3.608529">
        <ele>424.859</ele>
        <time>2022-12-10T10:45:30Z</time>
      </trkpt>
      <trkpt lat="36.799153" lon="-3.608572">
        <ele>424.235</ele>
        <time>2022-12-10T10:45:34Z</time>
      </trkpt>
      <trkpt lat="36.799149" lon="-3.608612">
        <ele>424.416</ele>
        <time>2022-12-10T10:45:36Z</time>
      </trkpt>
      <trkpt lat="36.799137" lon="-3.608676">
        <ele>423.939</ele>
        <time>2022-12-10T10:45:39Z</time>
      </trkpt>
      <trkpt lat="36.799129" lon="-3.608754">
        <ele>423.679</ele>
        <time>2022-12-10T10:45:43Z</time>
      </trkpt>
      <trkpt lat="36.799096" lon="-3.608833">
        <ele>422.544</ele>
        <time>2022-12-10T10:45:48Z</time>
      </trkpt>
      <trkpt lat="36.799078" lon="-3.608883">
        <ele>421.805</ele>
        <time>2022-12-10T10:45:52Z</time>
      </trkpt>
      <trkpt lat="36.799056" lon="-3.608912">
        <ele>421.115</ele>
        <time>2022-12-10T10:45:55Z</time>
      </trkpt>
      <trkpt lat="36.799047" lon="-3.608922">
        <ele>420.809</ele>
        <time>2022-12-10T10:45:56Z</time>
      </trkpt>
      <trkpt lat="36.799038" lon="-3.608931">
        <ele>420.515</ele>
        <time>2022-12-10T10:45:57Z</time>
      </trkpt>
      <trkpt lat="36.799023" lon="-3.608975">
        <ele>420.186</ele>
        <time>2022-12-10T10:46:01Z</time>
      </trkpt>
      <trkpt lat="36.799016" lon="-3.608985">
        <ele>419.945</ele>
        <time>2022-12-10T10:46:02Z</time>
      </trkpt>
      <trkpt lat="36.798976" lon="-3.609057">
        <ele>418.754</ele>
        <time>2022-12-10T10:46:08Z</time>
      </trkpt>
      <trkpt lat="36.798937" lon="-3.609105">
        <ele>417.576</ele>
        <time>2022-12-10T10:46:13Z</time>
      </trkpt>
      <trkpt lat="36.798893" lon="-3.609184">
        <ele>416.492</ele>
        <time>2022-12-10T10:46:19Z</time>
      </trkpt>
      <trkpt lat="36.798853" lon="-3.609279">
        <ele>416.053</ele>
        <time>2022-12-10T10:46:25Z</time>
      </trkpt>
      <trkpt lat="36.798836" lon="-3.609315">
        <ele>415.726</ele>
        <time>2022-12-10T10:46:29Z</time>
      </trkpt>
      <trkpt lat="36.798832" lon="-3.609320">
        <ele>415.646</ele>
        <time>2022-12-10T10:46:30Z</time>
      </trkpt>
      <trkpt lat="36.798826" lon="-3.609339">
        <ele>415.644</ele>
        <time>2022-12-10T10:46:32Z</time>
      </trkpt>
      <trkpt lat="36.798802" lon="-3.609372">
        <ele>414.805</ele>
        <time>2022-12-10T10:46:35Z</time>
      </trkpt>
      <trkpt lat="36.798781" lon="-3.609391">
        <ele>414.015</ele>
        <time>2022-12-10T10:46:37Z</time>
      </trkpt>
      <trkpt lat="36.798755" lon="-3.609420">
        <ele>413.009</ele>
        <time>2022-12-10T10:46:40Z</time>
      </trkpt>
      <trkpt lat="36.798724" lon="-3.609433">
        <ele>411.695</ele>
        <time>2022-12-10T10:46:43Z</time>
      </trkpt>
      <trkpt lat="36.798694" lon="-3.609445">
        <ele>410.246</ele>
        <time>2022-12-10T10:46:47Z</time>
      </trkpt>
      <trkpt lat="36.798677" lon="-3.609447">
        <ele>409.395</ele>
        <time>2022-12-10T10:46:49Z</time>
      </trkpt>
      <trkpt lat="36.798682" lon="-3.609471">
        <ele>409.584</ele>
        <time>2022-12-10T10:46:52Z</time>
      </trkpt>
      <trkpt lat="36.798696" lon="-3.609496">
        <ele>410.136</ele>
        <time>2022-12-10T10:46:54Z</time>
      </trkpt>
      <trkpt lat="36.798706" lon="-3.609527">
        <ele>410.572</ele>
        <time>2022-12-10T10:46:57Z</time>
      </trkpt>
      <trkpt lat="36.798713" lon="-3.609535">
        <ele>410.843</ele>
        <time>2022-12-10T10:46:58Z</time>
      </trkpt>
      <trkpt lat="36.798720" lon="-3.609543">
        <ele>411.186</ele>
        <time>2022-12-10T10:46:59Z</time>
      </trkpt>
      <trkpt lat="36.798728" lon="-3.609589">
        <ele>411.496</ele>
        <time>2022-12-10T10:47:02Z</time>
      </trkpt>
      <trkpt lat="36.798723" lon="-3.609653">
        <ele>410.913</ele>
        <time>2022-12-10T10:47:06Z</time>
      </trkpt>
      <trkpt lat="36.798721" lon="-3.609738">
        <ele>410.643</ele>
        <time>2022-12-10T10:47:10Z</time>
      </trkpt>
      <trkpt lat="36.798739" lon="-3.609791">
        <ele>411.807</ele>
        <time>2022-12-10T10:47:14Z</time>
      </trkpt>
      <trkpt lat="36.798711" lon="-3.609891">
        <ele>410.909</ele>
        <time>2022-12-10T10:47:21Z</time>
      </trkpt>
      <trkpt lat="36.798688" lon="-3.609944">
        <ele>409.982</ele>
        <time>2022-12-10T10:47:24Z</time>
      </trkpt>
      <trkpt lat="36.798612" lon="-3.610110">
        <ele>408.473</ele>
        <time>2022-12-10T10:47:34Z</time>
      </trkpt>
      <trkpt lat="36.798469" lon="-3.610263">
        <ele>403.552</ele>
        <time>2022-12-10T10:47:48Z</time>
      </trkpt>
      <trkpt lat="36.798445" lon="-3.610281">
        <ele>402.511</ele>
        <time>2022-12-10T10:47:50Z</time>
      </trkpt>
      <trkpt lat="36.798363" lon="-3.610299">
        <ele>398.173</ele>
        <time>2022-12-10T10:47:56Z</time>
      </trkpt>
      <trkpt lat="36.798295" lon="-3.610315">
        <ele>395.299</ele>
        <time>2022-12-10T10:48:01Z</time>
      </trkpt>
      <trkpt lat="36.798260" lon="-3.610332">
        <ele>394.170</ele>
        <time>2022-12-10T10:48:04Z</time>
      </trkpt>
      <trkpt lat="36.798244" lon="-3.610353">
        <ele>393.893</ele>
        <time>2022-12-10T10:48:06Z</time>
      </trkpt>
      <trkpt lat="36.798231" lon="-3.610380">
        <ele>393.813</ele>
        <time>2022-12-10T10:48:08Z</time>
      </trkpt>
      <trkpt lat="36.798216" lon="-3.610398">
        <ele>393.564</ele>
        <time>2022-12-10T10:48:10Z</time>
      </trkpt>
      <trkpt lat="36.798195" lon="-3.610414">
        <ele>393.006</ele>
        <time>2022-12-10T10:48:13Z</time>
      </trkpt>
      <trkpt lat="36.798184" lon="-3.610443">
        <ele>393.116</ele>
        <time>2022-12-10T10:48:15Z</time>
      </trkpt>
      <trkpt lat="36.798172" lon="-3.610460">
        <ele>392.909</ele>
        <time>2022-12-10T10:48:16Z</time>
      </trkpt>
      <trkpt lat="36.798156" lon="-3.610476">
        <ele>392.557</ele>
        <time>2022-12-10T10:48:17Z</time>
      </trkpt>
      <trkpt lat="36.798131" lon="-3.610506">
        <ele>392.188</ele>
        <time>2022-12-10T10:48:19Z</time>
      </trkpt>
      <trkpt lat="36.798078" lon="-3.610555">
        <ele>390.947</ele>
        <time>2022-12-10T10:48:24Z</time>
      </trkpt>
      <trkpt lat="36.798056" lon="-3.610576">
        <ele>389.886</ele>
        <time>2022-12-10T10:48:26Z</time>
      </trkpt>
      <trkpt lat="36.798012" lon="-3.610592">
        <ele>388.468</ele>
        <time>2022-12-10T10:48:29Z</time>
      </trkpt>
      <trkpt lat="36.797988" lon="-3.610595">
        <ele>387.734</ele>
        <time>2022-12-10T10:48:31Z</time>
      </trkpt>
      <trkpt lat="36.797981" lon="-3.610599">
        <ele>387.595</ele>
        <time>2022-12-10T10:48:33Z</time>
      </trkpt>
      <trkpt lat="36.797978" lon="-3.610601">
        <ele>387.498</ele>
        <time>2022-12-10T10:48:34Z</time>
      </trkpt>
      <trkpt lat="36.797924" lon="-3.610611">
        <ele>385.868</ele>
        <time>2022-12-10T10:48:39Z</time>
      </trkpt>
      <trkpt lat="36.797815" lon="-3.610602">
        <ele>382.922</ele>
        <time>2022-12-10T10:48:47Z</time>
      </trkpt>
      <trkpt lat="36.797709" lon="-3.610575">
        <ele>381.262</ele>
        <time>2022-12-10T10:48:55Z</time>
      </trkpt>
      <trkpt lat="36.797524" lon="-3.610539">
        <ele>379.108</ele>
        <time>2022-12-10T10:49:07Z</time>
      </trkpt>
      <trkpt lat="36.797479" lon="-3.610530">
        <ele>378.709</ele>
        <time>2022-12-10T10:49:10Z</time>
      </trkpt>
      <trkpt lat="36.797354" lon="-3.610470">
        <ele>377.973</ele>
        <time>2022-12-10T10:49:20Z</time>
      </trkpt>
      <trkpt lat="36.797307" lon="-3.610455">
        <ele>377.694</ele>
        <time>2022-12-10T10:49:24Z</time>
      </trkpt>
      <trkpt lat="36.797284" lon="-3.610442">
        <ele>377.443</ele>
        <time>2022-12-10T10:49:26Z</time>
      </trkpt>
      <trkpt lat="36.797258" lon="-3.610423">
        <ele>377.272</ele>
        <time>2022-12-10T10:49:29Z</time>
      </trkpt>
      <trkpt lat="36.797219" lon="-3.610396">
        <ele>376.814</ele>
        <time>2022-12-10T10:49:32Z</time>
      </trkpt>
      <trkpt lat="36.797156" lon="-3.610350">
        <ele>375.770</ele>
        <time>2022-12-10T10:49:37Z</time>
      </trkpt>
      <trkpt lat="36.797106" lon="-3.610289">
        <ele>374.881</ele>
        <time>2022-12-10T10:49:43Z</time>
      </trkpt>
      <trkpt lat="36.797080" lon="-3.610221">
        <ele>373.354</ele>
        <time>2022-12-10T10:49:48Z</time>
      </trkpt>
      <trkpt lat="36.797076" lon="-3.610192">
        <ele>372.784</ele>
        <time>2022-12-10T10:49:50Z</time>
      </trkpt>
      <trkpt lat="36.797066" lon="-3.610138">
        <ele>371.565</ele>
        <time>2022-12-10T10:49:53Z</time>
      </trkpt>
      <trkpt lat="36.797064" lon="-3.610102">
        <ele>370.868</ele>
        <time>2022-12-10T10:49:55Z</time>
      </trkpt>
      <trkpt lat="36.797049" lon="-3.610080">
        <ele>370.114</ele>
        <time>2022-12-10T10:49:57Z</time>
      </trkpt>
      <trkpt lat="36.797024" lon="-3.610003">
        <ele>368.209</ele>
        <time>2022-12-10T10:50:02Z</time>
      </trkpt>
      <trkpt lat="36.797000" lon="-3.609914">
        <ele>366.387</ele>
        <time>2022-12-10T10:50:07Z</time>
      </trkpt>
      <trkpt lat="36.796961" lon="-3.609827">
        <ele>364.668</ele>
        <time>2022-12-10T10:50:12Z</time>
      </trkpt>
      <trkpt lat="36.796919" lon="-3.609747">
        <ele>363.177</ele>
        <time>2022-12-10T10:50:18Z</time>
      </trkpt>
      <trkpt lat="36.796889" lon="-3.609729">
        <ele>362.566</ele>
        <time>2022-12-10T10:50:22Z</time>
      </trkpt>
      <trkpt lat="36.796876" lon="-3.609724">
        <ele>362.378</ele>
        <time>2022-12-10T10:50:23Z</time>
      </trkpt>
      <trkpt lat="36.796856" lon="-3.609716">
        <ele>361.984</ele>
        <time>2022-12-10T10:50:25Z</time>
      </trkpt>
      <trkpt lat="36.796794" lon="-3.609694">
        <ele>360.915</ele>
        <time>2022-12-10T10:50:29Z</time>
      </trkpt>
      <trkpt lat="36.796715" lon="-3.609680">
        <ele>360.068</ele>
        <time>2022-12-10T10:50:34Z</time>
      </trkpt>
      <trkpt lat="36.796662" lon="-3.609679">
        <ele>359.568</ele>
        <time>2022-12-10T10:50:38Z</time>
      </trkpt>
      <trkpt lat="36.796590" lon="-3.609696">
        <ele>359.184</ele>
        <time>2022-12-10T10:50:43Z</time>
      </trkpt>
      <trkpt lat="36.796529" lon="-3.609705">
        <ele>358.807</ele>
        <time>2022-12-10T10:50:47Z</time>
      </trkpt>
      <trkpt lat="36.796458" lon="-3.609692">
        <ele>358.117</ele>
        <time>2022-12-10T10:50:52Z</time>
      </trkpt>
      <trkpt lat="36.796430" lon="-3.609691">
        <ele>357.909</ele>
        <time>2022-12-10T10:50:54Z</time>
      </trkpt>
      <trkpt lat="36.796386" lon="-3.609692">
        <ele>357.549</ele>
        <time>2022-12-10T10:50:57Z</time>
      </trkpt>
      <trkpt lat="36.796348" lon="-3.609699">
        <ele>356.920</ele>
        <time>2022-12-10T10:51:00Z</time>
      </trkpt>
      <trkpt lat="36.796293" lon="-3.609710">
        <ele>356.149</ele>
        <time>2022-12-10T10:51:05Z</time>
      </trkpt>
      <trkpt lat="36.796213" lon="-3.609691">
        <ele>354.558</ele>
        <time>2022-12-10T10:51:10Z</time>
      </trkpt>
      <trkpt lat="36.796206" lon="-3.609677">
        <ele>354.220</ele>
        <time>2022-12-10T10:51:11Z</time>
      </trkpt>
      <trkpt lat="36.796246" lon="-3.609652">
        <ele>354.556</ele>
        <time>2022-12-10T10:51:14Z</time>
      </trkpt>
      <trkpt lat="36.796313" lon="-3.609622">
        <ele>355.327</ele>
        <time>2022-12-10T10:51:19Z</time>
      </trkpt>
      <trkpt lat="36.796313" lon="-3.609607">
        <ele>355.110</ele>
        <time>2022-12-10T10:51:20Z</time>
      </trkpt>
      <trkpt lat="36.796292" lon="-3.609607">
        <ele>354.710</ele>
        <time>2022-12-10T10:51:23Z</time>
      </trkpt>
      <trkpt lat="36.796264" lon="-3.609593">
        <ele>354.155</ele>
        <time>2022-12-10T10:51:26Z</time>
      </trkpt>
      <trkpt lat="36.796238" lon="-3.609599">
        <ele>353.807</ele>
        <time>2022-12-10T10:51:28Z</time>
      </trkpt>
      <trkpt lat="36.796231" lon="-3.609611">
        <ele>353.817</ele>
        <time>2022-12-10T10:51:29Z</time>
      </trkpt>
      <trkpt lat="36.796225" lon="-3.609622">
        <ele>353.809</ele>
        <time>2022-12-10T10:51:30Z</time>
      </trkpt>
      <trkpt lat="36.796199" lon="-3.609632">
        <ele>353.536</ele>
        <time>2022-12-10T10:51:33Z</time>
      </trkpt>
      <trkpt lat="36.796173" lon="-3.609632">
        <ele>353.147</ele>
        <time>2022-12-10T10:51:35Z</time>
      </trkpt>
      <trkpt lat="36.796027" lon="-3.609671">
        <ele>350.376</ele>
        <time>2022-12-10T10:51:46Z</time>
      </trkpt>
      <trkpt lat="36.795954" lon="-3.609697">
        <ele>348.785</ele>
        <time>2022-12-10T10:51:52Z</time>
      </trkpt>
      <trkpt lat="36.795893" lon="-3.609731">
        <ele>347.617</ele>
        <time>2022-12-10T10:51:56Z</time>
      </trkpt>
      <trkpt lat="36.795856" lon="-3.609754">
        <ele>347.093</ele>
        <time>2022-12-10T10:52:00Z</time>
      </trkpt>
      <trkpt lat="36.795829" lon="-3.609782">
        <ele>346.754</ele>
        <time>2022-12-10T10:52:03Z</time>
      </trkpt>
      <trkpt lat="36.795809" lon="-3.609789">
        <ele>346.187</ele>
        <time>2022-12-10T10:52:06Z</time>
      </trkpt>
      <trkpt lat="36.795789" lon="-3.609784">
        <ele>345.497</ele>
        <time>2022-12-10T10:52:08Z</time>
      </trkpt>
      <trkpt lat="36.795749" lon="-3.609764">
        <ele>343.755</ele>
        <time>2022-12-10T10:52:11Z</time>
      </trkpt>
      <trkpt lat="36.795725" lon="-3.609755">
        <ele>342.707</ele>
        <time>2022-12-10T10:52:14Z</time>
      </trkpt>
      <trkpt lat="36.795706" lon="-3.609745">
        <ele>341.917</ele>
        <time>2022-12-10T10:52:16Z</time>
      </trkpt>
      <trkpt lat="36.795651" lon="-3.609725">
        <ele>339.509</ele>
        <time>2022-12-10T10:52:20Z</time>
      </trkpt>
      <trkpt lat="36.795513" lon="-3.609715">
        <ele>334.756</ele>
        <time>2022-12-10T10:52:28Z</time>
      </trkpt>
      <trkpt lat="36.795481" lon="-3.609721">
        <ele>333.897</ele>
        <time>2022-12-10T10:52:30Z</time>
      </trkpt>
      <trkpt lat="36.795436" lon="-3.609725">
        <ele>332.666</ele>
        <time>2022-12-10T10:52:33Z</time>
      </trkpt>
      <trkpt lat="36.795336" lon="-3.609730">
        <ele>329.985</ele>
        <time>2022-12-10T10:52:39Z</time>
      </trkpt>
      <trkpt lat="36.795252" lon="-3.609730">
        <ele>327.697</ele>
        <time>2022-12-10T10:52:45Z</time>
      </trkpt>
      <trkpt lat="36.795226" lon="-3.609720">
        <ele>326.913</ele>
        <time>2022-12-10T10:52:47Z</time>
      </trkpt>
      <trkpt lat="36.795190" lon="-3.609716">
        <ele>326.164</ele>
        <time>2022-12-10T10:52:50Z</time>
      </trkpt>
      <trkpt lat="36.795169" lon="-3.609725">
        <ele>325.777</ele>
        <time>2022-12-10T10:52:52Z</time>
      </trkpt>
      <trkpt lat="36.795143" lon="-3.609724">
        <ele>325.147</ele>
        <time>2022-12-10T10:52:54Z</time>
      </trkpt>
      <trkpt lat="36.795130" lon="-3.609728">
        <ele>324.988</ele>
        <time>2022-12-10T10:52:55Z</time>
      </trkpt>
      <trkpt lat="36.795068" lon="-3.609755">
        <ele>324.224</ele>
        <time>2022-12-10T10:52:59Z</time>
      </trkpt>
      <trkpt lat="36.795052" lon="-3.609763">
        <ele>324.026</ele>
        <time>2022-12-10T10:53:00Z</time>
      </trkpt>
      <trkpt lat="36.795012" lon="-3.609798">
        <ele>323.909</ele>
        <time>2022-12-10T10:53:03Z</time>
      </trkpt>
      <trkpt lat="36.794940" lon="-3.609832">
        <ele>323.439</ele>
        <time>2022-12-10T10:53:08Z</time>
      </trkpt>
      <trkpt lat="36.794898" lon="-3.609829">
        <ele>322.660</ele>
        <time>2022-12-10T10:53:11Z</time>
      </trkpt>
      <trkpt lat="36.794886" lon="-3.609830">
        <ele>322.419</ele>
        <time>2022-12-10T10:53:12Z</time>
      </trkpt>
      <trkpt lat="36.794887" lon="-3.609828">
        <ele>322.438</ele>
        <time>2022-12-10T10:53:13Z</time>
      </trkpt>
      <trkpt lat="36.794844" lon="-3.609813">
        <ele>321.340</ele>
        <time>2022-12-10T10:53:17Z</time>
      </trkpt>
      <trkpt lat="36.794787" lon="-3.609811">
        <ele>320.336</ele>
        <time>2022-12-10T10:53:34Z</time>
      </trkpt>
      <trkpt lat="36.794750" lon="-3.609800">
        <ele>319.457</ele>
        <time>2022-12-10T10:53:37Z</time>
      </trkpt>
      <trkpt lat="36.794687" lon="-3.609774">
        <ele>317.850</ele>
        <time>2022-12-10T10:53:43Z</time>
      </trkpt>
      <trkpt lat="36.794664" lon="-3.609765">
        <ele>317.210</ele>
        <time>2022-12-10T10:53:45Z</time>
      </trkpt>
      <trkpt lat="36.794630" lon="-3.609754">
        <ele>316.442</ele>
        <time>2022-12-10T10:53:48Z</time>
      </trkpt>
      <trkpt lat="36.794624" lon="-3.609752">
        <ele>316.322</ele>
        <time>2022-12-10T10:53:49Z</time>
      </trkpt>
      <trkpt lat="36.794601" lon="-3.609741">
        <ele>315.714</ele>
        <time>2022-12-10T10:53:52Z</time>
      </trkpt>
      <trkpt lat="36.794590" lon="-3.609734">
        <ele>315.409</ele>
        <time>2022-12-10T10:53:53Z</time>
      </trkpt>
      <trkpt lat="36.794557" lon="-3.609733">
        <ele>314.845</ele>
        <time>2022-12-10T10:53:55Z</time>
      </trkpt>
      <trkpt lat="36.794469" lon="-3.609733">
        <ele>313.636</ele>
        <time>2022-12-10T10:54:00Z</time>
      </trkpt>
      <trkpt lat="36.794364" lon="-3.609736">
        <ele>312.685</ele>
        <time>2022-12-10T10:54:08Z</time>
      </trkpt>
      <trkpt lat="36.794338" lon="-3.609748">
        <ele>312.694</ele>
        <time>2022-12-10T10:54:10Z</time>
      </trkpt>
      <trkpt lat="36.794285" lon="-3.609759">
        <ele>312.356</ele>
        <time>2022-12-10T10:54:14Z</time>
      </trkpt>
      <trkpt lat="36.794271" lon="-3.609762">
        <ele>312.242</ele>
        <time>2022-12-10T10:54:15Z</time>
      </trkpt>
      <trkpt lat="36.794216" lon="-3.609784">
        <ele>311.943</ele>
        <time>2022-12-10T10:54:19Z</time>
      </trkpt>
      <trkpt lat="36.794193" lon="-3.609794">
        <ele>311.826</ele>
        <time>2022-12-10T10:54:22Z</time>
      </trkpt>
      <trkpt lat="36.794180" lon="-3.609789">
        <ele>311.616</ele>
        <time>2022-12-10T10:54:24Z</time>
      </trkpt>
      <trkpt lat="36.794167" lon="-3.609784">
        <ele>311.464</ele>
        <time>2022-12-10T10:54:25Z</time>
      </trkpt>
      <trkpt lat="36.794098" lon="-3.609771">
        <ele>309.506</ele>
        <time>2022-12-10T10:54:30Z</time>
      </trkpt>
      <trkpt lat="36.794068" lon="-3.609758">
        <ele>308.716</ele>
        <time>2022-12-10T10:54:33Z</time>
      </trkpt>
      <trkpt lat="36.794038" lon="-3.609737">
        <ele>307.809</ele>
        <time>2022-12-10T10:54:36Z</time>
      </trkpt>
      <trkpt lat="36.794017" lon="-3.609726">
        <ele>307.277</ele>
        <time>2022-12-10T10:54:38Z</time>
      </trkpt>
      <trkpt lat="36.793997" lon="-3.609716">
        <ele>306.828</ele>
        <time>2022-12-10T10:54:40Z</time>
      </trkpt>
      <trkpt lat="36.793977" lon="-3.609708">
        <ele>306.477</ele>
        <time>2022-12-10T10:54:42Z</time>
      </trkpt>
      <trkpt lat="36.793955" lon="-3.609702">
        <ele>305.986</ele>
        <time>2022-12-10T10:54:44Z</time>
      </trkpt>
      <trkpt lat="36.793913" lon="-3.609680">
        <ele>305.178</ele>
        <time>2022-12-10T10:54:48Z</time>
      </trkpt>
      <trkpt lat="36.793860" lon="-3.609678">
        <ele>303.574</ele>
        <time>2022-12-10T10:54:52Z</time>
      </trkpt>
      <trkpt lat="36.793817" lon="-3.609692">
        <ele>302.085</ele>
        <time>2022-12-10T10:54:55Z</time>
      </trkpt>
      <trkpt lat="36.793803" lon="-3.609698">
        <ele>301.568</ele>
        <time>2022-12-10T10:54:56Z</time>
      </trkpt>
      <trkpt lat="36.793739" lon="-3.609696">
        <ele>299.468</ele>
        <time>2022-12-10T10:55:00Z</time>
      </trkpt>
      <trkpt lat="36.793718" lon="-3.609692">
        <ele>298.898</ele>
        <time>2022-12-10T10:55:02Z</time>
      </trkpt>
      <trkpt lat="36.793710" lon="-3.609697">
        <ele>298.515</ele>
        <time>2022-12-10T10:55:06Z</time>
      </trkpt>
      <trkpt lat="36.793615" lon="-3.609605">
        <ele>296.426</ele>
        <time>2022-12-10T10:55:19Z</time>
      </trkpt>
      <trkpt lat="36.793605" lon="-3.609607">
        <ele>296.009</ele>
        <time>2022-12-10T10:55:21Z</time>
      </trkpt>
      <trkpt lat="36.793574" lon="-3.609547">
        <ele>295.450</ele>
        <time>2022-12-10T10:55:25Z</time>
      </trkpt>
      <trkpt lat="36.793558" lon="-3.609487">
        <ele>295.431</ele>
        <time>2022-12-10T10:55:28Z</time>
      </trkpt>
      <trkpt lat="36.793549" lon="-3.609434">
        <ele>295.890</ele>
        <time>2022-12-10T10:55:31Z</time>
      </trkpt>
      <trkpt lat="36.793508" lon="-3.609342">
        <ele>296.369</ele>
        <time>2022-12-10T10:55:41Z</time>
      </trkpt>
      <trkpt lat="36.793431" lon="-3.609304">
        <ele>294.251</ele>
        <time>2022-12-10T10:55:51Z</time>
      </trkpt>
      <trkpt lat="36.793417" lon="-3.609296">
        <ele>293.917</ele>
        <time>2022-12-10T10:55:52Z</time>
      </trkpt>
      <trkpt lat="36.793366" lon="-3.609251">
        <ele>293.168</ele>
        <time>2022-12-10T10:55:57Z</time>
      </trkpt>
      <trkpt lat="36.793255" lon="-3.609098">
        <ele>293.061</ele>
        <time>2022-12-10T10:56:10Z</time>
      </trkpt>
      <trkpt lat="36.793242" lon="-3.609060">
        <ele>293.571</ele>
        <time>2022-12-10T10:56:14Z</time>
      </trkpt>
      <trkpt lat="36.793220" lon="-3.609013">
        <ele>294.031</ele>
        <time>2022-12-10T10:56:17Z</time>
      </trkpt>
      <trkpt lat="36.793187" lon="-3.608818">
        <ele>297.761</ele>
        <time>2022-12-10T10:56:25Z</time>
      </trkpt>
      <trkpt lat="36.793169" lon="-3.608732">
        <ele>298.807</ele>
        <time>2022-12-10T10:56:30Z</time>
      </trkpt>
      <trkpt lat="36.793162" lon="-3.608722">
        <ele>298.809</ele>
        <time>2022-12-10T10:56:31Z</time>
      </trkpt>
      <trkpt lat="36.793157" lon="-3.608708">
        <ele>299.064</ele>
        <time>2022-12-10T10:56:33Z</time>
      </trkpt>
      <trkpt lat="36.793151" lon="-3.608705">
        <ele>298.885</ele>
        <time>2022-12-10T10:56:34Z</time>
      </trkpt>
      <trkpt lat="36.793085" lon="-3.608692">
        <ele>297.184</ele>
        <time>2022-12-10T10:56:38Z</time>
      </trkpt>
      <trkpt lat="36.792964" lon="-3.608676">
        <ele>294.043</ele>
        <time>2022-12-10T10:56:47Z</time>
      </trkpt>
      <trkpt lat="36.792945" lon="-3.608672">
        <ele>293.655</ele>
        <time>2022-12-10T10:56:49Z</time>
      </trkpt>
      <trkpt lat="36.792853" lon="-3.608633">
        <ele>291.831</ele>
        <time>2022-12-10T10:56:58Z</time>
      </trkpt>
      <trkpt lat="36.792812" lon="-3.608603">
        <ele>291.262</ele>
        <time>2022-12-10T10:57:01Z</time>
      </trkpt>
      <trkpt lat="36.792698" lon="-3.608474">
        <ele>291.415</ele>
        <time>2022-12-10T10:57:09Z</time>
      </trkpt>
      <trkpt lat="36.792606" lon="-3.608298">
        <ele>292.855</ele>
        <time>2022-12-10T10:57:19Z</time>
      </trkpt>
      <trkpt lat="36.792567" lon="-3.608222">
        <ele>293.016</ele>
        <time>2022-12-10T10:57:24Z</time>
      </trkpt>
      <trkpt lat="36.792456" lon="-3.608080">
        <ele>291.776</ele>
        <time>2022-12-10T10:57:33Z</time>
      </trkpt>
      <trkpt lat="36.792277" lon="-3.607987">
        <ele>288.613</ele>
        <time>2022-12-10T10:57:45Z</time>
      </trkpt>
      <trkpt lat="36.792176" lon="-3.607949">
        <ele>286.309</ele>
        <time>2022-12-10T10:57:52Z</time>
      </trkpt>
      <trkpt lat="36.792118" lon="-3.607928">
        <ele>285.012</ele>
        <time>2022-12-10T10:57:55Z</time>
      </trkpt>
      <trkpt lat="36.792032" lon="-3.607901">
        <ele>283.143</ele>
        <time>2022-12-10T10:58:00Z</time>
      </trkpt>
      <trkpt lat="36.791989" lon="-3.607854">
        <ele>282.112</ele>
        <time>2022-12-10T10:58:04Z</time>
      </trkpt>
      <trkpt lat="36.791921" lon="-3.607733">
        <ele>281.181</ele>
        <time>2022-12-10T10:58:14Z</time>
      </trkpt>
      <trkpt lat="36.791899" lon="-3.607662">
        <ele>281.463</ele>
        <time>2022-12-10T10:58:19Z</time>
      </trkpt>
      <trkpt lat="36.791884" lon="-3.607635">
        <ele>281.519</ele>
        <time>2022-12-10T10:58:21Z</time>
      </trkpt>
      <trkpt lat="36.791827" lon="-3.607574">
        <ele>281.310</ele>
        <time>2022-12-10T10:58:27Z</time>
      </trkpt>
      <trkpt lat="36.791778" lon="-3.607572">
        <ele>280.853</ele>
        <time>2022-12-10T10:58:31Z</time>
      </trkpt>
      <trkpt lat="36.791742" lon="-3.607589">
        <ele>280.463</ele>
        <time>2022-12-10T10:58:34Z</time>
      </trkpt>
      <trkpt lat="36.791676" lon="-3.607605">
        <ele>279.775</ele>
        <time>2022-12-10T10:58:39Z</time>
      </trkpt>
      <trkpt lat="36.791497" lon="-3.607622">
        <ele>277.428</ele>
        <time>2022-12-10T10:58:49Z</time>
      </trkpt>
      <trkpt lat="36.791433" lon="-3.607589">
        <ele>276.620</ele>
        <time>2022-12-10T10:58:53Z</time>
      </trkpt>
      <trkpt lat="36.791378" lon="-3.607556">
        <ele>275.809</ele>
        <time>2022-12-10T10:58:58Z</time>
      </trkpt>
      <trkpt lat="36.791329" lon="-3.607522">
        <ele>274.998</ele>
        <time>2022-12-10T10:59:03Z</time>
      </trkpt>
      <trkpt lat="36.791275" lon="-3.607503">
        <ele>273.989</ele>
        <time>2022-12-10T10:59:07Z</time>
      </trkpt>
      <trkpt lat="36.791238" lon="-3.607523">
        <ele>273.368</ele>
        <time>2022-12-10T10:59:10Z</time>
      </trkpt>
      <trkpt lat="36.791205" lon="-3.607514">
        <ele>272.747</ele>
        <time>2022-12-10T10:59:12Z</time>
      </trkpt>
      <trkpt lat="36.791016" lon="-3.607524">
        <ele>268.339</ele>
        <time>2022-12-10T10:59:25Z</time>
      </trkpt>
      <trkpt lat="36.790835" lon="-3.607493">
        <ele>263.155</ele>
        <time>2022-12-10T10:59:37Z</time>
      </trkpt>
      <trkpt lat="36.790801" lon="-3.607464">
        <ele>262.836</ele>
        <time>2022-12-10T10:59:40Z</time>
      </trkpt>
      <trkpt lat="36.790720" lon="-3.607327">
        <ele>262.689</ele>
        <time>2022-12-10T10:59:52Z</time>
      </trkpt>
      <trkpt lat="36.790634" lon="-3.607269">
        <ele>261.399</ele>
        <time>2022-12-10T10:59:59Z</time>
      </trkpt>
      <trkpt lat="36.790546" lon="-3.607230">
        <ele>259.859</ele>
        <time>2022-12-10T11:00:06Z</time>
      </trkpt>
      <trkpt lat="36.790476" lon="-3.607216">
        <ele>259.203</ele>
        <time>2022-12-10T11:00:13Z</time>
      </trkpt>
      <trkpt lat="36.790461" lon="-3.607200">
        <ele>259.323</ele>
        <time>2022-12-10T11:00:15Z</time>
      </trkpt>
      <trkpt lat="36.790450" lon="-3.607190">
        <ele>259.409</ele>
        <time>2022-12-10T11:00:17Z</time>
      </trkpt>
      <trkpt lat="36.790421" lon="-3.607165">
        <ele>259.426</ele>
        <time>2022-12-10T11:00:19Z</time>
      </trkpt>
      <trkpt lat="36.790402" lon="-3.607158">
        <ele>259.247</ele>
        <time>2022-12-10T11:00:21Z</time>
      </trkpt>
      <trkpt lat="36.790396" lon="-3.607156">
        <ele>259.256</ele>
        <time>2022-12-10T11:00:22Z</time>
      </trkpt>
      <trkpt lat="36.790355" lon="-3.607120">
        <ele>259.145</ele>
        <time>2022-12-10T11:00:26Z</time>
      </trkpt>
      <trkpt lat="36.790329" lon="-3.607092">
        <ele>259.117</ele>
        <time>2022-12-10T11:00:29Z</time>
      </trkpt>
      <trkpt lat="36.790316" lon="-3.607083">
        <ele>259.173</ele>
        <time>2022-12-10T11:00:31Z</time>
      </trkpt>
      <trkpt lat="36.790280" lon="-3.607068">
        <ele>258.784</ele>
        <time>2022-12-10T11:00:34Z</time>
      </trkpt>
      <trkpt lat="36.790266" lon="-3.607045">
        <ele>258.727</ele>
        <time>2022-12-10T11:00:36Z</time>
      </trkpt>
      <trkpt lat="36.790257" lon="-3.607035">
        <ele>258.697</ele>
        <time>2022-12-10T11:00:38Z</time>
      </trkpt>
      <trkpt lat="36.790255" lon="-3.607026">
        <ele>258.663</ele>
        <time>2022-12-10T11:00:39Z</time>
      </trkpt>
      <trkpt lat="36.790231" lon="-3.606999">
        <ele>258.444</ele>
        <time>2022-12-10T11:00:43Z</time>
      </trkpt>
      <trkpt lat="36.790234" lon="-3.606981">
        <ele>258.718</ele>
        <time>2022-12-10T11:00:45Z</time>
      </trkpt>
      <trkpt lat="36.790224" lon="-3.606938">
        <ele>258.909</ele>
        <time>2022-12-10T11:00:47Z</time>
      </trkpt>
      <trkpt lat="36.790197" lon="-3.606918">
        <ele>258.537</ele>
        <time>2022-12-10T11:00:49Z</time>
      </trkpt>
      <trkpt lat="36.790157" lon="-3.606947">
        <ele>257.498</ele>
        <time>2022-12-10T11:00:51Z</time>
      </trkpt>
      <trkpt lat="36.790040" lon="-3.607078">
        <ele>253.497</ele>
        <time>2022-12-10T11:01:00Z</time>
      </trkpt>
      <trkpt lat="36.790035" lon="-3.607157">
        <ele>252.596</ele>
        <time>2022-12-10T11:01:04Z</time>
      </trkpt>
      <trkpt lat="36.790043" lon="-3.607189">
        <ele>252.338</ele>
        <time>2022-12-10T11:01:06Z</time>
      </trkpt>
      <trkpt lat="36.790058" lon="-3.607251">
        <ele>252.244</ele>
        <time>2022-12-10T11:01:09Z</time>
      </trkpt>
      <trkpt lat="36.790067" lon="-3.607292">
        <ele>252.295</ele>
        <time>2022-12-10T11:01:11Z</time>
      </trkpt>
      <trkpt lat="36.790075" lon="-3.607307">
        <ele>252.368</ele>
        <time>2022-12-10T11:01:12Z</time>
      </trkpt>
      <trkpt lat="36.790096" lon="-3.607356">
        <ele>252.498</ele>
        <time>2022-12-10T11:01:15Z</time>
      </trkpt>
      <trkpt lat="36.790101" lon="-3.607376">
        <ele>252.424</ele>
        <time>2022-12-10T11:01:16Z</time>
      </trkpt>
      <trkpt lat="36.790096" lon="-3.607429">
        <ele>252.004</ele>
        <time>2022-12-10T11:01:19Z</time>
      </trkpt>
      <trkpt lat="36.790080" lon="-3.607460">
        <ele>251.714</ele>
        <time>2022-12-10T11:01:21Z</time>
      </trkpt>
      <trkpt lat="36.789918" lon="-3.607579">
        <ele>251.309</ele>
        <time>2022-12-10T11:01:34Z</time>
      </trkpt>
      <trkpt lat="36.789730" lon="-3.607588">
        <ele>250.053</ele>
        <time>2022-12-10T11:01:47Z</time>
      </trkpt>
      <trkpt lat="36.789615" lon="-3.607629">
        <ele>249.494</ele>
        <time>2022-12-10T11:01:56Z</time>
      </trkpt>
      <trkpt lat="36.789571" lon="-3.607673">
        <ele>249.633</ele>
        <time>2022-12-10T11:02:01Z</time>
      </trkpt>
      <trkpt lat="36.789618" lon="-3.607727">
        <ele>250.622</ele>
        <time>2022-12-10T11:02:09Z</time>
      </trkpt>
      <trkpt lat="36.789624" lon="-3.607740">
        <ele>250.884</ele>
        <time>2022-12-10T11:02:10Z</time>
      </trkpt>
      <trkpt lat="36.789627" lon="-3.607753">
        <ele>251.030</ele>
        <time>2022-12-10T11:02:11Z</time>
      </trkpt>
      <trkpt lat="36.789638" lon="-3.607792">
        <ele>251.751</ele>
        <time>2022-12-10T11:02:14Z</time>
      </trkpt>
      <trkpt lat="36.789639" lon="-3.607809">
        <ele>252.114</ele>
        <time>2022-12-10T11:02:15Z</time>
      </trkpt>
      <trkpt lat="36.789645" lon="-3.607842">
        <ele>252.844</ele>
        <time>2022-12-10T11:02:18Z</time>
      </trkpt>
      <trkpt lat="36.789648" lon="-3.607884">
        <ele>253.854</ele>
        <time>2022-12-10T11:02:21Z</time>
      </trkpt>
      <trkpt lat="36.789654" lon="-3.607937">
        <ele>254.956</ele>
        <time>2022-12-10T11:02:25Z</time>
      </trkpt>
      <trkpt lat="36.789653" lon="-3.607999">
        <ele>256.311</ele>
        <time>2022-12-10T11:02:29Z</time>
      </trkpt>
      <trkpt lat="36.789657" lon="-3.608040">
        <ele>257.209</ele>
        <time>2022-12-10T11:02:32Z</time>
      </trkpt>
      <trkpt lat="36.789655" lon="-3.608103">
        <ele>258.376</ele>
        <time>2022-12-10T11:02:38Z</time>
      </trkpt>
      <trkpt lat="36.789655" lon="-3.608113">
        <ele>258.527</ele>
        <time>2022-12-10T11:02:39Z</time>
      </trkpt>
      <trkpt lat="36.789646" lon="-3.608165">
        <ele>259.466</ele>
        <time>2022-12-10T11:02:43Z</time>
      </trkpt>
      <trkpt lat="36.789647" lon="-3.608187">
        <ele>259.795</ele>
        <time>2022-12-10T11:02:47Z</time>
      </trkpt>
      <trkpt lat="36.789590" lon="-3.608255">
        <ele>260.917</ele>
        <time>2022-12-10T11:02:53Z</time>
      </trkpt>
      <trkpt lat="36.789557" lon="-3.608306">
        <ele>262.023</ele>
        <time>2022-12-10T11:02:57Z</time>
      </trkpt>
      <trkpt lat="36.789550" lon="-3.608313">
        <ele>262.284</ele>
        <time>2022-12-10T11:02:58Z</time>
      </trkpt>
      <trkpt lat="36.789534" lon="-3.608340">
        <ele>262.877</ele>
        <time>2022-12-10T11:03:00Z</time>
      </trkpt>
      <trkpt lat="36.789505" lon="-3.608427">
        <ele>263.967</ele>
        <time>2022-12-10T11:03:05Z</time>
      </trkpt>
      <trkpt lat="36.789492" lon="-3.608446">
        <ele>264.148</ele>
        <time>2022-12-10T11:03:07Z</time>
      </trkpt>
      <trkpt lat="36.789484" lon="-3.608462">
        <ele>264.361</ele>
        <time>2022-12-10T11:03:08Z</time>
      </trkpt>
      <trkpt lat="36.789457" lon="-3.608528">
        <ele>265.117</ele>
        <time>2022-12-10T11:03:13Z</time>
      </trkpt>
      <trkpt lat="36.789463" lon="-3.608611">
        <ele>266.009</ele>
        <time>2022-12-10T11:03:19Z</time>
      </trkpt>
      <trkpt lat="36.789461" lon="-3.608620">
        <ele>266.135</ele>
        <time>2022-12-10T11:03:20Z</time>
      </trkpt>
      <trkpt lat="36.789471" lon="-3.608645">
        <ele>266.496</ele>
        <time>2022-12-10T11:03:23Z</time>
      </trkpt>
      <trkpt lat="36.789489" lon="-3.608689">
        <ele>266.915</ele>
        <time>2022-12-10T11:03:27Z</time>
      </trkpt>
      <trkpt lat="36.789489" lon="-3.608697">
        <ele>267.034</ele>
        <time>2022-12-10T11:03:28Z</time>
      </trkpt>
      <trkpt lat="36.789491" lon="-3.608717">
        <ele>267.266</ele>
        <time>2022-12-10T11:03:30Z</time>
      </trkpt>
      <trkpt lat="36.789492" lon="-3.608740">
        <ele>267.572</ele>
        <time>2022-12-10T11:03:32Z</time>
      </trkpt>
      <trkpt lat="36.789488" lon="-3.608771">
        <ele>267.813</ele>
        <time>2022-12-10T11:03:35Z</time>
      </trkpt>
      <trkpt lat="36.789487" lon="-3.608779">
        <ele>267.936</ele>
        <time>2022-12-10T11:03:36Z</time>
      </trkpt>
      <trkpt lat="36.789406" lon="-3.608988">
        <ele>268.026</ele>
        <time>2022-12-10T11:03:54Z</time>
      </trkpt>
      <trkpt lat="36.789387" lon="-3.609068">
        <ele>267.581</ele>
        <time>2022-12-10T11:03:59Z</time>
      </trkpt>
      <trkpt lat="36.789398" lon="-3.609297">
        <ele>267.561</ele>
        <time>2022-12-10T11:04:12Z</time>
      </trkpt>
      <trkpt lat="36.789525" lon="-3.609471">
        <ele>268.217</ele>
        <time>2022-12-10T11:04:25Z</time>
      </trkpt>
      <trkpt lat="36.789531" lon="-3.609489">
        <ele>268.209</ele>
        <time>2022-12-10T11:04:26Z</time>
      </trkpt>
      <trkpt lat="36.789596" lon="-3.609633">
        <ele>267.989</ele>
        <time>2022-12-10T11:04:35Z</time>
      </trkpt>
      <trkpt lat="36.789609" lon="-3.609677">
        <ele>267.830</ele>
        <time>2022-12-10T11:04:38Z</time>
      </trkpt>
      <trkpt lat="36.789611" lon="-3.609745">
        <ele>267.599</ele>
        <time>2022-12-10T11:04:42Z</time>
      </trkpt>
      <trkpt lat="36.789621" lon="-3.609805">
        <ele>267.358</ele>
        <time>2022-12-10T11:04:45Z</time>
      </trkpt>
      <trkpt lat="36.789632" lon="-3.609911">
        <ele>267.040</ele>
        <time>2022-12-10T11:04:50Z</time>
      </trkpt>
      <trkpt lat="36.789635" lon="-3.609932">
        <ele>266.966</ele>
        <time>2022-12-10T11:04:51Z</time>
      </trkpt>
      <trkpt lat="36.789637" lon="-3.610075">
        <ele>266.647</ele>
        <time>2022-12-10T11:04:59Z</time>
      </trkpt>
      <trkpt lat="36.789648" lon="-3.610194">
        <ele>266.590</ele>
        <time>2022-12-10T11:05:06Z</time>
      </trkpt>
      <trkpt lat="36.789661" lon="-3.610307">
        <ele>266.630</ele>
        <time>2022-12-10T11:05:13Z</time>
      </trkpt>
      <trkpt lat="36.789651" lon="-3.610383">
        <ele>266.833</ele>
        <time>2022-12-10T11:05:17Z</time>
      </trkpt>
      <trkpt lat="36.789602" lon="-3.610484">
        <ele>266.623</ele>
        <time>2022-12-10T11:05:23Z</time>
      </trkpt>
      <trkpt lat="36.789470" lon="-3.610638">
        <ele>266.315</ele>
        <time>2022-12-10T11:05:37Z</time>
      </trkpt>
      <trkpt lat="36.789452" lon="-3.610649">
        <ele>266.109</ele>
        <time>2022-12-10T11:05:39Z</time>
      </trkpt>
      <trkpt lat="36.789348" lon="-3.610702">
        <ele>265.574</ele>
        <time>2022-12-10T11:05:48Z</time>
      </trkpt>
      <trkpt lat="36.789254" lon="-3.610701">
        <ele>264.545</ele>
        <time>2022-12-10T11:05:53Z</time>
      </trkpt>
      <trkpt lat="36.789141" lon="-3.610658">
        <ele>263.174</ele>
        <time>2022-12-10T11:06:00Z</time>
      </trkpt>
      <trkpt lat="36.789110" lon="-3.610658">
        <ele>262.983</ele>
        <time>2022-12-10T11:06:02Z</time>
      </trkpt>
      <trkpt lat="36.789012" lon="-3.610655">
        <ele>262.085</ele>
        <time>2022-12-10T11:06:08Z</time>
      </trkpt>
      <trkpt lat="36.788893" lon="-3.610645">
        <ele>261.011</ele>
        <time>2022-12-10T11:06:15Z</time>
      </trkpt>
      <trkpt lat="36.788800" lon="-3.610620">
        <ele>261.472</ele>
        <time>2022-12-10T11:06:22Z</time>
      </trkpt>
      <trkpt lat="36.788761" lon="-3.610554">
        <ele>261.465</ele>
        <time>2022-12-10T11:06:27Z</time>
      </trkpt>
      <trkpt lat="36.788643" lon="-3.610381">
        <ele>260.125</ele>
        <time>2022-12-10T11:06:39Z</time>
      </trkpt>
      <trkpt lat="36.788527" lon="-3.610184">
        <ele>258.359</ele>
        <time>2022-12-10T11:06:51Z</time>
      </trkpt>
      <trkpt lat="36.788389" lon="-3.610049">
        <ele>256.203</ele>
        <time>2022-12-10T11:07:03Z</time>
      </trkpt>
      <trkpt lat="36.788342" lon="-3.610001">
        <ele>255.123</ele>
        <time>2022-12-10T11:07:07Z</time>
      </trkpt>
      <trkpt lat="36.788321" lon="-3.609993">
        <ele>254.809</ele>
        <time>2022-12-10T11:07:09Z</time>
      </trkpt>
      <trkpt lat="36.788311" lon="-3.609985">
        <ele>254.676</ele>
        <time>2022-12-10T11:07:10Z</time>
      </trkpt>
      <trkpt lat="36.788274" lon="-3.609959">
        <ele>254.037</ele>
        <time>2022-12-10T11:07:13Z</time>
      </trkpt>
      <trkpt lat="36.788226" lon="-3.609929">
        <ele>253.186</ele>
        <time>2022-12-10T11:07:17Z</time>
      </trkpt>
      <trkpt lat="36.788166" lon="-3.609894">
        <ele>252.045</ele>
        <time>2022-12-10T11:07:23Z</time>
      </trkpt>
      <trkpt lat="36.788156" lon="-3.609848">
        <ele>251.287</ele>
        <time>2022-12-10T11:07:28Z</time>
      </trkpt>
      <trkpt lat="36.788159" lon="-3.609788">
        <ele>250.233</ele>
        <time>2022-12-10T11:07:32Z</time>
      </trkpt>
      <trkpt lat="36.788159" lon="-3.609774">
        <ele>250.014</ele>
        <time>2022-12-10T11:07:34Z</time>
      </trkpt>
      <trkpt lat="36.788151" lon="-3.609755">
        <ele>249.637</ele>
        <time>2022-12-10T11:07:36Z</time>
      </trkpt>
      <trkpt lat="36.788151" lon="-3.609751">
        <ele>249.597</ele>
        <time>2022-12-10T11:07:37Z</time>
      </trkpt>
      <trkpt lat="36.788159" lon="-3.609741">
        <ele>249.477</ele>
        <time>2022-12-10T11:07:41Z</time>
      </trkpt>
      <trkpt lat="36.788129" lon="-3.609682">
        <ele>248.461</ele>
        <time>2022-12-10T11:07:43Z</time>
      </trkpt>
      <trkpt lat="36.788052" lon="-3.609587">
        <ele>247.127</ele>
        <time>2022-12-10T11:07:50Z</time>
      </trkpt>
      <trkpt lat="36.788048" lon="-3.609478">
        <ele>246.309</ele>
        <time>2022-12-10T11:07:52Z</time>
      </trkpt>
      <trkpt lat="36.788070" lon="-3.609408">
        <ele>245.718</ele>
        <time>2022-12-10T11:07:54Z</time>
      </trkpt>
      <trkpt lat="36.788104" lon="-3.609348">
        <ele>245.389</ele>
        <time>2022-12-10T11:07:57Z</time>
      </trkpt>
      <trkpt lat="36.788149" lon="-3.609268">
        <ele>245.178</ele>
        <time>2022-12-10T11:08:02Z</time>
      </trkpt>
      <trkpt lat="36.788147" lon="-3.609255">
        <ele>245.017</ele>
        <time>2022-12-10T11:08:03Z</time>
      </trkpt>
      <trkpt lat="36.788128" lon="-3.609242">
        <ele>244.679</ele>
        <time>2022-12-10T11:08:07Z</time>
      </trkpt>
      <trkpt lat="36.788133" lon="-3.609244">
        <ele>244.715</ele>
        <time>2022-12-10T11:08:08Z</time>
      </trkpt>
      <trkpt lat="36.788124" lon="-3.609260">
        <ele>244.736</ele>
        <time>2022-12-10T11:08:14Z</time>
      </trkpt>
      <trkpt lat="36.788104" lon="-3.609261">
        <ele>244.549</ele>
        <time>2022-12-10T11:08:31Z</time>
      </trkpt>
      <trkpt lat="36.788140" lon="-3.609173">
        <ele>244.399</ele>
        <time>2022-12-10T11:08:42Z</time>
      </trkpt>
      <trkpt lat="36.788126" lon="-3.609152">
        <ele>244.011</ele>
        <time>2022-12-10T11:08:44Z</time>
      </trkpt>
      <trkpt lat="36.788042" lon="-3.609086">
        <ele>243.021</ele>
        <time>2022-12-10T11:08:52Z</time>
      </trkpt>
      <trkpt lat="36.787973" lon="-3.609031">
        <ele>242.903</ele>
        <time>2022-12-10T11:08:59Z</time>
      </trkpt>
      <trkpt lat="36.787896" lon="-3.608928">
        <ele>242.509</ele>
        <time>2022-12-10T11:09:06Z</time>
      </trkpt>
      <trkpt lat="36.787854" lon="-3.608861">
        <ele>242.472</ele>
        <time>2022-12-10T11:09:11Z</time>
      </trkpt>
      <trkpt lat="36.787793" lon="-3.608797">
        <ele>242.463</ele>
        <time>2022-12-10T11:09:18Z</time>
      </trkpt>
      <trkpt lat="36.787769" lon="-3.608794">
        <ele>242.342</ele>
        <time>2022-12-10T11:09:20Z</time>
      </trkpt>
      <trkpt lat="36.787740" lon="-3.608800">
        <ele>242.051</ele>
        <time>2022-12-10T11:09:22Z</time>
      </trkpt>
      <trkpt lat="36.787668" lon="-3.608806">
        <ele>241.513</ele>
        <time>2022-12-10T11:09:26Z</time>
      </trkpt>
      <trkpt lat="36.787634" lon="-3.608793">
        <ele>241.369</ele>
        <time>2022-12-10T11:09:29Z</time>
      </trkpt>
      <trkpt lat="36.787620" lon="-3.608789">
        <ele>241.240</ele>
        <time>2022-12-10T11:09:31Z</time>
      </trkpt>
      <trkpt lat="36.787612" lon="-3.608787">
        <ele>241.263</ele>
        <time>2022-12-10T11:09:34Z</time>
      </trkpt>
      <trkpt lat="36.787429" lon="-3.608834">
        <ele>239.883</ele>
        <time>2022-12-10T11:10:09Z</time>
      </trkpt>
      <trkpt lat="36.787392" lon="-3.608847">
        <ele>239.585</ele>
        <time>2022-12-10T11:10:21Z</time>
      </trkpt>
      <trkpt lat="36.787340" lon="-3.608795">
        <ele>239.689</ele>
        <time>2022-12-10T11:10:40Z</time>
      </trkpt>
      <trkpt lat="36.787455" lon="-3.608759">
        <ele>240.317</ele>
        <time>2022-12-10T11:11:41Z</time>
      </trkpt>
      <trkpt lat="36.787386" lon="-3.608797">
        <ele>239.809</ele>
        <time>2022-12-10T11:13:54Z</time>
      </trkpt>
      <trkpt lat="36.787335" lon="-3.608813">
        <ele>239.449</ele>
        <time>2022-12-10T11:15:11Z</time>
      </trkpt>
      <trkpt lat="36.787212" lon="-3.608851">
        <ele>238.490</ele>
        <time>2022-12-10T11:15:21Z</time>
      </trkpt>
      <trkpt lat="36.787178" lon="-3.608860">
        <ele>238.319</ele>
        <time>2022-12-10T11:15:23Z</time>
      </trkpt>
      <trkpt lat="36.787158" lon="-3.608866">
        <ele>238.228</ele>
        <time>2022-12-10T11:15:25Z</time>
      </trkpt>
      <trkpt lat="36.787012" lon="-3.608886">
        <ele>238.050</ele>
        <time>2022-12-10T11:15:36Z</time>
      </trkpt>
      <trkpt lat="36.786945" lon="-3.608896">
        <ele>237.936</ele>
        <time>2022-12-10T11:15:41Z</time>
      </trkpt>
      <trkpt lat="36.786892" lon="-3.608885">
        <ele>238.037</ele>
        <time>2022-12-10T11:15:43Z</time>
      </trkpt>
      <trkpt lat="36.786807" lon="-3.608831">
        <ele>238.660</ele>
        <time>2022-12-10T11:15:49Z</time>
      </trkpt>
      <trkpt lat="36.786780" lon="-3.608817">
        <ele>238.860</ele>
        <time>2022-12-10T11:15:53Z</time>
      </trkpt>
      <trkpt lat="36.786769" lon="-3.608784">
        <ele>239.151</ele>
        <time>2022-12-10T11:15:56Z</time>
      </trkpt>
      <trkpt lat="36.786780" lon="-3.608753">
        <ele>239.501</ele>
        <time>2022-12-10T11:16:00Z</time>
      </trkpt>
      <trkpt lat="36.786803" lon="-3.608720">
        <ele>239.811</ele>
        <time>2022-12-10T11:16:04Z</time>
      </trkpt>
      <trkpt lat="36.786809" lon="-3.608677">
        <ele>240.309</ele>
        <time>2022-12-10T11:16:07Z</time>
      </trkpt>
      <trkpt lat="36.786845" lon="-3.608634">
        <ele>240.876</ele>
        <time>2022-12-10T11:16:09Z</time>
      </trkpt>
      <trkpt lat="36.786850" lon="-3.608594">
        <ele>241.147</ele>
        <time>2022-12-10T11:16:12Z</time>
      </trkpt>
      <trkpt lat="36.786847" lon="-3.608550">
        <ele>241.366</ele>
        <time>2022-12-10T11:16:16Z</time>
      </trkpt>
      <trkpt lat="36.786854" lon="-3.608529">
        <ele>241.455</ele>
        <time>2022-12-10T11:16:18Z</time>
      </trkpt>
      <trkpt lat="36.786846" lon="-3.608474">
        <ele>241.767</ele>
        <time>2022-12-10T11:16:23Z</time>
      </trkpt>
      <trkpt lat="36.786823" lon="-3.608392">
        <ele>242.143</ele>
        <time>2022-12-10T11:16:27Z</time>
      </trkpt>
      <trkpt lat="36.786835" lon="-3.608335">
        <ele>242.464</ele>
        <time>2022-12-10T11:16:31Z</time>
      </trkpt>
      <trkpt lat="36.786848" lon="-3.608302">
        <ele>242.577</ele>
        <time>2022-12-10T11:16:33Z</time>
      </trkpt>
      <trkpt lat="36.786864" lon="-3.608265">
        <ele>242.627</ele>
        <time>2022-12-10T11:16:35Z</time>
      </trkpt>
      <trkpt lat="36.786902" lon="-3.608040">
        <ele>243.742</ele>
        <time>2022-12-10T11:16:41Z</time>
      </trkpt>
      <trkpt lat="36.786930" lon="-3.607961">
        <ele>243.922</ele>
        <time>2022-12-10T11:16:44Z</time>
      </trkpt>
      <trkpt lat="36.786955" lon="-3.607870">
        <ele>244.114</ele>
        <time>2022-12-10T11:16:47Z</time>
      </trkpt>
      <trkpt lat="36.786945" lon="-3.607741">
        <ele>244.009</ele>
        <time>2022-12-10T11:16:52Z</time>
      </trkpt>
      <trkpt lat="36.786887" lon="-3.607655">
        <ele>243.375</ele>
        <time>2022-12-10T11:16:56Z</time>
      </trkpt>
      <trkpt lat="36.786866" lon="-3.607659">
        <ele>243.076</ele>
        <time>2022-12-10T11:16:58Z</time>
      </trkpt>
      <trkpt lat="36.786853" lon="-3.607665">
        <ele>242.935</ele>
        <time>2022-12-10T11:17:00Z</time>
      </trkpt>
      <trkpt lat="36.786846" lon="-3.607659">
        <ele>242.834</ele>
        <time>2022-12-10T11:17:01Z</time>
      </trkpt>
      <trkpt lat="36.786808" lon="-3.607621">
        <ele>242.216</ele>
        <time>2022-12-10T11:17:03Z</time>
      </trkpt>
      <trkpt lat="36.786687" lon="-3.607512">
        <ele>240.322</ele>
        <time>2022-12-10T11:17:07Z</time>
      </trkpt>
      <trkpt lat="36.786643" lon="-3.607477">
        <ele>239.743</ele>
        <time>2022-12-10T11:17:10Z</time>
      </trkpt>
      <trkpt lat="36.786617" lon="-3.607483">
        <ele>239.476</ele>
        <time>2022-12-10T11:17:12Z</time>
      </trkpt>
      <trkpt lat="36.786596" lon="-3.607477">
        <ele>239.246</ele>
        <time>2022-12-10T11:17:13Z</time>
      </trkpt>
      <trkpt lat="36.786464" lon="-3.607436">
        <ele>237.764</ele>
        <time>2022-12-10T11:17:18Z</time>
      </trkpt>
      <trkpt lat="36.786433" lon="-3.607390">
        <ele>237.406</ele>
        <time>2022-12-10T11:17:19Z</time>
      </trkpt>
      <trkpt lat="36.786332" lon="-3.607377">
        <ele>236.616</ele>
        <time>2022-12-10T11:17:22Z</time>
      </trkpt>
      <trkpt lat="36.786243" lon="-3.607314">
        <ele>236.109</ele>
        <time>2022-12-10T11:17:25Z</time>
      </trkpt>
      <trkpt lat="36.786120" lon="-3.607291">
        <ele>235.617</ele>
        <time>2022-12-10T11:17:29Z</time>
      </trkpt>
      <trkpt lat="36.785974" lon="-3.607200">
        <ele>235.038</ele>
        <time>2022-12-10T11:17:34Z</time>
      </trkpt>
      <trkpt lat="36.785896" lon="-3.607124">
        <ele>234.527</ele>
        <time>2022-12-10T11:17:37Z</time>
      </trkpt>
      <trkpt lat="36.785821" lon="-3.607060">
        <ele>233.996</ele>
        <time>2022-12-10T11:17:40Z</time>
      </trkpt>
      <trkpt lat="36.785689" lon="-3.606966">
        <ele>232.538</ele>
        <time>2022-12-10T11:17:46Z</time>
      </trkpt>
      <trkpt lat="36.785597" lon="-3.606886">
        <ele>230.844</ele>
        <time>2022-12-10T11:17:49Z</time>
      </trkpt>
      <trkpt lat="36.785479" lon="-3.606792">
        <ele>228.425</ele>
        <time>2022-12-10T11:17:54Z</time>
      </trkpt>
      <trkpt lat="36.785459" lon="-3.606783">
        <ele>228.138</ele>
        <time>2022-12-10T11:17:57Z</time>
      </trkpt>
      <trkpt lat="36.785450" lon="-3.606777">
        <ele>227.928</ele>
        <time>2022-12-10T11:17:58Z</time>
      </trkpt>
      <trkpt lat="36.785376" lon="-3.606706">
        <ele>226.418</ele>
        <time>2022-12-10T11:18:19Z</time>
      </trkpt>
      <trkpt lat="36.785331" lon="-3.606694">
        <ele>225.898</ele>
        <time>2022-12-10T11:18:24Z</time>
      </trkpt>
      <trkpt lat="36.785299" lon="-3.606634">
        <ele>225.217</ele>
        <time>2022-12-10T11:18:32Z</time>
      </trkpt>
      <trkpt lat="36.785290" lon="-3.606611">
        <ele>225.109</ele>
        <time>2022-12-10T11:18:35Z</time>
      </trkpt>
      <trkpt lat="36.785258" lon="-3.606602">
        <ele>224.942</ele>
        <time>2022-12-10T11:18:37Z</time>
      </trkpt>
      <trkpt lat="36.785242" lon="-3.606574">
        <ele>224.853</ele>
        <time>2022-12-10T11:18:39Z</time>
      </trkpt>
      <trkpt lat="36.785156" lon="-3.606525">
        <ele>224.322</ele>
        <time>2022-12-10T11:18:45Z</time>
      </trkpt>
      <trkpt lat="36.785115" lon="-3.606526">
        <ele>224.141</ele>
        <time>2022-12-10T11:18:48Z</time>
      </trkpt>
      <trkpt lat="36.785106" lon="-3.606533">
        <ele>224.113</ele>
        <time>2022-12-10T11:18:50Z</time>
      </trkpt>
      <trkpt lat="36.785107" lon="-3.606533">
        <ele>224.179</ele>
        <time>2022-12-10T11:18:52Z</time>
      </trkpt>
      <trkpt lat="36.785071" lon="-3.606604">
        <ele>224.120</ele>
        <time>2022-12-10T11:19:01Z</time>
      </trkpt>
      <trkpt lat="36.785121" lon="-3.606601">
        <ele>224.313</ele>
        <time>2022-12-10T11:19:37Z</time>
      </trkpt>
      <trkpt lat="36.785125" lon="-3.606596">
        <ele>224.373</ele>
        <time>2022-12-10T11:19:39Z</time>
      </trkpt>
      <trkpt lat="36.785189" lon="-3.606638">
        <ele>224.694</ele>
        <time>2022-12-10T11:19:45Z</time>
      </trkpt>
      <trkpt lat="36.785248" lon="-3.606666">
        <ele>224.957</ele>
        <time>2022-12-10T11:19:49Z</time>
      </trkpt>
      <trkpt lat="36.785254" lon="-3.606679">
        <ele>225.022</ele>
        <time>2022-12-10T11:19:50Z</time>
      </trkpt>
      <trkpt lat="36.785264" lon="-3.606689">
        <ele>225.109</ele>
        <time>2022-12-10T11:19:52Z</time>
      </trkpt>
      <trkpt lat="36.785315" lon="-3.606746">
        <ele>226.080</ele>
        <time>2022-12-10T11:19:59Z</time>
      </trkpt>
      <trkpt lat="36.785343" lon="-3.606800">
        <ele>226.881</ele>
        <time>2022-12-10T11:20:02Z</time>
      </trkpt>
      <trkpt lat="36.785346" lon="-3.606817">
        <ele>227.050</ele>
        <time>2022-12-10T11:20:05Z</time>
      </trkpt>
      <trkpt lat="36.785349" lon="-3.606825">
        <ele>227.129</ele>
        <time>2022-12-10T11:20:07Z</time>
      </trkpt>
      <trkpt lat="36.785344" lon="-3.606851">
        <ele>227.271</ele>
        <time>2022-12-10T11:20:11Z</time>
      </trkpt>
      <trkpt lat="36.785340" lon="-3.606868">
        <ele>227.357</ele>
        <time>2022-12-10T11:20:13Z</time>
      </trkpt>
      <trkpt lat="36.785280" lon="-3.607032">
        <ele>227.398</ele>
        <time>2022-12-10T11:20:27Z</time>
      </trkpt>
      <trkpt lat="36.785247" lon="-3.607092">
        <ele>227.251</ele>
        <time>2022-12-10T11:20:29Z</time>
      </trkpt>
      <trkpt lat="36.785208" lon="-3.607326">
        <ele>226.641</ele>
        <time>2022-12-10T11:20:35Z</time>
      </trkpt>
      <trkpt lat="36.785145" lon="-3.607563">
        <ele>225.144</ele>
        <time>2022-12-10T11:20:42Z</time>
      </trkpt>
      <trkpt lat="36.785122" lon="-3.607670">
        <ele>224.805</ele>
        <time>2022-12-10T11:20:45Z</time>
      </trkpt>
      <trkpt lat="36.785118" lon="-3.607699">
        <ele>224.815</ele>
        <time>2022-12-10T11:20:46Z</time>
      </trkpt>
      <trkpt lat="36.785101" lon="-3.607863">
        <ele>224.709</ele>
        <time>2022-12-10T11:20:52Z</time>
      </trkpt>
      <trkpt lat="36.785058" lon="-3.608104">
        <ele>224.415</ele>
        <time>2022-12-10T11:20:58Z</time>
      </trkpt>
      <trkpt lat="36.785044" lon="-3.608201">
        <ele>224.376</ele>
        <time>2022-12-10T11:21:00Z</time>
      </trkpt>
      <trkpt lat="36.785019" lon="-3.608448">
        <ele>224.265</ele>
        <time>2022-12-10T11:21:06Z</time>
      </trkpt>
      <trkpt lat="36.785001" lon="-3.608673">
        <ele>223.894</ele>
        <time>2022-12-10T11:21:12Z</time>
      </trkpt>
      <trkpt lat="36.784994" lon="-3.608733">
        <ele>223.576</ele>
        <time>2022-12-10T11:21:14Z</time>
      </trkpt>
      <trkpt lat="36.784959" lon="-3.608989">
        <ele>222.062</ele>
        <time>2022-12-10T11:21:21Z</time>
      </trkpt>
      <trkpt lat="36.784955" lon="-3.609186">
        <ele>220.583</ele>
        <time>2022-12-10T11:21:26Z</time>
      </trkpt>
      <trkpt lat="36.784946" lon="-3.609370">
        <ele>218.416</ele>
        <time>2022-12-10T11:21:31Z</time>
      </trkpt>
      <trkpt lat="36.784968" lon="-3.609452">
        <ele>217.736</ele>
        <time>2022-12-10T11:21:33Z</time>
      </trkpt>
      <trkpt lat="36.785055" lon="-3.609520">
        <ele>217.628</ele>
        <time>2022-12-10T11:21:37Z</time>
      </trkpt>
      <trkpt lat="36.785252" lon="-3.609523">
        <ele>219.089</ele>
        <time>2022-12-10T11:21:45Z</time>
      </trkpt>
      <trkpt lat="36.785406" lon="-3.609532">
        <ele>220.017</ele>
        <time>2022-12-10T11:21:53Z</time>
      </trkpt>
      <trkpt lat="36.785414" lon="-3.609541">
        <ele>219.909</ele>
        <time>2022-12-10T11:21:55Z</time>
      </trkpt>
      <trkpt lat="36.785361" lon="-3.609575">
        <ele>219.243</ele>
        <time>2022-12-10T11:22:01Z</time>
      </trkpt>
      <trkpt lat="36.785281" lon="-3.609601">
        <ele>218.384</ele>
        <time>2022-12-10T11:22:04Z</time>
      </trkpt>
      <trkpt lat="36.785195" lon="-3.609652">
        <ele>217.253</ele>
        <time>2022-12-10T11:22:07Z</time>
      </trkpt>
      <trkpt lat="36.785153" lon="-3.609679">
        <ele>216.662</ele>
        <time>2022-12-10T11:22:09Z</time>
      </trkpt>
      <trkpt lat="36.785059" lon="-3.609716">
        <ele>215.594</ele>
        <time>2022-12-10T11:22:13Z</time>
      </trkpt>
      <trkpt lat="36.784981" lon="-3.609749">
        <ele>214.660</ele>
        <time>2022-12-10T11:22:16Z</time>
      </trkpt>
      <trkpt lat="36.784887" lon="-3.609807">
        <ele>213.121</ele>
        <time>2022-12-10T11:22:19Z</time>
      </trkpt>
      <trkpt lat="36.784826" lon="-3.609783">
        <ele>213.064</ele>
        <time>2022-12-10T11:22:21Z</time>
      </trkpt>
      <trkpt lat="36.784761" lon="-3.609816">
        <ele>212.044</ele>
        <time>2022-12-10T11:22:23Z</time>
      </trkpt>
      <trkpt lat="36.784707" lon="-3.609863">
        <ele>210.982</ele>
        <time>2022-12-10T11:22:25Z</time>
      </trkpt>
      <trkpt lat="36.784615" lon="-3.609924">
        <ele>209.843</ele>
        <time>2022-12-10T11:22:28Z</time>
      </trkpt>
      <trkpt lat="36.784520" lon="-3.609953">
        <ele>209.117</ele>
        <time>2022-12-10T11:22:31Z</time>
      </trkpt>
      <trkpt lat="36.784418" lon="-3.609947">
        <ele>208.709</ele>
        <time>2022-12-10T11:22:34Z</time>
      </trkpt>
      <trkpt lat="36.784266" lon="-3.610051">
        <ele>206.289</ele>
        <time>2022-12-10T11:22:40Z</time>
      </trkpt>
      <trkpt lat="36.784250" lon="-3.610117">
        <ele>205.390</ele>
        <time>2022-12-10T11:22:45Z</time>
      </trkpt>
      <trkpt lat="36.784110" lon="-3.610267">
        <ele>202.919</ele>
        <time>2022-12-10T11:22:57Z</time>
      </trkpt>
      <trkpt lat="36.783948" lon="-3.610370">
        <ele>202.868</ele>
        <time>2022-12-10T11:23:02Z</time>
      </trkpt>
      <trkpt lat="36.783785" lon="-3.610489">
        <ele>204.150</ele>
        <time>2022-12-10T11:23:08Z</time>
      </trkpt>
      <trkpt lat="36.783707" lon="-3.610544">
        <ele>205.246</ele>
        <time>2022-12-10T11:23:11Z</time>
      </trkpt>
      <trkpt lat="36.783555" lon="-3.610665">
        <ele>207.837</ele>
        <time>2022-12-10T11:23:18Z</time>
      </trkpt>
      <trkpt lat="36.783468" lon="-3.610738">
        <ele>209.190</ele>
        <time>2022-12-10T11:23:22Z</time>
      </trkpt>
      <trkpt lat="36.783342" lon="-3.610859">
        <ele>211.220</ele>
        <time>2022-12-10T11:23:28Z</time>
      </trkpt>
      <trkpt lat="36.783212" lon="-3.610987">
        <ele>211.456</ele>
        <time>2022-12-10T11:23:34Z</time>
      </trkpt>
      <trkpt lat="36.783082" lon="-3.611152">
        <ele>212.359</ele>
        <time>2022-12-10T11:23:40Z</time>
      </trkpt>
      <trkpt lat="36.782969" lon="-3.611334">
        <ele>211.014</ele>
        <time>2022-12-10T11:23:46Z</time>
      </trkpt>
      <trkpt lat="36.782949" lon="-3.611368">
        <ele>210.709</ele>
        <time>2022-12-10T11:23:47Z</time>
      </trkpt>
      <trkpt lat="36.782791" lon="-3.611503">
        <ele>206.996</ele>
        <time>2022-12-10T11:23:53Z</time>
      </trkpt>
      <trkpt lat="36.782736" lon="-3.611543">
        <ele>205.747</ele>
        <time>2022-12-10T11:23:55Z</time>
      </trkpt>
      <trkpt lat="36.782640" lon="-3.611602">
        <ele>204.066</ele>
        <time>2022-12-10T11:23:58Z</time>
      </trkpt>
      <trkpt lat="36.782522" lon="-3.611706">
        <ele>202.625</ele>
        <time>2022-12-10T11:24:02Z</time>
      </trkpt>
      <trkpt lat="36.782494" lon="-3.611714">
        <ele>202.387</ele>
        <time>2022-12-10T11:24:03Z</time>
      </trkpt>
      <trkpt lat="36.782465" lon="-3.611708">
        <ele>202.363</ele>
        <time>2022-12-10T11:24:04Z</time>
      </trkpt>
      <trkpt lat="36.782434" lon="-3.611693">
        <ele>202.264</ele>
        <time>2022-12-10T11:24:05Z</time>
      </trkpt>
      <trkpt lat="36.782290" lon="-3.611546">
        <ele>200.937</ele>
        <time>2022-12-10T11:24:10Z</time>
      </trkpt>
      <trkpt lat="36.782265" lon="-3.611514">
        <ele>200.547</ele>
        <time>2022-12-10T11:24:11Z</time>
      </trkpt>
      <trkpt lat="36.782131" lon="-3.611344">
        <ele>199.152</ele>
        <time>2022-12-10T11:24:17Z</time>
      </trkpt>
      <trkpt lat="36.781985" lon="-3.611202">
        <ele>198.653</ele>
        <time>2022-12-10T11:24:23Z</time>
      </trkpt>
      <trkpt lat="36.781833" lon="-3.611025">
        <ele>198.708</ele>
        <time>2022-12-10T11:24:30Z</time>
      </trkpt>
      <trkpt lat="36.781721" lon="-3.610842">
        <ele>199.309</ele>
        <time>2022-12-10T11:24:36Z</time>
      </trkpt>
      <trkpt lat="36.781609" lon="-3.610655">
        <ele>199.986</ele>
        <time>2022-12-10T11:24:42Z</time>
      </trkpt>
      <trkpt lat="36.781504" lon="-3.610458">
        <ele>200.317</ele>
        <time>2022-12-10T11:24:48Z</time>
      </trkpt>
      <trkpt lat="36.781421" lon="-3.610221">
        <ele>199.726</ele>
        <time>2022-12-10T11:24:55Z</time>
      </trkpt>
      <trkpt lat="36.781320" lon="-3.610042">
        <ele>198.215</ele>
        <time>2022-12-10T11:25:04Z</time>
      </trkpt>
      <trkpt lat="36.781206" lon="-3.609844">
        <ele>196.987</ele>
        <time>2022-12-10T11:25:20Z</time>
      </trkpt>
      <trkpt lat="36.781149" lon="-3.609619">
        <ele>194.113</ele>
        <time>2022-12-10T11:25:33Z</time>
      </trkpt>
      <trkpt lat="36.781117" lon="-3.609500">
        <ele>192.794</ele>
        <time>2022-12-10T11:25:39Z</time>
      </trkpt>
      <trkpt lat="36.781101" lon="-3.609461">
        <ele>192.387</ele>
        <time>2022-12-10T11:25:41Z</time>
      </trkpt>
      <trkpt lat="36.781065" lon="-3.609389">
        <ele>191.957</ele>
        <time>2022-12-10T11:25:45Z</time>
      </trkpt>
      <trkpt lat="36.780987" lon="-3.609211">
        <ele>191.974</ele>
        <time>2022-12-10T11:25:55Z</time>
      </trkpt>
      <trkpt lat="36.780957" lon="-3.609065">
        <ele>192.256</ele>
        <time>2022-12-10T11:26:03Z</time>
      </trkpt>
      <trkpt lat="36.780942" lon="-3.608829">
        <ele>191.921</ele>
        <time>2022-12-10T11:26:16Z</time>
      </trkpt>
      <trkpt lat="36.780935" lon="-3.608728">
        <ele>191.009</ele>
        <time>2022-12-10T11:26:22Z</time>
      </trkpt>
      <trkpt lat="36.780945" lon="-3.608589">
        <ele>189.478</ele>
        <time>2022-12-10T11:26:30Z</time>
      </trkpt>
      <trkpt lat="36.780958" lon="-3.608505">
        <ele>188.469</ele>
        <time>2022-12-10T11:26:34Z</time>
      </trkpt>
      <trkpt lat="36.780953" lon="-3.608336">
        <ele>187.018</ele>
        <time>2022-12-10T11:26:44Z</time>
      </trkpt>
      <trkpt lat="36.780950" lon="-3.608285">
        <ele>186.647</ele>
        <time>2022-12-10T11:26:47Z</time>
      </trkpt>
      <trkpt lat="36.780933" lon="-3.608232">
        <ele>186.449</ele>
        <time>2022-12-10T11:26:50Z</time>
      </trkpt>
      <trkpt lat="36.780906" lon="-3.608195">
        <ele>186.675</ele>
        <time>2022-12-10T11:26:53Z</time>
      </trkpt>
      <trkpt lat="36.780794" lon="-3.608075">
        <ele>186.156</ele>
        <time>2022-12-10T11:27:02Z</time>
      </trkpt>
      <trkpt lat="36.780786" lon="-3.608064">
        <ele>185.919</ele>
        <time>2022-12-10T11:27:03Z</time>
      </trkpt>
      <trkpt lat="36.780746" lon="-3.607962">
        <ele>185.279</ele>
        <time>2022-12-10T11:27:09Z</time>
      </trkpt>
      <trkpt lat="36.780752" lon="-3.607869">
        <ele>184.893</ele>
        <time>2022-12-10T11:27:14Z</time>
      </trkpt>
      <trkpt lat="36.780766" lon="-3.607772">
        <ele>184.565</ele>
        <time>2022-12-10T11:27:19Z</time>
      </trkpt>
      <trkpt lat="36.780790" lon="-3.607716">
        <ele>184.221</ele>
        <time>2022-12-10T11:27:23Z</time>
      </trkpt>
      <trkpt lat="36.780826" lon="-3.607668">
        <ele>184.209</ele>
        <time>2022-12-10T11:27:27Z</time>
      </trkpt>
      <trkpt lat="36.780871" lon="-3.607579">
        <ele>183.190</ele>
        <time>2022-12-10T11:27:34Z</time>
      </trkpt>
      <trkpt lat="36.780859" lon="-3.607517">
        <ele>182.841</ele>
        <time>2022-12-10T11:27:38Z</time>
      </trkpt>
      <trkpt lat="36.780802" lon="-3.607463">
        <ele>182.510</ele>
        <time>2022-12-10T11:27:44Z</time>
      </trkpt>
      <trkpt lat="36.780739" lon="-3.607399">
        <ele>181.669</ele>
        <time>2022-12-10T11:27:50Z</time>
      </trkpt>
      <trkpt lat="36.780761" lon="-3.607242">
        <ele>180.611</ele>
        <time>2022-12-10T11:28:01Z</time>
      </trkpt>
      <trkpt lat="36.780823" lon="-3.607053">
        <ele>179.787</ele>
        <time>2022-12-10T11:28:14Z</time>
      </trkpt>
      <trkpt lat="36.780853" lon="-3.606827">
        <ele>178.438</ele>
        <time>2022-12-10T11:28:28Z</time>
      </trkpt>
      <trkpt lat="36.780818" lon="-3.606777">
        <ele>178.361</ele>
        <time>2022-12-10T11:28:32Z</time>
      </trkpt>
      <trkpt lat="36.780805" lon="-3.606778">
        <ele>178.341</ele>
        <time>2022-12-10T11:28:34Z</time>
      </trkpt>
      <trkpt lat="36.780735" lon="-3.606815">
        <ele>178.226</ele>
        <time>2022-12-10T11:28:40Z</time>
      </trkpt>
      <trkpt lat="36.780639" lon="-3.606831">
        <ele>177.947</ele>
        <time>2022-12-10T11:28:48Z</time>
      </trkpt>
      <trkpt lat="36.780606" lon="-3.606806">
        <ele>177.711</ele>
        <time>2022-12-10T11:28:51Z</time>
      </trkpt>
      <trkpt lat="36.780559" lon="-3.606729">
        <ele>177.209</ele>
        <time>2022-12-10T11:28:56Z</time>
      </trkpt>
      <trkpt lat="36.780475" lon="-3.606528">
        <ele>174.633</ele>
        <time>2022-12-10T11:29:09Z</time>
      </trkpt>
      <trkpt lat="36.780419" lon="-3.606449">
        <ele>173.264</ele>
        <time>2022-12-10T11:29:15Z</time>
      </trkpt>
      <trkpt lat="36.780344" lon="-3.606441">
        <ele>172.353</ele>
        <time>2022-12-10T11:29:20Z</time>
      </trkpt>
      <trkpt lat="36.780281" lon="-3.606438">
        <ele>171.632</ele>
        <time>2022-12-10T11:29:25Z</time>
      </trkpt>
      <trkpt lat="36.780236" lon="-3.606423">
        <ele>170.814</ele>
        <time>2022-12-10T11:29:29Z</time>
      </trkpt>
      <trkpt lat="36.780205" lon="-3.606391">
        <ele>170.090</ele>
        <time>2022-12-10T11:29:33Z</time>
      </trkpt>
      <trkpt lat="36.780153" lon="-3.606304">
        <ele>168.341</ele>
        <time>2022-12-10T11:29:40Z</time>
      </trkpt>
      <trkpt lat="36.780102" lon="-3.606266">
        <ele>167.324</ele>
        <time>2022-12-10T11:29:44Z</time>
      </trkpt>
      <trkpt lat="36.780054" lon="-3.606224">
        <ele>166.414</ele>
        <time>2022-12-10T11:29:48Z</time>
      </trkpt>
      <trkpt lat="36.779992" lon="-3.606191">
        <ele>165.511</ele>
        <time>2022-12-10T11:29:53Z</time>
      </trkpt>
      <trkpt lat="36.779983" lon="-3.606188">
        <ele>165.421</ele>
        <time>2022-12-10T11:29:54Z</time>
      </trkpt>
      <trkpt lat="36.779945" lon="-3.606174">
        <ele>164.903</ele>
        <time>2022-12-10T11:29:58Z</time>
      </trkpt>
      <trkpt lat="36.779911" lon="-3.606170">
        <ele>164.509</ele>
        <time>2022-12-10T11:30:01Z</time>
      </trkpt>
      <trkpt lat="36.779868" lon="-3.606158">
        <ele>164.052</ele>
        <time>2022-12-10T11:30:05Z</time>
      </trkpt>
      <trkpt lat="36.779802" lon="-3.606149">
        <ele>163.273</ele>
        <time>2022-12-10T11:30:09Z</time>
      </trkpt>
      <trkpt lat="36.779715" lon="-3.606135">
        <ele>162.292</ele>
        <time>2022-12-10T11:30:15Z</time>
      </trkpt>
      <trkpt lat="36.779669" lon="-3.606129">
        <ele>161.881</ele>
        <time>2022-12-10T11:30:19Z</time>
      </trkpt>
      <trkpt lat="36.779646" lon="-3.606136">
        <ele>161.723</ele>
        <time>2022-12-10T11:30:21Z</time>
      </trkpt>
      <trkpt lat="36.779626" lon="-3.606140">
        <ele>161.619</ele>
        <time>2022-12-10T11:30:23Z</time>
      </trkpt>
      <trkpt lat="36.779604" lon="-3.606137">
        <ele>161.490</ele>
        <time>2022-12-10T11:30:25Z</time>
      </trkpt>
      <trkpt lat="36.779604" lon="-3.606124">
        <ele>161.323</ele>
        <time>2022-12-10T11:30:29Z</time>
      </trkpt>
      <trkpt lat="36.779618" lon="-3.606098">
        <ele>161.233</ele>
        <time>2022-12-10T11:30:32Z</time>
      </trkpt>
      <trkpt lat="36.779640" lon="-3.605898">
        <ele>160.368</ele>
        <time>2022-12-10T11:31:24Z</time>
      </trkpt>
      <trkpt lat="36.779730" lon="-3.605700">
        <ele>159.642</ele>
        <time>2022-12-10T11:31:36Z</time>
      </trkpt>
      <trkpt lat="36.779833" lon="-3.605505">
        <ele>159.526</ele>
        <time>2022-12-10T11:31:43Z</time>
      </trkpt>
      <trkpt lat="36.779886" lon="-3.605300">
        <ele>158.709</ele>
        <time>2022-12-10T11:31:50Z</time>
      </trkpt>
      <trkpt lat="36.779919" lon="-3.605062">
        <ele>157.947</ele>
        <time>2022-12-10T11:32:05Z</time>
      </trkpt>
      <trkpt lat="36.780010" lon="-3.604866">
        <ele>157.238</ele>
        <time>2022-12-10T11:32:16Z</time>
      </trkpt>
      <trkpt lat="36.780058" lon="-3.604785">
        <ele>157.567</ele>
        <time>2022-12-10T11:32:21Z</time>
      </trkpt>
      <trkpt lat="36.780164" lon="-3.604588">
        <ele>157.836</ele>
        <time>2022-12-10T11:32:34Z</time>
      </trkpt>
      <trkpt lat="36.780298" lon="-3.604411">
        <ele>157.348</ele>
        <time>2022-12-10T11:32:48Z</time>
      </trkpt>
      <trkpt lat="36.780331" lon="-3.604365">
        <ele>157.734</ele>
        <time>2022-12-10T11:32:51Z</time>
      </trkpt>
      <trkpt lat="36.780448" lon="-3.604184">
        <ele>158.095</ele>
        <time>2022-12-10T11:33:03Z</time>
      </trkpt>
      <trkpt lat="36.780561" lon="-3.603994">
        <ele>158.598</ele>
        <time>2022-12-10T11:33:16Z</time>
      </trkpt>
      <trkpt lat="36.780637" lon="-3.603789">
        <ele>159.128</ele>
        <time>2022-12-10T11:33:28Z</time>
      </trkpt>
      <trkpt lat="36.780634" lon="-3.603727">
        <ele>158.823</ele>
        <time>2022-12-10T11:33:31Z</time>
      </trkpt>
      <trkpt lat="36.780603" lon="-3.603525">
        <ele>157.383</ele>
        <time>2022-12-10T11:33:43Z</time>
      </trkpt>
      <trkpt lat="36.780607" lon="-3.603377">
        <ele>156.411</ele>
        <time>2022-12-10T11:33:50Z</time>
      </trkpt>
      <trkpt lat="36.780591" lon="-3.603139">
        <ele>154.509</ele>
        <time>2022-12-10T11:34:02Z</time>
      </trkpt>
      <trkpt lat="36.780604" lon="-3.602915">
        <ele>154.063</ele>
        <time>2022-12-10T11:34:14Z</time>
      </trkpt>
      <trkpt lat="36.780615" lon="-3.602685">
        <ele>153.894</ele>
        <time>2022-12-10T11:34:27Z</time>
      </trkpt>
      <trkpt lat="36.780617" lon="-3.602598">
        <ele>153.683</ele>
        <time>2022-12-10T11:34:32Z</time>
      </trkpt>
      <trkpt lat="36.780601" lon="-3.602366">
        <ele>152.332</ele>
        <time>2022-12-10T11:34:43Z</time>
      </trkpt>
      <trkpt lat="36.780600" lon="-3.602331">
        <ele>152.174</ele>
        <time>2022-12-10T11:34:45Z</time>
      </trkpt>
      <trkpt lat="36.780599" lon="-3.602102">
        <ele>151.050</ele>
        <time>2022-12-10T11:34:57Z</time>
      </trkpt>
      <trkpt lat="36.780529" lon="-3.601877">
        <ele>150.431</ele>
        <time>2022-12-10T11:35:09Z</time>
      </trkpt>
      <trkpt lat="36.780512" lon="-3.601834">
        <ele>150.654</ele>
        <time>2022-12-10T11:35:11Z</time>
      </trkpt>
      <trkpt lat="36.780460" lon="-3.601720">
        <ele>151.494</ele>
        <time>2022-12-10T11:35:17Z</time>
      </trkpt>
      <trkpt lat="36.780424" lon="-3.601646">
        <ele>151.835</ele>
        <time>2022-12-10T11:35:21Z</time>
      </trkpt>
      <trkpt lat="36.780315" lon="-3.601456">
        <ele>150.986</ele>
        <time>2022-12-10T11:35:34Z</time>
      </trkpt>
      <trkpt lat="36.780214" lon="-3.601282">
        <ele>149.314</ele>
        <time>2022-12-10T11:35:47Z</time>
      </trkpt>
      <trkpt lat="36.780179" lon="-3.601293">
        <ele>149.809</ele>
        <time>2022-12-10T11:35:50Z</time>
      </trkpt>
      <trkpt lat="36.780108" lon="-3.601327">
        <ele>151.134</ele>
        <time>2022-12-10T11:35:57Z</time>
      </trkpt>
      <trkpt lat="36.780066" lon="-3.601327">
        <ele>151.595</ele>
        <time>2022-12-10T11:36:00Z</time>
      </trkpt>
      <trkpt lat="36.779973" lon="-3.601239">
        <ele>150.774</ele>
        <time>2022-12-10T11:36:09Z</time>
      </trkpt>
      <trkpt lat="36.779967" lon="-3.601205">
        <ele>150.073</ele>
        <time>2022-12-10T11:36:11Z</time>
      </trkpt>
      <trkpt lat="36.779956" lon="-3.601144">
        <ele>148.755</ele>
        <time>2022-12-10T11:36:15Z</time>
      </trkpt>
      <trkpt lat="36.779941" lon="-3.600919">
        <ele>148.951</ele>
        <time>2022-12-10T11:36:28Z</time>
      </trkpt>
      <trkpt lat="36.779900" lon="-3.600745">
        <ele>150.312</ele>
        <time>2022-12-10T11:36:38Z</time>
      </trkpt>
      <trkpt lat="36.779918" lon="-3.600521">
        <ele>149.255</ele>
        <time>2022-12-10T11:36:51Z</time>
      </trkpt>
      <trkpt lat="36.779923" lon="-3.600422">
        <ele>148.365</ele>
        <time>2022-12-10T11:36:57Z</time>
      </trkpt>
      <trkpt lat="36.779945" lon="-3.600312">
        <ele>147.172</ele>
        <time>2022-12-10T11:37:03Z</time>
      </trkpt>
      <trkpt lat="36.779953" lon="-3.600236">
        <ele>146.513</ele>
        <time>2022-12-10T11:37:07Z</time>
      </trkpt>
      <trkpt lat="36.779939" lon="-3.600131">
        <ele>146.314</ele>
        <time>2022-12-10T11:37:13Z</time>
      </trkpt>
      <trkpt lat="36.779950" lon="-3.599897">
        <ele>145.509</ele>
        <time>2022-12-10T11:37:26Z</time>
      </trkpt>
      <trkpt lat="36.780012" lon="-3.599665">
        <ele>144.048</ele>
        <time>2022-12-10T11:37:39Z</time>
      </trkpt>
      <trkpt lat="36.780016" lon="-3.599580">
        <ele>143.989</ele>
        <time>2022-12-10T11:37:43Z</time>
      </trkpt>
      <trkpt lat="36.780078" lon="-3.599353">
        <ele>143.628</ele>
        <time>2022-12-10T11:37:57Z</time>
      </trkpt>
      <trkpt lat="36.780088" lon="-3.599319">
        <ele>143.527</ele>
        <time>2022-12-10T11:37:59Z</time>
      </trkpt>
      <trkpt lat="36.780142" lon="-3.599159">
        <ele>142.999</ele>
        <time>2022-12-10T11:38:08Z</time>
      </trkpt>
      <trkpt lat="36.780159" lon="-3.599104">
        <ele>142.665</ele>
        <time>2022-12-10T11:38:11Z</time>
      </trkpt>
      <trkpt lat="36.780163" lon="-3.599085">
        <ele>142.556</ele>
        <time>2022-12-10T11:38:12Z</time>
      </trkpt>
      <trkpt lat="36.780181" lon="-3.598981">
        <ele>142.069</ele>
        <time>2022-12-10T11:38:17Z</time>
      </trkpt>
      <trkpt lat="36.780223" lon="-3.598759">
        <ele>141.449</ele>
        <time>2022-12-10T11:38:29Z</time>
      </trkpt>
      <trkpt lat="36.780235" lon="-3.598716">
        <ele>141.263</ele>
        <time>2022-12-10T11:38:32Z</time>
      </trkpt>
      <trkpt lat="36.780371" lon="-3.598569">
        <ele>139.144</ele>
        <time>2022-12-10T11:38:45Z</time>
      </trkpt>
      <trkpt lat="36.780412" lon="-3.598527">
        <ele>138.718</ele>
        <time>2022-12-10T11:38:49Z</time>
      </trkpt>
      <trkpt lat="36.780504" lon="-3.598421">
        <ele>137.309</ele>
        <time>2022-12-10T11:38:57Z</time>
      </trkpt>
      <trkpt lat="36.780524" lon="-3.598385">
        <ele>136.897</ele>
        <time>2022-12-10T11:38:59Z</time>
      </trkpt>
      <trkpt lat="36.780616" lon="-3.598178">
        <ele>135.688</ele>
        <time>2022-12-10T11:39:11Z</time>
      </trkpt>
      <trkpt lat="36.780677" lon="-3.597983">
        <ele>134.987</ele>
        <time>2022-12-10T11:39:22Z</time>
      </trkpt>
      <trkpt lat="36.780708" lon="-3.597747">
        <ele>134.946</ele>
        <time>2022-12-10T11:39:34Z</time>
      </trkpt>
      <trkpt lat="36.780710" lon="-3.597616">
        <ele>135.618</ele>
        <time>2022-12-10T11:39:41Z</time>
      </trkpt>
      <trkpt lat="36.780771" lon="-3.597404">
        <ele>134.814</ele>
        <time>2022-12-10T11:39:53Z</time>
      </trkpt>
      <trkpt lat="36.780849" lon="-3.597198">
        <ele>133.095</ele>
        <time>2022-12-10T11:40:04Z</time>
      </trkpt>
      <trkpt lat="36.780839" lon="-3.597078">
        <ele>132.568</ele>
        <time>2022-12-10T11:40:10Z</time>
      </trkpt>
      <trkpt lat="36.780786" lon="-3.596856">
        <ele>132.258</ele>
        <time>2022-12-10T11:40:22Z</time>
      </trkpt>
      <trkpt lat="36.780771" lon="-3.596752">
        <ele>132.094</ele>
        <time>2022-12-10T11:40:27Z</time>
      </trkpt>
      <trkpt lat="36.780751" lon="-3.596610">
        <ele>131.757</ele>
        <time>2022-12-10T11:40:35Z</time>
      </trkpt>
      <trkpt lat="36.780716" lon="-3.596466">
        <ele>131.522</ele>
        <time>2022-12-10T11:40:42Z</time>
      </trkpt>
      <trkpt lat="36.780667" lon="-3.596275">
        <ele>130.809</ele>
        <time>2022-12-10T11:40:52Z</time>
      </trkpt>
      <trkpt lat="36.780625" lon="-3.596051">
        <ele>129.430</ele>
        <time>2022-12-10T11:41:04Z</time>
      </trkpt>
      <trkpt lat="36.780600" lon="-3.595943">
        <ele>128.381</ele>
        <time>2022-12-10T11:41:10Z</time>
      </trkpt>
      <trkpt lat="36.780669" lon="-3.595719">
        <ele>127.570</ele>
        <time>2022-12-10T11:41:22Z</time>
      </trkpt>
      <trkpt lat="36.780701" lon="-3.595603">
        <ele>127.889</ele>
        <time>2022-12-10T11:41:28Z</time>
      </trkpt>
      <trkpt lat="36.780703" lon="-3.595380">
        <ele>127.951</ele>
        <time>2022-12-10T11:41:39Z</time>
      </trkpt>
      <trkpt lat="36.780718" lon="-3.595283">
        <ele>127.727</ele>
        <time>2022-12-10T11:41:44Z</time>
      </trkpt>
      <trkpt lat="36.780767" lon="-3.595059">
        <ele>127.748</ele>
        <time>2022-12-10T11:41:56Z</time>
      </trkpt>
      <trkpt lat="36.780804" lon="-3.594836">
        <ele>127.191</ele>
        <time>2022-12-10T11:42:08Z</time>
      </trkpt>
      <trkpt lat="36.780901" lon="-3.594639">
        <ele>125.821</ele>
        <time>2022-12-10T11:42:20Z</time>
      </trkpt>
      <trkpt lat="36.781050" lon="-3.594505">
        <ele>124.274</ele>
        <time>2022-12-10T11:42:32Z</time>
      </trkpt>
      <trkpt lat="36.781183" lon="-3.594339">
        <ele>123.756</ele>
        <time>2022-12-10T11:42:48Z</time>
      </trkpt>
      <trkpt lat="36.781234" lon="-3.594127">
        <ele>124.021</ele>
        <time>2022-12-10T11:43:02Z</time>
      </trkpt>
      <trkpt lat="36.781260" lon="-3.593977">
        <ele>124.009</ele>
        <time>2022-12-10T11:43:11Z</time>
      </trkpt>
      <trkpt lat="36.781324" lon="-3.593777">
        <ele>124.218</ele>
        <time>2022-12-10T11:43:24Z</time>
      </trkpt>
      <trkpt lat="36.781317" lon="-3.593751">
        <ele>124.399</ele>
        <time>2022-12-10T11:43:28Z</time>
      </trkpt>
      <trkpt lat="36.781338" lon="-3.593688">
        <ele>124.348</ele>
        <time>2022-12-10T11:43:33Z</time>
      </trkpt>
      <trkpt lat="36.781337" lon="-3.593636">
        <ele>124.377</ele>
        <time>2022-12-10T11:43:37Z</time>
      </trkpt>
      <trkpt lat="36.781349" lon="-3.593502">
        <ele>124.239</ele>
        <time>2022-12-10T11:43:45Z</time>
      </trkpt>
      <trkpt lat="36.781229" lon="-3.593362">
        <ele>124.165</ele>
        <time>2022-12-10T11:43:58Z</time>
      </trkpt>
      <trkpt lat="36.781061" lon="-3.593312">
        <ele>124.496</ele>
        <time>2022-12-10T11:44:11Z</time>
      </trkpt>
      <trkpt lat="36.781055" lon="-3.593284">
        <ele>124.059</ele>
        <time>2022-12-10T11:44:13Z</time>
      </trkpt>
      <trkpt lat="36.781021" lon="-3.593055">
        <ele>120.349</ele>
        <time>2022-12-10T11:44:26Z</time>
      </trkpt>
      <trkpt lat="36.780949" lon="-3.592833">
        <ele>119.822</ele>
        <time>2022-12-10T11:44:38Z</time>
      </trkpt>
      <trkpt lat="36.780857" lon="-3.592623">
        <ele>118.962</ele>
        <time>2022-12-10T11:44:49Z</time>
      </trkpt>
      <trkpt lat="36.780798" lon="-3.592548">
        <ele>118.308</ele>
        <time>2022-12-10T11:44:57Z</time>
      </trkpt>
      <trkpt lat="36.780737" lon="-3.592493">
        <ele>118.009</ele>
        <time>2022-12-10T11:45:10Z</time>
      </trkpt>
      <trkpt lat="36.780617" lon="-3.592306">
        <ele>117.573</ele>
        <time>2022-12-10T11:45:22Z</time>
      </trkpt>
      <trkpt lat="36.780598" lon="-3.592276">
        <ele>117.354</ele>
        <time>2022-12-10T11:45:24Z</time>
      </trkpt>
      <trkpt lat="36.780515" lon="-3.592184">
        <ele>116.983</ele>
        <time>2022-12-10T11:45:31Z</time>
      </trkpt>
      <trkpt lat="36.780386" lon="-3.592026">
        <ele>116.452</ele>
        <time>2022-12-10T11:45:42Z</time>
      </trkpt>
      <trkpt lat="36.780310" lon="-3.591916">
        <ele>116.294</ele>
        <time>2022-12-10T11:45:50Z</time>
      </trkpt>
      <trkpt lat="36.780298" lon="-3.591909">
        <ele>116.220</ele>
        <time>2022-12-10T11:45:51Z</time>
      </trkpt>
      <trkpt lat="36.780179" lon="-3.591793">
        <ele>116.541</ele>
        <time>2022-12-10T11:46:00Z</time>
      </trkpt>
      <trkpt lat="36.780024" lon="-3.591639">
        <ele>116.184</ele>
        <time>2022-12-10T11:46:15Z</time>
      </trkpt>
      <trkpt lat="36.779911" lon="-3.591596">
        <ele>115.644</ele>
        <time>2022-12-10T11:46:22Z</time>
      </trkpt>
      <trkpt lat="36.779737" lon="-3.591535">
        <ele>114.621</ele>
        <time>2022-12-10T11:46:33Z</time>
      </trkpt>
      <trkpt lat="36.779705" lon="-3.591527">
        <ele>114.541</ele>
        <time>2022-12-10T11:46:35Z</time>
      </trkpt>
      <trkpt lat="36.779528" lon="-3.591487">
        <ele>114.105</ele>
        <time>2022-12-10T11:46:46Z</time>
      </trkpt>
      <trkpt lat="36.779350" lon="-3.591443">
        <ele>114.109</ele>
        <time>2022-12-10T11:46:58Z</time>
      </trkpt>
      <trkpt lat="36.779166" lon="-3.591385">
        <ele>114.013</ele>
        <time>2022-12-10T11:47:11Z</time>
      </trkpt>
      <trkpt lat="36.778986" lon="-3.591332">
        <ele>113.764</ele>
        <time>2022-12-10T11:47:22Z</time>
      </trkpt>
      <trkpt lat="36.778971" lon="-3.591324">
        <ele>113.783</ele>
        <time>2022-12-10T11:47:23Z</time>
      </trkpt>
      <trkpt lat="36.778957" lon="-3.591316">
        <ele>113.722</ele>
        <time>2022-12-10T11:47:24Z</time>
      </trkpt>
      <trkpt lat="36.778840" lon="-3.591139">
        <ele>113.954</ele>
        <time>2022-12-10T11:47:37Z</time>
      </trkpt>
      <trkpt lat="36.778785" lon="-3.591034">
        <ele>113.970</ele>
        <time>2022-12-10T11:47:45Z</time>
      </trkpt>
      <trkpt lat="36.778678" lon="-3.590842">
        <ele>114.171</ele>
        <time>2022-12-10T11:47:57Z</time>
      </trkpt>
      <trkpt lat="36.778577" lon="-3.590647">
        <ele>112.864</ele>
        <time>2022-12-10T11:48:09Z</time>
      </trkpt>
      <trkpt lat="36.778524" lon="-3.590562">
        <ele>112.314</ele>
        <time>2022-12-10T11:48:14Z</time>
      </trkpt>
      <trkpt lat="36.778468" lon="-3.590464">
        <ele>112.277</ele>
        <time>2022-12-10T11:48:21Z</time>
      </trkpt>
      <trkpt lat="36.778347" lon="-3.590296">
        <ele>112.961</ele>
        <time>2022-12-10T11:48:33Z</time>
      </trkpt>
      <trkpt lat="36.778239" lon="-3.590096">
        <ele>111.527</ele>
        <time>2022-12-10T11:48:46Z</time>
      </trkpt>
      <trkpt lat="36.778105" lon="-3.589947">
        <ele>110.809</ele>
        <time>2022-12-10T11:48:58Z</time>
      </trkpt>
      <trkpt lat="36.778079" lon="-3.589924">
        <ele>110.778</ele>
        <time>2022-12-10T11:49:00Z</time>
      </trkpt>
      <trkpt lat="36.777936" lon="-3.589767">
        <ele>109.969</ele>
        <time>2022-12-10T11:49:12Z</time>
      </trkpt>
      <trkpt lat="36.777849" lon="-3.589684">
        <ele>110.028</ele>
        <time>2022-12-10T11:49:19Z</time>
      </trkpt>
      <trkpt lat="36.777704" lon="-3.589525">
        <ele>110.637</ele>
        <time>2022-12-10T11:49:31Z</time>
      </trkpt>
      <trkpt lat="36.777578" lon="-3.589341">
        <ele>110.769</ele>
        <time>2022-12-10T11:49:43Z</time>
      </trkpt>
      <trkpt lat="36.777508" lon="-3.589213">
        <ele>109.675</ele>
        <time>2022-12-10T11:49:51Z</time>
      </trkpt>
      <trkpt lat="36.777376" lon="-3.589040">
        <ele>107.726</ele>
        <time>2022-12-10T11:50:03Z</time>
      </trkpt>
      <trkpt lat="36.777350" lon="-3.588997">
        <ele>107.099</ele>
        <time>2022-12-10T11:50:08Z</time>
      </trkpt>
      <trkpt lat="36.777357" lon="-3.588984">
        <ele>106.939</ele>
        <time>2022-12-10T11:50:10Z</time>
      </trkpt>
      <trkpt lat="36.777359" lon="-3.588974">
        <ele>106.771</ele>
        <time>2022-12-10T11:50:11Z</time>
      </trkpt>
      <trkpt lat="36.777359" lon="-3.588949">
        <ele>106.441</ele>
        <time>2022-12-10T11:50:13Z</time>
      </trkpt>
      <trkpt lat="36.777328" lon="-3.588856">
        <ele>105.115</ele>
        <time>2022-12-10T11:50:21Z</time>
      </trkpt>
      <trkpt lat="36.777312" lon="-3.588869">
        <ele>105.109</ele>
        <time>2022-12-10T11:50:25Z</time>
      </trkpt>
      <trkpt lat="36.777257" lon="-3.588846">
        <ele>104.748</ele>
        <time>2022-12-10T11:50:30Z</time>
      </trkpt>
      <trkpt lat="36.777221" lon="-3.588825">
        <ele>104.319</ele>
        <time>2022-12-10T11:50:32Z</time>
      </trkpt>
      <trkpt lat="36.777188" lon="-3.588794">
        <ele>104.138</ele>
        <time>2022-12-10T11:50:34Z</time>
      </trkpt>
      <trkpt lat="36.777163" lon="-3.588770">
        <ele>103.987</ele>
        <time>2022-12-10T11:50:36Z</time>
      </trkpt>
      <trkpt lat="36.777007" lon="-3.588625">
        <ele>102.929</ele>
        <time>2022-12-10T11:50:49Z</time>
      </trkpt>
      <trkpt lat="36.776867" lon="-3.588480">
        <ele>102.335</ele>
        <time>2022-12-10T11:51:02Z</time>
      </trkpt>
      <trkpt lat="36.776712" lon="-3.588340">
        <ele>101.996</ele>
        <time>2022-12-10T11:51:16Z</time>
      </trkpt>
      <trkpt lat="36.776702" lon="-3.588327">
        <ele>101.839</ele>
        <time>2022-12-10T11:51:17Z</time>
      </trkpt>
      <trkpt lat="36.776536" lon="-3.588235">
        <ele>101.959</ele>
        <time>2022-12-10T11:51:30Z</time>
      </trkpt>
      <trkpt lat="36.776426" lon="-3.588191">
        <ele>102.364</ele>
        <time>2022-12-10T11:51:39Z</time>
      </trkpt>
      <trkpt lat="36.776274" lon="-3.588049">
        <ele>101.506</ele>
        <time>2022-12-10T11:51:53Z</time>
      </trkpt>
      <trkpt lat="36.776088" lon="-3.588024">
        <ele>100.716</ele>
        <time>2022-12-10T11:52:06Z</time>
      </trkpt>
      <trkpt lat="36.776007" lon="-3.588011">
        <ele>100.109</ele>
        <time>2022-12-10T11:52:12Z</time>
      </trkpt>
      <trkpt lat="36.775820" lon="-3.587984">
        <ele>98.637</ele>
        <time>2022-12-10T11:52:25Z</time>
      </trkpt>
      <trkpt lat="36.775634" lon="-3.587946">
        <ele>97.288</ele>
        <time>2022-12-10T11:52:38Z</time>
      </trkpt>
      <trkpt lat="36.775463" lon="-3.587851">
        <ele>96.397</ele>
        <time>2022-12-10T11:52:53Z</time>
      </trkpt>
      <trkpt lat="36.775360" lon="-3.587838">
        <ele>96.226</ele>
        <time>2022-12-10T11:53:01Z</time>
      </trkpt>
      <trkpt lat="36.775178" lon="-3.587839">
        <ele>96.768</ele>
        <time>2022-12-10T11:53:15Z</time>
      </trkpt>
      <trkpt lat="36.775097" lon="-3.587811">
        <ele>96.834</ele>
        <time>2022-12-10T11:53:21Z</time>
      </trkpt>
      <trkpt lat="36.774998" lon="-3.587798">
        <ele>97.145</ele>
        <time>2022-12-10T11:53:28Z</time>
      </trkpt>
      <trkpt lat="36.774912" lon="-3.587770">
        <ele>96.638</ele>
        <time>2022-12-10T11:53:35Z</time>
      </trkpt>
      <trkpt lat="36.774917" lon="-3.587554">
        <ele>95.778</ele>
        <time>2022-12-10T11:53:47Z</time>
      </trkpt>
      <trkpt lat="36.774955" lon="-3.587318">
        <ele>95.712</ele>
        <time>2022-12-10T11:53:58Z</time>
      </trkpt>
      <trkpt lat="36.774968" lon="-3.587177">
        <ele>95.632</ele>
        <time>2022-12-10T11:54:05Z</time>
      </trkpt>
      <trkpt lat="36.774967" lon="-3.587157">
        <ele>95.605</ele>
        <time>2022-12-10T11:54:06Z</time>
      </trkpt>
      <trkpt lat="36.775035" lon="-3.586939">
        <ele>95.309</ele>
        <time>2022-12-10T11:54:17Z</time>
      </trkpt>
      <trkpt lat="36.775084" lon="-3.586710">
        <ele>96.412</ele>
        <time>2022-12-10T11:54:27Z</time>
      </trkpt>
      <trkpt lat="36.775009" lon="-3.586488">
        <ele>98.063</ele>
        <time>2022-12-10T11:54:39Z</time>
      </trkpt>
      <trkpt lat="36.774966" lon="-3.586385">
        <ele>98.772</ele>
        <time>2022-12-10T11:54:45Z</time>
      </trkpt>
      <trkpt lat="36.774911" lon="-3.586267">
        <ele>99.481</ele>
        <time>2022-12-10T11:54:52Z</time>
      </trkpt>
      <trkpt lat="36.774860" lon="-3.586174">
        <ele>99.823</ele>
        <time>2022-12-10T11:54:58Z</time>
      </trkpt>
      <trkpt lat="36.774780" lon="-3.585958">
        <ele>100.899</ele>
        <time>2022-12-10T11:55:12Z</time>
      </trkpt>
      <trkpt lat="36.774761" lon="-3.585724">
        <ele>102.620</ele>
        <time>2022-12-10T11:55:25Z</time>
      </trkpt>
      <trkpt lat="36.774678" lon="-3.585527">
        <ele>103.983</ele>
        <time>2022-12-10T11:55:37Z</time>
      </trkpt>
      <trkpt lat="36.774493" lon="-3.585490">
        <ele>103.033</ele>
        <time>2022-12-10T11:55:49Z</time>
      </trkpt>
      <trkpt lat="36.774294" lon="-3.585459">
        <ele>103.694</ele>
        <time>2022-12-10T11:56:00Z</time>
      </trkpt>
      <trkpt lat="36.774107" lon="-3.585497">
        <ele>103.757</ele>
        <time>2022-12-10T11:56:11Z</time>
      </trkpt>
      <trkpt lat="36.773961" lon="-3.585559">
        <ele>102.922</ele>
        <time>2022-12-10T11:56:24Z</time>
      </trkpt>
      <trkpt lat="36.773773" lon="-3.585553">
        <ele>102.609</ele>
        <time>2022-12-10T11:56:36Z</time>
      </trkpt>
      <trkpt lat="36.773618" lon="-3.585599">
        <ele>101.230</ele>
        <time>2022-12-10T11:56:46Z</time>
      </trkpt>
      <trkpt lat="36.773534" lon="-3.585577">
        <ele>101.121</ele>
        <time>2022-12-10T11:56:48Z</time>
      </trkpt>
      <trkpt lat="36.773435" lon="-3.585552">
        <ele>100.820</ele>
        <time>2022-12-10T11:56:57Z</time>
      </trkpt>
      <trkpt lat="36.773382" lon="-3.585557">
        <ele>100.349</ele>
        <time>2022-12-10T11:57:03Z</time>
      </trkpt>
      <trkpt lat="36.773277" lon="-3.585536">
        <ele>100.391</ele>
        <time>2022-12-10T11:57:12Z</time>
      </trkpt>
      <trkpt lat="36.773103" lon="-3.585450">
        <ele>101.317</ele>
        <time>2022-12-10T11:57:24Z</time>
      </trkpt>
      <trkpt lat="36.772951" lon="-3.585303">
        <ele>101.258</ele>
        <time>2022-12-10T11:57:35Z</time>
      </trkpt>
      <trkpt lat="36.772848" lon="-3.585105">
        <ele>101.191</ele>
        <time>2022-12-10T11:57:48Z</time>
      </trkpt>
      <trkpt lat="36.772775" lon="-3.584897">
        <ele>102.111</ele>
        <time>2022-12-10T11:58:01Z</time>
      </trkpt>
      <trkpt lat="36.772729" lon="-3.584667">
        <ele>103.778</ele>
        <time>2022-12-10T11:58:14Z</time>
      </trkpt>
      <trkpt lat="36.772672" lon="-3.584437">
        <ele>104.933</ele>
        <time>2022-12-10T11:58:27Z</time>
      </trkpt>
      <trkpt lat="36.772609" lon="-3.584208">
        <ele>104.226</ele>
        <time>2022-12-10T11:58:40Z</time>
      </trkpt>
      <trkpt lat="36.772555" lon="-3.583986">
        <ele>102.909</ele>
        <time>2022-12-10T11:58:52Z</time>
      </trkpt>
      <trkpt lat="36.772537" lon="-3.583822">
        <ele>102.228</ele>
        <time>2022-12-10T11:59:02Z</time>
      </trkpt>
      <trkpt lat="36.772527" lon="-3.583793">
        <ele>101.959</ele>
        <time>2022-12-10T11:59:04Z</time>
      </trkpt>
      <trkpt lat="36.772517" lon="-3.583779">
        <ele>101.838</ele>
        <time>2022-12-10T11:59:05Z</time>
      </trkpt>
      <trkpt lat="36.772397" lon="-3.583625">
        <ele>100.347</ele>
        <time>2022-12-10T11:59:18Z</time>
      </trkpt>
      <trkpt lat="36.772340" lon="-3.583550">
        <ele>100.159</ele>
        <time>2022-12-10T11:59:24Z</time>
      </trkpt>
      <trkpt lat="36.772218" lon="-3.583377">
        <ele>99.875</ele>
        <time>2022-12-10T11:59:35Z</time>
      </trkpt>
      <trkpt lat="36.772100" lon="-3.583184">
        <ele>100.016</ele>
        <time>2022-12-10T11:59:47Z</time>
      </trkpt>
      <trkpt lat="36.771987" lon="-3.583005">
        <ele>99.869</ele>
        <time>2022-12-10T11:59:58Z</time>
      </trkpt>
      <trkpt lat="36.771855" lon="-3.582833">
        <ele>99.289</ele>
        <time>2022-12-10T12:00:10Z</time>
      </trkpt>
      <trkpt lat="36.771709" lon="-3.582697">
        <ele>98.555</ele>
        <time>2022-12-10T12:00:21Z</time>
      </trkpt>
      <trkpt lat="36.771607" lon="-3.582647">
        <ele>98.107</ele>
        <time>2022-12-10T12:00:29Z</time>
      </trkpt>
      <trkpt lat="36.771435" lon="-3.582728">
        <ele>98.617</ele>
        <time>2022-12-10T12:00:40Z</time>
      </trkpt>
      <trkpt lat="36.771298" lon="-3.582873">
        <ele>98.709</ele>
        <time>2022-12-10T12:00:52Z</time>
      </trkpt>
      <trkpt lat="36.771187" lon="-3.583064">
        <ele>98.646</ele>
        <time>2022-12-10T12:01:05Z</time>
      </trkpt>
      <trkpt lat="36.771034" lon="-3.583200">
        <ele>97.667</ele>
        <time>2022-12-10T12:01:15Z</time>
      </trkpt>
      <trkpt lat="36.770849" lon="-3.583254">
        <ele>95.646</ele>
        <time>2022-12-10T12:01:27Z</time>
      </trkpt>
      <trkpt lat="36.770700" lon="-3.583258">
        <ele>94.515</ele>
        <time>2022-12-10T12:01:36Z</time>
      </trkpt>
      <trkpt lat="36.770509" lon="-3.583248">
        <ele>93.447</ele>
        <time>2022-12-10T12:01:49Z</time>
      </trkpt>
      <trkpt lat="36.770407" lon="-3.583234">
        <ele>93.363</ele>
        <time>2022-12-10T12:01:55Z</time>
      </trkpt>
      <trkpt lat="36.770250" lon="-3.583204">
        <ele>93.134</ele>
        <time>2022-12-10T12:02:05Z</time>
      </trkpt>
      <trkpt lat="36.770195" lon="-3.583205">
        <ele>93.297</ele>
        <time>2022-12-10T12:02:09Z</time>
      </trkpt>
      <trkpt lat="36.770044" lon="-3.583213">
        <ele>93.467</ele>
        <time>2022-12-10T12:02:20Z</time>
      </trkpt>
      <trkpt lat="36.769857" lon="-3.583189">
        <ele>92.787</ele>
        <time>2022-12-10T12:02:32Z</time>
      </trkpt>
      <trkpt lat="36.769819" lon="-3.583169">
        <ele>92.642</ele>
        <time>2022-12-10T12:02:35Z</time>
      </trkpt>
      <trkpt lat="36.769732" lon="-3.583149">
        <ele>92.126</ele>
        <time>2022-12-10T12:02:40Z</time>
      </trkpt>
      <trkpt lat="36.769556" lon="-3.583071">
        <ele>90.209</ele>
        <time>2022-12-10T12:02:51Z</time>
      </trkpt>
      <trkpt lat="36.769540" lon="-3.583062">
        <ele>90.019</ele>
        <time>2022-12-10T12:02:52Z</time>
      </trkpt>
      <trkpt lat="36.769485" lon="-3.583027">
        <ele>89.170</ele>
        <time>2022-12-10T12:02:56Z</time>
      </trkpt>
      <trkpt lat="36.769411" lon="-3.583005">
        <ele>88.149</ele>
        <time>2022-12-10T12:03:01Z</time>
      </trkpt>
      <trkpt lat="36.769280" lon="-3.582950">
        <ele>86.578</ele>
        <time>2022-12-10T12:03:10Z</time>
      </trkpt>
      <trkpt lat="36.769100" lon="-3.582862">
        <ele>85.280</ele>
        <time>2022-12-10T12:03:22Z</time>
      </trkpt>
      <trkpt lat="36.768921" lon="-3.582786">
        <ele>85.076</ele>
        <time>2022-12-10T12:03:34Z</time>
      </trkpt>
      <trkpt lat="36.768746" lon="-3.582737">
        <ele>84.377</ele>
        <time>2022-12-10T12:03:46Z</time>
      </trkpt>
      <trkpt lat="36.768681" lon="-3.582741">
        <ele>84.220</ele>
        <time>2022-12-10T12:03:50Z</time>
      </trkpt>
      <trkpt lat="36.768667" lon="-3.582736">
        <ele>84.160</ele>
        <time>2022-12-10T12:03:51Z</time>
      </trkpt>
      <trkpt lat="36.768482" lon="-3.582707">
        <ele>83.369</ele>
        <time>2022-12-10T12:04:03Z</time>
      </trkpt>
      <trkpt lat="36.768454" lon="-3.582705">
        <ele>83.104</ele>
        <time>2022-12-10T12:04:05Z</time>
      </trkpt>
      <trkpt lat="36.768294" lon="-3.582719">
        <ele>82.324</ele>
        <time>2022-12-10T12:04:17Z</time>
      </trkpt>
      <trkpt lat="36.768114" lon="-3.582729">
        <ele>81.109</ele>
        <time>2022-12-10T12:04:28Z</time>
      </trkpt>
      <trkpt lat="36.767926" lon="-3.582723">
        <ele>80.157</ele>
        <time>2022-12-10T12:04:40Z</time>
      </trkpt>
      <trkpt lat="36.767734" lon="-3.582714">
        <ele>79.298</ele>
        <time>2022-12-10T12:04:54Z</time>
      </trkpt>
      <trkpt lat="36.767544" lon="-3.582700">
        <ele>77.627</ele>
        <time>2022-12-10T12:05:06Z</time>
      </trkpt>
      <trkpt lat="36.767533" lon="-3.582708">
        <ele>77.576</ele>
        <time>2022-12-10T12:05:07Z</time>
      </trkpt>
      <trkpt lat="36.767386" lon="-3.582776">
        <ele>77.088</ele>
        <time>2022-12-10T12:05:18Z</time>
      </trkpt>
      <trkpt lat="36.767248" lon="-3.582791">
        <ele>76.994</ele>
        <time>2022-12-10T12:05:27Z</time>
      </trkpt>
      <trkpt lat="36.767093" lon="-3.582825">
        <ele>76.365</ele>
        <time>2022-12-10T12:05:37Z</time>
      </trkpt>
      <trkpt lat="36.767028" lon="-3.582840">
        <ele>76.098</ele>
        <time>2022-12-10T12:05:41Z</time>
      </trkpt>
      <trkpt lat="36.766909" lon="-3.582861">
        <ele>75.378</ele>
        <time>2022-12-10T12:05:49Z</time>
      </trkpt>
      <trkpt lat="36.766814" lon="-3.582878">
        <ele>74.131</ele>
        <time>2022-12-10T12:05:56Z</time>
      </trkpt>
      <trkpt lat="36.766677" lon="-3.582915">
        <ele>72.661</ele>
        <time>2022-12-10T12:06:05Z</time>
      </trkpt>
      <trkpt lat="36.766603" lon="-3.582918">
        <ele>71.907</ele>
        <time>2022-12-10T12:06:11Z</time>
      </trkpt>
      <trkpt lat="36.766501" lon="-3.582918">
        <ele>71.009</ele>
        <time>2022-12-10T12:06:18Z</time>
      </trkpt>
      <trkpt lat="36.766409" lon="-3.582898">
        <ele>70.294</ele>
        <time>2022-12-10T12:06:24Z</time>
      </trkpt>
      <trkpt lat="36.766335" lon="-3.582876">
        <ele>69.835</ele>
        <time>2022-12-10T12:06:29Z</time>
      </trkpt>
      <trkpt lat="36.766164" lon="-3.582792">
        <ele>69.234</ele>
        <time>2022-12-10T12:06:40Z</time>
      </trkpt>
      <trkpt lat="36.766151" lon="-3.582781">
        <ele>69.193</ele>
        <time>2022-12-10T12:06:41Z</time>
      </trkpt>
      <trkpt lat="36.766060" lon="-3.582729">
        <ele>68.695</ele>
        <time>2022-12-10T12:06:48Z</time>
      </trkpt>
      <trkpt lat="36.765889" lon="-3.582632">
        <ele>68.041</ele>
        <time>2022-12-10T12:07:01Z</time>
      </trkpt>
      <trkpt lat="36.765823" lon="-3.582599">
        <ele>67.712</ele>
        <time>2022-12-10T12:07:05Z</time>
      </trkpt>
      <trkpt lat="36.765671" lon="-3.582535">
        <ele>67.635</ele>
        <time>2022-12-10T12:07:16Z</time>
      </trkpt>
      <trkpt lat="36.765497" lon="-3.582439">
        <ele>67.025</ele>
        <time>2022-12-10T12:07:28Z</time>
      </trkpt>
      <trkpt lat="36.765327" lon="-3.582331">
        <ele>65.555</ele>
        <time>2022-12-10T12:07:40Z</time>
      </trkpt>
      <trkpt lat="36.765290" lon="-3.582312">
        <ele>65.407</ele>
        <time>2022-12-10T12:07:43Z</time>
      </trkpt>
      <trkpt lat="36.765270" lon="-3.582290">
        <ele>65.217</ele>
        <time>2022-12-10T12:07:45Z</time>
      </trkpt>
      <trkpt lat="36.765108" lon="-3.582190">
        <ele>64.209</ele>
        <time>2022-12-10T12:07:57Z</time>
      </trkpt>
      <trkpt lat="36.764956" lon="-3.582118">
        <ele>63.676</ele>
        <time>2022-12-10T12:08:07Z</time>
      </trkpt>
      <trkpt lat="36.764856" lon="-3.582077">
        <ele>63.557</ele>
        <time>2022-12-10T12:08:13Z</time>
      </trkpt>
      <trkpt lat="36.764693" lon="-3.581954">
        <ele>64.086</ele>
        <time>2022-12-10T12:08:26Z</time>
      </trkpt>
      <trkpt lat="36.764611" lon="-3.581926">
        <ele>63.935</ele>
        <time>2022-12-10T12:08:32Z</time>
      </trkpt>
      <trkpt lat="36.764428" lon="-3.581847">
        <ele>63.537</ele>
        <time>2022-12-10T12:08:45Z</time>
      </trkpt>
      <trkpt lat="36.764353" lon="-3.581826">
        <ele>62.953</ele>
        <time>2022-12-10T12:08:51Z</time>
      </trkpt>
      <trkpt lat="36.764219" lon="-3.581775">
        <ele>61.894</ele>
        <time>2022-12-10T12:08:59Z</time>
      </trkpt>
      <trkpt lat="36.764110" lon="-3.581733">
        <ele>60.877</ele>
        <time>2022-12-10T12:09:06Z</time>
      </trkpt>
      <trkpt lat="36.763972" lon="-3.581676">
        <ele>59.667</ele>
        <time>2022-12-10T12:09:17Z</time>
      </trkpt>
      <trkpt lat="36.763854" lon="-3.581609">
        <ele>58.734</ele>
        <time>2022-12-10T12:09:26Z</time>
      </trkpt>
      <trkpt lat="36.763700" lon="-3.581554">
        <ele>57.655</ele>
        <time>2022-12-10T12:09:36Z</time>
      </trkpt>
      <trkpt lat="36.763616" lon="-3.581511">
        <ele>57.010</ele>
        <time>2022-12-10T12:09:42Z</time>
      </trkpt>
      <trkpt lat="36.763524" lon="-3.581473">
        <ele>56.509</ele>
        <time>2022-12-10T12:09:49Z</time>
      </trkpt>
      <trkpt lat="36.763363" lon="-3.581392">
        <ele>55.284</ele>
        <time>2022-12-10T12:09:59Z</time>
      </trkpt>
      <trkpt lat="36.763216" lon="-3.581336">
        <ele>55.075</ele>
        <time>2022-12-10T12:10:09Z</time>
      </trkpt>
      <trkpt lat="36.763055" lon="-3.581297">
        <ele>55.094</ele>
        <time>2022-12-10T12:10:19Z</time>
      </trkpt>
      <trkpt lat="36.762882" lon="-3.581233">
        <ele>53.863</ele>
        <time>2022-12-10T12:10:30Z</time>
      </trkpt>
      <trkpt lat="36.762718" lon="-3.581163">
        <ele>52.875</ele>
        <time>2022-12-10T12:10:42Z</time>
      </trkpt>
      <trkpt lat="36.762531" lon="-3.581116">
        <ele>52.191</ele>
        <time>2022-12-10T12:10:54Z</time>
      </trkpt>
      <trkpt lat="36.762337" lon="-3.581096">
        <ele>51.452</ele>
        <time>2022-12-10T12:11:05Z</time>
      </trkpt>
      <trkpt lat="36.762322" lon="-3.581090">
        <ele>51.365</ele>
        <time>2022-12-10T12:11:06Z</time>
      </trkpt>
      <trkpt lat="36.762132" lon="-3.581010">
        <ele>50.685</ele>
        <time>2022-12-10T12:11:18Z</time>
      </trkpt>
      <trkpt lat="36.761975" lon="-3.580880">
        <ele>50.213</ele>
        <time>2022-12-10T12:11:30Z</time>
      </trkpt>
      <trkpt lat="36.761897" lon="-3.580668">
        <ele>50.243</ele>
        <time>2022-12-10T12:11:42Z</time>
      </trkpt>
      <trkpt lat="36.761912" lon="-3.580448">
        <ele>50.107</ele>
        <time>2022-12-10T12:11:53Z</time>
      </trkpt>
      <trkpt lat="36.761928" lon="-3.580394">
        <ele>50.109</ele>
        <time>2022-12-10T12:11:56Z</time>
      </trkpt>
      <trkpt lat="36.761865" lon="-3.580234">
        <ele>50.262</ele>
        <time>2022-12-10T12:12:05Z</time>
      </trkpt>
      <trkpt lat="36.761773" lon="-3.580031">
        <ele>50.123</ele>
        <time>2022-12-10T12:12:16Z</time>
      </trkpt>
      <trkpt lat="36.761654" lon="-3.579840">
        <ele>49.432</ele>
        <time>2022-12-10T12:12:27Z</time>
      </trkpt>
      <trkpt lat="36.761607" lon="-3.579710">
        <ele>48.981</ele>
        <time>2022-12-10T12:12:35Z</time>
      </trkpt>
      <trkpt lat="36.761480" lon="-3.579538">
        <ele>47.933</ele>
        <time>2022-12-10T12:12:47Z</time>
      </trkpt>
      <trkpt lat="36.761403" lon="-3.579408">
        <ele>47.849</ele>
        <time>2022-12-10T12:12:56Z</time>
      </trkpt>
      <trkpt lat="36.761253" lon="-3.579270">
        <ele>48.470</ele>
        <time>2022-12-10T12:13:07Z</time>
      </trkpt>
      <trkpt lat="36.761079" lon="-3.579188">
        <ele>49.173</ele>
        <time>2022-12-10T12:13:19Z</time>
      </trkpt>
      <trkpt lat="36.760904" lon="-3.579125">
        <ele>48.873</ele>
        <time>2022-12-10T12:13:30Z</time>
      </trkpt>
      <trkpt lat="36.760832" lon="-3.579099">
        <ele>48.899</ele>
        <time>2022-12-10T12:13:36Z</time>
      </trkpt>
      <trkpt lat="36.760668" lon="-3.579020">
        <ele>48.207</ele>
        <time>2022-12-10T12:13:48Z</time>
      </trkpt>
      <trkpt lat="36.760544" lon="-3.578840">
        <ele>47.627</ele>
        <time>2022-12-10T12:13:59Z</time>
      </trkpt>
      <trkpt lat="36.760512" lon="-3.578786">
        <ele>47.209</ele>
        <time>2022-12-10T12:14:02Z</time>
      </trkpt>
      <trkpt lat="36.760422" lon="-3.578580">
        <ele>45.820</ele>
        <time>2022-12-10T12:14:14Z</time>
      </trkpt>
      <trkpt lat="36.760368" lon="-3.578435">
        <ele>44.951</ele>
        <time>2022-12-10T12:14:22Z</time>
      </trkpt>
      <trkpt lat="36.760293" lon="-3.578210">
        <ele>43.670</ele>
        <time>2022-12-10T12:14:34Z</time>
      </trkpt>
      <trkpt lat="36.760231" lon="-3.577988">
        <ele>43.029</ele>
        <time>2022-12-10T12:14:46Z</time>
      </trkpt>
      <trkpt lat="36.760220" lon="-3.577931">
        <ele>43.151</ele>
        <time>2022-12-10T12:14:49Z</time>
      </trkpt>
      <trkpt lat="36.760215" lon="-3.577693">
        <ele>43.247</ele>
        <time>2022-12-10T12:15:01Z</time>
      </trkpt>
      <trkpt lat="36.760221" lon="-3.577457">
        <ele>43.078</ele>
        <time>2022-12-10T12:15:13Z</time>
      </trkpt>
      <trkpt lat="36.760219" lon="-3.577438">
        <ele>43.081</ele>
        <time>2022-12-10T12:15:14Z</time>
      </trkpt>
      <trkpt lat="36.760190" lon="-3.577210">
        <ele>42.381</ele>
        <time>2022-12-10T12:15:25Z</time>
      </trkpt>
      <trkpt lat="36.760240" lon="-3.577037">
        <ele>41.471</ele>
        <time>2022-12-10T12:15:34Z</time>
      </trkpt>
      <trkpt lat="36.760303" lon="-3.576857">
        <ele>40.141</ele>
        <time>2022-12-10T12:15:44Z</time>
      </trkpt>
      <trkpt lat="36.760356" lon="-3.576762">
        <ele>39.315</ele>
        <time>2022-12-10T12:15:49Z</time>
      </trkpt>
      <trkpt lat="36.760370" lon="-3.576621">
        <ele>37.909</ele>
        <time>2022-12-10T12:15:55Z</time>
      </trkpt>
      <trkpt lat="36.760349" lon="-3.576514">
        <ele>37.038</ele>
        <time>2022-12-10T12:16:01Z</time>
      </trkpt>
      <trkpt lat="36.760318" lon="-3.576390">
        <ele>36.059</ele>
        <time>2022-12-10T12:16:07Z</time>
      </trkpt>
      <trkpt lat="36.760308" lon="-3.576326">
        <ele>35.828</ele>
        <time>2022-12-10T12:16:10Z</time>
      </trkpt>
      <trkpt lat="36.760243" lon="-3.576115">
        <ele>35.117</ele>
        <time>2022-12-10T12:16:22Z</time>
      </trkpt>
      <trkpt lat="36.760215" lon="-3.575891">
        <ele>35.099</ele>
        <time>2022-12-10T12:16:34Z</time>
      </trkpt>
      <trkpt lat="36.760209" lon="-3.575670">
        <ele>34.615</ele>
        <time>2022-12-10T12:16:46Z</time>
      </trkpt>
      <trkpt lat="36.760139" lon="-3.575448">
        <ele>34.366</ele>
        <time>2022-12-10T12:16:58Z</time>
      </trkpt>
      <trkpt lat="36.760061" lon="-3.575225">
        <ele>33.859</ele>
        <time>2022-12-10T12:17:11Z</time>
      </trkpt>
      <trkpt lat="36.760052" lon="-3.575210">
        <ele>33.899</ele>
        <time>2022-12-10T12:17:12Z</time>
      </trkpt>
      <trkpt lat="36.759931" lon="-3.575033">
        <ele>33.668</ele>
        <time>2022-12-10T12:17:22Z</time>
      </trkpt>
      <trkpt lat="36.759882" lon="-3.574814">
        <ele>34.242</ele>
        <time>2022-12-10T12:17:35Z</time>
      </trkpt>
      <trkpt lat="36.759881" lon="-3.574799">
        <ele>34.326</ele>
        <time>2022-12-10T12:17:36Z</time>
      </trkpt>
      <trkpt lat="36.759803" lon="-3.574807">
        <ele>34.609</ele>
        <time>2022-12-10T12:17:42Z</time>
      </trkpt>
      <trkpt lat="36.759747" lon="-3.574859">
        <ele>34.927</ele>
        <time>2022-12-10T12:17:47Z</time>
      </trkpt>
      <trkpt lat="36.759563" lon="-3.574899">
        <ele>35.028</ele>
        <time>2022-12-10T12:18:00Z</time>
      </trkpt>
      <trkpt lat="36.759378" lon="-3.574843">
        <ele>34.527</ele>
        <time>2022-12-10T12:18:11Z</time>
      </trkpt>
      <trkpt lat="36.759201" lon="-3.574762">
        <ele>33.236</ele>
        <time>2022-12-10T12:18:23Z</time>
      </trkpt>
      <trkpt lat="36.759128" lon="-3.574669">
        <ele>32.638</ele>
        <time>2022-12-10T12:18:29Z</time>
      </trkpt>
      <trkpt lat="36.759058" lon="-3.574448">
        <ele>31.814</ele>
        <time>2022-12-10T12:18:41Z</time>
      </trkpt>
      <trkpt lat="36.759054" lon="-3.574432">
        <ele>31.835</ele>
        <time>2022-12-10T12:18:42Z</time>
      </trkpt>
      <trkpt lat="36.758992" lon="-3.574213">
        <ele>31.168</ele>
        <time>2022-12-10T12:18:54Z</time>
      </trkpt>
      <trkpt lat="36.758990" lon="-3.574197">
        <ele>31.198</ele>
        <time>2022-12-10T12:18:55Z</time>
      </trkpt>
      <trkpt lat="36.758974" lon="-3.574045">
        <ele>31.418</ele>
        <time>2022-12-10T12:19:03Z</time>
      </trkpt>
      <trkpt lat="36.758963" lon="-3.573819">
        <ele>31.798</ele>
        <time>2022-12-10T12:19:15Z</time>
      </trkpt>
      <trkpt lat="36.758949" lon="-3.573730">
        <ele>31.517</ele>
        <time>2022-12-10T12:19:20Z</time>
      </trkpt>
      <trkpt lat="36.758886" lon="-3.573540">
        <ele>30.709</ele>
        <time>2022-12-10T12:19:31Z</time>
      </trkpt>
      <trkpt lat="36.758785" lon="-3.573333">
        <ele>29.622</ele>
        <time>2022-12-10T12:19:43Z</time>
      </trkpt>
      <trkpt lat="36.758780" lon="-3.573314">
        <ele>29.673</ele>
        <time>2022-12-10T12:19:44Z</time>
      </trkpt>
      <trkpt lat="36.758730" lon="-3.573127">
        <ele>29.232</ele>
        <time>2022-12-10T12:19:54Z</time>
      </trkpt>
      <trkpt lat="36.758704" lon="-3.572942">
        <ele>28.651</ele>
        <time>2022-12-10T12:20:04Z</time>
      </trkpt>
      <trkpt lat="36.758674" lon="-3.572720">
        <ele>27.753</ele>
        <time>2022-12-10T12:20:15Z</time>
      </trkpt>
      <trkpt lat="36.758583" lon="-3.572585">
        <ele>27.999</ele>
        <time>2022-12-10T12:20:24Z</time>
      </trkpt>
      <trkpt lat="36.758406" lon="-3.572486">
        <ele>27.240</ele>
        <time>2022-12-10T12:20:37Z</time>
      </trkpt>
      <trkpt lat="36.758248" lon="-3.572379">
        <ele>25.613</ele>
        <time>2022-12-10T12:20:48Z</time>
      </trkpt>
      <trkpt lat="36.758116" lon="-3.572225">
        <ele>24.223</ele>
        <time>2022-12-10T12:21:00Z</time>
      </trkpt>
      <trkpt lat="36.758106" lon="-3.572213">
        <ele>24.284</ele>
        <time>2022-12-10T12:21:01Z</time>
      </trkpt>
      <trkpt lat="36.758015" lon="-3.572100">
        <ele>23.507</ele>
        <time>2022-12-10T12:21:14Z</time>
      </trkpt>
      <trkpt lat="36.757998" lon="-3.572111">
        <ele>23.517</ele>
        <time>2022-12-10T12:21:58Z</time>
      </trkpt>
      <trkpt lat="36.757959" lon="-3.572179">
        <ele>23.609</ele>
        <time>2022-12-10T12:22:28Z</time>
      </trkpt>
      <trkpt lat="36.757949" lon="-3.572195">
        <ele>23.699</ele>
        <time>2022-12-10T12:22:29Z</time>
      </trkpt>
      <trkpt lat="36.757808" lon="-3.572354">
        <ele>23.660</ele>
        <time>2022-12-10T12:22:43Z</time>
      </trkpt>
      <trkpt lat="36.757689" lon="-3.572526">
        <ele>24.069</ele>
        <time>2022-12-10T12:22:56Z</time>
      </trkpt>
      <trkpt lat="36.757602" lon="-3.572733">
        <ele>24.018</ele>
        <time>2022-12-10T12:23:08Z</time>
      </trkpt>
      <trkpt lat="36.757482" lon="-3.572908">
        <ele>24.090</ele>
        <time>2022-12-10T12:23:20Z</time>
      </trkpt>
      <trkpt lat="36.757366" lon="-3.573088">
        <ele>23.696</ele>
        <time>2022-12-10T12:23:32Z</time>
      </trkpt>
      <trkpt lat="36.757190" lon="-3.573142">
        <ele>23.247</ele>
        <time>2022-12-10T12:23:46Z</time>
      </trkpt>
      <trkpt lat="36.757057" lon="-3.573081">
        <ele>22.520</ele>
        <time>2022-12-10T12:23:58Z</time>
      </trkpt>
      <trkpt lat="36.756887" lon="-3.573038">
        <ele>22.250</ele>
        <time>2022-12-10T12:24:12Z</time>
      </trkpt>
      <trkpt lat="36.756705" lon="-3.573121">
        <ele>22.963</ele>
        <time>2022-12-10T12:24:24Z</time>
      </trkpt>
      <trkpt lat="36.756550" lon="-3.573250">
        <ele>23.444</ele>
        <time>2022-12-10T12:24:37Z</time>
      </trkpt>
      <trkpt lat="36.756381" lon="-3.573346">
        <ele>24.018</ele>
        <time>2022-12-10T12:24:51Z</time>
      </trkpt>
      <trkpt lat="36.756212" lon="-3.573427">
        <ele>24.609</ele>
        <time>2022-12-10T12:25:05Z</time>
      </trkpt>
      <trkpt lat="36.756028" lon="-3.573509">
        <ele>25.377</ele>
        <time>2022-12-10T12:25:16Z</time>
      </trkpt>
      <trkpt lat="36.755852" lon="-3.573570">
        <ele>25.938</ele>
        <time>2022-12-10T12:25:27Z</time>
      </trkpt>
      <trkpt lat="36.755673" lon="-3.573568">
        <ele>25.957</ele>
        <time>2022-12-10T12:25:40Z</time>
      </trkpt>
      <trkpt lat="36.755484" lon="-3.573512">
        <ele>25.636</ele>
        <time>2022-12-10T12:25:53Z</time>
      </trkpt>
      <trkpt lat="36.755305" lon="-3.573444">
        <ele>25.458</ele>
        <time>2022-12-10T12:26:05Z</time>
      </trkpt>
      <trkpt lat="36.755135" lon="-3.573370">
        <ele>24.674</ele>
        <time>2022-12-10T12:26:16Z</time>
      </trkpt>
      <trkpt lat="36.754960" lon="-3.573303">
        <ele>23.955</ele>
        <time>2022-12-10T12:26:29Z</time>
      </trkpt>
      <trkpt lat="36.754914" lon="-3.573303">
        <ele>23.938</ele>
        <time>2022-12-10T12:26:33Z</time>
      </trkpt>
      <trkpt lat="36.754788" lon="-3.573479">
        <ele>24.528</ele>
        <time>2022-12-10T12:26:46Z</time>
      </trkpt>
      <trkpt lat="36.754769" lon="-3.573510">
        <ele>24.639</ele>
        <time>2022-12-10T12:26:48Z</time>
      </trkpt>
      <trkpt lat="36.754700" lon="-3.573549">
        <ele>24.901</ele>
        <time>2022-12-10T12:26:54Z</time>
      </trkpt>
      <trkpt lat="36.754513" lon="-3.573561">
        <ele>25.621</ele>
        <time>2022-12-10T12:27:06Z</time>
      </trkpt>
      <trkpt lat="36.754360" lon="-3.573700">
        <ele>25.809</ele>
        <time>2022-12-10T12:27:17Z</time>
      </trkpt>
      <trkpt lat="36.754195" lon="-3.573815">
        <ele>25.854</ele>
        <time>2022-12-10T12:27:30Z</time>
      </trkpt>
      <trkpt lat="36.754051" lon="-3.573980">
        <ele>25.995</ele>
        <time>2022-12-10T12:27:42Z</time>
      </trkpt>
      <trkpt lat="36.753956" lon="-3.574177">
        <ele>26.394</ele>
        <time>2022-12-10T12:27:53Z</time>
      </trkpt>
      <trkpt lat="36.753948" lon="-3.574195">
        <ele>26.373</ele>
        <time>2022-12-10T12:27:54Z</time>
      </trkpt>
      <trkpt lat="36.753862" lon="-3.574402">
        <ele>26.835</ele>
        <time>2022-12-10T12:28:05Z</time>
      </trkpt>
      <trkpt lat="36.753752" lon="-3.574595">
        <ele>26.511</ele>
        <time>2022-12-10T12:28:17Z</time>
      </trkpt>
      <trkpt lat="36.753634" lon="-3.574777">
        <ele>25.942</ele>
        <time>2022-12-10T12:28:29Z</time>
      </trkpt>
      <trkpt lat="36.753600" lon="-3.574816">
        <ele>25.685</ele>
        <time>2022-12-10T12:28:32Z</time>
      </trkpt>
      <trkpt lat="36.753463" lon="-3.574968">
        <ele>25.125</ele>
        <time>2022-12-10T12:28:44Z</time>
      </trkpt>
      <trkpt lat="36.753325" lon="-3.575133">
        <ele>25.519</ele>
        <time>2022-12-10T12:28:56Z</time>
      </trkpt>
      <trkpt lat="36.753157" lon="-3.575235">
        <ele>26.509</ele>
        <time>2022-12-10T12:29:09Z</time>
      </trkpt>
      <trkpt lat="36.752985" lon="-3.575327">
        <ele>27.419</ele>
        <time>2022-12-10T12:29:22Z</time>
      </trkpt>
      <trkpt lat="36.752972" lon="-3.575338">
        <ele>27.509</ele>
        <time>2022-12-10T12:29:23Z</time>
      </trkpt>
      <trkpt lat="36.752812" lon="-3.575458">
        <ele>28.542</ele>
        <time>2022-12-10T12:29:35Z</time>
      </trkpt>
      <trkpt lat="36.752785" lon="-3.575473">
        <ele>28.743</ele>
        <time>2022-12-10T12:29:37Z</time>
      </trkpt>
      <trkpt lat="36.752706" lon="-3.575535">
        <ele>28.922</ele>
        <time>2022-12-10T12:29:44Z</time>
      </trkpt>
      <trkpt lat="36.752701" lon="-3.575559">
        <ele>29.021</ele>
        <time>2022-12-10T12:29:45Z</time>
      </trkpt>
      <trkpt lat="36.752709" lon="-3.575595">
        <ele>29.123</ele>
        <time>2022-12-10T12:29:47Z</time>
      </trkpt>
      <trkpt lat="36.752751" lon="-3.575655">
        <ele>29.499</ele>
        <time>2022-12-10T12:29:51Z</time>
      </trkpt>
      <trkpt lat="36.752770" lon="-3.575683">
        <ele>29.580</ele>
        <time>2022-12-10T12:29:53Z</time>
      </trkpt>
      <trkpt lat="36.752900" lon="-3.575842">
        <ele>29.663</ele>
        <time>2022-12-10T12:30:05Z</time>
      </trkpt>
      <trkpt lat="36.753010" lon="-3.575979">
        <ele>29.753</ele>
        <time>2022-12-10T12:30:15Z</time>
      </trkpt>
      <trkpt lat="36.753165" lon="-3.576121">
        <ele>30.187</ele>
        <time>2022-12-10T12:30:28Z</time>
      </trkpt>
      <trkpt lat="36.753307" lon="-3.576275">
        <ele>30.642</ele>
        <time>2022-12-10T12:30:42Z</time>
      </trkpt>
      <trkpt lat="36.753372" lon="-3.576339">
        <ele>30.526</ele>
        <time>2022-12-10T12:30:48Z</time>
      </trkpt>
      <trkpt lat="36.753512" lon="-3.576487">
        <ele>30.309</ele>
        <time>2022-12-10T12:31:01Z</time>
      </trkpt>
      <trkpt lat="36.753676" lon="-3.576610">
        <ele>30.499</ele>
        <time>2022-12-10T12:31:13Z</time>
      </trkpt>
      <trkpt lat="36.753696" lon="-3.576631">
        <ele>30.590</ele>
        <time>2022-12-10T12:31:15Z</time>
      </trkpt>
      <trkpt lat="36.753838" lon="-3.576781">
        <ele>30.689</ele>
        <time>2022-12-10T12:31:29Z</time>
      </trkpt>
      <trkpt lat="36.753911" lon="-3.576856">
        <ele>30.778</ele>
        <time>2022-12-10T12:31:36Z</time>
      </trkpt>
      <trkpt lat="36.753992" lon="-3.576941">
        <ele>31.050</ele>
        <time>2022-12-10T12:31:43Z</time>
      </trkpt>
      <trkpt lat="36.754092" lon="-3.577039">
        <ele>31.486</ele>
        <time>2022-12-10T12:31:52Z</time>
      </trkpt>
      <trkpt lat="36.754127" lon="-3.577072">
        <ele>31.557</ele>
        <time>2022-12-10T12:31:55Z</time>
      </trkpt>
      <trkpt lat="36.754283" lon="-3.577213">
        <ele>32.050</ele>
        <time>2022-12-10T12:32:08Z</time>
      </trkpt>
      <trkpt lat="36.754333" lon="-3.577264">
        <ele>32.110</ele>
        <time>2022-12-10T12:32:12Z</time>
      </trkpt>
      <trkpt lat="36.754411" lon="-3.577350">
        <ele>32.159</ele>
        <time>2022-12-10T12:32:19Z</time>
      </trkpt>
      <trkpt lat="36.754497" lon="-3.577437">
        <ele>32.003</ele>
        <time>2022-12-10T12:32:27Z</time>
      </trkpt>
      <trkpt lat="36.754593" lon="-3.577518">
        <ele>32.023</ele>
        <time>2022-12-10T12:32:35Z</time>
      </trkpt>
      <trkpt lat="36.754701" lon="-3.577610">
        <ele>32.009</ele>
        <time>2022-12-10T12:32:45Z</time>
      </trkpt>
      <trkpt lat="36.754723" lon="-3.577629">
        <ele>32.046</ele>
        <time>2022-12-10T12:32:47Z</time>
      </trkpt>
      <trkpt lat="36.754852" lon="-3.577790">
        <ele>32.527</ele>
        <time>2022-12-10T12:32:59Z</time>
      </trkpt>
      <trkpt lat="36.755001" lon="-3.577918">
        <ele>33.576</ele>
        <time>2022-12-10T12:33:13Z</time>
      </trkpt>
      <trkpt lat="36.755022" lon="-3.577956">
        <ele>33.675</ele>
        <time>2022-12-10T12:33:18Z</time>
      </trkpt>
      <trkpt lat="36.754884" lon="-3.578120">
        <ele>33.737</ele>
        <time>2022-12-10T12:33:35Z</time>
      </trkpt>
      <trkpt lat="36.754885" lon="-3.578160">
        <ele>33.763</ele>
        <time>2022-12-10T12:33:37Z</time>
      </trkpt>
      <trkpt lat="36.754908" lon="-3.578209">
        <ele>33.924</ele>
        <time>2022-12-10T12:33:39Z</time>
      </trkpt>
      <trkpt lat="36.754947" lon="-3.578271">
        <ele>34.067</ele>
        <time>2022-12-10T12:33:42Z</time>
      </trkpt>
      <trkpt lat="36.755094" lon="-3.578425">
        <ele>34.337</ele>
        <time>2022-12-10T12:33:54Z</time>
      </trkpt>
      <trkpt lat="36.755185" lon="-3.578489">
        <ele>34.618</ele>
        <time>2022-12-10T12:34:01Z</time>
      </trkpt>
      <trkpt lat="36.755327" lon="-3.578631">
        <ele>34.798</ele>
        <time>2022-12-10T12:34:14Z</time>
      </trkpt>
      <trkpt lat="36.755473" lon="-3.578762">
        <ele>34.117</ele>
        <time>2022-12-10T12:34:27Z</time>
      </trkpt>
      <trkpt lat="36.755552" lon="-3.578832">
        <ele>33.809</ele>
        <time>2022-12-10T12:34:33Z</time>
      </trkpt>
      <trkpt lat="36.755694" lon="-3.578980">
        <ele>33.382</ele>
        <time>2022-12-10T12:34:47Z</time>
      </trkpt>
      <trkpt lat="36.755720" lon="-3.578995">
        <ele>33.243</ele>
        <time>2022-12-10T12:34:49Z</time>
      </trkpt>
      <trkpt lat="36.755861" lon="-3.579148">
        <ele>32.922</ele>
        <time>2022-12-10T12:35:02Z</time>
      </trkpt>
      <trkpt lat="36.755996" lon="-3.579300">
        <ele>33.561</ele>
        <time>2022-12-10T12:35:15Z</time>
      </trkpt>
      <trkpt lat="36.756148" lon="-3.579427">
        <ele>34.173</ele>
        <time>2022-12-10T12:35:27Z</time>
      </trkpt>
      <trkpt lat="36.756287" lon="-3.579513">
        <ele>34.819</ele>
        <time>2022-12-10T12:35:38Z</time>
      </trkpt>
      <trkpt lat="36.756433" lon="-3.579671">
        <ele>34.960</ele>
        <time>2022-12-10T12:35:52Z</time>
      </trkpt>
      <trkpt lat="36.756463" lon="-3.579714">
        <ele>34.733</ele>
        <time>2022-12-10T12:35:55Z</time>
      </trkpt>
      <trkpt lat="36.756585" lon="-3.579881">
        <ele>34.793</ele>
        <time>2022-12-10T12:36:08Z</time>
      </trkpt>
      <trkpt lat="36.756587" lon="-3.580098">
        <ele>35.193</ele>
        <time>2022-12-10T12:36:22Z</time>
      </trkpt>
      <trkpt lat="36.756515" lon="-3.580244">
        <ele>35.565</ele>
        <time>2022-12-10T12:36:33Z</time>
      </trkpt>
      <trkpt lat="36.756414" lon="-3.580432">
        <ele>36.021</ele>
        <time>2022-12-10T12:36:47Z</time>
      </trkpt>
      <trkpt lat="36.756322" lon="-3.580636">
        <ele>36.509</ele>
        <time>2022-12-10T12:37:00Z</time>
      </trkpt>
      <trkpt lat="36.756260" lon="-3.580853">
        <ele>37.570</ele>
        <time>2022-12-10T12:37:13Z</time>
      </trkpt>
      <trkpt lat="36.756226" lon="-3.581079">
        <ele>37.661</ele>
        <time>2022-12-10T12:37:24Z</time>
      </trkpt>
      <trkpt lat="36.756194" lon="-3.581315">
        <ele>37.480</ele>
        <time>2022-12-10T12:37:36Z</time>
      </trkpt>
      <trkpt lat="36.756173" lon="-3.581546">
        <ele>37.259</ele>
        <time>2022-12-10T12:37:49Z</time>
      </trkpt>
      <trkpt lat="36.756132" lon="-3.581774">
        <ele>37.111</ele>
        <time>2022-12-10T12:38:02Z</time>
      </trkpt>
      <trkpt lat="36.756095" lon="-3.581995">
        <ele>37.227</ele>
        <time>2022-12-10T12:38:14Z</time>
      </trkpt>
      <trkpt lat="36.756054" lon="-3.582220">
        <ele>38.098</ele>
        <time>2022-12-10T12:38:26Z</time>
      </trkpt>
      <trkpt lat="36.756045" lon="-3.582249">
        <ele>38.071</ele>
        <time>2022-12-10T12:38:28Z</time>
      </trkpt>
      <trkpt lat="36.756031" lon="-3.582271">
        <ele>38.031</ele>
        <time>2022-12-10T12:38:30Z</time>
      </trkpt>
      <trkpt lat="36.756003" lon="-3.582500">
        <ele>38.035</ele>
        <time>2022-12-10T12:38:43Z</time>
      </trkpt>
      <trkpt lat="36.756012" lon="-3.582604">
        <ele>38.086</ele>
        <time>2022-12-10T12:38:49Z</time>
      </trkpt>
      <trkpt lat="36.755953" lon="-3.582814">
        <ele>38.014</ele>
        <time>2022-12-10T12:39:02Z</time>
      </trkpt>
      <trkpt lat="36.755915" lon="-3.582867">
        <ele>37.909</ele>
        <time>2022-12-10T12:39:06Z</time>
      </trkpt>
      <trkpt lat="36.755845" lon="-3.582936">
        <ele>37.534</ele>
        <time>2022-12-10T12:39:12Z</time>
      </trkpt>
      <trkpt lat="36.755719" lon="-3.583098">
        <ele>37.275</ele>
        <time>2022-12-10T12:39:25Z</time>
      </trkpt>
      <trkpt lat="36.755704" lon="-3.583327">
        <ele>38.014</ele>
        <time>2022-12-10T12:39:37Z</time>
      </trkpt>
      <trkpt lat="36.755741" lon="-3.583559">
        <ele>38.883</ele>
        <time>2022-12-10T12:39:50Z</time>
      </trkpt>
      <trkpt lat="36.755748" lon="-3.583640">
        <ele>39.075</ele>
        <time>2022-12-10T12:39:54Z</time>
      </trkpt>
      <trkpt lat="36.755745" lon="-3.583876">
        <ele>39.051</ele>
        <time>2022-12-10T12:40:06Z</time>
      </trkpt>
      <trkpt lat="36.755858" lon="-3.584043">
        <ele>38.672</ele>
        <time>2022-12-10T12:40:17Z</time>
      </trkpt>
      <trkpt lat="36.756024" lon="-3.584160">
        <ele>39.455</ele>
        <time>2022-12-10T12:40:29Z</time>
      </trkpt>
      <trkpt lat="36.756051" lon="-3.584385">
        <ele>39.755</ele>
        <time>2022-12-10T12:40:42Z</time>
      </trkpt>
      <trkpt lat="36.755992" lon="-3.584458">
        <ele>39.655</ele>
        <time>2022-12-10T12:40:48Z</time>
      </trkpt>
      <trkpt lat="36.755877" lon="-3.584536">
        <ele>39.807</ele>
        <time>2022-12-10T12:41:00Z</time>
      </trkpt>
      <trkpt lat="36.755737" lon="-3.584684">
        <ele>40.117</ele>
        <time>2022-12-10T12:41:12Z</time>
      </trkpt>
      <trkpt lat="36.755716" lon="-3.584706">
        <ele>40.109</ele>
        <time>2022-12-10T12:41:14Z</time>
      </trkpt>
      <trkpt lat="36.755665" lon="-3.584767">
        <ele>39.916</ele>
        <time>2022-12-10T12:41:19Z</time>
      </trkpt>
      <trkpt lat="36.755604" lon="-3.584831">
        <ele>39.757</ele>
        <time>2022-12-10T12:41:25Z</time>
      </trkpt>
      <trkpt lat="36.755450" lon="-3.584969">
        <ele>39.686</ele>
        <time>2022-12-10T12:41:38Z</time>
      </trkpt>
      <trkpt lat="36.755425" lon="-3.584991">
        <ele>39.525</ele>
        <time>2022-12-10T12:41:40Z</time>
      </trkpt>
      <trkpt lat="36.755357" lon="-3.585054">
        <ele>39.427</ele>
        <time>2022-12-10T12:41:46Z</time>
      </trkpt>
      <trkpt lat="36.755253" lon="-3.585127">
        <ele>38.733</ele>
        <time>2022-12-10T12:41:54Z</time>
      </trkpt>
      <trkpt lat="36.755098" lon="-3.585263">
        <ele>37.194</ele>
        <time>2022-12-10T12:42:06Z</time>
      </trkpt>
      <trkpt lat="36.754960" lon="-3.585352">
        <ele>36.297</ele>
        <time>2022-12-10T12:42:16Z</time>
      </trkpt>
      <trkpt lat="36.754780" lon="-3.585301">
        <ele>35.477</ele>
        <time>2022-12-10T12:42:29Z</time>
      </trkpt>
      <trkpt lat="36.754706" lon="-3.585251">
        <ele>35.031</ele>
        <time>2022-12-10T12:42:34Z</time>
      </trkpt>
      <trkpt lat="36.754534" lon="-3.585166">
        <ele>35.161</ele>
        <time>2022-12-10T12:42:46Z</time>
      </trkpt>
      <trkpt lat="36.754355" lon="-3.585131">
        <ele>34.307</ele>
        <time>2022-12-10T12:42:58Z</time>
      </trkpt>
      <trkpt lat="36.754283" lon="-3.585157">
        <ele>34.009</ele>
        <time>2022-12-10T12:43:03Z</time>
      </trkpt>
      <trkpt lat="36.754126" lon="-3.585257">
        <ele>33.484</ele>
        <time>2022-12-10T12:43:15Z</time>
      </trkpt>
      <trkpt lat="36.754133" lon="-3.585482">
        <ele>33.625</ele>
        <time>2022-12-10T12:43:26Z</time>
      </trkpt>
      <trkpt lat="36.754230" lon="-3.585679">
        <ele>34.134</ele>
        <time>2022-12-10T12:43:37Z</time>
      </trkpt>
      <trkpt lat="36.754330" lon="-3.585874">
        <ele>34.843</ele>
        <time>2022-12-10T12:43:49Z</time>
      </trkpt>
      <trkpt lat="36.754420" lon="-3.586081">
        <ele>35.865</ele>
        <time>2022-12-10T12:44:02Z</time>
      </trkpt>
      <trkpt lat="36.754521" lon="-3.586283">
        <ele>36.411</ele>
        <time>2022-12-10T12:44:15Z</time>
      </trkpt>
      <trkpt lat="36.754651" lon="-3.586440">
        <ele>36.752</ele>
        <time>2022-12-10T12:44:26Z</time>
      </trkpt>
      <trkpt lat="36.754731" lon="-3.586632">
        <ele>37.115</ele>
        <time>2022-12-10T12:44:39Z</time>
      </trkpt>
      <trkpt lat="36.754593" lon="-3.586731">
        <ele>36.575</ele>
        <time>2022-12-10T12:44:50Z</time>
      </trkpt>
      <trkpt lat="36.754446" lon="-3.586602">
        <ele>36.088</ele>
        <time>2022-12-10T12:45:01Z</time>
      </trkpt>
      <trkpt lat="36.754291" lon="-3.586485">
        <ele>35.424</ele>
        <time>2022-12-10T12:45:11Z</time>
      </trkpt>
      <trkpt lat="36.754132" lon="-3.586356">
        <ele>34.726</ele>
        <time>2022-12-10T12:45:23Z</time>
      </trkpt>
      <trkpt lat="36.753960" lon="-3.586285">
        <ele>33.609</ele>
        <time>2022-12-10T12:45:33Z</time>
      </trkpt>
      <trkpt lat="36.753847" lon="-3.586457">
        <ele>34.259</ele>
        <time>2022-12-10T12:45:45Z</time>
      </trkpt>
      <trkpt lat="36.753890" lon="-3.586683">
        <ele>35.150</ele>
        <time>2022-12-10T12:45:57Z</time>
      </trkpt>
      <trkpt lat="36.754002" lon="-3.586875">
        <ele>35.829</ele>
        <time>2022-12-10T12:46:09Z</time>
      </trkpt>
      <trkpt lat="36.754110" lon="-3.587069">
        <ele>36.858</ele>
        <time>2022-12-10T12:46:21Z</time>
      </trkpt>
      <trkpt lat="36.753999" lon="-3.587214">
        <ele>37.410</ele>
        <time>2022-12-10T12:46:33Z</time>
      </trkpt>
      <trkpt lat="36.753835" lon="-3.587114">
        <ele>36.616</ele>
        <time>2022-12-10T12:46:43Z</time>
      </trkpt>
      <trkpt lat="36.753674" lon="-3.586995">
        <ele>36.257</ele>
        <time>2022-12-10T12:46:56Z</time>
      </trkpt>
      <trkpt lat="36.753520" lon="-3.586875">
        <ele>36.320</ele>
        <time>2022-12-10T12:47:08Z</time>
      </trkpt>
      <trkpt lat="36.753478" lon="-3.586844">
        <ele>36.410</ele>
        <time>2022-12-10T12:47:11Z</time>
      </trkpt>
      <trkpt lat="36.753329" lon="-3.586697">
        <ele>36.265</ele>
        <time>2022-12-10T12:47:24Z</time>
      </trkpt>
      <trkpt lat="36.753193" lon="-3.586530">
        <ele>35.868</ele>
        <time>2022-12-10T12:47:37Z</time>
      </trkpt>
      <trkpt lat="36.753042" lon="-3.586390">
        <ele>36.014</ele>
        <time>2022-12-10T12:47:49Z</time>
      </trkpt>
      <trkpt lat="36.752890" lon="-3.586242">
        <ele>33.809</ele>
        <time>2022-12-10T12:48:02Z</time>
      </trkpt>
      <trkpt lat="36.752736" lon="-3.586125">
        <ele>32.187</ele>
        <time>2022-12-10T12:48:14Z</time>
      </trkpt>
      <trkpt lat="36.752613" lon="-3.586080">
        <ele>31.818</ele>
        <time>2022-12-10T12:48:22Z</time>
      </trkpt>
      <trkpt lat="36.752568" lon="-3.586293">
        <ele>33.587</ele>
        <time>2022-12-10T12:48:35Z</time>
      </trkpt>
      <trkpt lat="36.752668" lon="-3.586485">
        <ele>35.066</ele>
        <time>2022-12-10T12:48:46Z</time>
      </trkpt>
      <trkpt lat="36.752740" lon="-3.586638">
        <ele>35.818</ele>
        <time>2022-12-10T12:48:55Z</time>
      </trkpt>
      <trkpt lat="36.752813" lon="-3.586848">
        <ele>36.294</ele>
        <time>2022-12-10T12:49:06Z</time>
      </trkpt>
      <trkpt lat="36.752901" lon="-3.587049">
        <ele>36.515</ele>
        <time>2022-12-10T12:49:18Z</time>
      </trkpt>
      <trkpt lat="36.752970" lon="-3.587266">
        <ele>36.288</ele>
        <time>2022-12-10T12:49:29Z</time>
      </trkpt>
      <trkpt lat="36.753020" lon="-3.587494">
        <ele>35.858</ele>
        <time>2022-12-10T12:49:43Z</time>
      </trkpt>
      <trkpt lat="36.753103" lon="-3.587694">
        <ele>36.225</ele>
        <time>2022-12-10T12:49:54Z</time>
      </trkpt>
      <trkpt lat="36.753199" lon="-3.587897">
        <ele>36.326</ele>
        <time>2022-12-10T12:50:06Z</time>
      </trkpt>
      <trkpt lat="36.753286" lon="-3.588099">
        <ele>36.708</ele>
        <time>2022-12-10T12:50:18Z</time>
      </trkpt>
      <trkpt lat="36.753305" lon="-3.588326">
        <ele>36.809</ele>
        <time>2022-12-10T12:50:31Z</time>
      </trkpt>
      <trkpt lat="36.753294" lon="-3.588364">
        <ele>36.733</ele>
        <time>2022-12-10T12:50:33Z</time>
      </trkpt>
      <trkpt lat="36.753186" lon="-3.588547">
        <ele>35.964</ele>
        <time>2022-12-10T12:50:44Z</time>
      </trkpt>
      <trkpt lat="36.753084" lon="-3.588714">
        <ele>35.983</ele>
        <time>2022-12-10T12:50:55Z</time>
      </trkpt>
      <trkpt lat="36.752913" lon="-3.588753">
        <ele>36.022</ele>
        <time>2022-12-10T12:51:08Z</time>
      </trkpt>
      <trkpt lat="36.752765" lon="-3.588615">
        <ele>35.124</ele>
        <time>2022-12-10T12:51:20Z</time>
      </trkpt>
      <trkpt lat="36.752614" lon="-3.588490">
        <ele>35.560</ele>
        <time>2022-12-10T12:51:32Z</time>
      </trkpt>
      <trkpt lat="36.752486" lon="-3.588324">
        <ele>35.141</ele>
        <time>2022-12-10T12:51:44Z</time>
      </trkpt>
      <trkpt lat="36.752344" lon="-3.588177">
        <ele>35.584</ele>
        <time>2022-12-10T12:51:55Z</time>
      </trkpt>
      <trkpt lat="36.752176" lon="-3.588068">
        <ele>35.154</ele>
        <time>2022-12-10T12:52:06Z</time>
      </trkpt>
      <trkpt lat="36.752028" lon="-3.587936">
        <ele>34.159</ele>
        <time>2022-12-10T12:52:19Z</time>
      </trkpt>
      <trkpt lat="36.751902" lon="-3.587764">
        <ele>33.003</ele>
        <time>2022-12-10T12:52:32Z</time>
      </trkpt>
      <trkpt lat="36.751750" lon="-3.587626">
        <ele>32.823</ele>
        <time>2022-12-10T12:52:45Z</time>
      </trkpt>
      <trkpt lat="36.751584" lon="-3.587501">
        <ele>32.709</ele>
        <time>2022-12-10T12:52:56Z</time>
      </trkpt>
      <trkpt lat="36.751409" lon="-3.587520">
        <ele>32.136</ele>
        <time>2022-12-10T12:53:08Z</time>
      </trkpt>
      <trkpt lat="36.751330" lon="-3.587727">
        <ele>32.417</ele>
        <time>2022-12-10T12:53:19Z</time>
      </trkpt>
      <trkpt lat="36.751331" lon="-3.587782">
        <ele>32.666</ele>
        <time>2022-12-10T12:53:23Z</time>
      </trkpt>
      <trkpt lat="36.751450" lon="-3.587956">
        <ele>32.625</ele>
        <time>2022-12-10T12:53:33Z</time>
      </trkpt>
      <trkpt lat="36.751594" lon="-3.588127">
        <ele>33.527</ele>
        <time>2022-12-10T12:53:45Z</time>
      </trkpt>
      <trkpt lat="36.751702" lon="-3.588317">
        <ele>34.533</ele>
        <time>2022-12-10T12:53:58Z</time>
      </trkpt>
      <trkpt lat="36.751760" lon="-3.588541">
        <ele>35.364</ele>
        <time>2022-12-10T12:54:10Z</time>
      </trkpt>
      <trkpt lat="36.751702" lon="-3.588763">
        <ele>34.047</ele>
        <time>2022-12-10T12:54:22Z</time>
      </trkpt>
      <trkpt lat="36.751626" lon="-3.588978">
        <ele>32.397</ele>
        <time>2022-12-10T12:54:36Z</time>
      </trkpt>
      <trkpt lat="36.751699" lon="-3.589194">
        <ele>31.313</ele>
        <time>2022-12-10T12:54:48Z</time>
      </trkpt>
      <trkpt lat="36.751867" lon="-3.589278">
        <ele>32.943</ele>
        <time>2022-12-10T12:55:01Z</time>
      </trkpt>
      <trkpt lat="36.751880" lon="-3.589284">
        <ele>33.007</ele>
        <time>2022-12-10T12:55:02Z</time>
      </trkpt>
      <trkpt lat="36.752038" lon="-3.589394">
        <ele>33.809</ele>
        <time>2022-12-10T12:55:14Z</time>
      </trkpt>
      <trkpt lat="36.752220" lon="-3.589476">
        <ele>35.992</ele>
        <time>2022-12-10T12:55:27Z</time>
      </trkpt>
      <trkpt lat="36.752388" lon="-3.589581">
        <ele>36.423</ele>
        <time>2022-12-10T12:55:39Z</time>
      </trkpt>
      <trkpt lat="36.752452" lon="-3.589632">
        <ele>36.432</ele>
        <time>2022-12-10T12:55:44Z</time>
      </trkpt>
      <trkpt lat="36.752487" lon="-3.589768">
        <ele>36.151</ele>
        <time>2022-12-10T12:55:51Z</time>
      </trkpt>
      <trkpt lat="36.752359" lon="-3.589924">
        <ele>36.273</ele>
        <time>2022-12-10T12:56:02Z</time>
      </trkpt>
      <trkpt lat="36.752309" lon="-3.589935">
        <ele>36.139</ele>
        <time>2022-12-10T12:56:05Z</time>
      </trkpt>
      <trkpt lat="36.752129" lon="-3.589887">
        <ele>34.850</ele>
        <time>2022-12-10T12:56:17Z</time>
      </trkpt>
      <trkpt lat="36.751938" lon="-3.589892">
        <ele>33.263</ele>
        <time>2022-12-10T12:56:29Z</time>
      </trkpt>
      <trkpt lat="36.751758" lon="-3.589959">
        <ele>32.483</ele>
        <time>2022-12-10T12:56:41Z</time>
      </trkpt>
      <trkpt lat="36.751663" lon="-3.590154">
        <ele>33.689</ele>
        <time>2022-12-10T12:56:52Z</time>
      </trkpt>
      <trkpt lat="36.751674" lon="-3.590383">
        <ele>35.906</ele>
        <time>2022-12-10T12:57:03Z</time>
      </trkpt>
      <trkpt lat="36.751678" lon="-3.590611">
        <ele>37.826</ele>
        <time>2022-12-10T12:57:16Z</time>
      </trkpt>
      <trkpt lat="36.751523" lon="-3.590626">
        <ele>36.309</ele>
        <time>2022-12-10T12:57:27Z</time>
      </trkpt>
      <trkpt lat="36.751393" lon="-3.590499">
        <ele>33.849</ele>
        <time>2022-12-10T12:57:39Z</time>
      </trkpt>
      <trkpt lat="36.751376" lon="-3.590497">
        <ele>33.980</ele>
        <time>2022-12-10T12:57:40Z</time>
      </trkpt>
      <trkpt lat="36.751199" lon="-3.590573">
        <ele>35.639</ele>
        <time>2022-12-10T12:57:51Z</time>
      </trkpt>
      <trkpt lat="36.751064" lon="-3.590421">
        <ele>35.178</ele>
        <time>2022-12-10T12:58:03Z</time>
      </trkpt>
      <trkpt lat="36.750990" lon="-3.590203">
        <ele>32.720</ele>
        <time>2022-12-10T12:58:15Z</time>
      </trkpt>
      <trkpt lat="36.750902" lon="-3.589983">
        <ele>28.826</ele>
        <time>2022-12-10T12:58:28Z</time>
      </trkpt>
      <trkpt lat="36.750864" lon="-3.589946">
        <ele>28.447</ele>
        <time>2022-12-10T12:58:31Z</time>
      </trkpt>
      <trkpt lat="36.750819" lon="-3.589932">
        <ele>28.370</ele>
        <time>2022-12-10T12:58:34Z</time>
      </trkpt>
      <trkpt lat="36.750629" lon="-3.589970">
        <ele>28.860</ele>
        <time>2022-12-10T12:58:46Z</time>
      </trkpt>
      <trkpt lat="36.750495" lon="-3.590130">
        <ele>29.719</ele>
        <time>2022-12-10T12:58:56Z</time>
      </trkpt>
      <trkpt lat="36.750525" lon="-3.590357">
        <ele>31.709</ele>
        <time>2022-12-10T12:59:07Z</time>
      </trkpt>
      <trkpt lat="36.750606" lon="-3.590577">
        <ele>34.619</ele>
        <time>2022-12-10T12:59:19Z</time>
      </trkpt>
      <trkpt lat="36.750660" lon="-3.590712">
        <ele>35.909</ele>
        <time>2022-12-10T12:59:27Z</time>
      </trkpt>
      <trkpt lat="36.750694" lon="-3.590936">
        <ele>37.492</ele>
        <time>2022-12-10T12:59:39Z</time>
      </trkpt>
      <trkpt lat="36.750690" lon="-3.590947">
        <ele>37.493</ele>
        <time>2022-12-10T12:59:41Z</time>
      </trkpt>
      <trkpt lat="36.750708" lon="-3.591014">
        <ele>37.822</ele>
        <time>2022-12-10T13:00:21Z</time>
      </trkpt>
      <trkpt lat="36.750726" lon="-3.591246">
        <ele>38.891</ele>
        <time>2022-12-10T13:00:32Z</time>
      </trkpt>
      <trkpt lat="36.750551" lon="-3.591307">
        <ele>39.163</ele>
        <time>2022-12-10T13:00:39Z</time>
      </trkpt>
      <trkpt lat="36.750442" lon="-3.591131">
        <ele>37.329</ele>
        <time>2022-12-10T13:00:46Z</time>
      </trkpt>
      <trkpt lat="36.750340" lon="-3.590916">
        <ele>34.550</ele>
        <time>2022-12-10T13:00:53Z</time>
      </trkpt>
      <trkpt lat="36.750217" lon="-3.590742">
        <ele>32.873</ele>
        <time>2022-12-10T13:01:01Z</time>
      </trkpt>
      <trkpt lat="36.750084" lon="-3.590583">
        <ele>32.573</ele>
        <time>2022-12-10T13:01:13Z</time>
      </trkpt>
      <trkpt lat="36.749982" lon="-3.590384">
        <ele>31.214</ele>
        <time>2022-12-10T13:01:24Z</time>
      </trkpt>
      <trkpt lat="36.749856" lon="-3.590211">
        <ele>29.454</ele>
        <time>2022-12-10T13:01:36Z</time>
      </trkpt>
      <trkpt lat="36.749688" lon="-3.590255">
        <ele>29.409</ele>
        <time>2022-12-10T13:01:47Z</time>
      </trkpt>
      <trkpt lat="36.749613" lon="-3.590478">
        <ele>31.709</ele>
        <time>2022-12-10T13:01:57Z</time>
      </trkpt>
      <trkpt lat="36.749581" lon="-3.590557">
        <ele>32.532</ele>
        <time>2022-12-10T13:02:01Z</time>
      </trkpt>
      <trkpt lat="36.749565" lon="-3.590783">
        <ele>33.873</ele>
        <time>2022-12-10T13:02:12Z</time>
      </trkpt>
      <trkpt lat="36.749532" lon="-3.591012">
        <ele>33.822</ele>
        <time>2022-12-10T13:02:24Z</time>
      </trkpt>
      <trkpt lat="36.749403" lon="-3.591183">
        <ele>31.961</ele>
        <time>2022-12-10T13:02:36Z</time>
      </trkpt>
      <trkpt lat="36.749297" lon="-3.591360">
        <ele>31.243</ele>
        <time>2022-12-10T13:02:48Z</time>
      </trkpt>
      <trkpt lat="36.749325" lon="-3.591596">
        <ele>32.299</ele>
        <time>2022-12-10T13:03:00Z</time>
      </trkpt>
      <trkpt lat="36.749355" lon="-3.591723">
        <ele>32.760</ele>
        <time>2022-12-10T13:03:07Z</time>
      </trkpt>
      <trkpt lat="36.749450" lon="-3.591920">
        <ele>34.143</ele>
        <time>2022-12-10T13:03:18Z</time>
      </trkpt>
      <trkpt lat="36.749570" lon="-3.592099">
        <ele>35.763</ele>
        <time>2022-12-10T13:03:29Z</time>
      </trkpt>
      <trkpt lat="36.749702" lon="-3.592251">
        <ele>36.663</ele>
        <time>2022-12-10T13:03:40Z</time>
      </trkpt>
      <trkpt lat="36.749836" lon="-3.592416">
        <ele>37.744</ele>
        <time>2022-12-10T13:03:52Z</time>
      </trkpt>
      <trkpt lat="36.749917" lon="-3.592625">
        <ele>38.518</ele>
        <time>2022-12-10T13:04:05Z</time>
      </trkpt>
      <trkpt lat="36.749740" lon="-3.592637">
        <ele>37.609</ele>
        <time>2022-12-10T13:04:16Z</time>
      </trkpt>
      <trkpt lat="36.749575" lon="-3.592539">
        <ele>35.947</ele>
        <time>2022-12-10T13:04:27Z</time>
      </trkpt>
      <trkpt lat="36.749395" lon="-3.592468">
        <ele>34.488</ele>
        <time>2022-12-10T13:04:37Z</time>
      </trkpt>
      <trkpt lat="36.749222" lon="-3.592498">
        <ele>33.477</ele>
        <time>2022-12-10T13:04:49Z</time>
      </trkpt>
      <trkpt lat="36.749147" lon="-3.592720">
        <ele>36.066</ele>
        <time>2022-12-10T13:05:00Z</time>
      </trkpt>
      <trkpt lat="36.749128" lon="-3.592948">
        <ele>37.938</ele>
        <time>2022-12-10T13:05:09Z</time>
      </trkpt>
      <trkpt lat="36.749145" lon="-3.593177">
        <ele>39.374</ele>
        <time>2022-12-10T13:05:20Z</time>
      </trkpt>
      <trkpt lat="36.749085" lon="-3.593395">
        <ele>40.115</ele>
        <time>2022-12-10T13:05:32Z</time>
      </trkpt>
      <trkpt lat="36.749002" lon="-3.593604">
        <ele>39.848</ele>
        <time>2022-12-10T13:05:45Z</time>
      </trkpt>
      <trkpt lat="36.748870" lon="-3.593764">
        <ele>39.598</ele>
        <time>2022-12-10T13:05:58Z</time>
      </trkpt>
      <trkpt lat="36.748824" lon="-3.593775">
        <ele>39.361</ele>
        <time>2022-12-10T13:06:01Z</time>
      </trkpt>
      <trkpt lat="36.748811" lon="-3.593784">
        <ele>39.321</ele>
        <time>2022-12-10T13:06:02Z</time>
      </trkpt>
      <trkpt lat="36.748636" lon="-3.593849">
        <ele>38.313</ele>
        <time>2022-12-10T13:06:17Z</time>
      </trkpt>
      <trkpt lat="36.748622" lon="-3.593839">
        <ele>38.209</ele>
        <time>2022-12-10T13:06:18Z</time>
      </trkpt>
      <trkpt lat="36.748496" lon="-3.593692">
        <ele>38.527</ele>
        <time>2022-12-10T13:06:29Z</time>
      </trkpt>
      <trkpt lat="36.748424" lon="-3.593579">
        <ele>38.328</ele>
        <time>2022-12-10T13:06:36Z</time>
      </trkpt>
      <trkpt lat="36.748310" lon="-3.593402">
        <ele>38.217</ele>
        <time>2022-12-10T13:06:50Z</time>
      </trkpt>
      <trkpt lat="36.748222" lon="-3.593261">
        <ele>38.876</ele>
        <time>2022-12-10T13:07:00Z</time>
      </trkpt>
      <trkpt lat="36.748155" lon="-3.593163">
        <ele>38.948</ele>
        <time>2022-12-10T13:07:07Z</time>
      </trkpt>
      <trkpt lat="36.748087" lon="-3.593037">
        <ele>38.654</ele>
        <time>2022-12-10T13:07:14Z</time>
      </trkpt>
      <trkpt lat="36.748038" lon="-3.592809">
        <ele>37.335</ele>
        <time>2022-12-10T13:07:27Z</time>
      </trkpt>
      <trkpt lat="36.747979" lon="-3.592715">
        <ele>36.738</ele>
        <time>2022-12-10T13:07:34Z</time>
      </trkpt>
      <trkpt lat="36.747849" lon="-3.592754">
        <ele>37.688</ele>
        <time>2022-12-10T13:07:45Z</time>
      </trkpt>
      <trkpt lat="36.747792" lon="-3.592746">
        <ele>37.871</ele>
        <time>2022-12-10T13:07:49Z</time>
      </trkpt>
      <trkpt lat="36.747750" lon="-3.592720">
        <ele>37.941</ele>
        <time>2022-12-10T13:07:53Z</time>
      </trkpt>
      <trkpt lat="36.747699" lon="-3.592664">
        <ele>37.915</ele>
        <time>2022-12-10T13:07:58Z</time>
      </trkpt>
      <trkpt lat="36.747616" lon="-3.592590">
        <ele>37.909</ele>
        <time>2022-12-10T13:08:05Z</time>
      </trkpt>
      <trkpt lat="36.747558" lon="-3.592471">
        <ele>37.928</ele>
        <time>2022-12-10T13:08:13Z</time>
      </trkpt>
      <trkpt lat="36.747567" lon="-3.592437">
        <ele>38.069</ele>
        <time>2022-12-10T13:08:15Z</time>
      </trkpt>
      <trkpt lat="36.747546" lon="-3.592394">
        <ele>38.278</ele>
        <time>2022-12-10T13:08:18Z</time>
      </trkpt>
      <trkpt lat="36.747482" lon="-3.592389">
        <ele>38.477</ele>
        <time>2022-12-10T13:08:22Z</time>
      </trkpt>
      <trkpt lat="36.747333" lon="-3.592261">
        <ele>38.919</ele>
        <time>2022-12-10T13:08:33Z</time>
      </trkpt>
      <trkpt lat="36.747235" lon="-3.592068">
        <ele>38.595</ele>
        <time>2022-12-10T13:08:46Z</time>
      </trkpt>
      <trkpt lat="36.747147" lon="-3.591870">
        <ele>37.336</ele>
        <time>2022-12-10T13:08:57Z</time>
      </trkpt>
      <trkpt lat="36.747112" lon="-3.591828">
        <ele>37.089</ele>
        <time>2022-12-10T13:09:00Z</time>
      </trkpt>
      <trkpt lat="36.747046" lon="-3.591736">
        <ele>36.749</ele>
        <time>2022-12-10T13:09:06Z</time>
      </trkpt>
      <trkpt lat="36.747029" lon="-3.591707">
        <ele>36.734</ele>
        <time>2022-12-10T13:09:08Z</time>
      </trkpt>
      <trkpt lat="36.746939" lon="-3.591578">
        <ele>36.555</ele>
        <time>2022-12-10T13:09:18Z</time>
      </trkpt>
      <trkpt lat="36.746823" lon="-3.591399">
        <ele>36.210</ele>
        <time>2022-12-10T13:09:31Z</time>
      </trkpt>
      <trkpt lat="36.746744" lon="-3.591213">
        <ele>35.709</ele>
        <time>2022-12-10T13:09:42Z</time>
      </trkpt>
      <trkpt lat="36.746688" lon="-3.591056">
        <ele>34.934</ele>
        <time>2022-12-10T13:09:53Z</time>
      </trkpt>
      <trkpt lat="36.746654" lon="-3.590964">
        <ele>33.745</ele>
        <time>2022-12-10T13:09:58Z</time>
      </trkpt>
      <trkpt lat="36.746608" lon="-3.590798">
        <ele>31.754</ele>
        <time>2022-12-10T13:10:09Z</time>
      </trkpt>
      <trkpt lat="36.746586" lon="-3.590761">
        <ele>31.243</ele>
        <time>2022-12-10T13:10:12Z</time>
      </trkpt>
      <trkpt lat="36.746561" lon="-3.590740">
        <ele>30.745</ele>
        <time>2022-12-10T13:10:15Z</time>
      </trkpt>
      <trkpt lat="36.746537" lon="-3.590714">
        <ele>30.241</ele>
        <time>2022-12-10T13:10:17Z</time>
      </trkpt>
      <trkpt lat="36.746500" lon="-3.590681">
        <ele>29.682</ele>
        <time>2022-12-10T13:10:20Z</time>
      </trkpt>
      <trkpt lat="36.746448" lon="-3.590628">
        <ele>28.725</ele>
        <time>2022-12-10T13:10:23Z</time>
      </trkpt>
      <trkpt lat="36.746280" lon="-3.590532">
        <ele>28.835</ele>
        <time>2022-12-10T13:10:34Z</time>
      </trkpt>
      <trkpt lat="36.746205" lon="-3.590494">
        <ele>29.554</ele>
        <time>2022-12-10T13:10:38Z</time>
      </trkpt>
      <trkpt lat="36.746152" lon="-3.590476">
        <ele>29.956</ele>
        <time>2022-12-10T13:10:42Z</time>
      </trkpt>
      <trkpt lat="36.746127" lon="-3.590461">
        <ele>30.211</ele>
        <time>2022-12-10T13:10:44Z</time>
      </trkpt>
      <trkpt lat="36.746102" lon="-3.590442">
        <ele>30.509</ele>
        <time>2022-12-10T13:10:47Z</time>
      </trkpt>
      <trkpt lat="36.746015" lon="-3.590364">
        <ele>31.886</ele>
        <time>2022-12-10T13:10:55Z</time>
      </trkpt>
      <trkpt lat="36.745989" lon="-3.590342">
        <ele>32.277</ele>
        <time>2022-12-10T13:10:58Z</time>
      </trkpt>
      <trkpt lat="36.745951" lon="-3.590336">
        <ele>32.696</ele>
        <time>2022-12-10T13:11:01Z</time>
      </trkpt>
      <trkpt lat="36.745917" lon="-3.590366">
        <ele>33.015</ele>
        <time>2022-12-10T13:11:04Z</time>
      </trkpt>
      <trkpt lat="36.745895" lon="-3.590422">
        <ele>33.227</ele>
        <time>2022-12-10T13:11:08Z</time>
      </trkpt>
      <trkpt lat="36.745884" lon="-3.590520">
        <ele>33.363</ele>
        <time>2022-12-10T13:11:16Z</time>
      </trkpt>
      <trkpt lat="36.745885" lon="-3.590559">
        <ele>33.234</ele>
        <time>2022-12-10T13:11:18Z</time>
      </trkpt>
      <trkpt lat="36.745860" lon="-3.590637">
        <ele>33.347</ele>
        <time>2022-12-10T13:11:24Z</time>
      </trkpt>
      <trkpt lat="36.745859" lon="-3.590658">
        <ele>33.237</ele>
        <time>2022-12-10T13:11:25Z</time>
      </trkpt>
      <trkpt lat="36.745852" lon="-3.590691">
        <ele>33.268</ele>
        <time>2022-12-10T13:11:27Z</time>
      </trkpt>
      <trkpt lat="36.745864" lon="-3.590789">
        <ele>32.642</ele>
        <time>2022-12-10T13:11:32Z</time>
      </trkpt>
      <trkpt lat="36.745855" lon="-3.590860">
        <ele>32.226</ele>
        <time>2022-12-10T13:11:37Z</time>
      </trkpt>
      <trkpt lat="36.745858" lon="-3.590877">
        <ele>32.009</ele>
        <time>2022-12-10T13:11:38Z</time>
      </trkpt>
      <trkpt lat="36.745804" lon="-3.590890">
        <ele>32.677</ele>
        <time>2022-12-10T13:11:45Z</time>
      </trkpt>
      <trkpt lat="36.745782" lon="-3.590889">
        <ele>32.998</ele>
        <time>2022-12-10T13:11:47Z</time>
      </trkpt>
      <trkpt lat="36.745723" lon="-3.590914">
        <ele>33.257</ele>
        <time>2022-12-10T13:11:51Z</time>
      </trkpt>
      <trkpt lat="36.745658" lon="-3.590909">
        <ele>34.176</ele>
        <time>2022-12-10T13:11:55Z</time>
      </trkpt>
      <trkpt lat="36.745592" lon="-3.590880">
        <ele>35.598</ele>
        <time>2022-12-10T13:12:00Z</time>
      </trkpt>
      <trkpt lat="36.745558" lon="-3.590868">
        <ele>36.244</ele>
        <time>2022-12-10T13:12:04Z</time>
      </trkpt>
      <trkpt lat="36.745522" lon="-3.590847">
        <ele>37.495</ele>
        <time>2022-12-10T13:12:08Z</time>
      </trkpt>
      <trkpt lat="36.745471" lon="-3.590825">
        <ele>38.968</ele>
        <time>2022-12-10T13:12:14Z</time>
      </trkpt>
      <trkpt lat="36.745459" lon="-3.590798">
        <ele>39.538</ele>
        <time>2022-12-10T13:12:17Z</time>
      </trkpt>
      <trkpt lat="36.745447" lon="-3.590762">
        <ele>40.236</ele>
        <time>2022-12-10T13:12:19Z</time>
      </trkpt>
      <trkpt lat="36.745436" lon="-3.590684">
        <ele>41.417</ele>
        <time>2022-12-10T13:12:23Z</time>
      </trkpt>
      <trkpt lat="36.745422" lon="-3.590643">
        <ele>42.318</ele>
        <time>2022-12-10T13:12:26Z</time>
      </trkpt>
      <trkpt lat="36.745412" lon="-3.590619">
        <ele>42.809</ele>
        <time>2022-12-10T13:12:30Z</time>
      </trkpt>
      <trkpt lat="36.745379" lon="-3.590617">
        <ele>43.614</ele>
        <time>2022-12-10T13:12:36Z</time>
      </trkpt>
      <trkpt lat="36.745374" lon="-3.590618">
        <ele>43.875</ele>
        <time>2022-12-10T13:12:37Z</time>
      </trkpt>
      <trkpt lat="36.745380" lon="-3.590417">
        <ele>44.284</ele>
        <time>2022-12-10T13:12:43Z</time>
      </trkpt>
      <trkpt lat="36.745332" lon="-3.590359">
        <ele>45.513</ele>
        <time>2022-12-10T13:12:47Z</time>
      </trkpt>
      <trkpt lat="36.745329" lon="-3.590335">
        <ele>45.675</ele>
        <time>2022-12-10T13:12:49Z</time>
      </trkpt>
      <trkpt lat="36.745312" lon="-3.590326">
        <ele>46.081</ele>
        <time>2022-12-10T13:12:51Z</time>
      </trkpt>
      <trkpt lat="36.745306" lon="-3.590326">
        <ele>46.212</ele>
        <time>2022-12-10T13:12:52Z</time>
      </trkpt>
      <trkpt lat="36.745250" lon="-3.590320">
        <ele>47.855</ele>
        <time>2022-12-10T13:12:57Z</time>
      </trkpt>
      <trkpt lat="36.745160" lon="-3.590270">
        <ele>50.495</ele>
        <time>2022-12-10T13:13:06Z</time>
      </trkpt>
      <trkpt lat="36.745005" lon="-3.590262">
        <ele>55.062</ele>
        <time>2022-12-10T13:13:15Z</time>
      </trkpt>
      <trkpt lat="36.744974" lon="-3.590210">
        <ele>56.083</ele>
        <time>2022-12-10T13:13:21Z</time>
      </trkpt>
      <trkpt lat="36.744991" lon="-3.590153">
        <ele>56.111</ele>
        <time>2022-12-10T13:13:22Z</time>
      </trkpt>
      <trkpt lat="36.745059" lon="-3.590013">
        <ele>54.609</ele>
        <time>2022-12-10T13:13:26Z</time>
      </trkpt>
      <trkpt lat="36.745035" lon="-3.589984">
        <ele>55.517</ele>
        <time>2022-12-10T13:13:28Z</time>
      </trkpt>
      <trkpt lat="36.745009" lon="-3.589953">
        <ele>56.378</ele>
        <time>2022-12-10T13:13:30Z</time>
      </trkpt>
      <trkpt lat="36.745013" lon="-3.589952">
        <ele>56.117</ele>
        <time>2022-12-10T13:13:31Z</time>
      </trkpt>
      <trkpt lat="36.745027" lon="-3.589960">
        <ele>55.726</ele>
        <time>2022-12-10T13:13:34Z</time>
      </trkpt>
      <trkpt lat="36.745004" lon="-3.589922">
        <ele>56.398</ele>
        <time>2022-12-10T13:13:38Z</time>
      </trkpt>
      <trkpt lat="36.744934" lon="-3.589761">
        <ele>58.014</ele>
        <time>2022-12-10T13:13:46Z</time>
      </trkpt>
      <trkpt lat="36.744943" lon="-3.589699">
        <ele>57.075</ele>
        <time>2022-12-10T13:13:53Z</time>
      </trkpt>
      <trkpt lat="36.744874" lon="-3.589580">
        <ele>57.978</ele>
        <time>2022-12-10T13:14:01Z</time>
      </trkpt>
      <trkpt lat="36.744819" lon="-3.589521">
        <ele>59.228</ele>
        <time>2022-12-10T13:14:06Z</time>
      </trkpt>
      <trkpt lat="36.744813" lon="-3.589507">
        <ele>59.224</ele>
        <time>2022-12-10T13:14:07Z</time>
      </trkpt>
      <trkpt lat="36.744796" lon="-3.589467">
        <ele>59.204</ele>
        <time>2022-12-10T13:14:10Z</time>
      </trkpt>
      <trkpt lat="36.744793" lon="-3.589486">
        <ele>59.714</ele>
        <time>2022-12-10T13:14:15Z</time>
      </trkpt>
      <trkpt lat="36.744756" lon="-3.589532">
        <ele>62.109</ele>
        <time>2022-12-10T13:14:18Z</time>
      </trkpt>
      <trkpt lat="36.744744" lon="-3.589494">
        <ele>62.083</ele>
        <time>2022-12-10T13:14:24Z</time>
      </trkpt>
      <trkpt lat="36.744788" lon="-3.589508">
        <ele>60.374</ele>
        <time>2022-12-10T13:14:28Z</time>
      </trkpt>
      <trkpt lat="36.744792" lon="-3.589516">
        <ele>60.343</ele>
        <time>2022-12-10T13:14:29Z</time>
      </trkpt>
      <trkpt lat="36.744773" lon="-3.589536">
        <ele>61.582</ele>
        <time>2022-12-10T13:14:32Z</time>
      </trkpt>
      <trkpt lat="36.744773" lon="-3.589544">
        <ele>61.624</ele>
        <time>2022-12-10T13:14:33Z</time>
      </trkpt>
      <trkpt lat="36.744759" lon="-3.589562">
        <ele>62.580</ele>
        <time>2022-12-10T13:14:34Z</time>
      </trkpt>
      <trkpt lat="36.744750" lon="-3.589588">
        <ele>63.441</ele>
        <time>2022-12-10T13:14:36Z</time>
      </trkpt>
      <trkpt lat="36.744749" lon="-3.589594">
        <ele>63.524</ele>
        <time>2022-12-10T13:14:37Z</time>
      </trkpt>
      <trkpt lat="36.744726" lon="-3.589642">
        <ele>65.464</ele>
        <time>2022-12-10T13:14:41Z</time>
      </trkpt>
      <trkpt lat="36.744697" lon="-3.589689">
        <ele>66.852</ele>
        <time>2022-12-10T13:14:46Z</time>
      </trkpt>
      <trkpt lat="36.744686" lon="-3.589703">
        <ele>67.253</ele>
        <time>2022-12-10T13:14:48Z</time>
      </trkpt>
      <trkpt lat="36.744676" lon="-3.589692">
        <ele>67.208</ele>
        <time>2022-12-10T13:14:52Z</time>
      </trkpt>
      <trkpt lat="36.744664" lon="-3.589680">
        <ele>67.109</ele>
        <time>2022-12-10T13:14:55Z</time>
      </trkpt>
      <trkpt lat="36.744644" lon="-3.589672">
        <ele>67.356</ele>
        <time>2022-12-10T13:14:58Z</time>
      </trkpt>
      <trkpt lat="36.744629" lon="-3.589677">
        <ele>67.657</ele>
        <time>2022-12-10T13:15:01Z</time>
      </trkpt>
      <trkpt lat="36.744573" lon="-3.589629">
        <ele>67.836</ele>
        <time>2022-12-10T13:15:21Z</time>
      </trkpt>
      <trkpt lat="36.744506" lon="-3.589560">
        <ele>68.155</ele>
        <time>2022-12-10T13:15:29Z</time>
      </trkpt>
      <trkpt lat="36.744506" lon="-3.589558">
        <ele>68.197</ele>
        <time>2022-12-10T13:15:30Z</time>
      </trkpt>
      <trkpt lat="36.744497" lon="-3.589538">
        <ele>68.053</ele>
        <time>2022-12-10T13:15:34Z</time>
      </trkpt>
      <trkpt lat="36.744507" lon="-3.589493">
        <ele>67.354</ele>
        <time>2022-12-10T13:15:41Z</time>
      </trkpt>
      <trkpt lat="36.744483" lon="-3.589437">
        <ele>67.127</ele>
        <time>2022-12-10T13:15:50Z</time>
      </trkpt>
      <trkpt lat="36.744428" lon="-3.589326">
        <ele>67.567</ele>
        <time>2022-12-10T13:15:59Z</time>
      </trkpt>
      <trkpt lat="36.744420" lon="-3.589311">
        <ele>67.761</ele>
        <time>2022-12-10T13:16:00Z</time>
      </trkpt>
      <trkpt lat="36.744412" lon="-3.589292">
        <ele>67.821</ele>
        <time>2022-12-10T13:16:03Z</time>
      </trkpt>
      <trkpt lat="36.744376" lon="-3.589229">
        <ele>68.813</ele>
        <time>2022-12-10T13:16:11Z</time>
      </trkpt>
      <trkpt lat="36.744368" lon="-3.589215">
        <ele>69.109</ele>
        <time>2022-12-10T13:16:12Z</time>
      </trkpt>
      <trkpt lat="36.744256" lon="-3.589032">
        <ele>72.227</ele>
        <time>2022-12-10T13:16:25Z</time>
      </trkpt>
      <trkpt lat="36.744184" lon="-3.588861">
        <ele>73.238</ele>
        <time>2022-12-10T13:16:37Z</time>
      </trkpt>
      <trkpt lat="36.744176" lon="-3.588829">
        <ele>73.437</ele>
        <time>2022-12-10T13:16:39Z</time>
      </trkpt>
      <trkpt lat="36.744175" lon="-3.588807">
        <ele>73.426</ele>
        <time>2022-12-10T13:16:41Z</time>
      </trkpt>
      <trkpt lat="36.744176" lon="-3.588795">
        <ele>73.328</ele>
        <time>2022-12-10T13:16:42Z</time>
      </trkpt>
      <trkpt lat="36.744179" lon="-3.588662">
        <ele>72.794</ele>
        <time>2022-12-10T13:16:49Z</time>
      </trkpt>
      <trkpt lat="36.744147" lon="-3.588590">
        <ele>73.175</ele>
        <time>2022-12-10T13:16:54Z</time>
      </trkpt>
      <trkpt lat="36.744088" lon="-3.588471">
        <ele>73.098</ele>
        <time>2022-12-10T13:17:02Z</time>
      </trkpt>
      <trkpt lat="36.744093" lon="-3.588435">
        <ele>72.668</ele>
        <time>2022-12-10T13:17:05Z</time>
      </trkpt>
      <trkpt lat="36.744061" lon="-3.588413">
        <ele>73.079</ele>
        <time>2022-12-10T13:17:07Z</time>
      </trkpt>
      <trkpt lat="36.744057" lon="-3.588369">
        <ele>72.705</ele>
        <time>2022-12-10T13:17:10Z</time>
      </trkpt>
      <trkpt lat="36.744085" lon="-3.588321">
        <ele>71.525</ele>
        <time>2022-12-10T13:17:15Z</time>
      </trkpt>
      <trkpt lat="36.743992" lon="-3.588251">
        <ele>72.709</ele>
        <time>2022-12-10T13:17:24Z</time>
      </trkpt>
      <trkpt lat="36.743847" lon="-3.588151">
        <ele>74.998</ele>
        <time>2022-12-10T13:17:33Z</time>
      </trkpt>
      <trkpt lat="36.743790" lon="-3.588104">
        <ele>74.839</ele>
        <time>2022-12-10T13:17:38Z</time>
      </trkpt>
      <trkpt lat="36.743756" lon="-3.588095">
        <ele>74.948</ele>
        <time>2022-12-10T13:17:41Z</time>
      </trkpt>
      <trkpt lat="36.743744" lon="-3.588092">
        <ele>74.967</ele>
        <time>2022-12-10T13:17:42Z</time>
      </trkpt>
      <trkpt lat="36.743717" lon="-3.588095">
        <ele>75.149</ele>
        <time>2022-12-10T13:17:45Z</time>
      </trkpt>
      <trkpt lat="36.743695" lon="-3.588100">
        <ele>75.215</ele>
        <time>2022-12-10T13:17:47Z</time>
      </trkpt>
      <trkpt lat="36.743688" lon="-3.588101">
        <ele>75.366</ele>
        <time>2022-12-10T13:17:48Z</time>
      </trkpt>
      <trkpt lat="36.743657" lon="-3.588101">
        <ele>75.439</ele>
        <time>2022-12-10T13:17:51Z</time>
      </trkpt>
      <trkpt lat="36.743613" lon="-3.588088">
        <ele>75.569</ele>
        <time>2022-12-10T13:17:54Z</time>
      </trkpt>
      <trkpt lat="36.743581" lon="-3.588089">
        <ele>75.126</ele>
        <time>2022-12-10T13:17:56Z</time>
      </trkpt>
      <trkpt lat="36.743400" lon="-3.588038">
        <ele>71.647</ele>
        <time>2022-12-10T13:18:07Z</time>
      </trkpt>
      <trkpt lat="36.743275" lon="-3.588035">
        <ele>69.211</ele>
        <time>2022-12-10T13:18:15Z</time>
      </trkpt>
      <trkpt lat="36.743252" lon="-3.588064">
        <ele>69.109</ele>
        <time>2022-12-10T13:18:17Z</time>
      </trkpt>
      <trkpt lat="36.743149" lon="-3.588136">
        <ele>68.253</ele>
        <time>2022-12-10T13:18:24Z</time>
      </trkpt>
      <trkpt lat="36.743169" lon="-3.588322">
        <ele>72.864</ele>
        <time>2022-12-10T13:18:30Z</time>
      </trkpt>
      <trkpt lat="36.743164" lon="-3.588335">
        <ele>73.013</ele>
        <time>2022-12-10T13:18:32Z</time>
      </trkpt>
      <trkpt lat="36.743153" lon="-3.588435">
        <ele>74.172</ele>
        <time>2022-12-10T13:18:38Z</time>
      </trkpt>
      <trkpt lat="36.743092" lon="-3.588541">
        <ele>74.544</ele>
        <time>2022-12-10T13:18:48Z</time>
      </trkpt>
      <trkpt lat="36.743044" lon="-3.588551">
        <ele>73.910</ele>
        <time>2022-12-10T13:18:57Z</time>
      </trkpt>
      <trkpt lat="36.743082" lon="-3.588624">
        <ele>75.541</ele>
        <time>2022-12-10T13:18:59Z</time>
      </trkpt>
      <trkpt lat="36.743122" lon="-3.588788">
        <ele>77.294</ele>
        <time>2022-12-10T13:19:02Z</time>
      </trkpt>
      <trkpt lat="36.742937" lon="-3.588878">
        <ele>75.274</ele>
        <time>2022-12-10T13:19:08Z</time>
      </trkpt>
      <trkpt lat="36.742866" lon="-3.588912">
        <ele>74.394</ele>
        <time>2022-12-10T13:19:12Z</time>
      </trkpt>
      <trkpt lat="36.742679" lon="-3.589019">
        <ele>71.757</ele>
        <time>2022-12-10T13:19:26Z</time>
      </trkpt>
      <trkpt lat="36.742616" lon="-3.589028">
        <ele>71.022</ele>
        <time>2022-12-10T13:19:31Z</time>
      </trkpt>
      <trkpt lat="36.742548" lon="-3.588994">
        <ele>69.809</ele>
        <time>2022-12-10T13:19:36Z</time>
      </trkpt>
      <trkpt lat="36.742431" lon="-3.588968">
        <ele>68.770</ele>
        <time>2022-12-10T13:19:45Z</time>
      </trkpt>
      <trkpt lat="36.742344" lon="-3.588963">
        <ele>68.561</ele>
        <time>2022-12-10T13:19:51Z</time>
      </trkpt>
      <trkpt lat="36.742261" lon="-3.588942">
        <ele>68.250</ele>
        <time>2022-12-10T13:19:55Z</time>
      </trkpt>
      <trkpt lat="36.742247" lon="-3.588950">
        <ele>68.359</ele>
        <time>2022-12-10T13:19:56Z</time>
      </trkpt>
      <trkpt lat="36.742144" lon="-3.588939">
        <ele>68.211</ele>
        <time>2022-12-10T13:20:03Z</time>
      </trkpt>
      <trkpt lat="36.742113" lon="-3.588934">
        <ele>68.237</ele>
        <time>2022-12-10T13:20:05Z</time>
      </trkpt>
      <trkpt lat="36.742043" lon="-3.588943">
        <ele>68.328</ele>
        <time>2022-12-10T13:20:10Z</time>
      </trkpt>
      <trkpt lat="36.741906" lon="-3.588938">
        <ele>67.981</ele>
        <time>2022-12-10T13:20:20Z</time>
      </trkpt>
      <trkpt lat="36.741836" lon="-3.588950">
        <ele>67.131</ele>
        <time>2022-12-10T13:20:29Z</time>
      </trkpt>
      <trkpt lat="36.741815" lon="-3.588972">
        <ele>66.981</ele>
        <time>2022-12-10T13:20:32Z</time>
      </trkpt>
      <trkpt lat="36.741782" lon="-3.588992">
        <ele>66.661</ele>
        <time>2022-12-10T13:20:36Z</time>
      </trkpt>
      <trkpt lat="36.741745" lon="-3.589010">
        <ele>66.117</ele>
        <time>2022-12-10T13:20:40Z</time>
      </trkpt>
      <trkpt lat="36.741723" lon="-3.589015">
        <ele>65.809</ele>
        <time>2022-12-10T13:20:42Z</time>
      </trkpt>
      <trkpt lat="36.741699" lon="-3.589021">
        <ele>65.519</ele>
        <time>2022-12-10T13:20:44Z</time>
      </trkpt>
      <trkpt lat="36.741561" lon="-3.588989">
        <ele>64.040</ele>
        <time>2022-12-10T13:20:51Z</time>
      </trkpt>
      <trkpt lat="36.741370" lon="-3.588892">
        <ele>62.749</ele>
        <time>2022-12-10T13:20:58Z</time>
      </trkpt>
      <trkpt lat="36.741184" lon="-3.588871">
        <ele>60.368</ele>
        <time>2022-12-10T13:21:07Z</time>
      </trkpt>
      <trkpt lat="36.741147" lon="-3.588894">
        <ele>59.610</ele>
        <time>2022-12-10T13:21:10Z</time>
      </trkpt>
      <trkpt lat="36.741138" lon="-3.588927">
        <ele>60.066</ele>
        <time>2022-12-10T13:21:12Z</time>
      </trkpt>
      <trkpt lat="36.741118" lon="-3.589066">
        <ele>62.237</ele>
        <time>2022-12-10T13:21:21Z</time>
      </trkpt>
      <trkpt lat="36.741108" lon="-3.589090">
        <ele>62.670</ele>
        <time>2022-12-10T13:21:23Z</time>
      </trkpt>
      <trkpt lat="36.741039" lon="-3.589187">
        <ele>63.570</ele>
        <time>2022-12-10T13:21:30Z</time>
      </trkpt>
      <trkpt lat="36.740959" lon="-3.589211">
        <ele>62.682</ele>
        <time>2022-12-10T13:21:38Z</time>
      </trkpt>
      <trkpt lat="36.740950" lon="-3.589222">
        <ele>62.343</ele>
        <time>2022-12-10T13:21:39Z</time>
      </trkpt>
      <trkpt lat="36.740939" lon="-3.589229">
        <ele>62.117</ele>
        <time>2022-12-10T13:21:40Z</time>
      </trkpt>
      <trkpt lat="36.740885" lon="-3.589246">
        <ele>61.209</ele>
        <time>2022-12-10T13:21:44Z</time>
      </trkpt>
      <trkpt lat="36.740844" lon="-3.589254">
        <ele>60.699</ele>
        <time>2022-12-10T13:21:48Z</time>
      </trkpt>
      <trkpt lat="36.740800" lon="-3.589253">
        <ele>58.970</ele>
        <time>2022-12-10T13:21:52Z</time>
      </trkpt>
      <trkpt lat="36.740787" lon="-3.589256">
        <ele>58.239</ele>
        <time>2022-12-10T13:21:53Z</time>
      </trkpt>
      <trkpt lat="36.740764" lon="-3.589233">
        <ele>57.978</ele>
        <time>2022-12-10T13:21:57Z</time>
      </trkpt>
      <trkpt lat="36.740757" lon="-3.589234">
        <ele>57.630</ele>
        <time>2022-12-10T13:21:58Z</time>
      </trkpt>
      <trkpt lat="36.740753" lon="-3.589225">
        <ele>57.736</ele>
        <time>2022-12-10T13:21:59Z</time>
      </trkpt>
      <trkpt lat="36.740745" lon="-3.589197">
        <ele>58.457</ele>
        <time>2022-12-10T13:22:01Z</time>
      </trkpt>
      <trkpt lat="36.740729" lon="-3.589150">
        <ele>58.880</ele>
        <time>2022-12-10T13:22:05Z</time>
      </trkpt>
      <trkpt lat="36.740709" lon="-3.589113">
        <ele>58.110</ele>
        <time>2022-12-10T13:22:08Z</time>
      </trkpt>
      <trkpt lat="36.740697" lon="-3.589098">
        <ele>57.797</ele>
        <time>2022-12-10T13:22:09Z</time>
      </trkpt>
      <trkpt lat="36.740685" lon="-3.589085">
        <ele>57.323</ele>
        <time>2022-12-10T13:22:10Z</time>
      </trkpt>
      <trkpt lat="36.740652" lon="-3.589024">
        <ele>56.625</ele>
        <time>2022-12-10T13:22:14Z</time>
      </trkpt>
      <trkpt lat="36.740635" lon="-3.588976">
        <ele>56.509</ele>
        <time>2022-12-10T13:22:17Z</time>
      </trkpt>
      <trkpt lat="36.740626" lon="-3.588956">
        <ele>56.520</ele>
        <time>2022-12-10T13:22:18Z</time>
      </trkpt>
      <trkpt lat="36.740618" lon="-3.588939">
        <ele>56.511</ele>
        <time>2022-12-10T13:22:19Z</time>
      </trkpt>
      <trkpt lat="36.740613" lon="-3.588904">
        <ele>56.750</ele>
        <time>2022-12-10T13:22:21Z</time>
      </trkpt>
      <trkpt lat="36.740619" lon="-3.588844">
        <ele>56.679</ele>
        <time>2022-12-10T13:22:25Z</time>
      </trkpt>
      <trkpt lat="36.740640" lon="-3.588738">
        <ele>56.361</ele>
        <time>2022-12-10T13:22:32Z</time>
      </trkpt>
      <trkpt lat="36.740646" lon="-3.588688">
        <ele>56.197</ele>
        <time>2022-12-10T13:22:35Z</time>
      </trkpt>
      <trkpt lat="36.740656" lon="-3.588609">
        <ele>55.888</ele>
        <time>2022-12-10T13:22:40Z</time>
      </trkpt>
      <trkpt lat="36.740684" lon="-3.588538">
        <ele>55.791</ele>
        <time>2022-12-10T13:22:46Z</time>
      </trkpt>
      <trkpt lat="36.740705" lon="-3.588515">
        <ele>56.161</ele>
        <time>2022-12-10T13:22:48Z</time>
      </trkpt>
      <trkpt lat="36.740712" lon="-3.588501">
        <ele>56.267</ele>
        <time>2022-12-10T13:22:49Z</time>
      </trkpt>
      <trkpt lat="36.740719" lon="-3.588486">
        <ele>56.481</ele>
        <time>2022-12-10T13:22:50Z</time>
      </trkpt>
      <trkpt lat="36.740768" lon="-3.588469">
        <ele>57.919</ele>
        <time>2022-12-10T13:22:54Z</time>
      </trkpt>
      <trkpt lat="36.740781" lon="-3.588441">
        <ele>58.409</ele>
        <time>2022-12-10T13:22:56Z</time>
      </trkpt>
      <trkpt lat="36.740809" lon="-3.588414">
        <ele>59.577</ele>
        <time>2022-12-10T13:22:59Z</time>
      </trkpt>
      <trkpt lat="36.740847" lon="-3.588320">
        <ele>60.928</ele>
        <time>2022-12-10T13:23:04Z</time>
      </trkpt>
      <trkpt lat="36.740871" lon="-3.588278">
        <ele>60.347</ele>
        <time>2022-12-10T13:23:07Z</time>
      </trkpt>
      <trkpt lat="36.740876" lon="-3.588260">
        <ele>60.026</ele>
        <time>2022-12-10T13:23:08Z</time>
      </trkpt>
      <trkpt lat="36.740891" lon="-3.588195">
        <ele>58.718</ele>
        <time>2022-12-10T13:23:11Z</time>
      </trkpt>
      <trkpt lat="36.740893" lon="-3.588138">
        <ele>57.374</ele>
        <time>2022-12-10T13:23:13Z</time>
      </trkpt>
      <trkpt lat="36.740896" lon="-3.588120">
        <ele>56.935</ele>
        <time>2022-12-10T13:23:14Z</time>
      </trkpt>
      <trkpt lat="36.740929" lon="-3.588070">
        <ele>56.428</ele>
        <time>2022-12-10T13:23:18Z</time>
      </trkpt>
      <trkpt lat="36.740933" lon="-3.588058">
        <ele>56.298</ele>
        <time>2022-12-10T13:23:19Z</time>
      </trkpt>
      <trkpt lat="36.740936" lon="-3.588028">
        <ele>55.342</ele>
        <time>2022-12-10T13:23:21Z</time>
      </trkpt>
      <trkpt lat="36.740943" lon="-3.587955">
        <ele>53.022</ele>
        <time>2022-12-10T13:23:25Z</time>
      </trkpt>
      <trkpt lat="36.740942" lon="-3.587937">
        <ele>52.414</ele>
        <time>2022-12-10T13:23:26Z</time>
      </trkpt>
      <trkpt lat="36.740946" lon="-3.587909">
        <ele>51.609</ele>
        <time>2022-12-10T13:23:28Z</time>
      </trkpt>
      <trkpt lat="36.740994" lon="-3.587883">
        <ele>51.435</ele>
        <time>2022-12-10T13:23:31Z</time>
      </trkpt>
      <trkpt lat="36.741038" lon="-3.587860">
        <ele>51.286</ele>
        <time>2022-12-10T13:23:35Z</time>
      </trkpt>
      <trkpt lat="36.741068" lon="-3.587835">
        <ele>50.745</ele>
        <time>2022-12-10T13:23:38Z</time>
      </trkpt>
      <trkpt lat="36.741085" lon="-3.587828">
        <ele>50.734</ele>
        <time>2022-12-10T13:23:40Z</time>
      </trkpt>
      <trkpt lat="36.741107" lon="-3.587824">
        <ele>50.876</ele>
        <time>2022-12-10T13:23:42Z</time>
      </trkpt>
      <trkpt lat="36.741137" lon="-3.587804">
        <ele>50.132</ele>
        <time>2022-12-10T13:23:44Z</time>
      </trkpt>
      <trkpt lat="36.741171" lon="-3.587793">
        <ele>49.873</ele>
        <time>2022-12-10T13:23:46Z</time>
      </trkpt>
      <trkpt lat="36.741202" lon="-3.587778">
        <ele>49.336</ele>
        <time>2022-12-10T13:23:48Z</time>
      </trkpt>
      <trkpt lat="36.741276" lon="-3.587680">
        <ele>46.536</ele>
        <time>2022-12-10T13:23:54Z</time>
      </trkpt>
      <trkpt lat="36.741289" lon="-3.587646">
        <ele>45.558</ele>
        <time>2022-12-10T13:23:56Z</time>
      </trkpt>
      <trkpt lat="36.741287" lon="-3.587606">
        <ele>44.252</ele>
        <time>2022-12-10T13:23:58Z</time>
      </trkpt>
      <trkpt lat="36.741243" lon="-3.587587">
        <ele>43.317</ele>
        <time>2022-12-10T13:24:04Z</time>
      </trkpt>
      <trkpt lat="36.741223" lon="-3.587598">
        <ele>43.509</ele>
        <time>2022-12-10T13:24:06Z</time>
      </trkpt>
      <trkpt lat="36.741091" lon="-3.587681">
        <ele>45.246</ele>
        <time>2022-12-10T13:24:16Z</time>
      </trkpt>
      <trkpt lat="36.740892" lon="-3.587685">
        <ele>42.817</ele>
        <time>2022-12-10T13:24:27Z</time>
      </trkpt>
      <trkpt lat="36.740733" lon="-3.587802">
        <ele>44.176</ele>
        <time>2022-12-10T13:24:38Z</time>
      </trkpt>
      <trkpt lat="36.740683" lon="-3.587724">
        <ele>40.395</ele>
        <time>2022-12-10T13:24:39Z</time>
      </trkpt>
      <trkpt lat="36.740577" lon="-3.587725">
        <ele>38.027</ele>
        <time>2022-12-10T13:24:46Z</time>
      </trkpt>
      <trkpt lat="36.740562" lon="-3.587707">
        <ele>37.183</ele>
        <time>2022-12-10T13:24:47Z</time>
      </trkpt>
      <trkpt lat="36.740550" lon="-3.587684">
        <ele>36.244</ele>
        <time>2022-12-10T13:24:49Z</time>
      </trkpt>
      <trkpt lat="36.740542" lon="-3.587652">
        <ele>35.137</ele>
        <time>2022-12-10T13:24:51Z</time>
      </trkpt>
      <trkpt lat="36.740552" lon="-3.587591">
        <ele>33.537</ele>
        <time>2022-12-10T13:24:55Z</time>
      </trkpt>
      <trkpt lat="36.740578" lon="-3.587508">
        <ele>31.578</ele>
        <time>2022-12-10T13:25:01Z</time>
      </trkpt>
      <trkpt lat="36.740591" lon="-3.587497">
        <ele>31.333</ele>
        <time>2022-12-10T13:25:03Z</time>
      </trkpt>
      <trkpt lat="36.740703" lon="-3.587453">
        <ele>31.626</ele>
        <time>2022-12-10T13:25:12Z</time>
      </trkpt>
      <trkpt lat="36.740767" lon="-3.587427">
        <ele>31.609</ele>
        <time>2022-12-10T13:25:16Z</time>
      </trkpt>
      <trkpt lat="36.740944" lon="-3.587340">
        <ele>31.338</ele>
        <time>2022-12-10T13:25:28Z</time>
      </trkpt>
      <trkpt lat="36.741016" lon="-3.587320">
        <ele>31.599</ele>
        <time>2022-12-10T13:25:33Z</time>
      </trkpt>
      <trkpt lat="36.741097" lon="-3.587317">
        <ele>32.318</ele>
        <time>2022-12-10T13:25:38Z</time>
      </trkpt>
      <trkpt lat="36.741272" lon="-3.587285">
        <ele>33.027</ele>
        <time>2022-12-10T13:25:50Z</time>
      </trkpt>
      <trkpt lat="36.741377" lon="-3.587263">
        <ele>33.329</ele>
        <time>2022-12-10T13:25:59Z</time>
      </trkpt>
      <trkpt lat="36.741386" lon="-3.587270">
        <ele>33.745</ele>
        <time>2022-12-10T13:26:00Z</time>
      </trkpt>
      <trkpt lat="36.741452" lon="-3.587303">
        <ele>34.356</ele>
        <time>2022-12-10T13:26:05Z</time>
      </trkpt>
      <trkpt lat="36.741485" lon="-3.587349">
        <ele>35.499</ele>
        <time>2022-12-10T13:26:07Z</time>
      </trkpt>
      <trkpt lat="36.741523" lon="-3.587374">
        <ele>35.779</ele>
        <time>2022-12-10T13:26:09Z</time>
      </trkpt>
      <trkpt lat="36.741648" lon="-3.587469">
        <ele>36.579</ele>
        <time>2022-12-10T13:26:19Z</time>
      </trkpt>
      <trkpt lat="36.741766" lon="-3.587578">
        <ele>38.205</ele>
        <time>2022-12-10T13:26:30Z</time>
      </trkpt>
      <trkpt lat="36.741813" lon="-3.587604">
        <ele>38.225</ele>
        <time>2022-12-10T13:26:32Z</time>
      </trkpt>
      <trkpt lat="36.741863" lon="-3.587643">
        <ele>38.609</ele>
        <time>2022-12-10T13:26:35Z</time>
      </trkpt>
      <trkpt lat="36.741971" lon="-3.587732">
        <ele>39.758</ele>
        <time>2022-12-10T13:26:46Z</time>
      </trkpt>
      <trkpt lat="36.742028" lon="-3.587727">
        <ele>39.519</ele>
        <time>2022-12-10T13:26:49Z</time>
      </trkpt>
      <trkpt lat="36.742084" lon="-3.587731">
        <ele>39.648</ele>
        <time>2022-12-10T13:26:54Z</time>
      </trkpt>
      <trkpt lat="36.742091" lon="-3.587740">
        <ele>39.737</ele>
        <time>2022-12-10T13:26:56Z</time>
      </trkpt>
      <trkpt lat="36.742106" lon="-3.587755">
        <ele>40.069</ele>
        <time>2022-12-10T13:26:58Z</time>
      </trkpt>
      <trkpt lat="36.742125" lon="-3.587659">
        <ele>38.375</ele>
        <time>2022-12-10T13:27:02Z</time>
      </trkpt>
      <trkpt lat="36.742119" lon="-3.587633">
        <ele>37.816</ele>
        <time>2022-12-10T13:27:04Z</time>
      </trkpt>
      <trkpt lat="36.742099" lon="-3.587589">
        <ele>36.939</ele>
        <time>2022-12-10T13:27:06Z</time>
      </trkpt>
      <trkpt lat="36.742083" lon="-3.587508">
        <ele>35.279</ele>
        <time>2022-12-10T13:27:11Z</time>
      </trkpt>
      <trkpt lat="36.742091" lon="-3.587482">
        <ele>35.079</ele>
        <time>2022-12-10T13:27:13Z</time>
      </trkpt>
      <trkpt lat="36.742078" lon="-3.587431">
        <ele>34.505</ele>
        <time>2022-12-10T13:27:16Z</time>
      </trkpt>
      <trkpt lat="36.742058" lon="-3.587339">
        <ele>33.525</ele>
        <time>2022-12-10T13:27:20Z</time>
      </trkpt>
      <trkpt lat="36.742046" lon="-3.587251">
        <ele>32.509</ele>
        <time>2022-12-10T13:27:25Z</time>
      </trkpt>
      <trkpt lat="36.742021" lon="-3.587149">
        <ele>31.118</ele>
        <time>2022-12-10T13:27:31Z</time>
      </trkpt>
      <trkpt lat="36.742020" lon="-3.587134">
        <ele>31.069</ele>
        <time>2022-12-10T13:27:32Z</time>
      </trkpt>
      <trkpt lat="36.742011" lon="-3.587069">
        <ele>30.328</ele>
        <time>2022-12-10T13:27:38Z</time>
      </trkpt>
      <trkpt lat="36.742007" lon="-3.587055">
        <ele>30.127</ele>
        <time>2022-12-10T13:27:39Z</time>
      </trkpt>
      <trkpt lat="36.741993" lon="-3.587023">
        <ele>29.439</ele>
        <time>2022-12-10T13:27:42Z</time>
      </trkpt>
      <trkpt lat="36.741959" lon="-3.586964">
        <ele>27.775</ele>
        <time>2022-12-10T13:27:48Z</time>
      </trkpt>
      <trkpt lat="36.741917" lon="-3.586895">
        <ele>26.936</ele>
        <time>2022-12-10T13:27:53Z</time>
      </trkpt>
      <trkpt lat="36.741906" lon="-3.586868">
        <ele>26.819</ele>
        <time>2022-12-10T13:27:55Z</time>
      </trkpt>
      <trkpt lat="36.741880" lon="-3.586848">
        <ele>26.649</ele>
        <time>2022-12-10T13:27:57Z</time>
      </trkpt>
      <trkpt lat="36.741837" lon="-3.586723">
        <ele>25.872</ele>
        <time>2022-12-10T13:28:04Z</time>
      </trkpt>
      <trkpt lat="36.741820" lon="-3.586605">
        <ele>24.713</ele>
        <time>2022-12-10T13:28:13Z</time>
      </trkpt>
      <trkpt lat="36.741784" lon="-3.586524">
        <ele>23.314</ele>
        <time>2022-12-10T13:28:18Z</time>
      </trkpt>
      <trkpt lat="36.741729" lon="-3.586499">
        <ele>22.009</ele>
        <time>2022-12-10T13:28:20Z</time>
      </trkpt>
      <trkpt lat="36.741707" lon="-3.586491">
        <ele>21.518</ele>
        <time>2022-12-10T13:28:21Z</time>
      </trkpt>
      <trkpt lat="36.741657" lon="-3.586470">
        <ele>20.539</ele>
        <time>2022-12-10T13:28:24Z</time>
      </trkpt>
      <trkpt lat="36.741618" lon="-3.586437">
        <ele>20.068</ele>
        <time>2022-12-10T13:28:27Z</time>
      </trkpt>
      <trkpt lat="36.741546" lon="-3.586424">
        <ele>19.477</ele>
        <time>2022-12-10T13:28:31Z</time>
      </trkpt>
      <trkpt lat="36.741499" lon="-3.586422">
        <ele>19.019</ele>
        <time>2022-12-10T13:28:33Z</time>
      </trkpt>
      <trkpt lat="36.741330" lon="-3.586479">
        <ele>17.955</ele>
        <time>2022-12-10T13:28:41Z</time>
      </trkpt>
      <trkpt lat="36.741139" lon="-3.586484">
        <ele>15.766</ele>
        <time>2022-12-10T13:28:51Z</time>
      </trkpt>
      <trkpt lat="36.741089" lon="-3.586497">
        <ele>15.479</ele>
        <time>2022-12-10T13:28:54Z</time>
      </trkpt>
      <trkpt lat="36.740908" lon="-3.586411">
        <ele>12.979</ele>
        <time>2022-12-10T13:29:05Z</time>
      </trkpt>
      <trkpt lat="36.740826" lon="-3.586378">
        <ele>11.926</ele>
        <time>2022-12-10T13:29:10Z</time>
      </trkpt>
      <trkpt lat="36.740791" lon="-3.586368">
        <ele>11.747</ele>
        <time>2022-12-10T13:29:13Z</time>
      </trkpt>
      <trkpt lat="36.740733" lon="-3.586364">
        <ele>11.411</ele>
        <time>2022-12-10T13:29:18Z</time>
      </trkpt>
      <trkpt lat="36.740652" lon="-3.586325">
        <ele>10.709</ele>
        <time>2022-12-10T13:29:23Z</time>
      </trkpt>
      <trkpt lat="36.740449" lon="-3.586292">
        <ele>9.333</ele>
        <time>2022-12-10T13:29:36Z</time>
      </trkpt>
      <trkpt lat="36.740442" lon="-3.586291">
        <ele>9.324</ele>
        <time>2022-12-10T13:29:37Z</time>
      </trkpt>
      <trkpt lat="36.740396" lon="-3.586281">
        <ele>8.963</ele>
        <time>2022-12-10T13:29:41Z</time>
      </trkpt>
      <trkpt lat="36.740280" lon="-3.586120">
        <ele>7.192</ele>
        <time>2022-12-10T13:29:57Z</time>
      </trkpt>
      <trkpt lat="36.740264" lon="-3.586012">
        <ele>7.054</ele>
        <time>2022-12-10T13:30:02Z</time>
      </trkpt>
      <trkpt lat="36.740260" lon="-3.585960">
        <ele>7.150</ele>
        <time>2022-12-10T13:30:05Z</time>
      </trkpt>
      <trkpt lat="36.740261" lon="-3.585944">
        <ele>7.131</ele>
        <time>2022-12-10T13:30:07Z</time>
      </trkpt>
      <trkpt lat="36.740240" lon="-3.585947">
        <ele>7.154</ele>
        <time>2022-12-10T13:30:10Z</time>
      </trkpt>
      <trkpt lat="36.740026" lon="-3.585953">
        <ele>7.964</ele>
        <time>2022-12-10T13:30:21Z</time>
      </trkpt>
      <trkpt lat="36.739864" lon="-3.586057">
        <ele>8.059</ele>
        <time>2022-12-10T13:30:31Z</time>
      </trkpt>
      <trkpt lat="36.739826" lon="-3.586101">
        <ele>8.003</ele>
        <time>2022-12-10T13:30:34Z</time>
      </trkpt>
      <trkpt lat="36.739817" lon="-3.586132">
        <ele>8.123</ele>
        <time>2022-12-10T13:30:36Z</time>
      </trkpt>
      <trkpt lat="36.739752" lon="-3.586207">
        <ele>8.309</ele>
        <time>2022-12-10T13:30:41Z</time>
      </trkpt>
      <trkpt lat="36.739715" lon="-3.586261">
        <ele>8.576</ele>
        <time>2022-12-10T13:30:44Z</time>
      </trkpt>
      <trkpt lat="36.739657" lon="-3.586378">
        <ele>8.587</ele>
        <time>2022-12-10T13:30:51Z</time>
      </trkpt>
      <trkpt lat="36.739595" lon="-3.586449">
        <ele>8.236</ele>
        <time>2022-12-10T13:30:57Z</time>
      </trkpt>
      <trkpt lat="36.739433" lon="-3.586566">
        <ele>6.975</ele>
        <time>2022-12-10T13:31:10Z</time>
      </trkpt>
      <trkpt lat="36.739276" lon="-3.586686">
        <ele>5.877</ele>
        <time>2022-12-10T13:31:23Z</time>
      </trkpt>
      <trkpt lat="36.739191" lon="-3.586679">
        <ele>5.293</ele>
        <time>2022-12-10T13:31:31Z</time>
      </trkpt>
      <trkpt lat="36.739185" lon="-3.586678">
        <ele>5.194</ele>
        <time>2022-12-10T13:31:33Z</time>
      </trkpt>
      <trkpt lat="36.739161" lon="-3.586670">
        <ele>5.057</ele>
        <time>2022-12-10T13:31:36Z</time>
      </trkpt>
      <trkpt lat="36.738972" lon="-3.586707">
        <ele>5.027</ele>
        <time>2022-12-10T13:31:51Z</time>
      </trkpt>
      <trkpt lat="36.738861" lon="-3.586818">
        <ele>5.138</ele>
        <time>2022-12-10T13:32:01Z</time>
      </trkpt>
      <trkpt lat="36.738749" lon="-3.586981">
        <ele>5.570</ele>
        <time>2022-12-10T13:32:14Z</time>
      </trkpt>
      <trkpt lat="36.738723" lon="-3.587037">
        <ele>5.617</ele>
        <time>2022-12-10T13:32:17Z</time>
      </trkpt>
      <trkpt lat="36.738602" lon="-3.587213">
        <ele>6.009</ele>
        <time>2022-12-10T13:32:27Z</time>
      </trkpt>
      <trkpt lat="36.738473" lon="-3.587376">
        <ele>6.344</ele>
        <time>2022-12-10T13:32:39Z</time>
      </trkpt>
      <trkpt lat="36.738321" lon="-3.587504">
        <ele>6.945</ele>
        <time>2022-12-10T13:32:51Z</time>
      </trkpt>
      <trkpt lat="36.738186" lon="-3.587654">
        <ele>5.914</ele>
        <time>2022-12-10T13:33:02Z</time>
      </trkpt>
      <trkpt lat="36.738056" lon="-3.587812">
        <ele>5.023</ele>
        <time>2022-12-10T13:33:15Z</time>
      </trkpt>
      <trkpt lat="36.737986" lon="-3.587877">
        <ele>4.885</ele>
        <time>2022-12-10T13:33:21Z</time>
      </trkpt>
      <trkpt lat="36.737955" lon="-3.587931">
        <ele>4.681</ele>
        <time>2022-12-10T13:33:24Z</time>
      </trkpt>
      <trkpt lat="36.737871" lon="-3.588070">
        <ele>4.342</ele>
        <time>2022-12-10T13:33:33Z</time>
      </trkpt>
      <trkpt lat="36.737860" lon="-3.588079">
        <ele>4.385</ele>
        <time>2022-12-10T13:33:34Z</time>
      </trkpt>
      <trkpt lat="36.737696" lon="-3.588119">
        <ele>4.115</ele>
        <time>2022-12-10T13:33:46Z</time>
      </trkpt>
      <trkpt lat="36.737553" lon="-3.587973">
        <ele>4.041</ele>
        <time>2022-12-10T13:34:00Z</time>
      </trkpt>
      <trkpt lat="36.737402" lon="-3.587826">
        <ele>4.181</ele>
        <time>2022-12-10T13:34:12Z</time>
      </trkpt>
      <trkpt lat="36.737263" lon="-3.587673">
        <ele>3.709</ele>
        <time>2022-12-10T13:34:24Z</time>
      </trkpt>
      <trkpt lat="36.737129" lon="-3.587505">
        <ele>3.409</ele>
        <time>2022-12-10T13:34:36Z</time>
      </trkpt>
      <trkpt lat="36.736947" lon="-3.587426">
        <ele>3.795</ele>
        <time>2022-12-10T13:34:49Z</time>
      </trkpt>
      <trkpt lat="36.736757" lon="-3.587424">
        <ele>4.476</ele>
        <time>2022-12-10T13:35:02Z</time>
      </trkpt>
      <trkpt lat="36.736614" lon="-3.587281">
        <ele>4.285</ele>
        <time>2022-12-10T13:35:14Z</time>
      </trkpt>
      <trkpt lat="36.736489" lon="-3.587102">
        <ele>3.854</ele>
        <time>2022-12-10T13:35:26Z</time>
      </trkpt>
      <trkpt lat="36.736457" lon="-3.586884">
        <ele>3.656</ele>
        <time>2022-12-10T13:35:41Z</time>
      </trkpt>
      <trkpt lat="36.736371" lon="-3.586673">
        <ele>3.162</ele>
        <time>2022-12-10T13:35:54Z</time>
      </trkpt>
      <trkpt lat="36.736267" lon="-3.586575">
        <ele>3.423</ele>
        <time>2022-12-10T13:36:04Z</time>
      </trkpt>
      <trkpt lat="36.736256" lon="-3.586545">
        <ele>3.536</ele>
        <time>2022-12-10T13:36:08Z</time>
      </trkpt>
      <trkpt lat="36.736311" lon="-3.586545">
        <ele>3.386</ele>
        <time>2022-12-10T13:38:31Z</time>
      </trkpt>
      <trkpt lat="36.736271" lon="-3.586507">
        <ele>3.483</ele>
        <time>2022-12-10T13:38:52Z</time>
      </trkpt>
      <trkpt lat="36.736119" lon="-3.586365">
        <ele>4.025</ele>
        <time>2022-12-10T13:38:59Z</time>
      </trkpt>
      <trkpt lat="36.735960" lon="-3.586217">
        <ele>4.917</ele>
        <time>2022-12-10T13:39:06Z</time>
      </trkpt>
      <trkpt lat="36.735800" lon="-3.586075">
        <ele>6.209</ele>
        <time>2022-12-10T13:39:13Z</time>
      </trkpt>
      <trkpt lat="36.735655" lon="-3.585920">
        <ele>6.859</ele>
        <time>2022-12-10T13:39:20Z</time>
      </trkpt>
      <trkpt lat="36.735609" lon="-3.585876">
        <ele>6.920</ele>
        <time>2022-12-10T13:39:22Z</time>
      </trkpt>
      <trkpt lat="36.735468" lon="-3.585711">
        <ele>6.029</ele>
        <time>2022-12-10T13:39:29Z</time>
      </trkpt>
      <trkpt lat="36.735306" lon="-3.585550">
        <ele>4.968</ele>
        <time>2022-12-10T13:39:36Z</time>
      </trkpt>
      <trkpt lat="36.735154" lon="-3.585384">
        <ele>4.280</ele>
        <time>2022-12-10T13:39:43Z</time>
      </trkpt>
      <trkpt lat="36.734998" lon="-3.585240">
        <ele>4.016</ele>
        <time>2022-12-10T13:39:49Z</time>
      </trkpt>
      <trkpt lat="36.734850" lon="-3.585092">
        <ele>4.577</ele>
        <time>2022-12-10T13:39:55Z</time>
      </trkpt>
      <trkpt lat="36.734703" lon="-3.584961">
        <ele>4.920</ele>
        <time>2022-12-10T13:40:01Z</time>
      </trkpt>
      <trkpt lat="36.734534" lon="-3.584810">
        <ele>4.830</ele>
        <time>2022-12-10T13:40:08Z</time>
      </trkpt>
      <trkpt lat="36.734367" lon="-3.584661">
        <ele>5.037</ele>
        <time>2022-12-10T13:40:15Z</time>
      </trkpt>
      <trkpt lat="36.734203" lon="-3.584514">
        <ele>5.049</ele>
        <time>2022-12-10T13:40:22Z</time>
      </trkpt>
      <trkpt lat="36.734046" lon="-3.584380">
        <ele>4.413</ele>
        <time>2022-12-10T13:40:29Z</time>
      </trkpt>
      <trkpt lat="36.733884" lon="-3.584231">
        <ele>4.009</ele>
        <time>2022-12-10T13:40:36Z</time>
      </trkpt>
      <trkpt lat="36.733729" lon="-3.584074">
        <ele>4.064</ele>
        <time>2022-12-10T13:40:43Z</time>
      </trkpt>
      <trkpt lat="36.733589" lon="-3.583932">
        <ele>3.985</ele>
        <time>2022-12-10T13:40:49Z</time>
      </trkpt>
      <trkpt lat="36.733453" lon="-3.583785">
        <ele>3.364</ele>
        <time>2022-12-10T13:40:55Z</time>
      </trkpt>
      <trkpt lat="36.733308" lon="-3.583623">
        <ele>2.983</ele>
        <time>2022-12-10T13:41:02Z</time>
      </trkpt>
      <trkpt lat="36.733152" lon="-3.583479">
        <ele>2.515</ele>
        <time>2022-12-10T13:41:09Z</time>
      </trkpt>
      <trkpt lat="36.733008" lon="-3.583329">
        <ele>3.291</ele>
        <time>2022-12-10T13:41:16Z</time>
      </trkpt>
      <trkpt lat="36.732850" lon="-3.583204">
        <ele>4.292</ele>
        <time>2022-12-10T13:41:23Z</time>
      </trkpt>
      <trkpt lat="36.732686" lon="-3.583058">
        <ele>5.085</ele>
        <time>2022-12-10T13:41:30Z</time>
      </trkpt>
      <trkpt lat="36.732517" lon="-3.582921">
        <ele>4.555</ele>
        <time>2022-12-10T13:41:37Z</time>
      </trkpt>
      <trkpt lat="36.732346" lon="-3.582772">
        <ele>3.456</ele>
        <time>2022-12-10T13:41:44Z</time>
      </trkpt>
      <trkpt lat="36.732192" lon="-3.582639">
        <ele>2.659</ele>
        <time>2022-12-10T13:41:50Z</time>
      </trkpt>
      <trkpt lat="36.732024" lon="-3.582487">
        <ele>2.714</ele>
        <time>2022-12-10T13:41:57Z</time>
      </trkpt>
      <trkpt lat="36.731884" lon="-3.582345">
        <ele>3.209</ele>
        <time>2022-12-10T13:42:03Z</time>
      </trkpt>
      <trkpt lat="36.731735" lon="-3.582215">
        <ele>3.876</ele>
        <time>2022-12-10T13:42:09Z</time>
      </trkpt>
      <trkpt lat="36.731584" lon="-3.582087">
        <ele>4.327</ele>
        <time>2022-12-10T13:42:15Z</time>
      </trkpt>
      <trkpt lat="36.731425" lon="-3.581945">
        <ele>4.146</ele>
        <time>2022-12-10T13:42:22Z</time>
      </trkpt>
      <trkpt lat="36.731289" lon="-3.581830">
        <ele>4.235</ele>
        <time>2022-12-10T13:42:29Z</time>
      </trkpt>
      <trkpt lat="36.731130" lon="-3.581705">
        <ele>4.117</ele>
        <time>2022-12-10T13:42:41Z</time>
      </trkpt>
      <trkpt lat="36.730992" lon="-3.581608">
        <ele>4.653</ele>
        <time>2022-12-10T13:42:51Z</time>
      </trkpt>
      <trkpt lat="36.730843" lon="-3.581478">
        <ele>4.674</ele>
        <time>2022-12-10T13:43:02Z</time>
      </trkpt>
      <trkpt lat="36.730692" lon="-3.581332">
        <ele>4.787</ele>
        <time>2022-12-10T13:43:13Z</time>
      </trkpt>
      <trkpt lat="36.730607" lon="-3.581135">
        <ele>4.097</ele>
        <time>2022-12-10T13:43:26Z</time>
      </trkpt>
      <trkpt lat="36.730442" lon="-3.581008">
        <ele>4.574</ele>
        <time>2022-12-10T13:43:37Z</time>
      </trkpt>
      <trkpt lat="36.730311" lon="-3.580857">
        <ele>4.256</ele>
        <time>2022-12-10T13:43:49Z</time>
      </trkpt>
      <trkpt lat="36.730301" lon="-3.580846">
        <ele>4.121</ele>
        <time>2022-12-10T13:43:50Z</time>
      </trkpt>
      <trkpt lat="36.730130" lon="-3.580720">
        <ele>3.309</ele>
        <time>2022-12-10T13:44:01Z</time>
      </trkpt>
      <trkpt lat="36.730105" lon="-3.580703">
        <ele>3.218</ele>
        <time>2022-12-10T13:44:03Z</time>
      </trkpt>
      <trkpt lat="36.729944" lon="-3.580570">
        <ele>3.219</ele>
        <time>2022-12-10T13:44:16Z</time>
      </trkpt>
      <trkpt lat="36.729780" lon="-3.580447">
        <ele>3.428</ele>
        <time>2022-12-10T13:44:30Z</time>
      </trkpt>
      <trkpt lat="36.729609" lon="-3.580337">
        <ele>4.087</ele>
        <time>2022-12-10T13:44:41Z</time>
      </trkpt>
      <trkpt lat="36.729419" lon="-3.580313">
        <ele>5.389</ele>
        <time>2022-12-10T13:44:51Z</time>
      </trkpt>
      <trkpt lat="36.729235" lon="-3.580374">
        <ele>6.335</ele>
        <time>2022-12-10T13:45:02Z</time>
      </trkpt>
      <trkpt lat="36.729059" lon="-3.580338">
        <ele>6.096</ele>
        <time>2022-12-10T13:45:13Z</time>
      </trkpt>
      <trkpt lat="36.728870" lon="-3.580275">
        <ele>4.919</ele>
        <time>2022-12-10T13:45:25Z</time>
      </trkpt>
      <trkpt lat="36.728681" lon="-3.580218">
        <ele>4.399</ele>
        <time>2022-12-10T13:45:38Z</time>
      </trkpt>
      <trkpt lat="36.728493" lon="-3.580208">
        <ele>5.166</ele>
        <time>2022-12-10T13:45:50Z</time>
      </trkpt>
      <trkpt lat="36.728308" lon="-3.580185">
        <ele>6.429</ele>
        <time>2022-12-10T13:46:02Z</time>
      </trkpt>
      <trkpt lat="36.728116" lon="-3.580131">
        <ele>6.421</ele>
        <time>2022-12-10T13:46:12Z</time>
      </trkpt>
      <trkpt lat="36.727978" lon="-3.580126">
        <ele>6.209</ele>
        <time>2022-12-10T13:46:20Z</time>
      </trkpt>
      <trkpt lat="36.727795" lon="-3.580122">
        <ele>5.627</ele>
        <time>2022-12-10T13:46:31Z</time>
      </trkpt>
      <trkpt lat="36.727609" lon="-3.580156">
        <ele>4.168</ele>
        <time>2022-12-10T13:46:42Z</time>
      </trkpt>
      <trkpt lat="36.727527" lon="-3.580169">
        <ele>3.477</ele>
        <time>2022-12-10T13:46:47Z</time>
      </trkpt>
      <trkpt lat="36.727392" lon="-3.580144">
        <ele>3.126</ele>
        <time>2022-12-10T13:46:54Z</time>
      </trkpt>
      <trkpt lat="36.727199" lon="-3.580147">
        <ele>2.588</ele>
        <time>2022-12-10T13:47:06Z</time>
      </trkpt>
      <trkpt lat="36.727115" lon="-3.580116">
        <ele>2.724</ele>
        <time>2022-12-10T13:47:11Z</time>
      </trkpt>
      <trkpt lat="36.726931" lon="-3.580061">
        <ele>3.145</ele>
        <time>2022-12-10T13:47:22Z</time>
      </trkpt>
      <trkpt lat="36.726759" lon="-3.579981">
        <ele>3.768</ele>
        <time>2022-12-10T13:47:34Z</time>
      </trkpt>
      <trkpt lat="36.726628" lon="-3.579822">
        <ele>4.148</ele>
        <time>2022-12-10T13:47:46Z</time>
      </trkpt>
      <trkpt lat="36.726508" lon="-3.579640">
        <ele>3.731</ele>
        <time>2022-12-10T13:47:58Z</time>
      </trkpt>
      <trkpt lat="36.726520" lon="-3.579441">
        <ele>3.061</ele>
        <time>2022-12-10T13:48:10Z</time>
      </trkpt>
      <trkpt lat="36.726572" lon="-3.579380">
        <ele>3.007</ele>
        <time>2022-12-10T13:48:14Z</time>
      </trkpt>
      <trkpt lat="36.726478" lon="-3.579179">
        <ele>3.009</ele>
        <time>2022-12-10T13:48:28Z</time>
      </trkpt>
      <trkpt lat="36.726380" lon="-3.579067">
        <ele>3.364</ele>
        <time>2022-12-10T13:48:37Z</time>
      </trkpt>
      <trkpt lat="36.726232" lon="-3.579077">
        <ele>3.125</ele>
        <time>2022-12-10T13:48:46Z</time>
      </trkpt>
      <trkpt lat="36.726093" lon="-3.578901">
        <ele>2.914</ele>
        <time>2022-12-10T13:48:57Z</time>
      </trkpt>
      <trkpt lat="36.726000" lon="-3.578759">
        <ele>2.413</ele>
        <time>2022-12-10T13:49:03Z</time>
      </trkpt>
      <trkpt lat="36.725899" lon="-3.578591">
        <ele>2.215</ele>
        <time>2022-12-10T13:49:10Z</time>
      </trkpt>
      <trkpt lat="36.725821" lon="-3.578474">
        <ele>2.041</ele>
        <time>2022-12-10T13:49:15Z</time>
      </trkpt>
      <trkpt lat="36.725685" lon="-3.578295">
        <ele>1.562</ele>
        <time>2022-12-10T13:49:23Z</time>
      </trkpt>
      <trkpt lat="36.725667" lon="-3.578278">
        <ele>1.455</ele>
        <time>2022-12-10T13:49:24Z</time>
      </trkpt>
      <trkpt lat="36.725526" lon="-3.578097">
        <ele>1.075</ele>
        <time>2022-12-10T13:49:32Z</time>
      </trkpt>
      <trkpt lat="36.725454" lon="-3.577993">
        <ele>1.312</ele>
        <time>2022-12-10T13:49:36Z</time>
      </trkpt>
      <trkpt lat="36.725324" lon="-3.577801">
        <ele>2.732</ele>
        <time>2022-12-10T13:49:44Z</time>
      </trkpt>
      <trkpt lat="36.725206" lon="-3.577623">
        <ele>2.905</ele>
        <time>2022-12-10T13:49:51Z</time>
      </trkpt>
      <trkpt lat="36.725142" lon="-3.577430">
        <ele>3.009</ele>
        <time>2022-12-10T13:49:59Z</time>
      </trkpt>
      <trkpt lat="36.725158" lon="-3.577413">
        <ele>3.052</ele>
        <time>2022-12-10T13:50:00Z</time>
      </trkpt>
      <trkpt lat="36.725358" lon="-3.577392">
        <ele>2.883</ele>
        <time>2022-12-10T13:50:07Z</time>
      </trkpt>
      <trkpt lat="36.725435" lon="-3.577377">
        <ele>2.762</ele>
        <time>2022-12-10T13:50:10Z</time>
      </trkpt>
      <trkpt lat="36.725536" lon="-3.577349">
        <ele>2.641</ele>
        <time>2022-12-10T13:50:14Z</time>
      </trkpt>
      <trkpt lat="36.725658" lon="-3.577292">
        <ele>3.023</ele>
        <time>2022-12-10T13:50:19Z</time>
      </trkpt>
      <trkpt lat="36.725812" lon="-3.577179">
        <ele>3.939</ele>
        <time>2022-12-10T13:50:26Z</time>
      </trkpt>
      <trkpt lat="36.725960" lon="-3.577022">
        <ele>4.610</ele>
        <time>2022-12-10T13:50:34Z</time>
      </trkpt>
      <trkpt lat="36.725973" lon="-3.577020">
        <ele>4.693</ele>
        <time>2022-12-10T13:50:35Z</time>
      </trkpt>
      <trkpt lat="36.725994" lon="-3.577034">
        <ele>4.843</ele>
        <time>2022-12-10T13:50:36Z</time>
      </trkpt>
      <trkpt lat="36.726014" lon="-3.577059">
        <ele>4.934</ele>
        <time>2022-12-10T13:50:37Z</time>
      </trkpt>
      <trkpt lat="36.726065" lon="-3.577103">
        <ele>5.355</ele>
        <time>2022-12-10T13:50:40Z</time>
      </trkpt>
      <trkpt lat="36.726248" lon="-3.576989">
        <ele>4.610</ele>
        <time>2022-12-10T13:50:48Z</time>
      </trkpt>
      <trkpt lat="36.726407" lon="-3.576883">
        <ele>3.709</ele>
        <time>2022-12-10T13:50:55Z</time>
      </trkpt>
      <trkpt lat="36.726560" lon="-3.576793">
        <ele>2.664</ele>
        <time>2022-12-10T13:51:01Z</time>
      </trkpt>
      <trkpt lat="36.726724" lon="-3.576655">
        <ele>2.095</ele>
        <time>2022-12-10T13:51:08Z</time>
      </trkpt>
      <trkpt lat="36.726887" lon="-3.576544">
        <ele>1.944</ele>
        <time>2022-12-10T13:51:15Z</time>
      </trkpt>
      <trkpt lat="36.727054" lon="-3.576426">
        <ele>2.493</ele>
        <time>2022-12-10T13:51:22Z</time>
      </trkpt>
      <trkpt lat="36.727215" lon="-3.576318">
        <ele>2.765</ele>
        <time>2022-12-10T13:51:28Z</time>
      </trkpt>
      <trkpt lat="36.727385" lon="-3.576185">
        <ele>2.171</ele>
        <time>2022-12-10T13:51:35Z</time>
      </trkpt>
      <trkpt lat="36.727410" lon="-3.576167">
        <ele>2.132</ele>
        <time>2022-12-10T13:51:36Z</time>
      </trkpt>
      <trkpt lat="36.727575" lon="-3.576047">
        <ele>1.855</ele>
        <time>2022-12-10T13:51:43Z</time>
      </trkpt>
      <trkpt lat="36.727737" lon="-3.575927">
        <ele>1.795</ele>
        <time>2022-12-10T13:51:50Z</time>
      </trkpt>
      <trkpt lat="36.727907" lon="-3.575803">
        <ele>2.135</ele>
        <time>2022-12-10T13:51:57Z</time>
      </trkpt>
      <trkpt lat="36.728082" lon="-3.575672">
        <ele>2.786</ele>
        <time>2022-12-10T13:52:05Z</time>
      </trkpt>
      <trkpt lat="36.728261" lon="-3.575549">
        <ele>3.714</ele>
        <time>2022-12-10T13:52:12Z</time>
      </trkpt>
      <trkpt lat="36.728429" lon="-3.575428">
        <ele>4.509</ele>
        <time>2022-12-10T13:52:19Z</time>
      </trkpt>
      <trkpt lat="36.728587" lon="-3.575308">
        <ele>5.084</ele>
        <time>2022-12-10T13:52:26Z</time>
      </trkpt>
      <trkpt lat="36.728661" lon="-3.575137">
        <ele>4.845</ele>
        <time>2022-12-10T13:52:33Z</time>
      </trkpt>
      <trkpt lat="36.728628" lon="-3.575102">
        <ele>4.994</ele>
        <time>2022-12-10T13:52:35Z</time>
      </trkpt>
      <trkpt lat="36.728578" lon="-3.575101">
        <ele>4.953</ele>
        <time>2022-12-10T13:52:37Z</time>
      </trkpt>
      <trkpt lat="36.728540" lon="-3.575122">
        <ele>4.795</ele>
        <time>2022-12-10T13:52:40Z</time>
      </trkpt>
      <trkpt lat="36.728541" lon="-3.575124">
        <ele>4.731</ele>
        <time>2022-12-10T13:52:41Z</time>
      </trkpt>
      <trkpt lat="36.728534" lon="-3.575132">
        <ele>4.782</ele>
        <time>2022-12-10T13:52:46Z</time>
      </trkpt>
      <trkpt lat="36.728529" lon="-3.575064">
        <ele>4.775</ele>
        <time>2022-12-10T13:53:34Z</time>
      </trkpt>
      <trkpt lat="36.728555" lon="-3.575010">
        <ele>4.885</ele>
        <time>2022-12-10T13:53:38Z</time>
      </trkpt>
      <trkpt lat="36.728557" lon="-3.575003">
        <ele>4.894</ele>
        <time>2022-12-10T13:53:39Z</time>
      </trkpt>
      <trkpt lat="36.728567" lon="-3.574927">
        <ele>4.657</ele>
        <time>2022-12-10T13:53:46Z</time>
      </trkpt>
      <trkpt lat="36.728578" lon="-3.574850">
        <ele>4.422</ele>
        <time>2022-12-10T13:53:51Z</time>
      </trkpt>
      <trkpt lat="36.728747" lon="-3.574703">
        <ele>4.509</ele>
        <time>2022-12-10T13:54:00Z</time>
      </trkpt>
      <trkpt lat="36.728800" lon="-3.574626">
        <ele>4.730</ele>
        <time>2022-12-10T13:54:03Z</time>
      </trkpt>
      <trkpt lat="36.728793" lon="-3.574485">
        <ele>4.791</ele>
        <time>2022-12-10T13:54:07Z</time>
      </trkpt>
      <trkpt lat="36.728788" lon="-3.574261">
        <ele>4.610</ele>
        <time>2022-12-10T13:54:13Z</time>
      </trkpt>
      <trkpt lat="36.728740" lon="-3.574085">
        <ele>4.559</ele>
        <time>2022-12-10T13:54:18Z</time>
      </trkpt>
      <trkpt lat="36.728708" lon="-3.573842">
        <ele>4.441</ele>
        <time>2022-12-10T13:54:25Z</time>
      </trkpt>
      <trkpt lat="36.728725" lon="-3.573606">
        <ele>4.637</ele>
        <time>2022-12-10T13:54:32Z</time>
      </trkpt>
      <trkpt lat="36.728756" lon="-3.573364">
        <ele>4.598</ele>
        <time>2022-12-10T13:54:39Z</time>
      </trkpt>
      <trkpt lat="36.728767" lon="-3.573124">
        <ele>3.711</ele>
        <time>2022-12-10T13:54:46Z</time>
      </trkpt>
      <trkpt lat="36.728766" lon="-3.572884">
        <ele>3.561</ele>
        <time>2022-12-10T13:54:53Z</time>
      </trkpt>
      <trkpt lat="36.728767" lon="-3.572641">
        <ele>3.655</ele>
        <time>2022-12-10T13:55:00Z</time>
      </trkpt>
      <trkpt lat="36.728801" lon="-3.572416">
        <ele>3.807</ele>
        <time>2022-12-10T13:55:07Z</time>
      </trkpt>
      <trkpt lat="36.728933" lon="-3.572223">
        <ele>4.217</ele>
        <time>2022-12-10T13:55:14Z</time>
      </trkpt>
      <trkpt lat="36.729025" lon="-3.572013">
        <ele>4.909</ele>
        <time>2022-12-10T13:55:21Z</time>
      </trkpt>
      <trkpt lat="36.729049" lon="-3.571771">
        <ele>4.776</ele>
        <time>2022-12-10T13:55:28Z</time>
      </trkpt>
      <trkpt lat="36.729038" lon="-3.571527">
        <ele>4.537</ele>
        <time>2022-12-10T13:55:35Z</time>
      </trkpt>
      <trkpt lat="36.729033" lon="-3.571289">
        <ele>4.526</ele>
        <time>2022-12-10T13:55:42Z</time>
      </trkpt>
      <trkpt lat="36.729052" lon="-3.571103">
        <ele>4.685</ele>
        <time>2022-12-10T13:55:48Z</time>
      </trkpt>
      <trkpt lat="36.729186" lon="-3.571069">
        <ele>5.087</ele>
        <time>2022-12-10T13:55:54Z</time>
      </trkpt>
      <trkpt lat="36.729355" lon="-3.570990">
        <ele>5.993</ele>
        <time>2022-12-10T13:56:01Z</time>
      </trkpt>
      <trkpt lat="36.729494" lon="-3.570833">
        <ele>6.044</ele>
        <time>2022-12-10T13:56:08Z</time>
      </trkpt>
      <trkpt lat="36.729608" lon="-3.570657">
        <ele>5.437</ele>
        <time>2022-12-10T13:56:15Z</time>
      </trkpt>
      <trkpt lat="36.729723" lon="-3.570472">
        <ele>5.067</ele>
        <time>2022-12-10T13:56:22Z</time>
      </trkpt>
      <trkpt lat="36.729872" lon="-3.570342">
        <ele>4.696</ele>
        <time>2022-12-10T13:56:29Z</time>
      </trkpt>
      <trkpt lat="36.730031" lon="-3.570209">
        <ele>4.331</ele>
        <time>2022-12-10T13:56:36Z</time>
      </trkpt>
      <trkpt lat="36.730118" lon="-3.570113">
        <ele>4.824</ele>
        <time>2022-12-10T13:56:40Z</time>
      </trkpt>
      <trkpt lat="36.730244" lon="-3.569919">
        <ele>5.009</ele>
        <time>2022-12-10T13:56:47Z</time>
      </trkpt>
      <trkpt lat="36.730365" lon="-3.569722">
        <ele>5.370</ele>
        <time>2022-12-10T13:56:54Z</time>
      </trkpt>
      <trkpt lat="36.730464" lon="-3.569514">
        <ele>5.211</ele>
        <time>2022-12-10T13:57:01Z</time>
      </trkpt>
      <trkpt lat="36.730552" lon="-3.569282">
        <ele>4.480</ele>
        <time>2022-12-10T13:57:09Z</time>
      </trkpt>
      <trkpt lat="36.730636" lon="-3.569073">
        <ele>4.579</ele>
        <time>2022-12-10T13:57:16Z</time>
      </trkpt>
      <trkpt lat="36.730743" lon="-3.568872">
        <ele>5.051</ele>
        <time>2022-12-10T13:57:24Z</time>
      </trkpt>
      <trkpt lat="36.730850" lon="-3.568687">
        <ele>5.837</ele>
        <time>2022-12-10T13:57:32Z</time>
      </trkpt>
      <trkpt lat="36.731022" lon="-3.568599">
        <ele>6.778</ele>
        <time>2022-12-10T13:57:40Z</time>
      </trkpt>
      <trkpt lat="36.731219" lon="-3.568566">
        <ele>7.421</ele>
        <time>2022-12-10T13:57:49Z</time>
      </trkpt>
      <trkpt lat="36.731242" lon="-3.568545">
        <ele>7.561</ele>
        <time>2022-12-10T13:57:50Z</time>
      </trkpt>
      <trkpt lat="36.731359" lon="-3.568339">
        <ele>7.999</ele>
        <time>2022-12-10T13:57:57Z</time>
      </trkpt>
      <trkpt lat="36.731454" lon="-3.568167">
        <ele>7.207</ele>
        <time>2022-12-10T13:58:03Z</time>
      </trkpt>
      <trkpt lat="36.731599" lon="-3.568004">
        <ele>6.127</ele>
        <time>2022-12-10T13:58:10Z</time>
      </trkpt>
      <trkpt lat="36.731721" lon="-3.567839">
        <ele>5.409</ele>
        <time>2022-12-10T13:58:17Z</time>
      </trkpt>
      <trkpt lat="36.731834" lon="-3.567655">
        <ele>6.040</ele>
        <time>2022-12-10T13:58:24Z</time>
      </trkpt>
      <trkpt lat="36.731982" lon="-3.567499">
        <ele>7.091</ele>
        <time>2022-12-10T13:58:31Z</time>
      </trkpt>
      <trkpt lat="36.732120" lon="-3.567329">
        <ele>7.060</ele>
        <time>2022-12-10T13:58:39Z</time>
      </trkpt>
      <trkpt lat="36.732250" lon="-3.567167">
        <ele>6.739</ele>
        <time>2022-12-10T13:58:46Z</time>
      </trkpt>
      <trkpt lat="36.732390" lon="-3.566984">
        <ele>6.161</ele>
        <time>2022-12-10T13:58:54Z</time>
      </trkpt>
      <trkpt lat="36.732425" lon="-3.566939">
        <ele>6.097</ele>
        <time>2022-12-10T13:58:56Z</time>
      </trkpt>
      <trkpt lat="36.732566" lon="-3.566783">
        <ele>6.048</ele>
        <time>2022-12-10T13:59:03Z</time>
      </trkpt>
      <trkpt lat="36.732701" lon="-3.566634">
        <ele>6.241</ele>
        <time>2022-12-10T13:59:10Z</time>
      </trkpt>
      <trkpt lat="36.732836" lon="-3.566472">
        <ele>7.521</ele>
        <time>2022-12-10T13:59:17Z</time>
      </trkpt>
      <trkpt lat="36.732970" lon="-3.566291">
        <ele>8.026</ele>
        <time>2022-12-10T13:59:24Z</time>
      </trkpt>
      <trkpt lat="36.733117" lon="-3.566149">
        <ele>8.047</ele>
        <time>2022-12-10T13:59:31Z</time>
      </trkpt>
      <trkpt lat="36.733288" lon="-3.566054">
        <ele>8.011</ele>
        <time>2022-12-10T13:59:38Z</time>
      </trkpt>
      <trkpt lat="36.733469" lon="-3.565952">
        <ele>8.209</ele>
        <time>2022-12-10T13:59:45Z</time>
      </trkpt>
      <trkpt lat="36.733651" lon="-3.565855">
        <ele>8.153</ele>
        <time>2022-12-10T13:59:52Z</time>
      </trkpt>
      <trkpt lat="36.733806" lon="-3.565713">
        <ele>8.084</ele>
        <time>2022-12-10T13:59:59Z</time>
      </trkpt>
      <trkpt lat="36.733898" lon="-3.565572">
        <ele>8.013</ele>
        <time>2022-12-10T14:00:05Z</time>
      </trkpt>
      <trkpt lat="36.734060" lon="-3.565422">
        <ele>7.552</ele>
        <time>2022-12-10T14:00:13Z</time>
      </trkpt>
      <trkpt lat="36.734082" lon="-3.565405">
        <ele>7.584</ele>
        <time>2022-12-10T14:00:14Z</time>
      </trkpt>
      <trkpt lat="36.734230" lon="-3.565258">
        <ele>7.370</ele>
        <time>2022-12-10T14:00:21Z</time>
      </trkpt>
      <trkpt lat="36.734350" lon="-3.565066">
        <ele>7.941</ele>
        <time>2022-12-10T14:00:28Z</time>
      </trkpt>
      <trkpt lat="36.734422" lon="-3.564838">
        <ele>8.014</ele>
        <time>2022-12-10T14:00:35Z</time>
      </trkpt>
      <trkpt lat="36.734518" lon="-3.564627">
        <ele>8.674</ele>
        <time>2022-12-10T14:00:42Z</time>
      </trkpt>
      <trkpt lat="36.734625" lon="-3.564438">
        <ele>9.755</ele>
        <time>2022-12-10T14:00:49Z</time>
      </trkpt>
      <trkpt lat="36.734667" lon="-3.564214">
        <ele>10.607</ele>
        <time>2022-12-10T14:00:56Z</time>
      </trkpt>
      <trkpt lat="36.734699" lon="-3.563967">
        <ele>10.917</ele>
        <time>2022-12-10T14:01:03Z</time>
      </trkpt>
      <trkpt lat="36.734741" lon="-3.563735">
        <ele>10.509</ele>
        <time>2022-12-10T14:01:10Z</time>
      </trkpt>
      <trkpt lat="36.734743" lon="-3.563705">
        <ele>10.476</ele>
        <time>2022-12-10T14:01:11Z</time>
      </trkpt>
      <trkpt lat="36.734734" lon="-3.563676">
        <ele>10.317</ele>
        <time>2022-12-10T14:01:12Z</time>
      </trkpt>
      <trkpt lat="36.734652" lon="-3.563578">
        <ele>10.176</ele>
        <time>2022-12-10T14:01:16Z</time>
      </trkpt>
      <trkpt lat="36.734481" lon="-3.563464">
        <ele>10.175</ele>
        <time>2022-12-10T14:01:23Z</time>
      </trkpt>
      <trkpt lat="36.734323" lon="-3.563341">
        <ele>10.087</ele>
        <time>2022-12-10T14:01:30Z</time>
      </trkpt>
      <trkpt lat="36.734298" lon="-3.563323">
        <ele>10.043</ele>
        <time>2022-12-10T14:01:31Z</time>
      </trkpt>
      <trkpt lat="36.734138" lon="-3.563207">
        <ele>10.564</ele>
        <time>2022-12-10T14:01:38Z</time>
      </trkpt>
      <trkpt lat="36.733979" lon="-3.563094">
        <ele>10.917</ele>
        <time>2022-12-10T14:01:45Z</time>
      </trkpt>
      <trkpt lat="36.733802" lon="-3.562985">
        <ele>11.097</ele>
        <time>2022-12-10T14:01:52Z</time>
      </trkpt>
      <trkpt lat="36.733615" lon="-3.562900">
        <ele>11.077</ele>
        <time>2022-12-10T14:01:59Z</time>
      </trkpt>
      <trkpt lat="36.733557" lon="-3.562885">
        <ele>11.161</ele>
        <time>2022-12-10T14:02:01Z</time>
      </trkpt>
      <trkpt lat="36.733376" lon="-3.562860">
        <ele>11.627</ele>
        <time>2022-12-10T14:02:08Z</time>
      </trkpt>
      <trkpt lat="36.733177" lon="-3.562855">
        <ele>11.709</ele>
        <time>2022-12-10T14:02:15Z</time>
      </trkpt>
      <trkpt lat="36.732987" lon="-3.562863">
        <ele>11.718</ele>
        <time>2022-12-10T14:02:22Z</time>
      </trkpt>
      <trkpt lat="36.732793" lon="-3.562861">
        <ele>11.789</ele>
        <time>2022-12-10T14:02:29Z</time>
      </trkpt>
      <trkpt lat="36.732592" lon="-3.562874">
        <ele>11.248</ele>
        <time>2022-12-10T14:02:37Z</time>
      </trkpt>
      <trkpt lat="36.732401" lon="-3.562859">
        <ele>11.067</ele>
        <time>2022-12-10T14:02:44Z</time>
      </trkpt>
      <trkpt lat="36.732225" lon="-3.562808">
        <ele>11.079</ele>
        <time>2022-12-10T14:02:51Z</time>
      </trkpt>
      <trkpt lat="36.732042" lon="-3.562701">
        <ele>11.515</ele>
        <time>2022-12-10T14:02:58Z</time>
      </trkpt>
      <trkpt lat="36.731858" lon="-3.562638">
        <ele>11.566</ele>
        <time>2022-12-10T14:03:05Z</time>
      </trkpt>
      <trkpt lat="36.731808" lon="-3.562626">
        <ele>11.589</ele>
        <time>2022-12-10T14:03:07Z</time>
      </trkpt>
      <trkpt lat="36.731623" lon="-3.562583">
        <ele>11.329</ele>
        <time>2022-12-10T14:03:14Z</time>
      </trkpt>
      <trkpt lat="36.731434" lon="-3.562553">
        <ele>11.014</ele>
        <time>2022-12-10T14:03:21Z</time>
      </trkpt>
      <trkpt lat="36.731243" lon="-3.562555">
        <ele>10.554</ele>
        <time>2022-12-10T14:03:28Z</time>
      </trkpt>
      <trkpt lat="36.731048" lon="-3.562531">
        <ele>9.809</ele>
        <time>2022-12-10T14:03:35Z</time>
      </trkpt>
      <trkpt lat="36.731023" lon="-3.562530">
        <ele>9.709</ele>
        <time>2022-12-10T14:03:36Z</time>
      </trkpt>
      <trkpt lat="36.730831" lon="-3.562499">
        <ele>9.072</ele>
        <time>2022-12-10T14:03:43Z</time>
      </trkpt>
      <trkpt lat="36.730639" lon="-3.562463">
        <ele>8.313</ele>
        <time>2022-12-10T14:03:50Z</time>
      </trkpt>
      <trkpt lat="36.730448" lon="-3.562420">
        <ele>7.632</ele>
        <time>2022-12-10T14:03:57Z</time>
      </trkpt>
      <trkpt lat="36.730421" lon="-3.562410">
        <ele>7.571</ele>
        <time>2022-12-10T14:03:58Z</time>
      </trkpt>
      <trkpt lat="36.730242" lon="-3.562359">
        <ele>7.113</ele>
        <time>2022-12-10T14:04:05Z</time>
      </trkpt>
      <trkpt lat="36.730044" lon="-3.562284">
        <ele>7.759</ele>
        <time>2022-12-10T14:04:12Z</time>
      </trkpt>
      <trkpt lat="36.729856" lon="-3.562233">
        <ele>7.540</ele>
        <time>2022-12-10T14:04:19Z</time>
      </trkpt>
      <trkpt lat="36.729655" lon="-3.562178">
        <ele>6.543</ele>
        <time>2022-12-10T14:04:27Z</time>
      </trkpt>
      <trkpt lat="36.729462" lon="-3.562131">
        <ele>5.153</ele>
        <time>2022-12-10T14:04:34Z</time>
      </trkpt>
      <trkpt lat="36.729271" lon="-3.562088">
        <ele>4.414</ele>
        <time>2022-12-10T14:04:41Z</time>
      </trkpt>
      <trkpt lat="36.729080" lon="-3.562029">
        <ele>4.554</ele>
        <time>2022-12-10T14:04:48Z</time>
      </trkpt>
      <trkpt lat="36.728889" lon="-3.561973">
        <ele>5.909</ele>
        <time>2022-12-10T14:04:55Z</time>
      </trkpt>
      <trkpt lat="36.728701" lon="-3.561935">
        <ele>6.709</ele>
        <time>2022-12-10T14:05:03Z</time>
      </trkpt>
      <trkpt lat="36.728560" lon="-3.561783">
        <ele>6.382</ele>
        <time>2022-12-10T14:05:10Z</time>
      </trkpt>
      <trkpt lat="36.728401" lon="-3.561648">
        <ele>5.913</ele>
        <time>2022-12-10T14:05:17Z</time>
      </trkpt>
      <trkpt lat="36.728331" lon="-3.561635">
        <ele>5.952</ele>
        <time>2022-12-10T14:05:21Z</time>
      </trkpt>
      <trkpt lat="36.728155" lon="-3.561699">
        <ele>6.071</ele>
        <time>2022-12-10T14:05:34Z</time>
      </trkpt>
      <trkpt lat="36.727971" lon="-3.561751">
        <ele>6.093</ele>
        <time>2022-12-10T14:05:46Z</time>
      </trkpt>
      <trkpt lat="36.727808" lon="-3.561853">
        <ele>6.089</ele>
        <time>2022-12-10T14:05:59Z</time>
      </trkpt>
      <trkpt lat="36.727660" lon="-3.561995">
        <ele>5.970</ele>
        <time>2022-12-10T14:06:13Z</time>
      </trkpt>
      <trkpt lat="36.727512" lon="-3.562125">
        <ele>6.093</ele>
        <time>2022-12-10T14:06:25Z</time>
      </trkpt>
      <trkpt lat="36.727355" lon="-3.562235">
        <ele>6.013</ele>
        <time>2022-12-10T14:06:35Z</time>
      </trkpt>
      <trkpt lat="36.727194" lon="-3.562358">
        <ele>5.522</ele>
        <time>2022-12-10T14:06:47Z</time>
      </trkpt>
      <trkpt lat="36.727018" lon="-3.562443">
        <ele>5.262</ele>
        <time>2022-12-10T14:06:58Z</time>
      </trkpt>
      <trkpt lat="36.726852" lon="-3.562531">
        <ele>4.608</ele>
        <time>2022-12-10T14:07:09Z</time>
      </trkpt>
      <trkpt lat="36.726791" lon="-3.562573">
        <ele>4.309</ele>
        <time>2022-12-10T14:07:14Z</time>
      </trkpt>
      <trkpt lat="36.726614" lon="-3.562671">
        <ele>4.183</ele>
        <time>2022-12-10T14:07:27Z</time>
      </trkpt>
      <trkpt lat="36.726449" lon="-3.562804">
        <ele>4.014</ele>
        <time>2022-12-10T14:07:40Z</time>
      </trkpt>
      <trkpt lat="36.726277" lon="-3.562907">
        <ele>4.023</ele>
        <time>2022-12-10T14:07:52Z</time>
      </trkpt>
      <trkpt lat="36.726203" lon="-3.562955">
        <ele>4.092</ele>
        <time>2022-12-10T14:07:57Z</time>
      </trkpt>
      <trkpt lat="36.726048" lon="-3.563038">
        <ele>4.044</ele>
        <time>2022-12-10T14:08:08Z</time>
      </trkpt>
      <trkpt lat="36.725872" lon="-3.563135">
        <ele>4.360</ele>
        <time>2022-12-10T14:08:20Z</time>
      </trkpt>
      <trkpt lat="36.725858" lon="-3.563145">
        <ele>4.311</ele>
        <time>2022-12-10T14:08:21Z</time>
      </trkpt>
      <trkpt lat="36.725700" lon="-3.563262">
        <ele>4.934</ele>
        <time>2022-12-10T14:08:35Z</time>
      </trkpt>
      <trkpt lat="36.725517" lon="-3.563342">
        <ele>5.064</ele>
        <time>2022-12-10T14:08:49Z</time>
      </trkpt>
      <trkpt lat="36.725443" lon="-3.563414">
        <ele>5.018</ele>
        <time>2022-12-10T14:08:55Z</time>
      </trkpt>
      <trkpt lat="36.725269" lon="-3.563521">
        <ele>5.098</ele>
        <time>2022-12-10T14:09:07Z</time>
      </trkpt>
      <trkpt lat="36.725109" lon="-3.563618">
        <ele>5.017</ele>
        <time>2022-12-10T14:09:18Z</time>
      </trkpt>
      <trkpt lat="36.724933" lon="-3.563714">
        <ele>4.809</ele>
        <time>2022-12-10T14:09:31Z</time>
      </trkpt>
      <trkpt lat="36.724832" lon="-3.563750">
        <ele>4.792</ele>
        <time>2022-12-10T14:09:39Z</time>
      </trkpt>
      <trkpt lat="36.724658" lon="-3.563832">
        <ele>4.653</ele>
        <time>2022-12-10T14:09:52Z</time>
      </trkpt>
      <trkpt lat="36.724493" lon="-3.563933">
        <ele>4.252</ele>
        <time>2022-12-10T14:10:05Z</time>
      </trkpt>
      <trkpt lat="36.724334" lon="-3.564042">
        <ele>3.611</ele>
        <time>2022-12-10T14:10:17Z</time>
      </trkpt>
      <trkpt lat="36.724199" lon="-3.564109">
        <ele>3.183</ele>
        <time>2022-12-10T14:10:28Z</time>
      </trkpt>
      <trkpt lat="36.724028" lon="-3.564178">
        <ele>3.079</ele>
        <time>2022-12-10T14:10:40Z</time>
      </trkpt>
      <trkpt lat="36.723878" lon="-3.564245">
        <ele>3.090</ele>
        <time>2022-12-10T14:10:50Z</time>
      </trkpt>
      <trkpt lat="36.723736" lon="-3.564099">
        <ele>3.033</ele>
        <time>2022-12-10T14:11:03Z</time>
      </trkpt>
      <trkpt lat="36.723667" lon="-3.563885">
        <ele>3.033</ele>
        <time>2022-12-10T14:11:16Z</time>
      </trkpt>
      <trkpt lat="36.723648" lon="-3.563836">
        <ele>3.087</ele>
        <time>2022-12-10T14:11:19Z</time>
      </trkpt>
      <trkpt lat="36.723507" lon="-3.563772">
        <ele>3.242</ele>
        <time>2022-12-10T14:11:29Z</time>
      </trkpt>
      <trkpt lat="36.723327" lon="-3.563695">
        <ele>3.726</ele>
        <time>2022-12-10T14:11:41Z</time>
      </trkpt>
      <trkpt lat="36.723141" lon="-3.563633">
        <ele>3.309</ele>
        <time>2022-12-10T14:11:51Z</time>
      </trkpt>
      <trkpt lat="36.722976" lon="-3.563524">
        <ele>3.369</ele>
        <time>2022-12-10T14:12:01Z</time>
      </trkpt>
      <trkpt lat="36.722818" lon="-3.563407">
        <ele>3.720</ele>
        <time>2022-12-10T14:12:08Z</time>
      </trkpt>
      <trkpt lat="36.722646" lon="-3.563297">
        <ele>4.169</ele>
        <time>2022-12-10T14:12:15Z</time>
      </trkpt>
      <trkpt lat="36.722491" lon="-3.563131">
        <ele>4.768</ele>
        <time>2022-12-10T14:12:23Z</time>
      </trkpt>
      <trkpt lat="36.722355" lon="-3.562945">
        <ele>4.510</ele>
        <time>2022-12-10T14:12:30Z</time>
      </trkpt>
      <trkpt lat="36.722264" lon="-3.562792">
        <ele>4.236</ele>
        <time>2022-12-10T14:12:37Z</time>
      </trkpt>
      <trkpt lat="36.722111" lon="-3.562671">
        <ele>3.477</ele>
        <time>2022-12-10T14:12:43Z</time>
      </trkpt>
      <trkpt lat="36.721951" lon="-3.562528">
        <ele>2.990</ele>
        <time>2022-12-10T14:12:51Z</time>
      </trkpt>
      <trkpt lat="36.721758" lon="-3.562433">
        <ele>2.310</ele>
        <time>2022-12-10T14:12:58Z</time>
      </trkpt>
      <trkpt lat="36.721565" lon="-3.562507">
        <ele>2.099</ele>
        <time>2022-12-10T14:13:04Z</time>
      </trkpt>
      <trkpt lat="36.721397" lon="-3.562609">
        <ele>1.607</ele>
        <time>2022-12-10T14:13:10Z</time>
      </trkpt>
      <trkpt lat="36.721233" lon="-3.562742">
        <ele>0.627</ele>
        <time>2022-12-10T14:13:17Z</time>
      </trkpt>
      <trkpt lat="36.721053" lon="-3.562842">
        <ele>-0.209</ele>
        <time>2022-12-10T14:13:25Z</time>
      </trkpt>
      <trkpt lat="36.721002" lon="-3.562861">
        <ele>-0.350</ele>
        <time>2022-12-10T14:13:28Z</time>
      </trkpt>
      <trkpt lat="36.720916" lon="-3.562647">
        <ele>0.961</ele>
        <time>2022-12-10T14:13:36Z</time>
      </trkpt>
      <trkpt lat="36.720874" lon="-3.562562">
        <ele>1.650</ele>
        <time>2022-12-10T14:13:40Z</time>
      </trkpt>
      <trkpt lat="36.720843" lon="-3.562541">
        <ele>1.779</ele>
        <time>2022-12-10T14:13:42Z</time>
      </trkpt>
      <trkpt lat="36.720808" lon="-3.562508">
        <ele>2.121</ele>
        <time>2022-12-10T14:13:44Z</time>
      </trkpt>
      <trkpt lat="36.720635" lon="-3.562594">
        <ele>2.817</ele>
        <time>2022-12-10T14:13:51Z</time>
      </trkpt>
      <trkpt lat="36.720446" lon="-3.562684">
        <ele>2.748</ele>
        <time>2022-12-10T14:13:59Z</time>
      </trkpt>
      <trkpt lat="36.720252" lon="-3.562731">
        <ele>2.231</ele>
        <time>2022-12-10T14:14:06Z</time>
      </trkpt>
      <trkpt lat="36.720079" lon="-3.562799">
        <ele>1.371</ele>
        <time>2022-12-10T14:14:12Z</time>
      </trkpt>
      <trkpt lat="36.719895" lon="-3.562908">
        <ele>1.197</ele>
        <time>2022-12-10T14:14:19Z</time>
      </trkpt>
      <trkpt lat="36.719716" lon="-3.563002">
        <ele>0.823</ele>
        <time>2022-12-10T14:14:27Z</time>
      </trkpt>
      <trkpt lat="36.719591" lon="-3.563044">
        <ele>1.025</ele>
        <time>2022-12-10T14:14:32Z</time>
      </trkpt>
      <trkpt lat="36.719403" lon="-3.563147">
        <ele>0.909</ele>
        <time>2022-12-10T14:14:40Z</time>
      </trkpt>
      <trkpt lat="36.719235" lon="-3.563275">
        <ele>0.260</ele>
        <time>2022-12-10T14:14:47Z</time>
      </trkpt>
      <trkpt lat="36.719098" lon="-3.563347">
        <ele>-0.521</ele>
        <time>2022-12-10T14:14:54Z</time>
      </trkpt>
      <trkpt lat="36.719075" lon="-3.563359">
        <ele>-0.720</ele>
        <time>2022-12-10T14:14:57Z</time>
      </trkpt>
      <trkpt lat="36.719037" lon="-3.563376">
        <ele>-0.939</ele>
        <time>2022-12-10T14:14:59Z</time>
      </trkpt>
      <trkpt lat="36.718921" lon="-3.563427">
        <ele>-1.811</ele>
        <time>2022-12-10T14:15:05Z</time>
      </trkpt>
      <trkpt lat="36.718745" lon="-3.563508">
        <ele>-2.567</ele>
        <time>2022-12-10T14:15:13Z</time>
      </trkpt>
      <trkpt lat="36.718670" lon="-3.563561">
        <ele>-2.838</ele>
        <time>2022-12-10T14:15:16Z</time>
      </trkpt>
      <trkpt lat="36.718630" lon="-3.563549">
        <ele>-2.911</ele>
        <time>2022-12-10T14:15:18Z</time>
      </trkpt>
      <trkpt lat="36.718520" lon="-3.563348">
        <ele>-2.751</ele>
        <time>2022-12-10T14:15:27Z</time>
      </trkpt>
      <trkpt lat="36.718369" lon="-3.563193">
        <ele>-1.685</ele>
        <time>2022-12-10T14:15:36Z</time>
      </trkpt>
      <trkpt lat="36.718274" lon="-3.562986">
        <ele>-0.489</ele>
        <time>2022-12-10T14:15:44Z</time>
      </trkpt>
      <trkpt lat="36.718275" lon="-3.562960">
        <ele>-0.017</ele>
        <time>2022-12-10T14:15:45Z</time>
      </trkpt>
      <trkpt lat="36.718250" lon="-3.562728">
        <ele>2.309</ele>
        <time>2022-12-10T14:15:54Z</time>
      </trkpt>
      <trkpt lat="36.718229" lon="-3.562477">
        <ele>1.699</ele>
        <time>2022-12-10T14:16:02Z</time>
      </trkpt>
      <trkpt lat="36.718172" lon="-3.562237">
        <ele>1.030</ele>
        <time>2022-12-10T14:16:10Z</time>
      </trkpt>
      <trkpt lat="36.718108" lon="-3.561999">
        <ele>1.829</ele>
        <time>2022-12-10T14:16:18Z</time>
      </trkpt>
      <trkpt lat="36.718060" lon="-3.561783">
        <ele>1.468</ele>
        <time>2022-12-10T14:16:25Z</time>
      </trkpt>
      <trkpt lat="36.717960" lon="-3.561561">
        <ele>1.070</ele>
        <time>2022-12-10T14:16:33Z</time>
      </trkpt>
      <trkpt lat="36.717876" lon="-3.561353">
        <ele>1.056</ele>
        <time>2022-12-10T14:16:40Z</time>
      </trkpt>
      <trkpt lat="36.717838" lon="-3.561101">
        <ele>1.027</ele>
        <time>2022-12-10T14:16:48Z</time>
      </trkpt>
      <trkpt lat="36.717805" lon="-3.560875">
        <ele>1.190</ele>
        <time>2022-12-10T14:16:55Z</time>
      </trkpt>
      <trkpt lat="36.717749" lon="-3.560645">
        <ele>1.810</ele>
        <time>2022-12-10T14:17:03Z</time>
      </trkpt>
      <trkpt lat="36.717679" lon="-3.560426">
        <ele>2.438</ele>
        <time>2022-12-10T14:17:10Z</time>
      </trkpt>
      <trkpt lat="36.717600" lon="-3.560192">
        <ele>2.370</ele>
        <time>2022-12-10T14:17:18Z</time>
      </trkpt>
      <trkpt lat="36.717550" lon="-3.559968">
        <ele>1.617</ele>
        <time>2022-12-10T14:17:25Z</time>
      </trkpt>
      <trkpt lat="36.717474" lon="-3.559737">
        <ele>0.209</ele>
        <time>2022-12-10T14:17:33Z</time>
      </trkpt>
      <trkpt lat="36.717409" lon="-3.559527">
        <ele>0.394</ele>
        <time>2022-12-10T14:17:40Z</time>
      </trkpt>
      <trkpt lat="36.717308" lon="-3.559309">
        <ele>1.065</ele>
        <time>2022-12-10T14:17:48Z</time>
      </trkpt>
      <trkpt lat="36.717235" lon="-3.559098">
        <ele>1.964</ele>
        <time>2022-12-10T14:17:55Z</time>
      </trkpt>
      <trkpt lat="36.717133" lon="-3.558907">
        <ele>1.753</ele>
        <time>2022-12-10T14:18:02Z</time>
      </trkpt>
      <trkpt lat="36.717021" lon="-3.558716">
        <ele>0.875</ele>
        <time>2022-12-10T14:18:09Z</time>
      </trkpt>
      <trkpt lat="36.716913" lon="-3.558510">
        <ele>0.661</ele>
        <time>2022-12-10T14:18:16Z</time>
      </trkpt>
      <trkpt lat="36.716805" lon="-3.558315">
        <ele>1.052</ele>
        <time>2022-12-10T14:18:23Z</time>
      </trkpt>
      <trkpt lat="36.716760" lon="-3.558289">
        <ele>0.835</ele>
        <time>2022-12-10T14:18:25Z</time>
      </trkpt>
      <trkpt lat="36.716591" lon="-3.558313">
        <ele>0.325</ele>
        <time>2022-12-10T14:18:31Z</time>
      </trkpt>
      <trkpt lat="36.716571" lon="-3.558307">
        <ele>0.478</ele>
        <time>2022-12-10T14:18:32Z</time>
      </trkpt>
      <trkpt lat="36.716508" lon="-3.558172">
        <ele>0.833</ele>
        <time>2022-12-10T14:18:37Z</time>
      </trkpt>
      <trkpt lat="36.716460" lon="-3.558023">
        <ele>0.926</ele>
        <time>2022-12-10T14:18:42Z</time>
      </trkpt>
      <trkpt lat="36.716449" lon="-3.557768">
        <ele>0.209</ele>
        <time>2022-12-10T14:18:49Z</time>
      </trkpt>
      <trkpt lat="36.716414" lon="-3.557527">
        <ele>0.958</ele>
        <time>2022-12-10T14:18:56Z</time>
      </trkpt>
      <trkpt lat="36.716337" lon="-3.557302">
        <ele>2.619</ele>
        <time>2022-12-10T14:19:03Z</time>
      </trkpt>
      <trkpt lat="36.716296" lon="-3.557069">
        <ele>4.878</ele>
        <time>2022-12-10T14:19:10Z</time>
      </trkpt>
      <trkpt lat="36.716205" lon="-3.556845">
        <ele>6.127</ele>
        <time>2022-12-10T14:19:17Z</time>
      </trkpt>
      <trkpt lat="36.716135" lon="-3.556620">
        <ele>5.929</ele>
        <time>2022-12-10T14:19:24Z</time>
      </trkpt>
      <trkpt lat="36.716071" lon="-3.556403">
        <ele>4.875</ele>
        <time>2022-12-10T14:19:31Z</time>
      </trkpt>
      <trkpt lat="36.716003" lon="-3.556185">
        <ele>3.846</ele>
        <time>2022-12-10T14:19:38Z</time>
      </trkpt>
      <trkpt lat="36.715922" lon="-3.555955">
        <ele>3.359</ele>
        <time>2022-12-10T14:19:45Z</time>
      </trkpt>
      <trkpt lat="36.715844" lon="-3.555731">
        <ele>3.039</ele>
        <time>2022-12-10T14:19:52Z</time>
      </trkpt>
      <trkpt lat="36.715759" lon="-3.555531">
        <ele>2.866</ele>
        <time>2022-12-10T14:19:58Z</time>
      </trkpt>
      <trkpt lat="36.715673" lon="-3.555318">
        <ele>3.329</ele>
        <time>2022-12-10T14:20:05Z</time>
      </trkpt>
      <trkpt lat="36.715601" lon="-3.555097">
        <ele>2.621</ele>
        <time>2022-12-10T14:20:12Z</time>
      </trkpt>
      <trkpt lat="36.715596" lon="-3.554874">
        <ele>1.809</ele>
        <time>2022-12-10T14:20:19Z</time>
      </trkpt>
      <trkpt lat="36.715560" lon="-3.554654">
        <ele>0.517</ele>
        <time>2022-12-10T14:20:26Z</time>
      </trkpt>
      <trkpt lat="36.715512" lon="-3.554430">
        <ele>-1.048</ele>
        <time>2022-12-10T14:20:33Z</time>
      </trkpt>
      <trkpt lat="36.715457" lon="-3.554194">
        <ele>-1.017</ele>
        <time>2022-12-10T14:20:40Z</time>
      </trkpt>
      <trkpt lat="36.715413" lon="-3.553959">
        <ele>-0.356</ele>
        <time>2022-12-10T14:20:47Z</time>
      </trkpt>
      <trkpt lat="36.715382" lon="-3.553727">
        <ele>0.688</ele>
        <time>2022-12-10T14:20:54Z</time>
      </trkpt>
      <trkpt lat="36.715336" lon="-3.553504">
        <ele>1.074</ele>
        <time>2022-12-10T14:21:01Z</time>
      </trkpt>
      <trkpt lat="36.715312" lon="-3.553278">
        <ele>1.095</ele>
        <time>2022-12-10T14:21:08Z</time>
      </trkpt>
      <trkpt lat="36.715308" lon="-3.553030">
        <ele>1.038</ele>
        <time>2022-12-10T14:21:15Z</time>
      </trkpt>
      <trkpt lat="36.715305" lon="-3.552803">
        <ele>1.028</ele>
        <time>2022-12-10T14:21:22Z</time>
      </trkpt>
      <trkpt lat="36.715303" lon="-3.552771">
        <ele>1.041</ele>
        <time>2022-12-10T14:21:23Z</time>
      </trkpt>
      <trkpt lat="36.715169" lon="-3.552639">
        <ele>0.681</ele>
        <time>2022-12-10T14:21:31Z</time>
      </trkpt>
      <trkpt lat="36.715189" lon="-3.552593">
        <ele>0.709</ele>
        <time>2022-12-10T14:21:34Z</time>
      </trkpt>
      <trkpt lat="36.715201" lon="-3.552571">
        <ele>0.709</ele>
        <time>2022-12-10T14:21:35Z</time>
      </trkpt>
      <trkpt lat="36.715192" lon="-3.552325">
        <ele>0.195</ele>
        <time>2022-12-10T14:21:42Z</time>
      </trkpt>
      <trkpt lat="36.715189" lon="-3.552287">
        <ele>-0.126</ele>
        <time>2022-12-10T14:21:43Z</time>
      </trkpt>
      <trkpt lat="36.715179" lon="-3.552043">
        <ele>-1.025</ele>
        <time>2022-12-10T14:21:50Z</time>
      </trkpt>
      <trkpt lat="36.715187" lon="-3.551796">
        <ele>-1.754</ele>
        <time>2022-12-10T14:21:57Z</time>
      </trkpt>
      <trkpt lat="36.715202" lon="-3.551564">
        <ele>-2.146</ele>
        <time>2022-12-10T14:22:04Z</time>
      </trkpt>
      <trkpt lat="36.715235" lon="-3.551327">
        <ele>-2.252</ele>
        <time>2022-12-10T14:22:11Z</time>
      </trkpt>
      <trkpt lat="36.715273" lon="-3.551088">
        <ele>-2.013</ele>
        <time>2022-12-10T14:22:18Z</time>
      </trkpt>
      <trkpt lat="36.715284" lon="-3.551018">
        <ele>-2.066</ele>
        <time>2022-12-10T14:22:20Z</time>
      </trkpt>
      <trkpt lat="36.715342" lon="-3.550797">
        <ele>-1.646</ele>
        <time>2022-12-10T14:22:27Z</time>
      </trkpt>
      <trkpt lat="36.715419" lon="-3.550585">
        <ele>-0.645</ele>
        <time>2022-12-10T14:22:34Z</time>
      </trkpt>
      <trkpt lat="36.715498" lon="-3.550363">
        <ele>0.547</ele>
        <time>2022-12-10T14:22:41Z</time>
      </trkpt>
      <trkpt lat="36.715565" lon="-3.550149">
        <ele>1.011</ele>
        <time>2022-12-10T14:22:48Z</time>
      </trkpt>
      <trkpt lat="36.715626" lon="-3.549934">
        <ele>0.709</ele>
        <time>2022-12-10T14:22:55Z</time>
      </trkpt>
      <trkpt lat="36.715700" lon="-3.549723">
        <ele>0.595</ele>
        <time>2022-12-10T14:23:02Z</time>
      </trkpt>
      <trkpt lat="36.715787" lon="-3.549514">
        <ele>0.246</ele>
        <time>2022-12-10T14:23:09Z</time>
      </trkpt>
      <trkpt lat="36.715885" lon="-3.549317">
        <ele>-0.155</ele>
        <time>2022-12-10T14:23:16Z</time>
      </trkpt>
      <trkpt lat="36.716016" lon="-3.549124">
        <ele>0.164</ele>
        <time>2022-12-10T14:23:24Z</time>
      </trkpt>
      <trkpt lat="36.716148" lon="-3.548949">
        <ele>0.896</ele>
        <time>2022-12-10T14:23:31Z</time>
      </trkpt>
      <trkpt lat="36.716241" lon="-3.548735">
        <ele>1.092</ele>
        <time>2022-12-10T14:23:39Z</time>
      </trkpt>
      <trkpt lat="36.716240" lon="-3.548710">
        <ele>1.023</ele>
        <time>2022-12-10T14:23:40Z</time>
      </trkpt>
      <trkpt lat="36.716088" lon="-3.548563">
        <ele>1.116</ele>
        <time>2022-12-10T14:23:49Z</time>
      </trkpt>
      <trkpt lat="36.715923" lon="-3.548431">
        <ele>1.786</ele>
        <time>2022-12-10T14:23:57Z</time>
      </trkpt>
      <trkpt lat="36.715799" lon="-3.548265">
        <ele>1.599</ele>
        <time>2022-12-10T14:24:05Z</time>
      </trkpt>
      <trkpt lat="36.715900" lon="-3.548069">
        <ele>1.007</ele>
        <time>2022-12-10T14:24:14Z</time>
      </trkpt>
      <trkpt lat="36.716033" lon="-3.547912">
        <ele>0.927</ele>
        <time>2022-12-10T14:24:22Z</time>
      </trkpt>
      <trkpt lat="36.716182" lon="-3.547749">
        <ele>1.009</ele>
        <time>2022-12-10T14:24:30Z</time>
      </trkpt>
      <trkpt lat="36.716306" lon="-3.547568">
        <ele>1.070</ele>
        <time>2022-12-10T14:24:41Z</time>
      </trkpt>
      <trkpt lat="36.716435" lon="-3.547388">
        <ele>0.971</ele>
        <time>2022-12-10T14:24:53Z</time>
      </trkpt>
      <trkpt lat="36.716572" lon="-3.547218">
        <ele>1.030</ele>
        <time>2022-12-10T14:25:04Z</time>
      </trkpt>
      <trkpt lat="36.716696" lon="-3.547042">
        <ele>1.049</ele>
        <time>2022-12-10T14:25:15Z</time>
      </trkpt>
      <trkpt lat="36.716807" lon="-3.546848">
        <ele>1.091</ele>
        <time>2022-12-10T14:25:27Z</time>
      </trkpt>
      <trkpt lat="36.716919" lon="-3.546669">
        <ele>1.027</ele>
        <time>2022-12-10T14:25:39Z</time>
      </trkpt>
      <trkpt lat="36.717039" lon="-3.546502">
        <ele>0.388</ele>
        <time>2022-12-10T14:25:51Z</time>
      </trkpt>
      <trkpt lat="36.717168" lon="-3.546324">
        <ele>0.271</ele>
        <time>2022-12-10T14:26:03Z</time>
      </trkpt>
      <trkpt lat="36.717294" lon="-3.546140">
        <ele>0.481</ele>
        <time>2022-12-10T14:26:16Z</time>
      </trkpt>
      <trkpt lat="36.717400" lon="-3.545957">
        <ele>0.427</ele>
        <time>2022-12-10T14:26:29Z</time>
      </trkpt>
      <trkpt lat="36.717519" lon="-3.545785">
        <ele>0.968</ele>
        <time>2022-12-10T14:26:40Z</time>
      </trkpt>
      <trkpt lat="36.717648" lon="-3.545613">
        <ele>0.914</ele>
        <time>2022-12-10T14:26:52Z</time>
      </trkpt>
      <trkpt lat="36.717764" lon="-3.545438">
        <ele>1.009</ele>
        <time>2022-12-10T14:27:04Z</time>
      </trkpt>
      <trkpt lat="36.717885" lon="-3.545253">
        <ele>0.963</ele>
        <time>2022-12-10T14:27:17Z</time>
      </trkpt>
      <trkpt lat="36.718022" lon="-3.545084">
        <ele>0.944</ele>
        <time>2022-12-10T14:27:29Z</time>
      </trkpt>
      <trkpt lat="36.718166" lon="-3.544937">
        <ele>0.483</ele>
        <time>2022-12-10T14:27:41Z</time>
      </trkpt>
      <trkpt lat="36.718305" lon="-3.544780">
        <ele>0.692</ele>
        <time>2022-12-10T14:27:55Z</time>
      </trkpt>
      <trkpt lat="36.718440" lon="-3.544633">
        <ele>0.874</ele>
        <time>2022-12-10T14:28:07Z</time>
      </trkpt>
      <trkpt lat="36.718579" lon="-3.544466">
        <ele>0.960</ele>
        <time>2022-12-10T14:28:20Z</time>
      </trkpt>
      <trkpt lat="36.718721" lon="-3.544319">
        <ele>0.721</ele>
        <time>2022-12-10T14:28:30Z</time>
      </trkpt>
      <trkpt lat="36.718870" lon="-3.544183">
        <ele>0.974</ele>
        <time>2022-12-10T14:28:40Z</time>
      </trkpt>
      <trkpt lat="36.719020" lon="-3.544044">
        <ele>0.864</ele>
        <time>2022-12-10T14:28:50Z</time>
      </trkpt>
      <trkpt lat="36.719081" lon="-3.543986">
        <ele>0.886</ele>
        <time>2022-12-10T14:28:54Z</time>
      </trkpt>
      <trkpt lat="36.719231" lon="-3.543854">
        <ele>1.260</ele>
        <time>2022-12-10T14:29:03Z</time>
      </trkpt>
      <trkpt lat="36.719374" lon="-3.543693">
        <ele>1.226</ele>
        <time>2022-12-10T14:29:14Z</time>
      </trkpt>
      <trkpt lat="36.719521" lon="-3.543531">
        <ele>1.009</ele>
        <time>2022-12-10T14:29:26Z</time>
      </trkpt>
      <trkpt lat="36.719669" lon="-3.543397">
        <ele>1.069</ele>
        <time>2022-12-10T14:29:36Z</time>
      </trkpt>
      <trkpt lat="36.719804" lon="-3.543215">
        <ele>1.090</ele>
        <time>2022-12-10T14:29:47Z</time>
      </trkpt>
      <trkpt lat="36.719949" lon="-3.543056">
        <ele>1.099</ele>
        <time>2022-12-10T14:29:58Z</time>
      </trkpt>
      <trkpt lat="36.720078" lon="-3.542890">
        <ele>1.228</ele>
        <time>2022-12-10T14:30:08Z</time>
      </trkpt>
      <trkpt lat="36.720231" lon="-3.542769">
        <ele>1.030</ele>
        <time>2022-12-10T14:30:18Z</time>
      </trkpt>
      <trkpt lat="36.720381" lon="-3.542619">
        <ele>1.276</ele>
        <time>2022-12-10T14:30:29Z</time>
      </trkpt>
      <trkpt lat="36.720524" lon="-3.542461">
        <ele>1.077</ele>
        <time>2022-12-10T14:30:40Z</time>
      </trkpt>
      <trkpt lat="36.720653" lon="-3.542285">
        <ele>2.010</ele>
        <time>2022-12-10T14:30:51Z</time>
      </trkpt>
      <trkpt lat="36.720770" lon="-3.542109">
        <ele>3.580</ele>
        <time>2022-12-10T14:31:01Z</time>
      </trkpt>
      <trkpt lat="36.720895" lon="-3.541942">
        <ele>5.468</ele>
        <time>2022-12-10T14:31:12Z</time>
      </trkpt>
      <trkpt lat="36.721047" lon="-3.541783">
        <ele>6.442</ele>
        <time>2022-12-10T14:31:23Z</time>
      </trkpt>
      <trkpt lat="36.721195" lon="-3.541636">
        <ele>6.526</ele>
        <time>2022-12-10T14:31:34Z</time>
      </trkpt>
      <trkpt lat="36.721327" lon="-3.541483">
        <ele>5.809</ele>
        <time>2022-12-10T14:31:44Z</time>
      </trkpt>
      <trkpt lat="36.721441" lon="-3.541288">
        <ele>5.217</ele>
        <time>2022-12-10T14:31:54Z</time>
      </trkpt>
      <trkpt lat="36.721483" lon="-3.541068">
        <ele>3.688</ele>
        <time>2022-12-10T14:32:04Z</time>
      </trkpt>
      <trkpt lat="36.721563" lon="-3.540864">
        <ele>2.817</ele>
        <time>2022-12-10T14:32:15Z</time>
      </trkpt>
      <trkpt lat="36.721660" lon="-3.540675">
        <ele>3.996</ele>
        <time>2022-12-10T14:32:25Z</time>
      </trkpt>
      <trkpt lat="36.721778" lon="-3.540491">
        <ele>4.178</ele>
        <time>2022-12-10T14:32:34Z</time>
      </trkpt>
      <trkpt lat="36.721897" lon="-3.540317">
        <ele>3.614</ele>
        <time>2022-12-10T14:32:43Z</time>
      </trkpt>
      <trkpt lat="36.721987" lon="-3.540108">
        <ele>2.915</ele>
        <time>2022-12-10T14:32:54Z</time>
      </trkpt>
      <trkpt lat="36.722048" lon="-3.539881">
        <ele>1.728</ele>
        <time>2022-12-10T14:33:06Z</time>
      </trkpt>
      <trkpt lat="36.722080" lon="-3.539653">
        <ele>0.718</ele>
        <time>2022-12-10T14:33:18Z</time>
      </trkpt>
      <trkpt lat="36.722137" lon="-3.539422">
        <ele>0.095</ele>
        <time>2022-12-10T14:33:32Z</time>
      </trkpt>
      <trkpt lat="36.722238" lon="-3.539232">
        <ele>0.149</ele>
        <time>2022-12-10T14:33:43Z</time>
      </trkpt>
      <trkpt lat="36.722338" lon="-3.539039">
        <ele>0.223</ele>
        <time>2022-12-10T14:33:55Z</time>
      </trkpt>
      <trkpt lat="36.722443" lon="-3.538858">
        <ele>0.009</ele>
        <time>2022-12-10T14:34:05Z</time>
      </trkpt>
      <trkpt lat="36.722532" lon="-3.538642">
        <ele>0.310</ele>
        <time>2022-12-10T14:34:17Z</time>
      </trkpt>
      <trkpt lat="36.722606" lon="-3.538433">
        <ele>0.451</ele>
        <time>2022-12-10T14:34:28Z</time>
      </trkpt>
      <trkpt lat="36.722636" lon="-3.538336">
        <ele>0.070</ele>
        <time>2022-12-10T14:34:33Z</time>
      </trkpt>
      <trkpt lat="36.722708" lon="-3.538118">
        <ele>0.089</ele>
        <time>2022-12-10T14:34:44Z</time>
      </trkpt>
      <trkpt lat="36.722779" lon="-3.537903">
        <ele>0.011</ele>
        <time>2022-12-10T14:34:56Z</time>
      </trkpt>
      <trkpt lat="36.722845" lon="-3.537685">
        <ele>1.017</ele>
        <time>2022-12-10T14:35:08Z</time>
      </trkpt>
      <trkpt lat="36.722861" lon="-3.537455">
        <ele>1.188</ele>
        <time>2022-12-10T14:35:20Z</time>
      </trkpt>
      <trkpt lat="36.722927" lon="-3.537250">
        <ele>1.761</ele>
        <time>2022-12-10T14:35:30Z</time>
      </trkpt>
      <trkpt lat="36.722984" lon="-3.537023">
        <ele>2.871</ele>
        <time>2022-12-10T14:35:42Z</time>
      </trkpt>
      <trkpt lat="36.723025" lon="-3.536805">
        <ele>3.686</ele>
        <time>2022-12-10T14:35:53Z</time>
      </trkpt>
      <trkpt lat="36.723032" lon="-3.536573">
        <ele>3.760</ele>
        <time>2022-12-10T14:36:05Z</time>
      </trkpt>
      <trkpt lat="36.723065" lon="-3.536340">
        <ele>4.026</ele>
        <time>2022-12-10T14:36:17Z</time>
      </trkpt>
      <trkpt lat="36.723077" lon="-3.536118">
        <ele>4.009</ele>
        <time>2022-12-10T14:36:28Z</time>
      </trkpt>
      <trkpt lat="36.723116" lon="-3.535884">
        <ele>4.239</ele>
        <time>2022-12-10T14:36:40Z</time>
      </trkpt>
      <trkpt lat="36.723177" lon="-3.535660">
        <ele>4.890</ele>
        <time>2022-12-10T14:36:53Z</time>
      </trkpt>
      <trkpt lat="36.723261" lon="-3.535440">
        <ele>4.689</ele>
        <time>2022-12-10T14:37:06Z</time>
      </trkpt>
      <trkpt lat="36.723293" lon="-3.535418">
        <ele>4.528</ele>
        <time>2022-12-10T14:37:08Z</time>
      </trkpt>
      <trkpt lat="36.723484" lon="-3.535377">
        <ele>3.820</ele>
        <time>2022-12-10T14:37:19Z</time>
      </trkpt>
      <trkpt lat="36.723673" lon="-3.535414">
        <ele>3.496</ele>
        <time>2022-12-10T14:37:32Z</time>
      </trkpt>
      <trkpt lat="36.723848" lon="-3.535383">
        <ele>3.157</ele>
        <time>2022-12-10T14:37:43Z</time>
      </trkpt>
      <trkpt lat="36.723887" lon="-3.535357">
        <ele>3.070</ele>
        <time>2022-12-10T14:37:46Z</time>
      </trkpt>
      <trkpt lat="36.724068" lon="-3.535338">
        <ele>3.010</ele>
        <time>2022-12-10T14:37:58Z</time>
      </trkpt>
      <trkpt lat="36.724238" lon="-3.535251">
        <ele>2.995</ele>
        <time>2022-12-10T14:38:08Z</time>
      </trkpt>
      <trkpt lat="36.724415" lon="-3.535138">
        <ele>2.549</ele>
        <time>2022-12-10T14:38:14Z</time>
      </trkpt>
      <trkpt lat="36.724610" lon="-3.535080">
        <ele>2.723</ele>
        <time>2022-12-10T14:38:21Z</time>
      </trkpt>
      <trkpt lat="36.724783" lon="-3.535011">
        <ele>2.809</ele>
        <time>2022-12-10T14:38:28Z</time>
      </trkpt>
      <trkpt lat="36.724952" lon="-3.534909">
        <ele>2.410</ele>
        <time>2022-12-10T14:38:36Z</time>
      </trkpt>
      <trkpt lat="36.725004" lon="-3.534897">
        <ele>2.491</ele>
        <time>2022-12-10T14:38:38Z</time>
      </trkpt>
      <trkpt lat="36.725091" lon="-3.534883">
        <ele>2.130</ele>
        <time>2022-12-10T14:38:44Z</time>
      </trkpt>
      <trkpt lat="36.725208" lon="-3.534887">
        <ele>1.719</ele>
        <time>2022-12-10T14:39:05Z</time>
      </trkpt>
      <trkpt lat="36.725365" lon="-3.534915">
        <ele>1.091</ele>
        <time>2022-12-10T14:39:11Z</time>
      </trkpt>
      <trkpt lat="36.725498" lon="-3.534922">
        <ele>0.517</ele>
        <time>2022-12-10T14:39:16Z</time>
      </trkpt>
      <trkpt lat="36.725685" lon="-3.534922">
        <ele>0.318</ele>
        <time>2022-12-10T14:39:23Z</time>
      </trkpt>
      <trkpt lat="36.725861" lon="-3.534855">
        <ele>0.591</ele>
        <time>2022-12-10T14:39:30Z</time>
      </trkpt>
      <trkpt lat="36.726045" lon="-3.534814">
        <ele>0.221</ele>
        <time>2022-12-10T14:39:37Z</time>
      </trkpt>
      <trkpt lat="36.726237" lon="-3.534763">
        <ele>0.026</ele>
        <time>2022-12-10T14:39:44Z</time>
      </trkpt>
      <trkpt lat="36.726425" lon="-3.534724">
        <ele>0.147</ele>
        <time>2022-12-10T14:39:50Z</time>
      </trkpt>
      <trkpt lat="36.726617" lon="-3.534705">
        <ele>0.811</ele>
        <time>2022-12-10T14:39:57Z</time>
      </trkpt>
      <trkpt lat="36.726812" lon="-3.534682">
        <ele>1.509</ele>
        <time>2022-12-10T14:40:04Z</time>
      </trkpt>
      <trkpt lat="36.727007" lon="-3.534646">
        <ele>2.013</ele>
        <time>2022-12-10T14:40:11Z</time>
      </trkpt>
      <trkpt lat="36.727196" lon="-3.534609">
        <ele>2.014</ele>
        <time>2022-12-10T14:40:18Z</time>
      </trkpt>
      <trkpt lat="36.727396" lon="-3.534586">
        <ele>2.023</ele>
        <time>2022-12-10T14:40:26Z</time>
      </trkpt>
      <trkpt lat="36.727470" lon="-3.534585">
        <ele>2.032</ele>
        <time>2022-12-10T14:40:29Z</time>
      </trkpt>
      <trkpt lat="36.727654" lon="-3.534566">
        <ele>2.014</ele>
        <time>2022-12-10T14:40:36Z</time>
      </trkpt>
      <trkpt lat="36.727852" lon="-3.534514">
        <ele>2.080</ele>
        <time>2022-12-10T14:40:43Z</time>
      </trkpt>
      <trkpt lat="36.728042" lon="-3.534466">
        <ele>2.041</ele>
        <time>2022-12-10T14:40:50Z</time>
      </trkpt>
      <trkpt lat="36.728227" lon="-3.534446">
        <ele>2.084</ele>
        <time>2022-12-10T14:40:57Z</time>
      </trkpt>
      <trkpt lat="36.728414" lon="-3.534416">
        <ele>1.954</ele>
        <time>2022-12-10T14:41:04Z</time>
      </trkpt>
      <trkpt lat="36.728549" lon="-3.534389">
        <ele>1.849</ele>
        <time>2022-12-10T14:41:09Z</time>
      </trkpt>
      <trkpt lat="36.728723" lon="-3.534339">
        <ele>1.402</ele>
        <time>2022-12-10T14:41:16Z</time>
      </trkpt>
      <trkpt lat="36.728909" lon="-3.534307">
        <ele>1.022</ele>
        <time>2022-12-10T14:41:23Z</time>
      </trkpt>
      <trkpt lat="36.729088" lon="-3.534267">
        <ele>0.509</ele>
        <time>2022-12-10T14:41:30Z</time>
      </trkpt>
      <trkpt lat="36.729272" lon="-3.534204">
        <ele>0.185</ele>
        <time>2022-12-10T14:41:37Z</time>
      </trkpt>
      <trkpt lat="36.729468" lon="-3.534141">
        <ele>-0.026</ele>
        <time>2022-12-10T14:41:44Z</time>
      </trkpt>
      <trkpt lat="36.729664" lon="-3.534081">
        <ele>0.595</ele>
        <time>2022-12-10T14:41:51Z</time>
      </trkpt>
      <trkpt lat="36.729846" lon="-3.534029">
        <ele>1.424</ele>
        <time>2022-12-10T14:41:58Z</time>
      </trkpt>
      <trkpt lat="36.730046" lon="-3.533982">
        <ele>2.516</ele>
        <time>2022-12-10T14:42:06Z</time>
      </trkpt>
      <trkpt lat="36.730238" lon="-3.533930">
        <ele>3.042</ele>
        <time>2022-12-10T14:42:13Z</time>
      </trkpt>
      <trkpt lat="36.730422" lon="-3.533883">
        <ele>3.093</ele>
        <time>2022-12-10T14:42:20Z</time>
      </trkpt>
      <trkpt lat="36.730608" lon="-3.533835">
        <ele>2.776</ele>
        <time>2022-12-10T14:42:27Z</time>
      </trkpt>
      <trkpt lat="36.730736" lon="-3.533794">
        <ele>2.236</ele>
        <time>2022-12-10T14:42:32Z</time>
      </trkpt>
      <trkpt lat="36.730932" lon="-3.533741">
        <ele>2.082</ele>
        <time>2022-12-10T14:42:39Z</time>
      </trkpt>
      <trkpt lat="36.731132" lon="-3.533693">
        <ele>1.943</ele>
        <time>2022-12-10T14:42:47Z</time>
      </trkpt>
      <trkpt lat="36.731319" lon="-3.533647">
        <ele>1.317</ele>
        <time>2022-12-10T14:42:54Z</time>
      </trkpt>
      <trkpt lat="36.731513" lon="-3.533603">
        <ele>1.009</ele>
        <time>2022-12-10T14:43:01Z</time>
      </trkpt>
      <trkpt lat="36.731692" lon="-3.533565">
        <ele>1.159</ele>
        <time>2022-12-10T14:43:08Z</time>
      </trkpt>
      <trkpt lat="36.731882" lon="-3.533521">
        <ele>2.070</ele>
        <time>2022-12-10T14:43:15Z</time>
      </trkpt>
      <trkpt lat="36.732066" lon="-3.533475">
        <ele>2.739</ele>
        <time>2022-12-10T14:43:22Z</time>
      </trkpt>
      <trkpt lat="36.732263" lon="-3.533420">
        <ele>3.048</ele>
        <time>2022-12-10T14:43:31Z</time>
      </trkpt>
      <trkpt lat="36.732451" lon="-3.533330">
        <ele>3.090</ele>
        <time>2022-12-10T14:43:39Z</time>
      </trkpt>
      <trkpt lat="36.732632" lon="-3.533228">
        <ele>2.896</ele>
        <time>2022-12-10T14:43:46Z</time>
      </trkpt>
      <trkpt lat="36.732807" lon="-3.533132">
        <ele>2.357</ele>
        <time>2022-12-10T14:43:53Z</time>
      </trkpt>
      <trkpt lat="36.732995" lon="-3.533040">
        <ele>2.010</ele>
        <time>2022-12-10T14:44:01Z</time>
      </trkpt>
      <trkpt lat="36.733185" lon="-3.532944">
        <ele>2.020</ele>
        <time>2022-12-10T14:44:09Z</time>
      </trkpt>
      <trkpt lat="36.733365" lon="-3.532842">
        <ele>2.023</ele>
        <time>2022-12-10T14:44:16Z</time>
      </trkpt>
      <trkpt lat="36.733545" lon="-3.532753">
        <ele>2.083</ele>
        <time>2022-12-10T14:44:23Z</time>
      </trkpt>
      <trkpt lat="36.733727" lon="-3.532664">
        <ele>2.811</ele>
        <time>2022-12-10T14:44:31Z</time>
      </trkpt>
      <trkpt lat="36.733913" lon="-3.532562">
        <ele>3.809</ele>
        <time>2022-12-10T14:44:38Z</time>
      </trkpt>
      <trkpt lat="36.734082" lon="-3.532469">
        <ele>4.033</ele>
        <time>2022-12-10T14:44:44Z</time>
      </trkpt>
      <trkpt lat="36.734254" lon="-3.532376">
        <ele>4.044</ele>
        <time>2022-12-10T14:44:51Z</time>
      </trkpt>
      <trkpt lat="36.734345" lon="-3.532317">
        <ele>4.073</ele>
        <time>2022-12-10T14:44:55Z</time>
      </trkpt>
      <trkpt lat="36.734521" lon="-3.532233">
        <ele>3.522</ele>
        <time>2022-12-10T14:45:02Z</time>
      </trkpt>
      <trkpt lat="36.734708" lon="-3.532141">
        <ele>2.464</ele>
        <time>2022-12-10T14:45:10Z</time>
      </trkpt>
      <trkpt lat="36.734886" lon="-3.532054">
        <ele>2.250</ele>
        <time>2022-12-10T14:45:18Z</time>
      </trkpt>
      <trkpt lat="36.735068" lon="-3.531969">
        <ele>2.021</ele>
        <time>2022-12-10T14:45:26Z</time>
      </trkpt>
      <trkpt lat="36.735155" lon="-3.531930">
        <ele>2.094</ele>
        <time>2022-12-10T14:45:30Z</time>
      </trkpt>
      <trkpt lat="36.735348" lon="-3.531845">
        <ele>2.164</ele>
        <time>2022-12-10T14:45:38Z</time>
      </trkpt>
      <trkpt lat="36.735505" lon="-3.531770">
        <ele>2.514</ele>
        <time>2022-12-10T14:45:44Z</time>
      </trkpt>
      <trkpt lat="36.735690" lon="-3.531692">
        <ele>3.454</ele>
        <time>2022-12-10T14:45:51Z</time>
      </trkpt>
      <trkpt lat="36.735868" lon="-3.531614">
        <ele>3.809</ele>
        <time>2022-12-10T14:45:59Z</time>
      </trkpt>
      <trkpt lat="36.736055" lon="-3.531525">
        <ele>3.509</ele>
        <time>2022-12-10T14:46:07Z</time>
      </trkpt>
      <trkpt lat="36.736240" lon="-3.531415">
        <ele>4.082</ele>
        <time>2022-12-10T14:46:15Z</time>
      </trkpt>
      <trkpt lat="36.736410" lon="-3.531305">
        <ele>4.843</ele>
        <time>2022-12-10T14:46:22Z</time>
      </trkpt>
      <trkpt lat="36.736579" lon="-3.531220">
        <ele>5.162</ele>
        <time>2022-12-10T14:46:29Z</time>
      </trkpt>
      <trkpt lat="36.736749" lon="-3.531112">
        <ele>4.731</ele>
        <time>2022-12-10T14:46:36Z</time>
      </trkpt>
      <trkpt lat="36.736897" lon="-3.530983">
        <ele>4.183</ele>
        <time>2022-12-10T14:46:42Z</time>
      </trkpt>
      <trkpt lat="36.737034" lon="-3.530805">
        <ele>3.699</ele>
        <time>2022-12-10T14:46:49Z</time>
      </trkpt>
      <trkpt lat="36.737123" lon="-3.530678">
        <ele>3.290</ele>
        <time>2022-12-10T14:46:54Z</time>
      </trkpt>
      <trkpt lat="36.737214" lon="-3.530501">
        <ele>3.013</ele>
        <time>2022-12-10T14:47:01Z</time>
      </trkpt>
      <trkpt lat="36.737321" lon="-3.530309">
        <ele>3.333</ele>
        <time>2022-12-10T14:47:09Z</time>
      </trkpt>
      <trkpt lat="36.737427" lon="-3.530125">
        <ele>3.963</ele>
        <time>2022-12-10T14:47:16Z</time>
      </trkpt>
      <trkpt lat="36.737549" lon="-3.529919">
        <ele>4.444</ele>
        <time>2022-12-10T14:47:24Z</time>
      </trkpt>
      <trkpt lat="36.737674" lon="-3.529759">
        <ele>5.018</ele>
        <time>2022-12-10T14:47:31Z</time>
      </trkpt>
      <trkpt lat="36.737840" lon="-3.529616">
        <ele>4.809</ele>
        <time>2022-12-10T14:47:39Z</time>
      </trkpt>
      <trkpt lat="36.737998" lon="-3.529505">
        <ele>5.077</ele>
        <time>2022-12-10T14:47:46Z</time>
      </trkpt>
      <trkpt lat="36.738168" lon="-3.529387">
        <ele>4.918</ele>
        <time>2022-12-10T14:47:53Z</time>
      </trkpt>
      <trkpt lat="36.738334" lon="-3.529272">
        <ele>5.097</ele>
        <time>2022-12-10T14:48:00Z</time>
      </trkpt>
      <trkpt lat="36.738510" lon="-3.529179">
        <ele>5.646</ele>
        <time>2022-12-10T14:48:07Z</time>
      </trkpt>
      <trkpt lat="36.738692" lon="-3.529086">
        <ele>6.628</ele>
        <time>2022-12-10T14:48:16Z</time>
      </trkpt>
      <trkpt lat="36.738866" lon="-3.529013">
        <ele>7.544</ele>
        <time>2022-12-10T14:48:24Z</time>
      </trkpt>
      <trkpt lat="36.738964" lon="-3.528967">
        <ele>8.045</ele>
        <time>2022-12-10T14:48:28Z</time>
      </trkpt>
      <trkpt lat="36.739151" lon="-3.528876">
        <ele>8.918</ele>
        <time>2022-12-10T14:48:36Z</time>
      </trkpt>
      <trkpt lat="36.739350" lon="-3.528805">
        <ele>9.768</ele>
        <time>2022-12-10T14:48:44Z</time>
      </trkpt>
      <trkpt lat="36.739548" lon="-3.528773">
        <ele>10.786</ele>
        <time>2022-12-10T14:48:51Z</time>
      </trkpt>
      <trkpt lat="36.739744" lon="-3.528759">
        <ele>12.160</ele>
        <time>2022-12-10T14:48:58Z</time>
      </trkpt>
      <trkpt lat="36.739931" lon="-3.528756">
        <ele>12.826</ele>
        <time>2022-12-10T14:49:05Z</time>
      </trkpt>
      <trkpt lat="36.740112" lon="-3.528745">
        <ele>12.809</ele>
        <time>2022-12-10T14:49:12Z</time>
      </trkpt>
      <trkpt lat="36.740139" lon="-3.528746">
        <ele>12.729</ele>
        <time>2022-12-10T14:49:13Z</time>
      </trkpt>
      <trkpt lat="36.740332" lon="-3.528743">
        <ele>12.650</ele>
        <time>2022-12-10T14:49:20Z</time>
      </trkpt>
      <trkpt lat="36.740534" lon="-3.528734">
        <ele>12.829</ele>
        <time>2022-12-10T14:49:27Z</time>
      </trkpt>
      <trkpt lat="36.740565" lon="-3.528732">
        <ele>13.038</ele>
        <time>2022-12-10T14:49:28Z</time>
      </trkpt>
      <trkpt lat="36.740592" lon="-3.528729">
        <ele>13.240</ele>
        <time>2022-12-10T14:49:29Z</time>
      </trkpt>
      <trkpt lat="36.740784" lon="-3.528687">
        <ele>14.496</ele>
        <time>2022-12-10T14:49:37Z</time>
      </trkpt>
      <trkpt lat="36.740993" lon="-3.528640">
        <ele>14.977</ele>
        <time>2022-12-10T14:49:45Z</time>
      </trkpt>
      <trkpt lat="36.741079" lon="-3.528576">
        <ele>14.530</ele>
        <time>2022-12-10T14:49:50Z</time>
      </trkpt>
      <trkpt lat="36.741267" lon="-3.528491">
        <ele>13.740</ele>
        <time>2022-12-10T14:49:59Z</time>
      </trkpt>
      <trkpt lat="36.741412" lon="-3.528476">
        <ele>13.943</ele>
        <time>2022-12-10T14:50:05Z</time>
      </trkpt>
      <trkpt lat="36.741613" lon="-3.528480">
        <ele>16.864</ele>
        <time>2022-12-10T14:50:14Z</time>
      </trkpt>
      <trkpt lat="36.741723" lon="-3.528499">
        <ele>18.110</ele>
        <time>2022-12-10T14:50:19Z</time>
      </trkpt>
      <trkpt lat="36.741783" lon="-3.528525">
        <ele>18.709</ele>
        <time>2022-12-10T14:50:22Z</time>
      </trkpt>
      <trkpt lat="36.741830" lon="-3.528511">
        <ele>19.075</ele>
        <time>2022-12-10T14:50:24Z</time>
      </trkpt>
      <trkpt lat="36.741929" lon="-3.528483">
        <ele>19.986</ele>
        <time>2022-12-10T14:50:28Z</time>
      </trkpt>
      <trkpt lat="36.742102" lon="-3.528393">
        <ele>20.325</ele>
        <time>2022-12-10T14:50:39Z</time>
      </trkpt>
      <trkpt lat="36.742146" lon="-3.528365">
        <ele>20.634</ele>
        <time>2022-12-10T14:50:41Z</time>
      </trkpt>
      <trkpt lat="36.742304" lon="-3.528209">
        <ele>20.816</ele>
        <time>2022-12-10T14:50:47Z</time>
      </trkpt>
      <trkpt lat="36.742485" lon="-3.528142">
        <ele>20.782</ele>
        <time>2022-12-10T14:50:54Z</time>
      </trkpt>
      <trkpt lat="36.742615" lon="-3.527947">
        <ele>22.263</ele>
        <time>2022-12-10T14:51:01Z</time>
      </trkpt>
      <trkpt lat="36.742640" lon="-3.527884">
        <ele>22.676</ele>
        <time>2022-12-10T14:51:03Z</time>
      </trkpt>
      <trkpt lat="36.742713" lon="-3.527675">
        <ele>23.566</ele>
        <time>2022-12-10T14:51:09Z</time>
      </trkpt>
      <trkpt lat="36.742728" lon="-3.527643">
        <ele>23.615</ele>
        <time>2022-12-10T14:51:10Z</time>
      </trkpt>
      <trkpt lat="36.742803" lon="-3.527434">
        <ele>24.465</ele>
        <time>2022-12-10T14:51:16Z</time>
      </trkpt>
      <trkpt lat="36.742782" lon="-3.527219">
        <ele>25.011</ele>
        <time>2022-12-10T14:51:23Z</time>
      </trkpt>
      <trkpt lat="36.742723" lon="-3.527079">
        <ele>24.009</ele>
        <time>2022-12-10T14:51:28Z</time>
      </trkpt>
      <trkpt lat="36.742880" lon="-3.526906">
        <ele>25.082</ele>
        <time>2022-12-10T14:51:35Z</time>
      </trkpt>
      <trkpt lat="36.742965" lon="-3.526900">
        <ele>25.953</ele>
        <time>2022-12-10T14:51:37Z</time>
      </trkpt>
      <trkpt lat="36.743093" lon="-3.526976">
        <ele>27.452</ele>
        <time>2022-12-10T14:51:42Z</time>
      </trkpt>
      <trkpt lat="36.743224" lon="-3.526983">
        <ele>28.771</ele>
        <time>2022-12-10T14:51:47Z</time>
      </trkpt>
      <trkpt lat="36.743292" lon="-3.526984">
        <ele>29.333</ele>
        <time>2022-12-10T14:51:51Z</time>
      </trkpt>
      <trkpt lat="36.743474" lon="-3.527037">
        <ele>29.779</ele>
        <time>2022-12-10T14:51:58Z</time>
      </trkpt>
      <trkpt lat="36.743625" lon="-3.526872">
        <ele>31.440</ele>
        <time>2022-12-10T14:52:05Z</time>
      </trkpt>
      <trkpt lat="36.743697" lon="-3.526786">
        <ele>32.273</ele>
        <time>2022-12-10T14:52:09Z</time>
      </trkpt>
      <trkpt lat="36.743847" lon="-3.526641">
        <ele>33.993</ele>
        <time>2022-12-10T14:52:16Z</time>
      </trkpt>
      <trkpt lat="36.743942" lon="-3.526540">
        <ele>35.033</ele>
        <time>2022-12-10T14:52:21Z</time>
      </trkpt>
      <trkpt lat="36.743955" lon="-3.526521">
        <ele>35.223</ele>
        <time>2022-12-10T14:52:22Z</time>
      </trkpt>
      <trkpt lat="36.743932" lon="-3.526430">
        <ele>35.715</ele>
        <time>2022-12-10T14:52:26Z</time>
      </trkpt>
      <trkpt lat="36.743919" lon="-3.526381">
        <ele>36.009</ele>
        <time>2022-12-10T14:52:29Z</time>
      </trkpt>
      <trkpt lat="36.743985" lon="-3.526375">
        <ele>36.164</ele>
        <time>2022-12-10T14:52:32Z</time>
      </trkpt>
      <trkpt lat="36.744006" lon="-3.526376">
        <ele>36.125</ele>
        <time>2022-12-10T14:52:33Z</time>
      </trkpt>
      <trkpt lat="36.744084" lon="-3.526361">
        <ele>36.214</ele>
        <time>2022-12-10T14:52:37Z</time>
      </trkpt>
      <trkpt lat="36.744210" lon="-3.526238">
        <ele>37.363</ele>
        <time>2022-12-10T14:52:45Z</time>
      </trkpt>
      <trkpt lat="36.744339" lon="-3.526033">
        <ele>38.775</ele>
        <time>2022-12-10T14:52:49Z</time>
      </trkpt>
      <trkpt lat="36.744467" lon="-3.525803">
        <ele>39.161</ele>
        <time>2022-12-10T14:52:55Z</time>
      </trkpt>
      <trkpt lat="36.744530" lon="-3.525584">
        <ele>39.082</ele>
        <time>2022-12-10T14:53:01Z</time>
      </trkpt>
      <trkpt lat="36.744564" lon="-3.525370">
        <ele>38.085</ele>
        <time>2022-12-10T14:53:08Z</time>
      </trkpt>
      <trkpt lat="36.744560" lon="-3.525335">
        <ele>37.985</ele>
        <time>2022-12-10T14:53:10Z</time>
      </trkpt>
      <trkpt lat="36.744598" lon="-3.525141">
        <ele>37.274</ele>
        <time>2022-12-10T14:53:17Z</time>
      </trkpt>
      <trkpt lat="36.744693" lon="-3.524925">
        <ele>37.056</ele>
        <time>2022-12-10T14:53:23Z</time>
      </trkpt>
      <trkpt lat="36.744711" lon="-3.524686">
        <ele>37.321</ele>
        <time>2022-12-10T14:53:30Z</time>
      </trkpt>
      <trkpt lat="36.744691" lon="-3.524432">
        <ele>38.909</ele>
        <time>2022-12-10T14:53:36Z</time>
      </trkpt>
      <trkpt lat="36.744608" lon="-3.524224">
        <ele>38.638</ele>
        <time>2022-12-10T14:53:42Z</time>
      </trkpt>
      <trkpt lat="36.744591" lon="-3.524192">
        <ele>38.569</ele>
        <time>2022-12-10T14:53:43Z</time>
      </trkpt>
      <trkpt lat="36.744457" lon="-3.524001">
        <ele>38.058</ele>
        <time>2022-12-10T14:53:50Z</time>
      </trkpt>
      <trkpt lat="36.744354" lon="-3.523773">
        <ele>37.517</ele>
        <time>2022-12-10T14:53:57Z</time>
      </trkpt>
      <trkpt lat="36.744299" lon="-3.523548">
        <ele>37.069</ele>
        <time>2022-12-10T14:54:03Z</time>
      </trkpt>
      <trkpt lat="36.744243" lon="-3.523318">
        <ele>36.675</ele>
        <time>2022-12-10T14:54:09Z</time>
      </trkpt>
      <trkpt lat="36.744166" lon="-3.523151">
        <ele>37.366</ele>
        <time>2022-12-10T14:54:14Z</time>
      </trkpt>
      <trkpt lat="36.744080" lon="-3.522951">
        <ele>37.849</ele>
        <time>2022-12-10T14:54:21Z</time>
      </trkpt>
      <trkpt lat="36.744015" lon="-3.522737">
        <ele>37.899</ele>
        <time>2022-12-10T14:54:27Z</time>
      </trkpt>
      <trkpt lat="36.743907" lon="-3.522518">
        <ele>36.251</ele>
        <time>2022-12-10T14:54:34Z</time>
      </trkpt>
      <trkpt lat="36.743837" lon="-3.522407">
        <ele>35.601</ele>
        <time>2022-12-10T14:54:38Z</time>
      </trkpt>
      <trkpt lat="36.743697" lon="-3.522239">
        <ele>34.411</ele>
        <time>2022-12-10T14:54:44Z</time>
      </trkpt>
      <trkpt lat="36.743665" lon="-3.522176">
        <ele>34.209</ele>
        <time>2022-12-10T14:54:46Z</time>
      </trkpt>
      <trkpt lat="36.743616" lon="-3.522042">
        <ele>34.096</ele>
        <time>2022-12-10T14:54:50Z</time>
      </trkpt>
      <trkpt lat="36.743538" lon="-3.521836">
        <ele>34.157</ele>
        <time>2022-12-10T14:54:56Z</time>
      </trkpt>
      <trkpt lat="36.743517" lon="-3.521766">
        <ele>34.396</ele>
        <time>2022-12-10T14:54:58Z</time>
      </trkpt>
      <trkpt lat="36.743413" lon="-3.521608">
        <ele>34.855</ele>
        <time>2022-12-10T14:55:07Z</time>
      </trkpt>
      <trkpt lat="36.743289" lon="-3.521605">
        <ele>34.297</ele>
        <time>2022-12-10T14:55:11Z</time>
      </trkpt>
      <trkpt lat="36.743239" lon="-3.521617">
        <ele>33.553</ele>
        <time>2022-12-10T14:55:13Z</time>
      </trkpt>
      <trkpt lat="36.743036" lon="-3.521657">
        <ele>31.094</ele>
        <time>2022-12-10T14:55:20Z</time>
      </trkpt>
      <trkpt lat="36.742819" lon="-3.521614">
        <ele>30.497</ele>
        <time>2022-12-10T14:55:27Z</time>
      </trkpt>
      <trkpt lat="36.742667" lon="-3.521597">
        <ele>30.297</ele>
        <time>2022-12-10T14:55:31Z</time>
      </trkpt>
      <trkpt lat="36.742464" lon="-3.521581">
        <ele>29.693</ele>
        <time>2022-12-10T14:55:36Z</time>
      </trkpt>
      <trkpt lat="36.742344" lon="-3.521577">
        <ele>28.365</ele>
        <time>2022-12-10T14:55:40Z</time>
      </trkpt>
      <trkpt lat="36.742152" lon="-3.521551">
        <ele>26.621</ele>
        <time>2022-12-10T14:55:46Z</time>
      </trkpt>
      <trkpt lat="36.741971" lon="-3.521555">
        <ele>25.709</ele>
        <time>2022-12-10T14:55:52Z</time>
      </trkpt>
      <trkpt lat="36.741923" lon="-3.521556">
        <ele>25.630</ele>
        <time>2022-12-10T14:55:54Z</time>
      </trkpt>
    </trkseg>
  </trk>
</gpx>
